<?xml version="1.0" encoding="UTF-8" standalone="no" ?>
<gpx xmlns="http://www.topografix.com/GPX/1/1" xmlns:xsi="http://www.w3.org/2001/XMLSchema-instance" xsi:schemaLocation="http://www.topografix.com/GPX/1/1 http://www.topografix.com/GPX/1/1/gpx.xsd" version="1.1" creator="VisuGPX - https://www.visugpx.com">
  <metadata>
    <name>Cols Ardéchois</name>
    <desc><![CDATA[16 Cols Ardéchois]]></desc>
  </metadata>
  <trk>
    <name><![CDATA[16 Cols Ardéchois]]></name>
    <cmt><![CDATA[Bruno]]></cmt>
    <trkseg>
      <trkpt lat="45.11446" lon="4.96281">
        <ele>207.41600036621</ele>
        <time>2009-08-03T06:34:04Z</time>
      </trkpt>
      <trkpt lat="45.11443" lon="4.96274">
        <ele>207.41400146484</ele>
        <time>2009-08-03T06:34:05Z</time>
      </trkpt>
      <trkpt lat="45.11403" lon="4.96194">
        <ele>207.00399780273</ele>
        <time>2009-08-03T06:34:16Z</time>
      </trkpt>
      <trkpt lat="45.11395" lon="4.96178">
        <ele>206.52200317383</ele>
        <time>2009-08-03T06:34:18Z</time>
      </trkpt>
      <trkpt lat="45.11391" lon="4.9617">
        <ele>206.61399841309</ele>
        <time>2009-08-03T06:34:19Z</time>
      </trkpt>
      <trkpt lat="45.11378" lon="4.96144">
        <ele>205.98300170898</ele>
        <time>2009-08-03T06:34:22Z</time>
      </trkpt>
      <trkpt lat="45.11303" lon="4.96005">
        <ele>204.44500732422</ele>
        <time>2009-08-03T06:34:38Z</time>
      </trkpt>
      <trkpt lat="45.11235" lon="4.95894">
        <ele>202.35200500488</ele>
        <time>2009-08-03T06:34:51Z</time>
      </trkpt>
      <trkpt lat="45.11128" lon="4.9572">
        <ele>202.52099609375</ele>
        <time>2009-08-03T06:35:12Z</time>
      </trkpt>
      <trkpt lat="45.11057" lon="4.95631">
        <ele>203.31399536133</ele>
        <time>2009-08-03T06:35:25Z</time>
      </trkpt>
      <trkpt lat="45.10978" lon="4.95515">
        <ele>201.79699707031</ele>
        <time>2009-08-03T06:35:40Z</time>
      </trkpt>
      <trkpt lat="45.10929" lon="4.95345">
        <ele>200.3809967041</ele>
        <time>2009-08-03T06:35:56Z</time>
      </trkpt>
      <trkpt lat="45.10876" lon="4.95193">
        <ele>202.56599426269</ele>
        <time>2009-08-03T06:36:12Z</time>
      </trkpt>
      <trkpt lat="45.10852" lon="4.95082">
        <ele>207.37800598144</ele>
        <time>2009-08-03T06:36:26Z</time>
      </trkpt>
      <trkpt lat="45.10852" lon="4.95034">
        <ele>209.92900085449</ele>
        <time>2009-08-03T06:36:33Z</time>
      </trkpt>
      <trkpt lat="45.10854" lon="4.95008">
        <ele>211.23199462891</ele>
        <time>2009-08-03T06:36:37Z</time>
      </trkpt>
      <trkpt lat="45.10855" lon="4.94968">
        <ele>213.3630065918</ele>
        <time>2009-08-03T06:36:43Z</time>
      </trkpt>
      <trkpt lat="45.10858" lon="4.94929">
        <ele>215.03399658203</ele>
        <time>2009-08-03T06:36:49Z</time>
      </trkpt>
      <trkpt lat="45.10863" lon="4.9487">
        <ele>217.96899414062</ele>
        <time>2009-08-03T06:36:58Z</time>
      </trkpt>
      <trkpt lat="45.10871" lon="4.94838">
        <ele>219.42300415039</ele>
        <time>2009-08-03T06:37:04Z</time>
      </trkpt>
      <trkpt lat="45.10876" lon="4.94821">
        <ele>219.75100708008</ele>
        <time>2009-08-03T06:37:08Z</time>
      </trkpt>
      <trkpt lat="45.10876" lon="4.94809">
        <ele>219.70300292969</ele>
        <time>2009-08-03T06:37:10Z</time>
      </trkpt>
      <trkpt lat="45.1088" lon="4.94784">
        <ele>219.7440032959</ele>
        <time>2009-08-03T06:37:14Z</time>
      </trkpt>
      <trkpt lat="45.10919" lon="4.94645">
        <ele>219.33200073242</ele>
        <time>2009-08-03T06:37:33Z</time>
      </trkpt>
      <trkpt lat="45.10931" lon="4.94539">
        <ele>218.53500366211</ele>
        <time>2009-08-03T06:37:45Z</time>
      </trkpt>
      <trkpt lat="45.10926" lon="4.94433">
        <ele>218.0059967041</ele>
        <time>2009-08-03T06:37:56Z</time>
      </trkpt>
      <trkpt lat="45.10919" lon="4.94336">
        <ele>218.66900634766</ele>
        <time>2009-08-03T06:38:06Z</time>
      </trkpt>
      <trkpt lat="45.10891" lon="4.94276">
        <ele>217.81199645996</ele>
        <time>2009-08-03T06:38:13Z</time>
      </trkpt>
      <trkpt lat="45.10791" lon="4.94159">
        <ele>216.65899658203</ele>
        <time>2009-08-03T06:38:29Z</time>
      </trkpt>
      <trkpt lat="45.1072" lon="4.94031">
        <ele>218.71899414062</ele>
        <time>2009-08-03T06:38:44Z</time>
      </trkpt>
      <trkpt lat="45.10688" lon="4.9388">
        <ele>220.71299743652</ele>
        <time>2009-08-03T06:39:00Z</time>
      </trkpt>
      <trkpt lat="45.10668" lon="4.93694">
        <ele>216.54200744629</ele>
        <time>2009-08-03T06:39:17Z</time>
      </trkpt>
      <trkpt lat="45.10653" lon="4.93589">
        <ele>211.3390045166</ele>
        <time>2009-08-03T06:39:25Z</time>
      </trkpt>
      <trkpt lat="45.10645" lon="4.93547">
        <ele>208.91400146484</ele>
        <time>2009-08-03T06:39:28Z</time>
      </trkpt>
      <trkpt lat="45.10634" lon="4.93489">
        <ele>206.41299438477</ele>
        <time>2009-08-03T06:39:32Z</time>
      </trkpt>
      <trkpt lat="45.10613" lon="4.93386">
        <ele>203.18600463867</ele>
        <time>2009-08-03T06:39:39Z</time>
      </trkpt>
      <trkpt lat="45.10571" lon="4.93171">
        <ele>200.40699768066</ele>
        <time>2009-08-03T06:39:56Z</time>
      </trkpt>
      <trkpt lat="45.10531" lon="4.92964">
        <ele>198.93600463867</ele>
        <time>2009-08-03T06:40:15Z</time>
      </trkpt>
      <trkpt lat="45.10502" lon="4.92815">
        <ele>198.69000244141</ele>
        <time>2009-08-03T06:40:29Z</time>
      </trkpt>
      <trkpt lat="45.10492" lon="4.9276">
        <ele>198.85099792481</ele>
        <time>2009-08-03T06:40:35Z</time>
      </trkpt>
      <trkpt lat="45.10463" lon="4.92619">
        <ele>198.42300415039</ele>
        <time>2009-08-03T06:40:51Z</time>
      </trkpt>
      <trkpt lat="45.10435" lon="4.92452">
        <ele>195.71800231934</ele>
        <time>2009-08-03T06:41:08Z</time>
      </trkpt>
      <trkpt lat="45.10406" lon="4.92293">
        <ele>194.14900207519</ele>
        <time>2009-08-03T06:41:22Z</time>
      </trkpt>
      <trkpt lat="45.10362" lon="4.92048">
        <ele>194.0059967041</ele>
        <time>2009-08-03T06:41:45Z</time>
      </trkpt>
      <trkpt lat="45.10353" lon="4.91997">
        <ele>194.88299560547</ele>
        <time>2009-08-03T06:41:50Z</time>
      </trkpt>
      <trkpt lat="45.10352" lon="4.91988">
        <ele>194.75399780273</ele>
        <time>2009-08-03T06:41:51Z</time>
      </trkpt>
      <trkpt lat="45.10325" lon="4.91834">
        <ele>196.38600158691</ele>
        <time>2009-08-03T06:42:07Z</time>
      </trkpt>
      <trkpt lat="45.10317" lon="4.91787">
        <ele>195.94599914551</ele>
        <time>2009-08-03T06:42:12Z</time>
      </trkpt>
      <trkpt lat="45.10282" lon="4.91755">
        <ele>195.92399597168</ele>
        <time>2009-08-03T06:42:19Z</time>
      </trkpt>
      <trkpt lat="45.10275" lon="4.91756">
        <ele>195.91900634766</ele>
        <time>2009-08-03T06:42:20Z</time>
      </trkpt>
      <trkpt lat="45.10109" lon="4.91783">
        <ele>196.17399597168</ele>
        <time>2009-08-03T06:42:42Z</time>
      </trkpt>
      <trkpt lat="45.09932" lon="4.91817">
        <ele>197.28999328613</ele>
        <time>2009-08-03T06:43:06Z</time>
      </trkpt>
      <trkpt lat="45.09777" lon="4.91847">
        <ele>198.35600280762</ele>
        <time>2009-08-03T06:43:27Z</time>
      </trkpt>
      <trkpt lat="45.0966" lon="4.91869">
        <ele>200.74800109863</ele>
        <time>2009-08-03T06:43:44Z</time>
      </trkpt>
      <trkpt lat="45.09498" lon="4.91889">
        <ele>204.36199951172</ele>
        <time>2009-08-03T06:44:08Z</time>
      </trkpt>
      <trkpt lat="45.09433" lon="4.9187">
        <ele>206.46200561523</ele>
        <time>2009-08-03T06:44:18Z</time>
      </trkpt>
      <trkpt lat="45.09343" lon="4.91837">
        <ele>211.33200073242</ele>
        <time>2009-08-03T06:44:34Z</time>
      </trkpt>
      <trkpt lat="45.09301" lon="4.9182">
        <ele>213.41600036621</ele>
        <time>2009-08-03T06:44:42Z</time>
      </trkpt>
      <trkpt lat="45.09243" lon="4.91802">
        <ele>217.00300598144</ele>
        <time>2009-08-03T06:44:53Z</time>
      </trkpt>
      <trkpt lat="45.09237" lon="4.91802">
        <ele>217.27099609375</ele>
        <time>2009-08-03T06:44:54Z</time>
      </trkpt>
      <trkpt lat="45.09161" lon="4.91821">
        <ele>221.76800537109</ele>
        <time>2009-08-03T06:45:10Z</time>
      </trkpt>
      <trkpt lat="45.09078" lon="4.91853">
        <ele>226.91600036621</ele>
        <time>2009-08-03T06:45:28Z</time>
      </trkpt>
      <trkpt lat="45.08975" lon="4.9188">
        <ele>231.44799804688</ele>
        <time>2009-08-03T06:45:49Z</time>
      </trkpt>
      <trkpt lat="45.08862" lon="4.91902">
        <ele>235.22500610352</ele>
        <time>2009-08-03T06:46:09Z</time>
      </trkpt>
      <trkpt lat="45.08733" lon="4.91913">
        <ele>239.08200073242</ele>
        <time>2009-08-03T06:46:31Z</time>
      </trkpt>
      <trkpt lat="45.08638" lon="4.91921">
        <ele>242.44400024414</ele>
        <time>2009-08-03T06:46:47Z</time>
      </trkpt>
      <trkpt lat="45.08614" lon="4.91923">
        <ele>243.59599304199</ele>
        <time>2009-08-03T06:46:51Z</time>
      </trkpt>
      <trkpt lat="45.0854" lon="4.91949">
        <ele>246.57600402832</ele>
        <time>2009-08-03T06:47:04Z</time>
      </trkpt>
      <trkpt lat="45.085" lon="4.91965">
        <ele>247.54699707031</ele>
        <time>2009-08-03T06:47:11Z</time>
      </trkpt>
      <trkpt lat="45.08387" lon="4.92014">
        <ele>246.15100097656</ele>
        <time>2009-08-03T06:47:29Z</time>
      </trkpt>
      <trkpt lat="45.08314" lon="4.92033">
        <ele>244.96699523926</ele>
        <time>2009-08-03T06:47:40Z</time>
      </trkpt>
      <trkpt lat="45.083" lon="4.92033">
        <ele>245.53799438477</ele>
        <time>2009-08-03T06:47:42Z</time>
      </trkpt>
      <trkpt lat="45.08268" lon="4.92033">
        <ele>246.55999755859</ele>
        <time>2009-08-03T06:47:47Z</time>
      </trkpt>
      <trkpt lat="45.08244" lon="4.9203">
        <ele>247.43299865723</ele>
        <time>2009-08-03T06:47:51Z</time>
      </trkpt>
      <trkpt lat="45.08223" lon="4.92015">
        <ele>248.52099609375</ele>
        <time>2009-08-03T06:47:55Z</time>
      </trkpt>
      <trkpt lat="45.08178" lon="4.91926">
        <ele>250.98100280762</ele>
        <time>2009-08-03T06:48:08Z</time>
      </trkpt>
      <trkpt lat="45.08162" lon="4.91887">
        <ele>249.60600280762</ele>
        <time>2009-08-03T06:48:13Z</time>
      </trkpt>
      <trkpt lat="45.08158" lon="4.91867">
        <ele>248.73699951172</ele>
        <time>2009-08-03T06:48:15Z</time>
      </trkpt>
      <trkpt lat="45.08157" lon="4.91822">
        <ele>246.35200500488</ele>
        <time>2009-08-03T06:48:19Z</time>
      </trkpt>
      <trkpt lat="45.08165" lon="4.91762">
        <ele>243.97300720215</ele>
        <time>2009-08-03T06:48:24Z</time>
      </trkpt>
      <trkpt lat="45.08173" lon="4.91712">
        <ele>241.95700073242</ele>
        <time>2009-08-03T06:48:28Z</time>
      </trkpt>
      <trkpt lat="45.08185" lon="4.91631">
        <ele>238.67999267578</ele>
        <time>2009-08-03T06:48:34Z</time>
      </trkpt>
      <trkpt lat="45.0817" lon="4.9156">
        <ele>234.9109954834</ele>
        <time>2009-08-03T06:48:39Z</time>
      </trkpt>
      <trkpt lat="45.08155" lon="4.91537">
        <ele>233.11199951172</ele>
        <time>2009-08-03T06:48:41Z</time>
      </trkpt>
      <trkpt lat="45.08146" lon="4.91527">
        <ele>232.3690032959</ele>
        <time>2009-08-03T06:48:42Z</time>
      </trkpt>
      <trkpt lat="45.08098" lon="4.9148">
        <ele>227.99600219727</ele>
        <time>2009-08-03T06:48:47Z</time>
      </trkpt>
      <trkpt lat="45.08052" lon="4.91432">
        <ele>224.84700012207</ele>
        <time>2009-08-03T06:48:52Z</time>
      </trkpt>
      <trkpt lat="45.08009" lon="4.91378">
        <ele>222.36199951172</ele>
        <time>2009-08-03T06:48:57Z</time>
      </trkpt>
      <trkpt lat="45.07975" lon="4.91335">
        <ele>219.9940032959</ele>
        <time>2009-08-03T06:49:01Z</time>
      </trkpt>
      <trkpt lat="45.07937" lon="4.91278">
        <ele>217.83099365234</ele>
        <time>2009-08-03T06:49:06Z</time>
      </trkpt>
      <trkpt lat="45.07868" lon="4.91162">
        <ele>213.75300598144</ele>
        <time>2009-08-03T06:49:16Z</time>
      </trkpt>
      <trkpt lat="45.07828" lon="4.91119">
        <ele>212.7559967041</ele>
        <time>2009-08-03T06:49:21Z</time>
      </trkpt>
      <trkpt lat="45.07812" lon="4.91104">
        <ele>212.12699890137</ele>
        <time>2009-08-03T06:49:23Z</time>
      </trkpt>
      <trkpt lat="45.07804" lon="4.91096">
        <ele>212.08700561523</ele>
        <time>2009-08-03T06:49:24Z</time>
      </trkpt>
      <trkpt lat="45.07797" lon="4.91088">
        <ele>212.18499755859</ele>
        <time>2009-08-03T06:49:25Z</time>
      </trkpt>
      <trkpt lat="45.07784" lon="4.91069">
        <ele>211.69500732422</ele>
        <time>2009-08-03T06:49:27Z</time>
      </trkpt>
      <trkpt lat="45.07777" lon="4.9106">
        <ele>211.43299865723</ele>
        <time>2009-08-03T06:49:28Z</time>
      </trkpt>
      <trkpt lat="45.07751" lon="4.91023">
        <ele>210.55099487305</ele>
        <time>2009-08-03T06:49:32Z</time>
      </trkpt>
      <trkpt lat="45.07683" lon="4.90916">
        <ele>208.2559967041</ele>
        <time>2009-08-03T06:49:43Z</time>
      </trkpt>
      <trkpt lat="45.07631" lon="4.90766">
        <ele>205.86199951172</ele>
        <time>2009-08-03T06:49:56Z</time>
      </trkpt>
      <trkpt lat="45.07618" lon="4.90706">
        <ele>204.81799316406</ele>
        <time>2009-08-03T06:50:01Z</time>
      </trkpt>
      <trkpt lat="45.07624" lon="4.90591">
        <ele>201.68899536133</ele>
        <time>2009-08-03T06:50:10Z</time>
      </trkpt>
      <trkpt lat="45.07644" lon="4.90514">
        <ele>198.17100524902</ele>
        <time>2009-08-03T06:50:16Z</time>
      </trkpt>
      <trkpt lat="45.07678" lon="4.90437">
        <ele>193.56399536133</ele>
        <time>2009-08-03T06:50:22Z</time>
      </trkpt>
      <trkpt lat="45.07695" lon="4.90398">
        <ele>191.55099487305</ele>
        <time>2009-08-03T06:50:25Z</time>
      </trkpt>
      <trkpt lat="45.07701" lon="4.90385">
        <ele>191.22799682617</ele>
        <time>2009-08-03T06:50:26Z</time>
      </trkpt>
      <trkpt lat="45.07721" lon="4.90233">
        <ele>187.92799377441</ele>
        <time>2009-08-03T06:50:37Z</time>
      </trkpt>
      <trkpt lat="45.07722" lon="4.90135">
        <ele>186.01600646973</ele>
        <time>2009-08-03T06:50:44Z</time>
      </trkpt>
      <trkpt lat="45.07747" lon="4.89992">
        <ele>183.30299377441</ele>
        <time>2009-08-03T06:50:55Z</time>
      </trkpt>
      <trkpt lat="45.07751" lon="4.8998">
        <ele>182.71600341797</ele>
        <time>2009-08-03T06:50:56Z</time>
      </trkpt>
      <trkpt lat="45.078" lon="4.89892">
        <ele>180.58099365234</ele>
        <time>2009-08-03T06:51:04Z</time>
      </trkpt>
      <trkpt lat="45.07867" lon="4.89776">
        <ele>179.37100219727</ele>
        <time>2009-08-03T06:51:15Z</time>
      </trkpt>
      <trkpt lat="45.07881" lon="4.89714">
        <ele>178.22300720215</ele>
        <time>2009-08-03T06:51:20Z</time>
      </trkpt>
      <trkpt lat="45.07893" lon="4.89584">
        <ele>177.2619934082</ele>
        <time>2009-08-03T06:51:30Z</time>
      </trkpt>
      <trkpt lat="45.07892" lon="4.89486">
        <ele>177.86700439453</ele>
        <time>2009-08-03T06:51:38Z</time>
      </trkpt>
      <trkpt lat="45.07866" lon="4.89349">
        <ele>178.27000427246</ele>
        <time>2009-08-03T06:51:50Z</time>
      </trkpt>
      <trkpt lat="45.07801" lon="4.89179">
        <ele>176.91400146484</ele>
        <time>2009-08-03T06:52:06Z</time>
      </trkpt>
      <trkpt lat="45.07768" lon="4.89073">
        <ele>169.76600646973</ele>
        <time>2009-08-03T06:52:14Z</time>
      </trkpt>
      <trkpt lat="45.07756" lon="4.89048">
        <ele>169.08299255371</ele>
        <time>2009-08-03T06:52:16Z</time>
      </trkpt>
      <trkpt lat="45.07742" lon="4.89026">
        <ele>168.89799499512</ele>
        <time>2009-08-03T06:52:18Z</time>
      </trkpt>
      <trkpt lat="45.07653" lon="4.88956">
        <ele>167.84300231934</ele>
        <time>2009-08-03T06:52:29Z</time>
      </trkpt>
      <trkpt lat="45.0757" lon="4.88953">
        <ele>167.19099426269</ele>
        <time>2009-08-03T06:52:39Z</time>
      </trkpt>
      <trkpt lat="45.0754" lon="4.88941">
        <ele>167.34800720215</ele>
        <time>2009-08-03T06:52:44Z</time>
      </trkpt>
      <trkpt lat="45.0753" lon="4.88941">
        <ele>167.44700622559</ele>
        <time>2009-08-03T06:52:49Z</time>
      </trkpt>
      <trkpt lat="45.0753" lon="4.88942">
        <ele>167.42300415039</ele>
        <time>2009-08-03T06:52:54Z</time>
      </trkpt>
      <trkpt lat="45.07531" lon="4.88943">
        <ele>167.29200744629</ele>
        <time>2009-08-03T06:53:12Z</time>
      </trkpt>
      <trkpt lat="45.07531" lon="4.88943">
        <ele>167.56399536133</ele>
        <time>2009-08-03T06:53:15Z</time>
      </trkpt>
      <trkpt lat="45.07533" lon="4.88949">
        <ele>167.06500244141</ele>
        <time>2009-08-03T06:54:20Z</time>
      </trkpt>
      <trkpt lat="45.07517" lon="4.88951">
        <ele>166.67599487305</ele>
        <time>2009-08-03T06:54:28Z</time>
      </trkpt>
      <trkpt lat="45.0747" lon="4.88927">
        <ele>165.26100158691</ele>
        <time>2009-08-03T06:54:38Z</time>
      </trkpt>
      <trkpt lat="45.07465" lon="4.88925">
        <ele>165.18499755859</ele>
        <time>2009-08-03T06:54:39Z</time>
      </trkpt>
      <trkpt lat="45.07402" lon="4.88854">
        <ele>163.30900573731</ele>
        <time>2009-08-03T06:54:52Z</time>
      </trkpt>
      <trkpt lat="45.07391" lon="4.88826">
        <ele>162.85400390625</ele>
        <time>2009-08-03T06:54:55Z</time>
      </trkpt>
      <trkpt lat="45.07379" lon="4.88773">
        <ele>162.0950012207</ele>
        <time>2009-08-03T06:55:00Z</time>
      </trkpt>
      <trkpt lat="45.07376" lon="4.8875">
        <ele>161.54100036621</ele>
        <time>2009-08-03T06:55:02Z</time>
      </trkpt>
      <trkpt lat="45.07375" lon="4.88738">
        <ele>161.33999633789</ele>
        <time>2009-08-03T06:55:03Z</time>
      </trkpt>
      <trkpt lat="45.07351" lon="4.88575">
        <ele>159.14799499512</ele>
        <time>2009-08-03T06:55:17Z</time>
      </trkpt>
      <trkpt lat="45.07283" lon="4.88367">
        <ele>156.14199829102</ele>
        <time>2009-08-03T06:55:36Z</time>
      </trkpt>
      <trkpt lat="45.07204" lon="4.88233">
        <ele>154.21299743652</ele>
        <time>2009-08-03T06:55:50Z</time>
      </trkpt>
      <trkpt lat="45.07081" lon="4.88003">
        <ele>151.52200317383</ele>
        <time>2009-08-03T06:56:13Z</time>
      </trkpt>
      <trkpt lat="45.07016" lon="4.87794">
        <ele>150.90699768066</ele>
        <time>2009-08-03T06:56:33Z</time>
      </trkpt>
      <trkpt lat="45.0694" lon="4.87549">
        <ele>147.06100463867</ele>
        <time>2009-08-03T06:56:55Z</time>
      </trkpt>
      <trkpt lat="45.06913" lon="4.87503">
        <ele>145.93699645996</ele>
        <time>2009-08-03T06:57:00Z</time>
      </trkpt>
      <trkpt lat="45.06907" lon="4.87494">
        <ele>145.86799621582</ele>
        <time>2009-08-03T06:57:01Z</time>
      </trkpt>
      <trkpt lat="45.06894" lon="4.8748">
        <ele>145.67500305176</ele>
        <time>2009-08-03T06:57:03Z</time>
      </trkpt>
      <trkpt lat="45.0687" lon="4.87458">
        <ele>145.74099731445</ele>
        <time>2009-08-03T06:57:07Z</time>
      </trkpt>
      <trkpt lat="45.06855" lon="4.87386">
        <ele>145.41900634766</ele>
        <time>2009-08-03T06:57:14Z</time>
      </trkpt>
      <trkpt lat="45.06899" lon="4.87192">
        <ele>144.50500488281</ele>
        <time>2009-08-03T06:57:31Z</time>
      </trkpt>
      <trkpt lat="45.0698" lon="4.87035">
        <ele>144.16600036621</ele>
        <time>2009-08-03T06:57:47Z</time>
      </trkpt>
      <trkpt lat="45.07021" lon="4.86879">
        <ele>143.38200378418</ele>
        <time>2009-08-03T06:58:01Z</time>
      </trkpt>
      <trkpt lat="45.07037" lon="4.86726">
        <ele>139.61700439453</ele>
        <time>2009-08-03T06:58:13Z</time>
      </trkpt>
      <trkpt lat="45.07044" lon="4.86699">
        <ele>138.82800292969</ele>
        <time>2009-08-03T06:58:15Z</time>
      </trkpt>
      <trkpt lat="45.07066" lon="4.8665">
        <ele>136.94500732422</ele>
        <time>2009-08-03T06:58:19Z</time>
      </trkpt>
      <trkpt lat="45.07079" lon="4.86627">
        <ele>136.25999450684</ele>
        <time>2009-08-03T06:58:21Z</time>
      </trkpt>
      <trkpt lat="45.07085" lon="4.86616">
        <ele>135.88499450684</ele>
        <time>2009-08-03T06:58:22Z</time>
      </trkpt>
      <trkpt lat="45.07095" lon="4.86519">
        <ele>133.2559967041</ele>
        <time>2009-08-03T06:58:29Z</time>
      </trkpt>
      <trkpt lat="45.07085" lon="4.86494">
        <ele>132.05299377441</ele>
        <time>2009-08-03T06:58:31Z</time>
      </trkpt>
      <trkpt lat="45.07072" lon="4.86472">
        <ele>132.0119934082</ele>
        <time>2009-08-03T06:58:33Z</time>
      </trkpt>
      <trkpt lat="45.07068" lon="4.86405">
        <ele>132.875</ele>
        <time>2009-08-03T06:58:39Z</time>
      </trkpt>
      <trkpt lat="45.07037" lon="4.86357">
        <ele>132.50999450684</ele>
        <time>2009-08-03T06:58:45Z</time>
      </trkpt>
      <trkpt lat="45.07043" lon="4.86328">
        <ele>131.65899658203</ele>
        <time>2009-08-03T06:58:48Z</time>
      </trkpt>
      <trkpt lat="45.07072" lon="4.86264">
        <ele>131.71499633789</ele>
        <time>2009-08-03T06:58:55Z</time>
      </trkpt>
      <trkpt lat="45.07082" lon="4.86157">
        <ele>130.91000366211</ele>
        <time>2009-08-03T06:59:04Z</time>
      </trkpt>
      <trkpt lat="45.07072" lon="4.85918">
        <ele>130.34300231934</ele>
        <time>2009-08-03T06:59:24Z</time>
      </trkpt>
      <trkpt lat="45.07083" lon="4.85844">
        <ele>131.61599731445</ele>
        <time>2009-08-03T06:59:31Z</time>
      </trkpt>
      <trkpt lat="45.07088" lon="4.85781">
        <ele>130.70500183106</ele>
        <time>2009-08-03T06:59:38Z</time>
      </trkpt>
      <trkpt lat="45.07088" lon="4.8577">
        <ele>129.88499450684</ele>
        <time>2009-08-03T06:59:39Z</time>
      </trkpt>
      <trkpt lat="45.0709" lon="4.85734">
        <ele>128.56799316406</ele>
        <time>2009-08-03T06:59:42Z</time>
      </trkpt>
      <trkpt lat="45.07103" lon="4.85515">
        <ele>125.0120010376</ele>
        <time>2009-08-03T06:59:59Z</time>
      </trkpt>
      <trkpt lat="45.07096" lon="4.85332">
        <ele>124.1429977417</ele>
        <time>2009-08-03T07:00:14Z</time>
      </trkpt>
      <trkpt lat="45.07091" lon="4.85173">
        <ele>122.57199859619</ele>
        <time>2009-08-03T07:00:27Z</time>
      </trkpt>
      <trkpt lat="45.07082" lon="4.85068">
        <ele>122.20500183106</ele>
        <time>2009-08-03T07:00:36Z</time>
      </trkpt>
      <trkpt lat="45.07091" lon="4.84974">
        <ele>119.13999938965</ele>
        <time>2009-08-03T07:00:44Z</time>
      </trkpt>
      <trkpt lat="45.07064" lon="4.84864">
        <ele>117.91999816894</ele>
        <time>2009-08-03T07:00:53Z</time>
      </trkpt>
      <trkpt lat="45.07055" lon="4.84814">
        <ele>121.10900115967</ele>
        <time>2009-08-03T07:00:58Z</time>
      </trkpt>
      <trkpt lat="45.07055" lon="4.84796">
        <ele>121.77300262451</ele>
        <time>2009-08-03T07:01:00Z</time>
      </trkpt>
      <trkpt lat="45.07053" lon="4.84769">
        <ele>121.5419998169</ele>
        <time>2009-08-03T07:01:03Z</time>
      </trkpt>
      <trkpt lat="45.0705" lon="4.84732">
        <ele>122.30500030518</ele>
        <time>2009-08-03T07:01:07Z</time>
      </trkpt>
      <trkpt lat="45.07037" lon="4.84646">
        <ele>121.62899780273</ele>
        <time>2009-08-03T07:01:16Z</time>
      </trkpt>
      <trkpt lat="45.07026" lon="4.84595">
        <ele>120.95700073242</ele>
        <time>2009-08-03T07:01:21Z</time>
      </trkpt>
      <trkpt lat="45.07037" lon="4.84448">
        <ele>120.83799743652</ele>
        <time>2009-08-03T07:01:35Z</time>
      </trkpt>
      <trkpt lat="45.07038" lon="4.84427">
        <ele>120.52100372315</ele>
        <time>2009-08-03T07:01:37Z</time>
      </trkpt>
      <trkpt lat="45.07047" lon="4.84335">
        <ele>120.70400238037</ele>
        <time>2009-08-03T07:01:47Z</time>
      </trkpt>
      <trkpt lat="45.07025" lon="4.84332">
        <ele>120.67900085449</ele>
        <time>2009-08-03T07:01:53Z</time>
      </trkpt>
      <trkpt lat="45.07013" lon="4.84336">
        <ele>120.90799713135</ele>
        <time>2009-08-03T07:01:55Z</time>
      </trkpt>
      <trkpt lat="45.06927" lon="4.84339">
        <ele>120.30699920654</ele>
        <time>2009-08-03T07:02:09Z</time>
      </trkpt>
      <trkpt lat="45.06901" lon="4.8434">
        <ele>120.53399658203</ele>
        <time>2009-08-03T07:02:15Z</time>
      </trkpt>
      <trkpt lat="45.06895" lon="4.84341">
        <ele>120.53199768066</ele>
        <time>2009-08-03T07:02:19Z</time>
      </trkpt>
      <trkpt lat="45.06895" lon="4.84341">
        <ele>120.5120010376</ele>
        <time>2009-08-03T07:02:21Z</time>
      </trkpt>
      <trkpt lat="45.06887" lon="4.84348">
        <ele>120.2919998169</ele>
        <time>2009-08-03T07:02:54Z</time>
      </trkpt>
      <trkpt lat="45.06885" lon="4.84326">
        <ele>119.75499725342</ele>
        <time>2009-08-03T07:02:58Z</time>
      </trkpt>
      <trkpt lat="45.06896" lon="4.84278">
        <ele>120.13899993897</ele>
        <time>2009-08-03T07:03:05Z</time>
      </trkpt>
      <trkpt lat="45.06906" lon="4.84237">
        <ele>120.71299743652</ele>
        <time>2009-08-03T07:03:15Z</time>
      </trkpt>
      <trkpt lat="45.06908" lon="4.84231">
        <ele>120.19200134277</ele>
        <time>2009-08-03T07:03:57Z</time>
      </trkpt>
      <trkpt lat="45.06909" lon="4.84227">
        <ele>119.9879989624</ele>
        <time>2009-08-03T07:03:58Z</time>
      </trkpt>
      <trkpt lat="45.0691" lon="4.84217">
        <ele>119.80500030518</ele>
        <time>2009-08-03T07:04:00Z</time>
      </trkpt>
      <trkpt lat="45.06888" lon="4.84193">
        <ele>119.84300231934</ele>
        <time>2009-08-03T07:04:06Z</time>
      </trkpt>
      <trkpt lat="45.06861" lon="4.8418">
        <ele>120.94300079346</ele>
        <time>2009-08-03T07:04:11Z</time>
      </trkpt>
      <trkpt lat="45.06834" lon="4.84166">
        <ele>122.02200317383</ele>
        <time>2009-08-03T07:04:16Z</time>
      </trkpt>
      <trkpt lat="45.06812" lon="4.84153">
        <ele>122.827003479</ele>
        <time>2009-08-03T07:04:20Z</time>
      </trkpt>
      <trkpt lat="45.06773" lon="4.84129">
        <ele>124.01100158691</ele>
        <time>2009-08-03T07:04:27Z</time>
      </trkpt>
      <trkpt lat="45.06727" lon="4.84101">
        <ele>125.36499786377</ele>
        <time>2009-08-03T07:04:35Z</time>
      </trkpt>
      <trkpt lat="45.06651" lon="4.84056">
        <ele>125.64399719238</ele>
        <time>2009-08-03T07:04:47Z</time>
      </trkpt>
      <trkpt lat="45.06573" lon="4.84008">
        <ele>123.92900085449</ele>
        <time>2009-08-03T07:04:58Z</time>
      </trkpt>
      <trkpt lat="45.06569" lon="4.83958">
        <ele>122.19200134277</ele>
        <time>2009-08-03T07:05:03Z</time>
      </trkpt>
      <trkpt lat="45.06662" lon="4.83723">
        <ele>121.52600097656</ele>
        <time>2009-08-03T07:05:27Z</time>
      </trkpt>
      <trkpt lat="45.06755" lon="4.83521">
        <ele>121.83799743652</ele>
        <time>2009-08-03T07:05:50Z</time>
      </trkpt>
      <trkpt lat="45.06805" lon="4.83413">
        <ele>120.60600280762</ele>
        <time>2009-08-03T07:06:03Z</time>
      </trkpt>
      <trkpt lat="45.06874" lon="4.83259">
        <ele>120.5419998169</ele>
        <time>2009-08-03T07:06:20Z</time>
      </trkpt>
      <trkpt lat="45.06882" lon="4.832">
        <ele>120.50199890137</ele>
        <time>2009-08-03T07:06:26Z</time>
      </trkpt>
      <trkpt lat="45.0688" lon="4.83063">
        <ele>120.55200195312</ele>
        <time>2009-08-03T07:06:40Z</time>
      </trkpt>
      <trkpt lat="45.06883" lon="4.83041">
        <ele>120.202003479</ele>
        <time>2009-08-03T07:06:43Z</time>
      </trkpt>
      <trkpt lat="45.06929" lon="4.82928">
        <ele>119.30400085449</ele>
        <time>2009-08-03T07:06:56Z</time>
      </trkpt>
      <trkpt lat="45.06935" lon="4.8292">
        <ele>119.49600219727</ele>
        <time>2009-08-03T07:06:57Z</time>
      </trkpt>
      <trkpt lat="45.07013" lon="4.82817">
        <ele>119.22399902344</ele>
        <time>2009-08-03T07:07:11Z</time>
      </trkpt>
      <trkpt lat="45.07073" lon="4.8272">
        <ele>119.3929977417</ele>
        <time>2009-08-03T07:07:23Z</time>
      </trkpt>
      <trkpt lat="45.07095" lon="4.82664">
        <ele>119.32299804688</ele>
        <time>2009-08-03T07:07:29Z</time>
      </trkpt>
      <trkpt lat="45.07151" lon="4.82491">
        <ele>119.46299743652</ele>
        <time>2009-08-03T07:07:46Z</time>
      </trkpt>
      <trkpt lat="45.07195" lon="4.82358">
        <ele>120.39399719238</ele>
        <time>2009-08-03T07:08:00Z</time>
      </trkpt>
      <trkpt lat="45.07234" lon="4.82238">
        <ele>122.76300048828</ele>
        <time>2009-08-03T07:08:13Z</time>
      </trkpt>
      <trkpt lat="45.0725" lon="4.82211">
        <ele>123.28900146484</ele>
        <time>2009-08-03T07:08:17Z</time>
      </trkpt>
      <trkpt lat="45.07244" lon="4.82173">
        <ele>123.26399993897</ele>
        <time>2009-08-03T07:08:23Z</time>
      </trkpt>
      <trkpt lat="45.07225" lon="4.82166">
        <ele>122.77899932861</ele>
        <time>2009-08-03T07:08:26Z</time>
      </trkpt>
      <trkpt lat="45.07206" lon="4.82146">
        <ele>121.952003479</ele>
        <time>2009-08-03T07:08:29Z</time>
      </trkpt>
      <trkpt lat="45.07151" lon="4.82082">
        <ele>122.59400177002</ele>
        <time>2009-08-03T07:08:39Z</time>
      </trkpt>
      <trkpt lat="45.07129" lon="4.82059">
        <ele>122.69300079346</ele>
        <time>2009-08-03T07:08:43Z</time>
      </trkpt>
      <trkpt lat="45.07038" lon="4.81955">
        <ele>124.21800231934</ele>
        <time>2009-08-03T07:09:00Z</time>
      </trkpt>
      <trkpt lat="45.06987" lon="4.81837">
        <ele>126.03399658203</ele>
        <time>2009-08-03T07:09:15Z</time>
      </trkpt>
      <trkpt lat="45.0694" lon="4.81675">
        <ele>125.94000244141</ele>
        <time>2009-08-03T07:09:33Z</time>
      </trkpt>
      <trkpt lat="45.06916" lon="4.81592">
        <ele>126.18299865723</ele>
        <time>2009-08-03T07:09:42Z</time>
      </trkpt>
      <trkpt lat="45.06874" lon="4.81444">
        <ele>127.44899749756</ele>
        <time>2009-08-03T07:09:59Z</time>
      </trkpt>
      <trkpt lat="45.06817" lon="4.81294">
        <ele>129.32699584961</ele>
        <time>2009-08-03T07:10:18Z</time>
      </trkpt>
      <trkpt lat="45.06805" lon="4.81273">
        <ele>129.61000061035</ele>
        <time>2009-08-03T07:10:21Z</time>
      </trkpt>
      <trkpt lat="45.06781" lon="4.81213">
        <ele>130.69599914551</ele>
        <time>2009-08-03T07:10:29Z</time>
      </trkpt>
      <trkpt lat="45.06772" lon="4.8118">
        <ele>130.92500305176</ele>
        <time>2009-08-03T07:10:33Z</time>
      </trkpt>
      <trkpt lat="45.06737" lon="4.81089">
        <ele>132.43899536133</ele>
        <time>2009-08-03T07:10:44Z</time>
      </trkpt>
      <trkpt lat="45.06718" lon="4.80973">
        <ele>130.84700012207</ele>
        <time>2009-08-03T07:10:56Z</time>
      </trkpt>
      <trkpt lat="45.06712" lon="4.80886">
        <ele>129.39999389648</ele>
        <time>2009-08-03T07:11:04Z</time>
      </trkpt>
      <trkpt lat="45.0671" lon="4.80831">
        <ele>128.89399719238</ele>
        <time>2009-08-03T07:11:09Z</time>
      </trkpt>
      <trkpt lat="45.06691" lon="4.80706">
        <ele>127.43099975586</ele>
        <time>2009-08-03T07:11:21Z</time>
      </trkpt>
      <trkpt lat="45.06689" lon="4.80488">
        <ele>125.25399780273</ele>
        <time>2009-08-03T07:11:40Z</time>
      </trkpt>
      <trkpt lat="45.0669" lon="4.80258">
        <ele>124.85800170898</ele>
        <time>2009-08-03T07:12:01Z</time>
      </trkpt>
      <trkpt lat="45.06696" lon="4.80023">
        <ele>125.70300292969</ele>
        <time>2009-08-03T07:12:23Z</time>
      </trkpt>
      <trkpt lat="45.06696" lon="4.7994">
        <ele>126.23600006103</ele>
        <time>2009-08-03T07:12:31Z</time>
      </trkpt>
      <trkpt lat="45.06683" lon="4.79747">
        <ele>127.18900299072</ele>
        <time>2009-08-03T07:12:50Z</time>
      </trkpt>
      <trkpt lat="45.06658" lon="4.79689">
        <ele>128.37399291992</ele>
        <time>2009-08-03T07:12:57Z</time>
      </trkpt>
      <trkpt lat="45.06599" lon="4.79546">
        <ele>130.3809967041</ele>
        <time>2009-08-03T07:13:15Z</time>
      </trkpt>
      <trkpt lat="45.06531" lon="4.79357">
        <ele>132.20300292969</ele>
        <time>2009-08-03T07:13:37Z</time>
      </trkpt>
      <trkpt lat="45.06467" lon="4.79282">
        <ele>132.83299255371</ele>
        <time>2009-08-03T07:13:49Z</time>
      </trkpt>
      <trkpt lat="45.06434" lon="4.79209">
        <ele>132.80799865723</ele>
        <time>2009-08-03T07:13:58Z</time>
      </trkpt>
      <trkpt lat="45.06439" lon="4.79117">
        <ele>132.68400573731</ele>
        <time>2009-08-03T07:14:07Z</time>
      </trkpt>
      <trkpt lat="45.06497" lon="4.78948">
        <ele>133.87699890137</ele>
        <time>2009-08-03T07:14:25Z</time>
      </trkpt>
      <trkpt lat="45.0652" lon="4.78851">
        <ele>134.77799987793</ele>
        <time>2009-08-03T07:14:35Z</time>
      </trkpt>
      <trkpt lat="45.06572" lon="4.78719">
        <ele>136.58599853516</ele>
        <time>2009-08-03T07:14:51Z</time>
      </trkpt>
      <trkpt lat="45.06634" lon="4.78568">
        <ele>138.76300048828</ele>
        <time>2009-08-03T07:15:10Z</time>
      </trkpt>
      <trkpt lat="45.06644" lon="4.78435">
        <ele>140.28300476074</ele>
        <time>2009-08-03T07:15:25Z</time>
      </trkpt>
      <trkpt lat="45.06638" lon="4.78329">
        <ele>142.87699890137</ele>
        <time>2009-08-03T07:15:37Z</time>
      </trkpt>
      <trkpt lat="45.06632" lon="4.78225">
        <ele>144.80900573731</ele>
        <time>2009-08-03T07:15:49Z</time>
      </trkpt>
      <trkpt lat="45.06593" lon="4.78153">
        <ele>146.26800537109</ele>
        <time>2009-08-03T07:15:59Z</time>
      </trkpt>
      <trkpt lat="45.06576" lon="4.78141">
        <ele>146.71499633789</ele>
        <time>2009-08-03T07:16:02Z</time>
      </trkpt>
      <trkpt lat="45.06551" lon="4.78134">
        <ele>147.34100341797</ele>
        <time>2009-08-03T07:16:06Z</time>
      </trkpt>
      <trkpt lat="45.06462" lon="4.7813">
        <ele>149.25100708008</ele>
        <time>2009-08-03T07:16:21Z</time>
      </trkpt>
      <trkpt lat="45.0643" lon="4.78165">
        <ele>150.16700744629</ele>
        <time>2009-08-03T07:16:28Z</time>
      </trkpt>
      <trkpt lat="45.06425" lon="4.78181">
        <ele>150.36599731445</ele>
        <time>2009-08-03T07:16:30Z</time>
      </trkpt>
      <trkpt lat="45.06405" lon="4.78216">
        <ele>150.81300354004</ele>
        <time>2009-08-03T07:16:35Z</time>
      </trkpt>
      <trkpt lat="45.06371" lon="4.78308">
        <ele>152.27699279785</ele>
        <time>2009-08-03T07:16:47Z</time>
      </trkpt>
      <trkpt lat="45.06355" lon="4.78353">
        <ele>153.31199645996</ele>
        <time>2009-08-03T07:16:53Z</time>
      </trkpt>
      <trkpt lat="45.06351" lon="4.78393">
        <ele>153.47599792481</ele>
        <time>2009-08-03T07:16:58Z</time>
      </trkpt>
      <trkpt lat="45.06351" lon="4.78418">
        <ele>154.24600219727</ele>
        <time>2009-08-03T07:17:01Z</time>
      </trkpt>
      <trkpt lat="45.06322" lon="4.78511">
        <ele>155.92599487305</ele>
        <time>2009-08-03T07:17:13Z</time>
      </trkpt>
      <trkpt lat="45.06257" lon="4.78606">
        <ele>157.57200622559</ele>
        <time>2009-08-03T07:17:28Z</time>
      </trkpt>
      <trkpt lat="45.06173" lon="4.78663">
        <ele>160.16999816894</ele>
        <time>2009-08-03T07:17:44Z</time>
      </trkpt>
      <trkpt lat="45.06095" lon="4.78672">
        <ele>162.78100585938</ele>
        <time>2009-08-03T07:17:58Z</time>
      </trkpt>
      <trkpt lat="45.06062" lon="4.78675">
        <ele>163.90400695801</ele>
        <time>2009-08-03T07:18:04Z</time>
      </trkpt>
      <trkpt lat="45.05989" lon="4.78642">
        <ele>166.20899963379</ele>
        <time>2009-08-03T07:18:18Z</time>
      </trkpt>
      <trkpt lat="45.05932" lon="4.78569">
        <ele>168.29100036621</ele>
        <time>2009-08-03T07:18:32Z</time>
      </trkpt>
      <trkpt lat="45.0589" lon="4.78487">
        <ele>170.38000488281</ele>
        <time>2009-08-03T07:18:45Z</time>
      </trkpt>
      <trkpt lat="45.0585" lon="4.78473">
        <ele>171.82600402832</ele>
        <time>2009-08-03T07:18:53Z</time>
      </trkpt>
      <trkpt lat="45.05817" lon="4.78475">
        <ele>172.98500061035</ele>
        <time>2009-08-03T07:18:59Z</time>
      </trkpt>
      <trkpt lat="45.0579" lon="4.78465">
        <ele>173.79200744629</ele>
        <time>2009-08-03T07:19:04Z</time>
      </trkpt>
      <trkpt lat="45.05752" lon="4.78474">
        <ele>174.79100036621</ele>
        <time>2009-08-03T07:19:11Z</time>
      </trkpt>
      <trkpt lat="45.05738" lon="4.78484">
        <ele>175.44700622559</ele>
        <time>2009-08-03T07:19:14Z</time>
      </trkpt>
      <trkpt lat="45.05711" lon="4.78489">
        <ele>176.2140045166</ele>
        <time>2009-08-03T07:19:19Z</time>
      </trkpt>
      <trkpt lat="45.05664" lon="4.78471">
        <ele>177.82600402832</ele>
        <time>2009-08-03T07:19:28Z</time>
      </trkpt>
      <trkpt lat="45.05648" lon="4.7842">
        <ele>179.74200439453</ele>
        <time>2009-08-03T07:19:36Z</time>
      </trkpt>
      <trkpt lat="45.05675" lon="4.78308">
        <ele>182.22500610352</ele>
        <time>2009-08-03T07:19:52Z</time>
      </trkpt>
      <trkpt lat="45.05682" lon="4.78281">
        <ele>182.63000488281</ele>
        <time>2009-08-03T07:19:56Z</time>
      </trkpt>
      <trkpt lat="45.0569" lon="4.7824">
        <ele>183.66000366211</ele>
        <time>2009-08-03T07:20:02Z</time>
      </trkpt>
      <trkpt lat="45.05674" lon="4.78213">
        <ele>183.12899780273</ele>
        <time>2009-08-03T07:20:08Z</time>
      </trkpt>
      <trkpt lat="45.05618" lon="4.78198">
        <ele>181.25399780273</ele>
        <time>2009-08-03T07:20:17Z</time>
      </trkpt>
      <trkpt lat="45.05588" lon="4.78175">
        <ele>179.71299743652</ele>
        <time>2009-08-03T07:20:22Z</time>
      </trkpt>
      <trkpt lat="45.05554" lon="4.78161">
        <ele>178.83000183106</ele>
        <time>2009-08-03T07:20:27Z</time>
      </trkpt>
      <trkpt lat="45.05531" lon="4.78137">
        <ele>177.62399291992</ele>
        <time>2009-08-03T07:20:31Z</time>
      </trkpt>
      <trkpt lat="45.05495" lon="4.78098">
        <ele>179.35000610352</ele>
        <time>2009-08-03T07:20:38Z</time>
      </trkpt>
      <trkpt lat="45.05489" lon="4.78089">
        <ele>180.22200012207</ele>
        <time>2009-08-03T07:20:40Z</time>
      </trkpt>
      <trkpt lat="45.05481" lon="4.78074">
        <ele>182.90400695801</ele>
        <time>2009-08-03T07:20:43Z</time>
      </trkpt>
      <trkpt lat="45.05474" lon="4.78066">
        <ele>183.32600402832</ele>
        <time>2009-08-03T07:20:45Z</time>
      </trkpt>
      <trkpt lat="45.05463" lon="4.78056">
        <ele>184.60400390625</ele>
        <time>2009-08-03T07:20:48Z</time>
      </trkpt>
      <trkpt lat="45.05451" lon="4.78047">
        <ele>184.61500549316</ele>
        <time>2009-08-03T07:20:51Z</time>
      </trkpt>
      <trkpt lat="45.05432" lon="4.78033">
        <ele>187.70199584961</ele>
        <time>2009-08-03T07:20:56Z</time>
      </trkpt>
      <trkpt lat="45.05416" lon="4.78009">
        <ele>190.17500305176</ele>
        <time>2009-08-03T07:21:02Z</time>
      </trkpt>
      <trkpt lat="45.05409" lon="4.77966">
        <ele>193.34199523926</ele>
        <time>2009-08-03T07:21:11Z</time>
      </trkpt>
      <trkpt lat="45.05405" lon="4.7792">
        <ele>195.0119934082</ele>
        <time>2009-08-03T07:21:20Z</time>
      </trkpt>
      <trkpt lat="45.05404" lon="4.77904">
        <ele>197.33399963379</ele>
        <time>2009-08-03T07:21:23Z</time>
      </trkpt>
      <trkpt lat="45.05404" lon="4.77835">
        <ele>202.61799621582</ele>
        <time>2009-08-03T07:21:37Z</time>
      </trkpt>
      <trkpt lat="45.05404" lon="4.77825">
        <ele>203.34199523926</ele>
        <time>2009-08-03T07:21:39Z</time>
      </trkpt>
      <trkpt lat="45.05383" lon="4.77754">
        <ele>207.82699584961</ele>
        <time>2009-08-03T07:21:55Z</time>
      </trkpt>
      <trkpt lat="45.05372" lon="4.77673">
        <ele>213.37199401856</ele>
        <time>2009-08-03T07:22:13Z</time>
      </trkpt>
      <trkpt lat="45.0535" lon="4.77627">
        <ele>216.87800598144</ele>
        <time>2009-08-03T07:22:26Z</time>
      </trkpt>
      <trkpt lat="45.05336" lon="4.77572">
        <ele>221.42900085449</ele>
        <time>2009-08-03T07:22:40Z</time>
      </trkpt>
      <trkpt lat="45.05332" lon="4.77532">
        <ele>224.21600341797</ele>
        <time>2009-08-03T07:22:49Z</time>
      </trkpt>
      <trkpt lat="45.05357" lon="4.77467">
        <ele>228.86999511719</ele>
        <time>2009-08-03T07:23:04Z</time>
      </trkpt>
      <trkpt lat="45.05399" lon="4.7741">
        <ele>234.62600708008</ele>
        <time>2009-08-03T07:23:22Z</time>
      </trkpt>
      <trkpt lat="45.05447" lon="4.77339">
        <ele>241.56199645996</ele>
        <time>2009-08-03T07:23:42Z</time>
      </trkpt>
      <trkpt lat="45.05492" lon="4.77289">
        <ele>246.49499511719</ele>
        <time>2009-08-03T07:23:59Z</time>
      </trkpt>
      <trkpt lat="45.05498" lon="4.77278">
        <ele>247.90100097656</ele>
        <time>2009-08-03T07:24:02Z</time>
      </trkpt>
      <trkpt lat="45.0551" lon="4.77212">
        <ele>252.41299438477</ele>
        <time>2009-08-03T07:24:16Z</time>
      </trkpt>
      <trkpt lat="45.05503" lon="4.77123">
        <ele>258.69000244141</ele>
        <time>2009-08-03T07:24:34Z</time>
      </trkpt>
      <trkpt lat="45.0549" lon="4.77044">
        <ele>264.59399414062</ele>
        <time>2009-08-03T07:24:53Z</time>
      </trkpt>
      <trkpt lat="45.05479" lon="4.76979">
        <ele>268.88598632812</ele>
        <time>2009-08-03T07:25:10Z</time>
      </trkpt>
      <trkpt lat="45.05455" lon="4.76923">
        <ele>273.10900878906</ele>
        <time>2009-08-03T07:25:25Z</time>
      </trkpt>
      <trkpt lat="45.05419" lon="4.76906">
        <ele>276.5830078125</ele>
        <time>2009-08-03T07:25:38Z</time>
      </trkpt>
      <trkpt lat="45.05379" lon="4.76911">
        <ele>280.43200683594</ele>
        <time>2009-08-03T07:25:52Z</time>
      </trkpt>
      <trkpt lat="45.05366" lon="4.76897">
        <ele>283.01699829102</ele>
        <time>2009-08-03T07:25:59Z</time>
      </trkpt>
      <trkpt lat="45.05384" lon="4.76871">
        <ele>286.31500244141</ele>
        <time>2009-08-03T07:26:11Z</time>
      </trkpt>
      <trkpt lat="45.05415" lon="4.76828">
        <ele>289.9169921875</ele>
        <time>2009-08-03T07:26:27Z</time>
      </trkpt>
      <trkpt lat="45.05428" lon="4.76755">
        <ele>294.78601074219</ele>
        <time>2009-08-03T07:26:44Z</time>
      </trkpt>
      <trkpt lat="45.05452" lon="4.76688">
        <ele>296.96398925781</ele>
        <time>2009-08-03T07:26:58Z</time>
      </trkpt>
      <trkpt lat="45.05497" lon="4.76609">
        <ele>299.90399169922</ele>
        <time>2009-08-03T07:27:14Z</time>
      </trkpt>
      <trkpt lat="45.05513" lon="4.7655">
        <ele>304.875</ele>
        <time>2009-08-03T07:27:28Z</time>
      </trkpt>
      <trkpt lat="45.05521" lon="4.76494">
        <ele>308.68798828125</ele>
        <time>2009-08-03T07:27:41Z</time>
      </trkpt>
      <trkpt lat="45.05535" lon="4.7644">
        <ele>312.43301391602</ele>
        <time>2009-08-03T07:27:55Z</time>
      </trkpt>
      <trkpt lat="45.05554" lon="4.76389">
        <ele>316.51599121094</ele>
        <time>2009-08-03T07:28:10Z</time>
      </trkpt>
      <trkpt lat="45.05564" lon="4.76336">
        <ele>320.55599975586</ele>
        <time>2009-08-03T07:28:23Z</time>
      </trkpt>
      <trkpt lat="45.05578" lon="4.76257">
        <ele>325.73699951172</ele>
        <time>2009-08-03T07:28:39Z</time>
      </trkpt>
      <trkpt lat="45.05611" lon="4.76181">
        <ele>330.74600219727</ele>
        <time>2009-08-03T07:28:56Z</time>
      </trkpt>
      <trkpt lat="45.05632" lon="4.76104">
        <ele>336.00601196289</ele>
        <time>2009-08-03T07:29:14Z</time>
      </trkpt>
      <trkpt lat="45.05653" lon="4.7603">
        <ele>340.58099365234</ele>
        <time>2009-08-03T07:29:31Z</time>
      </trkpt>
      <trkpt lat="45.05674" lon="4.75987">
        <ele>343.95999145508</ele>
        <time>2009-08-03T07:29:43Z</time>
      </trkpt>
      <trkpt lat="45.05681" lon="4.75998">
        <ele>345.74499511719</ele>
        <time>2009-08-03T07:29:49Z</time>
      </trkpt>
      <trkpt lat="45.05666" lon="4.76046">
        <ele>348.38299560547</ele>
        <time>2009-08-03T07:30:02Z</time>
      </trkpt>
      <trkpt lat="45.05675" lon="4.7611">
        <ele>351.83898925781</ele>
        <time>2009-08-03T07:30:17Z</time>
      </trkpt>
      <trkpt lat="45.05702" lon="4.76136">
        <ele>354.54501342773</ele>
        <time>2009-08-03T07:30:26Z</time>
      </trkpt>
      <trkpt lat="45.05724" lon="4.76184">
        <ele>358.91299438477</ele>
        <time>2009-08-03T07:30:38Z</time>
      </trkpt>
      <trkpt lat="45.05723" lon="4.76188">
        <ele>359.3030090332</ele>
        <time>2009-08-03T07:30:39Z</time>
      </trkpt>
      <trkpt lat="45.0573" lon="4.76239">
        <ele>362.375</ele>
        <time>2009-08-03T07:30:52Z</time>
      </trkpt>
      <trkpt lat="45.05767" lon="4.76253">
        <ele>365.33099365234</ele>
        <time>2009-08-03T07:31:04Z</time>
      </trkpt>
      <trkpt lat="45.05811" lon="4.76225">
        <ele>369.11999511719</ele>
        <time>2009-08-03T07:31:18Z</time>
      </trkpt>
      <trkpt lat="45.05821" lon="4.7621">
        <ele>369.69900512695</ele>
        <time>2009-08-03T07:31:22Z</time>
      </trkpt>
      <trkpt lat="45.05847" lon="4.76105">
        <ele>375.02099609375</ele>
        <time>2009-08-03T07:31:40Z</time>
      </trkpt>
      <trkpt lat="45.0586" lon="4.76011">
        <ele>379.74099731445</ele>
        <time>2009-08-03T07:31:55Z</time>
      </trkpt>
      <trkpt lat="45.05865" lon="4.75986">
        <ele>381.61199951172</ele>
        <time>2009-08-03T07:32:00Z</time>
      </trkpt>
      <trkpt lat="45.05877" lon="4.75921">
        <ele>386.40399169922</ele>
        <time>2009-08-03T07:32:16Z</time>
      </trkpt>
      <trkpt lat="45.05877" lon="4.75855">
        <ele>390.89898681641</ele>
        <time>2009-08-03T07:32:33Z</time>
      </trkpt>
      <trkpt lat="45.05862" lon="4.75792">
        <ele>394.98400878906</ele>
        <time>2009-08-03T07:32:47Z</time>
      </trkpt>
      <trkpt lat="45.05837" lon="4.75739">
        <ele>398.86801147461</ele>
        <time>2009-08-03T07:33:01Z</time>
      </trkpt>
      <trkpt lat="45.05813" lon="4.75663">
        <ele>402.77499389648</ele>
        <time>2009-08-03T07:33:18Z</time>
      </trkpt>
      <trkpt lat="45.05803" lon="4.75626">
        <ele>404.47500610352</ele>
        <time>2009-08-03T07:33:25Z</time>
      </trkpt>
      <trkpt lat="45.05768" lon="4.75533">
        <ele>409.79501342773</ele>
        <time>2009-08-03T07:33:45Z</time>
      </trkpt>
      <trkpt lat="45.05746" lon="4.75467">
        <ele>413.48001098633</ele>
        <time>2009-08-03T07:34:00Z</time>
      </trkpt>
      <trkpt lat="45.05759" lon="4.75419">
        <ele>415.25799560547</ele>
        <time>2009-08-03T07:34:10Z</time>
      </trkpt>
      <trkpt lat="45.05764" lon="4.75408">
        <ele>415.83700561523</ele>
        <time>2009-08-03T07:34:12Z</time>
      </trkpt>
      <trkpt lat="45.05772" lon="4.7537">
        <ele>416.89498901367</ele>
        <time>2009-08-03T07:34:18Z</time>
      </trkpt>
      <trkpt lat="45.05762" lon="4.75292">
        <ele>418.50900268555</ele>
        <time>2009-08-03T07:34:30Z</time>
      </trkpt>
      <trkpt lat="45.05761" lon="4.75286">
        <ele>418.5119934082</ele>
        <time>2009-08-03T07:34:31Z</time>
      </trkpt>
      <trkpt lat="45.05748" lon="4.7526">
        <ele>419.59698486328</ele>
        <time>2009-08-03T07:34:36Z</time>
      </trkpt>
      <trkpt lat="45.05732" lon="4.75237">
        <ele>418.72698974609</ele>
        <time>2009-08-03T07:34:40Z</time>
      </trkpt>
      <trkpt lat="45.05691" lon="4.75138">
        <ele>418.27301025391</ele>
        <time>2009-08-03T07:34:54Z</time>
      </trkpt>
      <trkpt lat="45.05684" lon="4.75111">
        <ele>417.24099731445</ele>
        <time>2009-08-03T07:34:57Z</time>
      </trkpt>
      <trkpt lat="45.05663" lon="4.75063">
        <ele>413.23199462891</ele>
        <time>2009-08-03T07:35:02Z</time>
      </trkpt>
      <trkpt lat="45.05651" lon="4.75043">
        <ele>412.35000610352</ele>
        <time>2009-08-03T07:35:04Z</time>
      </trkpt>
      <trkpt lat="45.05624" lon="4.74929">
        <ele>412.68600463867</ele>
        <time>2009-08-03T07:35:14Z</time>
      </trkpt>
      <trkpt lat="45.0562" lon="4.74888">
        <ele>413.5299987793</ele>
        <time>2009-08-03T07:35:18Z</time>
      </trkpt>
      <trkpt lat="45.05642" lon="4.74797">
        <ele>417.24301147461</ele>
        <time>2009-08-03T07:35:30Z</time>
      </trkpt>
      <trkpt lat="45.05673" lon="4.74721">
        <ele>420.73699951172</ele>
        <time>2009-08-03T07:35:42Z</time>
      </trkpt>
      <trkpt lat="45.05668" lon="4.74654">
        <ele>423.15100097656</ele>
        <time>2009-08-03T07:35:52Z</time>
      </trkpt>
      <trkpt lat="45.05658" lon="4.74646">
        <ele>423.66000366211</ele>
        <time>2009-08-03T07:35:54Z</time>
      </trkpt>
      <trkpt lat="45.05547" lon="4.7458">
        <ele>429.78298950195</ele>
        <time>2009-08-03T07:36:16Z</time>
      </trkpt>
      <trkpt lat="45.05506" lon="4.74538">
        <ele>432.31799316406</ele>
        <time>2009-08-03T07:36:26Z</time>
      </trkpt>
      <trkpt lat="45.05428" lon="4.74483">
        <ele>433.59100341797</ele>
        <time>2009-08-03T07:36:41Z</time>
      </trkpt>
      <trkpt lat="45.05348" lon="4.74426">
        <ele>431.13500976562</ele>
        <time>2009-08-03T07:36:54Z</time>
      </trkpt>
      <trkpt lat="45.05291" lon="4.74379">
        <ele>427.75399780273</ele>
        <time>2009-08-03T07:37:02Z</time>
      </trkpt>
      <trkpt lat="45.05283" lon="4.74372">
        <ele>427.61599731445</ele>
        <time>2009-08-03T07:37:03Z</time>
      </trkpt>
      <trkpt lat="45.0525" lon="4.7433">
        <ele>426.69000244141</ele>
        <time>2009-08-03T07:37:08Z</time>
      </trkpt>
      <trkpt lat="45.05237" lon="4.74313">
        <ele>427.33801269531</ele>
        <time>2009-08-03T07:37:10Z</time>
      </trkpt>
      <trkpt lat="45.05231" lon="4.74305">
        <ele>427.07800292969</ele>
        <time>2009-08-03T07:37:11Z</time>
      </trkpt>
      <trkpt lat="45.05121" lon="4.7416">
        <ele>427.53201293945</ele>
        <time>2009-08-03T07:37:29Z</time>
      </trkpt>
      <trkpt lat="45.05073" lon="4.74088">
        <ele>427.83401489258</ele>
        <time>2009-08-03T07:37:39Z</time>
      </trkpt>
      <trkpt lat="45.05038" lon="4.73982">
        <ele>431.46798706055</ele>
        <time>2009-08-03T07:37:53Z</time>
      </trkpt>
      <trkpt lat="45.05037" lon="4.73976">
        <ele>431.74798583984</ele>
        <time>2009-08-03T07:37:54Z</time>
      </trkpt>
      <trkpt lat="45.05032" lon="4.73962">
        <ele>433.43899536133</ele>
        <time>2009-08-03T07:37:57Z</time>
      </trkpt>
      <trkpt lat="45.05023" lon="4.73941">
        <ele>435.17401123047</ele>
        <time>2009-08-03T07:38:01Z</time>
      </trkpt>
      <trkpt lat="45.05019" lon="4.7393">
        <ele>436.37298583984</ele>
        <time>2009-08-03T07:38:03Z</time>
      </trkpt>
      <trkpt lat="45.05009" lon="4.73905">
        <ele>438.52099609375</ele>
        <time>2009-08-03T07:38:08Z</time>
      </trkpt>
      <trkpt lat="45.05004" lon="4.7389">
        <ele>439.75601196289</ele>
        <time>2009-08-03T07:38:11Z</time>
      </trkpt>
      <trkpt lat="45.04992" lon="4.7386">
        <ele>442.58898925781</ele>
        <time>2009-08-03T07:38:18Z</time>
      </trkpt>
      <trkpt lat="45.04984" lon="4.73839">
        <ele>444.5530090332</ele>
        <time>2009-08-03T07:38:23Z</time>
      </trkpt>
      <trkpt lat="45.04976" lon="4.73819">
        <ele>446.92700195312</ele>
        <time>2009-08-03T07:38:28Z</time>
      </trkpt>
      <trkpt lat="45.04951" lon="4.73759">
        <ele>452.70999145508</ele>
        <time>2009-08-03T07:38:43Z</time>
      </trkpt>
      <trkpt lat="45.04946" lon="4.73745">
        <ele>453.93701171875</ele>
        <time>2009-08-03T07:38:46Z</time>
      </trkpt>
      <trkpt lat="45.0491" lon="4.73665">
        <ele>458.37399291992</ele>
        <time>2009-08-03T07:39:04Z</time>
      </trkpt>
      <trkpt lat="45.04863" lon="4.73554">
        <ele>461.78399658203</ele>
        <time>2009-08-03T07:39:23Z</time>
      </trkpt>
      <trkpt lat="45.04831" lon="4.73433">
        <ele>464.74600219727</ele>
        <time>2009-08-03T07:39:42Z</time>
      </trkpt>
      <trkpt lat="45.04808" lon="4.73286">
        <ele>464.81698608398</ele>
        <time>2009-08-03T07:39:59Z</time>
      </trkpt>
      <trkpt lat="45.04791" lon="4.73124">
        <ele>467.01599121094</ele>
        <time>2009-08-03T07:40:17Z</time>
      </trkpt>
      <trkpt lat="45.04786" lon="4.73069">
        <ele>468.91500854492</ele>
        <time>2009-08-03T07:40:24Z</time>
      </trkpt>
      <trkpt lat="45.04779" lon="4.73036">
        <ele>471.70098876953</ele>
        <time>2009-08-03T07:40:29Z</time>
      </trkpt>
      <trkpt lat="45.04775" lon="4.73025">
        <ele>472.48098754883</ele>
        <time>2009-08-03T07:40:31Z</time>
      </trkpt>
      <trkpt lat="45.04748" lon="4.72971">
        <ele>475.91799926758</ele>
        <time>2009-08-03T07:40:41Z</time>
      </trkpt>
      <trkpt lat="45.04742" lon="4.72961">
        <ele>476.23300170898</ele>
        <time>2009-08-03T07:40:43Z</time>
      </trkpt>
      <trkpt lat="45.04692" lon="4.72862">
        <ele>479.14401245117</ele>
        <time>2009-08-03T07:40:58Z</time>
      </trkpt>
      <trkpt lat="45.04634" lon="4.72742">
        <ele>482.79800415039</ele>
        <time>2009-08-03T07:41:17Z</time>
      </trkpt>
      <trkpt lat="45.04582" lon="4.72659">
        <ele>485.85501098633</ele>
        <time>2009-08-03T07:41:32Z</time>
      </trkpt>
      <trkpt lat="45.04575" lon="4.7265">
        <ele>486.43499755859</ele>
        <time>2009-08-03T07:41:34Z</time>
      </trkpt>
      <trkpt lat="45.04509" lon="4.72596">
        <ele>491.84100341797</ele>
        <time>2009-08-03T07:41:51Z</time>
      </trkpt>
      <trkpt lat="45.04493" lon="4.7258">
        <ele>493.07400512695</ele>
        <time>2009-08-03T07:41:55Z</time>
      </trkpt>
      <trkpt lat="45.04421" lon="4.72526">
        <ele>496.41500854492</ele>
        <time>2009-08-03T07:42:12Z</time>
      </trkpt>
      <trkpt lat="45.04342" lon="4.72468">
        <ele>499.77801513672</ele>
        <time>2009-08-03T07:42:30Z</time>
      </trkpt>
      <trkpt lat="45.04263" lon="4.7243">
        <ele>499.18798828125</ele>
        <time>2009-08-03T07:42:46Z</time>
      </trkpt>
      <trkpt lat="45.04226" lon="4.72411">
        <ele>498.3219909668</ele>
        <time>2009-08-03T07:42:52Z</time>
      </trkpt>
      <trkpt lat="45.04179" lon="4.72403">
        <ele>497.4289855957</ele>
        <time>2009-08-03T07:42:59Z</time>
      </trkpt>
      <trkpt lat="45.04138" lon="4.72382">
        <ele>495.68200683594</ele>
        <time>2009-08-03T07:43:05Z</time>
      </trkpt>
      <trkpt lat="45.04094" lon="4.72359">
        <ele>494.64498901367</ele>
        <time>2009-08-03T07:43:11Z</time>
      </trkpt>
      <trkpt lat="45.04011" lon="4.72288">
        <ele>492.16500854492</ele>
        <time>2009-08-03T07:43:24Z</time>
      </trkpt>
      <trkpt lat="45.03976" lon="4.72247">
        <ele>489.10501098633</ele>
        <time>2009-08-03T07:43:29Z</time>
      </trkpt>
      <trkpt lat="45.03953" lon="4.7222">
        <ele>487.89801025391</ele>
        <time>2009-08-03T07:43:32Z</time>
      </trkpt>
      <trkpt lat="45.03893" lon="4.72151">
        <ele>486.84298706055</ele>
        <time>2009-08-03T07:43:40Z</time>
      </trkpt>
      <trkpt lat="45.03801" lon="4.72047">
        <ele>488.46200561523</ele>
        <time>2009-08-03T07:43:55Z</time>
      </trkpt>
      <trkpt lat="45.03795" lon="4.72043">
        <ele>488.98498535156</ele>
        <time>2009-08-03T07:43:56Z</time>
      </trkpt>
      <trkpt lat="45.03768" lon="4.72023">
        <ele>491.07998657227</ele>
        <time>2009-08-03T07:44:01Z</time>
      </trkpt>
      <trkpt lat="45.03709" lon="4.71991">
        <ele>492.83599853516</ele>
        <time>2009-08-03T07:44:12Z</time>
      </trkpt>
      <trkpt lat="45.03606" lon="4.71946">
        <ele>495.52499389648</ele>
        <time>2009-08-03T07:44:30Z</time>
      </trkpt>
      <trkpt lat="45.03474" lon="4.71886">
        <ele>498.37298583984</ele>
        <time>2009-08-03T07:44:52Z</time>
      </trkpt>
      <trkpt lat="45.03363" lon="4.71836">
        <ele>501.36898803711</ele>
        <time>2009-08-03T07:45:11Z</time>
      </trkpt>
      <trkpt lat="45.03262" lon="4.7178">
        <ele>498.61599731445</ele>
        <time>2009-08-03T07:45:26Z</time>
      </trkpt>
      <trkpt lat="45.0319" lon="4.71747">
        <ele>499.67599487305</ele>
        <time>2009-08-03T07:45:36Z</time>
      </trkpt>
      <trkpt lat="45.03144" lon="4.71771">
        <ele>499.75</ele>
        <time>2009-08-03T07:45:43Z</time>
      </trkpt>
      <trkpt lat="45.03138" lon="4.7179">
        <ele>500.61499023438</ele>
        <time>2009-08-03T07:45:45Z</time>
      </trkpt>
      <trkpt lat="45.03127" lon="4.71825">
        <ele>501.20901489258</ele>
        <time>2009-08-03T07:45:49Z</time>
      </trkpt>
      <trkpt lat="45.03086" lon="4.7187">
        <ele>502.44198608398</ele>
        <time>2009-08-03T07:45:57Z</time>
      </trkpt>
      <trkpt lat="45.02945" lon="4.71926">
        <ele>504.7919921875</ele>
        <time>2009-08-03T07:46:18Z</time>
      </trkpt>
      <trkpt lat="45.028" lon="4.71981">
        <ele>506.6789855957</ele>
        <time>2009-08-03T07:46:39Z</time>
      </trkpt>
      <trkpt lat="45.02724" lon="4.7196">
        <ele>505.55200195312</ele>
        <time>2009-08-03T07:46:49Z</time>
      </trkpt>
      <trkpt lat="45.02651" lon="4.7192">
        <ele>502.78100585938</ele>
        <time>2009-08-03T07:46:58Z</time>
      </trkpt>
      <trkpt lat="45.02643" lon="4.71915">
        <ele>502.29699707031</ele>
        <time>2009-08-03T07:46:59Z</time>
      </trkpt>
      <trkpt lat="45.02588" lon="4.71838">
        <ele>498.55999755859</ele>
        <time>2009-08-03T07:47:07Z</time>
      </trkpt>
      <trkpt lat="45.02555" lon="4.71786">
        <ele>497.36599731445</ele>
        <time>2009-08-03T07:47:12Z</time>
      </trkpt>
      <trkpt lat="45.02536" lon="4.71754">
        <ele>495.9469909668</ele>
        <time>2009-08-03T07:47:15Z</time>
      </trkpt>
      <trkpt lat="45.02517" lon="4.71703">
        <ele>493.96600341797</ele>
        <time>2009-08-03T07:47:19Z</time>
      </trkpt>
      <trkpt lat="45.02515" lon="4.71689">
        <ele>493.93399047852</ele>
        <time>2009-08-03T07:47:20Z</time>
      </trkpt>
      <trkpt lat="45.02497" lon="4.71627">
        <ele>492.36099243164</ele>
        <time>2009-08-03T07:47:25Z</time>
      </trkpt>
      <trkpt lat="45.02403" lon="4.71474">
        <ele>490.42001342773</ele>
        <time>2009-08-03T07:47:40Z</time>
      </trkpt>
      <trkpt lat="45.02341" lon="4.71369">
        <ele>491.7799987793</ele>
        <time>2009-08-03T07:47:51Z</time>
      </trkpt>
      <trkpt lat="45.02275" lon="4.71321">
        <ele>491.90200805664</ele>
        <time>2009-08-03T07:48:00Z</time>
      </trkpt>
      <trkpt lat="45.02214" lon="4.71266">
        <ele>493.40798950195</ele>
        <time>2009-08-03T07:48:09Z</time>
      </trkpt>
      <trkpt lat="45.02132" lon="4.71196">
        <ele>491.61401367188</ele>
        <time>2009-08-03T07:48:21Z</time>
      </trkpt>
      <trkpt lat="45.02124" lon="4.7119">
        <ele>491.34799194336</ele>
        <time>2009-08-03T07:48:22Z</time>
      </trkpt>
      <trkpt lat="45.02092" lon="4.71147">
        <ele>488.90701293945</ele>
        <time>2009-08-03T07:48:27Z</time>
      </trkpt>
      <trkpt lat="45.02025" lon="4.71039">
        <ele>486.13598632812</ele>
        <time>2009-08-03T07:48:38Z</time>
      </trkpt>
      <trkpt lat="45.01986" lon="4.70986">
        <ele>486.17999267578</ele>
        <time>2009-08-03T07:48:44Z</time>
      </trkpt>
      <trkpt lat="45.01959" lon="4.70917">
        <ele>485.37600708008</ele>
        <time>2009-08-03T07:48:50Z</time>
      </trkpt>
      <trkpt lat="45.01952" lon="4.7088">
        <ele>485.00100708008</ele>
        <time>2009-08-03T07:48:53Z</time>
      </trkpt>
      <trkpt lat="45.01934" lon="4.70836">
        <ele>484.63400268555</ele>
        <time>2009-08-03T07:48:57Z</time>
      </trkpt>
      <trkpt lat="45.01854" lon="4.70711">
        <ele>484.76901245117</ele>
        <time>2009-08-03T07:49:11Z</time>
      </trkpt>
      <trkpt lat="45.01802" lon="4.70617">
        <ele>485.45999145508</ele>
        <time>2009-08-03T07:49:22Z</time>
      </trkpt>
      <trkpt lat="45.01749" lon="4.70481">
        <ele>487.78298950195</ele>
        <time>2009-08-03T07:49:39Z</time>
      </trkpt>
      <trkpt lat="45.01738" lon="4.70403">
        <ele>489.44198608398</ele>
        <time>2009-08-03T07:49:48Z</time>
      </trkpt>
      <trkpt lat="45.01732" lon="4.70354">
        <ele>489.86898803711</ele>
        <time>2009-08-03T07:49:54Z</time>
      </trkpt>
      <trkpt lat="45.01703" lon="4.70302">
        <ele>490.72900390625</ele>
        <time>2009-08-03T07:50:02Z</time>
      </trkpt>
      <trkpt lat="45.0164" lon="4.70252">
        <ele>494.64401245117</ele>
        <time>2009-08-03T07:50:15Z</time>
      </trkpt>
      <trkpt lat="45.01564" lon="4.70165">
        <ele>498.04000854492</ele>
        <time>2009-08-03T07:50:34Z</time>
      </trkpt>
      <trkpt lat="45.01531" lon="4.7012">
        <ele>499.38400268555</ele>
        <time>2009-08-03T07:50:42Z</time>
      </trkpt>
      <trkpt lat="45.01509" lon="4.70107">
        <ele>499.36599731445</ele>
        <time>2009-08-03T07:50:46Z</time>
      </trkpt>
      <trkpt lat="45.0146" lon="4.70094">
        <ele>499.95300292969</ele>
        <time>2009-08-03T07:50:54Z</time>
      </trkpt>
      <trkpt lat="45.01434" lon="4.70101">
        <ele>500.03601074219</ele>
        <time>2009-08-03T07:50:58Z</time>
      </trkpt>
      <trkpt lat="45.01373" lon="4.70152">
        <ele>501.35198974609</ele>
        <time>2009-08-03T07:51:09Z</time>
      </trkpt>
      <trkpt lat="45.01285" lon="4.70172">
        <ele>503.04901123047</ele>
        <time>2009-08-03T07:51:23Z</time>
      </trkpt>
      <trkpt lat="45.01205" lon="4.70229">
        <ele>505.77801513672</ele>
        <time>2009-08-03T07:51:38Z</time>
      </trkpt>
      <trkpt lat="45.0117" lon="4.70243">
        <ele>507.51599121094</ele>
        <time>2009-08-03T07:51:45Z</time>
      </trkpt>
      <trkpt lat="45.01082" lon="4.70246">
        <ele>508.35198974609</ele>
        <time>2009-08-03T07:52:00Z</time>
      </trkpt>
      <trkpt lat="45.0107" lon="4.70248">
        <ele>508.32000732422</ele>
        <time>2009-08-03T07:52:02Z</time>
      </trkpt>
      <trkpt lat="45.01052" lon="4.70233">
        <ele>507.79998779297</ele>
        <time>2009-08-03T07:52:07Z</time>
      </trkpt>
      <trkpt lat="45.01044" lon="4.70199">
        <ele>506.25698852539</ele>
        <time>2009-08-03T07:52:12Z</time>
      </trkpt>
      <trkpt lat="45.0104" lon="4.7015">
        <ele>504.5119934082</ele>
        <time>2009-08-03T07:52:17Z</time>
      </trkpt>
      <trkpt lat="45.01027" lon="4.70108">
        <ele>502.71600341797</ele>
        <time>2009-08-03T07:52:21Z</time>
      </trkpt>
      <trkpt lat="45.00984" lon="4.70047">
        <ele>500.9700012207</ele>
        <time>2009-08-03T07:52:28Z</time>
      </trkpt>
      <trkpt lat="45.00896" lon="4.69909">
        <ele>499.76098632812</ele>
        <time>2009-08-03T07:52:44Z</time>
      </trkpt>
      <trkpt lat="45.00844" lon="4.69791">
        <ele>498.07400512695</ele>
        <time>2009-08-03T07:52:56Z</time>
      </trkpt>
      <trkpt lat="45.00808" lon="4.6974">
        <ele>496.67599487305</ele>
        <time>2009-08-03T07:53:02Z</time>
      </trkpt>
      <trkpt lat="45.00751" lon="4.69726">
        <ele>498.41101074219</ele>
        <time>2009-08-03T07:53:10Z</time>
      </trkpt>
      <trkpt lat="45.00744" lon="4.69731">
        <ele>498.45901489258</ele>
        <time>2009-08-03T07:53:11Z</time>
      </trkpt>
      <trkpt lat="45.00731" lon="4.69742">
        <ele>498.20300292969</ele>
        <time>2009-08-03T07:53:13Z</time>
      </trkpt>
      <trkpt lat="45.00684" lon="4.69748">
        <ele>497.77099609375</ele>
        <time>2009-08-03T07:53:19Z</time>
      </trkpt>
      <trkpt lat="45.00605" lon="4.69722">
        <ele>495.64498901367</ele>
        <time>2009-08-03T07:53:29Z</time>
      </trkpt>
      <trkpt lat="45.00475" lon="4.69745">
        <ele>492.84698486328</ele>
        <time>2009-08-03T07:53:44Z</time>
      </trkpt>
      <trkpt lat="45.00388" lon="4.69762">
        <ele>491.1549987793</ele>
        <time>2009-08-03T07:53:54Z</time>
      </trkpt>
      <trkpt lat="45.00379" lon="4.69766">
        <ele>491.13900756836</ele>
        <time>2009-08-03T07:53:55Z</time>
      </trkpt>
      <trkpt lat="45.00326" lon="4.69739">
        <ele>489.76699829102</ele>
        <time>2009-08-03T07:54:02Z</time>
      </trkpt>
      <trkpt lat="45.00307" lon="4.6965">
        <ele>488.02200317383</ele>
        <time>2009-08-03T07:54:10Z</time>
      </trkpt>
      <trkpt lat="45.00294" lon="4.69623">
        <ele>488.05801391602</ele>
        <time>2009-08-03T07:54:13Z</time>
      </trkpt>
      <trkpt lat="45.00286" lon="4.69618">
        <ele>487.8219909668</ele>
        <time>2009-08-03T07:54:14Z</time>
      </trkpt>
      <trkpt lat="45.00246" lon="4.69596">
        <ele>486.28698730469</ele>
        <time>2009-08-03T07:54:19Z</time>
      </trkpt>
      <trkpt lat="45.0021" lon="4.69534">
        <ele>485.18600463867</ele>
        <time>2009-08-03T07:54:26Z</time>
      </trkpt>
      <trkpt lat="45.00208" lon="4.69523">
        <ele>484.73098754883</ele>
        <time>2009-08-03T07:54:27Z</time>
      </trkpt>
      <trkpt lat="45.00203" lon="4.69488">
        <ele>484.24499511719</ele>
        <time>2009-08-03T07:54:30Z</time>
      </trkpt>
      <trkpt lat="45.00183" lon="4.69454">
        <ele>483.96200561523</ele>
        <time>2009-08-03T07:54:34Z</time>
      </trkpt>
      <trkpt lat="45.00166" lon="4.69427">
        <ele>482.89401245117</ele>
        <time>2009-08-03T07:54:37Z</time>
      </trkpt>
      <trkpt lat="45.00138" lon="4.69394">
        <ele>482.39999389648</ele>
        <time>2009-08-03T07:54:41Z</time>
      </trkpt>
      <trkpt lat="45.00092" lon="4.69345">
        <ele>480.89999389648</ele>
        <time>2009-08-03T07:54:48Z</time>
      </trkpt>
      <trkpt lat="45.00042" lon="4.69339">
        <ele>479.44000244141</ele>
        <time>2009-08-03T07:54:54Z</time>
      </trkpt>
      <trkpt lat="45.00014" lon="4.69307">
        <ele>478.87200927734</ele>
        <time>2009-08-03T07:54:58Z</time>
      </trkpt>
      <trkpt lat="44.99951" lon="4.6925">
        <ele>477.14401245117</ele>
        <time>2009-08-03T07:55:06Z</time>
      </trkpt>
      <trkpt lat="44.99918" lon="4.69222">
        <ele>475.91299438477</ele>
        <time>2009-08-03T07:55:10Z</time>
      </trkpt>
      <trkpt lat="44.99883" lon="4.69175">
        <ele>474.41799926758</ele>
        <time>2009-08-03T07:55:15Z</time>
      </trkpt>
      <trkpt lat="44.99887" lon="4.69096">
        <ele>472.1960144043</ele>
        <time>2009-08-03T07:55:21Z</time>
      </trkpt>
      <trkpt lat="44.99894" lon="4.69071">
        <ele>471.2200012207</ele>
        <time>2009-08-03T07:55:23Z</time>
      </trkpt>
      <trkpt lat="44.99865" lon="4.69031">
        <ele>470.66598510742</ele>
        <time>2009-08-03T07:55:29Z</time>
      </trkpt>
      <trkpt lat="44.99842" lon="4.69045">
        <ele>470.42999267578</ele>
        <time>2009-08-03T07:55:32Z</time>
      </trkpt>
      <trkpt lat="44.99828" lon="4.69057">
        <ele>470.14700317383</ele>
        <time>2009-08-03T07:55:34Z</time>
      </trkpt>
      <trkpt lat="44.99802" lon="4.69097">
        <ele>469.39001464844</ele>
        <time>2009-08-03T07:55:38Z</time>
      </trkpt>
      <trkpt lat="44.99758" lon="4.69142">
        <ele>468.52600097656</ele>
        <time>2009-08-03T07:55:44Z</time>
      </trkpt>
      <trkpt lat="44.99762" lon="4.69202">
        <ele>467.26800537109</ele>
        <time>2009-08-03T07:55:49Z</time>
      </trkpt>
      <trkpt lat="44.99768" lon="4.69225">
        <ele>467.1969909668</ele>
        <time>2009-08-03T07:55:51Z</time>
      </trkpt>
      <trkpt lat="44.99767" lon="4.69271">
        <ele>466.29400634766</ele>
        <time>2009-08-03T07:55:55Z</time>
      </trkpt>
      <trkpt lat="44.99751" lon="4.69327">
        <ele>465.08499145508</ele>
        <time>2009-08-03T07:56:00Z</time>
      </trkpt>
      <trkpt lat="44.99743" lon="4.69388">
        <ele>464.44799804688</ele>
        <time>2009-08-03T07:56:05Z</time>
      </trkpt>
      <trkpt lat="44.99702" lon="4.69411">
        <ele>463.45199584961</ele>
        <time>2009-08-03T07:56:11Z</time>
      </trkpt>
      <trkpt lat="44.99694" lon="4.69405">
        <ele>463.19400024414</ele>
        <time>2009-08-03T07:56:12Z</time>
      </trkpt>
      <trkpt lat="44.99664" lon="4.69383">
        <ele>462.61999511719</ele>
        <time>2009-08-03T07:56:16Z</time>
      </trkpt>
      <trkpt lat="44.99639" lon="4.69348">
        <ele>462.04699707031</ele>
        <time>2009-08-03T07:56:20Z</time>
      </trkpt>
      <trkpt lat="44.9962" lon="4.69307">
        <ele>461.40701293945</ele>
        <time>2009-08-03T07:56:24Z</time>
      </trkpt>
      <trkpt lat="44.99602" lon="4.69183">
        <ele>459.73901367188</ele>
        <time>2009-08-03T07:56:34Z</time>
      </trkpt>
      <trkpt lat="44.99594" lon="4.69094">
        <ele>458.27499389648</ele>
        <time>2009-08-03T07:56:41Z</time>
      </trkpt>
      <trkpt lat="44.99555" lon="4.69066">
        <ele>457.70300292969</ele>
        <time>2009-08-03T07:56:47Z</time>
      </trkpt>
      <trkpt lat="44.99516" lon="4.69104">
        <ele>456.24099731445</ele>
        <time>2009-08-03T07:56:53Z</time>
      </trkpt>
      <trkpt lat="44.99499" lon="4.69065">
        <ele>455.3869934082</ele>
        <time>2009-08-03T07:56:57Z</time>
      </trkpt>
      <trkpt lat="44.99498" lon="4.69054">
        <ele>455.125</ele>
        <time>2009-08-03T07:56:58Z</time>
      </trkpt>
      <trkpt lat="44.99468" lon="4.69013">
        <ele>453.87399291992</ele>
        <time>2009-08-03T07:57:04Z</time>
      </trkpt>
      <trkpt lat="44.99459" lon="4.69015">
        <ele>453.61099243164</ele>
        <time>2009-08-03T07:57:05Z</time>
      </trkpt>
      <trkpt lat="44.99419" lon="4.68992">
        <ele>452.11499023438</ele>
        <time>2009-08-03T07:57:10Z</time>
      </trkpt>
      <trkpt lat="44.99395" lon="4.68975">
        <ele>451.71600341797</ele>
        <time>2009-08-03T07:57:13Z</time>
      </trkpt>
      <trkpt lat="44.99332" lon="4.68879">
        <ele>449.54400634766</ele>
        <time>2009-08-03T07:57:23Z</time>
      </trkpt>
      <trkpt lat="44.99278" lon="4.68806">
        <ele>448.14300537109</ele>
        <time>2009-08-03T07:57:31Z</time>
      </trkpt>
      <trkpt lat="44.99257" lon="4.68781">
        <ele>448.14300537109</ele>
        <time>2009-08-03T07:57:34Z</time>
      </trkpt>
      <trkpt lat="44.99235" lon="4.68742">
        <ele>446.18701171875</ele>
        <time>2009-08-03T07:57:38Z</time>
      </trkpt>
      <trkpt lat="44.99231" lon="4.6873">
        <ele>446.0419921875</ele>
        <time>2009-08-03T07:57:39Z</time>
      </trkpt>
      <trkpt lat="44.99219" lon="4.68697">
        <ele>445.62200927734</ele>
        <time>2009-08-03T07:57:42Z</time>
      </trkpt>
      <trkpt lat="44.99215" lon="4.68644">
        <ele>444.24899291992</ele>
        <time>2009-08-03T07:57:46Z</time>
      </trkpt>
      <trkpt lat="44.9919" lon="4.68633">
        <ele>442.4700012207</ele>
        <time>2009-08-03T07:57:49Z</time>
      </trkpt>
      <trkpt lat="44.99159" lon="4.68678">
        <ele>442.1780090332</ele>
        <time>2009-08-03T07:57:54Z</time>
      </trkpt>
      <trkpt lat="44.99124" lon="4.68676">
        <ele>441.76300048828</ele>
        <time>2009-08-03T07:57:58Z</time>
      </trkpt>
      <trkpt lat="44.99062" lon="4.68628">
        <ele>440.11401367188</ele>
        <time>2009-08-03T07:58:06Z</time>
      </trkpt>
      <trkpt lat="44.99025" lon="4.68568">
        <ele>438.79098510742</ele>
        <time>2009-08-03T07:58:12Z</time>
      </trkpt>
      <trkpt lat="44.99003" lon="4.68544">
        <ele>438.16500854492</ele>
        <time>2009-08-03T07:58:15Z</time>
      </trkpt>
      <trkpt lat="44.98955" lon="4.68457">
        <ele>438.6780090332</ele>
        <time>2009-08-03T07:58:24Z</time>
      </trkpt>
      <trkpt lat="44.98949" lon="4.68437">
        <ele>439.60998535156</ele>
        <time>2009-08-03T07:58:26Z</time>
      </trkpt>
      <trkpt lat="44.98928" lon="4.68409">
        <ele>440.64898681641</ele>
        <time>2009-08-03T07:58:32Z</time>
      </trkpt>
      <trkpt lat="44.98878" lon="4.68425">
        <ele>442.76000976562</ele>
        <time>2009-08-03T07:58:41Z</time>
      </trkpt>
      <trkpt lat="44.9886" lon="4.68463">
        <ele>446.08999633789</ele>
        <time>2009-08-03T07:58:49Z</time>
      </trkpt>
      <trkpt lat="44.9886" lon="4.68469">
        <ele>446.22698974609</ele>
        <time>2009-08-03T07:58:50Z</time>
      </trkpt>
      <trkpt lat="44.98863" lon="4.68506">
        <ele>447.73400878906</ele>
        <time>2009-08-03T07:58:56Z</time>
      </trkpt>
      <trkpt lat="44.98863" lon="4.68512">
        <ele>448.21398925781</ele>
        <time>2009-08-03T07:58:57Z</time>
      </trkpt>
      <trkpt lat="44.98835" lon="4.68545">
        <ele>451.24899291992</ele>
        <time>2009-08-03T07:59:07Z</time>
      </trkpt>
      <trkpt lat="44.9879" lon="4.68559">
        <ele>454.20599365234</ele>
        <time>2009-08-03T07:59:18Z</time>
      </trkpt>
      <trkpt lat="44.98735" lon="4.68589">
        <ele>459.24200439453</ele>
        <time>2009-08-03T07:59:35Z</time>
      </trkpt>
      <trkpt lat="44.9871" lon="4.68602">
        <ele>461.29098510742</ele>
        <time>2009-08-03T07:59:43Z</time>
      </trkpt>
      <trkpt lat="44.98705" lon="4.68618">
        <ele>462.00100708008</ele>
        <time>2009-08-03T07:59:46Z</time>
      </trkpt>
      <trkpt lat="44.98735" lon="4.68655">
        <ele>464.53100585938</ele>
        <time>2009-08-03T07:59:57Z</time>
      </trkpt>
      <trkpt lat="44.98745" lon="4.68712">
        <ele>467.20098876953</ele>
        <time>2009-08-03T08:00:09Z</time>
      </trkpt>
      <trkpt lat="44.98719" lon="4.68724">
        <ele>470.72601318359</ele>
        <time>2009-08-03T08:00:17Z</time>
      </trkpt>
      <trkpt lat="44.98716" lon="4.68721">
        <ele>470.91799926758</ele>
        <time>2009-08-03T08:00:18Z</time>
      </trkpt>
      <trkpt lat="44.98695" lon="4.68701">
        <ele>473.42599487305</ele>
        <time>2009-08-03T08:00:25Z</time>
      </trkpt>
      <trkpt lat="44.98641" lon="4.68664">
        <ele>479.2380065918</ele>
        <time>2009-08-03T08:00:42Z</time>
      </trkpt>
      <trkpt lat="44.98596" lon="4.68654">
        <ele>484.01998901367</ele>
        <time>2009-08-03T08:00:56Z</time>
      </trkpt>
      <trkpt lat="44.98588" lon="4.68627">
        <ele>484.21600341797</ele>
        <time>2009-08-03T08:01:02Z</time>
      </trkpt>
      <trkpt lat="44.98587" lon="4.68614">
        <ele>483.79400634766</ele>
        <time>2009-08-03T08:01:04Z</time>
      </trkpt>
      <trkpt lat="44.986" lon="4.68572">
        <ele>484.19900512695</ele>
        <time>2009-08-03T08:01:11Z</time>
      </trkpt>
      <trkpt lat="44.98647" lon="4.68505">
        <ele>486.61898803711</ele>
        <time>2009-08-03T08:01:25Z</time>
      </trkpt>
      <trkpt lat="44.98655" lon="4.68467">
        <ele>487.35501098633</ele>
        <time>2009-08-03T08:01:31Z</time>
      </trkpt>
      <trkpt lat="44.98652" lon="4.6843">
        <ele>487.65899658203</ele>
        <time>2009-08-03T08:01:36Z</time>
      </trkpt>
      <trkpt lat="44.98623" lon="4.68307">
        <ele>490.58099365234</ele>
        <time>2009-08-03T08:01:53Z</time>
      </trkpt>
      <trkpt lat="44.98619" lon="4.683">
        <ele>490.65701293945</ele>
        <time>2009-08-03T08:01:54Z</time>
      </trkpt>
      <trkpt lat="44.98589" lon="4.68264">
        <ele>491.74099731445</ele>
        <time>2009-08-03T08:02:01Z</time>
      </trkpt>
      <trkpt lat="44.98528" lon="4.68231">
        <ele>493.79400634766</ele>
        <time>2009-08-03T08:02:13Z</time>
      </trkpt>
      <trkpt lat="44.98449" lon="4.68197">
        <ele>496.43600463867</ele>
        <time>2009-08-03T08:02:29Z</time>
      </trkpt>
      <trkpt lat="44.98444" lon="4.68197">
        <ele>496.74600219727</ele>
        <time>2009-08-03T08:02:30Z</time>
      </trkpt>
      <trkpt lat="44.98391" lon="4.68217">
        <ele>497.89801025391</ele>
        <time>2009-08-03T08:02:40Z</time>
      </trkpt>
      <trkpt lat="44.98376" lon="4.68221">
        <ele>498.5419921875</ele>
        <time>2009-08-03T08:02:43Z</time>
      </trkpt>
      <trkpt lat="44.98365" lon="4.68222">
        <ele>499.13101196289</ele>
        <time>2009-08-03T08:02:45Z</time>
      </trkpt>
      <trkpt lat="44.98341" lon="4.68213">
        <ele>499.52899169922</ele>
        <time>2009-08-03T08:02:50Z</time>
      </trkpt>
      <trkpt lat="44.98306" lon="4.68189">
        <ele>499.60101318359</ele>
        <time>2009-08-03T08:02:58Z</time>
      </trkpt>
      <trkpt lat="44.98268" lon="4.68194">
        <ele>499.63000488281</ele>
        <time>2009-08-03T08:03:05Z</time>
      </trkpt>
      <trkpt lat="44.98248" lon="4.68208">
        <ele>502.48901367188</ele>
        <time>2009-08-03T08:03:09Z</time>
      </trkpt>
      <trkpt lat="44.98172" lon="4.68259">
        <ele>505.06399536133</ele>
        <time>2009-08-03T08:03:25Z</time>
      </trkpt>
      <trkpt lat="44.98114" lon="4.68302">
        <ele>507.17199707031</ele>
        <time>2009-08-03T08:03:38Z</time>
      </trkpt>
      <trkpt lat="44.98077" lon="4.68323">
        <ele>508.91400146484</ele>
        <time>2009-08-03T08:03:46Z</time>
      </trkpt>
      <trkpt lat="44.98048" lon="4.68334">
        <ele>509.93701171875</ele>
        <time>2009-08-03T08:03:52Z</time>
      </trkpt>
      <trkpt lat="44.98034" lon="4.68339">
        <ele>510.39300537109</ele>
        <time>2009-08-03T08:03:55Z</time>
      </trkpt>
      <trkpt lat="44.98011" lon="4.68346">
        <ele>511.60400390625</ele>
        <time>2009-08-03T08:04:00Z</time>
      </trkpt>
      <trkpt lat="44.97984" lon="4.68354">
        <ele>512.91302490234</ele>
        <time>2009-08-03T08:04:07Z</time>
      </trkpt>
      <trkpt lat="44.9796" lon="4.68363">
        <ele>513.9990234375</ele>
        <time>2009-08-03T08:04:13Z</time>
      </trkpt>
      <trkpt lat="44.97935" lon="4.68364">
        <ele>514.38299560547</ele>
        <time>2009-08-03T08:04:17Z</time>
      </trkpt>
      <trkpt lat="44.97901" lon="4.68347">
        <ele>514.67102050781</ele>
        <time>2009-08-03T08:04:22Z</time>
      </trkpt>
      <trkpt lat="44.9792" lon="4.68328">
        <ele>516.24102783203</ele>
        <time>2009-08-03T08:04:29Z</time>
      </trkpt>
      <trkpt lat="44.97935" lon="4.68321">
        <ele>516.61901855469</ele>
        <time>2009-08-03T08:04:32Z</time>
      </trkpt>
      <trkpt lat="44.97983" lon="4.68293">
        <ele>517.375</ele>
        <time>2009-08-03T08:04:41Z</time>
      </trkpt>
      <trkpt lat="44.97996" lon="4.68287">
        <ele>517.40002441406</ele>
        <time>2009-08-03T08:04:43Z</time>
      </trkpt>
      <trkpt lat="44.9803" lon="4.68267">
        <ele>519.13098144531</ele>
        <time>2009-08-03T08:04:49Z</time>
      </trkpt>
      <trkpt lat="44.98048" lon="4.68242">
        <ele>519.55297851562</ele>
        <time>2009-08-03T08:04:53Z</time>
      </trkpt>
      <trkpt lat="44.98053" lon="4.68196">
        <ele>520.71398925781</ele>
        <time>2009-08-03T08:04:59Z</time>
      </trkpt>
      <trkpt lat="44.9805" lon="4.6818">
        <ele>521.07800292969</ele>
        <time>2009-08-03T08:05:01Z</time>
      </trkpt>
      <trkpt lat="44.98051" lon="4.68151">
        <ele>521.73498535156</ele>
        <time>2009-08-03T08:05:06Z</time>
      </trkpt>
      <trkpt lat="44.98055" lon="4.68149">
        <ele>521.94897460938</ele>
        <time>2009-08-03T08:05:07Z</time>
      </trkpt>
      <trkpt lat="44.98092" lon="4.68144">
        <ele>523.50201416016</ele>
        <time>2009-08-03T08:05:13Z</time>
      </trkpt>
      <trkpt lat="44.98119" lon="4.68131">
        <ele>523.93200683594</ele>
        <time>2009-08-03T08:05:18Z</time>
      </trkpt>
      <trkpt lat="44.98148" lon="4.68102">
        <ele>524.75799560547</ele>
        <time>2009-08-03T08:05:24Z</time>
      </trkpt>
      <trkpt lat="44.98156" lon="4.68089">
        <ele>525.50701904297</ele>
        <time>2009-08-03T08:05:26Z</time>
      </trkpt>
      <trkpt lat="44.98167" lon="4.6806">
        <ele>525.8740234375</ele>
        <time>2009-08-03T08:05:30Z</time>
      </trkpt>
      <trkpt lat="44.9817" lon="4.68037">
        <ele>526.2509765625</ele>
        <time>2009-08-03T08:05:33Z</time>
      </trkpt>
      <trkpt lat="44.98165" lon="4.67984">
        <ele>527.59899902344</ele>
        <time>2009-08-03T08:05:40Z</time>
      </trkpt>
      <trkpt lat="44.98175" lon="4.67917">
        <ele>528.89898681641</ele>
        <time>2009-08-03T08:05:49Z</time>
      </trkpt>
      <trkpt lat="44.98163" lon="4.67783">
        <ele>531.47900390625</ele>
        <time>2009-08-03T08:06:07Z</time>
      </trkpt>
      <trkpt lat="44.98161" lon="4.67776">
        <ele>531.63598632812</ele>
        <time>2009-08-03T08:06:08Z</time>
      </trkpt>
      <trkpt lat="44.98151" lon="4.67751">
        <ele>532.72601318359</ele>
        <time>2009-08-03T08:06:12Z</time>
      </trkpt>
      <trkpt lat="44.98143" lon="4.67739">
        <ele>533.03698730469</ele>
        <time>2009-08-03T08:06:14Z</time>
      </trkpt>
      <trkpt lat="44.98065" lon="4.67679">
        <ele>535.93499755859</ele>
        <time>2009-08-03T08:06:30Z</time>
      </trkpt>
      <trkpt lat="44.98021" lon="4.67638">
        <ele>537.46899414062</ele>
        <time>2009-08-03T08:06:40Z</time>
      </trkpt>
      <trkpt lat="44.97946" lon="4.67585">
        <ele>539.8759765625</ele>
        <time>2009-08-03T08:06:56Z</time>
      </trkpt>
      <trkpt lat="44.97928" lon="4.67568">
        <ele>540.77600097656</ele>
        <time>2009-08-03T08:07:00Z</time>
      </trkpt>
      <trkpt lat="44.97889" lon="4.67497">
        <ele>542.34002685547</ele>
        <time>2009-08-03T08:07:12Z</time>
      </trkpt>
      <trkpt lat="44.97874" lon="4.67477">
        <ele>543.04602050781</ele>
        <time>2009-08-03T08:07:16Z</time>
      </trkpt>
      <trkpt lat="44.9781" lon="4.67409">
        <ele>546.0830078125</ele>
        <time>2009-08-03T08:07:31Z</time>
      </trkpt>
      <trkpt lat="44.97749" lon="4.67376">
        <ele>548.15100097656</ele>
        <time>2009-08-03T08:07:43Z</time>
      </trkpt>
      <trkpt lat="44.97712" lon="4.67368">
        <ele>549.55102539062</ele>
        <time>2009-08-03T08:07:50Z</time>
      </trkpt>
      <trkpt lat="44.97685" lon="4.67332">
        <ele>550.47399902344</ele>
        <time>2009-08-03T08:07:58Z</time>
      </trkpt>
      <trkpt lat="44.97685" lon="4.67317">
        <ele>550.78497314453</ele>
        <time>2009-08-03T08:08:00Z</time>
      </trkpt>
      <trkpt lat="44.97687" lon="4.67288">
        <ele>551.36499023438</ele>
        <time>2009-08-03T08:08:04Z</time>
      </trkpt>
      <trkpt lat="44.97684" lon="4.67259">
        <ele>551.85400390625</ele>
        <time>2009-08-03T08:08:08Z</time>
      </trkpt>
      <trkpt lat="44.97665" lon="4.67195">
        <ele>552.88098144531</ele>
        <time>2009-08-03T08:08:17Z</time>
      </trkpt>
      <trkpt lat="44.97609" lon="4.67073">
        <ele>556.15997314453</ele>
        <time>2009-08-03T08:08:35Z</time>
      </trkpt>
      <trkpt lat="44.97578" lon="4.67019">
        <ele>557.47302246094</ele>
        <time>2009-08-03T08:08:44Z</time>
      </trkpt>
      <trkpt lat="44.97556" lon="4.66914">
        <ele>559.57098388672</ele>
        <time>2009-08-03T08:08:59Z</time>
      </trkpt>
      <trkpt lat="44.97536" lon="4.66879">
        <ele>560.42102050781</ele>
        <time>2009-08-03T08:09:05Z</time>
      </trkpt>
      <trkpt lat="44.97476" lon="4.66829">
        <ele>562.83801269531</ele>
        <time>2009-08-03T08:09:18Z</time>
      </trkpt>
      <trkpt lat="44.97463" lon="4.66817">
        <ele>563.67602539062</ele>
        <time>2009-08-03T08:09:21Z</time>
      </trkpt>
      <trkpt lat="44.97451" lon="4.66803">
        <ele>564.03601074219</ele>
        <time>2009-08-03T08:09:24Z</time>
      </trkpt>
      <trkpt lat="44.97457" lon="4.6675">
        <ele>564.47601318359</ele>
        <time>2009-08-03T08:09:32Z</time>
      </trkpt>
      <trkpt lat="44.97472" lon="4.66744">
        <ele>564.8740234375</ele>
        <time>2009-08-03T08:09:35Z</time>
      </trkpt>
      <trkpt lat="44.97496" lon="4.66738">
        <ele>565.71002197266</ele>
        <time>2009-08-03T08:09:39Z</time>
      </trkpt>
      <trkpt lat="44.9753" lon="4.66716">
        <ele>566.72802734375</ele>
        <time>2009-08-03T08:09:46Z</time>
      </trkpt>
      <trkpt lat="44.97544" lon="4.66694">
        <ele>567.60302734375</ele>
        <time>2009-08-03T08:09:50Z</time>
      </trkpt>
      <trkpt lat="44.97549" lon="4.66638">
        <ele>568.72998046875</ele>
        <time>2009-08-03T08:09:58Z</time>
      </trkpt>
      <trkpt lat="44.97533" lon="4.66607">
        <ele>569.63299560547</ele>
        <time>2009-08-03T08:10:03Z</time>
      </trkpt>
      <trkpt lat="44.9753" lon="4.66563">
        <ele>570.09301757812</ele>
        <time>2009-08-03T08:10:09Z</time>
      </trkpt>
      <trkpt lat="44.97538" lon="4.66542">
        <ele>570.93298339844</ele>
        <time>2009-08-03T08:10:12Z</time>
      </trkpt>
      <trkpt lat="44.97547" lon="4.66516">
        <ele>571.79602050781</ele>
        <time>2009-08-03T08:10:16Z</time>
      </trkpt>
      <trkpt lat="44.97554" lon="4.66481">
        <ele>572.34698486328</ele>
        <time>2009-08-03T08:10:21Z</time>
      </trkpt>
      <trkpt lat="44.9757" lon="4.66444">
        <ele>573.08197021484</ele>
        <time>2009-08-03T08:10:27Z</time>
      </trkpt>
      <trkpt lat="44.97571" lon="4.66391">
        <ele>574.92102050781</ele>
        <time>2009-08-03T08:10:35Z</time>
      </trkpt>
      <trkpt lat="44.97495" lon="4.6629">
        <ele>577.56597900391</ele>
        <time>2009-08-03T08:10:54Z</time>
      </trkpt>
      <trkpt lat="44.9742" lon="4.6624">
        <ele>579.96801757812</ele>
        <time>2009-08-03T08:11:09Z</time>
      </trkpt>
      <trkpt lat="44.97368" lon="4.66212">
        <ele>581.41101074219</ele>
        <time>2009-08-03T08:11:19Z</time>
      </trkpt>
      <trkpt lat="44.97349" lon="4.66166">
        <ele>582.73699951172</ele>
        <time>2009-08-03T08:11:26Z</time>
      </trkpt>
      <trkpt lat="44.9735" lon="4.66151">
        <ele>583.27697753906</ele>
        <time>2009-08-03T08:11:28Z</time>
      </trkpt>
      <trkpt lat="44.97335" lon="4.6612">
        <ele>584.27099609375</ele>
        <time>2009-08-03T08:11:33Z</time>
      </trkpt>
      <trkpt lat="44.97313" lon="4.66108">
        <ele>585.02502441406</ele>
        <time>2009-08-03T08:11:37Z</time>
      </trkpt>
      <trkpt lat="44.97292" lon="4.66055">
        <ele>586.583984375</ele>
        <time>2009-08-03T08:11:45Z</time>
      </trkpt>
      <trkpt lat="44.97292" lon="4.66039">
        <ele>586.42297363281</ele>
        <time>2009-08-03T08:11:47Z</time>
      </trkpt>
      <trkpt lat="44.97278" lon="4.65989">
        <ele>588.39599609375</ele>
        <time>2009-08-03T08:11:54Z</time>
      </trkpt>
      <trkpt lat="44.97261" lon="4.65967">
        <ele>588.63098144531</ele>
        <time>2009-08-03T08:11:58Z</time>
      </trkpt>
      <trkpt lat="44.97235" lon="4.65952">
        <ele>589.20001220703</ele>
        <time>2009-08-03T08:12:03Z</time>
      </trkpt>
      <trkpt lat="44.97224" lon="4.65949">
        <ele>589.72399902344</ele>
        <time>2009-08-03T08:12:05Z</time>
      </trkpt>
      <trkpt lat="44.972" lon="4.65925">
        <ele>590.541015625</ele>
        <time>2009-08-03T08:12:10Z</time>
      </trkpt>
      <trkpt lat="44.97189" lon="4.65898">
        <ele>591.11401367188</ele>
        <time>2009-08-03T08:12:14Z</time>
      </trkpt>
      <trkpt lat="44.97181" lon="4.65886">
        <ele>591.69000244141</ele>
        <time>2009-08-03T08:12:16Z</time>
      </trkpt>
      <trkpt lat="44.97153" lon="4.65866">
        <ele>592.89202880859</ele>
        <time>2009-08-03T08:12:22Z</time>
      </trkpt>
      <trkpt lat="44.9708" lon="4.65857">
        <ele>595.87097167969</ele>
        <time>2009-08-03T08:12:37Z</time>
      </trkpt>
      <trkpt lat="44.97045" lon="4.65826">
        <ele>596.44799804688</ele>
        <time>2009-08-03T08:12:45Z</time>
      </trkpt>
      <trkpt lat="44.97021" lon="4.6579">
        <ele>596.87298583984</ele>
        <time>2009-08-03T08:12:51Z</time>
      </trkpt>
      <trkpt lat="44.97007" lon="4.65775">
        <ele>596.91998291016</ele>
        <time>2009-08-03T08:12:54Z</time>
      </trkpt>
      <trkpt lat="44.96999" lon="4.65728">
        <ele>596.89001464844</ele>
        <time>2009-08-03T08:13:01Z</time>
      </trkpt>
      <trkpt lat="44.97018" lon="4.6572">
        <ele>597.63000488281</ele>
        <time>2009-08-03T08:13:05Z</time>
      </trkpt>
      <trkpt lat="44.97102" lon="4.65719">
        <ele>599.70202636719</ele>
        <time>2009-08-03T08:13:20Z</time>
      </trkpt>
      <trkpt lat="44.97131" lon="4.65668">
        <ele>601.39398193359</ele>
        <time>2009-08-03T08:13:29Z</time>
      </trkpt>
      <trkpt lat="44.9711" lon="4.6562">
        <ele>602.60797119141</ele>
        <time>2009-08-03T08:13:36Z</time>
      </trkpt>
      <trkpt lat="44.9709" lon="4.65564">
        <ele>603.64099121094</ele>
        <time>2009-08-03T08:13:44Z</time>
      </trkpt>
      <trkpt lat="44.97079" lon="4.65518">
        <ele>604.81402587891</ele>
        <time>2009-08-03T08:13:50Z</time>
      </trkpt>
      <trkpt lat="44.97072" lon="4.65496">
        <ele>605.25402832031</ele>
        <time>2009-08-03T08:13:53Z</time>
      </trkpt>
      <trkpt lat="44.9704" lon="4.65444">
        <ele>606.27398681641</ele>
        <time>2009-08-03T08:14:02Z</time>
      </trkpt>
      <trkpt lat="44.97032" lon="4.65413">
        <ele>607.30798339844</ele>
        <time>2009-08-03T08:14:06Z</time>
      </trkpt>
      <trkpt lat="44.97014" lon="4.65373">
        <ele>608.45397949219</ele>
        <time>2009-08-03T08:14:12Z</time>
      </trkpt>
      <trkpt lat="44.97012" lon="4.65359">
        <ele>608.50701904297</ele>
        <time>2009-08-03T08:14:14Z</time>
      </trkpt>
      <trkpt lat="44.97019" lon="4.65336">
        <ele>609.48699951172</ele>
        <time>2009-08-03T08:14:17Z</time>
      </trkpt>
      <trkpt lat="44.97018" lon="4.65272">
        <ele>610.81298828125</ele>
        <time>2009-08-03T08:14:25Z</time>
      </trkpt>
      <trkpt lat="44.97007" lon="4.65254">
        <ele>611.30999755859</ele>
        <time>2009-08-03T08:14:28Z</time>
      </trkpt>
      <trkpt lat="44.9701" lon="4.65207">
        <ele>612.76098632812</ele>
        <time>2009-08-03T08:14:35Z</time>
      </trkpt>
      <trkpt lat="44.97012" lon="4.65203">
        <ele>613.09399414062</ele>
        <time>2009-08-03T08:14:36Z</time>
      </trkpt>
      <trkpt lat="44.97015" lon="4.65197">
        <ele>613.20599365234</ele>
        <time>2009-08-03T08:14:37Z</time>
      </trkpt>
      <trkpt lat="44.97022" lon="4.65182">
        <ele>613.46997070312</ele>
        <time>2009-08-03T08:14:39Z</time>
      </trkpt>
      <trkpt lat="44.97023" lon="4.65175">
        <ele>613.88000488281</ele>
        <time>2009-08-03T08:14:40Z</time>
      </trkpt>
      <trkpt lat="44.97024" lon="4.65167">
        <ele>613.75</ele>
        <time>2009-08-03T08:14:41Z</time>
      </trkpt>
      <trkpt lat="44.9702" lon="4.65097">
        <ele>615.7490234375</ele>
        <time>2009-08-03T08:14:50Z</time>
      </trkpt>
      <trkpt lat="44.97049" lon="4.65091">
        <ele>615.76202392578</ele>
        <time>2009-08-03T08:14:55Z</time>
      </trkpt>
      <trkpt lat="44.97055" lon="4.65094">
        <ele>616.00598144531</ele>
        <time>2009-08-03T08:14:56Z</time>
      </trkpt>
      <trkpt lat="44.97131" lon="4.65165">
        <ele>619.06500244141</ele>
        <time>2009-08-03T08:15:11Z</time>
      </trkpt>
      <trkpt lat="44.97136" lon="4.65168">
        <ele>619.24798583984</ele>
        <time>2009-08-03T08:15:12Z</time>
      </trkpt>
      <trkpt lat="44.97164" lon="4.65146">
        <ele>621.53399658203</ele>
        <time>2009-08-03T08:15:19Z</time>
      </trkpt>
      <trkpt lat="44.97162" lon="4.65131">
        <ele>621.53497314453</ele>
        <time>2009-08-03T08:15:21Z</time>
      </trkpt>
      <trkpt lat="44.97137" lon="4.65066">
        <ele>623.33801269531</ele>
        <time>2009-08-03T08:15:30Z</time>
      </trkpt>
      <trkpt lat="44.97127" lon="4.65046">
        <ele>623.95001220703</ele>
        <time>2009-08-03T08:15:33Z</time>
      </trkpt>
      <trkpt lat="44.97112" lon="4.65022">
        <ele>624.44396972656</ele>
        <time>2009-08-03T08:15:37Z</time>
      </trkpt>
      <trkpt lat="44.97089" lon="4.64985">
        <ele>625.86602783203</ele>
        <time>2009-08-03T08:15:43Z</time>
      </trkpt>
      <trkpt lat="44.97078" lon="4.64968">
        <ele>626.82702636719</ele>
        <time>2009-08-03T08:15:46Z</time>
      </trkpt>
      <trkpt lat="44.97062" lon="4.6495">
        <ele>627.54602050781</ele>
        <time>2009-08-03T08:15:50Z</time>
      </trkpt>
      <trkpt lat="44.9705" lon="4.6491">
        <ele>628.90997314453</ele>
        <time>2009-08-03T08:15:56Z</time>
      </trkpt>
      <trkpt lat="44.9705" lon="4.64894">
        <ele>629.16900634766</ele>
        <time>2009-08-03T08:15:58Z</time>
      </trkpt>
      <trkpt lat="44.97043" lon="4.64867">
        <ele>629.66998291016</ele>
        <time>2009-08-03T08:16:02Z</time>
      </trkpt>
      <trkpt lat="44.96995" lon="4.64794">
        <ele>629.93701171875</ele>
        <time>2009-08-03T08:16:16Z</time>
      </trkpt>
      <trkpt lat="44.96988" lon="4.64783">
        <ele>629.22497558594</ele>
        <time>2009-08-03T08:16:18Z</time>
      </trkpt>
      <trkpt lat="44.96957" lon="4.64711">
        <ele>625.55798339844</ele>
        <time>2009-08-03T08:16:27Z</time>
      </trkpt>
      <trkpt lat="44.96953" lon="4.64689">
        <ele>624.68798828125</ele>
        <time>2009-08-03T08:16:29Z</time>
      </trkpt>
      <trkpt lat="44.96941" lon="4.6463">
        <ele>622.35400390625</ele>
        <time>2009-08-03T08:16:34Z</time>
      </trkpt>
      <trkpt lat="44.96937" lon="4.6458">
        <ele>620.42498779297</ele>
        <time>2009-08-03T08:16:38Z</time>
      </trkpt>
      <trkpt lat="44.96937" lon="4.64529">
        <ele>617.97900390625</ele>
        <time>2009-08-03T08:16:42Z</time>
      </trkpt>
      <trkpt lat="44.96935" lon="4.64463">
        <ele>615.42901611328</ele>
        <time>2009-08-03T08:16:47Z</time>
      </trkpt>
      <trkpt lat="44.96914" lon="4.64413">
        <ele>612.41802978516</ele>
        <time>2009-08-03T08:16:51Z</time>
      </trkpt>
      <trkpt lat="44.96903" lon="4.64387">
        <ele>612.39398193359</ele>
        <time>2009-08-03T08:16:53Z</time>
      </trkpt>
      <trkpt lat="44.96896" lon="4.64314">
        <ele>609.31701660156</ele>
        <time>2009-08-03T08:16:58Z</time>
      </trkpt>
      <trkpt lat="44.96858" lon="4.64269">
        <ele>606.56701660156</ele>
        <time>2009-08-03T08:17:03Z</time>
      </trkpt>
      <trkpt lat="44.96852" lon="4.64243">
        <ele>605.65698242188</ele>
        <time>2009-08-03T08:17:05Z</time>
      </trkpt>
      <trkpt lat="44.96847" lon="4.64213">
        <ele>604.7509765625</ele>
        <time>2009-08-03T08:17:07Z</time>
      </trkpt>
      <trkpt lat="44.96838" lon="4.64171">
        <ele>602.56402587891</ele>
        <time>2009-08-03T08:17:10Z</time>
      </trkpt>
      <trkpt lat="44.96817" lon="4.64116">
        <ele>600.31500244141</ele>
        <time>2009-08-03T08:17:15Z</time>
      </trkpt>
      <trkpt lat="44.96821" lon="4.64105">
        <ele>600.10302734375</ele>
        <time>2009-08-03T08:17:16Z</time>
      </trkpt>
      <trkpt lat="44.96854" lon="4.64102">
        <ele>598.34197998047</ele>
        <time>2009-08-03T08:17:20Z</time>
      </trkpt>
      <trkpt lat="44.96879" lon="4.64107">
        <ele>597.34600830078</ele>
        <time>2009-08-03T08:17:23Z</time>
      </trkpt>
      <trkpt lat="44.96899" lon="4.64104">
        <ele>596.52697753906</ele>
        <time>2009-08-03T08:17:25Z</time>
      </trkpt>
      <trkpt lat="44.96918" lon="4.64102">
        <ele>595.43902587891</ele>
        <time>2009-08-03T08:17:27Z</time>
      </trkpt>
      <trkpt lat="44.96946" lon="4.64107">
        <ele>593.80798339844</ele>
        <time>2009-08-03T08:17:30Z</time>
      </trkpt>
      <trkpt lat="44.9696" lon="4.64071">
        <ele>592.51800537109</ele>
        <time>2009-08-03T08:17:35Z</time>
      </trkpt>
      <trkpt lat="44.96926" lon="4.64049">
        <ele>590.69396972656</ele>
        <time>2009-08-03T08:17:39Z</time>
      </trkpt>
      <trkpt lat="44.96917" lon="4.64045">
        <ele>589.84899902344</ele>
        <time>2009-08-03T08:17:40Z</time>
      </trkpt>
      <trkpt lat="44.96846" lon="4.64002">
        <ele>585.97601318359</ele>
        <time>2009-08-03T08:17:48Z</time>
      </trkpt>
      <trkpt lat="44.96818" lon="4.63985">
        <ele>584.32800292969</ele>
        <time>2009-08-03T08:17:51Z</time>
      </trkpt>
      <trkpt lat="44.96788" lon="4.63977">
        <ele>582.92102050781</ele>
        <time>2009-08-03T08:17:54Z</time>
      </trkpt>
      <trkpt lat="44.96757" lon="4.63973">
        <ele>580.45599365234</ele>
        <time>2009-08-03T08:17:57Z</time>
      </trkpt>
      <trkpt lat="44.9671" lon="4.63916">
        <ele>577.21899414062</ele>
        <time>2009-08-03T08:18:03Z</time>
      </trkpt>
      <trkpt lat="44.96682" lon="4.63849">
        <ele>574.59301757812</ele>
        <time>2009-08-03T08:18:08Z</time>
      </trkpt>
      <trkpt lat="44.96666" lon="4.63789">
        <ele>572.26702880859</ele>
        <time>2009-08-03T08:18:12Z</time>
      </trkpt>
      <trkpt lat="44.96651" lon="4.63733">
        <ele>569.57202148438</ele>
        <time>2009-08-03T08:18:16Z</time>
      </trkpt>
      <trkpt lat="44.96644" lon="4.63703">
        <ele>568.63201904297</ele>
        <time>2009-08-03T08:18:18Z</time>
      </trkpt>
      <trkpt lat="44.96617" lon="4.63651">
        <ele>565.11901855469</ele>
        <time>2009-08-03T08:18:22Z</time>
      </trkpt>
      <trkpt lat="44.96587" lon="4.63621">
        <ele>562.79602050781</ele>
        <time>2009-08-03T08:18:25Z</time>
      </trkpt>
      <trkpt lat="44.96578" lon="4.63608">
        <ele>562.10302734375</ele>
        <time>2009-08-03T08:18:26Z</time>
      </trkpt>
      <trkpt lat="44.96566" lon="4.63579">
        <ele>560.84997558594</ele>
        <time>2009-08-03T08:18:28Z</time>
      </trkpt>
      <trkpt lat="44.96501" lon="4.63509">
        <ele>556.81402587891</ele>
        <time>2009-08-03T08:18:35Z</time>
      </trkpt>
      <trkpt lat="44.96453" lon="4.63462">
        <ele>553.3740234375</ele>
        <time>2009-08-03T08:18:40Z</time>
      </trkpt>
      <trkpt lat="44.96442" lon="4.63455">
        <ele>552.44799804688</ele>
        <time>2009-08-03T08:18:41Z</time>
      </trkpt>
      <trkpt lat="44.96357" lon="4.63386">
        <ele>546.93701171875</ele>
        <time>2009-08-03T08:18:49Z</time>
      </trkpt>
      <trkpt lat="44.96336" lon="4.63373">
        <ele>546.4990234375</ele>
        <time>2009-08-03T08:18:51Z</time>
      </trkpt>
      <trkpt lat="44.96286" lon="4.6335">
        <ele>548.94799804688</ele>
        <time>2009-08-03T08:18:56Z</time>
      </trkpt>
      <trkpt lat="44.96272" lon="4.63337">
        <ele>550.09802246094</ele>
        <time>2009-08-03T08:18:58Z</time>
      </trkpt>
      <trkpt lat="44.96265" lon="4.6331">
        <ele>551.67297363281</ele>
        <time>2009-08-03T08:19:01Z</time>
      </trkpt>
      <trkpt lat="44.9627" lon="4.63295">
        <ele>552.23797607422</ele>
        <time>2009-08-03T08:19:03Z</time>
      </trkpt>
      <trkpt lat="44.96281" lon="4.6326">
        <ele>553.85797119141</ele>
        <time>2009-08-03T08:19:08Z</time>
      </trkpt>
      <trkpt lat="44.96292" lon="4.63237">
        <ele>555.31298828125</ele>
        <time>2009-08-03T08:19:13Z</time>
      </trkpt>
      <trkpt lat="44.963" lon="4.63224">
        <ele>555.40502929688</ele>
        <time>2009-08-03T08:19:21Z</time>
      </trkpt>
      <trkpt lat="44.96294" lon="4.63222">
        <ele>555.44897460938</ele>
        <time>2009-08-03T08:19:26Z</time>
      </trkpt>
      <trkpt lat="44.96285" lon="4.6324">
        <ele>555.93402099609</ele>
        <time>2009-08-03T08:19:34Z</time>
      </trkpt>
      <trkpt lat="44.96271" lon="4.6328">
        <ele>556.93200683594</ele>
        <time>2009-08-03T08:19:46Z</time>
      </trkpt>
      <trkpt lat="44.96263" lon="4.63304">
        <ele>557.72100830078</ele>
        <time>2009-08-03T08:19:52Z</time>
      </trkpt>
      <trkpt lat="44.9625" lon="4.63326">
        <ele>558.38397216797</ele>
        <time>2009-08-03T08:19:57Z</time>
      </trkpt>
      <trkpt lat="44.96241" lon="4.63345">
        <ele>558.40197753906</ele>
        <time>2009-08-03T08:20:01Z</time>
      </trkpt>
      <trkpt lat="44.96229" lon="4.6337">
        <ele>559.22399902344</ele>
        <time>2009-08-03T08:20:06Z</time>
      </trkpt>
      <trkpt lat="44.96236" lon="4.63422">
        <ele>560.24499511719</ele>
        <time>2009-08-03T08:20:15Z</time>
      </trkpt>
      <trkpt lat="44.96243" lon="4.63442">
        <ele>561.27197265625</ele>
        <time>2009-08-03T08:20:19Z</time>
      </trkpt>
      <trkpt lat="44.96243" lon="4.63427">
        <ele>561.10101318359</ele>
        <time>2009-08-03T08:20:26Z</time>
      </trkpt>
      <trkpt lat="44.96241" lon="4.63423">
        <ele>560.92602539062</ele>
        <time>2009-08-03T08:20:27Z</time>
      </trkpt>
      <trkpt lat="44.96235" lon="4.63408">
        <ele>560.85400390625</ele>
        <time>2009-08-03T08:20:30Z</time>
      </trkpt>
      <trkpt lat="44.96236" lon="4.63363">
        <ele>559.26599121094</ele>
        <time>2009-08-03T08:20:36Z</time>
      </trkpt>
      <trkpt lat="44.96268" lon="4.63296">
        <ele>557.07000732422</ele>
        <time>2009-08-03T08:20:45Z</time>
      </trkpt>
      <trkpt lat="44.96272" lon="4.63287">
        <ele>556.88598632812</ele>
        <time>2009-08-03T08:20:46Z</time>
      </trkpt>
      <trkpt lat="44.96286" lon="4.63243">
        <ele>555.71099853516</ele>
        <time>2009-08-03T08:20:51Z</time>
      </trkpt>
      <trkpt lat="44.96291" lon="4.63215">
        <ele>555.70300292969</ele>
        <time>2009-08-03T08:20:54Z</time>
      </trkpt>
      <trkpt lat="44.96301" lon="4.63178">
        <ele>556.88702392578</ele>
        <time>2009-08-03T08:20:59Z</time>
      </trkpt>
      <trkpt lat="44.96303" lon="4.63153">
        <ele>558.57702636719</ele>
        <time>2009-08-03T08:21:03Z</time>
      </trkpt>
      <trkpt lat="44.96301" lon="4.63148">
        <ele>558.96801757812</ele>
        <time>2009-08-03T08:21:04Z</time>
      </trkpt>
      <trkpt lat="44.96295" lon="4.63125">
        <ele>560.31097412109</ele>
        <time>2009-08-03T08:21:08Z</time>
      </trkpt>
      <trkpt lat="44.9629" lon="4.63115">
        <ele>561.13702392578</ele>
        <time>2009-08-03T08:21:10Z</time>
      </trkpt>
      <trkpt lat="44.96281" lon="4.63096">
        <ele>561.94396972656</ele>
        <time>2009-08-03T08:21:14Z</time>
      </trkpt>
      <trkpt lat="44.96275" lon="4.63081">
        <ele>563.34301757812</ele>
        <time>2009-08-03T08:21:17Z</time>
      </trkpt>
      <trkpt lat="44.96263" lon="4.63058">
        <ele>564.53399658203</ele>
        <time>2009-08-03T08:21:22Z</time>
      </trkpt>
      <trkpt lat="44.96256" lon="4.6302">
        <ele>566.39697265625</ele>
        <time>2009-08-03T08:21:29Z</time>
      </trkpt>
      <trkpt lat="44.96251" lon="4.62993">
        <ele>568.04302978516</ele>
        <time>2009-08-03T08:21:34Z</time>
      </trkpt>
      <trkpt lat="44.96223" lon="4.62933">
        <ele>571.71997070312</ele>
        <time>2009-08-03T08:21:47Z</time>
      </trkpt>
      <trkpt lat="44.96207" lon="4.629">
        <ele>574.24102783203</ele>
        <time>2009-08-03T08:21:55Z</time>
      </trkpt>
      <trkpt lat="44.96177" lon="4.6284">
        <ele>577.93402099609</ele>
        <time>2009-08-03T08:22:10Z</time>
      </trkpt>
      <trkpt lat="44.96139" lon="4.62786">
        <ele>582.01898193359</ele>
        <time>2009-08-03T08:22:25Z</time>
      </trkpt>
      <trkpt lat="44.96091" lon="4.62739">
        <ele>586.61199951172</ele>
        <time>2009-08-03T08:22:41Z</time>
      </trkpt>
      <trkpt lat="44.96075" lon="4.62739">
        <ele>587.20397949219</ele>
        <time>2009-08-03T08:22:45Z</time>
      </trkpt>
      <trkpt lat="44.96059" lon="4.62748">
        <ele>588.25402832031</ele>
        <time>2009-08-03T08:22:49Z</time>
      </trkpt>
      <trkpt lat="44.96027" lon="4.62776">
        <ele>588.58099365234</ele>
        <time>2009-08-03T08:22:57Z</time>
      </trkpt>
      <trkpt lat="44.96006" lon="4.62793">
        <ele>589.69097900391</ele>
        <time>2009-08-03T08:23:02Z</time>
      </trkpt>
      <trkpt lat="44.95981" lon="4.62796">
        <ele>590.61999511719</ele>
        <time>2009-08-03T08:23:07Z</time>
      </trkpt>
      <trkpt lat="44.95962" lon="4.62791">
        <ele>591.60900878906</ele>
        <time>2009-08-03T08:23:11Z</time>
      </trkpt>
      <trkpt lat="44.95938" lon="4.62788">
        <ele>592.16497802734</ele>
        <time>2009-08-03T08:23:16Z</time>
      </trkpt>
      <trkpt lat="44.95917" lon="4.62778">
        <ele>593.6669921875</ele>
        <time>2009-08-03T08:23:21Z</time>
      </trkpt>
      <trkpt lat="44.95876" lon="4.62753">
        <ele>595.90600585938</ele>
        <time>2009-08-03T08:23:31Z</time>
      </trkpt>
      <trkpt lat="44.95858" lon="4.62756">
        <ele>596.87200927734</ele>
        <time>2009-08-03T08:23:35Z</time>
      </trkpt>
      <trkpt lat="44.95787" lon="4.628">
        <ele>600.24401855469</ele>
        <time>2009-08-03T08:23:52Z</time>
      </trkpt>
      <trkpt lat="44.9577" lon="4.62809">
        <ele>601.17401123047</ele>
        <time>2009-08-03T08:23:56Z</time>
      </trkpt>
      <trkpt lat="44.95752" lon="4.62838">
        <ele>602.08502197266</ele>
        <time>2009-08-03T08:24:02Z</time>
      </trkpt>
      <trkpt lat="44.95747" lon="4.62856">
        <ele>602.82800292969</ele>
        <time>2009-08-03T08:24:05Z</time>
      </trkpt>
      <trkpt lat="44.95723" lon="4.62902">
        <ele>605.125</ele>
        <time>2009-08-03T08:24:15Z</time>
      </trkpt>
      <trkpt lat="44.95708" lon="4.62884">
        <ele>606.22497558594</ele>
        <time>2009-08-03T08:24:20Z</time>
      </trkpt>
      <trkpt lat="44.95696" lon="4.62841">
        <ele>608.16101074219</ele>
        <time>2009-08-03T08:24:28Z</time>
      </trkpt>
      <trkpt lat="44.95687" lon="4.62821">
        <ele>609.01300048828</ele>
        <time>2009-08-03T08:24:32Z</time>
      </trkpt>
      <trkpt lat="44.95672" lon="4.62806">
        <ele>609.79400634766</ele>
        <time>2009-08-03T08:24:36Z</time>
      </trkpt>
      <trkpt lat="44.95665" lon="4.62797">
        <ele>610.33197021484</ele>
        <time>2009-08-03T08:24:38Z</time>
      </trkpt>
      <trkpt lat="44.95649" lon="4.62776">
        <ele>611.27099609375</ele>
        <time>2009-08-03T08:24:43Z</time>
      </trkpt>
      <trkpt lat="44.95627" lon="4.62762">
        <ele>612.38201904297</ele>
        <time>2009-08-03T08:24:48Z</time>
      </trkpt>
      <trkpt lat="44.95605" lon="4.62757">
        <ele>612.97302246094</ele>
        <time>2009-08-03T08:24:53Z</time>
      </trkpt>
      <trkpt lat="44.95581" lon="4.62745">
        <ele>614.59100341797</ele>
        <time>2009-08-03T08:24:59Z</time>
      </trkpt>
      <trkpt lat="44.95564" lon="4.62737">
        <ele>615.17999267578</ele>
        <time>2009-08-03T08:25:03Z</time>
      </trkpt>
      <trkpt lat="44.9555" lon="4.62731">
        <ele>615.81402587891</ele>
        <time>2009-08-03T08:25:06Z</time>
      </trkpt>
      <trkpt lat="44.95518" lon="4.62722">
        <ele>617.65600585938</ele>
        <time>2009-08-03T08:25:13Z</time>
      </trkpt>
      <trkpt lat="44.95508" lon="4.62722">
        <ele>618.08502197266</ele>
        <time>2009-08-03T08:25:15Z</time>
      </trkpt>
      <trkpt lat="44.95494" lon="4.62725">
        <ele>618.86602783203</ele>
        <time>2009-08-03T08:25:18Z</time>
      </trkpt>
      <trkpt lat="44.95485" lon="4.62725">
        <ele>619.28997802734</ele>
        <time>2009-08-03T08:25:20Z</time>
      </trkpt>
      <trkpt lat="44.95443" lon="4.62732">
        <ele>620.58898925781</ele>
        <time>2009-08-03T08:25:29Z</time>
      </trkpt>
      <trkpt lat="44.95424" lon="4.62729">
        <ele>621.63397216797</ele>
        <time>2009-08-03T08:25:33Z</time>
      </trkpt>
      <trkpt lat="44.95387" lon="4.6271">
        <ele>623.41302490234</ele>
        <time>2009-08-03T08:25:42Z</time>
      </trkpt>
      <trkpt lat="44.95343" lon="4.62706">
        <ele>625.14099121094</ele>
        <time>2009-08-03T08:25:52Z</time>
      </trkpt>
      <trkpt lat="44.95329" lon="4.62703">
        <ele>626.02801513672</ele>
        <time>2009-08-03T08:25:55Z</time>
      </trkpt>
      <trkpt lat="44.953" lon="4.62685">
        <ele>627.39398193359</ele>
        <time>2009-08-03T08:26:02Z</time>
      </trkpt>
      <trkpt lat="44.95292" lon="4.62656">
        <ele>628.62902832031</ele>
        <time>2009-08-03T08:26:08Z</time>
      </trkpt>
      <trkpt lat="44.95324" lon="4.62597">
        <ele>630.81500244141</ele>
        <time>2009-08-03T08:26:20Z</time>
      </trkpt>
      <trkpt lat="44.95327" lon="4.62558">
        <ele>631.86499023438</ele>
        <time>2009-08-03T08:26:26Z</time>
      </trkpt>
      <trkpt lat="44.95296" lon="4.6244">
        <ele>636.00299072266</ele>
        <time>2009-08-03T08:26:45Z</time>
      </trkpt>
      <trkpt lat="44.95288" lon="4.62349">
        <ele>638.75897216797</ele>
        <time>2009-08-03T08:26:59Z</time>
      </trkpt>
      <trkpt lat="44.95272" lon="4.62235">
        <ele>642.85198974609</ele>
        <time>2009-08-03T08:27:18Z</time>
      </trkpt>
      <trkpt lat="44.95267" lon="4.62218">
        <ele>643.69500732422</ele>
        <time>2009-08-03T08:27:21Z</time>
      </trkpt>
      <trkpt lat="44.95243" lon="4.62182">
        <ele>646.27197265625</ele>
        <time>2009-08-03T08:27:29Z</time>
      </trkpt>
      <trkpt lat="44.95235" lon="4.62158">
        <ele>646.80200195312</ele>
        <time>2009-08-03T08:27:33Z</time>
      </trkpt>
      <trkpt lat="44.95233" lon="4.62114">
        <ele>648.85198974609</ele>
        <time>2009-08-03T08:27:42Z</time>
      </trkpt>
      <trkpt lat="44.95229" lon="4.62104">
        <ele>649.54699707031</ele>
        <time>2009-08-03T08:27:44Z</time>
      </trkpt>
      <trkpt lat="44.95226" lon="4.62073">
        <ele>652.17401123047</ele>
        <time>2009-08-03T08:27:51Z</time>
      </trkpt>
      <trkpt lat="44.95223" lon="4.62049">
        <ele>653.99700927734</ele>
        <time>2009-08-03T08:27:56Z</time>
      </trkpt>
      <trkpt lat="44.95221" lon="4.62039">
        <ele>654.68402099609</ele>
        <time>2009-08-03T08:27:58Z</time>
      </trkpt>
      <trkpt lat="44.95218" lon="4.62012">
        <ele>656.69396972656</ele>
        <time>2009-08-03T08:28:04Z</time>
      </trkpt>
      <trkpt lat="44.95214" lon="4.61981">
        <ele>658.26202392578</ele>
        <time>2009-08-03T08:28:10Z</time>
      </trkpt>
      <trkpt lat="44.95211" lon="4.61967">
        <ele>658.80700683594</ele>
        <time>2009-08-03T08:28:12Z</time>
      </trkpt>
      <trkpt lat="44.95229" lon="4.61926">
        <ele>661.61401367188</ele>
        <time>2009-08-03T08:28:22Z</time>
      </trkpt>
      <trkpt lat="44.95247" lon="4.61924">
        <ele>662.80603027344</ele>
        <time>2009-08-03T08:28:27Z</time>
      </trkpt>
      <trkpt lat="44.95257" lon="4.61888">
        <ele>664.91302490234</ele>
        <time>2009-08-03T08:28:35Z</time>
      </trkpt>
      <trkpt lat="44.95256" lon="4.61882">
        <ele>664.96600341797</ele>
        <time>2009-08-03T08:28:36Z</time>
      </trkpt>
      <trkpt lat="44.95252" lon="4.61858">
        <ele>665.96600341797</ele>
        <time>2009-08-03T08:28:40Z</time>
      </trkpt>
      <trkpt lat="44.95254" lon="4.61842">
        <ele>666.89898681641</ele>
        <time>2009-08-03T08:28:43Z</time>
      </trkpt>
      <trkpt lat="44.95249" lon="4.61793">
        <ele>669.88397216797</ele>
        <time>2009-08-03T08:28:53Z</time>
      </trkpt>
      <trkpt lat="44.95243" lon="4.61746">
        <ele>672.47100830078</ele>
        <time>2009-08-03T08:29:01Z</time>
      </trkpt>
      <trkpt lat="44.95244" lon="4.61723">
        <ele>673.61700439453</ele>
        <time>2009-08-03T08:29:06Z</time>
      </trkpt>
      <trkpt lat="44.9524" lon="4.61702">
        <ele>674.20599365234</ele>
        <time>2009-08-03T08:29:10Z</time>
      </trkpt>
      <trkpt lat="44.95234" lon="4.61681">
        <ele>674.82800292969</ele>
        <time>2009-08-03T08:29:14Z</time>
      </trkpt>
      <trkpt lat="44.95225" lon="4.6166">
        <ele>674.81500244141</ele>
        <time>2009-08-03T08:29:18Z</time>
      </trkpt>
      <trkpt lat="44.95223" lon="4.61632">
        <ele>675.28302001953</ele>
        <time>2009-08-03T08:29:22Z</time>
      </trkpt>
      <trkpt lat="44.95245" lon="4.61622">
        <ele>677.69799804688</ele>
        <time>2009-08-03T08:29:29Z</time>
      </trkpt>
      <trkpt lat="44.95273" lon="4.61636">
        <ele>679.10400390625</ele>
        <time>2009-08-03T08:29:37Z</time>
      </trkpt>
      <trkpt lat="44.95291" lon="4.6164">
        <ele>680.15002441406</ele>
        <time>2009-08-03T08:29:42Z</time>
      </trkpt>
      <trkpt lat="44.95306" lon="4.61644">
        <ele>680.86999511719</ele>
        <time>2009-08-03T08:29:46Z</time>
      </trkpt>
      <trkpt lat="44.9533" lon="4.61649">
        <ele>682.14300537109</ele>
        <time>2009-08-03T08:29:52Z</time>
      </trkpt>
      <trkpt lat="44.95396" lon="4.61659">
        <ele>685.91900634766</ele>
        <time>2009-08-03T08:30:09Z</time>
      </trkpt>
      <trkpt lat="44.95443" lon="4.61663">
        <ele>686.89599609375</ele>
        <time>2009-08-03T08:30:20Z</time>
      </trkpt>
      <trkpt lat="44.95472" lon="4.61658">
        <ele>685.83898925781</ele>
        <time>2009-08-03T08:30:26Z</time>
      </trkpt>
      <trkpt lat="44.95524" lon="4.61662">
        <ele>682.65600585938</ele>
        <time>2009-08-03T08:30:34Z</time>
      </trkpt>
      <trkpt lat="44.9553" lon="4.61664">
        <ele>682.333984375</ele>
        <time>2009-08-03T08:30:35Z</time>
      </trkpt>
      <trkpt lat="44.95553" lon="4.61626">
        <ele>683.40301513672</ele>
        <time>2009-08-03T08:30:41Z</time>
      </trkpt>
      <trkpt lat="44.95545" lon="4.61598">
        <ele>683.83599853516</ele>
        <time>2009-08-03T08:30:45Z</time>
      </trkpt>
      <trkpt lat="44.95519" lon="4.61532">
        <ele>685.42401123047</ele>
        <time>2009-08-03T08:30:55Z</time>
      </trkpt>
      <trkpt lat="44.95515" lon="4.6151">
        <ele>686.13299560547</ele>
        <time>2009-08-03T08:30:58Z</time>
      </trkpt>
      <trkpt lat="44.9551" lon="4.61496">
        <ele>686.11297607422</ele>
        <time>2009-08-03T08:31:00Z</time>
      </trkpt>
      <trkpt lat="44.95475" lon="4.61434">
        <ele>687.41900634766</ele>
        <time>2009-08-03T08:31:10Z</time>
      </trkpt>
      <trkpt lat="44.9547" lon="4.6142">
        <ele>687.98602294922</ele>
        <time>2009-08-03T08:31:12Z</time>
      </trkpt>
      <trkpt lat="44.95464" lon="4.61364">
        <ele>689.70501708984</ele>
        <time>2009-08-03T08:31:20Z</time>
      </trkpt>
      <trkpt lat="44.95449" lon="4.61304">
        <ele>690.73199462891</ele>
        <time>2009-08-03T08:31:29Z</time>
      </trkpt>
      <trkpt lat="44.95453" lon="4.61268">
        <ele>692.16900634766</ele>
        <time>2009-08-03T08:31:34Z</time>
      </trkpt>
      <trkpt lat="44.95458" lon="4.61257">
        <ele>692.75</ele>
        <time>2009-08-03T08:31:36Z</time>
      </trkpt>
      <trkpt lat="44.95464" lon="4.61241">
        <ele>693.56298828125</ele>
        <time>2009-08-03T08:31:39Z</time>
      </trkpt>
      <trkpt lat="44.95477" lon="4.61194">
        <ele>695.60400390625</ele>
        <time>2009-08-03T08:31:47Z</time>
      </trkpt>
      <trkpt lat="44.95491" lon="4.61152">
        <ele>698.05102539062</ele>
        <time>2009-08-03T08:31:55Z</time>
      </trkpt>
      <trkpt lat="44.95502" lon="4.61121">
        <ele>699.74597167969</ele>
        <time>2009-08-03T08:32:01Z</time>
      </trkpt>
      <trkpt lat="44.95504" lon="4.61096">
        <ele>699.94702148438</ele>
        <time>2009-08-03T08:32:05Z</time>
      </trkpt>
      <trkpt lat="44.95501" lon="4.61075">
        <ele>699.583984375</ele>
        <time>2009-08-03T08:32:08Z</time>
      </trkpt>
      <trkpt lat="44.95489" lon="4.60987">
        <ele>697.458984375</ele>
        <time>2009-08-03T08:32:18Z</time>
      </trkpt>
      <trkpt lat="44.955" lon="4.60956">
        <ele>697.1669921875</ele>
        <time>2009-08-03T08:32:22Z</time>
      </trkpt>
      <trkpt lat="44.95508" lon="4.60943">
        <ele>697.69702148438</ele>
        <time>2009-08-03T08:32:24Z</time>
      </trkpt>
      <trkpt lat="44.95513" lon="4.6091">
        <ele>697.21002197266</ele>
        <time>2009-08-03T08:32:28Z</time>
      </trkpt>
      <trkpt lat="44.9551" lon="4.60892">
        <ele>696.22601318359</ele>
        <time>2009-08-03T08:32:30Z</time>
      </trkpt>
      <trkpt lat="44.95506" lon="4.60874">
        <ele>695.31298828125</ele>
        <time>2009-08-03T08:32:32Z</time>
      </trkpt>
      <trkpt lat="44.95512" lon="4.60818">
        <ele>695.74102783203</ele>
        <time>2009-08-03T08:32:38Z</time>
      </trkpt>
      <trkpt lat="44.95517" lon="4.60784">
        <ele>697.34100341797</ele>
        <time>2009-08-03T08:32:43Z</time>
      </trkpt>
      <trkpt lat="44.95511" lon="4.60725">
        <ele>699.21997070312</ele>
        <time>2009-08-03T08:32:51Z</time>
      </trkpt>
      <trkpt lat="44.95508" lon="4.60664">
        <ele>702.16900634766</ele>
        <time>2009-08-03T08:33:00Z</time>
      </trkpt>
      <trkpt lat="44.95507" lon="4.60632">
        <ele>703.78198242188</ele>
        <time>2009-08-03T08:33:05Z</time>
      </trkpt>
      <trkpt lat="44.95504" lon="4.60607">
        <ele>703.39898681641</ele>
        <time>2009-08-03T08:33:09Z</time>
      </trkpt>
      <trkpt lat="44.95503" lon="4.60578">
        <ele>703.40399169922</ele>
        <time>2009-08-03T08:33:13Z</time>
      </trkpt>
      <trkpt lat="44.95504" lon="4.60541">
        <ele>703.40399169922</ele>
        <time>2009-08-03T08:33:17Z</time>
      </trkpt>
      <trkpt lat="44.95506" lon="4.60527">
        <ele>703.40197753906</ele>
        <time>2009-08-03T08:33:19Z</time>
      </trkpt>
      <trkpt lat="44.95493" lon="4.60509">
        <ele>693.46600341797</ele>
        <time>2009-08-03T08:33:24Z</time>
      </trkpt>
      <trkpt lat="44.95486" lon="4.60508">
        <ele>692.07501220703</ele>
        <time>2009-08-03T08:33:25Z</time>
      </trkpt>
      <trkpt lat="44.9548" lon="4.60508">
        <ele>691.86602783203</ele>
        <time>2009-08-03T08:33:26Z</time>
      </trkpt>
      <trkpt lat="44.95454" lon="4.6051">
        <ele>690.21197509766</ele>
        <time>2009-08-03T08:33:30Z</time>
      </trkpt>
      <trkpt lat="44.95434" lon="4.60512">
        <ele>691.00799560547</ele>
        <time>2009-08-03T08:33:33Z</time>
      </trkpt>
      <trkpt lat="44.95421" lon="4.6051">
        <ele>692.1669921875</ele>
        <time>2009-08-03T08:33:35Z</time>
      </trkpt>
      <trkpt lat="44.95382" lon="4.60496">
        <ele>694.07897949219</ele>
        <time>2009-08-03T08:33:42Z</time>
      </trkpt>
      <trkpt lat="44.95341" lon="4.6048">
        <ele>696.74298095703</ele>
        <time>2009-08-03T08:33:50Z</time>
      </trkpt>
      <trkpt lat="44.95283" lon="4.60465">
        <ele>699.97497558594</ele>
        <time>2009-08-03T08:34:03Z</time>
      </trkpt>
      <trkpt lat="44.9527" lon="4.60458">
        <ele>700.90997314453</ele>
        <time>2009-08-03T08:34:06Z</time>
      </trkpt>
      <trkpt lat="44.95249" lon="4.60428">
        <ele>702.72802734375</ele>
        <time>2009-08-03T08:34:13Z</time>
      </trkpt>
      <trkpt lat="44.9524" lon="4.60413">
        <ele>703.63598632812</ele>
        <time>2009-08-03T08:34:16Z</time>
      </trkpt>
      <trkpt lat="44.9523" lon="4.60393">
        <ele>704.28198242188</ele>
        <time>2009-08-03T08:34:20Z</time>
      </trkpt>
      <trkpt lat="44.95217" lon="4.6036">
        <ele>705.77502441406</ele>
        <time>2009-08-03T08:34:26Z</time>
      </trkpt>
      <trkpt lat="44.95213" lon="4.60343">
        <ele>706.63201904297</ele>
        <time>2009-08-03T08:34:29Z</time>
      </trkpt>
      <trkpt lat="44.95211" lon="4.60324">
        <ele>707.50799560547</ele>
        <time>2009-08-03T08:34:32Z</time>
      </trkpt>
      <trkpt lat="44.95214" lon="4.60298">
        <ele>707.98400878906</ele>
        <time>2009-08-03T08:34:36Z</time>
      </trkpt>
      <trkpt lat="44.95219" lon="4.60274">
        <ele>709.13201904297</ele>
        <time>2009-08-03T08:34:40Z</time>
      </trkpt>
      <trkpt lat="44.95221" lon="4.60262">
        <ele>709.24798583984</ele>
        <time>2009-08-03T08:34:42Z</time>
      </trkpt>
      <trkpt lat="44.95218" lon="4.60238">
        <ele>710.51800537109</ele>
        <time>2009-08-03T08:34:46Z</time>
      </trkpt>
      <trkpt lat="44.95211" lon="4.60223">
        <ele>711.33697509766</ele>
        <time>2009-08-03T08:34:49Z</time>
      </trkpt>
      <trkpt lat="44.95196" lon="4.60201">
        <ele>712.63098144531</ele>
        <time>2009-08-03T08:34:54Z</time>
      </trkpt>
      <trkpt lat="44.95159" lon="4.60163">
        <ele>715.42297363281</ele>
        <time>2009-08-03T08:35:05Z</time>
      </trkpt>
      <trkpt lat="44.95124" lon="4.60134">
        <ele>717.28198242188</ele>
        <time>2009-08-03T08:35:14Z</time>
      </trkpt>
      <trkpt lat="44.951" lon="4.60118">
        <ele>718.59301757812</ele>
        <time>2009-08-03T08:35:20Z</time>
      </trkpt>
      <trkpt lat="44.95082" lon="4.60109">
        <ele>719.71997070312</ele>
        <time>2009-08-03T08:35:25Z</time>
      </trkpt>
      <trkpt lat="44.9507" lon="4.60105">
        <ele>719.85797119141</ele>
        <time>2009-08-03T08:35:28Z</time>
      </trkpt>
      <trkpt lat="44.95046" lon="4.60108">
        <ele>721.82897949219</ele>
        <time>2009-08-03T08:35:34Z</time>
      </trkpt>
      <trkpt lat="44.95034" lon="4.60116">
        <ele>722.57299804688</ele>
        <time>2009-08-03T08:35:37Z</time>
      </trkpt>
      <trkpt lat="44.94975" lon="4.60191">
        <ele>726.14501953125</ele>
        <time>2009-08-03T08:35:54Z</time>
      </trkpt>
      <trkpt lat="44.94924" lon="4.60252">
        <ele>730.55798339844</ele>
        <time>2009-08-03T08:36:10Z</time>
      </trkpt>
      <trkpt lat="44.94913" lon="4.60262">
        <ele>731.27197265625</ele>
        <time>2009-08-03T08:36:14Z</time>
      </trkpt>
      <trkpt lat="44.94883" lon="4.60253">
        <ele>733.70001220703</ele>
        <time>2009-08-03T08:36:22Z</time>
      </trkpt>
      <trkpt lat="44.94879" lon="4.60234">
        <ele>734.55798339844</ele>
        <time>2009-08-03T08:36:25Z</time>
      </trkpt>
      <trkpt lat="44.94857" lon="4.60138">
        <ele>737.75598144531</ele>
        <time>2009-08-03T08:36:40Z</time>
      </trkpt>
      <trkpt lat="44.94841" lon="4.60108">
        <ele>739.53900146484</ele>
        <time>2009-08-03T08:36:46Z</time>
      </trkpt>
      <trkpt lat="44.94803" lon="4.60091">
        <ele>741.84997558594</ele>
        <time>2009-08-03T08:36:55Z</time>
      </trkpt>
      <trkpt lat="44.94742" lon="4.60129">
        <ele>745.23400878906</ele>
        <time>2009-08-03T08:37:10Z</time>
      </trkpt>
      <trkpt lat="44.94721" lon="4.60151">
        <ele>746.53802490234</ele>
        <time>2009-08-03T08:37:16Z</time>
      </trkpt>
      <trkpt lat="44.9469" lon="4.60152">
        <ele>748.85198974609</ele>
        <time>2009-08-03T08:37:24Z</time>
      </trkpt>
      <trkpt lat="44.94639" lon="4.60098">
        <ele>752.31201171875</ele>
        <time>2009-08-03T08:37:39Z</time>
      </trkpt>
      <trkpt lat="44.94577" lon="4.60066">
        <ele>754.2919921875</ele>
        <time>2009-08-03T08:37:54Z</time>
      </trkpt>
      <trkpt lat="44.94555" lon="4.60055">
        <ele>755.09002685547</ele>
        <time>2009-08-03T08:38:00Z</time>
      </trkpt>
      <trkpt lat="44.94551" lon="4.60049">
        <ele>755.08898925781</ele>
        <time>2009-08-03T08:38:03Z</time>
      </trkpt>
      <trkpt lat="44.94551" lon="4.60048">
        <ele>754.99200439453</ele>
        <time>2009-08-03T08:38:10Z</time>
      </trkpt>
      <trkpt lat="44.94554" lon="4.60054">
        <ele>754.77502441406</ele>
        <time>2009-08-03T08:39:44Z</time>
      </trkpt>
      <trkpt lat="44.94554" lon="4.60054">
        <ele>754.77697753906</ele>
        <time>2009-08-03T08:39:45Z</time>
      </trkpt>
      <trkpt lat="44.94551" lon="4.60054">
        <ele>755.10498046875</ele>
        <time>2009-08-03T08:39:49Z</time>
      </trkpt>
      <trkpt lat="44.94532" lon="4.60051">
        <ele>754.61798095703</ele>
        <time>2009-08-03T08:39:57Z</time>
      </trkpt>
      <trkpt lat="44.94524" lon="4.60051">
        <ele>754.59197998047</ele>
        <time>2009-08-03T08:39:59Z</time>
      </trkpt>
      <trkpt lat="44.94511" lon="4.60055">
        <ele>754.57598876953</ele>
        <time>2009-08-03T08:40:02Z</time>
      </trkpt>
      <trkpt lat="44.94497" lon="4.60058">
        <ele>754.59399414062</ele>
        <time>2009-08-03T08:40:05Z</time>
      </trkpt>
      <trkpt lat="44.94471" lon="4.60049">
        <ele>753.26898193359</ele>
        <time>2009-08-03T08:40:11Z</time>
      </trkpt>
      <trkpt lat="44.94438" lon="4.60031">
        <ele>752.30200195312</ele>
        <time>2009-08-03T08:40:18Z</time>
      </trkpt>
      <trkpt lat="44.94416" lon="4.60021">
        <ele>752.20001220703</ele>
        <time>2009-08-03T08:40:22Z</time>
      </trkpt>
      <trkpt lat="44.94372" lon="4.60013">
        <ele>752.21502685547</ele>
        <time>2009-08-03T08:40:30Z</time>
      </trkpt>
      <trkpt lat="44.94353" lon="4.60012">
        <ele>750.28802490234</ele>
        <time>2009-08-03T08:40:33Z</time>
      </trkpt>
      <trkpt lat="44.9434" lon="4.60011">
        <ele>749.76098632812</ele>
        <time>2009-08-03T08:40:35Z</time>
      </trkpt>
      <trkpt lat="44.94298" lon="4.6">
        <ele>748.72198486328</ele>
        <time>2009-08-03T08:40:42Z</time>
      </trkpt>
      <trkpt lat="44.94286" lon="4.59994">
        <ele>748.43798828125</ele>
        <time>2009-08-03T08:40:44Z</time>
      </trkpt>
      <trkpt lat="44.94275" lon="4.59986">
        <ele>747.98999023438</ele>
        <time>2009-08-03T08:40:46Z</time>
      </trkpt>
      <trkpt lat="44.94254" lon="4.59958">
        <ele>747.37298583984</ele>
        <time>2009-08-03T08:40:50Z</time>
      </trkpt>
      <trkpt lat="44.94242" lon="4.59925">
        <ele>746.88500976562</ele>
        <time>2009-08-03T08:40:54Z</time>
      </trkpt>
      <trkpt lat="44.94217" lon="4.5988">
        <ele>745.97198486328</ele>
        <time>2009-08-03T08:40:59Z</time>
      </trkpt>
      <trkpt lat="44.94187" lon="4.59862">
        <ele>744.82800292969</ele>
        <time>2009-08-03T08:41:05Z</time>
      </trkpt>
      <trkpt lat="44.9418" lon="4.59862">
        <ele>744.59301757812</ele>
        <time>2009-08-03T08:41:06Z</time>
      </trkpt>
      <trkpt lat="44.94168" lon="4.59862">
        <ele>744.25799560547</ele>
        <time>2009-08-03T08:41:08Z</time>
      </trkpt>
      <trkpt lat="44.94162" lon="4.59862">
        <ele>743.86102294922</ele>
        <time>2009-08-03T08:41:09Z</time>
      </trkpt>
      <trkpt lat="44.94122" lon="4.59857">
        <ele>743.27099609375</ele>
        <time>2009-08-03T08:41:15Z</time>
      </trkpt>
      <trkpt lat="44.94114" lon="4.5985">
        <ele>742.82202148438</ele>
        <time>2009-08-03T08:41:17Z</time>
      </trkpt>
      <trkpt lat="44.94114" lon="4.59829">
        <ele>742.62799072266</ele>
        <time>2009-08-03T08:41:19Z</time>
      </trkpt>
      <trkpt lat="44.94117" lon="4.59809">
        <ele>742.19500732422</ele>
        <time>2009-08-03T08:41:21Z</time>
      </trkpt>
      <trkpt lat="44.94128" lon="4.59783">
        <ele>741.75897216797</ele>
        <time>2009-08-03T08:41:24Z</time>
      </trkpt>
      <trkpt lat="44.9414" lon="4.59761">
        <ele>741.67199707031</ele>
        <time>2009-08-03T08:41:27Z</time>
      </trkpt>
      <trkpt lat="44.94145" lon="4.59753">
        <ele>741.90502929688</ele>
        <time>2009-08-03T08:41:28Z</time>
      </trkpt>
      <trkpt lat="44.94171" lon="4.59713">
        <ele>741.04901123047</ele>
        <time>2009-08-03T08:41:33Z</time>
      </trkpt>
      <trkpt lat="44.94185" lon="4.59668">
        <ele>740.56201171875</ele>
        <time>2009-08-03T08:41:37Z</time>
      </trkpt>
      <trkpt lat="44.94203" lon="4.59629">
        <ele>739.15899658203</ele>
        <time>2009-08-03T08:41:41Z</time>
      </trkpt>
      <trkpt lat="44.94229" lon="4.59575">
        <ele>738.33898925781</ele>
        <time>2009-08-03T08:41:47Z</time>
      </trkpt>
      <trkpt lat="44.9422" lon="4.59483">
        <ele>736.85699462891</ele>
        <time>2009-08-03T08:41:56Z</time>
      </trkpt>
      <trkpt lat="44.94212" lon="4.59465">
        <ele>736.3330078125</ele>
        <time>2009-08-03T08:41:58Z</time>
      </trkpt>
      <trkpt lat="44.94186" lon="4.59454">
        <ele>735.25201416016</ele>
        <time>2009-08-03T08:42:02Z</time>
      </trkpt>
      <trkpt lat="44.9418" lon="4.59455">
        <ele>734.91497802734</ele>
        <time>2009-08-03T08:42:03Z</time>
      </trkpt>
      <trkpt lat="44.94154" lon="4.59472">
        <ele>734.90399169922</ele>
        <time>2009-08-03T08:42:07Z</time>
      </trkpt>
      <trkpt lat="44.94139" lon="4.59495">
        <ele>734.38500976562</ele>
        <time>2009-08-03T08:42:10Z</time>
      </trkpt>
      <trkpt lat="44.94099" lon="4.59513">
        <ele>733.61798095703</ele>
        <time>2009-08-03T08:42:16Z</time>
      </trkpt>
      <trkpt lat="44.94062" lon="4.59523">
        <ele>732.84600830078</ele>
        <time>2009-08-03T08:42:21Z</time>
      </trkpt>
      <trkpt lat="44.94046" lon="4.59527">
        <ele>732.32598876953</ele>
        <time>2009-08-03T08:42:23Z</time>
      </trkpt>
      <trkpt lat="44.94013" lon="4.5954">
        <ele>731.97802734375</ele>
        <time>2009-08-03T08:42:28Z</time>
      </trkpt>
      <trkpt lat="44.93994" lon="4.59536">
        <ele>731.06701660156</ele>
        <time>2009-08-03T08:42:31Z</time>
      </trkpt>
      <trkpt lat="44.93981" lon="4.59527">
        <ele>731.04602050781</ele>
        <time>2009-08-03T08:42:33Z</time>
      </trkpt>
      <trkpt lat="44.93967" lon="4.59513">
        <ele>730.49700927734</ele>
        <time>2009-08-03T08:42:35Z</time>
      </trkpt>
      <trkpt lat="44.93945" lon="4.59499">
        <ele>729.80700683594</ele>
        <time>2009-08-03T08:42:38Z</time>
      </trkpt>
      <trkpt lat="44.93939" lon="4.59512">
        <ele>729.8759765625</ele>
        <time>2009-08-03T08:42:41Z</time>
      </trkpt>
      <trkpt lat="44.93938" lon="4.59517">
        <ele>729.75</ele>
        <time>2009-08-03T08:42:42Z</time>
      </trkpt>
      <trkpt lat="44.93934" lon="4.59573">
        <ele>728.63201904297</ele>
        <time>2009-08-03T08:42:47Z</time>
      </trkpt>
      <trkpt lat="44.9388" lon="4.59622">
        <ele>727.60797119141</ele>
        <time>2009-08-03T08:42:56Z</time>
      </trkpt>
      <trkpt lat="44.93873" lon="4.59616">
        <ele>727.28100585938</ele>
        <time>2009-08-03T08:42:57Z</time>
      </trkpt>
      <trkpt lat="44.93843" lon="4.59574">
        <ele>726.15197753906</ele>
        <time>2009-08-03T08:43:02Z</time>
      </trkpt>
      <trkpt lat="44.93816" lon="4.59531">
        <ele>726.21997070312</ele>
        <time>2009-08-03T08:43:08Z</time>
      </trkpt>
      <trkpt lat="44.93777" lon="4.5942">
        <ele>724.02801513672</ele>
        <time>2009-08-03T08:43:20Z</time>
      </trkpt>
      <trkpt lat="44.93752" lon="4.59403">
        <ele>723.78198242188</ele>
        <time>2009-08-03T08:43:24Z</time>
      </trkpt>
      <trkpt lat="44.93731" lon="4.59392">
        <ele>724.48101806641</ele>
        <time>2009-08-03T08:43:28Z</time>
      </trkpt>
      <trkpt lat="44.93722" lon="4.59383">
        <ele>724.63500976562</ele>
        <time>2009-08-03T08:43:30Z</time>
      </trkpt>
      <trkpt lat="44.93708" lon="4.59372">
        <ele>725.14300537109</ele>
        <time>2009-08-03T08:43:33Z</time>
      </trkpt>
      <trkpt lat="44.93695" lon="4.5936">
        <ele>725.64599609375</ele>
        <time>2009-08-03T08:43:36Z</time>
      </trkpt>
      <trkpt lat="44.93684" lon="4.59343">
        <ele>725.70098876953</ele>
        <time>2009-08-03T08:43:39Z</time>
      </trkpt>
      <trkpt lat="44.9367" lon="4.59315">
        <ele>725.30700683594</ele>
        <time>2009-08-03T08:43:43Z</time>
      </trkpt>
      <trkpt lat="44.93643" lon="4.59277">
        <ele>725.26202392578</ele>
        <time>2009-08-03T08:43:49Z</time>
      </trkpt>
      <trkpt lat="44.93615" lon="4.59289">
        <ele>724.19201660156</ele>
        <time>2009-08-03T08:43:55Z</time>
      </trkpt>
      <trkpt lat="44.93604" lon="4.59358">
        <ele>724.15502929688</ele>
        <time>2009-08-03T08:44:03Z</time>
      </trkpt>
      <trkpt lat="44.93603" lon="4.59371">
        <ele>724.27899169922</ele>
        <time>2009-08-03T08:44:05Z</time>
      </trkpt>
      <trkpt lat="44.93602" lon="4.59384">
        <ele>723.81402587891</ele>
        <time>2009-08-03T08:44:07Z</time>
      </trkpt>
      <trkpt lat="44.93602" lon="4.59396">
        <ele>723.74102783203</ele>
        <time>2009-08-03T08:44:09Z</time>
      </trkpt>
      <trkpt lat="44.936" lon="4.59441">
        <ele>724.28698730469</ele>
        <time>2009-08-03T08:44:16Z</time>
      </trkpt>
      <trkpt lat="44.93604" lon="4.59471">
        <ele>724.29400634766</ele>
        <time>2009-08-03T08:44:21Z</time>
      </trkpt>
      <trkpt lat="44.93605" lon="4.59481">
        <ele>724.28399658203</ele>
        <time>2009-08-03T08:44:23Z</time>
      </trkpt>
      <trkpt lat="44.93594" lon="4.59546">
        <ele>724.04400634766</ele>
        <time>2009-08-03T08:44:33Z</time>
      </trkpt>
      <trkpt lat="44.93559" lon="4.59621">
        <ele>725.01898193359</ele>
        <time>2009-08-03T08:44:44Z</time>
      </trkpt>
      <trkpt lat="44.93538" lon="4.59643">
        <ele>725.23101806641</ele>
        <time>2009-08-03T08:44:48Z</time>
      </trkpt>
      <trkpt lat="44.93513" lon="4.59651">
        <ele>725.01000976562</ele>
        <time>2009-08-03T08:44:52Z</time>
      </trkpt>
      <trkpt lat="44.93475" lon="4.59646">
        <ele>722.28399658203</ele>
        <time>2009-08-03T08:44:57Z</time>
      </trkpt>
      <trkpt lat="44.93409" lon="4.59637">
        <ele>716.88397216797</ele>
        <time>2009-08-03T08:45:04Z</time>
      </trkpt>
      <trkpt lat="44.93373" lon="4.59655">
        <ele>714.48498535156</ele>
        <time>2009-08-03T08:45:08Z</time>
      </trkpt>
      <trkpt lat="44.93353" lon="4.59672">
        <ele>713.10400390625</ele>
        <time>2009-08-03T08:45:11Z</time>
      </trkpt>
      <trkpt lat="44.9333" lon="4.59681">
        <ele>712.09002685547</ele>
        <time>2009-08-03T08:45:15Z</time>
      </trkpt>
      <trkpt lat="44.93316" lon="4.59679">
        <ele>710.75402832031</ele>
        <time>2009-08-03T08:45:18Z</time>
      </trkpt>
      <trkpt lat="44.93308" lon="4.59669">
        <ele>710.04400634766</ele>
        <time>2009-08-03T08:45:20Z</time>
      </trkpt>
      <trkpt lat="44.9328" lon="4.59661">
        <ele>706.67700195312</ele>
        <time>2009-08-03T08:45:25Z</time>
      </trkpt>
      <trkpt lat="44.93266" lon="4.59676">
        <ele>704.12902832031</ele>
        <time>2009-08-03T08:45:27Z</time>
      </trkpt>
      <trkpt lat="44.93188" lon="4.5971">
        <ele>698.02801513672</ele>
        <time>2009-08-03T08:45:36Z</time>
      </trkpt>
      <trkpt lat="44.93181" lon="4.5971">
        <ele>697.083984375</ele>
        <time>2009-08-03T08:45:37Z</time>
      </trkpt>
      <trkpt lat="44.9315" lon="4.59699">
        <ele>691.36798095703</ele>
        <time>2009-08-03T08:45:41Z</time>
      </trkpt>
      <trkpt lat="44.93124" lon="4.59676">
        <ele>687.74798583984</ele>
        <time>2009-08-03T08:45:45Z</time>
      </trkpt>
      <trkpt lat="44.93102" lon="4.59649">
        <ele>685.13598632812</ele>
        <time>2009-08-03T08:45:54Z</time>
      </trkpt>
      <trkpt lat="44.931" lon="4.5964">
        <ele>684.79302978516</ele>
        <time>2009-08-03T08:45:56Z</time>
      </trkpt>
      <trkpt lat="44.93099" lon="4.5963">
        <ele>684.68499755859</ele>
        <time>2009-08-03T08:45:58Z</time>
      </trkpt>
      <trkpt lat="44.931" lon="4.59596">
        <ele>683.66302490234</ele>
        <time>2009-08-03T08:46:03Z</time>
      </trkpt>
      <trkpt lat="44.931" lon="4.5959">
        <ele>683.35198974609</ele>
        <time>2009-08-03T08:46:04Z</time>
      </trkpt>
      <trkpt lat="44.93102" lon="4.59575">
        <ele>682.94000244141</ele>
        <time>2009-08-03T08:46:06Z</time>
      </trkpt>
      <trkpt lat="44.93103" lon="4.59561">
        <ele>682.666015625</ele>
        <time>2009-08-03T08:46:08Z</time>
      </trkpt>
      <trkpt lat="44.93103" lon="4.59544">
        <ele>682.80999755859</ele>
        <time>2009-08-03T08:46:10Z</time>
      </trkpt>
      <trkpt lat="44.93106" lon="4.59509">
        <ele>682.36499023438</ele>
        <time>2009-08-03T08:46:14Z</time>
      </trkpt>
      <trkpt lat="44.93108" lon="4.595">
        <ele>682.67700195312</ele>
        <time>2009-08-03T08:46:15Z</time>
      </trkpt>
      <trkpt lat="44.9311" lon="4.59492">
        <ele>682.85198974609</ele>
        <time>2009-08-03T08:46:16Z</time>
      </trkpt>
      <trkpt lat="44.93116" lon="4.59468">
        <ele>683.22698974609</ele>
        <time>2009-08-03T08:46:19Z</time>
      </trkpt>
      <trkpt lat="44.93104" lon="4.59434">
        <ele>683.79797363281</ele>
        <time>2009-08-03T08:46:25Z</time>
      </trkpt>
      <trkpt lat="44.93085" lon="4.59429">
        <ele>684.60101318359</ele>
        <time>2009-08-03T08:46:29Z</time>
      </trkpt>
      <trkpt lat="44.9307" lon="4.59431">
        <ele>685.48699951172</ele>
        <time>2009-08-03T08:46:32Z</time>
      </trkpt>
      <trkpt lat="44.93047" lon="4.59447">
        <ele>687.78100585938</ele>
        <time>2009-08-03T08:46:38Z</time>
      </trkpt>
      <trkpt lat="44.93034" lon="4.59465">
        <ele>688.10498046875</ele>
        <time>2009-08-03T08:46:43Z</time>
      </trkpt>
      <trkpt lat="44.93024" lon="4.59494">
        <ele>686.41497802734</ele>
        <time>2009-08-03T08:46:49Z</time>
      </trkpt>
      <trkpt lat="44.93022" lon="4.5951">
        <ele>686.33197021484</ele>
        <time>2009-08-03T08:46:51Z</time>
      </trkpt>
      <trkpt lat="44.93022" lon="4.59519">
        <ele>685.96801757812</ele>
        <time>2009-08-03T08:46:52Z</time>
      </trkpt>
      <trkpt lat="44.93021" lon="4.59527">
        <ele>685.96002197266</ele>
        <time>2009-08-03T08:46:53Z</time>
      </trkpt>
      <trkpt lat="44.9302" lon="4.59536">
        <ele>685.95098876953</ele>
        <time>2009-08-03T08:46:54Z</time>
      </trkpt>
      <trkpt lat="44.93016" lon="4.59555">
        <ele>685.64801025391</ele>
        <time>2009-08-03T08:46:56Z</time>
      </trkpt>
      <trkpt lat="44.92987" lon="4.59623">
        <ele>683.53601074219</ele>
        <time>2009-08-03T08:47:04Z</time>
      </trkpt>
      <trkpt lat="44.92982" lon="4.59642">
        <ele>682.75598144531</ele>
        <time>2009-08-03T08:47:06Z</time>
      </trkpt>
      <trkpt lat="44.92978" lon="4.59666">
        <ele>682.17901611328</ele>
        <time>2009-08-03T08:47:08Z</time>
      </trkpt>
      <trkpt lat="44.92976" lon="4.59678">
        <ele>681.86602783203</ele>
        <time>2009-08-03T08:47:09Z</time>
      </trkpt>
      <trkpt lat="44.92942" lon="4.59706">
        <ele>680.01898193359</ele>
        <time>2009-08-03T08:47:15Z</time>
      </trkpt>
      <trkpt lat="44.9292" lon="4.59735">
        <ele>679.18499755859</ele>
        <time>2009-08-03T08:47:21Z</time>
      </trkpt>
      <trkpt lat="44.92902" lon="4.5978">
        <ele>677.23199462891</ele>
        <time>2009-08-03T08:47:28Z</time>
      </trkpt>
      <trkpt lat="44.92851" lon="4.59789">
        <ele>675.16802978516</ele>
        <time>2009-08-03T08:47:36Z</time>
      </trkpt>
      <trkpt lat="44.92845" lon="4.59806">
        <ele>674.60498046875</ele>
        <time>2009-08-03T08:47:38Z</time>
      </trkpt>
      <trkpt lat="44.92818" lon="4.59836">
        <ele>673.15802001953</ele>
        <time>2009-08-03T08:47:43Z</time>
      </trkpt>
      <trkpt lat="44.92811" lon="4.5984">
        <ele>673.14801025391</ele>
        <time>2009-08-03T08:47:44Z</time>
      </trkpt>
      <trkpt lat="44.92784" lon="4.59878">
        <ele>670.48101806641</ele>
        <time>2009-08-03T08:47:49Z</time>
      </trkpt>
      <trkpt lat="44.92781" lon="4.59918">
        <ele>668.70599365234</ele>
        <time>2009-08-03T08:47:53Z</time>
      </trkpt>
      <trkpt lat="44.92782" lon="4.59939">
        <ele>668.70001220703</ele>
        <time>2009-08-03T08:47:55Z</time>
      </trkpt>
      <trkpt lat="44.92781" lon="4.59959">
        <ele>668.90600585938</ele>
        <time>2009-08-03T08:47:57Z</time>
      </trkpt>
      <trkpt lat="44.92755" lon="4.60009">
        <ele>667.38098144531</ele>
        <time>2009-08-03T08:48:03Z</time>
      </trkpt>
      <trkpt lat="44.92707" lon="4.60033">
        <ele>667.06500244141</ele>
        <time>2009-08-03T08:48:13Z</time>
      </trkpt>
      <trkpt lat="44.92677" lon="4.6004">
        <ele>666.36199951172</ele>
        <time>2009-08-03T08:48:20Z</time>
      </trkpt>
      <trkpt lat="44.92659" lon="4.60041">
        <ele>666.36199951172</ele>
        <time>2009-08-03T08:48:24Z</time>
      </trkpt>
      <trkpt lat="44.92585" lon="4.60028">
        <ele>663.09698486328</ele>
        <time>2009-08-03T08:48:36Z</time>
      </trkpt>
      <trkpt lat="44.92526" lon="4.59996">
        <ele>662.34497070312</ele>
        <time>2009-08-03T08:48:44Z</time>
      </trkpt>
      <trkpt lat="44.92512" lon="4.59989">
        <ele>663.23602294922</ele>
        <time>2009-08-03T08:48:47Z</time>
      </trkpt>
      <trkpt lat="44.92508" lon="4.5999">
        <ele>663.05499267578</ele>
        <time>2009-08-03T08:48:48Z</time>
      </trkpt>
      <trkpt lat="44.92496" lon="4.59987">
        <ele>662.38201904297</ele>
        <time>2009-08-03T08:48:51Z</time>
      </trkpt>
      <trkpt lat="44.92476" lon="4.59976">
        <ele>661.08801269531</ele>
        <time>2009-08-03T08:48:55Z</time>
      </trkpt>
      <trkpt lat="44.92463" lon="4.59922">
        <ele>659.00701904297</ele>
        <time>2009-08-03T08:49:02Z</time>
      </trkpt>
      <trkpt lat="44.92469" lon="4.59902">
        <ele>658.59301757812</ele>
        <time>2009-08-03T08:49:07Z</time>
      </trkpt>
      <trkpt lat="44.92469" lon="4.59901">
        <ele>658.84497070312</ele>
        <time>2009-08-03T08:49:09Z</time>
      </trkpt>
      <trkpt lat="44.92477" lon="4.59876">
        <ele>657.16198730469</ele>
        <time>2009-08-03T08:49:38Z</time>
      </trkpt>
      <trkpt lat="44.92493" lon="4.5984">
        <ele>655.52502441406</ele>
        <time>2009-08-03T08:49:44Z</time>
      </trkpt>
      <trkpt lat="44.92497" lon="4.59833">
        <ele>655.30902099609</ele>
        <time>2009-08-03T08:49:45Z</time>
      </trkpt>
      <trkpt lat="44.92503" lon="4.59764">
        <ele>652.21197509766</ele>
        <time>2009-08-03T08:49:52Z</time>
      </trkpt>
      <trkpt lat="44.92495" lon="4.59731">
        <ele>650.61499023438</ele>
        <time>2009-08-03T08:49:55Z</time>
      </trkpt>
      <trkpt lat="44.92483" lon="4.597">
        <ele>649.71002197266</ele>
        <time>2009-08-03T08:49:58Z</time>
      </trkpt>
      <trkpt lat="44.92479" lon="4.59643">
        <ele>648.79901123047</ele>
        <time>2009-08-03T08:50:03Z</time>
      </trkpt>
      <trkpt lat="44.925" lon="4.59572">
        <ele>647.67102050781</ele>
        <time>2009-08-03T08:50:11Z</time>
      </trkpt>
      <trkpt lat="44.92483" lon="4.59576">
        <ele>648.27099609375</ele>
        <time>2009-08-03T08:50:14Z</time>
      </trkpt>
      <trkpt lat="44.9246" lon="4.59599">
        <ele>648.61700439453</ele>
        <time>2009-08-03T08:50:19Z</time>
      </trkpt>
      <trkpt lat="44.92446" lon="4.59624">
        <ele>648.48901367188</ele>
        <time>2009-08-03T08:50:23Z</time>
      </trkpt>
      <trkpt lat="44.92424" lon="4.59669">
        <ele>648.25701904297</ele>
        <time>2009-08-03T08:50:29Z</time>
      </trkpt>
      <trkpt lat="44.92398" lon="4.59753">
        <ele>648.75598144531</ele>
        <time>2009-08-03T08:50:39Z</time>
      </trkpt>
      <trkpt lat="44.92374" lon="4.59783">
        <ele>648.25701904297</ele>
        <time>2009-08-03T08:50:44Z</time>
      </trkpt>
      <trkpt lat="44.92337" lon="4.59806">
        <ele>647.71697998047</ele>
        <time>2009-08-03T08:50:50Z</time>
      </trkpt>
      <trkpt lat="44.92292" lon="4.59868">
        <ele>648.47198486328</ele>
        <time>2009-08-03T08:51:00Z</time>
      </trkpt>
      <trkpt lat="44.92272" lon="4.59892">
        <ele>648.2919921875</ele>
        <time>2009-08-03T08:51:04Z</time>
      </trkpt>
      <trkpt lat="44.92258" lon="4.59911">
        <ele>647.69097900391</ele>
        <time>2009-08-03T08:51:07Z</time>
      </trkpt>
      <trkpt lat="44.9225" lon="4.59927">
        <ele>647.87701416016</ele>
        <time>2009-08-03T08:51:09Z</time>
      </trkpt>
      <trkpt lat="44.92228" lon="4.60004">
        <ele>648.16198730469</ele>
        <time>2009-08-03T08:51:18Z</time>
      </trkpt>
      <trkpt lat="44.92214" lon="4.60026">
        <ele>648.31402587891</ele>
        <time>2009-08-03T08:51:21Z</time>
      </trkpt>
      <trkpt lat="44.92193" lon="4.60048">
        <ele>648.70397949219</ele>
        <time>2009-08-03T08:51:25Z</time>
      </trkpt>
      <trkpt lat="44.92151" lon="4.60085">
        <ele>648.41101074219</ele>
        <time>2009-08-03T08:51:32Z</time>
      </trkpt>
      <trkpt lat="44.92116" lon="4.60119">
        <ele>648.76599121094</ele>
        <time>2009-08-03T08:51:38Z</time>
      </trkpt>
      <trkpt lat="44.9208" lon="4.60128">
        <ele>648.38598632812</ele>
        <time>2009-08-03T08:51:43Z</time>
      </trkpt>
      <trkpt lat="44.92065" lon="4.60127">
        <ele>647.69000244141</ele>
        <time>2009-08-03T08:51:45Z</time>
      </trkpt>
      <trkpt lat="44.92022" lon="4.60134">
        <ele>647.31402587891</ele>
        <time>2009-08-03T08:51:51Z</time>
      </trkpt>
      <trkpt lat="44.91982" lon="4.60113">
        <ele>646.61999511719</ele>
        <time>2009-08-03T08:51:57Z</time>
      </trkpt>
      <trkpt lat="44.91952" lon="4.60064">
        <ele>642.94500732422</ele>
        <time>2009-08-03T08:52:03Z</time>
      </trkpt>
      <trkpt lat="44.91934" lon="4.60034">
        <ele>640.041015625</ele>
        <time>2009-08-03T08:52:06Z</time>
      </trkpt>
      <trkpt lat="44.91922" lon="4.60011">
        <ele>638.1259765625</ele>
        <time>2009-08-03T08:52:08Z</time>
      </trkpt>
      <trkpt lat="44.91908" lon="4.59995">
        <ele>637.44097900391</ele>
        <time>2009-08-03T08:52:10Z</time>
      </trkpt>
      <trkpt lat="44.91872" lon="4.60009">
        <ele>638.38800048828</ele>
        <time>2009-08-03T08:52:14Z</time>
      </trkpt>
      <trkpt lat="44.91788" lon="4.60065">
        <ele>638.76202392578</ele>
        <time>2009-08-03T08:52:27Z</time>
      </trkpt>
      <trkpt lat="44.91721" lon="4.6009">
        <ele>637.41998291016</ele>
        <time>2009-08-03T08:52:37Z</time>
      </trkpt>
      <trkpt lat="44.91713" lon="4.6009">
        <ele>637.52600097656</ele>
        <time>2009-08-03T08:52:38Z</time>
      </trkpt>
      <trkpt lat="44.91631" lon="4.60048">
        <ele>631.92901611328</ele>
        <time>2009-08-03T08:52:49Z</time>
      </trkpt>
      <trkpt lat="44.91564" lon="4.60017">
        <ele>628.41400146484</ele>
        <time>2009-08-03T08:52:56Z</time>
      </trkpt>
      <trkpt lat="44.91531" lon="4.60009">
        <ele>627.17999267578</ele>
        <time>2009-08-03T08:53:00Z</time>
      </trkpt>
      <trkpt lat="44.91489" lon="4.60008">
        <ele>625.9990234375</ele>
        <time>2009-08-03T08:53:06Z</time>
      </trkpt>
      <trkpt lat="44.91482" lon="4.60006">
        <ele>626.55603027344</ele>
        <time>2009-08-03T08:53:08Z</time>
      </trkpt>
      <trkpt lat="44.9148" lon="4.60006">
        <ele>626.86102294922</ele>
        <time>2009-08-03T08:53:09Z</time>
      </trkpt>
      <trkpt lat="44.91479" lon="4.60006">
        <ele>626.92498779297</ele>
        <time>2009-08-03T08:53:11Z</time>
      </trkpt>
      <trkpt lat="44.91482" lon="4.60004">
        <ele>626.58197021484</ele>
        <time>2009-08-03T08:54:17Z</time>
      </trkpt>
      <trkpt lat="44.91481" lon="4.60003">
        <ele>626.833984375</ele>
        <time>2009-08-03T08:54:18Z</time>
      </trkpt>
      <trkpt lat="44.91483" lon="4.59993">
        <ele>627.26898193359</ele>
        <time>2009-08-03T08:54:23Z</time>
      </trkpt>
      <trkpt lat="44.91486" lon="4.59983">
        <ele>628.32598876953</ele>
        <time>2009-08-03T08:54:27Z</time>
      </trkpt>
      <trkpt lat="44.91489" lon="4.59969">
        <ele>629.19097900391</ele>
        <time>2009-08-03T08:54:32Z</time>
      </trkpt>
      <trkpt lat="44.91496" lon="4.59931">
        <ele>631.35797119141</ele>
        <time>2009-08-03T08:54:42Z</time>
      </trkpt>
      <trkpt lat="44.91507" lon="4.59896">
        <ele>633.41900634766</ele>
        <time>2009-08-03T08:54:50Z</time>
      </trkpt>
      <trkpt lat="44.91515" lon="4.59867">
        <ele>635.34497070312</ele>
        <time>2009-08-03T08:54:57Z</time>
      </trkpt>
      <trkpt lat="44.91525" lon="4.59834">
        <ele>637.73901367188</ele>
        <time>2009-08-03T08:55:05Z</time>
      </trkpt>
      <trkpt lat="44.91536" lon="4.59798">
        <ele>640.45098876953</ele>
        <time>2009-08-03T08:55:14Z</time>
      </trkpt>
      <trkpt lat="44.91545" lon="4.59762">
        <ele>643.28198242188</ele>
        <time>2009-08-03T08:55:23Z</time>
      </trkpt>
      <trkpt lat="44.91561" lon="4.59705">
        <ele>647.76397705078</ele>
        <time>2009-08-03T08:55:39Z</time>
      </trkpt>
      <trkpt lat="44.91599" lon="4.59678">
        <ele>651.89099121094</ele>
        <time>2009-08-03T08:55:54Z</time>
      </trkpt>
      <trkpt lat="44.91652" lon="4.59639">
        <ele>657.00500488281</ele>
        <time>2009-08-03T08:56:13Z</time>
      </trkpt>
      <trkpt lat="44.91687" lon="4.59596">
        <ele>661.81500244141</ele>
        <time>2009-08-03T08:56:30Z</time>
      </trkpt>
      <trkpt lat="44.91706" lon="4.59552">
        <ele>666.94097900391</ele>
        <time>2009-08-03T08:56:45Z</time>
      </trkpt>
      <trkpt lat="44.91726" lon="4.59495">
        <ele>671.51800537109</ele>
        <time>2009-08-03T08:57:03Z</time>
      </trkpt>
      <trkpt lat="44.91741" lon="4.59449">
        <ele>674.63500976562</ele>
        <time>2009-08-03T08:57:17Z</time>
      </trkpt>
      <trkpt lat="44.91755" lon="4.59416">
        <ele>678.05603027344</ele>
        <time>2009-08-03T08:57:24Z</time>
      </trkpt>
      <trkpt lat="44.918" lon="4.59343">
        <ele>682.94000244141</ele>
        <time>2009-08-03T08:57:42Z</time>
      </trkpt>
      <trkpt lat="44.91802" lon="4.59339">
        <ele>683.23901367188</ele>
        <time>2009-08-03T08:57:43Z</time>
      </trkpt>
      <trkpt lat="44.91837" lon="4.59264">
        <ele>685.64099121094</ele>
        <time>2009-08-03T08:57:58Z</time>
      </trkpt>
      <trkpt lat="44.91862" lon="4.59218">
        <ele>690.86798095703</ele>
        <time>2009-08-03T08:58:11Z</time>
      </trkpt>
      <trkpt lat="44.91898" lon="4.59184">
        <ele>694.36499023438</ele>
        <time>2009-08-03T08:58:26Z</time>
      </trkpt>
      <trkpt lat="44.91924" lon="4.59176">
        <ele>697.44396972656</ele>
        <time>2009-08-03T08:58:37Z</time>
      </trkpt>
      <trkpt lat="44.91969" lon="4.59194">
        <ele>702.32000732422</ele>
        <time>2009-08-03T08:58:52Z</time>
      </trkpt>
      <trkpt lat="44.92017" lon="4.5922">
        <ele>707.81097412109</ele>
        <time>2009-08-03T08:59:12Z</time>
      </trkpt>
      <trkpt lat="44.92066" lon="4.59209">
        <ele>711.32501220703</ele>
        <time>2009-08-03T08:59:28Z</time>
      </trkpt>
      <trkpt lat="44.92126" lon="4.59171">
        <ele>714.47698974609</ele>
        <time>2009-08-03T08:59:47Z</time>
      </trkpt>
      <trkpt lat="44.92193" lon="4.59128">
        <ele>717.18499755859</ele>
        <time>2009-08-03T09:00:03Z</time>
      </trkpt>
      <trkpt lat="44.92266" lon="4.59062">
        <ele>721.41101074219</ele>
        <time>2009-08-03T09:00:23Z</time>
      </trkpt>
      <trkpt lat="44.92334" lon="4.59013">
        <ele>723.21099853516</ele>
        <time>2009-08-03T09:00:39Z</time>
      </trkpt>
      <trkpt lat="44.92408" lon="4.58948">
        <ele>725.86798095703</ele>
        <time>2009-08-03T09:00:57Z</time>
      </trkpt>
      <trkpt lat="44.92431" lon="4.58913">
        <ele>727.00201416016</ele>
        <time>2009-08-03T09:01:03Z</time>
      </trkpt>
      <trkpt lat="44.9245" lon="4.58856">
        <ele>727.37902832031</ele>
        <time>2009-08-03T09:01:11Z</time>
      </trkpt>
      <trkpt lat="44.92464" lon="4.58772">
        <ele>729.02099609375</ele>
        <time>2009-08-03T09:01:22Z</time>
      </trkpt>
      <trkpt lat="44.92498" lon="4.58721">
        <ele>731.90002441406</ele>
        <time>2009-08-03T09:01:32Z</time>
      </trkpt>
      <trkpt lat="44.92548" lon="4.58724">
        <ele>736.16900634766</ele>
        <time>2009-08-03T09:01:46Z</time>
      </trkpt>
      <trkpt lat="44.92581" lon="4.5872">
        <ele>739.80902099609</ele>
        <time>2009-08-03T09:01:55Z</time>
      </trkpt>
      <trkpt lat="44.92588" lon="4.58713">
        <ele>740.30603027344</ele>
        <time>2009-08-03T09:01:57Z</time>
      </trkpt>
      <trkpt lat="44.92602" lon="4.58688">
        <ele>742.02001953125</ele>
        <time>2009-08-03T09:02:03Z</time>
      </trkpt>
      <trkpt lat="44.92605" lon="4.58677">
        <ele>742.14300537109</ele>
        <time>2009-08-03T09:02:05Z</time>
      </trkpt>
      <trkpt lat="44.92624" lon="4.58581">
        <ele>747.68200683594</ele>
        <time>2009-08-03T09:02:23Z</time>
      </trkpt>
      <trkpt lat="44.92644" lon="4.58509">
        <ele>751.99597167969</ele>
        <time>2009-08-03T09:02:38Z</time>
      </trkpt>
      <trkpt lat="44.92648" lon="4.58482">
        <ele>754.24401855469</ele>
        <time>2009-08-03T09:02:44Z</time>
      </trkpt>
      <trkpt lat="44.92652" lon="4.5844">
        <ele>757.73400878906</ele>
        <time>2009-08-03T09:02:54Z</time>
      </trkpt>
      <trkpt lat="44.9266" lon="4.58382">
        <ele>760.75799560547</ele>
        <time>2009-08-03T09:03:07Z</time>
      </trkpt>
      <trkpt lat="44.92685" lon="4.58327">
        <ele>764.64501953125</ele>
        <time>2009-08-03T09:03:21Z</time>
      </trkpt>
      <trkpt lat="44.92702" lon="4.58324">
        <ele>766.16400146484</ele>
        <time>2009-08-03T09:03:26Z</time>
      </trkpt>
      <trkpt lat="44.92742" lon="4.58362">
        <ele>767.59301757812</ele>
        <time>2009-08-03T09:03:36Z</time>
      </trkpt>
      <trkpt lat="44.92757" lon="4.58371">
        <ele>768.13201904297</ele>
        <time>2009-08-03T09:03:39Z</time>
      </trkpt>
      <trkpt lat="44.9278" lon="4.58374">
        <ele>770.03900146484</ele>
        <time>2009-08-03T09:03:44Z</time>
      </trkpt>
      <trkpt lat="44.92852" lon="4.58335">
        <ele>774.39099121094</ele>
        <time>2009-08-03T09:04:04Z</time>
      </trkpt>
      <trkpt lat="44.92883" lon="4.58291">
        <ele>778.96398925781</ele>
        <time>2009-08-03T09:04:18Z</time>
      </trkpt>
      <trkpt lat="44.92906" lon="4.58246">
        <ele>781.67700195312</ele>
        <time>2009-08-03T09:04:30Z</time>
      </trkpt>
      <trkpt lat="44.92943" lon="4.5821">
        <ele>785.48400878906</ele>
        <time>2009-08-03T09:04:44Z</time>
      </trkpt>
      <trkpt lat="44.92978" lon="4.58219">
        <ele>786.79302978516</ele>
        <time>2009-08-03T09:04:54Z</time>
      </trkpt>
      <trkpt lat="44.92996" lon="4.58206">
        <ele>787.79498291016</ele>
        <time>2009-08-03T09:04:59Z</time>
      </trkpt>
      <trkpt lat="44.93036" lon="4.58119">
        <ele>787.03399658203</ele>
        <time>2009-08-03T09:05:13Z</time>
      </trkpt>
      <trkpt lat="44.93037" lon="4.58112">
        <ele>786.71502685547</ele>
        <time>2009-08-03T09:05:14Z</time>
      </trkpt>
      <trkpt lat="44.93044" lon="4.58081">
        <ele>786.18701171875</ele>
        <time>2009-08-03T09:05:18Z</time>
      </trkpt>
      <trkpt lat="44.9306" lon="4.58011">
        <ele>781.90802001953</ele>
        <time>2009-08-03T09:05:25Z</time>
      </trkpt>
      <trkpt lat="44.9308" lon="4.5797">
        <ele>779.90100097656</ele>
        <time>2009-08-03T09:05:29Z</time>
      </trkpt>
      <trkpt lat="44.93103" lon="4.57948">
        <ele>779.1259765625</ele>
        <time>2009-08-03T09:05:32Z</time>
      </trkpt>
      <trkpt lat="44.93121" lon="4.5794">
        <ele>778.71697998047</ele>
        <time>2009-08-03T09:05:34Z</time>
      </trkpt>
      <trkpt lat="44.93159" lon="4.57917">
        <ele>777.57397460938</ele>
        <time>2009-08-03T09:05:39Z</time>
      </trkpt>
      <trkpt lat="44.93193" lon="4.57876">
        <ele>777.18902587891</ele>
        <time>2009-08-03T09:05:45Z</time>
      </trkpt>
      <trkpt lat="44.9323" lon="4.57811">
        <ele>775.40100097656</ele>
        <time>2009-08-03T09:05:54Z</time>
      </trkpt>
      <trkpt lat="44.93249" lon="4.57793">
        <ele>773.39001464844</ele>
        <time>2009-08-03T09:05:57Z</time>
      </trkpt>
      <trkpt lat="44.93287" lon="4.5777">
        <ele>770.17602539062</ele>
        <time>2009-08-03T09:06:02Z</time>
      </trkpt>
      <trkpt lat="44.93324" lon="4.5777">
        <ele>768.05401611328</ele>
        <time>2009-08-03T09:06:06Z</time>
      </trkpt>
      <trkpt lat="44.93385" lon="4.57777">
        <ele>767.79901123047</ele>
        <time>2009-08-03T09:06:12Z</time>
      </trkpt>
      <trkpt lat="44.93401" lon="4.57743">
        <ele>769.21197509766</ele>
        <time>2009-08-03T09:06:16Z</time>
      </trkpt>
      <trkpt lat="44.93402" lon="4.57726">
        <ele>770.36297607422</ele>
        <time>2009-08-03T09:06:18Z</time>
      </trkpt>
      <trkpt lat="44.93403" lon="4.57711">
        <ele>771.43103027344</ele>
        <time>2009-08-03T09:06:20Z</time>
      </trkpt>
      <trkpt lat="44.93409" lon="4.57685">
        <ele>772.37298583984</ele>
        <time>2009-08-03T09:06:24Z</time>
      </trkpt>
      <trkpt lat="44.93428" lon="4.5766">
        <ele>772.55798339844</ele>
        <time>2009-08-03T09:06:29Z</time>
      </trkpt>
      <trkpt lat="44.93443" lon="4.57651">
        <ele>772.93597412109</ele>
        <time>2009-08-03T09:06:32Z</time>
      </trkpt>
      <trkpt lat="44.93461" lon="4.57629">
        <ele>773.03198242188</ele>
        <time>2009-08-03T09:06:36Z</time>
      </trkpt>
      <trkpt lat="44.9348" lon="4.57556">
        <ele>773.52899169922</ele>
        <time>2009-08-03T09:06:45Z</time>
      </trkpt>
      <trkpt lat="44.93521" lon="4.5748">
        <ele>774.30798339844</ele>
        <time>2009-08-03T09:06:55Z</time>
      </trkpt>
      <trkpt lat="44.9354" lon="4.57467">
        <ele>773.81701660156</ele>
        <time>2009-08-03T09:06:58Z</time>
      </trkpt>
      <trkpt lat="44.93602" lon="4.57444">
        <ele>771.96099853516</ele>
        <time>2009-08-03T09:07:06Z</time>
      </trkpt>
      <trkpt lat="44.93676" lon="4.5739">
        <ele>770.38598632812</ele>
        <time>2009-08-03T09:07:15Z</time>
      </trkpt>
      <trkpt lat="44.93701" lon="4.57353">
        <ele>769.67199707031</ele>
        <time>2009-08-03T09:07:19Z</time>
      </trkpt>
      <trkpt lat="44.93714" lon="4.57305">
        <ele>767.97399902344</ele>
        <time>2009-08-03T09:07:23Z</time>
      </trkpt>
      <trkpt lat="44.93724" lon="4.57149">
        <ele>763.64898681641</ele>
        <time>2009-08-03T09:07:35Z</time>
      </trkpt>
      <trkpt lat="44.93726" lon="4.57088">
        <ele>761.21600341797</ele>
        <time>2009-08-03T09:07:39Z</time>
      </trkpt>
      <trkpt lat="44.93761" lon="4.57011">
        <ele>758.05200195312</ele>
        <time>2009-08-03T09:07:45Z</time>
      </trkpt>
      <trkpt lat="44.93773" lon="4.56987">
        <ele>757.28399658203</ele>
        <time>2009-08-03T09:07:47Z</time>
      </trkpt>
      <trkpt lat="44.93784" lon="4.56962">
        <ele>756.99798583984</ele>
        <time>2009-08-03T09:07:49Z</time>
      </trkpt>
      <trkpt lat="44.93798" lon="4.56893">
        <ele>757.77398681641</ele>
        <time>2009-08-03T09:07:54Z</time>
      </trkpt>
      <trkpt lat="44.93805" lon="4.5685">
        <ele>760.85699462891</ele>
        <time>2009-08-03T09:07:58Z</time>
      </trkpt>
      <trkpt lat="44.93809" lon="4.56805">
        <ele>762.00598144531</ele>
        <time>2009-08-03T09:08:03Z</time>
      </trkpt>
      <trkpt lat="44.93815" lon="4.56767">
        <ele>764.89099121094</ele>
        <time>2009-08-03T09:08:08Z</time>
      </trkpt>
      <trkpt lat="44.93817" lon="4.56744">
        <ele>767.09497070312</ele>
        <time>2009-08-03T09:08:12Z</time>
      </trkpt>
      <trkpt lat="44.93824" lon="4.56702">
        <ele>769.13702392578</ele>
        <time>2009-08-03T09:08:20Z</time>
      </trkpt>
      <trkpt lat="44.93824" lon="4.56696">
        <ele>769.00799560547</ele>
        <time>2009-08-03T09:08:21Z</time>
      </trkpt>
      <trkpt lat="44.93827" lon="4.56683">
        <ele>769.23999023438</ele>
        <time>2009-08-03T09:08:23Z</time>
      </trkpt>
      <trkpt lat="44.93836" lon="4.56662">
        <ele>770.62799072266</ele>
        <time>2009-08-03T09:08:27Z</time>
      </trkpt>
      <trkpt lat="44.93854" lon="4.56599">
        <ele>775.56097412109</ele>
        <time>2009-08-03T09:08:40Z</time>
      </trkpt>
      <trkpt lat="44.93852" lon="4.56577">
        <ele>776.12298583984</ele>
        <time>2009-08-03T09:08:44Z</time>
      </trkpt>
      <trkpt lat="44.93841" lon="4.56539">
        <ele>778.06500244141</ele>
        <time>2009-08-03T09:08:51Z</time>
      </trkpt>
      <trkpt lat="44.93813" lon="4.56477">
        <ele>780.83099365234</ele>
        <time>2009-08-03T09:09:04Z</time>
      </trkpt>
      <trkpt lat="44.93798" lon="4.56416">
        <ele>783.43298339844</ele>
        <time>2009-08-03T09:09:15Z</time>
      </trkpt>
      <trkpt lat="44.93796" lon="4.56399">
        <ele>784.08898925781</ele>
        <time>2009-08-03T09:09:18Z</time>
      </trkpt>
      <trkpt lat="44.93795" lon="4.56382">
        <ele>784.98901367188</ele>
        <time>2009-08-03T09:09:21Z</time>
      </trkpt>
      <trkpt lat="44.93795" lon="4.56365">
        <ele>785.93798828125</ele>
        <time>2009-08-03T09:09:24Z</time>
      </trkpt>
      <trkpt lat="44.93794" lon="4.56348">
        <ele>786.90502929688</ele>
        <time>2009-08-03T09:09:27Z</time>
      </trkpt>
      <trkpt lat="44.93792" lon="4.56327">
        <ele>788.10198974609</ele>
        <time>2009-08-03T09:09:31Z</time>
      </trkpt>
      <trkpt lat="44.93785" lon="4.56299">
        <ele>789.25299072266</ele>
        <time>2009-08-03T09:09:36Z</time>
      </trkpt>
      <trkpt lat="44.93772" lon="4.56273">
        <ele>790.55102539062</ele>
        <time>2009-08-03T09:09:41Z</time>
      </trkpt>
      <trkpt lat="44.93756" lon="4.56248">
        <ele>792.29699707031</ele>
        <time>2009-08-03T09:09:46Z</time>
      </trkpt>
      <trkpt lat="44.93725" lon="4.56212">
        <ele>793.69598388672</ele>
        <time>2009-08-03T09:09:55Z</time>
      </trkpt>
      <trkpt lat="44.93654" lon="4.56118">
        <ele>797.18701171875</ele>
        <time>2009-08-03T09:10:14Z</time>
      </trkpt>
      <trkpt lat="44.93604" lon="4.56013">
        <ele>798.99700927734</ele>
        <time>2009-08-03T09:10:30Z</time>
      </trkpt>
      <trkpt lat="44.93568" lon="4.55913">
        <ele>801.87902832031</ele>
        <time>2009-08-03T09:10:45Z</time>
      </trkpt>
      <trkpt lat="44.93523" lon="4.55768">
        <ele>805.21899414062</ele>
        <time>2009-08-03T09:11:05Z</time>
      </trkpt>
      <trkpt lat="44.935" lon="4.55659">
        <ele>809.33502197266</ele>
        <time>2009-08-03T09:11:21Z</time>
      </trkpt>
      <trkpt lat="44.93496" lon="4.5564">
        <ele>810.08801269531</ele>
        <time>2009-08-03T09:11:24Z</time>
      </trkpt>
      <trkpt lat="44.93473" lon="4.55534">
        <ele>813.21301269531</ele>
        <time>2009-08-03T09:11:40Z</time>
      </trkpt>
      <trkpt lat="44.93462" lon="4.55451">
        <ele>817.64202880859</ele>
        <time>2009-08-03T09:11:55Z</time>
      </trkpt>
      <trkpt lat="44.9345" lon="4.55394">
        <ele>821.02697753906</ele>
        <time>2009-08-03T09:12:06Z</time>
      </trkpt>
      <trkpt lat="44.93432" lon="4.55356">
        <ele>823.22302246094</ele>
        <time>2009-08-03T09:12:15Z</time>
      </trkpt>
      <trkpt lat="44.9342" lon="4.55333">
        <ele>825.58599853516</ele>
        <time>2009-08-03T09:12:21Z</time>
      </trkpt>
      <trkpt lat="44.9339" lon="4.55258">
        <ele>829.97399902344</ele>
        <time>2009-08-03T09:12:38Z</time>
      </trkpt>
      <trkpt lat="44.93386" lon="4.55248">
        <ele>830.73699951172</ele>
        <time>2009-08-03T09:12:40Z</time>
      </trkpt>
      <trkpt lat="44.93363" lon="4.55199">
        <ele>832.62200927734</ele>
        <time>2009-08-03T09:12:51Z</time>
      </trkpt>
      <trkpt lat="44.93313" lon="4.5515">
        <ele>836.05603027344</ele>
        <time>2009-08-03T09:13:07Z</time>
      </trkpt>
      <trkpt lat="44.93277" lon="4.55104">
        <ele>835.2509765625</ele>
        <time>2009-08-03T09:13:18Z</time>
      </trkpt>
      <trkpt lat="44.93228" lon="4.55067">
        <ele>835.20599365234</ele>
        <time>2009-08-03T09:13:26Z</time>
      </trkpt>
      <trkpt lat="44.93206" lon="4.55036">
        <ele>824.80700683594</ele>
        <time>2009-08-03T09:13:29Z</time>
      </trkpt>
      <trkpt lat="44.93207" lon="4.55005">
        <ele>822.34002685547</ele>
        <time>2009-08-03T09:13:31Z</time>
      </trkpt>
      <trkpt lat="44.93217" lon="4.54927">
        <ele>817.32000732422</ele>
        <time>2009-08-03T09:13:36Z</time>
      </trkpt>
      <trkpt lat="44.9323" lon="4.5487">
        <ele>815.51599121094</ele>
        <time>2009-08-03T09:13:40Z</time>
      </trkpt>
      <trkpt lat="44.93237" lon="4.54849">
        <ele>815.01202392578</ele>
        <time>2009-08-03T09:13:42Z</time>
      </trkpt>
      <trkpt lat="44.9324" lon="4.54816">
        <ele>812.55999755859</ele>
        <time>2009-08-03T09:13:45Z</time>
      </trkpt>
      <trkpt lat="44.93264" lon="4.54764">
        <ele>808.50201416016</ele>
        <time>2009-08-03T09:13:51Z</time>
      </trkpt>
      <trkpt lat="44.93266" lon="4.54728">
        <ele>805.95001220703</ele>
        <time>2009-08-03T09:13:56Z</time>
      </trkpt>
      <trkpt lat="44.93256" lon="4.54731">
        <ele>804.68103027344</ele>
        <time>2009-08-03T09:13:58Z</time>
      </trkpt>
      <trkpt lat="44.93225" lon="4.54734">
        <ele>803.09600830078</ele>
        <time>2009-08-03T09:14:03Z</time>
      </trkpt>
      <trkpt lat="44.93185" lon="4.54702">
        <ele>802.19396972656</ele>
        <time>2009-08-03T09:14:10Z</time>
      </trkpt>
      <trkpt lat="44.93162" lon="4.54694">
        <ele>802.53002929688</ele>
        <time>2009-08-03T09:14:14Z</time>
      </trkpt>
      <trkpt lat="44.93124" lon="4.547">
        <ele>802.89697265625</ele>
        <time>2009-08-03T09:14:20Z</time>
      </trkpt>
      <trkpt lat="44.9301" lon="4.547">
        <ele>804.42401123047</ele>
        <time>2009-08-03T09:14:38Z</time>
      </trkpt>
      <trkpt lat="44.92954" lon="4.54695">
        <ele>805.40698242188</ele>
        <time>2009-08-03T09:14:47Z</time>
      </trkpt>
      <trkpt lat="44.92925" lon="4.54681">
        <ele>806.51098632812</ele>
        <time>2009-08-03T09:14:52Z</time>
      </trkpt>
      <trkpt lat="44.92895" lon="4.54679">
        <ele>807.46899414062</ele>
        <time>2009-08-03T09:14:57Z</time>
      </trkpt>
      <trkpt lat="44.92883" lon="4.54684">
        <ele>807.32397460938</ele>
        <time>2009-08-03T09:14:59Z</time>
      </trkpt>
      <trkpt lat="44.92852" lon="4.54683">
        <ele>808.94299316406</ele>
        <time>2009-08-03T09:15:04Z</time>
      </trkpt>
      <trkpt lat="44.92811" lon="4.54673">
        <ele>811.40698242188</ele>
        <time>2009-08-03T09:15:12Z</time>
      </trkpt>
      <trkpt lat="44.92802" lon="4.54674">
        <ele>812.34698486328</ele>
        <time>2009-08-03T09:15:14Z</time>
      </trkpt>
      <trkpt lat="44.9276" lon="4.54702">
        <ele>813.78302001953</ele>
        <time>2009-08-03T09:15:23Z</time>
      </trkpt>
      <trkpt lat="44.92727" lon="4.54732">
        <ele>812.99401855469</ele>
        <time>2009-08-03T09:15:30Z</time>
      </trkpt>
      <trkpt lat="44.92711" lon="4.54741">
        <ele>812.86798095703</ele>
        <time>2009-08-03T09:15:33Z</time>
      </trkpt>
      <trkpt lat="44.92699" lon="4.5475">
        <ele>812.60797119141</ele>
        <time>2009-08-03T09:15:35Z</time>
      </trkpt>
      <trkpt lat="44.92682" lon="4.54766">
        <ele>812.29797363281</ele>
        <time>2009-08-03T09:15:38Z</time>
      </trkpt>
      <trkpt lat="44.92665" lon="4.54781">
        <ele>811.85198974609</ele>
        <time>2009-08-03T09:15:41Z</time>
      </trkpt>
      <trkpt lat="44.9266" lon="4.54787">
        <ele>811.70202636719</ele>
        <time>2009-08-03T09:15:42Z</time>
      </trkpt>
      <trkpt lat="44.92643" lon="4.54806">
        <ele>810.98101806641</ele>
        <time>2009-08-03T09:15:45Z</time>
      </trkpt>
      <trkpt lat="44.92637" lon="4.54812">
        <ele>810.81896972656</ele>
        <time>2009-08-03T09:15:46Z</time>
      </trkpt>
      <trkpt lat="44.92602" lon="4.54858">
        <ele>809.93499755859</ele>
        <time>2009-08-03T09:15:52Z</time>
      </trkpt>
      <trkpt lat="44.92567" lon="4.54876">
        <ele>811.00799560547</ele>
        <time>2009-08-03T09:15:57Z</time>
      </trkpt>
      <trkpt lat="44.92493" lon="4.54866">
        <ele>814.9990234375</ele>
        <time>2009-08-03T09:16:10Z</time>
      </trkpt>
      <trkpt lat="44.92462" lon="4.5485">
        <ele>816.04998779297</ele>
        <time>2009-08-03T09:16:16Z</time>
      </trkpt>
      <trkpt lat="44.92448" lon="4.54838">
        <ele>816.80999755859</ele>
        <time>2009-08-03T09:16:19Z</time>
      </trkpt>
      <trkpt lat="44.92421" lon="4.54791">
        <ele>818.61999511719</ele>
        <time>2009-08-03T09:16:27Z</time>
      </trkpt>
      <trkpt lat="44.92398" lon="4.5471">
        <ele>819.15600585938</ele>
        <time>2009-08-03T09:16:37Z</time>
      </trkpt>
      <trkpt lat="44.92356" lon="4.54684">
        <ele>822.52697753906</ele>
        <time>2009-08-03T09:16:45Z</time>
      </trkpt>
      <trkpt lat="44.92339" lon="4.54688">
        <ele>823.0009765625</ele>
        <time>2009-08-03T09:16:48Z</time>
      </trkpt>
      <trkpt lat="44.92252" lon="4.54742">
        <ele>826.28302001953</ele>
        <time>2009-08-03T09:17:04Z</time>
      </trkpt>
      <trkpt lat="44.92231" lon="4.54759">
        <ele>825.84002685547</ele>
        <time>2009-08-03T09:17:08Z</time>
      </trkpt>
      <trkpt lat="44.92219" lon="4.54765">
        <ele>826.10900878906</ele>
        <time>2009-08-03T09:17:10Z</time>
      </trkpt>
      <trkpt lat="44.92194" lon="4.54767">
        <ele>826.48101806641</ele>
        <time>2009-08-03T09:17:14Z</time>
      </trkpt>
      <trkpt lat="44.92154" lon="4.54713">
        <ele>826.11199951172</ele>
        <time>2009-08-03T09:17:23Z</time>
      </trkpt>
      <trkpt lat="44.92158" lon="4.54674">
        <ele>825.96002197266</ele>
        <time>2009-08-03T09:17:27Z</time>
      </trkpt>
      <trkpt lat="44.9217" lon="4.54609">
        <ele>825.19201660156</ele>
        <time>2009-08-03T09:17:34Z</time>
      </trkpt>
      <trkpt lat="44.92173" lon="4.54581">
        <ele>825.25201416016</ele>
        <time>2009-08-03T09:17:37Z</time>
      </trkpt>
      <trkpt lat="44.92173" lon="4.54571">
        <ele>825.36297607422</ele>
        <time>2009-08-03T09:17:38Z</time>
      </trkpt>
      <trkpt lat="44.92167" lon="4.54527">
        <ele>825.82397460938</ele>
        <time>2009-08-03T09:17:42Z</time>
      </trkpt>
      <trkpt lat="44.92158" lon="4.54495">
        <ele>825.92102050781</ele>
        <time>2009-08-03T09:17:45Z</time>
      </trkpt>
      <trkpt lat="44.92146" lon="4.54463">
        <ele>826.76501464844</ele>
        <time>2009-08-03T09:17:49Z</time>
      </trkpt>
      <trkpt lat="44.92138" lon="4.54441">
        <ele>827.28100585938</ele>
        <time>2009-08-03T09:17:52Z</time>
      </trkpt>
      <trkpt lat="44.92129" lon="4.54401">
        <ele>828.82202148438</ele>
        <time>2009-08-03T09:17:57Z</time>
      </trkpt>
      <trkpt lat="44.92128" lon="4.54393">
        <ele>828.96899414062</ele>
        <time>2009-08-03T09:17:58Z</time>
      </trkpt>
      <trkpt lat="44.92129" lon="4.54377">
        <ele>829.32098388672</ele>
        <time>2009-08-03T09:18:00Z</time>
      </trkpt>
      <trkpt lat="44.92129" lon="4.54369">
        <ele>829.40002441406</ele>
        <time>2009-08-03T09:18:01Z</time>
      </trkpt>
      <trkpt lat="44.9213" lon="4.54361">
        <ele>829.71301269531</ele>
        <time>2009-08-03T09:18:02Z</time>
      </trkpt>
      <trkpt lat="44.92127" lon="4.54336">
        <ele>830.44299316406</ele>
        <time>2009-08-03T09:18:05Z</time>
      </trkpt>
      <trkpt lat="44.9212" lon="4.54321">
        <ele>830.97998046875</ele>
        <time>2009-08-03T09:18:07Z</time>
      </trkpt>
      <trkpt lat="44.92115" lon="4.54315">
        <ele>831.37200927734</ele>
        <time>2009-08-03T09:18:08Z</time>
      </trkpt>
      <trkpt lat="44.92109" lon="4.5431">
        <ele>831.93701171875</ele>
        <time>2009-08-03T09:18:09Z</time>
      </trkpt>
      <trkpt lat="44.92102" lon="4.54305">
        <ele>831.96899414062</ele>
        <time>2009-08-03T09:18:10Z</time>
      </trkpt>
      <trkpt lat="44.92076" lon="4.54289">
        <ele>832.84899902344</ele>
        <time>2009-08-03T09:18:14Z</time>
      </trkpt>
      <trkpt lat="44.92005" lon="4.54269">
        <ele>834.57800292969</ele>
        <time>2009-08-03T09:18:25Z</time>
      </trkpt>
      <trkpt lat="44.91979" lon="4.54271">
        <ele>834.88702392578</ele>
        <time>2009-08-03T09:18:29Z</time>
      </trkpt>
      <trkpt lat="44.9196" lon="4.54279">
        <ele>834.75897216797</ele>
        <time>2009-08-03T09:18:32Z</time>
      </trkpt>
      <trkpt lat="44.91936" lon="4.54298">
        <ele>835.07299804688</ele>
        <time>2009-08-03T09:18:36Z</time>
      </trkpt>
      <trkpt lat="44.91901" lon="4.543">
        <ele>835.31799316406</ele>
        <time>2009-08-03T09:18:41Z</time>
      </trkpt>
      <trkpt lat="44.91881" lon="4.5429">
        <ele>835.33898925781</ele>
        <time>2009-08-03T09:18:44Z</time>
      </trkpt>
      <trkpt lat="44.91849" lon="4.54305">
        <ele>835.19000244141</ele>
        <time>2009-08-03T09:18:49Z</time>
      </trkpt>
      <trkpt lat="44.91826" lon="4.54362">
        <ele>834.19097900391</ele>
        <time>2009-08-03T09:18:55Z</time>
      </trkpt>
      <trkpt lat="44.91792" lon="4.54378">
        <ele>833.8330078125</ele>
        <time>2009-08-03T09:19:01Z</time>
      </trkpt>
      <trkpt lat="44.91781" lon="4.54354">
        <ele>833.35900878906</ele>
        <time>2009-08-03T09:19:04Z</time>
      </trkpt>
      <trkpt lat="44.91764" lon="4.54226">
        <ele>831.62902832031</ele>
        <time>2009-08-03T09:19:16Z</time>
      </trkpt>
      <trkpt lat="44.91771" lon="4.5418">
        <ele>830.40600585938</ele>
        <time>2009-08-03T09:19:20Z</time>
      </trkpt>
      <trkpt lat="44.91756" lon="4.54089">
        <ele>829.625</ele>
        <time>2009-08-03T09:19:28Z</time>
      </trkpt>
      <trkpt lat="44.91736" lon="4.54048">
        <ele>829.29699707031</ele>
        <time>2009-08-03T09:19:32Z</time>
      </trkpt>
      <trkpt lat="44.91725" lon="4.54001">
        <ele>828.60699462891</ele>
        <time>2009-08-03T09:19:36Z</time>
      </trkpt>
      <trkpt lat="44.91688" lon="4.53926">
        <ele>829.67401123047</ele>
        <time>2009-08-03T09:19:44Z</time>
      </trkpt>
      <trkpt lat="44.91656" lon="4.53946">
        <ele>829.32897949219</ele>
        <time>2009-08-03T09:19:48Z</time>
      </trkpt>
      <trkpt lat="44.91559" lon="4.5407">
        <ele>825.89801025391</ele>
        <time>2009-08-03T09:20:02Z</time>
      </trkpt>
      <trkpt lat="44.91504" lon="4.54118">
        <ele>825.19299316406</ele>
        <time>2009-08-03T09:20:09Z</time>
      </trkpt>
      <trkpt lat="44.91474" lon="4.54183">
        <ele>824.07702636719</ele>
        <time>2009-08-03T09:20:15Z</time>
      </trkpt>
      <trkpt lat="44.91497" lon="4.54271">
        <ele>825.06201171875</ele>
        <time>2009-08-03T09:20:22Z</time>
      </trkpt>
      <trkpt lat="44.91511" lon="4.5429">
        <ele>826.00299072266</ele>
        <time>2009-08-03T09:20:24Z</time>
      </trkpt>
      <trkpt lat="44.91509" lon="4.54354">
        <ele>826.29998779297</ele>
        <time>2009-08-03T09:20:30Z</time>
      </trkpt>
      <trkpt lat="44.91504" lon="4.54363">
        <ele>826.59698486328</ele>
        <time>2009-08-03T09:20:31Z</time>
      </trkpt>
      <trkpt lat="44.91429" lon="4.54485">
        <ele>828.86297607422</ele>
        <time>2009-08-03T09:20:46Z</time>
      </trkpt>
      <trkpt lat="44.914" lon="4.54544">
        <ele>828.03497314453</ele>
        <time>2009-08-03T09:20:52Z</time>
      </trkpt>
      <trkpt lat="44.91376" lon="4.54622">
        <ele>827.17700195312</ele>
        <time>2009-08-03T09:21:00Z</time>
      </trkpt>
      <trkpt lat="44.91368" lon="4.54625">
        <ele>826.85699462891</ele>
        <time>2009-08-03T09:21:01Z</time>
      </trkpt>
      <trkpt lat="44.91352" lon="4.54636">
        <ele>826.48602294922</ele>
        <time>2009-08-03T09:21:03Z</time>
      </trkpt>
      <trkpt lat="44.91301" lon="4.54656">
        <ele>824.48797607422</ele>
        <time>2009-08-03T09:21:09Z</time>
      </trkpt>
      <trkpt lat="44.91265" lon="4.54658">
        <ele>823.51397705078</ele>
        <time>2009-08-03T09:21:13Z</time>
      </trkpt>
      <trkpt lat="44.91231" lon="4.54679">
        <ele>822.44201660156</ele>
        <time>2009-08-03T09:21:17Z</time>
      </trkpt>
      <trkpt lat="44.91201" lon="4.54712">
        <ele>821.7080078125</ele>
        <time>2009-08-03T09:21:21Z</time>
      </trkpt>
      <trkpt lat="44.91175" lon="4.54737">
        <ele>821.01898193359</ele>
        <time>2009-08-03T09:21:25Z</time>
      </trkpt>
      <trkpt lat="44.91172" lon="4.5474">
        <ele>820.74499511719</ele>
        <time>2009-08-03T09:21:26Z</time>
      </trkpt>
      <trkpt lat="44.91147" lon="4.54719">
        <ele>820.75701904297</ele>
        <time>2009-08-03T09:21:34Z</time>
      </trkpt>
      <trkpt lat="44.91146" lon="4.54713">
        <ele>820.99499511719</ele>
        <time>2009-08-03T09:21:35Z</time>
      </trkpt>
      <trkpt lat="44.91122" lon="4.54613">
        <ele>822.40802001953</ele>
        <time>2009-08-03T09:21:49Z</time>
      </trkpt>
      <trkpt lat="44.9111" lon="4.54588">
        <ele>822.43402099609</ele>
        <time>2009-08-03T09:21:53Z</time>
      </trkpt>
      <trkpt lat="44.91086" lon="4.54543">
        <ele>825.03002929688</ele>
        <time>2009-08-03T09:22:01Z</time>
      </trkpt>
      <trkpt lat="44.9107" lon="4.54504">
        <ele>826.8330078125</ele>
        <time>2009-08-03T09:22:07Z</time>
      </trkpt>
      <trkpt lat="44.91056" lon="4.54483">
        <ele>827.95397949219</ele>
        <time>2009-08-03T09:22:11Z</time>
      </trkpt>
      <trkpt lat="44.91024" lon="4.54466">
        <ele>826.63800048828</ele>
        <time>2009-08-03T09:22:17Z</time>
      </trkpt>
      <trkpt lat="44.91012" lon="4.54465">
        <ele>825.52001953125</ele>
        <time>2009-08-03T09:22:19Z</time>
      </trkpt>
      <trkpt lat="44.90993" lon="4.54466">
        <ele>824.27899169922</ele>
        <time>2009-08-03T09:22:22Z</time>
      </trkpt>
      <trkpt lat="44.90977" lon="4.54467">
        <ele>822.94299316406</ele>
        <time>2009-08-03T09:22:24Z</time>
      </trkpt>
      <trkpt lat="44.90913" lon="4.5447">
        <ele>818.60101318359</ele>
        <time>2009-08-03T09:22:31Z</time>
      </trkpt>
      <trkpt lat="44.90855" lon="4.54486">
        <ele>815.26300048828</ele>
        <time>2009-08-03T09:22:37Z</time>
      </trkpt>
      <trkpt lat="44.90838" lon="4.54501">
        <ele>814.28002929688</ele>
        <time>2009-08-03T09:22:39Z</time>
      </trkpt>
      <trkpt lat="44.90821" lon="4.54517">
        <ele>813.20697021484</ele>
        <time>2009-08-03T09:22:41Z</time>
      </trkpt>
      <trkpt lat="44.9077" lon="4.54522">
        <ele>812.55700683594</ele>
        <time>2009-08-03T09:22:46Z</time>
      </trkpt>
      <trkpt lat="44.90762" lon="4.54517">
        <ele>813.05603027344</ele>
        <time>2009-08-03T09:22:47Z</time>
      </trkpt>
      <trkpt lat="44.9071" lon="4.54463">
        <ele>816.99798583984</ele>
        <time>2009-08-03T09:22:56Z</time>
      </trkpt>
      <trkpt lat="44.90682" lon="4.54433">
        <ele>819.82501220703</ele>
        <time>2009-08-03T09:23:03Z</time>
      </trkpt>
      <trkpt lat="44.90669" lon="4.54418">
        <ele>820.96697998047</ele>
        <time>2009-08-03T09:23:07Z</time>
      </trkpt>
      <trkpt lat="44.90647" lon="4.544">
        <ele>822.57702636719</ele>
        <time>2009-08-03T09:23:13Z</time>
      </trkpt>
      <trkpt lat="44.90637" lon="4.5439">
        <ele>823.53100585938</ele>
        <time>2009-08-03T09:23:16Z</time>
      </trkpt>
      <trkpt lat="44.90624" lon="4.54368">
        <ele>825.22998046875</ele>
        <time>2009-08-03T09:23:21Z</time>
      </trkpt>
      <trkpt lat="44.90607" lon="4.54318">
        <ele>828.07598876953</ele>
        <time>2009-08-03T09:23:31Z</time>
      </trkpt>
      <trkpt lat="44.90603" lon="4.54283">
        <ele>830.06896972656</ele>
        <time>2009-08-03T09:23:38Z</time>
      </trkpt>
      <trkpt lat="44.90607" lon="4.54241">
        <ele>832.40197753906</ele>
        <time>2009-08-03T09:23:46Z</time>
      </trkpt>
      <trkpt lat="44.90604" lon="4.54207">
        <ele>833.08001708984</ele>
        <time>2009-08-03T09:23:52Z</time>
      </trkpt>
      <trkpt lat="44.90601" lon="4.54156">
        <ele>831.19201660156</ele>
        <time>2009-08-03T09:23:59Z</time>
      </trkpt>
      <trkpt lat="44.90604" lon="4.54124">
        <ele>831.40002441406</ele>
        <time>2009-08-03T09:24:03Z</time>
      </trkpt>
      <trkpt lat="44.90575" lon="4.54073">
        <ele>827.15301513672</ele>
        <time>2009-08-03T09:24:10Z</time>
      </trkpt>
      <trkpt lat="44.90557" lon="4.54068">
        <ele>825.56298828125</ele>
        <time>2009-08-03T09:24:12Z</time>
      </trkpt>
      <trkpt lat="44.90498" lon="4.5407">
        <ele>820.77197265625</ele>
        <time>2009-08-03T09:24:18Z</time>
      </trkpt>
      <trkpt lat="44.90425" lon="4.54103">
        <ele>815.72900390625</ele>
        <time>2009-08-03T09:24:25Z</time>
      </trkpt>
      <trkpt lat="44.90405" lon="4.54112">
        <ele>815.02600097656</ele>
        <time>2009-08-03T09:24:27Z</time>
      </trkpt>
      <trkpt lat="44.90365" lon="4.5413">
        <ele>814.541015625</ele>
        <time>2009-08-03T09:24:31Z</time>
      </trkpt>
      <trkpt lat="44.90284" lon="4.54152">
        <ele>815.51397705078</ele>
        <time>2009-08-03T09:24:41Z</time>
      </trkpt>
      <trkpt lat="44.90263" lon="4.54165">
        <ele>815.79302978516</ele>
        <time>2009-08-03T09:24:44Z</time>
      </trkpt>
      <trkpt lat="44.90179" lon="4.54216">
        <ele>815.53100585938</ele>
        <time>2009-08-03T09:24:56Z</time>
      </trkpt>
      <trkpt lat="44.90139" lon="4.54239">
        <ele>814.54699707031</ele>
        <time>2009-08-03T09:25:03Z</time>
      </trkpt>
      <trkpt lat="44.90129" lon="4.5424">
        <ele>815.45697021484</ele>
        <time>2009-08-03T09:25:08Z</time>
      </trkpt>
      <trkpt lat="44.90128" lon="4.54245">
        <ele>815.09399414062</ele>
        <time>2009-08-03T09:25:18Z</time>
      </trkpt>
      <trkpt lat="44.90128" lon="4.54254">
        <ele>815.49597167969</ele>
        <time>2009-08-03T09:25:27Z</time>
      </trkpt>
      <trkpt lat="44.90127" lon="4.5425">
        <ele>815.06402587891</ele>
        <time>2009-08-03T09:25:55Z</time>
      </trkpt>
      <trkpt lat="44.90125" lon="4.54253">
        <ele>815.46398925781</ele>
        <time>2009-08-03T09:27:48Z</time>
      </trkpt>
      <trkpt lat="44.90124" lon="4.54253">
        <ele>815.55401611328</ele>
        <time>2009-08-03T09:27:51Z</time>
      </trkpt>
      <trkpt lat="44.90116" lon="4.54266">
        <ele>815.65802001953</ele>
        <time>2009-08-03T09:28:11Z</time>
      </trkpt>
      <trkpt lat="44.90071" lon="4.54311">
        <ele>815.72900390625</ele>
        <time>2009-08-03T09:28:26Z</time>
      </trkpt>
      <trkpt lat="44.90015" lon="4.54374">
        <ele>814.85797119141</ele>
        <time>2009-08-03T09:28:40Z</time>
      </trkpt>
      <trkpt lat="44.89998" lon="4.54397">
        <ele>814.47998046875</ele>
        <time>2009-08-03T09:28:44Z</time>
      </trkpt>
      <trkpt lat="44.8998" lon="4.54465">
        <ele>814.22497558594</ele>
        <time>2009-08-03T09:28:52Z</time>
      </trkpt>
      <trkpt lat="44.8998" lon="4.54483">
        <ele>814.22497558594</ele>
        <time>2009-08-03T09:28:54Z</time>
      </trkpt>
      <trkpt lat="44.89966" lon="4.54527">
        <ele>814.41900634766</ele>
        <time>2009-08-03T09:29:00Z</time>
      </trkpt>
      <trkpt lat="44.89934" lon="4.54568">
        <ele>813.05401611328</ele>
        <time>2009-08-03T09:29:08Z</time>
      </trkpt>
      <trkpt lat="44.89929" lon="4.54582">
        <ele>812.79699707031</ele>
        <time>2009-08-03T09:29:10Z</time>
      </trkpt>
      <trkpt lat="44.89925" lon="4.54597">
        <ele>812.34497070312</ele>
        <time>2009-08-03T09:29:12Z</time>
      </trkpt>
      <trkpt lat="44.89923" lon="4.54606">
        <ele>812.52398681641</ele>
        <time>2009-08-03T09:29:13Z</time>
      </trkpt>
      <trkpt lat="44.89918" lon="4.54626">
        <ele>812.64300537109</ele>
        <time>2009-08-03T09:29:15Z</time>
      </trkpt>
      <trkpt lat="44.89907" lon="4.54666">
        <ele>812.36700439453</ele>
        <time>2009-08-03T09:29:19Z</time>
      </trkpt>
      <trkpt lat="44.89894" lon="4.54688">
        <ele>812.10797119141</ele>
        <time>2009-08-03T09:29:22Z</time>
      </trkpt>
      <trkpt lat="44.89836" lon="4.54757">
        <ele>811.41497802734</ele>
        <time>2009-08-03T09:29:32Z</time>
      </trkpt>
      <trkpt lat="44.89825" lon="4.54772">
        <ele>811.46600341797</ele>
        <time>2009-08-03T09:29:34Z</time>
      </trkpt>
      <trkpt lat="44.8981" lon="4.54808">
        <ele>810.34301757812</ele>
        <time>2009-08-03T09:29:38Z</time>
      </trkpt>
      <trkpt lat="44.898" lon="4.5492">
        <ele>811.2919921875</ele>
        <time>2009-08-03T09:29:48Z</time>
      </trkpt>
      <trkpt lat="44.89776" lon="4.54989">
        <ele>810.11297607422</ele>
        <time>2009-08-03T09:29:55Z</time>
      </trkpt>
      <trkpt lat="44.89721" lon="4.5508">
        <ele>809.69598388672</ele>
        <time>2009-08-03T09:30:06Z</time>
      </trkpt>
      <trkpt lat="44.89717" lon="4.5509">
        <ele>809.55700683594</ele>
        <time>2009-08-03T09:30:07Z</time>
      </trkpt>
      <trkpt lat="44.89708" lon="4.55154">
        <ele>808.89202880859</ele>
        <time>2009-08-03T09:30:13Z</time>
      </trkpt>
      <trkpt lat="44.89708" lon="4.55315">
        <ele>808.98797607422</ele>
        <time>2009-08-03T09:30:28Z</time>
      </trkpt>
      <trkpt lat="44.89658" lon="4.55478">
        <ele>808.75799560547</ele>
        <time>2009-08-03T09:30:44Z</time>
      </trkpt>
      <trkpt lat="44.89627" lon="4.55543">
        <ele>808.49597167969</ele>
        <time>2009-08-03T09:30:51Z</time>
      </trkpt>
      <trkpt lat="44.89586" lon="4.55655">
        <ele>808.02502441406</ele>
        <time>2009-08-03T09:31:02Z</time>
      </trkpt>
      <trkpt lat="44.8955" lon="4.55663">
        <ele>808.41497802734</ele>
        <time>2009-08-03T09:31:08Z</time>
      </trkpt>
      <trkpt lat="44.89523" lon="4.55626">
        <ele>808.0830078125</ele>
        <time>2009-08-03T09:31:13Z</time>
      </trkpt>
      <trkpt lat="44.89471" lon="4.55597">
        <ele>807.99102783203</ele>
        <time>2009-08-03T09:31:20Z</time>
      </trkpt>
      <trkpt lat="44.89428" lon="4.55608">
        <ele>807.00201416016</ele>
        <time>2009-08-03T09:31:26Z</time>
      </trkpt>
      <trkpt lat="44.89412" lon="4.5563">
        <ele>806.61700439453</ele>
        <time>2009-08-03T09:31:29Z</time>
      </trkpt>
      <trkpt lat="44.89395" lon="4.55698">
        <ele>807.11297607422</ele>
        <time>2009-08-03T09:31:36Z</time>
      </trkpt>
      <trkpt lat="44.89395" lon="4.55825">
        <ele>807.48999023438</ele>
        <time>2009-08-03T09:31:48Z</time>
      </trkpt>
      <trkpt lat="44.89388" lon="4.55963">
        <ele>805.77197265625</ele>
        <time>2009-08-03T09:32:00Z</time>
      </trkpt>
      <trkpt lat="44.89395" lon="4.56013">
        <ele>805.19500732422</ele>
        <time>2009-08-03T09:32:04Z</time>
      </trkpt>
      <trkpt lat="44.894" lon="4.56038">
        <ele>805.04699707031</ele>
        <time>2009-08-03T09:32:06Z</time>
      </trkpt>
      <trkpt lat="44.89404" lon="4.56081">
        <ele>804.86798095703</ele>
        <time>2009-08-03T09:32:10Z</time>
      </trkpt>
      <trkpt lat="44.89405" lon="4.56092">
        <ele>804.65802001953</ele>
        <time>2009-08-03T09:32:11Z</time>
      </trkpt>
      <trkpt lat="44.89407" lon="4.56113">
        <ele>804.23400878906</ele>
        <time>2009-08-03T09:32:13Z</time>
      </trkpt>
      <trkpt lat="44.89407" lon="4.56125">
        <ele>804.15997314453</ele>
        <time>2009-08-03T09:32:14Z</time>
      </trkpt>
      <trkpt lat="44.89411" lon="4.5615">
        <ele>803.93298339844</ele>
        <time>2009-08-03T09:32:16Z</time>
      </trkpt>
      <trkpt lat="44.89465" lon="4.56308">
        <ele>802.32098388672</ele>
        <time>2009-08-03T09:32:30Z</time>
      </trkpt>
      <trkpt lat="44.89472" lon="4.56354">
        <ele>802.07000732422</ele>
        <time>2009-08-03T09:32:34Z</time>
      </trkpt>
      <trkpt lat="44.89473" lon="4.56377">
        <ele>801.56896972656</ele>
        <time>2009-08-03T09:32:36Z</time>
      </trkpt>
      <trkpt lat="44.89437" lon="4.56519">
        <ele>801.82202148438</ele>
        <time>2009-08-03T09:32:49Z</time>
      </trkpt>
      <trkpt lat="44.89385" lon="4.56612">
        <ele>801.65997314453</ele>
        <time>2009-08-03T09:32:59Z</time>
      </trkpt>
      <trkpt lat="44.8933" lon="4.56664">
        <ele>801.22302246094</ele>
        <time>2009-08-03T09:33:07Z</time>
      </trkpt>
      <trkpt lat="44.89277" lon="4.56777">
        <ele>799.38598632812</ele>
        <time>2009-08-03T09:33:18Z</time>
      </trkpt>
      <trkpt lat="44.89235" lon="4.56845">
        <ele>799.0419921875</ele>
        <time>2009-08-03T09:33:25Z</time>
      </trkpt>
      <trkpt lat="44.8914" lon="4.56974">
        <ele>797.02301025391</ele>
        <time>2009-08-03T09:33:38Z</time>
      </trkpt>
      <trkpt lat="44.89083" lon="4.57046">
        <ele>796.66101074219</ele>
        <time>2009-08-03T09:33:46Z</time>
      </trkpt>
      <trkpt lat="44.89029" lon="4.57042">
        <ele>794.97198486328</ele>
        <time>2009-08-03T09:33:53Z</time>
      </trkpt>
      <trkpt lat="44.89018" lon="4.5702">
        <ele>794.12298583984</ele>
        <time>2009-08-03T09:33:55Z</time>
      </trkpt>
      <trkpt lat="44.88998" lon="4.56988">
        <ele>792.04797363281</ele>
        <time>2009-08-03T09:33:58Z</time>
      </trkpt>
      <trkpt lat="44.88921" lon="4.56925">
        <ele>788.71697998047</ele>
        <time>2009-08-03T09:34:07Z</time>
      </trkpt>
      <trkpt lat="44.88884" lon="4.56909">
        <ele>786.98297119141</ele>
        <time>2009-08-03T09:34:11Z</time>
      </trkpt>
      <trkpt lat="44.88849" lon="4.56882">
        <ele>784.4990234375</ele>
        <time>2009-08-03T09:34:15Z</time>
      </trkpt>
      <trkpt lat="44.88831" lon="4.56835">
        <ele>783.20001220703</ele>
        <time>2009-08-03T09:34:19Z</time>
      </trkpt>
      <trkpt lat="44.88804" lon="4.56725">
        <ele>779.2490234375</ele>
        <time>2009-08-03T09:34:28Z</time>
      </trkpt>
      <trkpt lat="44.88794" lon="4.56704">
        <ele>778.54797363281</ele>
        <time>2009-08-03T09:34:30Z</time>
      </trkpt>
      <trkpt lat="44.88789" lon="4.56695">
        <ele>778.40399169922</ele>
        <time>2009-08-03T09:34:31Z</time>
      </trkpt>
      <trkpt lat="44.88767" lon="4.56673">
        <ele>777.0830078125</ele>
        <time>2009-08-03T09:34:34Z</time>
      </trkpt>
      <trkpt lat="44.88718" lon="4.56682">
        <ele>773.31201171875</ele>
        <time>2009-08-03T09:34:40Z</time>
      </trkpt>
      <trkpt lat="44.8869" lon="4.56696">
        <ele>771.97900390625</ele>
        <time>2009-08-03T09:34:43Z</time>
      </trkpt>
      <trkpt lat="44.88672" lon="4.56702">
        <ele>771.03497314453</ele>
        <time>2009-08-03T09:34:45Z</time>
      </trkpt>
      <trkpt lat="44.88654" lon="4.5672">
        <ele>770.38598632812</ele>
        <time>2009-08-03T09:34:47Z</time>
      </trkpt>
      <trkpt lat="44.88637" lon="4.56748">
        <ele>769.40802001953</ele>
        <time>2009-08-03T09:34:50Z</time>
      </trkpt>
      <trkpt lat="44.88601" lon="4.56772">
        <ele>767.39801025391</ele>
        <time>2009-08-03T09:34:54Z</time>
      </trkpt>
      <trkpt lat="44.88584" lon="4.56796">
        <ele>766.01300048828</ele>
        <time>2009-08-03T09:34:57Z</time>
      </trkpt>
      <trkpt lat="44.88575" lon="4.56815">
        <ele>764.75500488281</ele>
        <time>2009-08-03T09:34:59Z</time>
      </trkpt>
      <trkpt lat="44.88566" lon="4.56838">
        <ele>763.59899902344</ele>
        <time>2009-08-03T09:35:01Z</time>
      </trkpt>
      <trkpt lat="44.88561" lon="4.5685">
        <ele>763.37902832031</ele>
        <time>2009-08-03T09:35:02Z</time>
      </trkpt>
      <trkpt lat="44.88536" lon="4.56907">
        <ele>761.11798095703</ele>
        <time>2009-08-03T09:35:07Z</time>
      </trkpt>
      <trkpt lat="44.88529" lon="4.56929">
        <ele>759.94299316406</ele>
        <time>2009-08-03T09:35:09Z</time>
      </trkpt>
      <trkpt lat="44.88523" lon="4.56942">
        <ele>759.14300537109</ele>
        <time>2009-08-03T09:35:10Z</time>
      </trkpt>
      <trkpt lat="44.88505" lon="4.5698">
        <ele>758.0009765625</ele>
        <time>2009-08-03T09:35:13Z</time>
      </trkpt>
      <trkpt lat="44.88439" lon="4.57049">
        <ele>754.68402099609</ele>
        <time>2009-08-03T09:35:21Z</time>
      </trkpt>
      <trkpt lat="44.88417" lon="4.57046">
        <ele>753.58502197266</ele>
        <time>2009-08-03T09:35:23Z</time>
      </trkpt>
      <trkpt lat="44.88376" lon="4.57034">
        <ele>752.48797607422</ele>
        <time>2009-08-03T09:35:27Z</time>
      </trkpt>
      <trkpt lat="44.88342" lon="4.57015">
        <ele>750.85498046875</ele>
        <time>2009-08-03T09:35:31Z</time>
      </trkpt>
      <trkpt lat="44.88307" lon="4.56999">
        <ele>749.46600341797</ele>
        <time>2009-08-03T09:35:35Z</time>
      </trkpt>
      <trkpt lat="44.88273" lon="4.57069">
        <ele>748.8330078125</ele>
        <time>2009-08-03T09:35:43Z</time>
      </trkpt>
      <trkpt lat="44.88264" lon="4.57116">
        <ele>747.66101074219</ele>
        <time>2009-08-03T09:35:47Z</time>
      </trkpt>
      <trkpt lat="44.88247" lon="4.57147">
        <ele>745.77398681641</ele>
        <time>2009-08-03T09:35:50Z</time>
      </trkpt>
      <trkpt lat="44.88156" lon="4.57308">
        <ele>740.34899902344</ele>
        <time>2009-08-03T09:36:06Z</time>
      </trkpt>
      <trkpt lat="44.88144" lon="4.57325">
        <ele>740.51599121094</ele>
        <time>2009-08-03T09:36:08Z</time>
      </trkpt>
      <trkpt lat="44.88129" lon="4.57367">
        <ele>739.28198242188</ele>
        <time>2009-08-03T09:36:12Z</time>
      </trkpt>
      <trkpt lat="44.88124" lon="4.57416">
        <ele>737.42999267578</ele>
        <time>2009-08-03T09:36:16Z</time>
      </trkpt>
      <trkpt lat="44.88152" lon="4.57505">
        <ele>734.60900878906</ele>
        <time>2009-08-03T09:36:24Z</time>
      </trkpt>
      <trkpt lat="44.88223" lon="4.5758">
        <ele>731.90502929688</ele>
        <time>2009-08-03T09:36:34Z</time>
      </trkpt>
      <trkpt lat="44.8823" lon="4.57589">
        <ele>731.77001953125</ele>
        <time>2009-08-03T09:36:35Z</time>
      </trkpt>
      <trkpt lat="44.88251" lon="4.57632">
        <ele>730.26300048828</ele>
        <time>2009-08-03T09:36:39Z</time>
      </trkpt>
      <trkpt lat="44.88257" lon="4.57658">
        <ele>729.30200195312</ele>
        <time>2009-08-03T09:36:41Z</time>
      </trkpt>
      <trkpt lat="44.8826" lon="4.57684">
        <ele>728.1669921875</ele>
        <time>2009-08-03T09:36:43Z</time>
      </trkpt>
      <trkpt lat="44.88249" lon="4.57859">
        <ele>723.58001708984</ele>
        <time>2009-08-03T09:36:56Z</time>
      </trkpt>
      <trkpt lat="44.88243" lon="4.57885">
        <ele>722.83001708984</ele>
        <time>2009-08-03T09:36:58Z</time>
      </trkpt>
      <trkpt lat="44.88221" lon="4.57931">
        <ele>720.89001464844</ele>
        <time>2009-08-03T09:37:02Z</time>
      </trkpt>
      <trkpt lat="44.88186" lon="4.5795">
        <ele>720.10601806641</ele>
        <time>2009-08-03T09:37:06Z</time>
      </trkpt>
      <trkpt lat="44.88166" lon="4.57944">
        <ele>719.24798583984</ele>
        <time>2009-08-03T09:37:08Z</time>
      </trkpt>
      <trkpt lat="44.88142" lon="4.57921">
        <ele>718.61798095703</ele>
        <time>2009-08-03T09:37:11Z</time>
      </trkpt>
      <trkpt lat="44.88097" lon="4.57863">
        <ele>715.0830078125</ele>
        <time>2009-08-03T09:37:17Z</time>
      </trkpt>
      <trkpt lat="44.88067" lon="4.57818">
        <ele>713.28802490234</ele>
        <time>2009-08-03T09:37:21Z</time>
      </trkpt>
      <trkpt lat="44.87995" lon="4.57726">
        <ele>710.40399169922</ele>
        <time>2009-08-03T09:37:31Z</time>
      </trkpt>
      <trkpt lat="44.87885" lon="4.57623">
        <ele>707.93902587891</ele>
        <time>2009-08-03T09:37:45Z</time>
      </trkpt>
      <trkpt lat="44.87805" lon="4.5753">
        <ele>703.56597900391</ele>
        <time>2009-08-03T09:37:57Z</time>
      </trkpt>
      <trkpt lat="44.87756" lon="4.57473">
        <ele>700.83197021484</ele>
        <time>2009-08-03T09:38:05Z</time>
      </trkpt>
      <trkpt lat="44.87734" lon="4.57458">
        <ele>699.83801269531</ele>
        <time>2009-08-03T09:38:08Z</time>
      </trkpt>
      <trkpt lat="44.87702" lon="4.57445">
        <ele>699.63201904297</ele>
        <time>2009-08-03T09:38:13Z</time>
      </trkpt>
      <trkpt lat="44.87693" lon="4.57435">
        <ele>700.0419921875</ele>
        <time>2009-08-03T09:38:17Z</time>
      </trkpt>
      <trkpt lat="44.87697" lon="4.57439">
        <ele>700.19000244141</ele>
        <time>2009-08-03T09:38:24Z</time>
      </trkpt>
      <trkpt lat="44.87677" lon="4.57455">
        <ele>699.04400634766</ele>
        <time>2009-08-03T09:40:15Z</time>
      </trkpt>
      <trkpt lat="44.87647" lon="4.57467">
        <ele>699.92700195312</ele>
        <time>2009-08-03T09:40:23Z</time>
      </trkpt>
      <trkpt lat="44.87632" lon="4.57475">
        <ele>700.06298828125</ele>
        <time>2009-08-03T09:40:27Z</time>
      </trkpt>
      <trkpt lat="44.87607" lon="4.57488">
        <ele>701.26397705078</ele>
        <time>2009-08-03T09:40:33Z</time>
      </trkpt>
      <trkpt lat="44.87597" lon="4.57495">
        <ele>701.23400878906</ele>
        <time>2009-08-03T09:40:36Z</time>
      </trkpt>
      <trkpt lat="44.87534" lon="4.57545">
        <ele>700.45697021484</ele>
        <time>2009-08-03T09:40:49Z</time>
      </trkpt>
      <trkpt lat="44.87511" lon="4.57563">
        <ele>700.31500244141</ele>
        <time>2009-08-03T09:40:53Z</time>
      </trkpt>
      <trkpt lat="44.87499" lon="4.57575">
        <ele>700.09600830078</ele>
        <time>2009-08-03T09:40:55Z</time>
      </trkpt>
      <trkpt lat="44.87478" lon="4.57604">
        <ele>699.041015625</ele>
        <time>2009-08-03T09:40:59Z</time>
      </trkpt>
      <trkpt lat="44.87469" lon="4.57633">
        <ele>697.61297607422</ele>
        <time>2009-08-03T09:41:02Z</time>
      </trkpt>
      <trkpt lat="44.87472" lon="4.57678">
        <ele>697.23797607422</ele>
        <time>2009-08-03T09:41:06Z</time>
      </trkpt>
      <trkpt lat="44.8749" lon="4.57732">
        <ele>696.67602539062</ele>
        <time>2009-08-03T09:41:11Z</time>
      </trkpt>
      <trkpt lat="44.87531" lon="4.57766">
        <ele>694.95697021484</ele>
        <time>2009-08-03T09:41:17Z</time>
      </trkpt>
      <trkpt lat="44.87565" lon="4.57775">
        <ele>694.18499755859</ele>
        <time>2009-08-03T09:41:21Z</time>
      </trkpt>
      <trkpt lat="44.87595" lon="4.57799">
        <ele>693.48498535156</ele>
        <time>2009-08-03T09:41:25Z</time>
      </trkpt>
      <trkpt lat="44.87607" lon="4.57816">
        <ele>692.62799072266</ele>
        <time>2009-08-03T09:41:27Z</time>
      </trkpt>
      <trkpt lat="44.87624" lon="4.57856">
        <ele>692.99401855469</ele>
        <time>2009-08-03T09:41:31Z</time>
      </trkpt>
      <trkpt lat="44.87631" lon="4.57891">
        <ele>692.46801757812</ele>
        <time>2009-08-03T09:41:34Z</time>
      </trkpt>
      <trkpt lat="44.87631" lon="4.58067">
        <ele>690.03900146484</ele>
        <time>2009-08-03T09:41:48Z</time>
      </trkpt>
      <trkpt lat="44.8763" lon="4.58092">
        <ele>690.13299560547</ele>
        <time>2009-08-03T09:41:50Z</time>
      </trkpt>
      <trkpt lat="44.87596" lon="4.58153">
        <ele>689.01702880859</ele>
        <time>2009-08-03T09:41:57Z</time>
      </trkpt>
      <trkpt lat="44.87546" lon="4.58133">
        <ele>688.09002685547</ele>
        <time>2009-08-03T09:42:03Z</time>
      </trkpt>
      <trkpt lat="44.87526" lon="4.5817">
        <ele>688.08001708984</ele>
        <time>2009-08-03T09:42:07Z</time>
      </trkpt>
      <trkpt lat="44.87529" lon="4.58193">
        <ele>688.07800292969</ele>
        <time>2009-08-03T09:42:09Z</time>
      </trkpt>
      <trkpt lat="44.87535" lon="4.58227">
        <ele>688.07501220703</ele>
        <time>2009-08-03T09:42:12Z</time>
      </trkpt>
      <trkpt lat="44.87522" lon="4.58313">
        <ele>685.13897705078</ele>
        <time>2009-08-03T09:42:19Z</time>
      </trkpt>
      <trkpt lat="44.87517" lon="4.58337">
        <ele>684.06298828125</ele>
        <time>2009-08-03T09:42:21Z</time>
      </trkpt>
      <trkpt lat="44.875" lon="4.58381">
        <ele>683.69897460938</ele>
        <time>2009-08-03T09:42:25Z</time>
      </trkpt>
      <trkpt lat="44.87471" lon="4.58446">
        <ele>682.32800292969</ele>
        <time>2009-08-03T09:42:31Z</time>
      </trkpt>
      <trkpt lat="44.87466" lon="4.58485">
        <ele>681.55200195312</ele>
        <time>2009-08-03T09:42:34Z</time>
      </trkpt>
      <trkpt lat="44.8746" lon="4.58551">
        <ele>680.9990234375</ele>
        <time>2009-08-03T09:42:39Z</time>
      </trkpt>
      <trkpt lat="44.87462" lon="4.58577">
        <ele>681.36798095703</ele>
        <time>2009-08-03T09:42:41Z</time>
      </trkpt>
      <trkpt lat="44.87473" lon="4.58605">
        <ele>679.61602783203</ele>
        <time>2009-08-03T09:42:44Z</time>
      </trkpt>
      <trkpt lat="44.87493" lon="4.58634">
        <ele>679.11102294922</ele>
        <time>2009-08-03T09:42:47Z</time>
      </trkpt>
      <trkpt lat="44.87505" lon="4.58672">
        <ele>678.54797363281</ele>
        <time>2009-08-03T09:42:50Z</time>
      </trkpt>
      <trkpt lat="44.87543" lon="4.58815">
        <ele>675.55902099609</ele>
        <time>2009-08-03T09:43:02Z</time>
      </trkpt>
      <trkpt lat="44.87548" lon="4.58827">
        <ele>674.98400878906</ele>
        <time>2009-08-03T09:43:03Z</time>
      </trkpt>
      <trkpt lat="44.8754" lon="4.58907">
        <ele>675.00500488281</ele>
        <time>2009-08-03T09:43:10Z</time>
      </trkpt>
      <trkpt lat="44.87494" lon="4.58976">
        <ele>673.73101806641</ele>
        <time>2009-08-03T09:43:17Z</time>
      </trkpt>
      <trkpt lat="44.8746" lon="4.58999">
        <ele>673.72100830078</ele>
        <time>2009-08-03T09:43:21Z</time>
      </trkpt>
      <trkpt lat="44.87435" lon="4.59008">
        <ele>672.416015625</ele>
        <time>2009-08-03T09:43:24Z</time>
      </trkpt>
      <trkpt lat="44.87419" lon="4.59026">
        <ele>671.57501220703</ele>
        <time>2009-08-03T09:43:26Z</time>
      </trkpt>
      <trkpt lat="44.87415" lon="4.5904">
        <ele>671.69097900391</ele>
        <time>2009-08-03T09:43:27Z</time>
      </trkpt>
      <trkpt lat="44.87416" lon="4.59066">
        <ele>671.93597412109</ele>
        <time>2009-08-03T09:43:29Z</time>
      </trkpt>
      <trkpt lat="44.8742" lon="4.59078">
        <ele>671.65502929688</ele>
        <time>2009-08-03T09:43:30Z</time>
      </trkpt>
      <trkpt lat="44.87432" lon="4.59145">
        <ele>671.36499023438</ele>
        <time>2009-08-03T09:43:36Z</time>
      </trkpt>
      <trkpt lat="44.87439" lon="4.59217">
        <ele>674.23602294922</ele>
        <time>2009-08-03T09:43:44Z</time>
      </trkpt>
      <trkpt lat="44.87436" lon="4.5923">
        <ele>675.0419921875</ele>
        <time>2009-08-03T09:43:46Z</time>
      </trkpt>
      <trkpt lat="44.87432" lon="4.59249">
        <ele>675.7509765625</ele>
        <time>2009-08-03T09:43:49Z</time>
      </trkpt>
      <trkpt lat="44.87432" lon="4.59291">
        <ele>677.47497558594</ele>
        <time>2009-08-03T09:43:55Z</time>
      </trkpt>
      <trkpt lat="44.87429" lon="4.5933">
        <ele>678.80297851562</ele>
        <time>2009-08-03T09:44:00Z</time>
      </trkpt>
      <trkpt lat="44.87426" lon="4.59337">
        <ele>678.88000488281</ele>
        <time>2009-08-03T09:44:01Z</time>
      </trkpt>
      <trkpt lat="44.87416" lon="4.59357">
        <ele>679.57000732422</ele>
        <time>2009-08-03T09:44:04Z</time>
      </trkpt>
      <trkpt lat="44.87399" lon="4.59387">
        <ele>682.00598144531</ele>
        <time>2009-08-03T09:44:09Z</time>
      </trkpt>
      <trkpt lat="44.87395" lon="4.59394">
        <ele>682.23999023438</ele>
        <time>2009-08-03T09:44:10Z</time>
      </trkpt>
      <trkpt lat="44.8739" lon="4.59401">
        <ele>682.86999511719</ele>
        <time>2009-08-03T09:44:11Z</time>
      </trkpt>
      <trkpt lat="44.87376" lon="4.59426">
        <ele>684.17797851562</ele>
        <time>2009-08-03T09:44:14Z</time>
      </trkpt>
      <trkpt lat="44.87368" lon="4.59439">
        <ele>684.583984375</ele>
        <time>2009-08-03T09:44:16Z</time>
      </trkpt>
      <trkpt lat="44.87325" lon="4.5946">
        <ele>687.06097412109</ele>
        <time>2009-08-03T09:44:24Z</time>
      </trkpt>
      <trkpt lat="44.87316" lon="4.59458">
        <ele>687.75201416016</ele>
        <time>2009-08-03T09:44:26Z</time>
      </trkpt>
      <trkpt lat="44.87312" lon="4.59464">
        <ele>687.92199707031</ele>
        <time>2009-08-03T09:44:30Z</time>
      </trkpt>
      <trkpt lat="44.87323" lon="4.59477">
        <ele>688.24597167969</ele>
        <time>2009-08-03T09:44:36Z</time>
      </trkpt>
      <trkpt lat="44.87333" lon="4.59473">
        <ele>688.41400146484</ele>
        <time>2009-08-03T09:44:42Z</time>
      </trkpt>
      <trkpt lat="44.87333" lon="4.59474">
        <ele>688.50299072266</ele>
        <time>2009-08-03T09:44:44Z</time>
      </trkpt>
      <trkpt lat="44.87338" lon="4.59471">
        <ele>687.94097900391</ele>
        <time>2009-08-03T09:44:55Z</time>
      </trkpt>
      <trkpt lat="44.87325" lon="4.5946">
        <ele>687.69799804688</ele>
        <time>2009-08-03T09:45:05Z</time>
      </trkpt>
      <trkpt lat="44.873" lon="4.59453">
        <ele>687.56298828125</ele>
        <time>2009-08-03T09:45:14Z</time>
      </trkpt>
      <trkpt lat="44.87282" lon="4.59445">
        <ele>686.78601074219</ele>
        <time>2009-08-03T09:45:20Z</time>
      </trkpt>
      <trkpt lat="44.8727" lon="4.59441">
        <ele>686.00402832031</ele>
        <time>2009-08-03T09:45:23Z</time>
      </trkpt>
      <trkpt lat="44.87236" lon="4.59426">
        <ele>685.21997070312</ele>
        <time>2009-08-03T09:45:30Z</time>
      </trkpt>
      <trkpt lat="44.87225" lon="4.59422">
        <ele>685.21997070312</ele>
        <time>2009-08-03T09:45:32Z</time>
      </trkpt>
      <trkpt lat="44.87207" lon="4.59419">
        <ele>684.20697021484</ele>
        <time>2009-08-03T09:45:35Z</time>
      </trkpt>
      <trkpt lat="44.87147" lon="4.59435">
        <ele>680.67297363281</ele>
        <time>2009-08-03T09:45:43Z</time>
      </trkpt>
      <trkpt lat="44.87109" lon="4.59437">
        <ele>677.73602294922</ele>
        <time>2009-08-03T09:45:47Z</time>
      </trkpt>
      <trkpt lat="44.87052" lon="4.59481">
        <ele>673.10900878906</ele>
        <time>2009-08-03T09:45:53Z</time>
      </trkpt>
      <trkpt lat="44.86994" lon="4.59469">
        <ele>668.72302246094</ele>
        <time>2009-08-03T09:45:59Z</time>
      </trkpt>
      <trkpt lat="44.8699" lon="4.59439">
        <ele>667.09100341797</ele>
        <time>2009-08-03T09:46:01Z</time>
      </trkpt>
      <trkpt lat="44.86989" lon="4.59424">
        <ele>666.91497802734</ele>
        <time>2009-08-03T09:46:02Z</time>
      </trkpt>
      <trkpt lat="44.86989" lon="4.59377">
        <ele>664.56701660156</ele>
        <time>2009-08-03T09:46:05Z</time>
      </trkpt>
      <trkpt lat="44.86998" lon="4.59313">
        <ele>660.29302978516</ele>
        <time>2009-08-03T09:46:09Z</time>
      </trkpt>
      <trkpt lat="44.86979" lon="4.59267">
        <ele>658.10601806641</ele>
        <time>2009-08-03T09:46:13Z</time>
      </trkpt>
      <trkpt lat="44.86939" lon="4.59275">
        <ele>656.98797607422</ele>
        <time>2009-08-03T09:46:17Z</time>
      </trkpt>
      <trkpt lat="44.86918" lon="4.59278">
        <ele>655.03997802734</ele>
        <time>2009-08-03T09:46:19Z</time>
      </trkpt>
      <trkpt lat="44.8685" lon="4.59232">
        <ele>650.10302734375</ele>
        <time>2009-08-03T09:46:26Z</time>
      </trkpt>
      <trkpt lat="44.8684" lon="4.59233">
        <ele>649.63299560547</ele>
        <time>2009-08-03T09:46:27Z</time>
      </trkpt>
      <trkpt lat="44.86724" lon="4.59199">
        <ele>642.71899414062</ele>
        <time>2009-08-03T09:46:37Z</time>
      </trkpt>
      <trkpt lat="44.867" lon="4.59188">
        <ele>641.82800292969</ele>
        <time>2009-08-03T09:46:39Z</time>
      </trkpt>
      <trkpt lat="44.86644" lon="4.59143">
        <ele>637.71197509766</ele>
        <time>2009-08-03T09:46:44Z</time>
      </trkpt>
      <trkpt lat="44.8659" lon="4.59091">
        <ele>633.18798828125</ele>
        <time>2009-08-03T09:46:49Z</time>
      </trkpt>
      <trkpt lat="44.86538" lon="4.59013">
        <ele>627.01000976562</ele>
        <time>2009-08-03T09:46:55Z</time>
      </trkpt>
      <trkpt lat="44.86479" lon="4.59029">
        <ele>624.77801513672</ele>
        <time>2009-08-03T09:47:00Z</time>
      </trkpt>
      <trkpt lat="44.86412" lon="4.59072">
        <ele>621.32501220703</ele>
        <time>2009-08-03T09:47:06Z</time>
      </trkpt>
      <trkpt lat="44.86362" lon="4.59084">
        <ele>617.24401855469</ele>
        <time>2009-08-03T09:47:10Z</time>
      </trkpt>
      <trkpt lat="44.86316" lon="4.59051">
        <ele>613.78997802734</ele>
        <time>2009-08-03T09:47:14Z</time>
      </trkpt>
      <trkpt lat="44.86247" lon="4.58989">
        <ele>608.43103027344</ele>
        <time>2009-08-03T09:47:20Z</time>
      </trkpt>
      <trkpt lat="44.86235" lon="4.5898">
        <ele>607.458984375</ele>
        <time>2009-08-03T09:47:21Z</time>
      </trkpt>
      <trkpt lat="44.86188" lon="4.5894">
        <ele>604.15899658203</ele>
        <time>2009-08-03T09:47:25Z</time>
      </trkpt>
      <trkpt lat="44.86134" lon="4.58927">
        <ele>599.55603027344</ele>
        <time>2009-08-03T09:47:29Z</time>
      </trkpt>
      <trkpt lat="44.86078" lon="4.5893">
        <ele>596.32501220703</ele>
        <time>2009-08-03T09:47:33Z</time>
      </trkpt>
      <trkpt lat="44.86026" lon="4.58883">
        <ele>592.06597900391</ele>
        <time>2009-08-03T09:47:38Z</time>
      </trkpt>
      <trkpt lat="44.85983" lon="4.58856">
        <ele>589.23901367188</ele>
        <time>2009-08-03T09:47:42Z</time>
      </trkpt>
      <trkpt lat="44.85951" lon="4.58871">
        <ele>585.40600585938</ele>
        <time>2009-08-03T09:47:45Z</time>
      </trkpt>
      <trkpt lat="44.85938" lon="4.58879">
        <ele>584.03997802734</ele>
        <time>2009-08-03T09:47:46Z</time>
      </trkpt>
      <trkpt lat="44.85925" lon="4.58887">
        <ele>582.61297607422</ele>
        <time>2009-08-03T09:47:47Z</time>
      </trkpt>
      <trkpt lat="44.85887" lon="4.58936">
        <ele>580.69299316406</ele>
        <time>2009-08-03T09:47:51Z</time>
      </trkpt>
      <trkpt lat="44.85847" lon="4.59">
        <ele>580.57098388672</ele>
        <time>2009-08-03T09:48:00Z</time>
      </trkpt>
      <trkpt lat="44.85829" lon="4.59021">
        <ele>580.56799316406</ele>
        <time>2009-08-03T09:48:05Z</time>
      </trkpt>
      <trkpt lat="44.85822" lon="4.59026">
        <ele>581.19097900391</ele>
        <time>2009-08-03T09:48:07Z</time>
      </trkpt>
      <trkpt lat="44.85821" lon="4.59026">
        <ele>581.23602294922</ele>
        <time>2009-08-03T09:48:08Z</time>
      </trkpt>
      <trkpt lat="44.85819" lon="4.5903">
        <ele>581.2919921875</ele>
        <time>2009-08-03T09:48:13Z</time>
      </trkpt>
      <trkpt lat="44.85818" lon="4.5903">
        <ele>581.26098632812</ele>
        <time>2009-08-03T09:48:14Z</time>
      </trkpt>
      <trkpt lat="44.85816" lon="4.59034">
        <ele>580.91998291016</ele>
        <time>2009-08-03T09:48:18Z</time>
      </trkpt>
      <trkpt lat="44.85808" lon="4.59043">
        <ele>580.57800292969</ele>
        <time>2009-08-03T09:48:22Z</time>
      </trkpt>
      <trkpt lat="44.85799" lon="4.59059">
        <ele>580.21899414062</ele>
        <time>2009-08-03T09:48:25Z</time>
      </trkpt>
      <trkpt lat="44.85794" lon="4.59072">
        <ele>580.47100830078</ele>
        <time>2009-08-03T09:48:27Z</time>
      </trkpt>
      <trkpt lat="44.85794" lon="4.59113">
        <ele>580.60498046875</ele>
        <time>2009-08-03T09:48:32Z</time>
      </trkpt>
      <trkpt lat="44.85794" lon="4.59123">
        <ele>580.67297363281</ele>
        <time>2009-08-03T09:48:33Z</time>
      </trkpt>
      <trkpt lat="44.85794" lon="4.59143">
        <ele>581.04901123047</ele>
        <time>2009-08-03T09:48:35Z</time>
      </trkpt>
      <trkpt lat="44.85788" lon="4.59194">
        <ele>581.60400390625</ele>
        <time>2009-08-03T09:48:40Z</time>
      </trkpt>
      <trkpt lat="44.85788" lon="4.59235">
        <ele>581.91302490234</ele>
        <time>2009-08-03T09:48:44Z</time>
      </trkpt>
      <trkpt lat="44.85788" lon="4.59276">
        <ele>582.23999023438</ele>
        <time>2009-08-03T09:48:48Z</time>
      </trkpt>
      <trkpt lat="44.85772" lon="4.59332">
        <ele>582.53302001953</ele>
        <time>2009-08-03T09:48:54Z</time>
      </trkpt>
      <trkpt lat="44.85757" lon="4.59369">
        <ele>582.70202636719</ele>
        <time>2009-08-03T09:48:58Z</time>
      </trkpt>
      <trkpt lat="44.85722" lon="4.59444">
        <ele>583.06201171875</ele>
        <time>2009-08-03T09:49:07Z</time>
      </trkpt>
      <trkpt lat="44.85681" lon="4.59482">
        <ele>583.39898681641</ele>
        <time>2009-08-03T09:49:14Z</time>
      </trkpt>
      <trkpt lat="44.85639" lon="4.59496">
        <ele>583.24700927734</ele>
        <time>2009-08-03T09:49:19Z</time>
      </trkpt>
      <trkpt lat="44.85631" lon="4.59498">
        <ele>583.41400146484</ele>
        <time>2009-08-03T09:49:20Z</time>
      </trkpt>
      <trkpt lat="44.85572" lon="4.59528">
        <ele>583.17999267578</ele>
        <time>2009-08-03T09:49:27Z</time>
      </trkpt>
      <trkpt lat="44.85555" lon="4.59537">
        <ele>583.52502441406</ele>
        <time>2009-08-03T09:49:29Z</time>
      </trkpt>
      <trkpt lat="44.85529" lon="4.59553">
        <ele>583.27099609375</ele>
        <time>2009-08-03T09:49:32Z</time>
      </trkpt>
      <trkpt lat="44.85492" lon="4.5956">
        <ele>582.79901123047</ele>
        <time>2009-08-03T09:49:36Z</time>
      </trkpt>
      <trkpt lat="44.8545" lon="4.59554">
        <ele>582.53698730469</ele>
        <time>2009-08-03T09:49:41Z</time>
      </trkpt>
      <trkpt lat="44.85439" lon="4.59584">
        <ele>583.02197265625</ele>
        <time>2009-08-03T09:49:44Z</time>
      </trkpt>
      <trkpt lat="44.85435" lon="4.59596">
        <ele>582.84899902344</ele>
        <time>2009-08-03T09:49:45Z</time>
      </trkpt>
      <trkpt lat="44.8541" lon="4.59677">
        <ele>583.06298828125</ele>
        <time>2009-08-03T09:49:53Z</time>
      </trkpt>
      <trkpt lat="44.85324" lon="4.59777">
        <ele>581.45697021484</ele>
        <time>2009-08-03T09:50:06Z</time>
      </trkpt>
      <trkpt lat="44.85308" lon="4.59806">
        <ele>580.94799804688</ele>
        <time>2009-08-03T09:50:09Z</time>
      </trkpt>
      <trkpt lat="44.85283" lon="4.59896">
        <ele>580.21502685547</ele>
        <time>2009-08-03T09:50:17Z</time>
      </trkpt>
      <trkpt lat="44.85257" lon="4.59944">
        <ele>579.32202148438</ele>
        <time>2009-08-03T09:50:22Z</time>
      </trkpt>
      <trkpt lat="44.85237" lon="4.60008">
        <ele>579.31402587891</ele>
        <time>2009-08-03T09:50:28Z</time>
      </trkpt>
      <trkpt lat="44.85185" lon="4.60061">
        <ele>578.11297607422</ele>
        <time>2009-08-03T09:50:36Z</time>
      </trkpt>
      <trkpt lat="44.85176" lon="4.60062">
        <ele>578.07397460938</ele>
        <time>2009-08-03T09:50:37Z</time>
      </trkpt>
      <trkpt lat="44.85141" lon="4.60061">
        <ele>577.56701660156</ele>
        <time>2009-08-03T09:50:41Z</time>
      </trkpt>
      <trkpt lat="44.85102" lon="4.60037">
        <ele>577.14501953125</ele>
        <time>2009-08-03T09:50:46Z</time>
      </trkpt>
      <trkpt lat="44.85044" lon="4.60026">
        <ele>576.82098388672</ele>
        <time>2009-08-03T09:50:54Z</time>
      </trkpt>
      <trkpt lat="44.85029" lon="4.60039">
        <ele>576.61901855469</ele>
        <time>2009-08-03T09:50:56Z</time>
      </trkpt>
      <trkpt lat="44.85013" lon="4.60053">
        <ele>576.10699462891</ele>
        <time>2009-08-03T09:50:58Z</time>
      </trkpt>
      <trkpt lat="44.84983" lon="4.60101">
        <ele>576.03900146484</ele>
        <time>2009-08-03T09:51:03Z</time>
      </trkpt>
      <trkpt lat="44.84967" lon="4.60136">
        <ele>576.16198730469</ele>
        <time>2009-08-03T09:51:06Z</time>
      </trkpt>
      <trkpt lat="44.84901" lon="4.60158">
        <ele>576.26898193359</ele>
        <time>2009-08-03T09:51:14Z</time>
      </trkpt>
      <trkpt lat="44.84866" lon="4.6011">
        <ele>575.46002197266</ele>
        <time>2009-08-03T09:51:20Z</time>
      </trkpt>
      <trkpt lat="44.84866" lon="4.60097">
        <ele>575.42797851562</ele>
        <time>2009-08-03T09:51:21Z</time>
      </trkpt>
      <trkpt lat="44.84841" lon="4.59984">
        <ele>573.66900634766</ele>
        <time>2009-08-03T09:51:30Z</time>
      </trkpt>
      <trkpt lat="44.8484" lon="4.59934">
        <ele>572.89099121094</ele>
        <time>2009-08-03T09:51:34Z</time>
      </trkpt>
      <trkpt lat="44.84835" lon="4.59873">
        <ele>571.72399902344</ele>
        <time>2009-08-03T09:51:39Z</time>
      </trkpt>
      <trkpt lat="44.84818" lon="4.59831">
        <ele>571.43499755859</ele>
        <time>2009-08-03T09:51:43Z</time>
      </trkpt>
      <trkpt lat="44.84808" lon="4.59785">
        <ele>570.66101074219</ele>
        <time>2009-08-03T09:51:47Z</time>
      </trkpt>
      <trkpt lat="44.84792" lon="4.59731">
        <ele>570.52398681641</ele>
        <time>2009-08-03T09:51:52Z</time>
      </trkpt>
      <trkpt lat="44.84752" lon="4.59738">
        <ele>570.8330078125</ele>
        <time>2009-08-03T09:51:58Z</time>
      </trkpt>
      <trkpt lat="44.84747" lon="4.59746">
        <ele>570.55700683594</ele>
        <time>2009-08-03T09:51:59Z</time>
      </trkpt>
      <trkpt lat="44.84743" lon="4.59756">
        <ele>570.48602294922</ele>
        <time>2009-08-03T09:52:00Z</time>
      </trkpt>
      <trkpt lat="44.84736" lon="4.59779">
        <ele>569.72100830078</ele>
        <time>2009-08-03T09:52:02Z</time>
      </trkpt>
      <trkpt lat="44.84695" lon="4.59845">
        <ele>569.21002197266</ele>
        <time>2009-08-03T09:52:09Z</time>
      </trkpt>
      <trkpt lat="44.84672" lon="4.59894">
        <ele>569.17102050781</ele>
        <time>2009-08-03T09:52:14Z</time>
      </trkpt>
      <trkpt lat="44.84633" lon="4.5992">
        <ele>568.25701904297</ele>
        <time>2009-08-03T09:52:19Z</time>
      </trkpt>
      <trkpt lat="44.84595" lon="4.5992">
        <ele>567.11901855469</ele>
        <time>2009-08-03T09:52:23Z</time>
      </trkpt>
      <trkpt lat="44.84557" lon="4.59902">
        <ele>565.29400634766</ele>
        <time>2009-08-03T09:52:27Z</time>
      </trkpt>
      <trkpt lat="44.8453" lon="4.59885">
        <ele>564.92999267578</ele>
        <time>2009-08-03T09:52:30Z</time>
      </trkpt>
      <trkpt lat="44.84501" lon="4.59846">
        <ele>562.57800292969</ele>
        <time>2009-08-03T09:52:34Z</time>
      </trkpt>
      <trkpt lat="44.84483" lon="4.59812">
        <ele>562.0009765625</ele>
        <time>2009-08-03T09:52:37Z</time>
      </trkpt>
      <trkpt lat="44.84474" lon="4.59764">
        <ele>561.48901367188</ele>
        <time>2009-08-03T09:52:41Z</time>
      </trkpt>
      <trkpt lat="44.84436" lon="4.5967">
        <ele>559.94500732422</ele>
        <time>2009-08-03T09:52:50Z</time>
      </trkpt>
      <trkpt lat="44.84401" lon="4.59666">
        <ele>559.44799804688</ele>
        <time>2009-08-03T09:52:54Z</time>
      </trkpt>
      <trkpt lat="44.84342" lon="4.59686">
        <ele>558.28802490234</ele>
        <time>2009-08-03T09:53:01Z</time>
      </trkpt>
      <trkpt lat="44.84319" lon="4.59743">
        <ele>557.90600585938</ele>
        <time>2009-08-03T09:53:07Z</time>
      </trkpt>
      <trkpt lat="44.8432" lon="4.59785">
        <ele>557.93597412109</ele>
        <time>2009-08-03T09:53:11Z</time>
      </trkpt>
      <trkpt lat="44.84318" lon="4.59808">
        <ele>557.708984375</ele>
        <time>2009-08-03T09:53:13Z</time>
      </trkpt>
      <trkpt lat="44.84309" lon="4.59843">
        <ele>557.51300048828</ele>
        <time>2009-08-03T09:53:16Z</time>
      </trkpt>
      <trkpt lat="44.84271" lon="4.59938">
        <ele>557.61798095703</ele>
        <time>2009-08-03T09:53:25Z</time>
      </trkpt>
      <trkpt lat="44.84246" lon="4.60045">
        <ele>557.60601806641</ele>
        <time>2009-08-03T09:53:34Z</time>
      </trkpt>
      <trkpt lat="44.84187" lon="4.60114">
        <ele>557.91998291016</ele>
        <time>2009-08-03T09:53:43Z</time>
      </trkpt>
      <trkpt lat="44.84095" lon="4.60171">
        <ele>557.8759765625</ele>
        <time>2009-08-03T09:53:55Z</time>
      </trkpt>
      <trkpt lat="44.84036" lon="4.6023">
        <ele>555.28100585938</ele>
        <time>2009-08-03T09:54:03Z</time>
      </trkpt>
      <trkpt lat="44.84023" lon="4.60242">
        <ele>554.01702880859</ele>
        <time>2009-08-03T09:54:05Z</time>
      </trkpt>
      <trkpt lat="44.83986" lon="4.60242">
        <ele>551.31597900391</ele>
        <time>2009-08-03T09:54:09Z</time>
      </trkpt>
      <trkpt lat="44.83968" lon="4.60236">
        <ele>550.49298095703</ele>
        <time>2009-08-03T09:54:11Z</time>
      </trkpt>
      <trkpt lat="44.83944" lon="4.60239">
        <ele>549.97998046875</ele>
        <time>2009-08-03T09:54:14Z</time>
      </trkpt>
      <trkpt lat="44.83911" lon="4.60253">
        <ele>549.65197753906</ele>
        <time>2009-08-03T09:54:18Z</time>
      </trkpt>
      <trkpt lat="44.83886" lon="4.60257">
        <ele>548.34399414062</ele>
        <time>2009-08-03T09:54:21Z</time>
      </trkpt>
      <trkpt lat="44.83841" lon="4.60259">
        <ele>546.06597900391</ele>
        <time>2009-08-03T09:54:26Z</time>
      </trkpt>
      <trkpt lat="44.83804" lon="4.60246">
        <ele>543.48999023438</ele>
        <time>2009-08-03T09:54:30Z</time>
      </trkpt>
      <trkpt lat="44.83755" lon="4.60216">
        <ele>540.22900390625</ele>
        <time>2009-08-03T09:54:35Z</time>
      </trkpt>
      <trkpt lat="44.83702" lon="4.60192">
        <ele>537.27801513672</ele>
        <time>2009-08-03T09:54:40Z</time>
      </trkpt>
      <trkpt lat="44.83672" lon="4.60175">
        <ele>535.36798095703</ele>
        <time>2009-08-03T09:54:43Z</time>
      </trkpt>
      <trkpt lat="44.83635" lon="4.60195">
        <ele>532.56298828125</ele>
        <time>2009-08-03T09:54:48Z</time>
      </trkpt>
      <trkpt lat="44.8361" lon="4.60252">
        <ele>529.83197021484</ele>
        <time>2009-08-03T09:54:53Z</time>
      </trkpt>
      <trkpt lat="44.83613" lon="4.60319">
        <ele>527.14898681641</ele>
        <time>2009-08-03T09:54:58Z</time>
      </trkpt>
      <trkpt lat="44.83617" lon="4.60332">
        <ele>526.35302734375</ele>
        <time>2009-08-03T09:54:59Z</time>
      </trkpt>
      <trkpt lat="44.8365" lon="4.60446">
        <ele>521.65997314453</ele>
        <time>2009-08-03T09:55:07Z</time>
      </trkpt>
      <trkpt lat="44.83665" lon="4.60489">
        <ele>520.16302490234</ele>
        <time>2009-08-03T09:55:10Z</time>
      </trkpt>
      <trkpt lat="44.83686" lon="4.60543">
        <ele>517.43402099609</ele>
        <time>2009-08-03T09:55:14Z</time>
      </trkpt>
      <trkpt lat="44.8369" lon="4.60556">
        <ele>516.52899169922</ele>
        <time>2009-08-03T09:55:15Z</time>
      </trkpt>
      <trkpt lat="44.83689" lon="4.60613">
        <ele>514.14697265625</ele>
        <time>2009-08-03T09:55:19Z</time>
      </trkpt>
      <trkpt lat="44.83649" lon="4.60651">
        <ele>511.00299072266</ele>
        <time>2009-08-03T09:55:24Z</time>
      </trkpt>
      <trkpt lat="44.83618" lon="4.60647">
        <ele>508.94799804688</ele>
        <time>2009-08-03T09:55:27Z</time>
      </trkpt>
      <trkpt lat="44.83586" lon="4.60637">
        <ele>507.58801269531</ele>
        <time>2009-08-03T09:55:30Z</time>
      </trkpt>
      <trkpt lat="44.83514" lon="4.60675">
        <ele>502.15301513672</ele>
        <time>2009-08-03T09:55:37Z</time>
      </trkpt>
      <trkpt lat="44.83498" lon="4.607">
        <ele>501.57501220703</ele>
        <time>2009-08-03T09:55:39Z</time>
      </trkpt>
      <trkpt lat="44.83477" lon="4.60748">
        <ele>500.10400390625</ele>
        <time>2009-08-03T09:55:43Z</time>
      </trkpt>
      <trkpt lat="44.83464" lon="4.60783">
        <ele>499.64999389648</ele>
        <time>2009-08-03T09:55:47Z</time>
      </trkpt>
      <trkpt lat="44.83461" lon="4.60788">
        <ele>500.04998779297</ele>
        <time>2009-08-03T09:55:49Z</time>
      </trkpt>
      <trkpt lat="44.83464" lon="4.60788">
        <ele>499.95599365234</ele>
        <time>2009-08-03T09:55:56Z</time>
      </trkpt>
      <trkpt lat="44.8347" lon="4.60776">
        <ele>500.38900756836</ele>
        <time>2009-08-03T09:56:01Z</time>
      </trkpt>
      <trkpt lat="44.83476" lon="4.60755">
        <ele>501.05801391602</ele>
        <time>2009-08-03T09:56:06Z</time>
      </trkpt>
      <trkpt lat="44.8348" lon="4.60754">
        <ele>501.41101074219</ele>
        <time>2009-08-03T09:56:11Z</time>
      </trkpt>
      <trkpt lat="44.83482" lon="4.60753">
        <ele>501.45199584961</ele>
        <time>2009-08-03T09:56:25Z</time>
      </trkpt>
      <trkpt lat="44.83483" lon="4.60753">
        <ele>501.17199707031</ele>
        <time>2009-08-03T09:56:28Z</time>
      </trkpt>
      <trkpt lat="44.83481" lon="4.60756">
        <ele>500.76098632812</ele>
        <time>2009-08-03T09:57:03Z</time>
      </trkpt>
      <trkpt lat="44.8348" lon="4.60757">
        <ele>500.72500610352</ele>
        <time>2009-08-03T09:57:04Z</time>
      </trkpt>
      <trkpt lat="44.83469" lon="4.60778">
        <ele>499.63101196289</ele>
        <time>2009-08-03T09:57:10Z</time>
      </trkpt>
      <trkpt lat="44.83449" lon="4.608">
        <ele>498.38101196289</ele>
        <time>2009-08-03T09:57:19Z</time>
      </trkpt>
      <trkpt lat="44.83443" lon="4.60802">
        <ele>498.15899658203</ele>
        <time>2009-08-03T09:57:22Z</time>
      </trkpt>
      <trkpt lat="44.83434" lon="4.60803">
        <ele>497.45199584961</ele>
        <time>2009-08-03T09:57:26Z</time>
      </trkpt>
      <trkpt lat="44.8343" lon="4.60803">
        <ele>497.41400146484</ele>
        <time>2009-08-03T09:57:27Z</time>
      </trkpt>
      <trkpt lat="44.83407" lon="4.60798">
        <ele>495.60800170898</ele>
        <time>2009-08-03T09:57:32Z</time>
      </trkpt>
      <trkpt lat="44.83384" lon="4.60791">
        <ele>493.66799926758</ele>
        <time>2009-08-03T09:57:36Z</time>
      </trkpt>
      <trkpt lat="44.83353" lon="4.60812">
        <ele>491.55099487305</ele>
        <time>2009-08-03T09:57:41Z</time>
      </trkpt>
      <trkpt lat="44.83324" lon="4.6086">
        <ele>487.57998657227</ele>
        <time>2009-08-03T09:57:46Z</time>
      </trkpt>
      <trkpt lat="44.83296" lon="4.60854">
        <ele>486.25698852539</ele>
        <time>2009-08-03T09:57:49Z</time>
      </trkpt>
      <trkpt lat="44.83263" lon="4.60799">
        <ele>483.12799072266</ele>
        <time>2009-08-03T09:57:55Z</time>
      </trkpt>
      <trkpt lat="44.83244" lon="4.60765">
        <ele>481.76599121094</ele>
        <time>2009-08-03T09:57:58Z</time>
      </trkpt>
      <trkpt lat="44.83229" lon="4.60745">
        <ele>480.58599853516</ele>
        <time>2009-08-03T09:58:00Z</time>
      </trkpt>
      <trkpt lat="44.83189" lon="4.60699">
        <ele>478.09799194336</ele>
        <time>2009-08-03T09:58:05Z</time>
      </trkpt>
      <trkpt lat="44.83173" lon="4.60681">
        <ele>476.7919921875</ele>
        <time>2009-08-03T09:58:07Z</time>
      </trkpt>
      <trkpt lat="44.83143" lon="4.60672">
        <ele>475.53500366211</ele>
        <time>2009-08-03T09:58:10Z</time>
      </trkpt>
      <trkpt lat="44.83112" lon="4.60713">
        <ele>471.87899780273</ele>
        <time>2009-08-03T09:58:14Z</time>
      </trkpt>
      <trkpt lat="44.83106" lon="4.60727">
        <ele>471.43399047852</ele>
        <time>2009-08-03T09:58:15Z</time>
      </trkpt>
      <trkpt lat="44.83081" lon="4.60763">
        <ele>469.57998657227</ele>
        <time>2009-08-03T09:58:18Z</time>
      </trkpt>
      <trkpt lat="44.83053" lon="4.6083">
        <ele>467.0119934082</ele>
        <time>2009-08-03T09:58:23Z</time>
      </trkpt>
      <trkpt lat="44.83053" lon="4.60862">
        <ele>465.88000488281</ele>
        <time>2009-08-03T09:58:25Z</time>
      </trkpt>
      <trkpt lat="44.83061" lon="4.6096">
        <ele>461.38598632812</ele>
        <time>2009-08-03T09:58:31Z</time>
      </trkpt>
      <trkpt lat="44.83062" lon="4.60976">
        <ele>460.89498901367</ele>
        <time>2009-08-03T09:58:32Z</time>
      </trkpt>
      <trkpt lat="44.83073" lon="4.61021">
        <ele>460.44100952148</ele>
        <time>2009-08-03T09:58:35Z</time>
      </trkpt>
      <trkpt lat="44.83067" lon="4.61098">
        <ele>457.17001342773</ele>
        <time>2009-08-03T09:58:40Z</time>
      </trkpt>
      <trkpt lat="44.83056" lon="4.61128">
        <ele>456.57299804688</ele>
        <time>2009-08-03T09:58:44Z</time>
      </trkpt>
      <trkpt lat="44.83053" lon="4.61129">
        <ele>456.62399291992</ele>
        <time>2009-08-03T09:58:45Z</time>
      </trkpt>
      <trkpt lat="44.83051" lon="4.61129">
        <ele>456.42599487305</ele>
        <time>2009-08-03T09:58:46Z</time>
      </trkpt>
      <trkpt lat="44.83043" lon="4.61127">
        <ele>456.10900878906</ele>
        <time>2009-08-03T09:58:50Z</time>
      </trkpt>
      <trkpt lat="44.83042" lon="4.61125">
        <ele>456.125</ele>
        <time>2009-08-03T09:58:52Z</time>
      </trkpt>
      <trkpt lat="44.83039" lon="4.61113">
        <ele>455.15100097656</ele>
        <time>2009-08-03T09:58:59Z</time>
      </trkpt>
      <trkpt lat="44.83021" lon="4.61088">
        <ele>453.02899169922</ele>
        <time>2009-08-03T09:59:05Z</time>
      </trkpt>
      <trkpt lat="44.82954" lon="4.61037">
        <ele>447.57998657227</ele>
        <time>2009-08-03T09:59:16Z</time>
      </trkpt>
      <trkpt lat="44.82915" lon="4.60989">
        <ele>444.75601196289</ele>
        <time>2009-08-03T09:59:22Z</time>
      </trkpt>
      <trkpt lat="44.82899" lon="4.60974">
        <ele>443.8219909668</ele>
        <time>2009-08-03T09:59:24Z</time>
      </trkpt>
      <trkpt lat="44.82883" lon="4.60958">
        <ele>442.14401245117</ele>
        <time>2009-08-03T09:59:26Z</time>
      </trkpt>
      <trkpt lat="44.82875" lon="4.60949">
        <ele>441.66299438477</ele>
        <time>2009-08-03T09:59:27Z</time>
      </trkpt>
      <trkpt lat="44.82861" lon="4.60929">
        <ele>440.69799804688</ele>
        <time>2009-08-03T09:59:29Z</time>
      </trkpt>
      <trkpt lat="44.82807" lon="4.60923">
        <ele>436.67700195312</ele>
        <time>2009-08-03T09:59:35Z</time>
      </trkpt>
      <trkpt lat="44.82799" lon="4.60933">
        <ele>436.3039855957</ele>
        <time>2009-08-03T09:59:36Z</time>
      </trkpt>
      <trkpt lat="44.82785" lon="4.60954">
        <ele>435.35400390625</ele>
        <time>2009-08-03T09:59:38Z</time>
      </trkpt>
      <trkpt lat="44.82731" lon="4.60963">
        <ele>432.19299316406</ele>
        <time>2009-08-03T09:59:44Z</time>
      </trkpt>
      <trkpt lat="44.82682" lon="4.60904">
        <ele>428.03500366211</ele>
        <time>2009-08-03T09:59:50Z</time>
      </trkpt>
      <trkpt lat="44.82616" lon="4.60899">
        <ele>424.44900512695</ele>
        <time>2009-08-03T09:59:56Z</time>
      </trkpt>
      <trkpt lat="44.82592" lon="4.60928">
        <ele>423.21099853516</ele>
        <time>2009-08-03T10:00:00Z</time>
      </trkpt>
      <trkpt lat="44.82587" lon="4.60991">
        <ele>420.39001464844</ele>
        <time>2009-08-03T10:00:05Z</time>
      </trkpt>
      <trkpt lat="44.8258" lon="4.61048">
        <ele>419.82000732422</ele>
        <time>2009-08-03T10:00:11Z</time>
      </trkpt>
      <trkpt lat="44.82584" lon="4.61063">
        <ele>419.39401245117</ele>
        <time>2009-08-03T10:00:13Z</time>
      </trkpt>
      <trkpt lat="44.82583" lon="4.61097">
        <ele>417.91500854492</ele>
        <time>2009-08-03T10:00:17Z</time>
      </trkpt>
      <trkpt lat="44.82588" lon="4.61143">
        <ele>414.47698974609</ele>
        <time>2009-08-03T10:00:22Z</time>
      </trkpt>
      <trkpt lat="44.82595" lon="4.61179">
        <ele>413.91598510742</ele>
        <time>2009-08-03T10:00:26Z</time>
      </trkpt>
      <trkpt lat="44.82603" lon="4.61207">
        <ele>412.59201049805</ele>
        <time>2009-08-03T10:00:29Z</time>
      </trkpt>
      <trkpt lat="44.82607" lon="4.61228">
        <ele>412.10800170898</ele>
        <time>2009-08-03T10:00:31Z</time>
      </trkpt>
      <trkpt lat="44.82608" lon="4.61259">
        <ele>411.32400512695</ele>
        <time>2009-08-03T10:00:34Z</time>
      </trkpt>
      <trkpt lat="44.82597" lon="4.6133">
        <ele>408.91900634766</ele>
        <time>2009-08-03T10:00:41Z</time>
      </trkpt>
      <trkpt lat="44.82608" lon="4.61367">
        <ele>407.16000366211</ele>
        <time>2009-08-03T10:00:45Z</time>
      </trkpt>
      <trkpt lat="44.8261" lon="4.61386">
        <ele>407.12100219727</ele>
        <time>2009-08-03T10:00:48Z</time>
      </trkpt>
      <trkpt lat="44.8261" lon="4.61394">
        <ele>406.89001464844</ele>
        <time>2009-08-03T10:00:52Z</time>
      </trkpt>
      <trkpt lat="44.82616" lon="4.61399">
        <ele>405.08999633789</ele>
        <time>2009-08-03T10:02:21Z</time>
      </trkpt>
      <trkpt lat="44.82626" lon="4.61415">
        <ele>404.62200927734</ele>
        <time>2009-08-03T10:02:25Z</time>
      </trkpt>
      <trkpt lat="44.82643" lon="4.61425">
        <ele>403.62799072266</ele>
        <time>2009-08-03T10:02:29Z</time>
      </trkpt>
      <trkpt lat="44.82663" lon="4.61461">
        <ele>401.55200195312</ele>
        <time>2009-08-03T10:02:35Z</time>
      </trkpt>
      <trkpt lat="44.82666" lon="4.61504">
        <ele>399.32998657227</ele>
        <time>2009-08-03T10:02:39Z</time>
      </trkpt>
      <trkpt lat="44.82662" lon="4.61562">
        <ele>396.52700805664</ele>
        <time>2009-08-03T10:02:45Z</time>
      </trkpt>
      <trkpt lat="44.82603" lon="4.61621">
        <ele>392.79800415039</ele>
        <time>2009-08-03T10:02:53Z</time>
      </trkpt>
      <trkpt lat="44.82579" lon="4.61664">
        <ele>389.84298706055</ele>
        <time>2009-08-03T10:02:57Z</time>
      </trkpt>
      <trkpt lat="44.82537" lon="4.61746">
        <ele>386.20999145508</ele>
        <time>2009-08-03T10:03:04Z</time>
      </trkpt>
      <trkpt lat="44.82531" lon="4.61756">
        <ele>386.20199584961</ele>
        <time>2009-08-03T10:03:05Z</time>
      </trkpt>
      <trkpt lat="44.82497" lon="4.61738">
        <ele>383.19100952148</ele>
        <time>2009-08-03T10:03:10Z</time>
      </trkpt>
      <trkpt lat="44.82477" lon="4.61712">
        <ele>381.89599609375</ele>
        <time>2009-08-03T10:03:13Z</time>
      </trkpt>
      <trkpt lat="44.82447" lon="4.61726">
        <ele>380.72500610352</ele>
        <time>2009-08-03T10:03:17Z</time>
      </trkpt>
      <trkpt lat="44.82426" lon="4.61754">
        <ele>377.83499145508</ele>
        <time>2009-08-03T10:03:20Z</time>
      </trkpt>
      <trkpt lat="44.82393" lon="4.61809">
        <ele>375.60501098633</ele>
        <time>2009-08-03T10:03:25Z</time>
      </trkpt>
      <trkpt lat="44.8236" lon="4.6187">
        <ele>372.46600341797</ele>
        <time>2009-08-03T10:03:30Z</time>
      </trkpt>
      <trkpt lat="44.82344" lon="4.61925">
        <ele>370.17001342773</ele>
        <time>2009-08-03T10:03:34Z</time>
      </trkpt>
      <trkpt lat="44.82332" lon="4.6195">
        <ele>368.74600219727</ele>
        <time>2009-08-03T10:03:36Z</time>
      </trkpt>
      <trkpt lat="44.82301" lon="4.61993">
        <ele>366.64999389648</ele>
        <time>2009-08-03T10:03:40Z</time>
      </trkpt>
      <trkpt lat="44.82265" lon="4.61988">
        <ele>363.9289855957</ele>
        <time>2009-08-03T10:03:44Z</time>
      </trkpt>
      <trkpt lat="44.82246" lon="4.61983">
        <ele>362.76800537109</ele>
        <time>2009-08-03T10:03:46Z</time>
      </trkpt>
      <trkpt lat="44.8221" lon="4.62002">
        <ele>361.71798706055</ele>
        <time>2009-08-03T10:03:50Z</time>
      </trkpt>
      <trkpt lat="44.82186" lon="4.62022">
        <ele>361.68798828125</ele>
        <time>2009-08-03T10:03:57Z</time>
      </trkpt>
      <trkpt lat="44.82169" lon="4.62013">
        <ele>360.08700561523</ele>
        <time>2009-08-03T10:04:02Z</time>
      </trkpt>
      <trkpt lat="44.82161" lon="4.62001">
        <ele>360.53500366211</ele>
        <time>2009-08-03T10:04:06Z</time>
      </trkpt>
      <trkpt lat="44.82161" lon="4.61997">
        <ele>360.75399780273</ele>
        <time>2009-08-03T10:04:08Z</time>
      </trkpt>
      <trkpt lat="44.82161" lon="4.61997">
        <ele>361.05801391602</ele>
        <time>2009-08-03T10:04:10Z</time>
      </trkpt>
      <trkpt lat="44.82175" lon="4.62018">
        <ele>360.6960144043</ele>
        <time>2009-08-03T10:08:21Z</time>
      </trkpt>
      <trkpt lat="44.82183" lon="4.62023">
        <ele>360.97299194336</ele>
        <time>2009-08-03T10:08:25Z</time>
      </trkpt>
      <trkpt lat="44.82182" lon="4.62034">
        <ele>361.18798828125</ele>
        <time>2009-08-03T10:08:29Z</time>
      </trkpt>
      <trkpt lat="44.82168" lon="4.6206">
        <ele>358.84100341797</ele>
        <time>2009-08-03T10:08:35Z</time>
      </trkpt>
      <trkpt lat="44.82154" lon="4.62096">
        <ele>355.78500366211</ele>
        <time>2009-08-03T10:08:39Z</time>
      </trkpt>
      <trkpt lat="44.82153" lon="4.62154">
        <ele>353.25500488281</ele>
        <time>2009-08-03T10:08:44Z</time>
      </trkpt>
      <trkpt lat="44.82119" lon="4.62202">
        <ele>349.86099243164</ele>
        <time>2009-08-03T10:08:49Z</time>
      </trkpt>
      <trkpt lat="44.82096" lon="4.62281">
        <ele>346.06100463867</ele>
        <time>2009-08-03T10:08:55Z</time>
      </trkpt>
      <trkpt lat="44.82076" lon="4.62349">
        <ele>342.37701416016</ele>
        <time>2009-08-03T10:09:00Z</time>
      </trkpt>
      <trkpt lat="44.82075" lon="4.62406">
        <ele>341.24700927734</ele>
        <time>2009-08-03T10:09:04Z</time>
      </trkpt>
      <trkpt lat="44.82062" lon="4.62433">
        <ele>339.37200927734</ele>
        <time>2009-08-03T10:09:07Z</time>
      </trkpt>
      <trkpt lat="44.82022" lon="4.6246">
        <ele>336.19400024414</ele>
        <time>2009-08-03T10:09:13Z</time>
      </trkpt>
      <trkpt lat="44.82007" lon="4.62444">
        <ele>335.23699951172</ele>
        <time>2009-08-03T10:09:15Z</time>
      </trkpt>
      <trkpt lat="44.81974" lon="4.624">
        <ele>332.28900146484</ele>
        <time>2009-08-03T10:09:20Z</time>
      </trkpt>
      <trkpt lat="44.81963" lon="4.62378">
        <ele>331.06298828125</ele>
        <time>2009-08-03T10:09:22Z</time>
      </trkpt>
      <trkpt lat="44.81938" lon="4.62335">
        <ele>328.9289855957</ele>
        <time>2009-08-03T10:09:26Z</time>
      </trkpt>
      <trkpt lat="44.81911" lon="4.62273">
        <ele>325.99200439453</ele>
        <time>2009-08-03T10:09:31Z</time>
      </trkpt>
      <trkpt lat="44.81881" lon="4.62195">
        <ele>322.85198974609</ele>
        <time>2009-08-03T10:09:37Z</time>
      </trkpt>
      <trkpt lat="44.81868" lon="4.62171">
        <ele>321.82000732422</ele>
        <time>2009-08-03T10:09:39Z</time>
      </trkpt>
      <trkpt lat="44.81833" lon="4.62185">
        <ele>320.01000976562</ele>
        <time>2009-08-03T10:09:43Z</time>
      </trkpt>
      <trkpt lat="44.81821" lon="4.62217">
        <ele>319.75201416016</ele>
        <time>2009-08-03T10:09:46Z</time>
      </trkpt>
      <trkpt lat="44.81816" lon="4.62226">
        <ele>319.12298583984</ele>
        <time>2009-08-03T10:09:47Z</time>
      </trkpt>
      <trkpt lat="44.81795" lon="4.6226">
        <ele>317.5710144043</ele>
        <time>2009-08-03T10:09:51Z</time>
      </trkpt>
      <trkpt lat="44.81768" lon="4.62269">
        <ele>316.22100830078</ele>
        <time>2009-08-03T10:09:55Z</time>
      </trkpt>
      <trkpt lat="44.81753" lon="4.62261">
        <ele>315.79800415039</ele>
        <time>2009-08-03T10:09:57Z</time>
      </trkpt>
      <trkpt lat="44.8174" lon="4.62252">
        <ele>315.03100585938</ele>
        <time>2009-08-03T10:09:59Z</time>
      </trkpt>
      <trkpt lat="44.81727" lon="4.62243">
        <ele>313.8450012207</ele>
        <time>2009-08-03T10:10:01Z</time>
      </trkpt>
      <trkpt lat="44.81716" lon="4.62255">
        <ele>313.02700805664</ele>
        <time>2009-08-03T10:10:03Z</time>
      </trkpt>
      <trkpt lat="44.81712" lon="4.62264">
        <ele>312.5119934082</ele>
        <time>2009-08-03T10:10:04Z</time>
      </trkpt>
      <trkpt lat="44.81704" lon="4.62287">
        <ele>312.01400756836</ele>
        <time>2009-08-03T10:10:06Z</time>
      </trkpt>
      <trkpt lat="44.81701" lon="4.62298">
        <ele>311.3869934082</ele>
        <time>2009-08-03T10:10:07Z</time>
      </trkpt>
      <trkpt lat="44.81672" lon="4.62332">
        <ele>308.02200317383</ele>
        <time>2009-08-03T10:10:14Z</time>
      </trkpt>
      <trkpt lat="44.81661" lon="4.62318">
        <ele>307.5830078125</ele>
        <time>2009-08-03T10:10:16Z</time>
      </trkpt>
      <trkpt lat="44.81646" lon="4.62297">
        <ele>306.57901000977</ele>
        <time>2009-08-03T10:10:19Z</time>
      </trkpt>
      <trkpt lat="44.81628" lon="4.62263">
        <ele>304.40399169922</ele>
        <time>2009-08-03T10:10:23Z</time>
      </trkpt>
      <trkpt lat="44.81589" lon="4.62236">
        <ele>301.31600952148</ele>
        <time>2009-08-03T10:10:28Z</time>
      </trkpt>
      <trkpt lat="44.81561" lon="4.62227">
        <ele>299.91900634766</ele>
        <time>2009-08-03T10:10:31Z</time>
      </trkpt>
      <trkpt lat="44.81535" lon="4.62213">
        <ele>298.11099243164</ele>
        <time>2009-08-03T10:10:34Z</time>
      </trkpt>
      <trkpt lat="44.81521" lon="4.62178">
        <ele>296.58801269531</ele>
        <time>2009-08-03T10:10:37Z</time>
      </trkpt>
      <trkpt lat="44.81476" lon="4.62143">
        <ele>293.00601196289</ele>
        <time>2009-08-03T10:10:42Z</time>
      </trkpt>
      <trkpt lat="44.81454" lon="4.62119">
        <ele>291.64498901367</ele>
        <time>2009-08-03T10:10:45Z</time>
      </trkpt>
      <trkpt lat="44.81408" lon="4.62104">
        <ele>288.75399780273</ele>
        <time>2009-08-03T10:10:50Z</time>
      </trkpt>
      <trkpt lat="44.81393" lon="4.62083">
        <ele>287.43301391602</ele>
        <time>2009-08-03T10:10:52Z</time>
      </trkpt>
      <trkpt lat="44.81355" lon="4.62053">
        <ele>285.73300170898</ele>
        <time>2009-08-03T10:10:57Z</time>
      </trkpt>
      <trkpt lat="44.81333" lon="4.62018">
        <ele>284.28601074219</ele>
        <time>2009-08-03T10:11:01Z</time>
      </trkpt>
      <trkpt lat="44.81321" lon="4.62003">
        <ele>283.79299926758</ele>
        <time>2009-08-03T10:11:03Z</time>
      </trkpt>
      <trkpt lat="44.81313" lon="4.61983">
        <ele>282.67498779297</ele>
        <time>2009-08-03T10:11:05Z</time>
      </trkpt>
      <trkpt lat="44.81303" lon="4.61965">
        <ele>281.57501220703</ele>
        <time>2009-08-03T10:11:07Z</time>
      </trkpt>
      <trkpt lat="44.81275" lon="4.61926">
        <ele>279.04800415039</ele>
        <time>2009-08-03T10:11:11Z</time>
      </trkpt>
      <trkpt lat="44.81248" lon="4.61907">
        <ele>278.03799438477</ele>
        <time>2009-08-03T10:11:14Z</time>
      </trkpt>
      <trkpt lat="44.81208" lon="4.61899">
        <ele>277.96798706055</ele>
        <time>2009-08-03T10:11:18Z</time>
      </trkpt>
      <trkpt lat="44.81172" lon="4.61882">
        <ele>274.17700195312</ele>
        <time>2009-08-03T10:11:22Z</time>
      </trkpt>
      <trkpt lat="44.81139" lon="4.61875">
        <ele>274.16101074219</ele>
        <time>2009-08-03T10:11:26Z</time>
      </trkpt>
      <trkpt lat="44.81085" lon="4.61855">
        <ele>268.7919921875</ele>
        <time>2009-08-03T10:11:33Z</time>
      </trkpt>
      <trkpt lat="44.81048" lon="4.61828">
        <ele>268.77099609375</ele>
        <time>2009-08-03T10:11:38Z</time>
      </trkpt>
      <trkpt lat="44.80977" lon="4.6178">
        <ele>260.17999267578</ele>
        <time>2009-08-03T10:11:47Z</time>
      </trkpt>
      <trkpt lat="44.80927" lon="4.6176">
        <ele>257.69799804688</ele>
        <time>2009-08-03T10:11:53Z</time>
      </trkpt>
      <trkpt lat="44.80898" lon="4.61799">
        <ele>255.93299865723</ele>
        <time>2009-08-03T10:11:58Z</time>
      </trkpt>
      <trkpt lat="44.80877" lon="4.61818">
        <ele>253.66200256348</ele>
        <time>2009-08-03T10:12:02Z</time>
      </trkpt>
      <trkpt lat="44.80861" lon="4.6181">
        <ele>252.72799682617</ele>
        <time>2009-08-03T10:12:04Z</time>
      </trkpt>
      <trkpt lat="44.80854" lon="4.61803">
        <ele>251.77600097656</ele>
        <time>2009-08-03T10:12:05Z</time>
      </trkpt>
      <trkpt lat="44.80833" lon="4.61778">
        <ele>250.55000305176</ele>
        <time>2009-08-03T10:12:08Z</time>
      </trkpt>
      <trkpt lat="44.80822" lon="4.61763">
        <ele>249.81199645996</ele>
        <time>2009-08-03T10:12:10Z</time>
      </trkpt>
      <trkpt lat="44.80795" lon="4.61765">
        <ele>248.44200134277</ele>
        <time>2009-08-03T10:12:14Z</time>
      </trkpt>
      <trkpt lat="44.80787" lon="4.61775">
        <ele>248.25300598144</ele>
        <time>2009-08-03T10:12:16Z</time>
      </trkpt>
      <trkpt lat="44.80783" lon="4.61777">
        <ele>247.75900268555</ele>
        <time>2009-08-03T10:12:17Z</time>
      </trkpt>
      <trkpt lat="44.80759" lon="4.61772">
        <ele>243.56900024414</ele>
        <time>2009-08-03T10:12:22Z</time>
      </trkpt>
      <trkpt lat="44.80747" lon="4.61723">
        <ele>237.84399414062</ele>
        <time>2009-08-03T10:12:28Z</time>
      </trkpt>
      <trkpt lat="44.8073" lon="4.61667">
        <ele>233.56300354004</ele>
        <time>2009-08-03T10:12:35Z</time>
      </trkpt>
      <trkpt lat="44.80722" lon="4.61664">
        <ele>232.59399414062</ele>
        <time>2009-08-03T10:12:36Z</time>
      </trkpt>
      <trkpt lat="44.80633" lon="4.61663">
        <ele>223.06599426269</ele>
        <time>2009-08-03T10:12:48Z</time>
      </trkpt>
      <trkpt lat="44.8059" lon="4.61675">
        <ele>220.17999267578</ele>
        <time>2009-08-03T10:12:54Z</time>
      </trkpt>
      <trkpt lat="44.8057" lon="4.61681">
        <ele>218.46099853516</ele>
        <time>2009-08-03T10:12:57Z</time>
      </trkpt>
      <trkpt lat="44.80543" lon="4.61687">
        <ele>215.72799682617</ele>
        <time>2009-08-03T10:13:02Z</time>
      </trkpt>
      <trkpt lat="44.80533" lon="4.61666">
        <ele>216.13000488281</ele>
        <time>2009-08-03T10:13:09Z</time>
      </trkpt>
      <trkpt lat="44.80539" lon="4.61637">
        <ele>216.03900146484</ele>
        <time>2009-08-03T10:13:15Z</time>
      </trkpt>
      <trkpt lat="44.8054" lon="4.61632">
        <ele>216.06500244141</ele>
        <time>2009-08-03T10:13:16Z</time>
      </trkpt>
      <trkpt lat="44.80541" lon="4.61616">
        <ele>215.52900695801</ele>
        <time>2009-08-03T10:13:19Z</time>
      </trkpt>
      <trkpt lat="44.80544" lon="4.61597">
        <ele>215.86999511719</ele>
        <time>2009-08-03T10:13:22Z</time>
      </trkpt>
      <trkpt lat="44.80547" lon="4.6158">
        <ele>215.72500610352</ele>
        <time>2009-08-03T10:13:25Z</time>
      </trkpt>
      <trkpt lat="44.80548" lon="4.61575">
        <ele>215.66999816894</ele>
        <time>2009-08-03T10:13:26Z</time>
      </trkpt>
      <trkpt lat="44.8055" lon="4.61569">
        <ele>215.49299621582</ele>
        <time>2009-08-03T10:13:27Z</time>
      </trkpt>
      <trkpt lat="44.80552" lon="4.61564">
        <ele>215.28700256348</ele>
        <time>2009-08-03T10:13:28Z</time>
      </trkpt>
      <trkpt lat="44.8058" lon="4.61535">
        <ele>216.37300109863</ele>
        <time>2009-08-03T10:13:34Z</time>
      </trkpt>
      <trkpt lat="44.80586" lon="4.61531">
        <ele>216.30400085449</ele>
        <time>2009-08-03T10:13:35Z</time>
      </trkpt>
      <trkpt lat="44.8061" lon="4.6152">
        <ele>216.52600097656</ele>
        <time>2009-08-03T10:13:39Z</time>
      </trkpt>
      <trkpt lat="44.80641" lon="4.61517">
        <ele>215.73199462891</ele>
        <time>2009-08-03T10:13:44Z</time>
      </trkpt>
      <trkpt lat="44.80722" lon="4.61563">
        <ele>215.20899963379</ele>
        <time>2009-08-03T10:13:58Z</time>
      </trkpt>
      <trkpt lat="44.80753" lon="4.61592">
        <ele>215.52000427246</ele>
        <time>2009-08-03T10:14:04Z</time>
      </trkpt>
      <trkpt lat="44.80819" lon="4.61643">
        <ele>215.95300292969</ele>
        <time>2009-08-03T10:14:19Z</time>
      </trkpt>
      <trkpt lat="44.80842" lon="4.61655">
        <ele>215.80200195312</ele>
        <time>2009-08-03T10:14:27Z</time>
      </trkpt>
      <trkpt lat="44.80859" lon="4.6166">
        <ele>215.7619934082</ele>
        <time>2009-08-03T10:14:33Z</time>
      </trkpt>
      <trkpt lat="44.80874" lon="4.61663">
        <ele>215.45799255371</ele>
        <time>2009-08-03T10:14:40Z</time>
      </trkpt>
      <trkpt lat="44.80891" lon="4.61665">
        <ele>215.43600463867</ele>
        <time>2009-08-03T10:14:48Z</time>
      </trkpt>
      <trkpt lat="44.80891" lon="4.61666">
        <ele>215.07299804688</ele>
        <time>2009-08-03T10:14:50Z</time>
      </trkpt>
      <trkpt lat="44.80906" lon="4.61665">
        <ele>215.42900085449</ele>
        <time>2009-08-03T10:15:34Z</time>
      </trkpt>
      <trkpt lat="44.80915" lon="4.61664">
        <ele>215.35299682617</ele>
        <time>2009-08-03T10:15:37Z</time>
      </trkpt>
      <trkpt lat="44.80957" lon="4.61668">
        <ele>215.23300170898</ele>
        <time>2009-08-03T10:15:51Z</time>
      </trkpt>
      <trkpt lat="44.8099" lon="4.61676">
        <ele>214.32800292969</ele>
        <time>2009-08-03T10:16:00Z</time>
      </trkpt>
      <trkpt lat="44.81028" lon="4.61695">
        <ele>213.84599304199</ele>
        <time>2009-08-03T10:16:10Z</time>
      </trkpt>
      <trkpt lat="44.8104" lon="4.61702">
        <ele>213.91999816894</ele>
        <time>2009-08-03T10:16:13Z</time>
      </trkpt>
      <trkpt lat="44.81069" lon="4.6172">
        <ele>214.00500488281</ele>
        <time>2009-08-03T10:16:20Z</time>
      </trkpt>
      <trkpt lat="44.8109" lon="4.61732">
        <ele>214.22300720215</ele>
        <time>2009-08-03T10:16:25Z</time>
      </trkpt>
      <trkpt lat="44.81103" lon="4.61737">
        <ele>213.96600341797</ele>
        <time>2009-08-03T10:16:28Z</time>
      </trkpt>
      <trkpt lat="44.8112" lon="4.61744">
        <ele>214.12199401856</ele>
        <time>2009-08-03T10:16:32Z</time>
      </trkpt>
      <trkpt lat="44.81136" lon="4.61751">
        <ele>213.82899475098</ele>
        <time>2009-08-03T10:16:36Z</time>
      </trkpt>
      <trkpt lat="44.8115" lon="4.61754">
        <ele>213.96499633789</ele>
        <time>2009-08-03T10:16:39Z</time>
      </trkpt>
      <trkpt lat="44.81195" lon="4.61766">
        <ele>213.24499511719</ele>
        <time>2009-08-03T10:16:50Z</time>
      </trkpt>
      <trkpt lat="44.81212" lon="4.61772">
        <ele>213.25700378418</ele>
        <time>2009-08-03T10:16:54Z</time>
      </trkpt>
      <trkpt lat="44.81221" lon="4.61775">
        <ele>213.34599304199</ele>
        <time>2009-08-03T10:16:56Z</time>
      </trkpt>
      <trkpt lat="44.81271" lon="4.61798">
        <ele>213.00700378418</ele>
        <time>2009-08-03T10:17:07Z</time>
      </trkpt>
      <trkpt lat="44.81297" lon="4.61817">
        <ele>212.9049987793</ele>
        <time>2009-08-03T10:17:13Z</time>
      </trkpt>
      <trkpt lat="44.813" lon="4.61821">
        <ele>212.98199462891</ele>
        <time>2009-08-03T10:17:14Z</time>
      </trkpt>
      <trkpt lat="44.81303" lon="4.61825">
        <ele>212.90100097656</ele>
        <time>2009-08-03T10:17:15Z</time>
      </trkpt>
      <trkpt lat="44.81312" lon="4.61835">
        <ele>212.77200317383</ele>
        <time>2009-08-03T10:17:18Z</time>
      </trkpt>
      <trkpt lat="44.81349" lon="4.61886">
        <ele>211.41299438477</ele>
        <time>2009-08-03T10:17:30Z</time>
      </trkpt>
      <trkpt lat="44.81356" lon="4.61894">
        <ele>211.92700195312</ele>
        <time>2009-08-03T10:17:32Z</time>
      </trkpt>
      <trkpt lat="44.81393" lon="4.6194">
        <ele>211.61199951172</ele>
        <time>2009-08-03T10:17:45Z</time>
      </trkpt>
      <trkpt lat="44.81404" lon="4.61947">
        <ele>211.74099731445</ele>
        <time>2009-08-03T10:17:48Z</time>
      </trkpt>
      <trkpt lat="44.81433" lon="4.61962">
        <ele>212.04400634766</ele>
        <time>2009-08-03T10:17:55Z</time>
      </trkpt>
      <trkpt lat="44.81461" lon="4.6197">
        <ele>211.41900634766</ele>
        <time>2009-08-03T10:18:02Z</time>
      </trkpt>
      <trkpt lat="44.81519" lon="4.62001">
        <ele>211.20599365234</ele>
        <time>2009-08-03T10:18:18Z</time>
      </trkpt>
      <trkpt lat="44.81549" lon="4.6202">
        <ele>211.64999389648</ele>
        <time>2009-08-03T10:18:25Z</time>
      </trkpt>
      <trkpt lat="44.81562" lon="4.6203">
        <ele>211.74000549316</ele>
        <time>2009-08-03T10:18:28Z</time>
      </trkpt>
      <trkpt lat="44.81599" lon="4.62049">
        <ele>211.29499816894</ele>
        <time>2009-08-03T10:18:36Z</time>
      </trkpt>
      <trkpt lat="44.81628" lon="4.62052">
        <ele>211.24299621582</ele>
        <time>2009-08-03T10:18:42Z</time>
      </trkpt>
      <trkpt lat="44.8165" lon="4.62051">
        <ele>211.08999633789</ele>
        <time>2009-08-03T10:18:47Z</time>
      </trkpt>
      <trkpt lat="44.81658" lon="4.62048">
        <ele>211.27400207519</ele>
        <time>2009-08-03T10:18:49Z</time>
      </trkpt>
      <trkpt lat="44.81672" lon="4.6204">
        <ele>210.80900573731</ele>
        <time>2009-08-03T10:18:52Z</time>
      </trkpt>
      <trkpt lat="44.81699" lon="4.6202">
        <ele>210.97200012207</ele>
        <time>2009-08-03T10:18:59Z</time>
      </trkpt>
      <trkpt lat="44.81745" lon="4.61987">
        <ele>210.54699707031</ele>
        <time>2009-08-03T10:19:09Z</time>
      </trkpt>
      <trkpt lat="44.81754" lon="4.61981">
        <ele>210.54699707031</ele>
        <time>2009-08-03T10:19:11Z</time>
      </trkpt>
      <trkpt lat="44.81773" lon="4.61966">
        <ele>210.7559967041</ele>
        <time>2009-08-03T10:19:15Z</time>
      </trkpt>
      <trkpt lat="44.81805" lon="4.61955">
        <ele>211.51600646973</ele>
        <time>2009-08-03T10:19:21Z</time>
      </trkpt>
      <trkpt lat="44.81852" lon="4.61955">
        <ele>211.67599487305</ele>
        <time>2009-08-03T10:19:30Z</time>
      </trkpt>
      <trkpt lat="44.81881" lon="4.61956">
        <ele>210.92900085449</ele>
        <time>2009-08-03T10:19:36Z</time>
      </trkpt>
      <trkpt lat="44.81937" lon="4.6194">
        <ele>210.41700744629</ele>
        <time>2009-08-03T10:19:47Z</time>
      </trkpt>
      <trkpt lat="44.81941" lon="4.61937">
        <ele>210.6609954834</ele>
        <time>2009-08-03T10:19:48Z</time>
      </trkpt>
      <trkpt lat="44.81964" lon="4.6192">
        <ele>210.98199462891</ele>
        <time>2009-08-03T10:19:54Z</time>
      </trkpt>
      <trkpt lat="44.81987" lon="4.61897">
        <ele>210.5059967041</ele>
        <time>2009-08-03T10:20:00Z</time>
      </trkpt>
      <trkpt lat="44.82018" lon="4.61882">
        <ele>210.47900390625</ele>
        <time>2009-08-03T10:20:08Z</time>
      </trkpt>
      <trkpt lat="44.82024" lon="4.61879">
        <ele>210.33299255371</ele>
        <time>2009-08-03T10:20:10Z</time>
      </trkpt>
      <trkpt lat="44.82042" lon="4.61871">
        <ele>210.1549987793</ele>
        <time>2009-08-03T10:20:15Z</time>
      </trkpt>
      <trkpt lat="44.82049" lon="4.61867">
        <ele>209.64399719238</ele>
        <time>2009-08-03T10:20:17Z</time>
      </trkpt>
      <trkpt lat="44.82066" lon="4.61855">
        <ele>210.30000305176</ele>
        <time>2009-08-03T10:20:21Z</time>
      </trkpt>
      <trkpt lat="44.82091" lon="4.61838">
        <ele>209.97300720215</ele>
        <time>2009-08-03T10:20:27Z</time>
      </trkpt>
      <trkpt lat="44.82117" lon="4.61813">
        <ele>209.91600036621</ele>
        <time>2009-08-03T10:20:34Z</time>
      </trkpt>
      <trkpt lat="44.82145" lon="4.61773">
        <ele>210.24899291992</ele>
        <time>2009-08-03T10:20:43Z</time>
      </trkpt>
      <trkpt lat="44.8217" lon="4.61699">
        <ele>210.1309967041</ele>
        <time>2009-08-03T10:20:56Z</time>
      </trkpt>
      <trkpt lat="44.82177" lon="4.61645">
        <ele>210.7559967041</ele>
        <time>2009-08-03T10:21:05Z</time>
      </trkpt>
      <trkpt lat="44.82174" lon="4.61579">
        <ele>211.20300292969</ele>
        <time>2009-08-03T10:21:15Z</time>
      </trkpt>
      <trkpt lat="44.82174" lon="4.61572">
        <ele>211.04600524902</ele>
        <time>2009-08-03T10:21:16Z</time>
      </trkpt>
      <trkpt lat="44.82172" lon="4.61539">
        <ele>210.75300598144</ele>
        <time>2009-08-03T10:21:21Z</time>
      </trkpt>
      <trkpt lat="44.8217" lon="4.61507">
        <ele>211.20399475098</ele>
        <time>2009-08-03T10:21:26Z</time>
      </trkpt>
      <trkpt lat="44.82173" lon="4.6148">
        <ele>210.93400573731</ele>
        <time>2009-08-03T10:21:30Z</time>
      </trkpt>
      <trkpt lat="44.8218" lon="4.61446">
        <ele>211.13600158691</ele>
        <time>2009-08-03T10:21:35Z</time>
      </trkpt>
      <trkpt lat="44.82189" lon="4.61421">
        <ele>211.48199462891</ele>
        <time>2009-08-03T10:21:39Z</time>
      </trkpt>
      <trkpt lat="44.82203" lon="4.61393">
        <ele>211.1609954834</ele>
        <time>2009-08-03T10:21:44Z</time>
      </trkpt>
      <trkpt lat="44.82213" lon="4.61373">
        <ele>211.08799743652</ele>
        <time>2009-08-03T10:21:48Z</time>
      </trkpt>
      <trkpt lat="44.82219" lon="4.61355">
        <ele>211.22700500488</ele>
        <time>2009-08-03T10:21:52Z</time>
      </trkpt>
      <trkpt lat="44.82222" lon="4.61345">
        <ele>211.39199829102</ele>
        <time>2009-08-03T10:21:54Z</time>
      </trkpt>
      <trkpt lat="44.82228" lon="4.61324">
        <ele>211.11000061035</ele>
        <time>2009-08-03T10:21:58Z</time>
      </trkpt>
      <trkpt lat="44.82234" lon="4.61293">
        <ele>211.84700012207</ele>
        <time>2009-08-03T10:22:04Z</time>
      </trkpt>
      <trkpt lat="44.82235" lon="4.61277">
        <ele>212.22700500488</ele>
        <time>2009-08-03T10:22:08Z</time>
      </trkpt>
      <trkpt lat="44.82237" lon="4.6123">
        <ele>211.82699584961</ele>
        <time>2009-08-03T10:22:20Z</time>
      </trkpt>
      <trkpt lat="44.82248" lon="4.6116">
        <ele>211.78799438477</ele>
        <time>2009-08-03T10:22:33Z</time>
      </trkpt>
      <trkpt lat="44.82257" lon="4.61118">
        <ele>211.86599731445</ele>
        <time>2009-08-03T10:22:40Z</time>
      </trkpt>
      <trkpt lat="44.82268" lon="4.61044">
        <ele>211.7140045166</ele>
        <time>2009-08-03T10:22:52Z</time>
      </trkpt>
      <trkpt lat="44.82281" lon="4.6099">
        <ele>212.24200439453</ele>
        <time>2009-08-03T10:23:00Z</time>
      </trkpt>
      <trkpt lat="44.82291" lon="4.60946">
        <ele>212.47799682617</ele>
        <time>2009-08-03T10:23:06Z</time>
      </trkpt>
      <trkpt lat="44.82293" lon="4.60924">
        <ele>212.93499755859</ele>
        <time>2009-08-03T10:23:09Z</time>
      </trkpt>
      <trkpt lat="44.8229" lon="4.60829">
        <ele>214.05400085449</ele>
        <time>2009-08-03T10:23:21Z</time>
      </trkpt>
      <trkpt lat="44.82281" lon="4.60708">
        <ele>214.72399902344</ele>
        <time>2009-08-03T10:23:36Z</time>
      </trkpt>
      <trkpt lat="44.82278" lon="4.60693">
        <ele>214.63600158691</ele>
        <time>2009-08-03T10:23:38Z</time>
      </trkpt>
      <trkpt lat="44.82271" lon="4.60672">
        <ele>214.62899780273</ele>
        <time>2009-08-03T10:23:41Z</time>
      </trkpt>
      <trkpt lat="44.82255" lon="4.6064">
        <ele>214.48599243164</ele>
        <time>2009-08-03T10:23:46Z</time>
      </trkpt>
      <trkpt lat="44.82237" lon="4.6062">
        <ele>213.60299682617</ele>
        <time>2009-08-03T10:23:50Z</time>
      </trkpt>
      <trkpt lat="44.82168" lon="4.60571">
        <ele>215.39399719238</ele>
        <time>2009-08-03T10:24:04Z</time>
      </trkpt>
      <trkpt lat="44.82133" lon="4.60524">
        <ele>216.05299377441</ele>
        <time>2009-08-03T10:24:12Z</time>
      </trkpt>
      <trkpt lat="44.82081" lon="4.60442">
        <ele>217.19400024414</ele>
        <time>2009-08-03T10:24:26Z</time>
      </trkpt>
      <trkpt lat="44.82029" lon="4.60331">
        <ele>217.57099914551</ele>
        <time>2009-08-03T10:24:41Z</time>
      </trkpt>
      <trkpt lat="44.81964" lon="4.60176">
        <ele>218.70599365234</ele>
        <time>2009-08-03T10:25:01Z</time>
      </trkpt>
      <trkpt lat="44.81924" lon="4.60086">
        <ele>219.2799987793</ele>
        <time>2009-08-03T10:25:13Z</time>
      </trkpt>
      <trkpt lat="44.81904" lon="4.59932">
        <ele>219.42799377441</ele>
        <time>2009-08-03T10:25:30Z</time>
      </trkpt>
      <trkpt lat="44.81871" lon="4.59801">
        <ele>219.70899963379</ele>
        <time>2009-08-03T10:25:45Z</time>
      </trkpt>
      <trkpt lat="44.8187" lon="4.59794">
        <ele>220.00900268555</ele>
        <time>2009-08-03T10:25:46Z</time>
      </trkpt>
      <trkpt lat="44.81868" lon="4.59776">
        <ele>220.17999267578</ele>
        <time>2009-08-03T10:25:51Z</time>
      </trkpt>
      <trkpt lat="44.81866" lon="4.59774">
        <ele>219.91600036621</ele>
        <time>2009-08-03T10:25:52Z</time>
      </trkpt>
      <trkpt lat="44.8186" lon="4.59731">
        <ele>217.11500549316</ele>
        <time>2009-08-03T10:25:59Z</time>
      </trkpt>
      <trkpt lat="44.81855" lon="4.59707">
        <ele>216.9880065918</ele>
        <time>2009-08-03T10:26:02Z</time>
      </trkpt>
      <trkpt lat="44.81815" lon="4.59647">
        <ele>213.71499633789</ele>
        <time>2009-08-03T10:26:10Z</time>
      </trkpt>
      <trkpt lat="44.818" lon="4.59635">
        <ele>213.54600524902</ele>
        <time>2009-08-03T10:26:14Z</time>
      </trkpt>
      <trkpt lat="44.81787" lon="4.59632">
        <ele>213.29800415039</ele>
        <time>2009-08-03T10:26:17Z</time>
      </trkpt>
      <trkpt lat="44.8177" lon="4.59632">
        <ele>213.51300048828</ele>
        <time>2009-08-03T10:26:21Z</time>
      </trkpt>
      <trkpt lat="44.81755" lon="4.59624">
        <ele>214.82499694824</ele>
        <time>2009-08-03T10:26:27Z</time>
      </trkpt>
      <trkpt lat="44.81742" lon="4.59643">
        <ele>214.77499389648</ele>
        <time>2009-08-03T10:26:33Z</time>
      </trkpt>
      <trkpt lat="44.81699" lon="4.59723">
        <ele>214.64599609375</ele>
        <time>2009-08-03T10:26:47Z</time>
      </trkpt>
      <trkpt lat="44.81685" lon="4.59748">
        <ele>213.91900634766</ele>
        <time>2009-08-03T10:26:51Z</time>
      </trkpt>
      <trkpt lat="44.81675" lon="4.59767">
        <ele>213.7200012207</ele>
        <time>2009-08-03T10:26:54Z</time>
      </trkpt>
      <trkpt lat="44.81655" lon="4.5976">
        <ele>216.27000427246</ele>
        <time>2009-08-03T10:27:00Z</time>
      </trkpt>
      <trkpt lat="44.81644" lon="4.59745">
        <ele>217.80200195312</ele>
        <time>2009-08-03T10:27:04Z</time>
      </trkpt>
      <trkpt lat="44.81639" lon="4.59737">
        <ele>218.58599853516</ele>
        <time>2009-08-03T10:27:06Z</time>
      </trkpt>
      <trkpt lat="44.81623" lon="4.59732">
        <ele>219.96000671387</ele>
        <time>2009-08-03T10:27:10Z</time>
      </trkpt>
      <trkpt lat="44.8162" lon="4.59735">
        <ele>220.09199523926</ele>
        <time>2009-08-03T10:27:11Z</time>
      </trkpt>
      <trkpt lat="44.8161" lon="4.59747">
        <ele>222.24499511719</ele>
        <time>2009-08-03T10:27:15Z</time>
      </trkpt>
      <trkpt lat="44.81606" lon="4.59752">
        <ele>223.39100646973</ele>
        <time>2009-08-03T10:27:17Z</time>
      </trkpt>
      <trkpt lat="44.81602" lon="4.59757">
        <ele>224.04699707031</ele>
        <time>2009-08-03T10:27:19Z</time>
      </trkpt>
      <trkpt lat="44.81591" lon="4.59769">
        <ele>224.32800292969</ele>
        <time>2009-08-03T10:27:25Z</time>
      </trkpt>
      <trkpt lat="44.81581" lon="4.5978">
        <ele>226.45300292969</ele>
        <time>2009-08-03T10:27:30Z</time>
      </trkpt>
      <trkpt lat="44.81555" lon="4.59804">
        <ele>230.35299682617</ele>
        <time>2009-08-03T10:27:43Z</time>
      </trkpt>
      <trkpt lat="44.81534" lon="4.59828">
        <ele>233.51899719238</ele>
        <time>2009-08-03T10:27:55Z</time>
      </trkpt>
      <trkpt lat="44.81525" lon="4.59838">
        <ele>235.14999389648</ele>
        <time>2009-08-03T10:28:01Z</time>
      </trkpt>
      <trkpt lat="44.81519" lon="4.59845">
        <ele>236.25500488281</ele>
        <time>2009-08-03T10:28:05Z</time>
      </trkpt>
      <trkpt lat="44.81495" lon="4.59861">
        <ele>239.63800048828</ele>
        <time>2009-08-03T10:28:17Z</time>
      </trkpt>
      <trkpt lat="44.81474" lon="4.59826">
        <ele>240.19299316406</ele>
        <time>2009-08-03T10:28:29Z</time>
      </trkpt>
      <trkpt lat="44.8147" lon="4.598">
        <ele>241.67799377441</ele>
        <time>2009-08-03T10:28:34Z</time>
      </trkpt>
      <trkpt lat="44.81457" lon="4.59777">
        <ele>243.33399963379</ele>
        <time>2009-08-03T10:28:39Z</time>
      </trkpt>
      <trkpt lat="44.81425" lon="4.59751">
        <ele>244.8809967041</ele>
        <time>2009-08-03T10:28:47Z</time>
      </trkpt>
      <trkpt lat="44.81405" lon="4.59744">
        <ele>245.98699951172</ele>
        <time>2009-08-03T10:28:52Z</time>
      </trkpt>
      <trkpt lat="44.81396" lon="4.59745">
        <ele>246.02600097656</ele>
        <time>2009-08-03T10:28:54Z</time>
      </trkpt>
      <trkpt lat="44.81387" lon="4.59712">
        <ele>248.13299560547</ele>
        <time>2009-08-03T10:29:02Z</time>
      </trkpt>
      <trkpt lat="44.81381" lon="4.59698">
        <ele>248.49600219727</ele>
        <time>2009-08-03T10:29:05Z</time>
      </trkpt>
      <trkpt lat="44.81354" lon="4.59649">
        <ele>251.52900695801</ele>
        <time>2009-08-03T10:29:17Z</time>
      </trkpt>
      <trkpt lat="44.81341" lon="4.59585">
        <ele>255.29600524902</ele>
        <time>2009-08-03T10:29:31Z</time>
      </trkpt>
      <trkpt lat="44.81317" lon="4.59558">
        <ele>257.62200927734</ele>
        <time>2009-08-03T10:29:41Z</time>
      </trkpt>
      <trkpt lat="44.81276" lon="4.59541">
        <ele>260.36700439453</ele>
        <time>2009-08-03T10:29:54Z</time>
      </trkpt>
      <trkpt lat="44.81274" lon="4.59516">
        <ele>261.42401123047</ele>
        <time>2009-08-03T10:30:00Z</time>
      </trkpt>
      <trkpt lat="44.81283" lon="4.59456">
        <ele>265.61898803711</ele>
        <time>2009-08-03T10:30:14Z</time>
      </trkpt>
      <trkpt lat="44.81258" lon="4.5941">
        <ele>268.91000366211</ele>
        <time>2009-08-03T10:30:27Z</time>
      </trkpt>
      <trkpt lat="44.81224" lon="4.5939">
        <ele>271.52600097656</ele>
        <time>2009-08-03T10:30:40Z</time>
      </trkpt>
      <trkpt lat="44.81193" lon="4.5941">
        <ele>274.85800170898</ele>
        <time>2009-08-03T10:30:52Z</time>
      </trkpt>
      <trkpt lat="44.81185" lon="4.59423">
        <ele>276.09698486328</ele>
        <time>2009-08-03T10:30:58Z</time>
      </trkpt>
      <trkpt lat="44.8117" lon="4.59416">
        <ele>277.92199707031</ele>
        <time>2009-08-03T10:31:05Z</time>
      </trkpt>
      <trkpt lat="44.8116" lon="4.59374">
        <ele>280.44500732422</ele>
        <time>2009-08-03T10:31:16Z</time>
      </trkpt>
      <trkpt lat="44.81173" lon="4.59317">
        <ele>284.52499389648</ele>
        <time>2009-08-03T10:31:32Z</time>
      </trkpt>
      <trkpt lat="44.81187" lon="4.59263">
        <ele>287.75</ele>
        <time>2009-08-03T10:31:45Z</time>
      </trkpt>
      <trkpt lat="44.81191" lon="4.59248">
        <ele>288.26300048828</ele>
        <time>2009-08-03T10:31:48Z</time>
      </trkpt>
      <trkpt lat="44.81173" lon="4.59242">
        <ele>290.15600585938</ele>
        <time>2009-08-03T10:31:55Z</time>
      </trkpt>
      <trkpt lat="44.81172" lon="4.59247">
        <ele>290.40798950195</ele>
        <time>2009-08-03T10:31:56Z</time>
      </trkpt>
      <trkpt lat="44.81151" lon="4.59314">
        <ele>294.71499633789</ele>
        <time>2009-08-03T10:32:11Z</time>
      </trkpt>
      <trkpt lat="44.81109" lon="4.5935">
        <ele>298.63299560547</ele>
        <time>2009-08-03T10:32:26Z</time>
      </trkpt>
      <trkpt lat="44.81087" lon="4.59382">
        <ele>301.26998901367</ele>
        <time>2009-08-03T10:32:37Z</time>
      </trkpt>
      <trkpt lat="44.81088" lon="4.59432">
        <ele>304.93200683594</ele>
        <time>2009-08-03T10:32:49Z</time>
      </trkpt>
      <trkpt lat="44.81118" lon="4.59474">
        <ele>308.7200012207</ele>
        <time>2009-08-03T10:33:03Z</time>
      </trkpt>
      <trkpt lat="44.81112" lon="4.5955">
        <ele>312.91198730469</ele>
        <time>2009-08-03T10:33:18Z</time>
      </trkpt>
      <trkpt lat="44.81113" lon="4.59574">
        <ele>313.99499511719</ele>
        <time>2009-08-03T10:33:23Z</time>
      </trkpt>
      <trkpt lat="44.81131" lon="4.59572">
        <ele>315.4460144043</ele>
        <time>2009-08-03T10:33:29Z</time>
      </trkpt>
      <trkpt lat="44.81168" lon="4.59541">
        <ele>317.90100097656</ele>
        <time>2009-08-03T10:33:42Z</time>
      </trkpt>
      <trkpt lat="44.81176" lon="4.59535">
        <ele>319.30999755859</ele>
        <time>2009-08-03T10:33:45Z</time>
      </trkpt>
      <trkpt lat="44.81192" lon="4.59559">
        <ele>321.17498779297</ele>
        <time>2009-08-03T10:33:53Z</time>
      </trkpt>
      <trkpt lat="44.81192" lon="4.59616">
        <ele>324.76300048828</ele>
        <time>2009-08-03T10:34:06Z</time>
      </trkpt>
      <trkpt lat="44.81189" lon="4.59619">
        <ele>325.16500854492</ele>
        <time>2009-08-03T10:34:07Z</time>
      </trkpt>
      <trkpt lat="44.81181" lon="4.59602">
        <ele>326.34600830078</ele>
        <time>2009-08-03T10:34:14Z</time>
      </trkpt>
      <trkpt lat="44.81179" lon="4.59572">
        <ele>328.36700439453</ele>
        <time>2009-08-03T10:34:21Z</time>
      </trkpt>
      <trkpt lat="44.81165" lon="4.59574">
        <ele>329.76098632812</ele>
        <time>2009-08-03T10:34:26Z</time>
      </trkpt>
      <trkpt lat="44.81119" lon="4.5962">
        <ele>333.69500732422</ele>
        <time>2009-08-03T10:34:41Z</time>
      </trkpt>
      <trkpt lat="44.81081" lon="4.59647">
        <ele>336.77301025391</ele>
        <time>2009-08-03T10:34:53Z</time>
      </trkpt>
      <trkpt lat="44.81069" lon="4.59653">
        <ele>337.5530090332</ele>
        <time>2009-08-03T10:34:57Z</time>
      </trkpt>
      <trkpt lat="44.81059" lon="4.5963">
        <ele>338.91400146484</ele>
        <time>2009-08-03T10:35:04Z</time>
      </trkpt>
      <trkpt lat="44.81069" lon="4.59554">
        <ele>342.26800537109</ele>
        <time>2009-08-03T10:35:20Z</time>
      </trkpt>
      <trkpt lat="44.81058" lon="4.59508">
        <ele>345.10501098633</ele>
        <time>2009-08-03T10:35:31Z</time>
      </trkpt>
      <trkpt lat="44.81016" lon="4.59495">
        <ele>348.0710144043</ele>
        <time>2009-08-03T10:35:42Z</time>
      </trkpt>
      <trkpt lat="44.80983" lon="4.59497">
        <ele>350.15899658203</ele>
        <time>2009-08-03T10:35:50Z</time>
      </trkpt>
      <trkpt lat="44.80973" lon="4.59462">
        <ele>352.62799072266</ele>
        <time>2009-08-03T10:35:58Z</time>
      </trkpt>
      <trkpt lat="44.80966" lon="4.59416">
        <ele>354.82598876953</ele>
        <time>2009-08-03T10:36:07Z</time>
      </trkpt>
      <trkpt lat="44.8097" lon="4.59405">
        <ele>355.24200439453</ele>
        <time>2009-08-03T10:36:09Z</time>
      </trkpt>
      <trkpt lat="44.80967" lon="4.59373">
        <ele>356.96899414062</ele>
        <time>2009-08-03T10:36:15Z</time>
      </trkpt>
      <trkpt lat="44.80962" lon="4.59364">
        <ele>357.56799316406</ele>
        <time>2009-08-03T10:36:17Z</time>
      </trkpt>
      <trkpt lat="44.80965" lon="4.59343">
        <ele>358.99600219727</ele>
        <time>2009-08-03T10:36:21Z</time>
      </trkpt>
      <trkpt lat="44.80975" lon="4.59314">
        <ele>360.25100708008</ele>
        <time>2009-08-03T10:36:27Z</time>
      </trkpt>
      <trkpt lat="44.8099" lon="4.59296">
        <ele>361.59201049805</ele>
        <time>2009-08-03T10:36:32Z</time>
      </trkpt>
      <trkpt lat="44.81001" lon="4.59288">
        <ele>362.32901000977</ele>
        <time>2009-08-03T10:36:35Z</time>
      </trkpt>
      <trkpt lat="44.81019" lon="4.59266">
        <ele>363.47500610352</ele>
        <time>2009-08-03T10:36:41Z</time>
      </trkpt>
      <trkpt lat="44.81019" lon="4.59213">
        <ele>365.79000854492</ele>
        <time>2009-08-03T10:36:52Z</time>
      </trkpt>
      <trkpt lat="44.80999" lon="4.5917">
        <ele>369.15600585938</ele>
        <time>2009-08-03T10:37:03Z</time>
      </trkpt>
      <trkpt lat="44.80966" lon="4.59122">
        <ele>373.85299682617</ele>
        <time>2009-08-03T10:37:18Z</time>
      </trkpt>
      <trkpt lat="44.80935" lon="4.59096">
        <ele>377.63198852539</ele>
        <time>2009-08-03T10:37:31Z</time>
      </trkpt>
      <trkpt lat="44.80932" lon="4.59094">
        <ele>377.98001098633</ele>
        <time>2009-08-03T10:37:32Z</time>
      </trkpt>
      <trkpt lat="44.80925" lon="4.59104">
        <ele>379.57699584961</ele>
        <time>2009-08-03T10:37:37Z</time>
      </trkpt>
      <trkpt lat="44.80957" lon="4.59137">
        <ele>382.28298950195</ele>
        <time>2009-08-03T10:37:48Z</time>
      </trkpt>
      <trkpt lat="44.80972" lon="4.59191">
        <ele>383.3869934082</ele>
        <time>2009-08-03T10:37:58Z</time>
      </trkpt>
      <trkpt lat="44.80969" lon="4.59232">
        <ele>385.01901245117</ele>
        <time>2009-08-03T10:38:04Z</time>
      </trkpt>
      <trkpt lat="44.80956" lon="4.59262">
        <ele>387.42599487305</ele>
        <time>2009-08-03T10:38:11Z</time>
      </trkpt>
      <trkpt lat="44.80952" lon="4.59265">
        <ele>387.95199584961</ele>
        <time>2009-08-03T10:38:12Z</time>
      </trkpt>
      <trkpt lat="44.80913" lon="4.59311">
        <ele>391.82800292969</ele>
        <time>2009-08-03T10:38:26Z</time>
      </trkpt>
      <trkpt lat="44.80889" lon="4.59371">
        <ele>395.71899414062</ele>
        <time>2009-08-03T10:38:40Z</time>
      </trkpt>
      <trkpt lat="44.8089" lon="4.59398">
        <ele>397.34899902344</ele>
        <time>2009-08-03T10:38:45Z</time>
      </trkpt>
      <trkpt lat="44.80886" lon="4.59414">
        <ele>398.06799316406</ele>
        <time>2009-08-03T10:38:48Z</time>
      </trkpt>
      <trkpt lat="44.80873" lon="4.59431">
        <ele>399.5719909668</ele>
        <time>2009-08-03T10:38:53Z</time>
      </trkpt>
      <trkpt lat="44.80867" lon="4.5944">
        <ele>400.35400390625</ele>
        <time>2009-08-03T10:38:56Z</time>
      </trkpt>
      <trkpt lat="44.80872" lon="4.59467">
        <ele>401.60101318359</ele>
        <time>2009-08-03T10:39:02Z</time>
      </trkpt>
      <trkpt lat="44.80884" lon="4.59534">
        <ele>405.77398681641</ele>
        <time>2009-08-03T10:39:16Z</time>
      </trkpt>
      <trkpt lat="44.80896" lon="4.59589">
        <ele>409.29400634766</ele>
        <time>2009-08-03T10:39:28Z</time>
      </trkpt>
      <trkpt lat="44.80925" lon="4.5962">
        <ele>412.84698486328</ele>
        <time>2009-08-03T10:39:40Z</time>
      </trkpt>
      <trkpt lat="44.8095" lon="4.59658">
        <ele>416.25799560547</ele>
        <time>2009-08-03T10:39:52Z</time>
      </trkpt>
      <trkpt lat="44.80938" lon="4.59717">
        <ele>420.13900756836</ele>
        <time>2009-08-03T10:40:05Z</time>
      </trkpt>
      <trkpt lat="44.80935" lon="4.59769">
        <ele>423.21798706055</ele>
        <time>2009-08-03T10:40:17Z</time>
      </trkpt>
      <trkpt lat="44.80953" lon="4.59819">
        <ele>426.50601196289</ele>
        <time>2009-08-03T10:40:29Z</time>
      </trkpt>
      <trkpt lat="44.80977" lon="4.59884">
        <ele>429.71899414062</ele>
        <time>2009-08-03T10:40:44Z</time>
      </trkpt>
      <trkpt lat="44.81005" lon="4.59945">
        <ele>434.32400512695</ele>
        <time>2009-08-03T10:41:01Z</time>
      </trkpt>
      <trkpt lat="44.81015" lon="4.6">
        <ele>437.54000854492</ele>
        <time>2009-08-03T10:41:15Z</time>
      </trkpt>
      <trkpt lat="44.81004" lon="4.60065">
        <ele>442.16400146484</ele>
        <time>2009-08-03T10:41:30Z</time>
      </trkpt>
      <trkpt lat="44.80997" lon="4.60125">
        <ele>445.06900024414</ele>
        <time>2009-08-03T10:41:43Z</time>
      </trkpt>
      <trkpt lat="44.80995" lon="4.60198">
        <ele>447.9700012207</ele>
        <time>2009-08-03T10:41:58Z</time>
      </trkpt>
      <trkpt lat="44.81006" lon="4.6022">
        <ele>448.1780090332</ele>
        <time>2009-08-03T10:42:03Z</time>
      </trkpt>
      <trkpt lat="44.81032" lon="4.60248">
        <ele>449.48400878906</ele>
        <time>2009-08-03T10:42:11Z</time>
      </trkpt>
      <trkpt lat="44.81031" lon="4.60272">
        <ele>451.55200195312</ele>
        <time>2009-08-03T10:42:18Z</time>
      </trkpt>
      <trkpt lat="44.81018" lon="4.60254">
        <ele>452.76400756836</ele>
        <time>2009-08-03T10:42:23Z</time>
      </trkpt>
      <trkpt lat="44.80986" lon="4.60209">
        <ele>456.30700683594</ele>
        <time>2009-08-03T10:42:37Z</time>
      </trkpt>
      <trkpt lat="44.80952" lon="4.60152">
        <ele>460.43399047852</ele>
        <time>2009-08-03T10:42:51Z</time>
      </trkpt>
      <trkpt lat="44.80923" lon="4.60115">
        <ele>462.99301147461</ele>
        <time>2009-08-03T10:43:00Z</time>
      </trkpt>
      <trkpt lat="44.80872" lon="4.60048">
        <ele>465.23199462891</ele>
        <time>2009-08-03T10:43:16Z</time>
      </trkpt>
      <trkpt lat="44.80826" lon="4.59967">
        <ele>467.39999389648</ele>
        <time>2009-08-03T10:43:33Z</time>
      </trkpt>
      <trkpt lat="44.80799" lon="4.59931">
        <ele>468.79699707031</ele>
        <time>2009-08-03T10:43:41Z</time>
      </trkpt>
      <trkpt lat="44.80783" lon="4.59916">
        <ele>469.36999511719</ele>
        <time>2009-08-03T10:43:45Z</time>
      </trkpt>
      <trkpt lat="44.80775" lon="4.59912">
        <ele>469.35101318359</ele>
        <time>2009-08-03T10:43:47Z</time>
      </trkpt>
      <trkpt lat="44.80749" lon="4.59911">
        <ele>470.35198974609</ele>
        <time>2009-08-03T10:43:53Z</time>
      </trkpt>
      <trkpt lat="44.80737" lon="4.59916">
        <ele>471.02301025391</ele>
        <time>2009-08-03T10:43:56Z</time>
      </trkpt>
      <trkpt lat="44.80703" lon="4.59898">
        <ele>473.10998535156</ele>
        <time>2009-08-03T10:44:05Z</time>
      </trkpt>
      <trkpt lat="44.807" lon="4.59888">
        <ele>473.77200317383</ele>
        <time>2009-08-03T10:44:07Z</time>
      </trkpt>
      <trkpt lat="44.80695" lon="4.59867">
        <ele>474.75399780273</ele>
        <time>2009-08-03T10:44:11Z</time>
      </trkpt>
      <trkpt lat="44.80681" lon="4.59798">
        <ele>476.11599731445</ele>
        <time>2009-08-03T10:44:22Z</time>
      </trkpt>
      <trkpt lat="44.80669" lon="4.59759">
        <ele>477.00500488281</ele>
        <time>2009-08-03T10:44:28Z</time>
      </trkpt>
      <trkpt lat="44.80665" lon="4.59747">
        <ele>477.36999511719</ele>
        <time>2009-08-03T10:44:30Z</time>
      </trkpt>
      <trkpt lat="44.80634" lon="4.59679">
        <ele>479.74899291992</ele>
        <time>2009-08-03T10:44:42Z</time>
      </trkpt>
      <trkpt lat="44.80627" lon="4.5966">
        <ele>480.21499633789</ele>
        <time>2009-08-03T10:44:46Z</time>
      </trkpt>
      <trkpt lat="44.80623" lon="4.59646">
        <ele>480.74798583984</ele>
        <time>2009-08-03T10:44:49Z</time>
      </trkpt>
      <trkpt lat="44.80617" lon="4.59612">
        <ele>481.60598754883</ele>
        <time>2009-08-03T10:44:55Z</time>
      </trkpt>
      <trkpt lat="44.80616" lon="4.59592">
        <ele>481.61499023438</ele>
        <time>2009-08-03T10:44:58Z</time>
      </trkpt>
      <trkpt lat="44.80615" lon="4.59563">
        <ele>481.98300170898</ele>
        <time>2009-08-03T10:45:02Z</time>
      </trkpt>
      <trkpt lat="44.80616" lon="4.59519">
        <ele>482.55801391602</ele>
        <time>2009-08-03T10:45:08Z</time>
      </trkpt>
      <trkpt lat="44.80595" lon="4.59422">
        <ele>484.06698608398</ele>
        <time>2009-08-03T10:45:22Z</time>
      </trkpt>
      <trkpt lat="44.8058" lon="4.59386">
        <ele>484.59100341797</ele>
        <time>2009-08-03T10:45:28Z</time>
      </trkpt>
      <trkpt lat="44.80572" lon="4.59368">
        <ele>485.20098876953</ele>
        <time>2009-08-03T10:45:31Z</time>
      </trkpt>
      <trkpt lat="44.80568" lon="4.59357">
        <ele>485.28601074219</ele>
        <time>2009-08-03T10:45:33Z</time>
      </trkpt>
      <trkpt lat="44.80559" lon="4.59335">
        <ele>485.99899291992</ele>
        <time>2009-08-03T10:45:37Z</time>
      </trkpt>
      <trkpt lat="44.8053" lon="4.59234">
        <ele>487.96798706055</ele>
        <time>2009-08-03T10:45:52Z</time>
      </trkpt>
      <trkpt lat="44.80525" lon="4.59213">
        <ele>488.55099487305</ele>
        <time>2009-08-03T10:45:55Z</time>
      </trkpt>
      <trkpt lat="44.8052" lon="4.59196">
        <ele>489.12399291992</ele>
        <time>2009-08-03T10:45:58Z</time>
      </trkpt>
      <trkpt lat="44.80502" lon="4.59163">
        <ele>490.99700927734</ele>
        <time>2009-08-03T10:46:05Z</time>
      </trkpt>
      <trkpt lat="44.80495" lon="4.5915">
        <ele>491.73999023438</ele>
        <time>2009-08-03T10:46:08Z</time>
      </trkpt>
      <trkpt lat="44.80485" lon="4.59132">
        <ele>492.82000732422</ele>
        <time>2009-08-03T10:46:12Z</time>
      </trkpt>
      <trkpt lat="44.80464" lon="4.59112">
        <ele>494.46899414062</ele>
        <time>2009-08-03T10:46:18Z</time>
      </trkpt>
      <trkpt lat="44.80447" lon="4.59106">
        <ele>495.21099853516</ele>
        <time>2009-08-03T10:46:22Z</time>
      </trkpt>
      <trkpt lat="44.80439" lon="4.59105">
        <ele>495.92098999023</ele>
        <time>2009-08-03T10:46:24Z</time>
      </trkpt>
      <trkpt lat="44.80423" lon="4.59106">
        <ele>496.99200439453</ele>
        <time>2009-08-03T10:46:28Z</time>
      </trkpt>
      <trkpt lat="44.80405" lon="4.59105">
        <ele>498.38101196289</ele>
        <time>2009-08-03T10:46:33Z</time>
      </trkpt>
      <trkpt lat="44.80388" lon="4.591">
        <ele>499.42199707031</ele>
        <time>2009-08-03T10:46:37Z</time>
      </trkpt>
      <trkpt lat="44.8036" lon="4.59098">
        <ele>501.13198852539</ele>
        <time>2009-08-03T10:46:44Z</time>
      </trkpt>
      <trkpt lat="44.80345" lon="4.59106">
        <ele>502.54699707031</ele>
        <time>2009-08-03T10:46:49Z</time>
      </trkpt>
      <trkpt lat="44.80317" lon="4.59144">
        <ele>505.35198974609</ele>
        <time>2009-08-03T10:47:01Z</time>
      </trkpt>
      <trkpt lat="44.80284" lon="4.59161">
        <ele>507.88198852539</ele>
        <time>2009-08-03T10:47:11Z</time>
      </trkpt>
      <trkpt lat="44.80268" lon="4.5915">
        <ele>508.96200561523</ele>
        <time>2009-08-03T10:47:16Z</time>
      </trkpt>
      <trkpt lat="44.8026" lon="4.59132">
        <ele>510.30200195312</ele>
        <time>2009-08-03T10:47:21Z</time>
      </trkpt>
      <trkpt lat="44.80247" lon="4.59104">
        <ele>511.59698486328</ele>
        <time>2009-08-03T10:47:27Z</time>
      </trkpt>
      <trkpt lat="44.8024" lon="4.59085">
        <ele>512.46099853516</ele>
        <time>2009-08-03T10:47:30Z</time>
      </trkpt>
      <trkpt lat="44.80238" lon="4.59073">
        <ele>512.5830078125</ele>
        <time>2009-08-03T10:47:32Z</time>
      </trkpt>
      <trkpt lat="44.8023" lon="4.59019">
        <ele>514.78002929688</ele>
        <time>2009-08-03T10:47:41Z</time>
      </trkpt>
      <trkpt lat="44.80222" lon="4.59001">
        <ele>515.82897949219</ele>
        <time>2009-08-03T10:47:45Z</time>
      </trkpt>
      <trkpt lat="44.80215" lon="4.58994">
        <ele>516.61401367188</ele>
        <time>2009-08-03T10:47:47Z</time>
      </trkpt>
      <trkpt lat="44.80209" lon="4.58986">
        <ele>516.94396972656</ele>
        <time>2009-08-03T10:47:49Z</time>
      </trkpt>
      <trkpt lat="44.80196" lon="4.5892">
        <ele>519.21398925781</ele>
        <time>2009-08-03T10:48:02Z</time>
      </trkpt>
      <trkpt lat="44.80188" lon="4.58825">
        <ele>522.59698486328</ele>
        <time>2009-08-03T10:48:20Z</time>
      </trkpt>
      <trkpt lat="44.80184" lon="4.58784">
        <ele>524.04602050781</ele>
        <time>2009-08-03T10:48:28Z</time>
      </trkpt>
      <trkpt lat="44.80175" lon="4.58753">
        <ele>525.45300292969</ele>
        <time>2009-08-03T10:48:34Z</time>
      </trkpt>
      <trkpt lat="44.80169" lon="4.58725">
        <ele>526.50598144531</ele>
        <time>2009-08-03T10:48:39Z</time>
      </trkpt>
      <trkpt lat="44.80167" lon="4.58636">
        <ele>530.5419921875</ele>
        <time>2009-08-03T10:48:55Z</time>
      </trkpt>
      <trkpt lat="44.80183" lon="4.58557">
        <ele>533.55603027344</ele>
        <time>2009-08-03T10:49:10Z</time>
      </trkpt>
      <trkpt lat="44.80191" lon="4.58474">
        <ele>537.22399902344</ele>
        <time>2009-08-03T10:49:26Z</time>
      </trkpt>
      <trkpt lat="44.80209" lon="4.58378">
        <ele>541.21600341797</ele>
        <time>2009-08-03T10:49:44Z</time>
      </trkpt>
      <trkpt lat="44.80206" lon="4.58297">
        <ele>544.76800537109</ele>
        <time>2009-08-03T10:50:00Z</time>
      </trkpt>
      <trkpt lat="44.80167" lon="4.5825">
        <ele>548.71197509766</ele>
        <time>2009-08-03T10:50:13Z</time>
      </trkpt>
      <trkpt lat="44.80151" lon="4.58232">
        <ele>549.84698486328</ele>
        <time>2009-08-03T10:50:18Z</time>
      </trkpt>
      <trkpt lat="44.80145" lon="4.58218">
        <ele>550.30297851562</ele>
        <time>2009-08-03T10:50:21Z</time>
      </trkpt>
      <trkpt lat="44.80129" lon="4.58161">
        <ele>549.91497802734</ele>
        <time>2009-08-03T10:50:31Z</time>
      </trkpt>
      <trkpt lat="44.80111" lon="4.58034">
        <ele>548.30102539062</ele>
        <time>2009-08-03T10:50:46Z</time>
      </trkpt>
      <trkpt lat="44.80084" lon="4.57919">
        <ele>546.05700683594</ele>
        <time>2009-08-03T10:50:58Z</time>
      </trkpt>
      <trkpt lat="44.80077" lon="4.5789">
        <ele>545.21502685547</ele>
        <time>2009-08-03T10:51:01Z</time>
      </trkpt>
      <trkpt lat="44.80035" lon="4.57841">
        <ele>544.84997558594</ele>
        <time>2009-08-03T10:51:10Z</time>
      </trkpt>
      <trkpt lat="44.79992" lon="4.57827">
        <ele>543.32299804688</ele>
        <time>2009-08-03T10:51:17Z</time>
      </trkpt>
      <trkpt lat="44.79978" lon="4.57822">
        <ele>543.32202148438</ele>
        <time>2009-08-03T10:51:19Z</time>
      </trkpt>
      <trkpt lat="44.79929" lon="4.57839">
        <ele>540.09802246094</ele>
        <time>2009-08-03T10:51:26Z</time>
      </trkpt>
      <trkpt lat="44.79898" lon="4.57872">
        <ele>538.47302246094</ele>
        <time>2009-08-03T10:51:31Z</time>
      </trkpt>
      <trkpt lat="44.79876" lon="4.57921">
        <ele>536.78002929688</ele>
        <time>2009-08-03T10:51:36Z</time>
      </trkpt>
      <trkpt lat="44.79873" lon="4.57944">
        <ele>536.72601318359</ele>
        <time>2009-08-03T10:51:38Z</time>
      </trkpt>
      <trkpt lat="44.79849" lon="4.58006">
        <ele>535.35900878906</ele>
        <time>2009-08-03T10:51:44Z</time>
      </trkpt>
      <trkpt lat="44.7984" lon="4.58025">
        <ele>535.33099365234</ele>
        <time>2009-08-03T10:51:46Z</time>
      </trkpt>
      <trkpt lat="44.79789" lon="4.58054">
        <ele>534.52502441406</ele>
        <time>2009-08-03T10:51:54Z</time>
      </trkpt>
      <trkpt lat="44.79779" lon="4.58059">
        <ele>534.60198974609</ele>
        <time>2009-08-03T10:51:56Z</time>
      </trkpt>
      <trkpt lat="44.79739" lon="4.58035">
        <ele>534.14001464844</ele>
        <time>2009-08-03T10:52:05Z</time>
      </trkpt>
      <trkpt lat="44.7971" lon="4.58012">
        <ele>532.52099609375</ele>
        <time>2009-08-03T10:52:15Z</time>
      </trkpt>
      <trkpt lat="44.79701" lon="4.58007">
        <ele>532.03302001953</ele>
        <time>2009-08-03T10:52:20Z</time>
      </trkpt>
      <trkpt lat="44.79699" lon="4.58006">
        <ele>532.19702148438</ele>
        <time>2009-08-03T10:52:24Z</time>
      </trkpt>
      <trkpt lat="44.7972" lon="4.58023">
        <ele>533.71002197266</ele>
        <time>2009-08-03T10:52:57Z</time>
      </trkpt>
      <trkpt lat="44.79753" lon="4.58053">
        <ele>534.3330078125</ele>
        <time>2009-08-03T10:53:08Z</time>
      </trkpt>
      <trkpt lat="44.79786" lon="4.58054">
        <ele>534.55700683594</ele>
        <time>2009-08-03T10:53:15Z</time>
      </trkpt>
      <trkpt lat="44.798" lon="4.58045">
        <ele>534.82800292969</ele>
        <time>2009-08-03T10:53:18Z</time>
      </trkpt>
      <trkpt lat="44.79824" lon="4.58035">
        <ele>534.63897705078</ele>
        <time>2009-08-03T10:53:23Z</time>
      </trkpt>
      <trkpt lat="44.79847" lon="4.58">
        <ele>534.59899902344</ele>
        <time>2009-08-03T10:53:30Z</time>
      </trkpt>
      <trkpt lat="44.79864" lon="4.57967">
        <ele>535.86199951172</ele>
        <time>2009-08-03T10:53:36Z</time>
      </trkpt>
      <trkpt lat="44.79873" lon="4.57905">
        <ele>537.708984375</ele>
        <time>2009-08-03T10:53:45Z</time>
      </trkpt>
      <trkpt lat="44.79886" lon="4.57882">
        <ele>538.68798828125</ele>
        <time>2009-08-03T10:53:49Z</time>
      </trkpt>
      <trkpt lat="44.79898" lon="4.57871">
        <ele>539.42797851562</ele>
        <time>2009-08-03T10:53:52Z</time>
      </trkpt>
      <trkpt lat="44.7994" lon="4.5783">
        <ele>540.541015625</ele>
        <time>2009-08-03T10:54:03Z</time>
      </trkpt>
      <trkpt lat="44.79958" lon="4.57822">
        <ele>541.40301513672</ele>
        <time>2009-08-03T10:54:07Z</time>
      </trkpt>
      <trkpt lat="44.79976" lon="4.57823">
        <ele>542.44097900391</ele>
        <time>2009-08-03T10:54:11Z</time>
      </trkpt>
      <trkpt lat="44.8002" lon="4.57842">
        <ele>543.88500976562</ele>
        <time>2009-08-03T10:54:21Z</time>
      </trkpt>
      <trkpt lat="44.80034" lon="4.57843">
        <ele>545.05401611328</ele>
        <time>2009-08-03T10:54:25Z</time>
      </trkpt>
      <trkpt lat="44.80031" lon="4.57832">
        <ele>546.31896972656</ele>
        <time>2009-08-03T10:54:31Z</time>
      </trkpt>
      <trkpt lat="44.79993" lon="4.5779">
        <ele>549.43200683594</ele>
        <time>2009-08-03T10:54:47Z</time>
      </trkpt>
      <trkpt lat="44.79977" lon="4.57772">
        <ele>550.21002197266</ele>
        <time>2009-08-03T10:54:53Z</time>
      </trkpt>
      <trkpt lat="44.79986" lon="4.57744">
        <ele>553.48699951172</ele>
        <time>2009-08-03T10:55:02Z</time>
      </trkpt>
      <trkpt lat="44.79988" lon="4.57701">
        <ele>556.81298828125</ele>
        <time>2009-08-03T10:55:15Z</time>
      </trkpt>
      <trkpt lat="44.79976" lon="4.57674">
        <ele>560.69201660156</ele>
        <time>2009-08-03T10:55:25Z</time>
      </trkpt>
      <trkpt lat="44.7996" lon="4.57644">
        <ele>565.05999755859</ele>
        <time>2009-08-03T10:55:37Z</time>
      </trkpt>
      <trkpt lat="44.79951" lon="4.57607">
        <ele>569.00402832031</ele>
        <time>2009-08-03T10:55:50Z</time>
      </trkpt>
      <trkpt lat="44.79943" lon="4.5758">
        <ele>572.19396972656</ele>
        <time>2009-08-03T10:56:01Z</time>
      </trkpt>
      <trkpt lat="44.79928" lon="4.57551">
        <ele>576.05798339844</ele>
        <time>2009-08-03T10:56:13Z</time>
      </trkpt>
      <trkpt lat="44.7992" lon="4.57538">
        <ele>578.04602050781</ele>
        <time>2009-08-03T10:56:19Z</time>
      </trkpt>
      <trkpt lat="44.79911" lon="4.57545">
        <ele>579.81201171875</ele>
        <time>2009-08-03T10:56:25Z</time>
      </trkpt>
      <trkpt lat="44.79908" lon="4.57592">
        <ele>582.71899414062</ele>
        <time>2009-08-03T10:56:36Z</time>
      </trkpt>
      <trkpt lat="44.79886" lon="4.57648">
        <ele>588.28802490234</ele>
        <time>2009-08-03T10:56:51Z</time>
      </trkpt>
      <trkpt lat="44.79874" lon="4.57653">
        <ele>590.2490234375</ele>
        <time>2009-08-03T10:56:55Z</time>
      </trkpt>
      <trkpt lat="44.79871" lon="4.57647">
        <ele>591.01898193359</ele>
        <time>2009-08-03T10:56:57Z</time>
      </trkpt>
      <trkpt lat="44.79872" lon="4.57642">
        <ele>591.55297851562</ele>
        <time>2009-08-03T10:56:59Z</time>
      </trkpt>
      <trkpt lat="44.79877" lon="4.57591">
        <ele>594.70202636719</ele>
        <time>2009-08-03T10:57:12Z</time>
      </trkpt>
      <trkpt lat="44.79863" lon="4.57539">
        <ele>599.29998779297</ele>
        <time>2009-08-03T10:57:27Z</time>
      </trkpt>
      <trkpt lat="44.79845" lon="4.57504">
        <ele>602.33001708984</ele>
        <time>2009-08-03T10:57:40Z</time>
      </trkpt>
      <trkpt lat="44.79823" lon="4.57472">
        <ele>605.11199951172</ele>
        <time>2009-08-03T10:57:50Z</time>
      </trkpt>
      <trkpt lat="44.79805" lon="4.57452">
        <ele>608.04998779297</ele>
        <time>2009-08-03T10:57:57Z</time>
      </trkpt>
      <trkpt lat="44.79773" lon="4.5742">
        <ele>610.31896972656</ele>
        <time>2009-08-03T10:58:08Z</time>
      </trkpt>
      <trkpt lat="44.79747" lon="4.57383">
        <ele>613.89599609375</ele>
        <time>2009-08-03T10:58:20Z</time>
      </trkpt>
      <trkpt lat="44.79707" lon="4.5734">
        <ele>619.26800537109</ele>
        <time>2009-08-03T10:58:35Z</time>
      </trkpt>
      <trkpt lat="44.79692" lon="4.57326">
        <ele>621.41998291016</ele>
        <time>2009-08-03T10:58:40Z</time>
      </trkpt>
      <trkpt lat="44.79644" lon="4.57266">
        <ele>624.35101318359</ele>
        <time>2009-08-03T10:58:58Z</time>
      </trkpt>
      <trkpt lat="44.79605" lon="4.57242">
        <ele>627.53601074219</ele>
        <time>2009-08-03T10:59:12Z</time>
      </trkpt>
      <trkpt lat="44.79547" lon="4.5727">
        <ele>627.85498046875</ele>
        <time>2009-08-03T10:59:26Z</time>
      </trkpt>
      <trkpt lat="44.79492" lon="4.57264">
        <ele>631.96697998047</ele>
        <time>2009-08-03T10:59:39Z</time>
      </trkpt>
      <trkpt lat="44.79469" lon="4.5726">
        <ele>633.06097412109</ele>
        <time>2009-08-03T10:59:45Z</time>
      </trkpt>
      <trkpt lat="44.79461" lon="4.57257">
        <ele>633.65802001953</ele>
        <time>2009-08-03T10:59:47Z</time>
      </trkpt>
      <trkpt lat="44.79417" lon="4.5726">
        <ele>636.99401855469</ele>
        <time>2009-08-03T10:59:59Z</time>
      </trkpt>
      <trkpt lat="44.79363" lon="4.57266">
        <ele>640.79901123047</ele>
        <time>2009-08-03T11:00:15Z</time>
      </trkpt>
      <trkpt lat="44.79325" lon="4.57264">
        <ele>646.24200439453</ele>
        <time>2009-08-03T11:00:30Z</time>
      </trkpt>
      <trkpt lat="44.79289" lon="4.57243">
        <ele>650.06701660156</ele>
        <time>2009-08-03T11:00:44Z</time>
      </trkpt>
      <trkpt lat="44.79275" lon="4.57195">
        <ele>653.80999755859</ele>
        <time>2009-08-03T11:00:58Z</time>
      </trkpt>
      <trkpt lat="44.79234" lon="4.57163">
        <ele>657.15899658203</ele>
        <time>2009-08-03T11:01:15Z</time>
      </trkpt>
      <trkpt lat="44.79186" lon="4.57157">
        <ele>659.36700439453</ele>
        <time>2009-08-03T11:01:30Z</time>
      </trkpt>
      <trkpt lat="44.79155" lon="4.57128">
        <ele>662.13098144531</ele>
        <time>2009-08-03T11:01:42Z</time>
      </trkpt>
      <trkpt lat="44.79147" lon="4.57067">
        <ele>664.20098876953</ele>
        <time>2009-08-03T11:01:55Z</time>
      </trkpt>
      <trkpt lat="44.79134" lon="4.56983">
        <ele>667.53497314453</ele>
        <time>2009-08-03T11:02:12Z</time>
      </trkpt>
      <trkpt lat="44.79118" lon="4.56938">
        <ele>669.97900390625</ele>
        <time>2009-08-03T11:02:22Z</time>
      </trkpt>
      <trkpt lat="44.79087" lon="4.56896">
        <ele>669.21002197266</ele>
        <time>2009-08-03T11:02:31Z</time>
      </trkpt>
      <trkpt lat="44.79071" lon="4.56875">
        <ele>670.66802978516</ele>
        <time>2009-08-03T11:02:37Z</time>
      </trkpt>
      <trkpt lat="44.79071" lon="4.56873">
        <ele>670.69097900391</ele>
        <time>2009-08-03T11:02:41Z</time>
      </trkpt>
      <trkpt lat="44.79062" lon="4.56865">
        <ele>670.65502929688</ele>
        <time>2009-08-03T11:03:06Z</time>
      </trkpt>
      <trkpt lat="44.79045" lon="4.56846">
        <ele>670.69299316406</ele>
        <time>2009-08-03T11:03:12Z</time>
      </trkpt>
      <trkpt lat="44.79008" lon="4.56826">
        <ele>669.72998046875</ele>
        <time>2009-08-03T11:03:20Z</time>
      </trkpt>
      <trkpt lat="44.78978" lon="4.56809">
        <ele>669.69097900391</ele>
        <time>2009-08-03T11:03:26Z</time>
      </trkpt>
      <trkpt lat="44.78963" lon="4.56799">
        <ele>668.64202880859</ele>
        <time>2009-08-03T11:03:29Z</time>
      </trkpt>
      <trkpt lat="44.78943" lon="4.56777">
        <ele>667.81799316406</ele>
        <time>2009-08-03T11:03:33Z</time>
      </trkpt>
      <trkpt lat="44.78898" lon="4.56718">
        <ele>669.30798339844</ele>
        <time>2009-08-03T11:03:44Z</time>
      </trkpt>
      <trkpt lat="44.78865" lon="4.56617">
        <ele>668.78698730469</ele>
        <time>2009-08-03T11:03:58Z</time>
      </trkpt>
      <trkpt lat="44.78832" lon="4.56491">
        <ele>664.84301757812</ele>
        <time>2009-08-03T11:04:12Z</time>
      </trkpt>
      <trkpt lat="44.78827" lon="4.56475">
        <ele>664.85198974609</ele>
        <time>2009-08-03T11:04:14Z</time>
      </trkpt>
      <trkpt lat="44.78803" lon="4.56442">
        <ele>664.01599121094</ele>
        <time>2009-08-03T11:04:20Z</time>
      </trkpt>
      <trkpt lat="44.78759" lon="4.56426">
        <ele>663.48199462891</ele>
        <time>2009-08-03T11:04:31Z</time>
      </trkpt>
      <trkpt lat="44.78757" lon="4.56427">
        <ele>663.23101806641</ele>
        <time>2009-08-03T11:04:32Z</time>
      </trkpt>
      <trkpt lat="44.78757" lon="4.56426">
        <ele>663.40600585938</ele>
        <time>2009-08-03T11:04:38Z</time>
      </trkpt>
      <trkpt lat="44.78759" lon="4.56431">
        <ele>663.99102783203</ele>
        <time>2009-08-03T11:04:49Z</time>
      </trkpt>
      <trkpt lat="44.7876" lon="4.5642">
        <ele>663.92401123047</ele>
        <time>2009-08-03T11:11:41Z</time>
      </trkpt>
      <trkpt lat="44.78773" lon="4.56384">
        <ele>662.66802978516</ele>
        <time>2009-08-03T11:11:50Z</time>
      </trkpt>
      <trkpt lat="44.78764" lon="4.56287">
        <ele>658.66802978516</ele>
        <time>2009-08-03T11:12:01Z</time>
      </trkpt>
      <trkpt lat="44.78759" lon="4.5622">
        <ele>656.30297851562</ele>
        <time>2009-08-03T11:12:08Z</time>
      </trkpt>
      <trkpt lat="44.78756" lon="4.562">
        <ele>655.65899658203</ele>
        <time>2009-08-03T11:12:11Z</time>
      </trkpt>
      <trkpt lat="44.78743" lon="4.56126">
        <ele>649.79400634766</ele>
        <time>2009-08-03T11:12:21Z</time>
      </trkpt>
      <trkpt lat="44.7874" lon="4.56109">
        <ele>648.50897216797</ele>
        <time>2009-08-03T11:12:23Z</time>
      </trkpt>
      <trkpt lat="44.78721" lon="4.56084">
        <ele>647.24298095703</ele>
        <time>2009-08-03T11:12:27Z</time>
      </trkpt>
      <trkpt lat="44.78701" lon="4.56077">
        <ele>646.33099365234</ele>
        <time>2009-08-03T11:12:30Z</time>
      </trkpt>
      <trkpt lat="44.78675" lon="4.56046">
        <ele>641.97900390625</ele>
        <time>2009-08-03T11:12:35Z</time>
      </trkpt>
      <trkpt lat="44.78662" lon="4.5602">
        <ele>640.28198242188</ele>
        <time>2009-08-03T11:12:38Z</time>
      </trkpt>
      <trkpt lat="44.78651" lon="4.55959">
        <ele>634.82598876953</ele>
        <time>2009-08-03T11:12:45Z</time>
      </trkpt>
      <trkpt lat="44.78647" lon="4.55942">
        <ele>633.31500244141</ele>
        <time>2009-08-03T11:12:48Z</time>
      </trkpt>
      <trkpt lat="44.78655" lon="4.55943">
        <ele>630.86199951172</ele>
        <time>2009-08-03T11:12:53Z</time>
      </trkpt>
      <trkpt lat="44.78661" lon="4.55961">
        <ele>628.49200439453</ele>
        <time>2009-08-03T11:12:56Z</time>
      </trkpt>
      <trkpt lat="44.78663" lon="4.55968">
        <ele>627.53100585938</ele>
        <time>2009-08-03T11:12:57Z</time>
      </trkpt>
      <trkpt lat="44.78687" lon="4.5601">
        <ele>624.42602539062</ele>
        <time>2009-08-03T11:13:04Z</time>
      </trkpt>
      <trkpt lat="44.78693" lon="4.56014">
        <ele>623.50598144531</ele>
        <time>2009-08-03T11:13:05Z</time>
      </trkpt>
      <trkpt lat="44.78704" lon="4.56022">
        <ele>622.59399414062</ele>
        <time>2009-08-03T11:13:07Z</time>
      </trkpt>
      <trkpt lat="44.78708" lon="4.56025">
        <ele>622.20001220703</ele>
        <time>2009-08-03T11:13:08Z</time>
      </trkpt>
      <trkpt lat="44.78714" lon="4.56015">
        <ele>620.00500488281</ele>
        <time>2009-08-03T11:13:13Z</time>
      </trkpt>
      <trkpt lat="44.78698" lon="4.55998">
        <ele>618.09802246094</ele>
        <time>2009-08-03T11:13:17Z</time>
      </trkpt>
      <trkpt lat="44.78691" lon="4.55985">
        <ele>617.28802490234</ele>
        <time>2009-08-03T11:13:19Z</time>
      </trkpt>
      <trkpt lat="44.7867" lon="4.55859">
        <ele>607.80999755859</ele>
        <time>2009-08-03T11:13:33Z</time>
      </trkpt>
      <trkpt lat="44.78669" lon="4.55761">
        <ele>601.20397949219</ele>
        <time>2009-08-03T11:13:44Z</time>
      </trkpt>
      <trkpt lat="44.78682" lon="4.55735">
        <ele>594.92999267578</ele>
        <time>2009-08-03T11:13:48Z</time>
      </trkpt>
      <trkpt lat="44.78728" lon="4.5568">
        <ele>586.98400878906</ele>
        <time>2009-08-03T11:13:58Z</time>
      </trkpt>
      <trkpt lat="44.78736" lon="4.55675">
        <ele>586.09600830078</ele>
        <time>2009-08-03T11:14:00Z</time>
      </trkpt>
      <trkpt lat="44.78744" lon="4.55675">
        <ele>584.34600830078</ele>
        <time>2009-08-03T11:14:02Z</time>
      </trkpt>
      <trkpt lat="44.78757" lon="4.55649">
        <ele>580.80603027344</ele>
        <time>2009-08-03T11:14:09Z</time>
      </trkpt>
      <trkpt lat="44.78743" lon="4.55644">
        <ele>578.72399902344</ele>
        <time>2009-08-03T11:14:12Z</time>
      </trkpt>
      <trkpt lat="44.78738" lon="4.55646">
        <ele>578.61297607422</ele>
        <time>2009-08-03T11:14:13Z</time>
      </trkpt>
      <trkpt lat="44.78735" lon="4.55646">
        <ele>578.44702148438</ele>
        <time>2009-08-03T11:14:14Z</time>
      </trkpt>
      <trkpt lat="44.78733" lon="4.55644">
        <ele>577.67498779297</ele>
        <time>2009-08-03T11:14:15Z</time>
      </trkpt>
      <trkpt lat="44.7874" lon="4.5563">
        <ele>574.43902587891</ele>
        <time>2009-08-03T11:14:18Z</time>
      </trkpt>
      <trkpt lat="44.78749" lon="4.55623">
        <ele>573.82299804688</ele>
        <time>2009-08-03T11:14:20Z</time>
      </trkpt>
      <trkpt lat="44.78791" lon="4.55596">
        <ele>567.43597412109</ele>
        <time>2009-08-03T11:14:28Z</time>
      </trkpt>
      <trkpt lat="44.78809" lon="4.55613">
        <ele>563.666015625</ele>
        <time>2009-08-03T11:14:34Z</time>
      </trkpt>
      <trkpt lat="44.78823" lon="4.55596">
        <ele>559.62200927734</ele>
        <time>2009-08-03T11:14:39Z</time>
      </trkpt>
      <trkpt lat="44.78827" lon="4.55589">
        <ele>558.625</ele>
        <time>2009-08-03T11:14:40Z</time>
      </trkpt>
      <trkpt lat="44.78835" lon="4.55575">
        <ele>557.43298339844</ele>
        <time>2009-08-03T11:14:42Z</time>
      </trkpt>
      <trkpt lat="44.78841" lon="4.5554">
        <ele>554.11102294922</ele>
        <time>2009-08-03T11:14:46Z</time>
      </trkpt>
      <trkpt lat="44.78863" lon="4.5549">
        <ele>547.67999267578</ele>
        <time>2009-08-03T11:14:54Z</time>
      </trkpt>
      <trkpt lat="44.78866" lon="4.5548">
        <ele>547.12097167969</ele>
        <time>2009-08-03T11:14:55Z</time>
      </trkpt>
      <trkpt lat="44.78894" lon="4.55438">
        <ele>542.82598876953</ele>
        <time>2009-08-03T11:15:01Z</time>
      </trkpt>
      <trkpt lat="44.78915" lon="4.55434">
        <ele>540.31896972656</ele>
        <time>2009-08-03T11:15:04Z</time>
      </trkpt>
      <trkpt lat="44.7898" lon="4.55373">
        <ele>530.50299072266</ele>
        <time>2009-08-03T11:15:14Z</time>
      </trkpt>
      <trkpt lat="44.79012" lon="4.553">
        <ele>526.85101318359</ele>
        <time>2009-08-03T11:15:23Z</time>
      </trkpt>
      <trkpt lat="44.79022" lon="4.55256">
        <ele>523.708984375</ele>
        <time>2009-08-03T11:15:31Z</time>
      </trkpt>
      <trkpt lat="44.79036" lon="4.55202">
        <ele>522.14501953125</ele>
        <time>2009-08-03T11:15:43Z</time>
      </trkpt>
      <trkpt lat="44.79039" lon="4.5519">
        <ele>519.84100341797</ele>
        <time>2009-08-03T11:15:48Z</time>
      </trkpt>
      <trkpt lat="44.7904" lon="4.55188">
        <ele>519.77697753906</ele>
        <time>2009-08-03T11:16:02Z</time>
      </trkpt>
      <trkpt lat="44.7904" lon="4.55185">
        <ele>519.12097167969</ele>
        <time>2009-08-03T11:16:22Z</time>
      </trkpt>
      <trkpt lat="44.79047" lon="4.55161">
        <ele>517.12701416016</ele>
        <time>2009-08-03T11:16:27Z</time>
      </trkpt>
      <trkpt lat="44.79055" lon="4.55139">
        <ele>515.19299316406</ele>
        <time>2009-08-03T11:16:30Z</time>
      </trkpt>
      <trkpt lat="44.79063" lon="4.55121">
        <ele>514.21697998047</ele>
        <time>2009-08-03T11:16:33Z</time>
      </trkpt>
      <trkpt lat="44.79081" lon="4.55107">
        <ele>512.52099609375</ele>
        <time>2009-08-03T11:16:42Z</time>
      </trkpt>
      <trkpt lat="44.79087" lon="4.55107">
        <ele>511.39599609375</ele>
        <time>2009-08-03T11:16:44Z</time>
      </trkpt>
      <trkpt lat="44.79134" lon="4.55104">
        <ele>508.18301391602</ele>
        <time>2009-08-03T11:16:53Z</time>
      </trkpt>
      <trkpt lat="44.79169" lon="4.55097">
        <ele>507.19500732422</ele>
        <time>2009-08-03T11:17:00Z</time>
      </trkpt>
      <trkpt lat="44.79187" lon="4.55101">
        <ele>507.41198730469</ele>
        <time>2009-08-03T11:17:04Z</time>
      </trkpt>
      <trkpt lat="44.79225" lon="4.55114">
        <ele>509.10198974609</ele>
        <time>2009-08-03T11:17:14Z</time>
      </trkpt>
      <trkpt lat="44.79233" lon="4.55113">
        <ele>510.2799987793</ele>
        <time>2009-08-03T11:17:17Z</time>
      </trkpt>
      <trkpt lat="44.79243" lon="4.55109">
        <ele>510.09698486328</ele>
        <time>2009-08-03T11:17:20Z</time>
      </trkpt>
      <trkpt lat="44.79247" lon="4.55108">
        <ele>509.90399169922</ele>
        <time>2009-08-03T11:17:21Z</time>
      </trkpt>
      <trkpt lat="44.79254" lon="4.55107">
        <ele>509.91198730469</ele>
        <time>2009-08-03T11:17:23Z</time>
      </trkpt>
      <trkpt lat="44.79274" lon="4.55094">
        <ele>507.46798706055</ele>
        <time>2009-08-03T11:17:29Z</time>
      </trkpt>
      <trkpt lat="44.7928" lon="4.55082">
        <ele>505.48599243164</ele>
        <time>2009-08-03T11:17:31Z</time>
      </trkpt>
      <trkpt lat="44.79297" lon="4.55048">
        <ele>503.29299926758</ele>
        <time>2009-08-03T11:17:36Z</time>
      </trkpt>
      <trkpt lat="44.79316" lon="4.55003">
        <ele>498.78900146484</ele>
        <time>2009-08-03T11:17:43Z</time>
      </trkpt>
      <trkpt lat="44.79304" lon="4.54968">
        <ele>494.85998535156</ele>
        <time>2009-08-03T11:17:49Z</time>
      </trkpt>
      <trkpt lat="44.79278" lon="4.54951">
        <ele>492.10800170898</ele>
        <time>2009-08-03T11:17:56Z</time>
      </trkpt>
      <trkpt lat="44.79276" lon="4.54942">
        <ele>490.86999511719</ele>
        <time>2009-08-03T11:17:59Z</time>
      </trkpt>
      <trkpt lat="44.79282" lon="4.54943">
        <ele>490.14099121094</ele>
        <time>2009-08-03T11:18:02Z</time>
      </trkpt>
      <trkpt lat="44.79296" lon="4.54949">
        <ele>487.39700317383</ele>
        <time>2009-08-03T11:18:06Z</time>
      </trkpt>
      <trkpt lat="44.79316" lon="4.54946">
        <ele>484.92401123047</ele>
        <time>2009-08-03T11:18:09Z</time>
      </trkpt>
      <trkpt lat="44.79343" lon="4.54936">
        <ele>481.40899658203</ele>
        <time>2009-08-03T11:18:13Z</time>
      </trkpt>
      <trkpt lat="44.79355" lon="4.54931">
        <ele>479.70901489258</ele>
        <time>2009-08-03T11:18:15Z</time>
      </trkpt>
      <trkpt lat="44.79372" lon="4.54935">
        <ele>477.88000488281</ele>
        <time>2009-08-03T11:18:18Z</time>
      </trkpt>
      <trkpt lat="44.79377" lon="4.54967">
        <ele>474.70300292969</ele>
        <time>2009-08-03T11:18:23Z</time>
      </trkpt>
      <trkpt lat="44.79372" lon="4.54981">
        <ele>473.67001342773</ele>
        <time>2009-08-03T11:18:25Z</time>
      </trkpt>
      <trkpt lat="44.7938" lon="4.54988">
        <ele>471.87701416016</ele>
        <time>2009-08-03T11:18:31Z</time>
      </trkpt>
      <trkpt lat="44.79401" lon="4.54973">
        <ele>468.59399414062</ele>
        <time>2009-08-03T11:18:36Z</time>
      </trkpt>
      <trkpt lat="44.79419" lon="4.54973">
        <ele>466.56201171875</ele>
        <time>2009-08-03T11:18:39Z</time>
      </trkpt>
      <trkpt lat="44.79427" lon="4.5497">
        <ele>465.80700683594</ele>
        <time>2009-08-03T11:18:41Z</time>
      </trkpt>
      <trkpt lat="44.79434" lon="4.54934">
        <ele>461.05899047852</ele>
        <time>2009-08-03T11:18:48Z</time>
      </trkpt>
      <trkpt lat="44.79445" lon="4.54931">
        <ele>458.72500610352</ele>
        <time>2009-08-03T11:18:52Z</time>
      </trkpt>
      <trkpt lat="44.79452" lon="4.54942">
        <ele>457.3039855957</ele>
        <time>2009-08-03T11:18:54Z</time>
      </trkpt>
      <trkpt lat="44.79459" lon="4.54953">
        <ele>455.8210144043</ele>
        <time>2009-08-03T11:18:56Z</time>
      </trkpt>
      <trkpt lat="44.79464" lon="4.54976">
        <ele>454.06500244141</ele>
        <time>2009-08-03T11:18:59Z</time>
      </trkpt>
      <trkpt lat="44.7944" lon="4.55001">
        <ele>449.70098876953</ele>
        <time>2009-08-03T11:19:05Z</time>
      </trkpt>
      <trkpt lat="44.79436" lon="4.55012">
        <ele>448.02398681641</ele>
        <time>2009-08-03T11:19:09Z</time>
      </trkpt>
      <trkpt lat="44.79449" lon="4.55012">
        <ele>445.51699829102</ele>
        <time>2009-08-03T11:19:13Z</time>
      </trkpt>
      <trkpt lat="44.79466" lon="4.55">
        <ele>442.71600341797</ele>
        <time>2009-08-03T11:19:17Z</time>
      </trkpt>
      <trkpt lat="44.7949" lon="4.54987">
        <ele>439.20901489258</ele>
        <time>2009-08-03T11:19:22Z</time>
      </trkpt>
      <trkpt lat="44.79507" lon="4.54968">
        <ele>436.48999023438</ele>
        <time>2009-08-03T11:19:26Z</time>
      </trkpt>
      <trkpt lat="44.79499" lon="4.54911">
        <ele>431.23400878906</ele>
        <time>2009-08-03T11:19:33Z</time>
      </trkpt>
      <trkpt lat="44.79488" lon="4.54898">
        <ele>430.25100708008</ele>
        <time>2009-08-03T11:19:35Z</time>
      </trkpt>
      <trkpt lat="44.79485" lon="4.54894">
        <ele>430.13000488281</ele>
        <time>2009-08-03T11:19:36Z</time>
      </trkpt>
      <trkpt lat="44.79478" lon="4.54887">
        <ele>429.43099975586</ele>
        <time>2009-08-03T11:19:38Z</time>
      </trkpt>
      <trkpt lat="44.79488" lon="4.54882">
        <ele>427.47100830078</ele>
        <time>2009-08-03T11:19:45Z</time>
      </trkpt>
      <trkpt lat="44.79495" lon="4.54889">
        <ele>425.23098754883</ele>
        <time>2009-08-03T11:19:48Z</time>
      </trkpt>
      <trkpt lat="44.79523" lon="4.54915">
        <ele>420.59399414062</ele>
        <time>2009-08-03T11:19:58Z</time>
      </trkpt>
      <trkpt lat="44.79538" lon="4.54934">
        <ele>417.78100585938</ele>
        <time>2009-08-03T11:20:03Z</time>
      </trkpt>
      <trkpt lat="44.79546" lon="4.54954">
        <ele>416.02700805664</ele>
        <time>2009-08-03T11:20:07Z</time>
      </trkpt>
      <trkpt lat="44.79549" lon="4.54972">
        <ele>414.73498535156</ele>
        <time>2009-08-03T11:20:10Z</time>
      </trkpt>
      <trkpt lat="44.79549" lon="4.54978">
        <ele>414.28900146484</ele>
        <time>2009-08-03T11:20:11Z</time>
      </trkpt>
      <trkpt lat="44.79544" lon="4.55003">
        <ele>411.78698730469</ele>
        <time>2009-08-03T11:20:16Z</time>
      </trkpt>
      <trkpt lat="44.79558" lon="4.55008">
        <ele>408.86801147461</ele>
        <time>2009-08-03T11:20:22Z</time>
      </trkpt>
      <trkpt lat="44.79566" lon="4.54993">
        <ele>406.99200439453</ele>
        <time>2009-08-03T11:20:25Z</time>
      </trkpt>
      <trkpt lat="44.79569" lon="4.54982">
        <ele>406.05599975586</ele>
        <time>2009-08-03T11:20:27Z</time>
      </trkpt>
      <trkpt lat="44.79571" lon="4.54945">
        <ele>403.73400878906</ele>
        <time>2009-08-03T11:20:34Z</time>
      </trkpt>
      <trkpt lat="44.79568" lon="4.54873">
        <ele>396.9880065918</ele>
        <time>2009-08-03T11:20:43Z</time>
      </trkpt>
      <trkpt lat="44.79564" lon="4.54866">
        <ele>396.54000854492</ele>
        <time>2009-08-03T11:20:44Z</time>
      </trkpt>
      <trkpt lat="44.79557" lon="4.54855">
        <ele>396.29901123047</ele>
        <time>2009-08-03T11:20:46Z</time>
      </trkpt>
      <trkpt lat="44.79556" lon="4.54851">
        <ele>395.97299194336</ele>
        <time>2009-08-03T11:20:47Z</time>
      </trkpt>
      <trkpt lat="44.79571" lon="4.54854">
        <ele>392.99099731445</ele>
        <time>2009-08-03T11:20:53Z</time>
      </trkpt>
      <trkpt lat="44.79584" lon="4.54867">
        <ele>391.24099731445</ele>
        <time>2009-08-03T11:21:05Z</time>
      </trkpt>
      <trkpt lat="44.79589" lon="4.54872">
        <ele>390.37100219727</ele>
        <time>2009-08-03T11:21:11Z</time>
      </trkpt>
      <trkpt lat="44.79597" lon="4.54886">
        <ele>387.89199829102</ele>
        <time>2009-08-03T11:21:17Z</time>
      </trkpt>
      <trkpt lat="44.79603" lon="4.54918">
        <ele>385.32699584961</ele>
        <time>2009-08-03T11:21:22Z</time>
      </trkpt>
      <trkpt lat="44.79604" lon="4.54932">
        <ele>384.21798706055</ele>
        <time>2009-08-03T11:21:24Z</time>
      </trkpt>
      <trkpt lat="44.79613" lon="4.54949">
        <ele>382.35699462891</ele>
        <time>2009-08-03T11:21:27Z</time>
      </trkpt>
      <trkpt lat="44.79617" lon="4.54951">
        <ele>381.65701293945</ele>
        <time>2009-08-03T11:21:28Z</time>
      </trkpt>
      <trkpt lat="44.79622" lon="4.54949">
        <ele>381.04998779297</ele>
        <time>2009-08-03T11:21:29Z</time>
      </trkpt>
      <trkpt lat="44.79657" lon="4.54956">
        <ele>377.72500610352</ele>
        <time>2009-08-03T11:21:35Z</time>
      </trkpt>
      <trkpt lat="44.79661" lon="4.54959">
        <ele>377.47900390625</ele>
        <time>2009-08-03T11:21:36Z</time>
      </trkpt>
      <trkpt lat="44.79668" lon="4.54947">
        <ele>375.42300415039</ele>
        <time>2009-08-03T11:21:41Z</time>
      </trkpt>
      <trkpt lat="44.79667" lon="4.54935">
        <ele>373.15399169922</ele>
        <time>2009-08-03T11:21:44Z</time>
      </trkpt>
      <trkpt lat="44.79671" lon="4.54924">
        <ele>372.17401123047</ele>
        <time>2009-08-03T11:21:46Z</time>
      </trkpt>
      <trkpt lat="44.79689" lon="4.54915">
        <ele>369.89199829102</ele>
        <time>2009-08-03T11:21:50Z</time>
      </trkpt>
      <trkpt lat="44.79693" lon="4.54917">
        <ele>369.12899780273</ele>
        <time>2009-08-03T11:21:51Z</time>
      </trkpt>
      <trkpt lat="44.79697" lon="4.54906">
        <ele>366.20001220703</ele>
        <time>2009-08-03T11:21:58Z</time>
      </trkpt>
      <trkpt lat="44.79683" lon="4.54902">
        <ele>366.12701416016</ele>
        <time>2009-08-03T11:22:02Z</time>
      </trkpt>
      <trkpt lat="44.79675" lon="4.54902">
        <ele>366.11499023438</ele>
        <time>2009-08-03T11:22:04Z</time>
      </trkpt>
      <trkpt lat="44.79665" lon="4.54901">
        <ele>361.86801147461</ele>
        <time>2009-08-03T11:22:06Z</time>
      </trkpt>
      <trkpt lat="44.79654" lon="4.54888">
        <ele>360.14401245117</ele>
        <time>2009-08-03T11:22:09Z</time>
      </trkpt>
      <trkpt lat="44.79651" lon="4.54869">
        <ele>358.48699951172</ele>
        <time>2009-08-03T11:22:11Z</time>
      </trkpt>
      <trkpt lat="44.79646" lon="4.54832">
        <ele>355.6960144043</ele>
        <time>2009-08-03T11:22:15Z</time>
      </trkpt>
      <trkpt lat="44.79622" lon="4.54787">
        <ele>350.66101074219</ele>
        <time>2009-08-03T11:22:21Z</time>
      </trkpt>
      <trkpt lat="44.7961" lon="4.54775">
        <ele>348.85598754883</ele>
        <time>2009-08-03T11:22:23Z</time>
      </trkpt>
      <trkpt lat="44.79585" lon="4.5476">
        <ele>345.72198486328</ele>
        <time>2009-08-03T11:22:27Z</time>
      </trkpt>
      <trkpt lat="44.79539" lon="4.54723">
        <ele>340.73300170898</ele>
        <time>2009-08-03T11:22:35Z</time>
      </trkpt>
      <trkpt lat="44.79534" lon="4.54719">
        <ele>340.09298706055</ele>
        <time>2009-08-03T11:22:36Z</time>
      </trkpt>
      <trkpt lat="44.7948" lon="4.54653">
        <ele>331.42599487305</ele>
        <time>2009-08-03T11:22:45Z</time>
      </trkpt>
      <trkpt lat="44.79451" lon="4.54619">
        <ele>326.34799194336</ele>
        <time>2009-08-03T11:22:52Z</time>
      </trkpt>
      <trkpt lat="44.79457" lon="4.54611">
        <ele>323.3630065918</ele>
        <time>2009-08-03T11:22:58Z</time>
      </trkpt>
      <trkpt lat="44.79471" lon="4.54618">
        <ele>320.17098999023</ele>
        <time>2009-08-03T11:23:03Z</time>
      </trkpt>
      <trkpt lat="44.79486" lon="4.54606">
        <ele>319.89199829102</ele>
        <time>2009-08-03T11:23:07Z</time>
      </trkpt>
      <trkpt lat="44.79499" lon="4.54579">
        <ele>320.70700073242</ele>
        <time>2009-08-03T11:23:16Z</time>
      </trkpt>
      <trkpt lat="44.79495" lon="4.54572">
        <ele>320.51300048828</ele>
        <time>2009-08-03T11:23:25Z</time>
      </trkpt>
      <trkpt lat="44.79487" lon="4.54567">
        <ele>320.45498657227</ele>
        <time>2009-08-03T11:23:30Z</time>
      </trkpt>
      <trkpt lat="44.79451" lon="4.54548">
        <ele>320.68798828125</ele>
        <time>2009-08-03T11:23:46Z</time>
      </trkpt>
      <trkpt lat="44.79413" lon="4.54516">
        <ele>321.55599975586</ele>
        <time>2009-08-03T11:24:02Z</time>
      </trkpt>
      <trkpt lat="44.79395" lon="4.54477">
        <ele>321.9580078125</ele>
        <time>2009-08-03T11:24:12Z</time>
      </trkpt>
      <trkpt lat="44.79388" lon="4.54462">
        <ele>322.21200561523</ele>
        <time>2009-08-03T11:24:15Z</time>
      </trkpt>
      <trkpt lat="44.79378" lon="4.54435">
        <ele>322.90899658203</ele>
        <time>2009-08-03T11:24:20Z</time>
      </trkpt>
      <trkpt lat="44.79374" lon="4.54417">
        <ele>323.34100341797</ele>
        <time>2009-08-03T11:24:23Z</time>
      </trkpt>
      <trkpt lat="44.79369" lon="4.54391">
        <ele>323.18499755859</ele>
        <time>2009-08-03T11:24:27Z</time>
      </trkpt>
      <trkpt lat="44.79367" lon="4.54377">
        <ele>323.55999755859</ele>
        <time>2009-08-03T11:24:29Z</time>
      </trkpt>
      <trkpt lat="44.79362" lon="4.54356">
        <ele>323.66299438477</ele>
        <time>2009-08-03T11:24:32Z</time>
      </trkpt>
      <trkpt lat="44.7935" lon="4.54333">
        <ele>323.73001098633</ele>
        <time>2009-08-03T11:24:36Z</time>
      </trkpt>
      <trkpt lat="44.79312" lon="4.54285">
        <ele>325.55099487305</ele>
        <time>2009-08-03T11:24:46Z</time>
      </trkpt>
      <trkpt lat="44.79245" lon="4.54201">
        <ele>327.15701293945</ele>
        <time>2009-08-03T11:25:03Z</time>
      </trkpt>
      <trkpt lat="44.79179" lon="4.54085">
        <ele>328.12100219727</ele>
        <time>2009-08-03T11:25:21Z</time>
      </trkpt>
      <trkpt lat="44.7915" lon="4.54027">
        <ele>327.54800415039</ele>
        <time>2009-08-03T11:25:29Z</time>
      </trkpt>
      <trkpt lat="44.79119" lon="4.53987">
        <ele>329.03500366211</ele>
        <time>2009-08-03T11:25:36Z</time>
      </trkpt>
      <trkpt lat="44.79071" lon="4.53955">
        <ele>331.93099975586</ele>
        <time>2009-08-03T11:25:46Z</time>
      </trkpt>
      <trkpt lat="44.78982" lon="4.53926">
        <ele>335.6669921875</ele>
        <time>2009-08-03T11:26:03Z</time>
      </trkpt>
      <trkpt lat="44.78931" lon="4.53892">
        <ele>337.53698730469</ele>
        <time>2009-08-03T11:26:14Z</time>
      </trkpt>
      <trkpt lat="44.78891" lon="4.53839">
        <ele>340.04400634766</ele>
        <time>2009-08-03T11:26:25Z</time>
      </trkpt>
      <trkpt lat="44.78881" lon="4.538">
        <ele>341.32000732422</ele>
        <time>2009-08-03T11:26:31Z</time>
      </trkpt>
      <trkpt lat="44.78869" lon="4.53713">
        <ele>342.99600219727</ele>
        <time>2009-08-03T11:26:43Z</time>
      </trkpt>
      <trkpt lat="44.78852" lon="4.53571">
        <ele>346.33200073242</ele>
        <time>2009-08-03T11:27:03Z</time>
      </trkpt>
      <trkpt lat="44.78842" lon="4.53533">
        <ele>347.17098999023</ele>
        <time>2009-08-03T11:27:08Z</time>
      </trkpt>
      <trkpt lat="44.78839" lon="4.53498">
        <ele>347.78601074219</ele>
        <time>2009-08-03T11:27:12Z</time>
      </trkpt>
      <trkpt lat="44.78847" lon="4.53463">
        <ele>347.83099365234</ele>
        <time>2009-08-03T11:27:16Z</time>
      </trkpt>
      <trkpt lat="44.78849" lon="4.53382">
        <ele>348.0539855957</ele>
        <time>2009-08-03T11:27:24Z</time>
      </trkpt>
      <trkpt lat="44.78842" lon="4.53343">
        <ele>348.64401245117</ele>
        <time>2009-08-03T11:27:28Z</time>
      </trkpt>
      <trkpt lat="44.78826" lon="4.53296">
        <ele>350.12799072266</ele>
        <time>2009-08-03T11:27:34Z</time>
      </trkpt>
      <trkpt lat="44.78811" lon="4.53271">
        <ele>350.87200927734</ele>
        <time>2009-08-03T11:27:38Z</time>
      </trkpt>
      <trkpt lat="44.78794" lon="4.53249">
        <ele>351.20300292969</ele>
        <time>2009-08-03T11:27:42Z</time>
      </trkpt>
      <trkpt lat="44.7878" lon="4.53223">
        <ele>352.16799926758</ele>
        <time>2009-08-03T11:27:46Z</time>
      </trkpt>
      <trkpt lat="44.78748" lon="4.53195">
        <ele>351.83700561523</ele>
        <time>2009-08-03T11:27:53Z</time>
      </trkpt>
      <trkpt lat="44.78743" lon="4.53191">
        <ele>351.92498779297</ele>
        <time>2009-08-03T11:27:54Z</time>
      </trkpt>
      <trkpt lat="44.78717" lon="4.53164">
        <ele>354.01098632812</ele>
        <time>2009-08-03T11:28:00Z</time>
      </trkpt>
      <trkpt lat="44.78703" lon="4.53139">
        <ele>355.21499633789</ele>
        <time>2009-08-03T11:28:04Z</time>
      </trkpt>
      <trkpt lat="44.78691" lon="4.53113">
        <ele>356.4880065918</ele>
        <time>2009-08-03T11:28:08Z</time>
      </trkpt>
      <trkpt lat="44.78663" lon="4.53073">
        <ele>359.24700927734</ele>
        <time>2009-08-03T11:28:16Z</time>
      </trkpt>
      <trkpt lat="44.78645" lon="4.53045">
        <ele>360.44500732422</ele>
        <time>2009-08-03T11:28:22Z</time>
      </trkpt>
      <trkpt lat="44.78637" lon="4.53028">
        <ele>361.29000854492</ele>
        <time>2009-08-03T11:28:25Z</time>
      </trkpt>
      <trkpt lat="44.78646" lon="4.52984">
        <ele>362.42300415039</ele>
        <time>2009-08-03T11:28:32Z</time>
      </trkpt>
      <trkpt lat="44.78667" lon="4.52959">
        <ele>363.20098876953</ele>
        <time>2009-08-03T11:28:37Z</time>
      </trkpt>
      <trkpt lat="44.78679" lon="4.5294">
        <ele>363.93301391602</ele>
        <time>2009-08-03T11:28:40Z</time>
      </trkpt>
      <trkpt lat="44.7868" lon="4.52869">
        <ele>365.45199584961</ele>
        <time>2009-08-03T11:28:50Z</time>
      </trkpt>
      <trkpt lat="44.7867" lon="4.52851">
        <ele>366.22601318359</ele>
        <time>2009-08-03T11:28:53Z</time>
      </trkpt>
      <trkpt lat="44.78616" lon="4.52776">
        <ele>369.15100097656</ele>
        <time>2009-08-03T11:29:08Z</time>
      </trkpt>
      <trkpt lat="44.78613" lon="4.52771">
        <ele>369.57299804688</ele>
        <time>2009-08-03T11:29:09Z</time>
      </trkpt>
      <trkpt lat="44.786" lon="4.5275">
        <ele>370.33999633789</ele>
        <time>2009-08-03T11:29:13Z</time>
      </trkpt>
      <trkpt lat="44.7858" lon="4.5272">
        <ele>371.53900146484</ele>
        <time>2009-08-03T11:29:19Z</time>
      </trkpt>
      <trkpt lat="44.78566" lon="4.52686">
        <ele>373.2080078125</ele>
        <time>2009-08-03T11:29:25Z</time>
      </trkpt>
      <trkpt lat="44.78564" lon="4.52672">
        <ele>373.18798828125</ele>
        <time>2009-08-03T11:29:27Z</time>
      </trkpt>
      <trkpt lat="44.78552" lon="4.52643">
        <ele>374.26300048828</ele>
        <time>2009-08-03T11:29:32Z</time>
      </trkpt>
      <trkpt lat="44.78529" lon="4.52607">
        <ele>375.76998901367</ele>
        <time>2009-08-03T11:29:39Z</time>
      </trkpt>
      <trkpt lat="44.78526" lon="4.52602">
        <ele>375.78500366211</ele>
        <time>2009-08-03T11:29:40Z</time>
      </trkpt>
      <trkpt lat="44.78529" lon="4.52546">
        <ele>376.41500854492</ele>
        <time>2009-08-03T11:29:48Z</time>
      </trkpt>
      <trkpt lat="44.78553" lon="4.52521">
        <ele>377.41799926758</ele>
        <time>2009-08-03T11:29:53Z</time>
      </trkpt>
      <trkpt lat="44.78559" lon="4.52479">
        <ele>376.58801269531</ele>
        <time>2009-08-03T11:30:00Z</time>
      </trkpt>
      <trkpt lat="44.78543" lon="4.52483">
        <ele>377.5539855957</ele>
        <time>2009-08-03T11:30:03Z</time>
      </trkpt>
      <trkpt lat="44.78533" lon="4.52491">
        <ele>378.34600830078</ele>
        <time>2009-08-03T11:30:05Z</time>
      </trkpt>
      <trkpt lat="44.78523" lon="4.52498">
        <ele>378.73199462891</ele>
        <time>2009-08-03T11:30:07Z</time>
      </trkpt>
      <trkpt lat="44.78488" lon="4.52489">
        <ele>380.4049987793</ele>
        <time>2009-08-03T11:30:14Z</time>
      </trkpt>
      <trkpt lat="44.78478" lon="4.52483">
        <ele>381.17599487305</ele>
        <time>2009-08-03T11:30:16Z</time>
      </trkpt>
      <trkpt lat="44.78457" lon="4.52441">
        <ele>383.46301269531</ele>
        <time>2009-08-03T11:30:23Z</time>
      </trkpt>
      <trkpt lat="44.78445" lon="4.52408">
        <ele>384.49099731445</ele>
        <time>2009-08-03T11:30:28Z</time>
      </trkpt>
      <trkpt lat="44.78424" lon="4.52368">
        <ele>386.62399291992</ele>
        <time>2009-08-03T11:30:35Z</time>
      </trkpt>
      <trkpt lat="44.784" lon="4.52282">
        <ele>389.01000976562</ele>
        <time>2009-08-03T11:30:47Z</time>
      </trkpt>
      <trkpt lat="44.78395" lon="4.52247">
        <ele>389.02801513672</ele>
        <time>2009-08-03T11:30:51Z</time>
      </trkpt>
      <trkpt lat="44.78386" lon="4.52212">
        <ele>388.63000488281</ele>
        <time>2009-08-03T11:30:55Z</time>
      </trkpt>
      <trkpt lat="44.78373" lon="4.52188">
        <ele>389.30200195312</ele>
        <time>2009-08-03T11:30:58Z</time>
      </trkpt>
      <trkpt lat="44.78348" lon="4.5216">
        <ele>390.14099121094</ele>
        <time>2009-08-03T11:31:03Z</time>
      </trkpt>
      <trkpt lat="44.78306" lon="4.52083">
        <ele>390.57598876953</ele>
        <time>2009-08-03T11:31:13Z</time>
      </trkpt>
      <trkpt lat="44.78271" lon="4.52022">
        <ele>391.14999389648</ele>
        <time>2009-08-03T11:31:21Z</time>
      </trkpt>
      <trkpt lat="44.78257" lon="4.52001">
        <ele>390.69500732422</ele>
        <time>2009-08-03T11:31:24Z</time>
      </trkpt>
      <trkpt lat="44.78258" lon="4.5195">
        <ele>391.22198486328</ele>
        <time>2009-08-03T11:31:30Z</time>
      </trkpt>
      <trkpt lat="44.78247" lon="4.51931">
        <ele>390.90100097656</ele>
        <time>2009-08-03T11:31:33Z</time>
      </trkpt>
      <trkpt lat="44.78217" lon="4.51883">
        <ele>391.42700195312</ele>
        <time>2009-08-03T11:31:40Z</time>
      </trkpt>
      <trkpt lat="44.78209" lon="4.51867">
        <ele>391.02398681641</ele>
        <time>2009-08-03T11:31:42Z</time>
      </trkpt>
      <trkpt lat="44.78184" lon="4.51836">
        <ele>391.49899291992</ele>
        <time>2009-08-03T11:31:47Z</time>
      </trkpt>
      <trkpt lat="44.78173" lon="4.51827">
        <ele>391.83801269531</ele>
        <time>2009-08-03T11:31:49Z</time>
      </trkpt>
      <trkpt lat="44.78165" lon="4.51778">
        <ele>391.08700561523</ele>
        <time>2009-08-03T11:31:55Z</time>
      </trkpt>
      <trkpt lat="44.78147" lon="4.51767">
        <ele>390.98498535156</ele>
        <time>2009-08-03T11:31:59Z</time>
      </trkpt>
      <trkpt lat="44.78138" lon="4.51774">
        <ele>390.45300292969</ele>
        <time>2009-08-03T11:32:01Z</time>
      </trkpt>
      <trkpt lat="44.78113" lon="4.51766">
        <ele>391.21600341797</ele>
        <time>2009-08-03T11:32:06Z</time>
      </trkpt>
      <trkpt lat="44.78099" lon="4.51754">
        <ele>391.88000488281</ele>
        <time>2009-08-03T11:32:09Z</time>
      </trkpt>
      <trkpt lat="44.78049" lon="4.5169">
        <ele>392.48699951172</ele>
        <time>2009-08-03T11:32:21Z</time>
      </trkpt>
      <trkpt lat="44.78" lon="4.51544">
        <ele>392.97799682617</ele>
        <time>2009-08-03T11:32:38Z</time>
      </trkpt>
      <trkpt lat="44.77981" lon="4.5146">
        <ele>393.14401245117</ele>
        <time>2009-08-03T11:32:47Z</time>
      </trkpt>
      <trkpt lat="44.77953" lon="4.51388">
        <ele>393.45300292969</ele>
        <time>2009-08-03T11:32:56Z</time>
      </trkpt>
      <trkpt lat="44.77929" lon="4.51299">
        <ele>394.20599365234</ele>
        <time>2009-08-03T11:33:06Z</time>
      </trkpt>
      <trkpt lat="44.77892" lon="4.5114">
        <ele>394.75698852539</ele>
        <time>2009-08-03T11:33:23Z</time>
      </trkpt>
      <trkpt lat="44.7787" lon="4.51074">
        <ele>395.56298828125</ele>
        <time>2009-08-03T11:33:30Z</time>
      </trkpt>
      <trkpt lat="44.77832" lon="4.50932">
        <ele>396.81600952148</ele>
        <time>2009-08-03T11:33:45Z</time>
      </trkpt>
      <trkpt lat="44.77824" lon="4.5087">
        <ele>398.30899047852</ele>
        <time>2009-08-03T11:33:52Z</time>
      </trkpt>
      <trkpt lat="44.77794" lon="4.50792">
        <ele>401.48001098633</ele>
        <time>2009-08-03T11:34:03Z</time>
      </trkpt>
      <trkpt lat="44.77773" lon="4.50728">
        <ele>402.95999145508</ele>
        <time>2009-08-03T11:34:12Z</time>
      </trkpt>
      <trkpt lat="44.77762" lon="4.50695">
        <ele>404.07598876953</ele>
        <time>2009-08-03T11:34:17Z</time>
      </trkpt>
      <trkpt lat="44.77737" lon="4.50579">
        <ele>406.3030090332</ele>
        <time>2009-08-03T11:34:33Z</time>
      </trkpt>
      <trkpt lat="44.77731" lon="4.50564">
        <ele>406.54299926758</ele>
        <time>2009-08-03T11:34:35Z</time>
      </trkpt>
      <trkpt lat="44.77724" lon="4.50512">
        <ele>407.95901489258</ele>
        <time>2009-08-03T11:34:42Z</time>
      </trkpt>
      <trkpt lat="44.7773" lon="4.50458">
        <ele>408.96099853516</ele>
        <time>2009-08-03T11:34:49Z</time>
      </trkpt>
      <trkpt lat="44.77737" lon="4.50437">
        <ele>409.51699829102</ele>
        <time>2009-08-03T11:34:52Z</time>
      </trkpt>
      <trkpt lat="44.77754" lon="4.50375">
        <ele>411.59799194336</ele>
        <time>2009-08-03T11:35:01Z</time>
      </trkpt>
      <trkpt lat="44.77761" lon="4.50354">
        <ele>412.16500854492</ele>
        <time>2009-08-03T11:35:04Z</time>
      </trkpt>
      <trkpt lat="44.77758" lon="4.50321">
        <ele>413.1549987793</ele>
        <time>2009-08-03T11:35:09Z</time>
      </trkpt>
      <trkpt lat="44.77751" lon="4.50311">
        <ele>413.7080078125</ele>
        <time>2009-08-03T11:35:11Z</time>
      </trkpt>
      <trkpt lat="44.77731" lon="4.50285">
        <ele>415.33801269531</ele>
        <time>2009-08-03T11:35:17Z</time>
      </trkpt>
      <trkpt lat="44.77727" lon="4.50281">
        <ele>415.60699462891</ele>
        <time>2009-08-03T11:35:21Z</time>
      </trkpt>
      <trkpt lat="44.77727" lon="4.50281">
        <ele>415.37399291992</ele>
        <time>2009-08-03T11:35:22Z</time>
      </trkpt>
      <trkpt lat="44.7771" lon="4.50271">
        <ele>415.44799804688</ele>
        <time>2009-08-03T11:35:34Z</time>
      </trkpt>
      <trkpt lat="44.77689" lon="4.50263">
        <ele>416.13000488281</ele>
        <time>2009-08-03T11:35:40Z</time>
      </trkpt>
      <trkpt lat="44.77648" lon="4.50272">
        <ele>417.66198730469</ele>
        <time>2009-08-03T11:35:49Z</time>
      </trkpt>
      <trkpt lat="44.77625" lon="4.50281">
        <ele>418.98599243164</ele>
        <time>2009-08-03T11:35:54Z</time>
      </trkpt>
      <trkpt lat="44.77602" lon="4.50297">
        <ele>420.27499389648</ele>
        <time>2009-08-03T11:35:59Z</time>
      </trkpt>
      <trkpt lat="44.77577" lon="4.50306">
        <ele>421.56201171875</ele>
        <time>2009-08-03T11:36:04Z</time>
      </trkpt>
      <trkpt lat="44.77552" lon="4.50306">
        <ele>422.51699829102</ele>
        <time>2009-08-03T11:36:09Z</time>
      </trkpt>
      <trkpt lat="44.77534" lon="4.50299">
        <ele>423.13299560547</ele>
        <time>2009-08-03T11:36:13Z</time>
      </trkpt>
      <trkpt lat="44.77506" lon="4.50282">
        <ele>423.01599121094</ele>
        <time>2009-08-03T11:36:19Z</time>
      </trkpt>
      <trkpt lat="44.77509" lon="4.50247">
        <ele>422.99899291992</ele>
        <time>2009-08-03T11:36:25Z</time>
      </trkpt>
      <trkpt lat="44.77513" lon="4.50242">
        <ele>424.43499755859</ele>
        <time>2009-08-03T11:36:26Z</time>
      </trkpt>
      <trkpt lat="44.77588" lon="4.50156">
        <ele>425.82998657227</ele>
        <time>2009-08-03T11:36:42Z</time>
      </trkpt>
      <trkpt lat="44.776" lon="4.5014">
        <ele>426.05599975586</ele>
        <time>2009-08-03T11:36:45Z</time>
      </trkpt>
      <trkpt lat="44.77611" lon="4.50085">
        <ele>426.60400390625</ele>
        <time>2009-08-03T11:36:52Z</time>
      </trkpt>
      <trkpt lat="44.77588" lon="4.49939">
        <ele>429.71398925781</ele>
        <time>2009-08-03T11:37:10Z</time>
      </trkpt>
      <trkpt lat="44.77555" lon="4.49787">
        <ele>433.52499389648</ele>
        <time>2009-08-03T11:37:29Z</time>
      </trkpt>
      <trkpt lat="44.77526" lon="4.49686">
        <ele>436.38400268555</ele>
        <time>2009-08-03T11:37:43Z</time>
      </trkpt>
      <trkpt lat="44.77517" lon="4.49666">
        <ele>436.39801025391</ele>
        <time>2009-08-03T11:37:46Z</time>
      </trkpt>
      <trkpt lat="44.77509" lon="4.49638">
        <ele>438.50100708008</ele>
        <time>2009-08-03T11:37:50Z</time>
      </trkpt>
      <trkpt lat="44.77506" lon="4.49631">
        <ele>438.51098632812</ele>
        <time>2009-08-03T11:37:51Z</time>
      </trkpt>
      <trkpt lat="44.77494" lon="4.49605">
        <ele>439.88299560547</ele>
        <time>2009-08-03T11:37:55Z</time>
      </trkpt>
      <trkpt lat="44.77487" lon="4.49585">
        <ele>440.30499267578</ele>
        <time>2009-08-03T11:37:58Z</time>
      </trkpt>
      <trkpt lat="44.77462" lon="4.49471">
        <ele>444.41299438477</ele>
        <time>2009-08-03T11:38:14Z</time>
      </trkpt>
      <trkpt lat="44.7745" lon="4.49423">
        <ele>446.01800537109</ele>
        <time>2009-08-03T11:38:21Z</time>
      </trkpt>
      <trkpt lat="44.77446" lon="4.49369">
        <ele>448.5530090332</ele>
        <time>2009-08-03T11:38:29Z</time>
      </trkpt>
      <trkpt lat="44.77427" lon="4.49269">
        <ele>452.22299194336</ele>
        <time>2009-08-03T11:38:43Z</time>
      </trkpt>
      <trkpt lat="44.77423" lon="4.4925">
        <ele>452.85501098633</ele>
        <time>2009-08-03T11:38:46Z</time>
      </trkpt>
      <trkpt lat="44.7742" lon="4.49199">
        <ele>454.38299560547</ele>
        <time>2009-08-03T11:38:53Z</time>
      </trkpt>
      <trkpt lat="44.77408" lon="4.49155">
        <ele>455.24600219727</ele>
        <time>2009-08-03T11:38:59Z</time>
      </trkpt>
      <trkpt lat="44.77395" lon="4.49058">
        <ele>458.47198486328</ele>
        <time>2009-08-03T11:39:12Z</time>
      </trkpt>
      <trkpt lat="44.77397" lon="4.49029">
        <ele>459.28900146484</ele>
        <time>2009-08-03T11:39:16Z</time>
      </trkpt>
      <trkpt lat="44.77409" lon="4.48956">
        <ele>461.31201171875</ele>
        <time>2009-08-03T11:39:26Z</time>
      </trkpt>
      <trkpt lat="44.77407" lon="4.48935">
        <ele>461.87100219727</ele>
        <time>2009-08-03T11:39:29Z</time>
      </trkpt>
      <trkpt lat="44.77394" lon="4.48893">
        <ele>463.41799926758</ele>
        <time>2009-08-03T11:39:35Z</time>
      </trkpt>
      <trkpt lat="44.77389" lon="4.48858">
        <ele>464.29598999023</ele>
        <time>2009-08-03T11:39:40Z</time>
      </trkpt>
      <trkpt lat="44.7742" lon="4.48806">
        <ele>466.13500976562</ele>
        <time>2009-08-03T11:39:50Z</time>
      </trkpt>
      <trkpt lat="44.77448" lon="4.48814">
        <ele>466.38101196289</ele>
        <time>2009-08-03T11:39:55Z</time>
      </trkpt>
      <trkpt lat="44.77459" lon="4.48819">
        <ele>466.88800048828</ele>
        <time>2009-08-03T11:39:57Z</time>
      </trkpt>
      <trkpt lat="44.77482" lon="4.48814">
        <ele>468.17300415039</ele>
        <time>2009-08-03T11:40:02Z</time>
      </trkpt>
      <trkpt lat="44.77489" lon="4.48808">
        <ele>469.04098510742</ele>
        <time>2009-08-03T11:40:04Z</time>
      </trkpt>
      <trkpt lat="44.77526" lon="4.48747">
        <ele>471.11401367188</ele>
        <time>2009-08-03T11:40:16Z</time>
      </trkpt>
      <trkpt lat="44.77534" lon="4.4873">
        <ele>471.48098754883</ele>
        <time>2009-08-03T11:40:19Z</time>
      </trkpt>
      <trkpt lat="44.77541" lon="4.48693">
        <ele>472.4169921875</ele>
        <time>2009-08-03T11:40:24Z</time>
      </trkpt>
      <trkpt lat="44.77545" lon="4.48639">
        <ele>473.86801147461</ele>
        <time>2009-08-03T11:40:31Z</time>
      </trkpt>
      <trkpt lat="44.77548" lon="4.48609">
        <ele>474.26901245117</ele>
        <time>2009-08-03T11:40:35Z</time>
      </trkpt>
      <trkpt lat="44.77555" lon="4.48579">
        <ele>474.65399169922</ele>
        <time>2009-08-03T11:40:39Z</time>
      </trkpt>
      <trkpt lat="44.77557" lon="4.48522">
        <ele>474.73498535156</ele>
        <time>2009-08-03T11:40:46Z</time>
      </trkpt>
      <trkpt lat="44.77587" lon="4.48495">
        <ele>474.46099853516</ele>
        <time>2009-08-03T11:40:53Z</time>
      </trkpt>
      <trkpt lat="44.77605" lon="4.48499">
        <ele>474.90200805664</ele>
        <time>2009-08-03T11:40:56Z</time>
      </trkpt>
      <trkpt lat="44.77629" lon="4.48474">
        <ele>475.08999633789</ele>
        <time>2009-08-03T11:41:02Z</time>
      </trkpt>
      <trkpt lat="44.77641" lon="4.48429">
        <ele>475.98098754883</ele>
        <time>2009-08-03T11:41:09Z</time>
      </trkpt>
      <trkpt lat="44.77665" lon="4.4842">
        <ele>477.14498901367</ele>
        <time>2009-08-03T11:41:14Z</time>
      </trkpt>
      <trkpt lat="44.77679" lon="4.48411">
        <ele>478.21600341797</ele>
        <time>2009-08-03T11:41:17Z</time>
      </trkpt>
      <trkpt lat="44.77684" lon="4.48407">
        <ele>478.18200683594</ele>
        <time>2009-08-03T11:41:18Z</time>
      </trkpt>
      <trkpt lat="44.77705" lon="4.48393">
        <ele>479.26901245117</ele>
        <time>2009-08-03T11:41:22Z</time>
      </trkpt>
      <trkpt lat="44.77718" lon="4.48383">
        <ele>480.51599121094</ele>
        <time>2009-08-03T11:41:25Z</time>
      </trkpt>
      <trkpt lat="44.77726" lon="4.48377">
        <ele>480.94900512695</ele>
        <time>2009-08-03T11:41:28Z</time>
      </trkpt>
      <trkpt lat="44.77752" lon="4.48357">
        <ele>482.07501220703</ele>
        <time>2009-08-03T11:41:34Z</time>
      </trkpt>
      <trkpt lat="44.77764" lon="4.4835">
        <ele>482.99798583984</ele>
        <time>2009-08-03T11:41:37Z</time>
      </trkpt>
      <trkpt lat="44.77781" lon="4.48339">
        <ele>484.14700317383</ele>
        <time>2009-08-03T11:41:41Z</time>
      </trkpt>
      <trkpt lat="44.77795" lon="4.48308">
        <ele>485.2380065918</ele>
        <time>2009-08-03T11:41:47Z</time>
      </trkpt>
      <trkpt lat="44.77796" lon="4.48294">
        <ele>486.30700683594</ele>
        <time>2009-08-03T11:41:49Z</time>
      </trkpt>
      <trkpt lat="44.77797" lon="4.48288">
        <ele>486.46899414062</ele>
        <time>2009-08-03T11:41:50Z</time>
      </trkpt>
      <trkpt lat="44.778" lon="4.48268">
        <ele>487.09298706055</ele>
        <time>2009-08-03T11:41:53Z</time>
      </trkpt>
      <trkpt lat="44.77803" lon="4.48202">
        <ele>488.74099731445</ele>
        <time>2009-08-03T11:42:03Z</time>
      </trkpt>
      <trkpt lat="44.77799" lon="4.48189">
        <ele>489.97399902344</ele>
        <time>2009-08-03T11:42:05Z</time>
      </trkpt>
      <trkpt lat="44.77787" lon="4.48166">
        <ele>491.09799194336</ele>
        <time>2009-08-03T11:42:09Z</time>
      </trkpt>
      <trkpt lat="44.77773" lon="4.48145">
        <ele>492.33898925781</ele>
        <time>2009-08-03T11:42:13Z</time>
      </trkpt>
      <trkpt lat="44.77766" lon="4.48127">
        <ele>492.85501098633</ele>
        <time>2009-08-03T11:42:16Z</time>
      </trkpt>
      <trkpt lat="44.77764" lon="4.48102">
        <ele>494.10800170898</ele>
        <time>2009-08-03T11:42:20Z</time>
      </trkpt>
      <trkpt lat="44.77765" lon="4.48091">
        <ele>494.77600097656</ele>
        <time>2009-08-03T11:42:22Z</time>
      </trkpt>
      <trkpt lat="44.77766" lon="4.48079">
        <ele>495.00299072266</ele>
        <time>2009-08-03T11:42:24Z</time>
      </trkpt>
      <trkpt lat="44.77778" lon="4.48054">
        <ele>496.20401000977</ele>
        <time>2009-08-03T11:42:29Z</time>
      </trkpt>
      <trkpt lat="44.77827" lon="4.4799">
        <ele>499.16198730469</ele>
        <time>2009-08-03T11:42:46Z</time>
      </trkpt>
      <trkpt lat="44.77849" lon="4.47938">
        <ele>502.78900146484</ele>
        <time>2009-08-03T11:42:58Z</time>
      </trkpt>
      <trkpt lat="44.77848" lon="4.47933">
        <ele>503.35299682617</ele>
        <time>2009-08-03T11:42:59Z</time>
      </trkpt>
      <trkpt lat="44.77826" lon="4.47921">
        <ele>504.61599731445</ele>
        <time>2009-08-03T11:43:06Z</time>
      </trkpt>
      <trkpt lat="44.77809" lon="4.47924">
        <ele>505.43600463867</ele>
        <time>2009-08-03T11:43:10Z</time>
      </trkpt>
      <trkpt lat="44.77795" lon="4.47929">
        <ele>505.87399291992</ele>
        <time>2009-08-03T11:43:13Z</time>
      </trkpt>
      <trkpt lat="44.77776" lon="4.47947">
        <ele>506.84100341797</ele>
        <time>2009-08-03T11:43:18Z</time>
      </trkpt>
      <trkpt lat="44.77744" lon="4.47987">
        <ele>508.67001342773</ele>
        <time>2009-08-03T11:43:27Z</time>
      </trkpt>
      <trkpt lat="44.77708" lon="4.47991">
        <ele>510.21701049805</ele>
        <time>2009-08-03T11:43:35Z</time>
      </trkpt>
      <trkpt lat="44.77676" lon="4.47981">
        <ele>511.48199462891</ele>
        <time>2009-08-03T11:43:42Z</time>
      </trkpt>
      <trkpt lat="44.77621" lon="4.47893">
        <ele>513.64898681641</ele>
        <time>2009-08-03T11:43:58Z</time>
      </trkpt>
      <trkpt lat="44.7761" lon="4.47867">
        <ele>513.73602294922</ele>
        <time>2009-08-03T11:44:02Z</time>
      </trkpt>
      <trkpt lat="44.77595" lon="4.47819">
        <ele>515.53497314453</ele>
        <time>2009-08-03T11:44:09Z</time>
      </trkpt>
      <trkpt lat="44.77569" lon="4.4778">
        <ele>516.33697509766</ele>
        <time>2009-08-03T11:44:16Z</time>
      </trkpt>
      <trkpt lat="44.77544" lon="4.47731">
        <ele>517.40502929688</ele>
        <time>2009-08-03T11:44:24Z</time>
      </trkpt>
      <trkpt lat="44.77535" lon="4.47723">
        <ele>517.39001464844</ele>
        <time>2009-08-03T11:44:26Z</time>
      </trkpt>
      <trkpt lat="44.7752" lon="4.47697">
        <ele>516.86401367188</ele>
        <time>2009-08-03T11:44:30Z</time>
      </trkpt>
      <trkpt lat="44.77509" lon="4.4765">
        <ele>517.28802490234</ele>
        <time>2009-08-03T11:44:36Z</time>
      </trkpt>
      <trkpt lat="44.77479" lon="4.47595">
        <ele>517.34600830078</ele>
        <time>2009-08-03T11:44:44Z</time>
      </trkpt>
      <trkpt lat="44.77477" lon="4.47586">
        <ele>516.91302490234</ele>
        <time>2009-08-03T11:44:45Z</time>
      </trkpt>
      <trkpt lat="44.7748" lon="4.47479">
        <ele>519.7919921875</ele>
        <time>2009-08-03T11:44:58Z</time>
      </trkpt>
      <trkpt lat="44.7748" lon="4.47472">
        <ele>519.79302978516</ele>
        <time>2009-08-03T11:44:59Z</time>
      </trkpt>
      <trkpt lat="44.77478" lon="4.47452">
        <ele>520.83197021484</ele>
        <time>2009-08-03T11:45:02Z</time>
      </trkpt>
      <trkpt lat="44.77481" lon="4.47424">
        <ele>521.81201171875</ele>
        <time>2009-08-03T11:45:06Z</time>
      </trkpt>
      <trkpt lat="44.77484" lon="4.47411">
        <ele>522.39898681641</ele>
        <time>2009-08-03T11:45:08Z</time>
      </trkpt>
      <trkpt lat="44.77498" lon="4.47376">
        <ele>524.07299804688</ele>
        <time>2009-08-03T11:45:14Z</time>
      </trkpt>
      <trkpt lat="44.77492" lon="4.47367">
        <ele>524.58197021484</ele>
        <time>2009-08-03T11:45:21Z</time>
      </trkpt>
      <trkpt lat="44.77477" lon="4.47403">
        <ele>524.90197753906</ele>
        <time>2009-08-03T11:45:30Z</time>
      </trkpt>
      <trkpt lat="44.7747" lon="4.47417">
        <ele>524.97698974609</ele>
        <time>2009-08-03T11:45:33Z</time>
      </trkpt>
      <trkpt lat="44.77463" lon="4.47439">
        <ele>525.71899414062</ele>
        <time>2009-08-03T11:45:37Z</time>
      </trkpt>
      <trkpt lat="44.77464" lon="4.47477">
        <ele>527.05999755859</ele>
        <time>2009-08-03T11:45:44Z</time>
      </trkpt>
      <trkpt lat="44.77459" lon="4.47506">
        <ele>527.84997558594</ele>
        <time>2009-08-03T11:45:49Z</time>
      </trkpt>
      <trkpt lat="44.77436" lon="4.4755">
        <ele>530.15802001953</ele>
        <time>2009-08-03T11:45:58Z</time>
      </trkpt>
      <trkpt lat="44.77405" lon="4.47583">
        <ele>531.63800048828</ele>
        <time>2009-08-03T11:46:06Z</time>
      </trkpt>
      <trkpt lat="44.77389" lon="4.476">
        <ele>532.47100830078</ele>
        <time>2009-08-03T11:46:10Z</time>
      </trkpt>
      <trkpt lat="44.77361" lon="4.47614">
        <ele>533.35198974609</ele>
        <time>2009-08-03T11:46:16Z</time>
      </trkpt>
      <trkpt lat="44.77355" lon="4.4765">
        <ele>535.17199707031</ele>
        <time>2009-08-03T11:46:23Z</time>
      </trkpt>
      <trkpt lat="44.77367" lon="4.47659">
        <ele>535.89398193359</ele>
        <time>2009-08-03T11:46:26Z</time>
      </trkpt>
      <trkpt lat="44.77398" lon="4.47665">
        <ele>537.25201416016</ele>
        <time>2009-08-03T11:46:33Z</time>
      </trkpt>
      <trkpt lat="44.77423" lon="4.47672">
        <ele>538.59698486328</ele>
        <time>2009-08-03T11:46:38Z</time>
      </trkpt>
      <trkpt lat="44.77433" lon="4.47676">
        <ele>538.78002929688</ele>
        <time>2009-08-03T11:46:40Z</time>
      </trkpt>
      <trkpt lat="44.77454" lon="4.47693">
        <ele>539.77301025391</ele>
        <time>2009-08-03T11:46:45Z</time>
      </trkpt>
      <trkpt lat="44.77465" lon="4.47703">
        <ele>540.45300292969</ele>
        <time>2009-08-03T11:46:48Z</time>
      </trkpt>
      <trkpt lat="44.77472" lon="4.47711">
        <ele>541.07299804688</ele>
        <time>2009-08-03T11:46:50Z</time>
      </trkpt>
      <trkpt lat="44.77485" lon="4.47743">
        <ele>541.98999023438</ele>
        <time>2009-08-03T11:46:56Z</time>
      </trkpt>
      <trkpt lat="44.77489" lon="4.47774">
        <ele>543.37701416016</ele>
        <time>2009-08-03T11:47:02Z</time>
      </trkpt>
      <trkpt lat="44.77489" lon="4.47795">
        <ele>544.39599609375</ele>
        <time>2009-08-03T11:47:06Z</time>
      </trkpt>
      <trkpt lat="44.77496" lon="4.47816">
        <ele>545.22900390625</ele>
        <time>2009-08-03T11:47:10Z</time>
      </trkpt>
      <trkpt lat="44.77525" lon="4.4785">
        <ele>547.27099609375</ele>
        <time>2009-08-03T11:47:18Z</time>
      </trkpt>
      <trkpt lat="44.77534" lon="4.47863">
        <ele>547.64801025391</ele>
        <time>2009-08-03T11:47:21Z</time>
      </trkpt>
      <trkpt lat="44.77552" lon="4.47921">
        <ele>549.62298583984</ele>
        <time>2009-08-03T11:47:31Z</time>
      </trkpt>
      <trkpt lat="44.77554" lon="4.47945">
        <ele>550.48901367188</ele>
        <time>2009-08-03T11:47:35Z</time>
      </trkpt>
      <trkpt lat="44.77555" lon="4.47966">
        <ele>551.06701660156</ele>
        <time>2009-08-03T11:47:39Z</time>
      </trkpt>
      <trkpt lat="44.77563" lon="4.47989">
        <ele>552.21099853516</ele>
        <time>2009-08-03T11:47:43Z</time>
      </trkpt>
      <trkpt lat="44.77584" lon="4.48025">
        <ele>553.54901123047</ele>
        <time>2009-08-03T11:47:50Z</time>
      </trkpt>
      <trkpt lat="44.77591" lon="4.48055">
        <ele>554.31799316406</ele>
        <time>2009-08-03T11:47:55Z</time>
      </trkpt>
      <trkpt lat="44.77592" lon="4.48068">
        <ele>554.80297851562</ele>
        <time>2009-08-03T11:47:57Z</time>
      </trkpt>
      <trkpt lat="44.77589" lon="4.48111">
        <ele>556.38000488281</ele>
        <time>2009-08-03T11:48:04Z</time>
      </trkpt>
      <trkpt lat="44.77584" lon="4.48133">
        <ele>557.04699707031</ele>
        <time>2009-08-03T11:48:08Z</time>
      </trkpt>
      <trkpt lat="44.77567" lon="4.48164">
        <ele>557.44897460938</ele>
        <time>2009-08-03T11:48:14Z</time>
      </trkpt>
      <trkpt lat="44.77557" lon="4.48173">
        <ele>558.32897949219</ele>
        <time>2009-08-03T11:48:17Z</time>
      </trkpt>
      <trkpt lat="44.77554" lon="4.48173">
        <ele>558.21002197266</ele>
        <time>2009-08-03T11:48:20Z</time>
      </trkpt>
      <trkpt lat="44.77566" lon="4.48164">
        <ele>557.64300537109</ele>
        <time>2009-08-03T11:48:27Z</time>
      </trkpt>
      <trkpt lat="44.77567" lon="4.48163">
        <ele>557.73901367188</ele>
        <time>2009-08-03T11:48:29Z</time>
      </trkpt>
      <trkpt lat="44.77565" lon="4.4817">
        <ele>558.46398925781</ele>
        <time>2009-08-03T11:51:06Z</time>
      </trkpt>
      <trkpt lat="44.77538" lon="4.48175">
        <ele>559.58599853516</ele>
        <time>2009-08-03T11:51:17Z</time>
      </trkpt>
      <trkpt lat="44.77522" lon="4.48172">
        <ele>560.79602050781</ele>
        <time>2009-08-03T11:51:25Z</time>
      </trkpt>
      <trkpt lat="44.77515" lon="4.48177">
        <ele>560.77899169922</ele>
        <time>2009-08-03T11:51:29Z</time>
      </trkpt>
      <trkpt lat="44.775" lon="4.48213">
        <ele>560.21398925781</ele>
        <time>2009-08-03T11:51:42Z</time>
      </trkpt>
      <trkpt lat="44.77487" lon="4.48235">
        <ele>559.56896972656</ele>
        <time>2009-08-03T11:51:48Z</time>
      </trkpt>
      <trkpt lat="44.77475" lon="4.48253">
        <ele>559.17102050781</ele>
        <time>2009-08-03T11:51:52Z</time>
      </trkpt>
      <trkpt lat="44.77463" lon="4.48266">
        <ele>558.62902832031</ele>
        <time>2009-08-03T11:51:55Z</time>
      </trkpt>
      <trkpt lat="44.77438" lon="4.48277">
        <ele>558.28100585938</ele>
        <time>2009-08-03T11:52:01Z</time>
      </trkpt>
      <trkpt lat="44.77433" lon="4.48278">
        <ele>557.89300537109</ele>
        <time>2009-08-03T11:52:06Z</time>
      </trkpt>
      <trkpt lat="44.7743" lon="4.48279">
        <ele>557.59997558594</ele>
        <time>2009-08-03T11:53:26Z</time>
      </trkpt>
      <trkpt lat="44.77428" lon="4.48278">
        <ele>557.29302978516</ele>
        <time>2009-08-03T11:53:27Z</time>
      </trkpt>
      <trkpt lat="44.77421" lon="4.48276">
        <ele>556.54400634766</ele>
        <time>2009-08-03T11:53:29Z</time>
      </trkpt>
      <trkpt lat="44.77401" lon="4.48273">
        <ele>555.46099853516</ele>
        <time>2009-08-03T11:53:33Z</time>
      </trkpt>
      <trkpt lat="44.77387" lon="4.48289">
        <ele>555.13000488281</ele>
        <time>2009-08-03T11:53:36Z</time>
      </trkpt>
      <trkpt lat="44.77383" lon="4.48296">
        <ele>554.91998291016</ele>
        <time>2009-08-03T11:53:37Z</time>
      </trkpt>
      <trkpt lat="44.77368" lon="4.4833">
        <ele>553.56799316406</ele>
        <time>2009-08-03T11:53:41Z</time>
      </trkpt>
      <trkpt lat="44.77362" lon="4.4835">
        <ele>553.17401123047</ele>
        <time>2009-08-03T11:53:43Z</time>
      </trkpt>
      <trkpt lat="44.77318" lon="4.48403">
        <ele>550.56298828125</ele>
        <time>2009-08-03T11:53:51Z</time>
      </trkpt>
      <trkpt lat="44.77309" lon="4.48399">
        <ele>550.41400146484</ele>
        <time>2009-08-03T11:53:52Z</time>
      </trkpt>
      <trkpt lat="44.77293" lon="4.48394">
        <ele>550.07702636719</ele>
        <time>2009-08-03T11:53:54Z</time>
      </trkpt>
      <trkpt lat="44.77248" lon="4.48382">
        <ele>547.54901123047</ele>
        <time>2009-08-03T11:54:00Z</time>
      </trkpt>
      <trkpt lat="44.77245" lon="4.48396">
        <ele>547.88702392578</ele>
        <time>2009-08-03T11:54:01Z</time>
      </trkpt>
      <trkpt lat="44.77244" lon="4.48407">
        <ele>547.70397949219</ele>
        <time>2009-08-03T11:54:02Z</time>
      </trkpt>
      <trkpt lat="44.77233" lon="4.48467">
        <ele>545.85797119141</ele>
        <time>2009-08-03T11:54:08Z</time>
      </trkpt>
      <trkpt lat="44.77225" lon="4.48472">
        <ele>546.15197753906</ele>
        <time>2009-08-03T11:54:09Z</time>
      </trkpt>
      <trkpt lat="44.77202" lon="4.4849">
        <ele>545.55200195312</ele>
        <time>2009-08-03T11:54:12Z</time>
      </trkpt>
      <trkpt lat="44.77192" lon="4.48527">
        <ele>543.33697509766</ele>
        <time>2009-08-03T11:54:16Z</time>
      </trkpt>
      <trkpt lat="44.77203" lon="4.48535">
        <ele>543.58099365234</ele>
        <time>2009-08-03T11:54:17Z</time>
      </trkpt>
      <trkpt lat="44.77211" lon="4.48542">
        <ele>542.88598632812</ele>
        <time>2009-08-03T11:54:18Z</time>
      </trkpt>
      <trkpt lat="44.77222" lon="4.48562">
        <ele>542.03698730469</ele>
        <time>2009-08-03T11:54:20Z</time>
      </trkpt>
      <trkpt lat="44.77209" lon="4.48614">
        <ele>540.47900390625</ele>
        <time>2009-08-03T11:54:25Z</time>
      </trkpt>
      <trkpt lat="44.77173" lon="4.48659">
        <ele>540.03497314453</ele>
        <time>2009-08-03T11:54:31Z</time>
      </trkpt>
      <trkpt lat="44.77177" lon="4.48681">
        <ele>539.84698486328</ele>
        <time>2009-08-03T11:54:33Z</time>
      </trkpt>
      <trkpt lat="44.77179" lon="4.48716">
        <ele>539.83197021484</ele>
        <time>2009-08-03T11:54:36Z</time>
      </trkpt>
      <trkpt lat="44.77169" lon="4.48757">
        <ele>538.57098388672</ele>
        <time>2009-08-03T11:54:40Z</time>
      </trkpt>
      <trkpt lat="44.77173" lon="4.48778">
        <ele>536.81298828125</ele>
        <time>2009-08-03T11:54:42Z</time>
      </trkpt>
      <trkpt lat="44.77181" lon="4.48824">
        <ele>535.66400146484</ele>
        <time>2009-08-03T11:54:46Z</time>
      </trkpt>
      <trkpt lat="44.77179" lon="4.48885">
        <ele>535.28100585938</ele>
        <time>2009-08-03T11:54:51Z</time>
      </trkpt>
      <trkpt lat="44.77145" lon="4.48929">
        <ele>534.25299072266</ele>
        <time>2009-08-03T11:54:57Z</time>
      </trkpt>
      <trkpt lat="44.77142" lon="4.48943">
        <ele>533.96301269531</ele>
        <time>2009-08-03T11:54:58Z</time>
      </trkpt>
      <trkpt lat="44.77139" lon="4.4896">
        <ele>533.37200927734</ele>
        <time>2009-08-03T11:55:00Z</time>
      </trkpt>
      <trkpt lat="44.77156" lon="4.48987">
        <ele>532.82800292969</ele>
        <time>2009-08-03T11:55:03Z</time>
      </trkpt>
      <trkpt lat="44.7717" lon="4.49005">
        <ele>532.36798095703</ele>
        <time>2009-08-03T11:55:05Z</time>
      </trkpt>
      <trkpt lat="44.77179" lon="4.49075">
        <ele>530.89697265625</ele>
        <time>2009-08-03T11:55:11Z</time>
      </trkpt>
      <trkpt lat="44.77178" lon="4.49112">
        <ele>530.29602050781</ele>
        <time>2009-08-03T11:55:14Z</time>
      </trkpt>
      <trkpt lat="44.77202" lon="4.49224">
        <ele>527.78698730469</ele>
        <time>2009-08-03T11:55:23Z</time>
      </trkpt>
      <trkpt lat="44.77205" lon="4.49263">
        <ele>526.46997070312</ele>
        <time>2009-08-03T11:55:26Z</time>
      </trkpt>
      <trkpt lat="44.77206" lon="4.49308">
        <ele>525.34301757812</ele>
        <time>2009-08-03T11:55:30Z</time>
      </trkpt>
      <trkpt lat="44.77173" lon="4.49329">
        <ele>523.86901855469</ele>
        <time>2009-08-03T11:55:36Z</time>
      </trkpt>
      <trkpt lat="44.77131" lon="4.49322">
        <ele>522.41802978516</ele>
        <time>2009-08-03T11:55:41Z</time>
      </trkpt>
      <trkpt lat="44.77113" lon="4.49321">
        <ele>522.416015625</ele>
        <time>2009-08-03T11:55:43Z</time>
      </trkpt>
      <trkpt lat="44.77079" lon="4.49303">
        <ele>521.26800537109</ele>
        <time>2009-08-03T11:55:47Z</time>
      </trkpt>
      <trkpt lat="44.77053" lon="4.49293">
        <ele>520.63201904297</ele>
        <time>2009-08-03T11:55:50Z</time>
      </trkpt>
      <trkpt lat="44.77023" lon="4.49271">
        <ele>520.60699462891</ele>
        <time>2009-08-03T11:55:54Z</time>
      </trkpt>
      <trkpt lat="44.76943" lon="4.49216">
        <ele>515.41101074219</ele>
        <time>2009-08-03T11:56:04Z</time>
      </trkpt>
      <trkpt lat="44.76928" lon="4.49205">
        <ele>514.66198730469</ele>
        <time>2009-08-03T11:56:06Z</time>
      </trkpt>
      <trkpt lat="44.76894" lon="4.49211">
        <ele>513.36401367188</ele>
        <time>2009-08-03T11:56:10Z</time>
      </trkpt>
      <trkpt lat="44.76841" lon="4.49236">
        <ele>512.86901855469</ele>
        <time>2009-08-03T11:56:16Z</time>
      </trkpt>
      <trkpt lat="44.76817" lon="4.49252">
        <ele>512.49499511719</ele>
        <time>2009-08-03T11:56:19Z</time>
      </trkpt>
      <trkpt lat="44.76786" lon="4.49209">
        <ele>510.64199829102</ele>
        <time>2009-08-03T11:56:24Z</time>
      </trkpt>
      <trkpt lat="44.76776" lon="4.49186">
        <ele>508.87701416016</ele>
        <time>2009-08-03T11:56:26Z</time>
      </trkpt>
      <trkpt lat="44.76743" lon="4.49145">
        <ele>506.86401367188</ele>
        <time>2009-08-03T11:56:31Z</time>
      </trkpt>
      <trkpt lat="44.76715" lon="4.49143">
        <ele>503.9880065918</ele>
        <time>2009-08-03T11:56:34Z</time>
      </trkpt>
      <trkpt lat="44.76698" lon="4.49139">
        <ele>503.43499755859</ele>
        <time>2009-08-03T11:56:36Z</time>
      </trkpt>
      <trkpt lat="44.76654" lon="4.49155">
        <ele>500.84899902344</ele>
        <time>2009-08-03T11:56:41Z</time>
      </trkpt>
      <trkpt lat="44.76636" lon="4.49165">
        <ele>500.63299560547</ele>
        <time>2009-08-03T11:56:43Z</time>
      </trkpt>
      <trkpt lat="44.7661" lon="4.49185">
        <ele>500.62399291992</ele>
        <time>2009-08-03T11:56:46Z</time>
      </trkpt>
      <trkpt lat="44.76582" lon="4.49184">
        <ele>498.3039855957</ele>
        <time>2009-08-03T11:56:50Z</time>
      </trkpt>
      <trkpt lat="44.76581" lon="4.49138">
        <ele>496.26501464844</ele>
        <time>2009-08-03T11:56:55Z</time>
      </trkpt>
      <trkpt lat="44.76572" lon="4.49094">
        <ele>493.47299194336</ele>
        <time>2009-08-03T11:56:59Z</time>
      </trkpt>
      <trkpt lat="44.76558" lon="4.49063">
        <ele>492.39599609375</ele>
        <time>2009-08-03T11:57:02Z</time>
      </trkpt>
      <trkpt lat="44.76534" lon="4.49061">
        <ele>492.33099365234</ele>
        <time>2009-08-03T11:57:06Z</time>
      </trkpt>
      <trkpt lat="44.76526" lon="4.49115">
        <ele>492.32299804688</ele>
        <time>2009-08-03T11:57:12Z</time>
      </trkpt>
      <trkpt lat="44.76525" lon="4.49143">
        <ele>493.24700927734</ele>
        <time>2009-08-03T11:57:16Z</time>
      </trkpt>
      <trkpt lat="44.76526" lon="4.49169">
        <ele>494.375</ele>
        <time>2009-08-03T11:57:20Z</time>
      </trkpt>
      <trkpt lat="44.76527" lon="4.4919">
        <ele>495.67001342773</ele>
        <time>2009-08-03T11:57:23Z</time>
      </trkpt>
      <trkpt lat="44.76526" lon="4.49197">
        <ele>496.03698730469</ele>
        <time>2009-08-03T11:57:24Z</time>
      </trkpt>
      <trkpt lat="44.76524" lon="4.49225">
        <ele>497.09600830078</ele>
        <time>2009-08-03T11:57:28Z</time>
      </trkpt>
      <trkpt lat="44.76528" lon="4.49246">
        <ele>497.71798706055</ele>
        <time>2009-08-03T11:57:31Z</time>
      </trkpt>
      <trkpt lat="44.7653" lon="4.4926">
        <ele>497.84399414062</ele>
        <time>2009-08-03T11:57:33Z</time>
      </trkpt>
      <trkpt lat="44.76537" lon="4.49285">
        <ele>500.01599121094</ele>
        <time>2009-08-03T11:57:37Z</time>
      </trkpt>
      <trkpt lat="44.7654" lon="4.4929">
        <ele>500.23199462891</ele>
        <time>2009-08-03T11:57:38Z</time>
      </trkpt>
      <trkpt lat="44.76545" lon="4.493">
        <ele>500.60000610352</ele>
        <time>2009-08-03T11:57:40Z</time>
      </trkpt>
      <trkpt lat="44.76554" lon="4.49322">
        <ele>501.52700805664</ele>
        <time>2009-08-03T11:57:44Z</time>
      </trkpt>
      <trkpt lat="44.76577" lon="4.49359">
        <ele>504.00698852539</ele>
        <time>2009-08-03T11:57:53Z</time>
      </trkpt>
      <trkpt lat="44.76581" lon="4.49359">
        <ele>504.36898803711</ele>
        <time>2009-08-03T11:57:54Z</time>
      </trkpt>
      <trkpt lat="44.76608" lon="4.49362">
        <ele>505.47100830078</ele>
        <time>2009-08-03T11:58:00Z</time>
      </trkpt>
      <trkpt lat="44.76625" lon="4.49356">
        <ele>506.08999633789</ele>
        <time>2009-08-03T11:58:04Z</time>
      </trkpt>
      <trkpt lat="44.76632" lon="4.49349">
        <ele>506.54000854492</ele>
        <time>2009-08-03T11:58:06Z</time>
      </trkpt>
      <trkpt lat="44.7665" lon="4.49334">
        <ele>508.34100341797</ele>
        <time>2009-08-03T11:58:11Z</time>
      </trkpt>
      <trkpt lat="44.76661" lon="4.49327">
        <ele>508.85501098633</ele>
        <time>2009-08-03T11:58:14Z</time>
      </trkpt>
      <trkpt lat="44.76688" lon="4.49349">
        <ele>510.34201049805</ele>
        <time>2009-08-03T11:58:22Z</time>
      </trkpt>
      <trkpt lat="44.76696" lon="4.49379">
        <ele>511.30200195312</ele>
        <time>2009-08-03T11:58:27Z</time>
      </trkpt>
      <trkpt lat="44.76695" lon="4.49411">
        <ele>512.28100585938</ele>
        <time>2009-08-03T11:58:32Z</time>
      </trkpt>
      <trkpt lat="44.76694" lon="4.49423">
        <ele>513.15698242188</ele>
        <time>2009-08-03T11:58:34Z</time>
      </trkpt>
      <trkpt lat="44.76704" lon="4.49448">
        <ele>514.16198730469</ele>
        <time>2009-08-03T11:58:39Z</time>
      </trkpt>
      <trkpt lat="44.76716" lon="4.49464">
        <ele>514.72302246094</ele>
        <time>2009-08-03T11:58:43Z</time>
      </trkpt>
      <trkpt lat="44.76734" lon="4.49493">
        <ele>516.75799560547</ele>
        <time>2009-08-03T11:58:50Z</time>
      </trkpt>
      <trkpt lat="44.76752" lon="4.49506">
        <ele>518.14599609375</ele>
        <time>2009-08-03T11:58:55Z</time>
      </trkpt>
      <trkpt lat="44.76781" lon="4.49525">
        <ele>519.55902099609</ele>
        <time>2009-08-03T11:59:02Z</time>
      </trkpt>
      <trkpt lat="44.76791" lon="4.49538">
        <ele>520.32800292969</ele>
        <time>2009-08-03T11:59:05Z</time>
      </trkpt>
      <trkpt lat="44.76828" lon="4.4955">
        <ele>522.50402832031</ele>
        <time>2009-08-03T11:59:14Z</time>
      </trkpt>
      <trkpt lat="44.76841" lon="4.49548">
        <ele>522.73101806641</ele>
        <time>2009-08-03T11:59:17Z</time>
      </trkpt>
      <trkpt lat="44.76853" lon="4.49549">
        <ele>522.69500732422</ele>
        <time>2009-08-03T11:59:20Z</time>
      </trkpt>
      <trkpt lat="44.76882" lon="4.49556">
        <ele>524.76800537109</ele>
        <time>2009-08-03T11:59:27Z</time>
      </trkpt>
      <trkpt lat="44.76897" lon="4.49567">
        <ele>525.69201660156</ele>
        <time>2009-08-03T11:59:31Z</time>
      </trkpt>
      <trkpt lat="44.76903" lon="4.49573">
        <ele>526.14898681641</ele>
        <time>2009-08-03T11:59:33Z</time>
      </trkpt>
      <trkpt lat="44.7693" lon="4.49624">
        <ele>529.80902099609</ele>
        <time>2009-08-03T11:59:44Z</time>
      </trkpt>
      <trkpt lat="44.76956" lon="4.49638">
        <ele>531.16198730469</ele>
        <time>2009-08-03T11:59:52Z</time>
      </trkpt>
      <trkpt lat="44.76991" lon="4.49603">
        <ele>532.89202880859</ele>
        <time>2009-08-03T12:00:03Z</time>
      </trkpt>
      <trkpt lat="44.77006" lon="4.4961">
        <ele>534.00500488281</ele>
        <time>2009-08-03T12:00:07Z</time>
      </trkpt>
      <trkpt lat="44.77044" lon="4.49646">
        <ele>535.75701904297</ele>
        <time>2009-08-03T12:00:18Z</time>
      </trkpt>
      <trkpt lat="44.77057" lon="4.49658">
        <ele>536.65899658203</ele>
        <time>2009-08-03T12:00:22Z</time>
      </trkpt>
      <trkpt lat="44.7706" lon="4.49661">
        <ele>536.92199707031</ele>
        <time>2009-08-03T12:00:23Z</time>
      </trkpt>
      <trkpt lat="44.77068" lon="4.49674">
        <ele>537.57098388672</ele>
        <time>2009-08-03T12:00:26Z</time>
      </trkpt>
      <trkpt lat="44.77073" lon="4.49689">
        <ele>538.97698974609</ele>
        <time>2009-08-03T12:00:29Z</time>
      </trkpt>
      <trkpt lat="44.77075" lon="4.49723">
        <ele>539.83197021484</ele>
        <time>2009-08-03T12:00:35Z</time>
      </trkpt>
      <trkpt lat="44.77074" lon="4.49771">
        <ele>541.48498535156</ele>
        <time>2009-08-03T12:00:43Z</time>
      </trkpt>
      <trkpt lat="44.77075" lon="4.49783">
        <ele>542.27099609375</ele>
        <time>2009-08-03T12:00:45Z</time>
      </trkpt>
      <trkpt lat="44.77079" lon="4.49807">
        <ele>542.81201171875</ele>
        <time>2009-08-03T12:00:49Z</time>
      </trkpt>
      <trkpt lat="44.77094" lon="4.4986">
        <ele>544.83599853516</ele>
        <time>2009-08-03T12:00:59Z</time>
      </trkpt>
      <trkpt lat="44.77108" lon="4.49865">
        <ele>545.90100097656</ele>
        <time>2009-08-03T12:01:02Z</time>
      </trkpt>
      <trkpt lat="44.77125" lon="4.49886">
        <ele>546.82202148438</ele>
        <time>2009-08-03T12:01:07Z</time>
      </trkpt>
      <trkpt lat="44.77168" lon="4.49979">
        <ele>548.45501708984</ele>
        <time>2009-08-03T12:01:22Z</time>
      </trkpt>
      <trkpt lat="44.77157" lon="4.50039">
        <ele>549.55102539062</ele>
        <time>2009-08-03T12:01:31Z</time>
      </trkpt>
      <trkpt lat="44.77154" lon="4.50053">
        <ele>549.6240234375</ele>
        <time>2009-08-03T12:01:33Z</time>
      </trkpt>
      <trkpt lat="44.7715" lon="4.50095">
        <ele>550.45098876953</ele>
        <time>2009-08-03T12:01:39Z</time>
      </trkpt>
      <trkpt lat="44.77146" lon="4.50118">
        <ele>550.77197265625</ele>
        <time>2009-08-03T12:01:42Z</time>
      </trkpt>
      <trkpt lat="44.77127" lon="4.50159">
        <ele>551.82598876953</ele>
        <time>2009-08-03T12:01:48Z</time>
      </trkpt>
      <trkpt lat="44.77131" lon="4.50198">
        <ele>552.72900390625</ele>
        <time>2009-08-03T12:01:54Z</time>
      </trkpt>
      <trkpt lat="44.7716" lon="4.50253">
        <ele>553.70001220703</ele>
        <time>2009-08-03T12:02:03Z</time>
      </trkpt>
      <trkpt lat="44.77156" lon="4.50276">
        <ele>554.32702636719</ele>
        <time>2009-08-03T12:02:06Z</time>
      </trkpt>
      <trkpt lat="44.77148" lon="4.50297">
        <ele>554.52697753906</ele>
        <time>2009-08-03T12:02:09Z</time>
      </trkpt>
      <trkpt lat="44.77146" lon="4.5033">
        <ele>555.89398193359</ele>
        <time>2009-08-03T12:02:14Z</time>
      </trkpt>
      <trkpt lat="44.77147" lon="4.50337">
        <ele>555.88397216797</ele>
        <time>2009-08-03T12:02:15Z</time>
      </trkpt>
      <trkpt lat="44.77154" lon="4.50368">
        <ele>556.26599121094</ele>
        <time>2009-08-03T12:02:19Z</time>
      </trkpt>
      <trkpt lat="44.77158" lon="4.50393">
        <ele>556.73999023438</ele>
        <time>2009-08-03T12:02:22Z</time>
      </trkpt>
      <trkpt lat="44.77163" lon="4.50408">
        <ele>556.87799072266</ele>
        <time>2009-08-03T12:02:24Z</time>
      </trkpt>
      <trkpt lat="44.77171" lon="4.50429">
        <ele>557.58099365234</ele>
        <time>2009-08-03T12:02:27Z</time>
      </trkpt>
      <trkpt lat="44.77189" lon="4.50459">
        <ele>558.083984375</ele>
        <time>2009-08-03T12:02:32Z</time>
      </trkpt>
      <trkpt lat="44.77193" lon="4.50466">
        <ele>558.51702880859</ele>
        <time>2009-08-03T12:02:33Z</time>
      </trkpt>
      <trkpt lat="44.77197" lon="4.50473">
        <ele>558.57098388672</ele>
        <time>2009-08-03T12:02:34Z</time>
      </trkpt>
      <trkpt lat="44.77209" lon="4.50512">
        <ele>558.65301513672</ele>
        <time>2009-08-03T12:02:39Z</time>
      </trkpt>
      <trkpt lat="44.77192" lon="4.50566">
        <ele>560.31896972656</ele>
        <time>2009-08-03T12:02:47Z</time>
      </trkpt>
      <trkpt lat="44.77179" lon="4.5058">
        <ele>560.56097412109</ele>
        <time>2009-08-03T12:02:50Z</time>
      </trkpt>
      <trkpt lat="44.77174" lon="4.50582">
        <ele>560.84899902344</ele>
        <time>2009-08-03T12:02:51Z</time>
      </trkpt>
      <trkpt lat="44.77143" lon="4.50574">
        <ele>561.77301025391</ele>
        <time>2009-08-03T12:02:57Z</time>
      </trkpt>
      <trkpt lat="44.77103" lon="4.50548">
        <ele>562.60699462891</ele>
        <time>2009-08-03T12:03:05Z</time>
      </trkpt>
      <trkpt lat="44.77013" lon="4.50511">
        <ele>565.58502197266</ele>
        <time>2009-08-03T12:03:22Z</time>
      </trkpt>
      <trkpt lat="44.76931" lon="4.50478">
        <ele>567.333984375</ele>
        <time>2009-08-03T12:03:38Z</time>
      </trkpt>
      <trkpt lat="44.7691" lon="4.50468">
        <ele>568.34002685547</ele>
        <time>2009-08-03T12:03:42Z</time>
      </trkpt>
      <trkpt lat="44.76888" lon="4.50448">
        <ele>569.13500976562</ele>
        <time>2009-08-03T12:03:47Z</time>
      </trkpt>
      <trkpt lat="44.7688" lon="4.50437">
        <ele>569.58099365234</ele>
        <time>2009-08-03T12:03:49Z</time>
      </trkpt>
      <trkpt lat="44.76838" lon="4.50404">
        <ele>570.98400878906</ele>
        <time>2009-08-03T12:03:58Z</time>
      </trkpt>
      <trkpt lat="44.7682" lon="4.50386">
        <ele>571.65600585938</ele>
        <time>2009-08-03T12:04:02Z</time>
      </trkpt>
      <trkpt lat="44.76799" lon="4.50394">
        <ele>573.17700195312</ele>
        <time>2009-08-03T12:04:09Z</time>
      </trkpt>
      <trkpt lat="44.76802" lon="4.50411">
        <ele>573.68298339844</ele>
        <time>2009-08-03T12:04:11Z</time>
      </trkpt>
      <trkpt lat="44.76812" lon="4.50445">
        <ele>574.30999755859</ele>
        <time>2009-08-03T12:04:15Z</time>
      </trkpt>
      <trkpt lat="44.76808" lon="4.50476">
        <ele>574.69000244141</ele>
        <time>2009-08-03T12:04:19Z</time>
      </trkpt>
      <trkpt lat="44.76802" lon="4.50497">
        <ele>575.26599121094</ele>
        <time>2009-08-03T12:04:22Z</time>
      </trkpt>
      <trkpt lat="44.76799" lon="4.50504">
        <ele>575.26599121094</ele>
        <time>2009-08-03T12:04:23Z</time>
      </trkpt>
      <trkpt lat="44.76794" lon="4.50511">
        <ele>575.32000732422</ele>
        <time>2009-08-03T12:04:24Z</time>
      </trkpt>
      <trkpt lat="44.76789" lon="4.50517">
        <ele>575.75402832031</ele>
        <time>2009-08-03T12:04:25Z</time>
      </trkpt>
      <trkpt lat="44.76747" lon="4.50533">
        <ele>576.98797607422</ele>
        <time>2009-08-03T12:04:32Z</time>
      </trkpt>
      <trkpt lat="44.76735" lon="4.50539">
        <ele>577.57897949219</ele>
        <time>2009-08-03T12:04:34Z</time>
      </trkpt>
      <trkpt lat="44.76695" lon="4.50553">
        <ele>578.01000976562</ele>
        <time>2009-08-03T12:04:41Z</time>
      </trkpt>
      <trkpt lat="44.76659" lon="4.50552">
        <ele>578.9169921875</ele>
        <time>2009-08-03T12:04:47Z</time>
      </trkpt>
      <trkpt lat="44.76634" lon="4.50567">
        <ele>580.01202392578</ele>
        <time>2009-08-03T12:04:52Z</time>
      </trkpt>
      <trkpt lat="44.76596" lon="4.50588">
        <ele>581.03302001953</ele>
        <time>2009-08-03T12:05:00Z</time>
      </trkpt>
      <trkpt lat="44.76594" lon="4.50595">
        <ele>581.19097900391</ele>
        <time>2009-08-03T12:05:01Z</time>
      </trkpt>
      <trkpt lat="44.76572" lon="4.50636">
        <ele>583.01202392578</ele>
        <time>2009-08-03T12:05:08Z</time>
      </trkpt>
      <trkpt lat="44.76558" lon="4.50667">
        <ele>583.97302246094</ele>
        <time>2009-08-03T12:05:13Z</time>
      </trkpt>
      <trkpt lat="44.76558" lon="4.50714">
        <ele>584.79699707031</ele>
        <time>2009-08-03T12:05:20Z</time>
      </trkpt>
      <trkpt lat="44.7657" lon="4.50716">
        <ele>585.59802246094</ele>
        <time>2009-08-03T12:05:24Z</time>
      </trkpt>
      <trkpt lat="44.76623" lon="4.50692">
        <ele>586.62799072266</ele>
        <time>2009-08-03T12:05:33Z</time>
      </trkpt>
      <trkpt lat="44.76669" lon="4.50689">
        <ele>587.67797851562</ele>
        <time>2009-08-03T12:05:41Z</time>
      </trkpt>
      <trkpt lat="44.76681" lon="4.50688">
        <ele>587.79699707031</ele>
        <time>2009-08-03T12:05:43Z</time>
      </trkpt>
      <trkpt lat="44.76686" lon="4.50687">
        <ele>587.98602294922</ele>
        <time>2009-08-03T12:05:44Z</time>
      </trkpt>
      <trkpt lat="44.76693" lon="4.50687">
        <ele>588.06597900391</ele>
        <time>2009-08-03T12:05:45Z</time>
      </trkpt>
      <trkpt lat="44.76702" lon="4.50689">
        <ele>588.97100830078</ele>
        <time>2009-08-03T12:05:47Z</time>
      </trkpt>
      <trkpt lat="44.76708" lon="4.50688">
        <ele>589.31402587891</ele>
        <time>2009-08-03T12:05:48Z</time>
      </trkpt>
      <trkpt lat="44.76756" lon="4.50696">
        <ele>591.04602050781</ele>
        <time>2009-08-03T12:05:57Z</time>
      </trkpt>
      <trkpt lat="44.76765" lon="4.50703">
        <ele>590.94500732422</ele>
        <time>2009-08-03T12:05:59Z</time>
      </trkpt>
      <trkpt lat="44.76794" lon="4.50774">
        <ele>592.83801269531</ele>
        <time>2009-08-03T12:06:09Z</time>
      </trkpt>
      <trkpt lat="44.76791" lon="4.50794">
        <ele>592.80603027344</ele>
        <time>2009-08-03T12:06:12Z</time>
      </trkpt>
      <trkpt lat="44.7679" lon="4.50801">
        <ele>592.93701171875</ele>
        <time>2009-08-03T12:06:13Z</time>
      </trkpt>
      <trkpt lat="44.76786" lon="4.50815">
        <ele>592.95202636719</ele>
        <time>2009-08-03T12:06:15Z</time>
      </trkpt>
      <trkpt lat="44.76781" lon="4.50835">
        <ele>593.85302734375</ele>
        <time>2009-08-03T12:06:18Z</time>
      </trkpt>
      <trkpt lat="44.76779" lon="4.50847">
        <ele>594.15002441406</ele>
        <time>2009-08-03T12:06:20Z</time>
      </trkpt>
      <trkpt lat="44.76773" lon="4.50876">
        <ele>594.54901123047</ele>
        <time>2009-08-03T12:06:24Z</time>
      </trkpt>
      <trkpt lat="44.76765" lon="4.50912">
        <ele>594.54302978516</ele>
        <time>2009-08-03T12:06:28Z</time>
      </trkpt>
      <trkpt lat="44.76763" lon="4.50929">
        <ele>594.92602539062</ele>
        <time>2009-08-03T12:06:30Z</time>
      </trkpt>
      <trkpt lat="44.76752" lon="4.50957">
        <ele>595.92901611328</ele>
        <time>2009-08-03T12:06:34Z</time>
      </trkpt>
      <trkpt lat="44.76771" lon="4.50975">
        <ele>598.29498291016</ele>
        <time>2009-08-03T12:06:41Z</time>
      </trkpt>
      <trkpt lat="44.76782" lon="4.50995">
        <ele>598.94799804688</ele>
        <time>2009-08-03T12:06:44Z</time>
      </trkpt>
      <trkpt lat="44.76786" lon="4.51003">
        <ele>599.17401123047</ele>
        <time>2009-08-03T12:06:45Z</time>
      </trkpt>
      <trkpt lat="44.76799" lon="4.51014">
        <ele>599.65197753906</ele>
        <time>2009-08-03T12:06:48Z</time>
      </trkpt>
      <trkpt lat="44.76815" lon="4.51005">
        <ele>600.09600830078</ele>
        <time>2009-08-03T12:06:50Z</time>
      </trkpt>
      <trkpt lat="44.76827" lon="4.5098">
        <ele>600.39001464844</ele>
        <time>2009-08-03T12:06:53Z</time>
      </trkpt>
      <trkpt lat="44.76837" lon="4.50956">
        <ele>600.74597167969</ele>
        <time>2009-08-03T12:06:56Z</time>
      </trkpt>
      <trkpt lat="44.76891" lon="4.50883">
        <ele>602.59899902344</ele>
        <time>2009-08-03T12:07:08Z</time>
      </trkpt>
      <trkpt lat="44.76896" lon="4.50878">
        <ele>602.57397460938</ele>
        <time>2009-08-03T12:07:09Z</time>
      </trkpt>
      <trkpt lat="44.76919" lon="4.50872">
        <ele>603.10101318359</ele>
        <time>2009-08-03T12:07:13Z</time>
      </trkpt>
      <trkpt lat="44.76937" lon="4.50876">
        <ele>603.37799072266</ele>
        <time>2009-08-03T12:07:16Z</time>
      </trkpt>
      <trkpt lat="44.7697" lon="4.50898">
        <ele>604.6259765625</ele>
        <time>2009-08-03T12:07:22Z</time>
      </trkpt>
      <trkpt lat="44.77029" lon="4.51">
        <ele>606.49401855469</ele>
        <time>2009-08-03T12:07:36Z</time>
      </trkpt>
      <trkpt lat="44.77043" lon="4.51117">
        <ele>608.2919921875</ele>
        <time>2009-08-03T12:07:49Z</time>
      </trkpt>
      <trkpt lat="44.77042" lon="4.51135">
        <ele>608.65502929688</ele>
        <time>2009-08-03T12:07:51Z</time>
      </trkpt>
      <trkpt lat="44.77042" lon="4.51144">
        <ele>609.19500732422</ele>
        <time>2009-08-03T12:07:52Z</time>
      </trkpt>
      <trkpt lat="44.77056" lon="4.51179">
        <ele>610.60498046875</ele>
        <time>2009-08-03T12:07:57Z</time>
      </trkpt>
      <trkpt lat="44.77082" lon="4.51173">
        <ele>611.51599121094</ele>
        <time>2009-08-03T12:08:01Z</time>
      </trkpt>
      <trkpt lat="44.77125" lon="4.51191">
        <ele>613.16198730469</ele>
        <time>2009-08-03T12:08:08Z</time>
      </trkpt>
      <trkpt lat="44.77132" lon="4.51203">
        <ele>613.56597900391</ele>
        <time>2009-08-03T12:08:10Z</time>
      </trkpt>
      <trkpt lat="44.77141" lon="4.5122">
        <ele>615.15802001953</ele>
        <time>2009-08-03T12:08:13Z</time>
      </trkpt>
      <trkpt lat="44.7715" lon="4.51235">
        <ele>616.33001708984</ele>
        <time>2009-08-03T12:08:16Z</time>
      </trkpt>
      <trkpt lat="44.77185" lon="4.51291">
        <ele>619.94702148438</ele>
        <time>2009-08-03T12:08:30Z</time>
      </trkpt>
      <trkpt lat="44.77166" lon="4.51333">
        <ele>622.05700683594</ele>
        <time>2009-08-03T12:08:41Z</time>
      </trkpt>
      <trkpt lat="44.77141" lon="4.5137">
        <ele>624.72900390625</ele>
        <time>2009-08-03T12:08:53Z</time>
      </trkpt>
      <trkpt lat="44.77131" lon="4.51416">
        <ele>627.15802001953</ele>
        <time>2009-08-03T12:09:04Z</time>
      </trkpt>
      <trkpt lat="44.77125" lon="4.51431">
        <ele>628.03302001953</ele>
        <time>2009-08-03T12:09:08Z</time>
      </trkpt>
      <trkpt lat="44.7712" lon="4.51455">
        <ele>629.20599365234</ele>
        <time>2009-08-03T12:09:14Z</time>
      </trkpt>
      <trkpt lat="44.77123" lon="4.51501">
        <ele>630.44598388672</ele>
        <time>2009-08-03T12:09:23Z</time>
      </trkpt>
      <trkpt lat="44.77098" lon="4.51544">
        <ele>632.61798095703</ele>
        <time>2009-08-03T12:09:32Z</time>
      </trkpt>
      <trkpt lat="44.77102" lon="4.51582">
        <ele>634.42999267578</ele>
        <time>2009-08-03T12:09:41Z</time>
      </trkpt>
      <trkpt lat="44.77103" lon="4.51616">
        <ele>636.32800292969</ele>
        <time>2009-08-03T12:09:48Z</time>
      </trkpt>
      <trkpt lat="44.77076" lon="4.51624">
        <ele>638.69201660156</ele>
        <time>2009-08-03T12:09:57Z</time>
      </trkpt>
      <trkpt lat="44.77028" lon="4.51632">
        <ele>641.54302978516</ele>
        <time>2009-08-03T12:10:10Z</time>
      </trkpt>
      <trkpt lat="44.77022" lon="4.51641">
        <ele>641.62200927734</ele>
        <time>2009-08-03T12:10:13Z</time>
      </trkpt>
      <trkpt lat="44.77022" lon="4.51687">
        <ele>644.78601074219</ele>
        <time>2009-08-03T12:10:23Z</time>
      </trkpt>
      <trkpt lat="44.76989" lon="4.51732">
        <ele>647.08898925781</ele>
        <time>2009-08-03T12:10:34Z</time>
      </trkpt>
      <trkpt lat="44.76967" lon="4.51761">
        <ele>648.08502197266</ele>
        <time>2009-08-03T12:10:40Z</time>
      </trkpt>
      <trkpt lat="44.76957" lon="4.51771">
        <ele>648.57299804688</ele>
        <time>2009-08-03T12:10:43Z</time>
      </trkpt>
      <trkpt lat="44.76944" lon="4.51803">
        <ele>649.63201904297</ele>
        <time>2009-08-03T12:10:49Z</time>
      </trkpt>
      <trkpt lat="44.76944" lon="4.51833">
        <ele>651.28900146484</ele>
        <time>2009-08-03T12:10:54Z</time>
      </trkpt>
      <trkpt lat="44.76963" lon="4.51848">
        <ele>654.40997314453</ele>
        <time>2009-08-03T12:11:02Z</time>
      </trkpt>
      <trkpt lat="44.77008" lon="4.51855">
        <ele>656.71801757812</ele>
        <time>2009-08-03T12:11:15Z</time>
      </trkpt>
      <trkpt lat="44.77058" lon="4.51847">
        <ele>659.65502929688</ele>
        <time>2009-08-03T12:11:29Z</time>
      </trkpt>
      <trkpt lat="44.77098" lon="4.51869">
        <ele>663.03802490234</ele>
        <time>2009-08-03T12:11:41Z</time>
      </trkpt>
      <trkpt lat="44.77124" lon="4.51936">
        <ele>665.31701660156</ele>
        <time>2009-08-03T12:11:54Z</time>
      </trkpt>
      <trkpt lat="44.77142" lon="4.51947">
        <ele>666.38598632812</ele>
        <time>2009-08-03T12:11:59Z</time>
      </trkpt>
      <trkpt lat="44.7721" lon="4.51906">
        <ele>670.44799804688</ele>
        <time>2009-08-03T12:12:18Z</time>
      </trkpt>
      <trkpt lat="44.7727" lon="4.51877">
        <ele>672.74401855469</ele>
        <time>2009-08-03T12:12:34Z</time>
      </trkpt>
      <trkpt lat="44.77292" lon="4.51887">
        <ele>673.70697021484</ele>
        <time>2009-08-03T12:12:40Z</time>
      </trkpt>
      <trkpt lat="44.77298" lon="4.51895">
        <ele>674.22497558594</ele>
        <time>2009-08-03T12:12:42Z</time>
      </trkpt>
      <trkpt lat="44.77308" lon="4.51913">
        <ele>674.95397949219</ele>
        <time>2009-08-03T12:12:46Z</time>
      </trkpt>
      <trkpt lat="44.77313" lon="4.51929">
        <ele>675.5009765625</ele>
        <time>2009-08-03T12:12:49Z</time>
      </trkpt>
      <trkpt lat="44.77299" lon="4.51978">
        <ele>678.06597900391</ele>
        <time>2009-08-03T12:12:59Z</time>
      </trkpt>
      <trkpt lat="44.77236" lon="4.52022">
        <ele>682.18200683594</ele>
        <time>2009-08-03T12:13:17Z</time>
      </trkpt>
      <trkpt lat="44.77169" lon="4.52052">
        <ele>686.33697509766</ele>
        <time>2009-08-03T12:13:36Z</time>
      </trkpt>
      <trkpt lat="44.77134" lon="4.52083">
        <ele>689.46997070312</ele>
        <time>2009-08-03T12:13:49Z</time>
      </trkpt>
      <trkpt lat="44.77103" lon="4.52121">
        <ele>692.10198974609</ele>
        <time>2009-08-03T12:14:02Z</time>
      </trkpt>
      <trkpt lat="44.77087" lon="4.52156">
        <ele>693.91302490234</ele>
        <time>2009-08-03T12:14:10Z</time>
      </trkpt>
      <trkpt lat="44.77066" lon="4.52215">
        <ele>697.37701416016</ele>
        <time>2009-08-03T12:14:22Z</time>
      </trkpt>
      <trkpt lat="44.77044" lon="4.52284">
        <ele>700.75897216797</ele>
        <time>2009-08-03T12:14:38Z</time>
      </trkpt>
      <trkpt lat="44.77012" lon="4.52285">
        <ele>703.17498779297</ele>
        <time>2009-08-03T12:14:48Z</time>
      </trkpt>
      <trkpt lat="44.76975" lon="4.52275">
        <ele>705.77301025391</ele>
        <time>2009-08-03T12:15:00Z</time>
      </trkpt>
      <trkpt lat="44.76929" lon="4.52284">
        <ele>709.01202392578</ele>
        <time>2009-08-03T12:15:13Z</time>
      </trkpt>
      <trkpt lat="44.76886" lon="4.52335">
        <ele>712.73602294922</ele>
        <time>2009-08-03T12:15:28Z</time>
      </trkpt>
      <trkpt lat="44.76849" lon="4.52343">
        <ele>715.37902832031</ele>
        <time>2009-08-03T12:15:40Z</time>
      </trkpt>
      <trkpt lat="44.76803" lon="4.52319">
        <ele>718.70501708984</ele>
        <time>2009-08-03T12:15:54Z</time>
      </trkpt>
      <trkpt lat="44.76731" lon="4.5231">
        <ele>723.46997070312</ele>
        <time>2009-08-03T12:16:12Z</time>
      </trkpt>
      <trkpt lat="44.76696" lon="4.52316">
        <ele>724.77600097656</ele>
        <time>2009-08-03T12:16:21Z</time>
      </trkpt>
      <trkpt lat="44.7669" lon="4.52323">
        <ele>724.78997802734</ele>
        <time>2009-08-03T12:16:23Z</time>
      </trkpt>
      <trkpt lat="44.76683" lon="4.52337">
        <ele>726.01800537109</ele>
        <time>2009-08-03T12:16:26Z</time>
      </trkpt>
      <trkpt lat="44.7667" lon="4.52371">
        <ele>727.56402587891</ele>
        <time>2009-08-03T12:16:33Z</time>
      </trkpt>
      <trkpt lat="44.76638" lon="4.5243">
        <ele>731.19500732422</ele>
        <time>2009-08-03T12:16:47Z</time>
      </trkpt>
      <trkpt lat="44.76601" lon="4.52485">
        <ele>733.27197265625</ele>
        <time>2009-08-03T12:17:01Z</time>
      </trkpt>
      <trkpt lat="44.76575" lon="4.52577">
        <ele>737.55999755859</ele>
        <time>2009-08-03T12:17:16Z</time>
      </trkpt>
      <trkpt lat="44.76569" lon="4.52595">
        <ele>738.11401367188</ele>
        <time>2009-08-03T12:17:19Z</time>
      </trkpt>
      <trkpt lat="44.76549" lon="4.52631">
        <ele>739.57897949219</ele>
        <time>2009-08-03T12:17:26Z</time>
      </trkpt>
      <trkpt lat="44.76534" lon="4.52648">
        <ele>740.92401123047</ele>
        <time>2009-08-03T12:17:30Z</time>
      </trkpt>
      <trkpt lat="44.76519" lon="4.52671">
        <ele>742.52697753906</ele>
        <time>2009-08-03T12:17:35Z</time>
      </trkpt>
      <trkpt lat="44.76512" lon="4.52686">
        <ele>743.65899658203</ele>
        <time>2009-08-03T12:17:38Z</time>
      </trkpt>
      <trkpt lat="44.76509" lon="4.52697">
        <ele>744.74401855469</ele>
        <time>2009-08-03T12:17:40Z</time>
      </trkpt>
      <trkpt lat="44.76501" lon="4.52722">
        <ele>745.72302246094</ele>
        <time>2009-08-03T12:17:45Z</time>
      </trkpt>
      <trkpt lat="44.76497" lon="4.52732">
        <ele>745.81402587891</ele>
        <time>2009-08-03T12:17:47Z</time>
      </trkpt>
      <trkpt lat="44.76457" lon="4.52775">
        <ele>749.62701416016</ele>
        <time>2009-08-03T12:18:00Z</time>
      </trkpt>
      <trkpt lat="44.76423" lon="4.52827">
        <ele>753.82098388672</ele>
        <time>2009-08-03T12:18:15Z</time>
      </trkpt>
      <trkpt lat="44.76413" lon="4.52875">
        <ele>754.73400878906</ele>
        <time>2009-08-03T12:18:26Z</time>
      </trkpt>
      <trkpt lat="44.76412" lon="4.52879">
        <ele>754.3330078125</ele>
        <time>2009-08-03T12:18:28Z</time>
      </trkpt>
      <trkpt lat="44.76411" lon="4.52881">
        <ele>754.7919921875</ele>
        <time>2009-08-03T12:18:31Z</time>
      </trkpt>
      <trkpt lat="44.76414" lon="4.52888">
        <ele>754.35198974609</ele>
        <time>2009-08-03T12:19:26Z</time>
      </trkpt>
      <trkpt lat="44.76415" lon="4.52898">
        <ele>754.42999267578</ele>
        <time>2009-08-03T12:19:29Z</time>
      </trkpt>
      <trkpt lat="44.76413" lon="4.52932">
        <ele>755.69000244141</ele>
        <time>2009-08-03T12:19:37Z</time>
      </trkpt>
      <trkpt lat="44.76405" lon="4.52951">
        <ele>755.85797119141</ele>
        <time>2009-08-03T12:19:44Z</time>
      </trkpt>
      <trkpt lat="44.76402" lon="4.5296">
        <ele>756.52001953125</ele>
        <time>2009-08-03T12:19:48Z</time>
      </trkpt>
      <trkpt lat="44.76384" lon="4.53005">
        <ele>753.40600585938</ele>
        <time>2009-08-03T12:20:02Z</time>
      </trkpt>
      <trkpt lat="44.76378" lon="4.53023">
        <ele>752.7509765625</ele>
        <time>2009-08-03T12:20:05Z</time>
      </trkpt>
      <trkpt lat="44.76369" lon="4.53073">
        <ele>749.66802978516</ele>
        <time>2009-08-03T12:20:11Z</time>
      </trkpt>
      <trkpt lat="44.76358" lon="4.53099">
        <ele>748.95697021484</ele>
        <time>2009-08-03T12:20:14Z</time>
      </trkpt>
      <trkpt lat="44.76352" lon="4.53154">
        <ele>745.24798583984</ele>
        <time>2009-08-03T12:20:19Z</time>
      </trkpt>
      <trkpt lat="44.76322" lon="4.53214">
        <ele>741.46997070312</ele>
        <time>2009-08-03T12:20:25Z</time>
      </trkpt>
      <trkpt lat="44.76274" lon="4.5325">
        <ele>738.07299804688</ele>
        <time>2009-08-03T12:20:31Z</time>
      </trkpt>
      <trkpt lat="44.76246" lon="4.533">
        <ele>734.70202636719</ele>
        <time>2009-08-03T12:20:36Z</time>
      </trkpt>
      <trkpt lat="44.76217" lon="4.53387">
        <ele>730.45202636719</ele>
        <time>2009-08-03T12:20:43Z</time>
      </trkpt>
      <trkpt lat="44.76213" lon="4.534">
        <ele>729.73901367188</ele>
        <time>2009-08-03T12:20:44Z</time>
      </trkpt>
      <trkpt lat="44.762" lon="4.5348">
        <ele>725.08099365234</ele>
        <time>2009-08-03T12:20:50Z</time>
      </trkpt>
      <trkpt lat="44.762" lon="4.53508">
        <ele>723.98999023438</ele>
        <time>2009-08-03T12:20:52Z</time>
      </trkpt>
      <trkpt lat="44.76207" lon="4.53559">
        <ele>722.07098388672</ele>
        <time>2009-08-03T12:20:56Z</time>
      </trkpt>
      <trkpt lat="44.76216" lon="4.53612">
        <ele>719.90600585938</ele>
        <time>2009-08-03T12:21:01Z</time>
      </trkpt>
      <trkpt lat="44.76192" lon="4.53637">
        <ele>716.98797607422</ele>
        <time>2009-08-03T12:21:06Z</time>
      </trkpt>
      <trkpt lat="44.76176" lon="4.53631">
        <ele>716.25897216797</ele>
        <time>2009-08-03T12:21:08Z</time>
      </trkpt>
      <trkpt lat="44.7616" lon="4.53622">
        <ele>715.09698486328</ele>
        <time>2009-08-03T12:21:10Z</time>
      </trkpt>
      <trkpt lat="44.76117" lon="4.53657">
        <ele>710.12902832031</ele>
        <time>2009-08-03T12:21:16Z</time>
      </trkpt>
      <trkpt lat="44.76114" lon="4.53669">
        <ele>710.10699462891</ele>
        <time>2009-08-03T12:21:17Z</time>
      </trkpt>
      <trkpt lat="44.76111" lon="4.53682">
        <ele>709.06597900391</ele>
        <time>2009-08-03T12:21:18Z</time>
      </trkpt>
      <trkpt lat="44.76102" lon="4.53737">
        <ele>705.85699462891</ele>
        <time>2009-08-03T12:21:22Z</time>
      </trkpt>
      <trkpt lat="44.76078" lon="4.53839">
        <ele>702.34802246094</ele>
        <time>2009-08-03T12:21:29Z</time>
      </trkpt>
      <trkpt lat="44.76059" lon="4.53899">
        <ele>699.17498779297</ele>
        <time>2009-08-03T12:21:33Z</time>
      </trkpt>
      <trkpt lat="44.76046" lon="4.53963">
        <ele>697.12097167969</ele>
        <time>2009-08-03T12:21:37Z</time>
      </trkpt>
      <trkpt lat="44.7607" lon="4.5402">
        <ele>694.50598144531</ele>
        <time>2009-08-03T12:21:42Z</time>
      </trkpt>
      <trkpt lat="44.7609" lon="4.54012">
        <ele>692.84997558594</ele>
        <time>2009-08-03T12:21:44Z</time>
      </trkpt>
      <trkpt lat="44.76111" lon="4.53999">
        <ele>692.21301269531</ele>
        <time>2009-08-03T12:21:46Z</time>
      </trkpt>
      <trkpt lat="44.76146" lon="4.53968">
        <ele>691.32000732422</ele>
        <time>2009-08-03T12:21:50Z</time>
      </trkpt>
      <trkpt lat="44.76182" lon="4.53951">
        <ele>688.21002197266</ele>
        <time>2009-08-03T12:21:54Z</time>
      </trkpt>
      <trkpt lat="44.76192" lon="4.53949">
        <ele>687.6669921875</ele>
        <time>2009-08-03T12:21:55Z</time>
      </trkpt>
      <trkpt lat="44.76243" lon="4.53989">
        <ele>685.43103027344</ele>
        <time>2009-08-03T12:22:01Z</time>
      </trkpt>
      <trkpt lat="44.76254" lon="4.54014">
        <ele>684.46398925781</ele>
        <time>2009-08-03T12:22:03Z</time>
      </trkpt>
      <trkpt lat="44.76264" lon="4.5404">
        <ele>683.42999267578</ele>
        <time>2009-08-03T12:22:05Z</time>
      </trkpt>
      <trkpt lat="44.76274" lon="4.54083">
        <ele>682.16802978516</ele>
        <time>2009-08-03T12:22:08Z</time>
      </trkpt>
      <trkpt lat="44.76311" lon="4.54152">
        <ele>680.35998535156</ele>
        <time>2009-08-03T12:22:14Z</time>
      </trkpt>
      <trkpt lat="44.76329" lon="4.54213">
        <ele>678.88299560547</ele>
        <time>2009-08-03T12:22:19Z</time>
      </trkpt>
      <trkpt lat="44.76328" lon="4.5425">
        <ele>677.458984375</ele>
        <time>2009-08-03T12:22:22Z</time>
      </trkpt>
      <trkpt lat="44.76316" lon="4.54287">
        <ele>675.40100097656</ele>
        <time>2009-08-03T12:22:25Z</time>
      </trkpt>
      <trkpt lat="44.76286" lon="4.54339">
        <ele>672.97198486328</ele>
        <time>2009-08-03T12:22:30Z</time>
      </trkpt>
      <trkpt lat="44.76274" lon="4.54401">
        <ele>669.87200927734</ele>
        <time>2009-08-03T12:22:35Z</time>
      </trkpt>
      <trkpt lat="44.76267" lon="4.54516">
        <ele>665.79998779297</ele>
        <time>2009-08-03T12:22:43Z</time>
      </trkpt>
      <trkpt lat="44.76275" lon="4.54572">
        <ele>663.98602294922</ele>
        <time>2009-08-03T12:22:47Z</time>
      </trkpt>
      <trkpt lat="44.76278" lon="4.546">
        <ele>663.29797363281</ele>
        <time>2009-08-03T12:22:49Z</time>
      </trkpt>
      <trkpt lat="44.76279" lon="4.54626">
        <ele>662.06402587891</ele>
        <time>2009-08-03T12:22:51Z</time>
      </trkpt>
      <trkpt lat="44.76315" lon="4.5467">
        <ele>658.26202392578</ele>
        <time>2009-08-03T12:22:56Z</time>
      </trkpt>
      <trkpt lat="44.76343" lon="4.54689">
        <ele>656.67297363281</ele>
        <time>2009-08-03T12:22:59Z</time>
      </trkpt>
      <trkpt lat="44.76352" lon="4.54696">
        <ele>656.28997802734</ele>
        <time>2009-08-03T12:23:00Z</time>
      </trkpt>
      <trkpt lat="44.76373" lon="4.54724">
        <ele>654.73999023438</ele>
        <time>2009-08-03T12:23:03Z</time>
      </trkpt>
      <trkpt lat="44.76379" lon="4.54751">
        <ele>653.67297363281</ele>
        <time>2009-08-03T12:23:05Z</time>
      </trkpt>
      <trkpt lat="44.76385" lon="4.54794">
        <ele>651.22399902344</ele>
        <time>2009-08-03T12:23:08Z</time>
      </trkpt>
      <trkpt lat="44.76389" lon="4.54863">
        <ele>649.47601318359</ele>
        <time>2009-08-03T12:23:14Z</time>
      </trkpt>
      <trkpt lat="44.76385" lon="4.54889">
        <ele>647.95202636719</ele>
        <time>2009-08-03T12:23:16Z</time>
      </trkpt>
      <trkpt lat="44.76383" lon="4.5493">
        <ele>645.31097412109</ele>
        <time>2009-08-03T12:23:19Z</time>
      </trkpt>
      <trkpt lat="44.7637" lon="4.54993">
        <ele>644.48999023438</ele>
        <time>2009-08-03T12:23:24Z</time>
      </trkpt>
      <trkpt lat="44.7638" lon="4.55057">
        <ele>641.98602294922</ele>
        <time>2009-08-03T12:23:29Z</time>
      </trkpt>
      <trkpt lat="44.76446" lon="4.55182">
        <ele>636.86297607422</ele>
        <time>2009-08-03T12:23:40Z</time>
      </trkpt>
      <trkpt lat="44.76449" lon="4.55243">
        <ele>634.76599121094</ele>
        <time>2009-08-03T12:23:45Z</time>
      </trkpt>
      <trkpt lat="44.76438" lon="4.5528">
        <ele>633.19396972656</ele>
        <time>2009-08-03T12:23:48Z</time>
      </trkpt>
      <trkpt lat="44.76429" lon="4.55306">
        <ele>631.99200439453</ele>
        <time>2009-08-03T12:23:50Z</time>
      </trkpt>
      <trkpt lat="44.76424" lon="4.55318">
        <ele>631.18298339844</ele>
        <time>2009-08-03T12:23:51Z</time>
      </trkpt>
      <trkpt lat="44.76363" lon="4.55387">
        <ele>626.10101318359</ele>
        <time>2009-08-03T12:23:59Z</time>
      </trkpt>
      <trkpt lat="44.76341" lon="4.55429">
        <ele>623.74298095703</ele>
        <time>2009-08-03T12:24:04Z</time>
      </trkpt>
      <trkpt lat="44.76351" lon="4.55511">
        <ele>619.40002441406</ele>
        <time>2009-08-03T12:24:10Z</time>
      </trkpt>
      <trkpt lat="44.76377" lon="4.55681">
        <ele>609.18402099609</ele>
        <time>2009-08-03T12:24:22Z</time>
      </trkpt>
      <trkpt lat="44.76421" lon="4.55809">
        <ele>600.89501953125</ele>
        <time>2009-08-03T12:24:31Z</time>
      </trkpt>
      <trkpt lat="44.76445" lon="4.55888">
        <ele>597.60998535156</ele>
        <time>2009-08-03T12:24:37Z</time>
      </trkpt>
      <trkpt lat="44.7644" lon="4.55939">
        <ele>594.24401855469</ele>
        <time>2009-08-03T12:24:41Z</time>
      </trkpt>
      <trkpt lat="44.76432" lon="4.55964">
        <ele>593.18402099609</ele>
        <time>2009-08-03T12:24:43Z</time>
      </trkpt>
      <trkpt lat="44.76421" lon="4.56034">
        <ele>589.41497802734</ele>
        <time>2009-08-03T12:24:48Z</time>
      </trkpt>
      <trkpt lat="44.76416" lon="4.56074">
        <ele>588.90600585938</ele>
        <time>2009-08-03T12:24:51Z</time>
      </trkpt>
      <trkpt lat="44.76423" lon="4.56148">
        <ele>586.30200195312</ele>
        <time>2009-08-03T12:24:57Z</time>
      </trkpt>
      <trkpt lat="44.76466" lon="4.56225">
        <ele>581.55200195312</ele>
        <time>2009-08-03T12:25:04Z</time>
      </trkpt>
      <trkpt lat="44.76487" lon="4.56344">
        <ele>574.84301757812</ele>
        <time>2009-08-03T12:25:12Z</time>
      </trkpt>
      <trkpt lat="44.76495" lon="4.56404">
        <ele>572.34301757812</ele>
        <time>2009-08-03T12:25:16Z</time>
      </trkpt>
      <trkpt lat="44.7653" lon="4.56554">
        <ele>567.15002441406</ele>
        <time>2009-08-03T12:25:26Z</time>
      </trkpt>
      <trkpt lat="44.76532" lon="4.56567">
        <ele>566.51702880859</ele>
        <time>2009-08-03T12:25:27Z</time>
      </trkpt>
      <trkpt lat="44.76532" lon="4.56621">
        <ele>564.26098632812</ele>
        <time>2009-08-03T12:25:31Z</time>
      </trkpt>
      <trkpt lat="44.76532" lon="4.56632">
        <ele>564.17498779297</ele>
        <time>2009-08-03T12:25:32Z</time>
      </trkpt>
      <trkpt lat="44.76542" lon="4.56683">
        <ele>562.94799804688</ele>
        <time>2009-08-03T12:25:40Z</time>
      </trkpt>
      <trkpt lat="44.7654" lon="4.56713">
        <ele>563.25201416016</ele>
        <time>2009-08-03T12:25:44Z</time>
      </trkpt>
      <trkpt lat="44.76539" lon="4.56747">
        <ele>564.39099121094</ele>
        <time>2009-08-03T12:25:49Z</time>
      </trkpt>
      <trkpt lat="44.76539" lon="4.56762">
        <ele>564.59002685547</ele>
        <time>2009-08-03T12:25:51Z</time>
      </trkpt>
      <trkpt lat="44.76541" lon="4.56783">
        <ele>565.13702392578</ele>
        <time>2009-08-03T12:25:54Z</time>
      </trkpt>
      <trkpt lat="44.76538" lon="4.56819">
        <ele>565.45202636719</ele>
        <time>2009-08-03T12:25:59Z</time>
      </trkpt>
      <trkpt lat="44.76538" lon="4.5684">
        <ele>565.63299560547</ele>
        <time>2009-08-03T12:26:02Z</time>
      </trkpt>
      <trkpt lat="44.76535" lon="4.56861">
        <ele>566.06402587891</ele>
        <time>2009-08-03T12:26:05Z</time>
      </trkpt>
      <trkpt lat="44.76532" lon="4.56883">
        <ele>566.51397705078</ele>
        <time>2009-08-03T12:26:08Z</time>
      </trkpt>
      <trkpt lat="44.7653" lon="4.56891">
        <ele>566.49499511719</ele>
        <time>2009-08-03T12:26:09Z</time>
      </trkpt>
      <trkpt lat="44.76528" lon="4.56916">
        <ele>566.61199951172</ele>
        <time>2009-08-03T12:26:12Z</time>
      </trkpt>
      <trkpt lat="44.76525" lon="4.56933">
        <ele>566.88800048828</ele>
        <time>2009-08-03T12:26:14Z</time>
      </trkpt>
      <trkpt lat="44.76513" lon="4.56993">
        <ele>567.11102294922</ele>
        <time>2009-08-03T12:26:22Z</time>
      </trkpt>
      <trkpt lat="44.76492" lon="4.57048">
        <ele>568.10601806641</ele>
        <time>2009-08-03T12:26:29Z</time>
      </trkpt>
      <trkpt lat="44.76482" lon="4.57073">
        <ele>568.32598876953</ele>
        <time>2009-08-03T12:26:32Z</time>
      </trkpt>
      <trkpt lat="44.76459" lon="4.57184">
        <ele>571.47601318359</ele>
        <time>2009-08-03T12:26:46Z</time>
      </trkpt>
      <trkpt lat="44.76454" lon="4.57208">
        <ele>572.32397460938</ele>
        <time>2009-08-03T12:26:49Z</time>
      </trkpt>
      <trkpt lat="44.76441" lon="4.57258">
        <ele>573.95300292969</ele>
        <time>2009-08-03T12:26:55Z</time>
      </trkpt>
      <trkpt lat="44.76437" lon="4.57274">
        <ele>574.71997070312</ele>
        <time>2009-08-03T12:26:57Z</time>
      </trkpt>
      <trkpt lat="44.76434" lon="4.57327">
        <ele>576.31201171875</ele>
        <time>2009-08-03T12:27:04Z</time>
      </trkpt>
      <trkpt lat="44.7643" lon="4.57342">
        <ele>577.09301757812</ele>
        <time>2009-08-03T12:27:06Z</time>
      </trkpt>
      <trkpt lat="44.76426" lon="4.57354">
        <ele>577.5</ele>
        <time>2009-08-03T12:27:08Z</time>
      </trkpt>
      <trkpt lat="44.76373" lon="4.57422">
        <ele>580.55499267578</ele>
        <time>2009-08-03T12:27:22Z</time>
      </trkpt>
      <trkpt lat="44.76368" lon="4.57425">
        <ele>580.99401855469</ele>
        <time>2009-08-03T12:27:23Z</time>
      </trkpt>
      <trkpt lat="44.76289" lon="4.57437">
        <ele>584.04699707031</ele>
        <time>2009-08-03T12:27:39Z</time>
      </trkpt>
      <trkpt lat="44.76222" lon="4.57444">
        <ele>586.43499755859</ele>
        <time>2009-08-03T12:27:52Z</time>
      </trkpt>
      <trkpt lat="44.76186" lon="4.57447">
        <ele>586.40100097656</ele>
        <time>2009-08-03T12:27:59Z</time>
      </trkpt>
      <trkpt lat="44.76151" lon="4.57457">
        <ele>587.22900390625</ele>
        <time>2009-08-03T12:28:06Z</time>
      </trkpt>
      <trkpt lat="44.76123" lon="4.5745">
        <ele>588.72100830078</ele>
        <time>2009-08-03T12:28:11Z</time>
      </trkpt>
      <trkpt lat="44.76102" lon="4.57419">
        <ele>588.86999511719</ele>
        <time>2009-08-03T12:28:16Z</time>
      </trkpt>
      <trkpt lat="44.76093" lon="4.57395">
        <ele>589.22198486328</ele>
        <time>2009-08-03T12:28:19Z</time>
      </trkpt>
      <trkpt lat="44.76064" lon="4.5736">
        <ele>588.86901855469</ele>
        <time>2009-08-03T12:28:25Z</time>
      </trkpt>
      <trkpt lat="44.76038" lon="4.57351">
        <ele>588.96301269531</ele>
        <time>2009-08-03T12:28:29Z</time>
      </trkpt>
      <trkpt lat="44.76019" lon="4.57348">
        <ele>589.08502197266</ele>
        <time>2009-08-03T12:28:32Z</time>
      </trkpt>
      <trkpt lat="44.75971" lon="4.57376">
        <ele>589.10400390625</ele>
        <time>2009-08-03T12:28:40Z</time>
      </trkpt>
      <trkpt lat="44.75962" lon="4.57389">
        <ele>589.35498046875</ele>
        <time>2009-08-03T12:28:42Z</time>
      </trkpt>
      <trkpt lat="44.75943" lon="4.57411">
        <ele>589.33099365234</ele>
        <time>2009-08-03T12:28:46Z</time>
      </trkpt>
      <trkpt lat="44.75849" lon="4.57465">
        <ele>590.92297363281</ele>
        <time>2009-08-03T12:29:02Z</time>
      </trkpt>
      <trkpt lat="44.75844" lon="4.5747">
        <ele>591.23400878906</ele>
        <time>2009-08-03T12:29:03Z</time>
      </trkpt>
      <trkpt lat="44.7583" lon="4.57496">
        <ele>591.54699707031</ele>
        <time>2009-08-03T12:29:07Z</time>
      </trkpt>
      <trkpt lat="44.75826" lon="4.57526">
        <ele>592.85302734375</ele>
        <time>2009-08-03T12:29:17Z</time>
      </trkpt>
      <trkpt lat="44.7583" lon="4.57533">
        <ele>593.0830078125</ele>
        <time>2009-08-03T12:29:20Z</time>
      </trkpt>
      <trkpt lat="44.75854" lon="4.57613">
        <ele>594.73999023438</ele>
        <time>2009-08-03T12:29:32Z</time>
      </trkpt>
      <trkpt lat="44.75861" lon="4.57635">
        <ele>594.48199462891</ele>
        <time>2009-08-03T12:29:35Z</time>
      </trkpt>
      <trkpt lat="44.75867" lon="4.57655">
        <ele>594.91198730469</ele>
        <time>2009-08-03T12:29:38Z</time>
      </trkpt>
      <trkpt lat="44.7588" lon="4.57705">
        <ele>594.32000732422</ele>
        <time>2009-08-03T12:29:45Z</time>
      </trkpt>
      <trkpt lat="44.75884" lon="4.57738">
        <ele>593.59600830078</ele>
        <time>2009-08-03T12:29:49Z</time>
      </trkpt>
      <trkpt lat="44.75895" lon="4.57837">
        <ele>591.47998046875</ele>
        <time>2009-08-03T12:30:01Z</time>
      </trkpt>
      <trkpt lat="44.75898" lon="4.57869">
        <ele>591.34399414062</ele>
        <time>2009-08-03T12:30:05Z</time>
      </trkpt>
      <trkpt lat="44.75898" lon="4.57882">
        <ele>591.44000244141</ele>
        <time>2009-08-03T12:30:09Z</time>
      </trkpt>
      <trkpt lat="44.75904" lon="4.57892">
        <ele>590.87097167969</ele>
        <time>2009-08-03T12:30:46Z</time>
      </trkpt>
      <trkpt lat="44.75911" lon="4.57948">
        <ele>590.68499755859</ele>
        <time>2009-08-03T12:30:58Z</time>
      </trkpt>
      <trkpt lat="44.75933" lon="4.57958">
        <ele>589.98199462891</ele>
        <time>2009-08-03T12:31:05Z</time>
      </trkpt>
      <trkpt lat="44.75959" lon="4.57974">
        <ele>587.71301269531</ele>
        <time>2009-08-03T12:31:11Z</time>
      </trkpt>
      <trkpt lat="44.75966" lon="4.57986">
        <ele>587.28302001953</ele>
        <time>2009-08-03T12:31:13Z</time>
      </trkpt>
      <trkpt lat="44.75973" lon="4.58001">
        <ele>586.94000244141</ele>
        <time>2009-08-03T12:31:15Z</time>
      </trkpt>
      <trkpt lat="44.75993" lon="4.58038">
        <ele>584.77197265625</ele>
        <time>2009-08-03T12:31:20Z</time>
      </trkpt>
      <trkpt lat="44.76044" lon="4.58081">
        <ele>582.60198974609</ele>
        <time>2009-08-03T12:31:28Z</time>
      </trkpt>
      <trkpt lat="44.76101" lon="4.58144">
        <ele>577.03900146484</ele>
        <time>2009-08-03T12:31:36Z</time>
      </trkpt>
      <trkpt lat="44.76159" lon="4.58227">
        <ele>573.03997802734</ele>
        <time>2009-08-03T12:31:44Z</time>
      </trkpt>
      <trkpt lat="44.76233" lon="4.58306">
        <ele>567.76501464844</ele>
        <time>2009-08-03T12:31:53Z</time>
      </trkpt>
      <trkpt lat="44.76268" lon="4.58342">
        <ele>565.17102050781</ele>
        <time>2009-08-03T12:31:57Z</time>
      </trkpt>
      <trkpt lat="44.76333" lon="4.58431">
        <ele>560.61901855469</ele>
        <time>2009-08-03T12:32:05Z</time>
      </trkpt>
      <trkpt lat="44.76385" lon="4.58479">
        <ele>558.15802001953</ele>
        <time>2009-08-03T12:32:10Z</time>
      </trkpt>
      <trkpt lat="44.76446" lon="4.58527">
        <ele>553.80401611328</ele>
        <time>2009-08-03T12:32:16Z</time>
      </trkpt>
      <trkpt lat="44.76458" lon="4.58526">
        <ele>552.92498779297</ele>
        <time>2009-08-03T12:32:17Z</time>
      </trkpt>
      <trkpt lat="44.7652" lon="4.58532">
        <ele>549.34497070312</ele>
        <time>2009-08-03T12:32:22Z</time>
      </trkpt>
      <trkpt lat="44.76592" lon="4.58504">
        <ele>543.8740234375</ele>
        <time>2009-08-03T12:32:28Z</time>
      </trkpt>
      <trkpt lat="44.76649" lon="4.58535">
        <ele>540.1669921875</ele>
        <time>2009-08-03T12:32:33Z</time>
      </trkpt>
      <trkpt lat="44.76667" lon="4.58557">
        <ele>539.11102294922</ele>
        <time>2009-08-03T12:32:35Z</time>
      </trkpt>
      <trkpt lat="44.76697" lon="4.58647">
        <ele>535.74700927734</ele>
        <time>2009-08-03T12:32:41Z</time>
      </trkpt>
      <trkpt lat="44.7672" lon="4.58691">
        <ele>532.69702148438</ele>
        <time>2009-08-03T12:32:45Z</time>
      </trkpt>
      <trkpt lat="44.7673" lon="4.58701">
        <ele>532.08599853516</ele>
        <time>2009-08-03T12:32:46Z</time>
      </trkpt>
      <trkpt lat="44.76739" lon="4.58712">
        <ele>531.36602783203</ele>
        <time>2009-08-03T12:32:47Z</time>
      </trkpt>
      <trkpt lat="44.76743" lon="4.58785">
        <ele>527.34197998047</ele>
        <time>2009-08-03T12:32:52Z</time>
      </trkpt>
      <trkpt lat="44.76736" lon="4.58796">
        <ele>526.84002685547</ele>
        <time>2009-08-03T12:32:53Z</time>
      </trkpt>
      <trkpt lat="44.76719" lon="4.58842">
        <ele>524.875</ele>
        <time>2009-08-03T12:32:56Z</time>
      </trkpt>
      <trkpt lat="44.76732" lon="4.58908">
        <ele>522.77398681641</ele>
        <time>2009-08-03T12:33:00Z</time>
      </trkpt>
      <trkpt lat="44.76742" lon="4.58939">
        <ele>521.76599121094</ele>
        <time>2009-08-03T12:33:02Z</time>
      </trkpt>
      <trkpt lat="44.76777" lon="4.58973">
        <ele>517.72601318359</ele>
        <time>2009-08-03T12:33:06Z</time>
      </trkpt>
      <trkpt lat="44.76802" lon="4.58977">
        <ele>515.86401367188</ele>
        <time>2009-08-03T12:33:08Z</time>
      </trkpt>
      <trkpt lat="44.76874" lon="4.59037">
        <ele>511.95999145508</ele>
        <time>2009-08-03T12:33:15Z</time>
      </trkpt>
      <trkpt lat="44.7688" lon="4.59052">
        <ele>511.65600585938</ele>
        <time>2009-08-03T12:33:16Z</time>
      </trkpt>
      <trkpt lat="44.76954" lon="4.59165">
        <ele>503.68701171875</ele>
        <time>2009-08-03T12:33:25Z</time>
      </trkpt>
      <trkpt lat="44.76952" lon="4.59237">
        <ele>501.22399902344</ele>
        <time>2009-08-03T12:33:30Z</time>
      </trkpt>
      <trkpt lat="44.76933" lon="4.59259">
        <ele>500.15600585938</ele>
        <time>2009-08-03T12:33:32Z</time>
      </trkpt>
      <trkpt lat="44.7693" lon="4.59327">
        <ele>496.11700439453</ele>
        <time>2009-08-03T12:33:36Z</time>
      </trkpt>
      <trkpt lat="44.7696" lon="4.59348">
        <ele>493.39300537109</ele>
        <time>2009-08-03T12:33:39Z</time>
      </trkpt>
      <trkpt lat="44.76986" lon="4.59344">
        <ele>491.3869934082</ele>
        <time>2009-08-03T12:33:41Z</time>
      </trkpt>
      <trkpt lat="44.7705" lon="4.59327">
        <ele>486.60101318359</ele>
        <time>2009-08-03T12:33:46Z</time>
      </trkpt>
      <trkpt lat="44.77097" lon="4.59357">
        <ele>483</ele>
        <time>2009-08-03T12:33:50Z</time>
      </trkpt>
      <trkpt lat="44.77108" lon="4.59421">
        <ele>480.02600097656</ele>
        <time>2009-08-03T12:33:54Z</time>
      </trkpt>
      <trkpt lat="44.77095" lon="4.59468">
        <ele>478.43301391602</ele>
        <time>2009-08-03T12:33:57Z</time>
      </trkpt>
      <trkpt lat="44.77086" lon="4.59582">
        <ele>473.96301269531</ele>
        <time>2009-08-03T12:34:04Z</time>
      </trkpt>
      <trkpt lat="44.77093" lon="4.59646">
        <ele>470.7200012207</ele>
        <time>2009-08-03T12:34:08Z</time>
      </trkpt>
      <trkpt lat="44.77115" lon="4.59811">
        <ele>465.79299926758</ele>
        <time>2009-08-03T12:34:18Z</time>
      </trkpt>
      <trkpt lat="44.77124" lon="4.59896">
        <ele>461.02899169922</ele>
        <time>2009-08-03T12:34:23Z</time>
      </trkpt>
      <trkpt lat="44.77132" lon="4.59962">
        <ele>457.90798950195</ele>
        <time>2009-08-03T12:34:27Z</time>
      </trkpt>
      <trkpt lat="44.7716" lon="4.60164">
        <ele>450.51901245117</ele>
        <time>2009-08-03T12:34:41Z</time>
      </trkpt>
      <trkpt lat="44.77196" lon="4.60273">
        <ele>445.9700012207</ele>
        <time>2009-08-03T12:34:50Z</time>
      </trkpt>
      <trkpt lat="44.77214" lon="4.6032">
        <ele>444.0530090332</ele>
        <time>2009-08-03T12:34:54Z</time>
      </trkpt>
      <trkpt lat="44.77283" lon="4.60518">
        <ele>436.72100830078</ele>
        <time>2009-08-03T12:35:10Z</time>
      </trkpt>
      <trkpt lat="44.77307" lon="4.60587">
        <ele>435.06100463867</ele>
        <time>2009-08-03T12:35:16Z</time>
      </trkpt>
      <trkpt lat="44.77348" lon="4.60705">
        <ele>432.45700073242</ele>
        <time>2009-08-03T12:35:27Z</time>
      </trkpt>
      <trkpt lat="44.77382" lon="4.60757">
        <ele>431.75799560547</ele>
        <time>2009-08-03T12:35:33Z</time>
      </trkpt>
      <trkpt lat="44.77449" lon="4.60832">
        <ele>431.7080078125</ele>
        <time>2009-08-03T12:35:43Z</time>
      </trkpt>
      <trkpt lat="44.775" lon="4.60891">
        <ele>431.68200683594</ele>
        <time>2009-08-03T12:35:51Z</time>
      </trkpt>
      <trkpt lat="44.77519" lon="4.60913">
        <ele>427.51901245117</ele>
        <time>2009-08-03T12:35:54Z</time>
      </trkpt>
      <trkpt lat="44.77551" lon="4.6095">
        <ele>426.80099487305</ele>
        <time>2009-08-03T12:35:59Z</time>
      </trkpt>
      <trkpt lat="44.77657" lon="4.61072">
        <ele>424.39898681641</ele>
        <time>2009-08-03T12:36:15Z</time>
      </trkpt>
      <trkpt lat="44.77768" lon="4.61193">
        <ele>423.12100219727</ele>
        <time>2009-08-03T12:36:32Z</time>
      </trkpt>
      <trkpt lat="44.77825" lon="4.61266">
        <ele>424.40701293945</ele>
        <time>2009-08-03T12:36:43Z</time>
      </trkpt>
      <trkpt lat="44.7789" lon="4.61327">
        <ele>426.30999755859</ele>
        <time>2009-08-03T12:36:55Z</time>
      </trkpt>
      <trkpt lat="44.77901" lon="4.6137">
        <ele>425.17098999023</ele>
        <time>2009-08-03T12:37:00Z</time>
      </trkpt>
      <trkpt lat="44.77929" lon="4.61442">
        <ele>424.77099609375</ele>
        <time>2009-08-03T12:37:08Z</time>
      </trkpt>
      <trkpt lat="44.78019" lon="4.61535">
        <ele>424.89700317383</ele>
        <time>2009-08-03T12:37:22Z</time>
      </trkpt>
      <trkpt lat="44.78101" lon="4.61658">
        <ele>425.57998657227</ele>
        <time>2009-08-03T12:37:37Z</time>
      </trkpt>
      <trkpt lat="44.78175" lon="4.61769">
        <ele>427.36401367188</ele>
        <time>2009-08-03T12:37:52Z</time>
      </trkpt>
      <trkpt lat="44.78216" lon="4.61838">
        <ele>427.91598510742</ele>
        <time>2009-08-03T12:38:01Z</time>
      </trkpt>
      <trkpt lat="44.78236" lon="4.61899">
        <ele>428.45001220703</ele>
        <time>2009-08-03T12:38:08Z</time>
      </trkpt>
      <trkpt lat="44.7824" lon="4.61922">
        <ele>428.56298828125</ele>
        <time>2009-08-03T12:38:11Z</time>
      </trkpt>
      <trkpt lat="44.78263" lon="4.61979">
        <ele>425.55499267578</ele>
        <time>2009-08-03T12:38:18Z</time>
      </trkpt>
      <trkpt lat="44.78293" lon="4.62034">
        <ele>421.5710144043</ele>
        <time>2009-08-03T12:38:24Z</time>
      </trkpt>
      <trkpt lat="44.78323" lon="4.62081">
        <ele>418.3039855957</ele>
        <time>2009-08-03T12:38:29Z</time>
      </trkpt>
      <trkpt lat="44.78329" lon="4.6209">
        <ele>418.27398681641</ele>
        <time>2009-08-03T12:38:30Z</time>
      </trkpt>
      <trkpt lat="44.78352" lon="4.62115">
        <ele>416.94000244141</ele>
        <time>2009-08-03T12:38:33Z</time>
      </trkpt>
      <trkpt lat="44.78369" lon="4.62131">
        <ele>415.20199584961</ele>
        <time>2009-08-03T12:38:35Z</time>
      </trkpt>
      <trkpt lat="44.7841" lon="4.62133">
        <ele>413.51998901367</ele>
        <time>2009-08-03T12:38:39Z</time>
      </trkpt>
      <trkpt lat="44.78465" lon="4.62111">
        <ele>409.3869934082</ele>
        <time>2009-08-03T12:38:44Z</time>
      </trkpt>
      <trkpt lat="44.78518" lon="4.62115">
        <ele>403.89099121094</ele>
        <time>2009-08-03T12:38:49Z</time>
      </trkpt>
      <trkpt lat="44.78538" lon="4.62124">
        <ele>402.54598999023</ele>
        <time>2009-08-03T12:38:51Z</time>
      </trkpt>
      <trkpt lat="44.78551" lon="4.62173">
        <ele>400.80999755859</ele>
        <time>2009-08-03T12:38:56Z</time>
      </trkpt>
      <trkpt lat="44.78553" lon="4.62217">
        <ele>398.92498779297</ele>
        <time>2009-08-03T12:39:00Z</time>
      </trkpt>
      <trkpt lat="44.78584" lon="4.62263">
        <ele>397.96301269531</ele>
        <time>2009-08-03T12:39:06Z</time>
      </trkpt>
      <trkpt lat="44.78601" lon="4.62314">
        <ele>399.13500976562</ele>
        <time>2009-08-03T12:39:12Z</time>
      </trkpt>
      <trkpt lat="44.78607" lon="4.62331">
        <ele>399.04800415039</ele>
        <time>2009-08-03T12:39:14Z</time>
      </trkpt>
      <trkpt lat="44.78626" lon="4.62438">
        <ele>399.58599853516</ele>
        <time>2009-08-03T12:39:26Z</time>
      </trkpt>
      <trkpt lat="44.78635" lon="4.62494">
        <ele>399.9460144043</ele>
        <time>2009-08-03T12:39:32Z</time>
      </trkpt>
      <trkpt lat="44.78661" lon="4.62639">
        <ele>401.60400390625</ele>
        <time>2009-08-03T12:39:48Z</time>
      </trkpt>
      <trkpt lat="44.78664" lon="4.62655">
        <ele>402.49099731445</ele>
        <time>2009-08-03T12:39:50Z</time>
      </trkpt>
      <trkpt lat="44.78669" lon="4.62735">
        <ele>405.91299438477</ele>
        <time>2009-08-03T12:40:01Z</time>
      </trkpt>
      <trkpt lat="44.78668" lon="4.6276">
        <ele>407.65600585938</ele>
        <time>2009-08-03T12:40:05Z</time>
      </trkpt>
      <trkpt lat="44.78662" lon="4.62784">
        <ele>408.98599243164</ele>
        <time>2009-08-03T12:40:09Z</time>
      </trkpt>
      <trkpt lat="44.78649" lon="4.62816">
        <ele>410.95199584961</ele>
        <time>2009-08-03T12:40:15Z</time>
      </trkpt>
      <trkpt lat="44.78637" lon="4.62835">
        <ele>412.2799987793</ele>
        <time>2009-08-03T12:40:19Z</time>
      </trkpt>
      <trkpt lat="44.78645" lon="4.62865">
        <ele>413.84799194336</ele>
        <time>2009-08-03T12:40:26Z</time>
      </trkpt>
      <trkpt lat="44.7865" lon="4.62865">
        <ele>414.04098510742</ele>
        <time>2009-08-03T12:40:27Z</time>
      </trkpt>
      <trkpt lat="44.78706" lon="4.62886">
        <ele>417.31100463867</ele>
        <time>2009-08-03T12:40:42Z</time>
      </trkpt>
      <trkpt lat="44.78724" lon="4.62949">
        <ele>420.78601074219</ele>
        <time>2009-08-03T12:40:55Z</time>
      </trkpt>
      <trkpt lat="44.78746" lon="4.63012">
        <ele>423.62799072266</ele>
        <time>2009-08-03T12:41:09Z</time>
      </trkpt>
      <trkpt lat="44.78761" lon="4.6309">
        <ele>426.01000976562</ele>
        <time>2009-08-03T12:41:26Z</time>
      </trkpt>
      <trkpt lat="44.78756" lon="4.63124">
        <ele>427.99099731445</ele>
        <time>2009-08-03T12:41:34Z</time>
      </trkpt>
      <trkpt lat="44.78748" lon="4.63151">
        <ele>429.25299072266</ele>
        <time>2009-08-03T12:41:40Z</time>
      </trkpt>
      <trkpt lat="44.78728" lon="4.63181">
        <ele>430.25299072266</ele>
        <time>2009-08-03T12:41:48Z</time>
      </trkpt>
      <trkpt lat="44.78719" lon="4.63192">
        <ele>429.86401367188</ele>
        <time>2009-08-03T12:41:51Z</time>
      </trkpt>
      <trkpt lat="44.78708" lon="4.63207">
        <ele>431.76000976562</ele>
        <time>2009-08-03T12:41:55Z</time>
      </trkpt>
      <trkpt lat="44.78693" lon="4.63228">
        <ele>433.10299682617</ele>
        <time>2009-08-03T12:42:00Z</time>
      </trkpt>
      <trkpt lat="44.78685" lon="4.63242">
        <ele>433.14801025391</ele>
        <time>2009-08-03T12:42:03Z</time>
      </trkpt>
      <trkpt lat="44.78694" lon="4.63271">
        <ele>434.00799560547</ele>
        <time>2009-08-03T12:42:09Z</time>
      </trkpt>
      <trkpt lat="44.78742" lon="4.63309">
        <ele>436.25799560547</ele>
        <time>2009-08-03T12:42:21Z</time>
      </trkpt>
      <trkpt lat="44.7875" lon="4.6333">
        <ele>437.61801147461</ele>
        <time>2009-08-03T12:42:25Z</time>
      </trkpt>
      <trkpt lat="44.78753" lon="4.63342">
        <ele>437.3450012207</ele>
        <time>2009-08-03T12:42:27Z</time>
      </trkpt>
      <trkpt lat="44.78754" lon="4.63354">
        <ele>437.60598754883</ele>
        <time>2009-08-03T12:42:29Z</time>
      </trkpt>
      <trkpt lat="44.78752" lon="4.63375">
        <ele>439.02200317383</ele>
        <time>2009-08-03T12:42:33Z</time>
      </trkpt>
      <trkpt lat="44.78732" lon="4.63443">
        <ele>441.73699951172</ele>
        <time>2009-08-03T12:42:47Z</time>
      </trkpt>
      <trkpt lat="44.78711" lon="4.63523">
        <ele>446.40200805664</ele>
        <time>2009-08-03T12:43:04Z</time>
      </trkpt>
      <trkpt lat="44.78703" lon="4.63548">
        <ele>447.65301513672</ele>
        <time>2009-08-03T12:43:10Z</time>
      </trkpt>
      <trkpt lat="44.78697" lon="4.63563">
        <ele>448.67401123047</ele>
        <time>2009-08-03T12:43:13Z</time>
      </trkpt>
      <trkpt lat="44.78691" lon="4.63578">
        <ele>448.82400512695</ele>
        <time>2009-08-03T12:43:16Z</time>
      </trkpt>
      <trkpt lat="44.78675" lon="4.63598">
        <ele>450.02801513672</ele>
        <time>2009-08-03T12:43:21Z</time>
      </trkpt>
      <trkpt lat="44.78618" lon="4.63627">
        <ele>453.6369934082</ele>
        <time>2009-08-03T12:43:37Z</time>
      </trkpt>
      <trkpt lat="44.78579" lon="4.63643">
        <ele>455.79699707031</ele>
        <time>2009-08-03T12:43:48Z</time>
      </trkpt>
      <trkpt lat="44.78553" lon="4.63666">
        <ele>457.4700012207</ele>
        <time>2009-08-03T12:43:57Z</time>
      </trkpt>
      <trkpt lat="44.78558" lon="4.63684">
        <ele>458.59298706055</ele>
        <time>2009-08-03T12:44:01Z</time>
      </trkpt>
      <trkpt lat="44.78601" lon="4.63722">
        <ele>460.9469909668</ele>
        <time>2009-08-03T12:44:14Z</time>
      </trkpt>
      <trkpt lat="44.78605" lon="4.63726">
        <ele>461.05999755859</ele>
        <time>2009-08-03T12:44:15Z</time>
      </trkpt>
      <trkpt lat="44.78615" lon="4.63761">
        <ele>462.8039855957</ele>
        <time>2009-08-03T12:44:22Z</time>
      </trkpt>
      <trkpt lat="44.78614" lon="4.63772">
        <ele>463.14999389648</ele>
        <time>2009-08-03T12:44:24Z</time>
      </trkpt>
      <trkpt lat="44.78606" lon="4.63805">
        <ele>464.34600830078</ele>
        <time>2009-08-03T12:44:30Z</time>
      </trkpt>
      <trkpt lat="44.78623" lon="4.63837">
        <ele>466.14001464844</ele>
        <time>2009-08-03T12:44:38Z</time>
      </trkpt>
      <trkpt lat="44.78627" lon="4.63837">
        <ele>466.3039855957</ele>
        <time>2009-08-03T12:44:39Z</time>
      </trkpt>
      <trkpt lat="44.7864" lon="4.63839">
        <ele>466.18600463867</ele>
        <time>2009-08-03T12:44:42Z</time>
      </trkpt>
      <trkpt lat="44.78716" lon="4.63813">
        <ele>467.93701171875</ele>
        <time>2009-08-03T12:44:58Z</time>
      </trkpt>
      <trkpt lat="44.78751" lon="4.63815">
        <ele>470.52200317383</ele>
        <time>2009-08-03T12:45:07Z</time>
      </trkpt>
      <trkpt lat="44.78761" lon="4.6385">
        <ele>470.95700073242</ele>
        <time>2009-08-03T12:45:13Z</time>
      </trkpt>
      <trkpt lat="44.7876" lon="4.63869">
        <ele>471.74200439453</ele>
        <time>2009-08-03T12:45:16Z</time>
      </trkpt>
      <trkpt lat="44.78756" lon="4.63885">
        <ele>472.26098632812</ele>
        <time>2009-08-03T12:45:19Z</time>
      </trkpt>
      <trkpt lat="44.78754" lon="4.63907">
        <ele>473.42001342773</ele>
        <time>2009-08-03T12:45:23Z</time>
      </trkpt>
      <trkpt lat="44.78754" lon="4.63959">
        <ele>475.83999633789</ele>
        <time>2009-08-03T12:45:33Z</time>
      </trkpt>
      <trkpt lat="44.78754" lon="4.6398">
        <ele>476.58700561523</ele>
        <time>2009-08-03T12:45:37Z</time>
      </trkpt>
      <trkpt lat="44.78752" lon="4.64002">
        <ele>477.27099609375</ele>
        <time>2009-08-03T12:45:41Z</time>
      </trkpt>
      <trkpt lat="44.78757" lon="4.64031">
        <ele>478.55499267578</ele>
        <time>2009-08-03T12:45:46Z</time>
      </trkpt>
      <trkpt lat="44.78765" lon="4.6405">
        <ele>479.1780090332</ele>
        <time>2009-08-03T12:45:50Z</time>
      </trkpt>
      <trkpt lat="44.78777" lon="4.64065">
        <ele>480.66400146484</ele>
        <time>2009-08-03T12:45:54Z</time>
      </trkpt>
      <trkpt lat="44.78819" lon="4.6408">
        <ele>483.42401123047</ele>
        <time>2009-08-03T12:46:05Z</time>
      </trkpt>
      <trkpt lat="44.78849" lon="4.64089">
        <ele>485.19500732422</ele>
        <time>2009-08-03T12:46:13Z</time>
      </trkpt>
      <trkpt lat="44.78859" lon="4.641">
        <ele>485.6669921875</ele>
        <time>2009-08-03T12:46:16Z</time>
      </trkpt>
      <trkpt lat="44.78862" lon="4.64133">
        <ele>487.48300170898</ele>
        <time>2009-08-03T12:46:22Z</time>
      </trkpt>
      <trkpt lat="44.78852" lon="4.6417">
        <ele>488.64199829102</ele>
        <time>2009-08-03T12:46:29Z</time>
      </trkpt>
      <trkpt lat="44.78831" lon="4.64206">
        <ele>490.7200012207</ele>
        <time>2009-08-03T12:46:37Z</time>
      </trkpt>
      <trkpt lat="44.78822" lon="4.64216">
        <ele>491.15600585938</ele>
        <time>2009-08-03T12:46:40Z</time>
      </trkpt>
      <trkpt lat="44.78797" lon="4.64228">
        <ele>493.1369934082</ele>
        <time>2009-08-03T12:46:47Z</time>
      </trkpt>
      <trkpt lat="44.78786" lon="4.64242">
        <ele>493.59201049805</ele>
        <time>2009-08-03T12:46:51Z</time>
      </trkpt>
      <trkpt lat="44.78771" lon="4.64298">
        <ele>495.48999023438</ele>
        <time>2009-08-03T12:47:02Z</time>
      </trkpt>
      <trkpt lat="44.78773" lon="4.64326">
        <ele>496.82699584961</ele>
        <time>2009-08-03T12:47:07Z</time>
      </trkpt>
      <trkpt lat="44.78775" lon="4.64398">
        <ele>499.56399536133</ele>
        <time>2009-08-03T12:47:21Z</time>
      </trkpt>
      <trkpt lat="44.78765" lon="4.64416">
        <ele>500.08099365234</ele>
        <time>2009-08-03T12:47:25Z</time>
      </trkpt>
      <trkpt lat="44.78753" lon="4.64433">
        <ele>500.29400634766</ele>
        <time>2009-08-03T12:47:29Z</time>
      </trkpt>
      <trkpt lat="44.78744" lon="4.64449">
        <ele>501.13198852539</ele>
        <time>2009-08-03T12:47:32Z</time>
      </trkpt>
      <trkpt lat="44.78744" lon="4.64466">
        <ele>501.19799804688</ele>
        <time>2009-08-03T12:47:35Z</time>
      </trkpt>
      <trkpt lat="44.78749" lon="4.64469">
        <ele>501.55700683594</ele>
        <time>2009-08-03T12:47:36Z</time>
      </trkpt>
      <trkpt lat="44.78755" lon="4.6447">
        <ele>501.92498779297</ele>
        <time>2009-08-03T12:47:37Z</time>
      </trkpt>
      <trkpt lat="44.78778" lon="4.64471">
        <ele>502.75201416016</ele>
        <time>2009-08-03T12:47:41Z</time>
      </trkpt>
      <trkpt lat="44.78823" lon="4.64492">
        <ele>504.69198608398</ele>
        <time>2009-08-03T12:47:50Z</time>
      </trkpt>
      <trkpt lat="44.78843" lon="4.64495">
        <ele>505.38800048828</ele>
        <time>2009-08-03T12:47:54Z</time>
      </trkpt>
      <trkpt lat="44.78857" lon="4.64489">
        <ele>505.83801269531</ele>
        <time>2009-08-03T12:47:57Z</time>
      </trkpt>
      <trkpt lat="44.78886" lon="4.64493">
        <ele>506.73999023438</ele>
        <time>2009-08-03T12:48:03Z</time>
      </trkpt>
      <trkpt lat="44.78899" lon="4.64501">
        <ele>507.98199462891</ele>
        <time>2009-08-03T12:48:06Z</time>
      </trkpt>
      <trkpt lat="44.78969" lon="4.64504">
        <ele>509.83099365234</ele>
        <time>2009-08-03T12:48:21Z</time>
      </trkpt>
      <trkpt lat="44.78991" lon="4.6451">
        <ele>510.74099731445</ele>
        <time>2009-08-03T12:48:26Z</time>
      </trkpt>
      <trkpt lat="44.79054" lon="4.64564">
        <ele>513.29901123047</ele>
        <time>2009-08-03T12:48:41Z</time>
      </trkpt>
      <trkpt lat="44.79067" lon="4.64592">
        <ele>514.09997558594</ele>
        <time>2009-08-03T12:48:46Z</time>
      </trkpt>
      <trkpt lat="44.79057" lon="4.64618">
        <ele>514.91198730469</ele>
        <time>2009-08-03T12:48:51Z</time>
      </trkpt>
      <trkpt lat="44.7903" lon="4.64641">
        <ele>515.2080078125</ele>
        <time>2009-08-03T12:48:57Z</time>
      </trkpt>
      <trkpt lat="44.79016" lon="4.64664">
        <ele>515.00701904297</ele>
        <time>2009-08-03T12:49:01Z</time>
      </trkpt>
      <trkpt lat="44.78979" lon="4.64757">
        <ele>514.94897460938</ele>
        <time>2009-08-03T12:49:13Z</time>
      </trkpt>
      <trkpt lat="44.78956" lon="4.64795">
        <ele>515.72198486328</ele>
        <time>2009-08-03T12:49:18Z</time>
      </trkpt>
      <trkpt lat="44.78961" lon="4.6483">
        <ele>515.80297851562</ele>
        <time>2009-08-03T12:49:22Z</time>
      </trkpt>
      <trkpt lat="44.78998" lon="4.64867">
        <ele>515.91302490234</ele>
        <time>2009-08-03T12:49:28Z</time>
      </trkpt>
      <trkpt lat="44.79001" lon="4.64913">
        <ele>515.56402587891</ele>
        <time>2009-08-03T12:49:34Z</time>
      </trkpt>
      <trkpt lat="44.78996" lon="4.64918">
        <ele>515.28002929688</ele>
        <time>2009-08-03T12:49:35Z</time>
      </trkpt>
      <trkpt lat="44.78905" lon="4.64995">
        <ele>516.64099121094</ele>
        <time>2009-08-03T12:49:50Z</time>
      </trkpt>
      <trkpt lat="44.78857" lon="4.65039">
        <ele>518.53002929688</ele>
        <time>2009-08-03T12:49:59Z</time>
      </trkpt>
      <trkpt lat="44.78838" lon="4.65055">
        <ele>519.833984375</ele>
        <time>2009-08-03T12:50:03Z</time>
      </trkpt>
      <trkpt lat="44.78828" lon="4.65066">
        <ele>520.25201416016</ele>
        <time>2009-08-03T12:50:05Z</time>
      </trkpt>
      <trkpt lat="44.7882" lon="4.65075">
        <ele>520.53900146484</ele>
        <time>2009-08-03T12:50:07Z</time>
      </trkpt>
      <trkpt lat="44.78819" lon="4.65085">
        <ele>521.07501220703</ele>
        <time>2009-08-03T12:50:09Z</time>
      </trkpt>
      <trkpt lat="44.78866" lon="4.65096">
        <ele>522.11102294922</ele>
        <time>2009-08-03T12:50:15Z</time>
      </trkpt>
      <trkpt lat="44.78985" lon="4.65132">
        <ele>522.60797119141</ele>
        <time>2009-08-03T12:50:32Z</time>
      </trkpt>
      <trkpt lat="44.79031" lon="4.65162">
        <ele>524.16998291016</ele>
        <time>2009-08-03T12:50:40Z</time>
      </trkpt>
      <trkpt lat="44.7903" lon="4.65201">
        <ele>524.54699707031</ele>
        <time>2009-08-03T12:50:46Z</time>
      </trkpt>
      <trkpt lat="44.79025" lon="4.65206">
        <ele>524.79901123047</ele>
        <time>2009-08-03T12:50:47Z</time>
      </trkpt>
      <trkpt lat="44.78951" lon="4.65295">
        <ele>525.21697998047</ele>
        <time>2009-08-03T12:51:02Z</time>
      </trkpt>
      <trkpt lat="44.78884" lon="4.65403">
        <ele>526.32000732422</ele>
        <time>2009-08-03T12:51:16Z</time>
      </trkpt>
      <trkpt lat="44.78876" lon="4.65419">
        <ele>526.625</ele>
        <time>2009-08-03T12:51:18Z</time>
      </trkpt>
      <trkpt lat="44.78861" lon="4.6544">
        <ele>527.22302246094</ele>
        <time>2009-08-03T12:51:21Z</time>
      </trkpt>
      <trkpt lat="44.78846" lon="4.65468">
        <ele>527.98498535156</ele>
        <time>2009-08-03T12:51:25Z</time>
      </trkpt>
      <trkpt lat="44.78831" lon="4.65516">
        <ele>529.98602294922</ele>
        <time>2009-08-03T12:51:32Z</time>
      </trkpt>
      <trkpt lat="44.78832" lon="4.65538">
        <ele>531.40698242188</ele>
        <time>2009-08-03T12:51:35Z</time>
      </trkpt>
      <trkpt lat="44.78832" lon="4.65546">
        <ele>531.50201416016</ele>
        <time>2009-08-03T12:51:36Z</time>
      </trkpt>
      <trkpt lat="44.78831" lon="4.65554">
        <ele>531.57702636719</ele>
        <time>2009-08-03T12:51:37Z</time>
      </trkpt>
      <trkpt lat="44.78826" lon="4.65577">
        <ele>531.36499023438</ele>
        <time>2009-08-03T12:51:40Z</time>
      </trkpt>
      <trkpt lat="44.78844" lon="4.65596">
        <ele>530.95202636719</ele>
        <time>2009-08-03T12:51:46Z</time>
      </trkpt>
      <trkpt lat="44.78861" lon="4.65581">
        <ele>530.47698974609</ele>
        <time>2009-08-03T12:51:49Z</time>
      </trkpt>
      <trkpt lat="44.78944" lon="4.65541">
        <ele>532.65899658203</ele>
        <time>2009-08-03T12:52:02Z</time>
      </trkpt>
      <trkpt lat="44.79038" lon="4.65493">
        <ele>532.29998779297</ele>
        <time>2009-08-03T12:52:16Z</time>
      </trkpt>
      <trkpt lat="44.79129" lon="4.65475">
        <ele>533.80401611328</ele>
        <time>2009-08-03T12:52:30Z</time>
      </trkpt>
      <trkpt lat="44.79171" lon="4.65468">
        <ele>534.63098144531</ele>
        <time>2009-08-03T12:52:36Z</time>
      </trkpt>
      <trkpt lat="44.79197" lon="4.6548">
        <ele>535.05200195312</ele>
        <time>2009-08-03T12:52:40Z</time>
      </trkpt>
      <trkpt lat="44.79251" lon="4.65501">
        <ele>535.98797607422</ele>
        <time>2009-08-03T12:52:49Z</time>
      </trkpt>
      <trkpt lat="44.79262" lon="4.65505">
        <ele>536.0009765625</ele>
        <time>2009-08-03T12:52:51Z</time>
      </trkpt>
      <trkpt lat="44.79273" lon="4.65543">
        <ele>536.56097412109</ele>
        <time>2009-08-03T12:52:57Z</time>
      </trkpt>
      <trkpt lat="44.79262" lon="4.65606">
        <ele>536.03900146484</ele>
        <time>2009-08-03T12:53:04Z</time>
      </trkpt>
      <trkpt lat="44.79255" lon="4.65656">
        <ele>536.85900878906</ele>
        <time>2009-08-03T12:53:09Z</time>
      </trkpt>
      <trkpt lat="44.79277" lon="4.65722">
        <ele>535.54797363281</ele>
        <time>2009-08-03T12:53:16Z</time>
      </trkpt>
      <trkpt lat="44.79284" lon="4.65727">
        <ele>535.34197998047</ele>
        <time>2009-08-03T12:53:17Z</time>
      </trkpt>
      <trkpt lat="44.7935" lon="4.65751">
        <ele>534.14599609375</ele>
        <time>2009-08-03T12:53:26Z</time>
      </trkpt>
      <trkpt lat="44.7937" lon="4.65805">
        <ele>534.72399902344</ele>
        <time>2009-08-03T12:53:33Z</time>
      </trkpt>
      <trkpt lat="44.79369" lon="4.65815">
        <ele>534.39001464844</ele>
        <time>2009-08-03T12:53:34Z</time>
      </trkpt>
      <trkpt lat="44.79343" lon="4.65901">
        <ele>534.90197753906</ele>
        <time>2009-08-03T12:53:43Z</time>
      </trkpt>
      <trkpt lat="44.7931" lon="4.65961">
        <ele>534.88201904297</ele>
        <time>2009-08-03T12:53:50Z</time>
      </trkpt>
      <trkpt lat="44.79304" lon="4.65968">
        <ele>534.88299560547</ele>
        <time>2009-08-03T12:53:51Z</time>
      </trkpt>
      <trkpt lat="44.79317" lon="4.65999">
        <ele>535.11199951172</ele>
        <time>2009-08-03T12:53:56Z</time>
      </trkpt>
      <trkpt lat="44.79338" lon="4.65995">
        <ele>535.19598388672</ele>
        <time>2009-08-03T12:53:59Z</time>
      </trkpt>
      <trkpt lat="44.7936" lon="4.65993">
        <ele>535.73999023438</ele>
        <time>2009-08-03T12:54:02Z</time>
      </trkpt>
      <trkpt lat="44.79382" lon="4.65997">
        <ele>535.57800292969</ele>
        <time>2009-08-03T12:54:05Z</time>
      </trkpt>
      <trkpt lat="44.79411" lon="4.65994">
        <ele>535.27600097656</ele>
        <time>2009-08-03T12:54:09Z</time>
      </trkpt>
      <trkpt lat="44.79466" lon="4.66016">
        <ele>534.916015625</ele>
        <time>2009-08-03T12:54:18Z</time>
      </trkpt>
      <trkpt lat="44.79464" lon="4.66041">
        <ele>534.47497558594</ele>
        <time>2009-08-03T12:54:21Z</time>
      </trkpt>
      <trkpt lat="44.79456" lon="4.66067">
        <ele>534.34802246094</ele>
        <time>2009-08-03T12:54:24Z</time>
      </trkpt>
      <trkpt lat="44.79445" lon="4.66091">
        <ele>535.02099609375</ele>
        <time>2009-08-03T12:54:27Z</time>
      </trkpt>
      <trkpt lat="44.79433" lon="4.66123">
        <ele>535.72399902344</ele>
        <time>2009-08-03T12:54:31Z</time>
      </trkpt>
      <trkpt lat="44.79423" lon="4.66147">
        <ele>535.23400878906</ele>
        <time>2009-08-03T12:54:34Z</time>
      </trkpt>
      <trkpt lat="44.79417" lon="4.66164">
        <ele>535.65002441406</ele>
        <time>2009-08-03T12:54:36Z</time>
      </trkpt>
      <trkpt lat="44.79419" lon="4.66218">
        <ele>536.40899658203</ele>
        <time>2009-08-03T12:54:42Z</time>
      </trkpt>
      <trkpt lat="44.79438" lon="4.66261">
        <ele>537.17999267578</ele>
        <time>2009-08-03T12:54:49Z</time>
      </trkpt>
      <trkpt lat="44.79438" lon="4.66309">
        <ele>538.20501708984</ele>
        <time>2009-08-03T12:54:56Z</time>
      </trkpt>
      <trkpt lat="44.79416" lon="4.66357">
        <ele>539.01397705078</ele>
        <time>2009-08-03T12:55:05Z</time>
      </trkpt>
      <trkpt lat="44.79406" lon="4.66378">
        <ele>539.33697509766</ele>
        <time>2009-08-03T12:55:09Z</time>
      </trkpt>
      <trkpt lat="44.79421" lon="4.66406">
        <ele>539.78900146484</ele>
        <time>2009-08-03T12:55:14Z</time>
      </trkpt>
      <trkpt lat="44.79469" lon="4.66435">
        <ele>541.31298828125</ele>
        <time>2009-08-03T12:55:23Z</time>
      </trkpt>
      <trkpt lat="44.7949" lon="4.665">
        <ele>541.66900634766</ele>
        <time>2009-08-03T12:55:33Z</time>
      </trkpt>
      <trkpt lat="44.79486" lon="4.66522">
        <ele>542.17199707031</ele>
        <time>2009-08-03T12:55:36Z</time>
      </trkpt>
      <trkpt lat="44.79478" lon="4.66556">
        <ele>542.80401611328</ele>
        <time>2009-08-03T12:55:41Z</time>
      </trkpt>
      <trkpt lat="44.7947" lon="4.66583">
        <ele>543.78002929688</ele>
        <time>2009-08-03T12:55:45Z</time>
      </trkpt>
      <trkpt lat="44.79454" lon="4.66605">
        <ele>544.17199707031</ele>
        <time>2009-08-03T12:55:49Z</time>
      </trkpt>
      <trkpt lat="44.79441" lon="4.66618">
        <ele>544.01098632812</ele>
        <time>2009-08-03T12:55:52Z</time>
      </trkpt>
      <trkpt lat="44.79426" lon="4.66651">
        <ele>544.50201416016</ele>
        <time>2009-08-03T12:55:57Z</time>
      </trkpt>
      <trkpt lat="44.79422" lon="4.66673">
        <ele>544.97302246094</ele>
        <time>2009-08-03T12:56:00Z</time>
      </trkpt>
      <trkpt lat="44.79382" lon="4.6672">
        <ele>545.13800048828</ele>
        <time>2009-08-03T12:56:09Z</time>
      </trkpt>
      <trkpt lat="44.79352" lon="4.66718">
        <ele>545.72900390625</ele>
        <time>2009-08-03T12:56:14Z</time>
      </trkpt>
      <trkpt lat="44.79324" lon="4.66708">
        <ele>546.36999511719</ele>
        <time>2009-08-03T12:56:19Z</time>
      </trkpt>
      <trkpt lat="44.7931" lon="4.66737">
        <ele>546.0830078125</ele>
        <time>2009-08-03T12:56:26Z</time>
      </trkpt>
      <trkpt lat="44.7933" lon="4.66793">
        <ele>546.22399902344</ele>
        <time>2009-08-03T12:56:33Z</time>
      </trkpt>
      <trkpt lat="44.7933" lon="4.66829">
        <ele>546.23400878906</ele>
        <time>2009-08-03T12:56:37Z</time>
      </trkpt>
      <trkpt lat="44.7935" lon="4.66851">
        <ele>546.38598632812</ele>
        <time>2009-08-03T12:56:42Z</time>
      </trkpt>
      <trkpt lat="44.7938" lon="4.66858">
        <ele>546.33697509766</ele>
        <time>2009-08-03T12:56:47Z</time>
      </trkpt>
      <trkpt lat="44.79396" lon="4.66868">
        <ele>546.2490234375</ele>
        <time>2009-08-03T12:56:50Z</time>
      </trkpt>
      <trkpt lat="44.79455" lon="4.66913">
        <ele>546.83001708984</ele>
        <time>2009-08-03T12:57:01Z</time>
      </trkpt>
      <trkpt lat="44.79459" lon="4.66957">
        <ele>547.51501464844</ele>
        <time>2009-08-03T12:57:08Z</time>
      </trkpt>
      <trkpt lat="44.79453" lon="4.66958">
        <ele>547.44799804688</ele>
        <time>2009-08-03T12:57:09Z</time>
      </trkpt>
      <trkpt lat="44.79419" lon="4.66974">
        <ele>547.16400146484</ele>
        <time>2009-08-03T12:57:15Z</time>
      </trkpt>
      <trkpt lat="44.79404" lon="4.67001">
        <ele>547.73602294922</ele>
        <time>2009-08-03T12:57:19Z</time>
      </trkpt>
      <trkpt lat="44.79411" lon="4.67039">
        <ele>547.57202148438</ele>
        <time>2009-08-03T12:57:25Z</time>
      </trkpt>
      <trkpt lat="44.79433" lon="4.67092">
        <ele>548.48602294922</ele>
        <time>2009-08-03T12:57:34Z</time>
      </trkpt>
      <trkpt lat="44.79424" lon="4.67101">
        <ele>547.90197753906</ele>
        <time>2009-08-03T12:57:36Z</time>
      </trkpt>
      <trkpt lat="44.79381" lon="4.67147">
        <ele>548.86700439453</ele>
        <time>2009-08-03T12:57:45Z</time>
      </trkpt>
      <trkpt lat="44.79363" lon="4.67216">
        <ele>548.88201904297</ele>
        <time>2009-08-03T12:57:54Z</time>
      </trkpt>
      <trkpt lat="44.7937" lon="4.67263">
        <ele>547.93798828125</ele>
        <time>2009-08-03T12:57:59Z</time>
      </trkpt>
      <trkpt lat="44.79369" lon="4.67291">
        <ele>548.19396972656</ele>
        <time>2009-08-03T12:58:02Z</time>
      </trkpt>
      <trkpt lat="44.7939" lon="4.67328">
        <ele>547.99798583984</ele>
        <time>2009-08-03T12:58:08Z</time>
      </trkpt>
      <trkpt lat="44.79427" lon="4.67335">
        <ele>547.44000244141</ele>
        <time>2009-08-03T12:58:14Z</time>
      </trkpt>
      <trkpt lat="44.79482" lon="4.67359">
        <ele>547.15802001953</ele>
        <time>2009-08-03T12:58:24Z</time>
      </trkpt>
      <trkpt lat="44.79501" lon="4.67403">
        <ele>546.32299804688</ele>
        <time>2009-08-03T12:58:31Z</time>
      </trkpt>
      <trkpt lat="44.79495" lon="4.67435">
        <ele>546.77697753906</ele>
        <time>2009-08-03T12:58:35Z</time>
      </trkpt>
      <trkpt lat="44.79461" lon="4.67473">
        <ele>545.99499511719</ele>
        <time>2009-08-03T12:58:42Z</time>
      </trkpt>
      <trkpt lat="44.7944" lon="4.67477">
        <ele>546.21398925781</ele>
        <time>2009-08-03T12:58:45Z</time>
      </trkpt>
      <trkpt lat="44.79409" lon="4.67507">
        <ele>546.36798095703</ele>
        <time>2009-08-03T12:58:51Z</time>
      </trkpt>
      <trkpt lat="44.79404" lon="4.6752">
        <ele>547.00402832031</ele>
        <time>2009-08-03T12:58:53Z</time>
      </trkpt>
      <trkpt lat="44.79404" lon="4.67533">
        <ele>546.78997802734</ele>
        <time>2009-08-03T12:59:00Z</time>
      </trkpt>
      <trkpt lat="44.79415" lon="4.67509">
        <ele>544.50701904297</ele>
        <time>2009-08-03T12:59:06Z</time>
      </trkpt>
      <trkpt lat="44.79443" lon="4.67486">
        <ele>541.54302978516</ele>
        <time>2009-08-03T12:59:13Z</time>
      </trkpt>
      <trkpt lat="44.79461" lon="4.67486">
        <ele>539.90899658203</ele>
        <time>2009-08-03T12:59:16Z</time>
      </trkpt>
      <trkpt lat="44.7948" lon="4.67491">
        <ele>538.53100585938</ele>
        <time>2009-08-03T12:59:19Z</time>
      </trkpt>
      <trkpt lat="44.79498" lon="4.67485">
        <ele>536.16497802734</ele>
        <time>2009-08-03T12:59:22Z</time>
      </trkpt>
      <trkpt lat="44.7953" lon="4.67458">
        <ele>533.84497070312</ele>
        <time>2009-08-03T12:59:28Z</time>
      </trkpt>
      <trkpt lat="44.79537" lon="4.6745">
        <ele>533.41802978516</ele>
        <time>2009-08-03T12:59:32Z</time>
      </trkpt>
      <trkpt lat="44.79534" lon="4.67422">
        <ele>531.68402099609</ele>
        <time>2009-08-03T13:01:22Z</time>
      </trkpt>
      <trkpt lat="44.79534" lon="4.67397">
        <ele>530.25701904297</ele>
        <time>2009-08-03T13:01:25Z</time>
      </trkpt>
      <trkpt lat="44.79544" lon="4.6737">
        <ele>527.92797851562</ele>
        <time>2009-08-03T13:01:28Z</time>
      </trkpt>
      <trkpt lat="44.79549" lon="4.67318">
        <ele>524.84997558594</ele>
        <time>2009-08-03T13:01:34Z</time>
      </trkpt>
      <trkpt lat="44.79544" lon="4.67311">
        <ele>524.54302978516</ele>
        <time>2009-08-03T13:01:35Z</time>
      </trkpt>
      <trkpt lat="44.79519" lon="4.67289">
        <ele>521.51898193359</ele>
        <time>2009-08-03T13:01:39Z</time>
      </trkpt>
      <trkpt lat="44.79489" lon="4.67279">
        <ele>519.24102783203</ele>
        <time>2009-08-03T13:01:43Z</time>
      </trkpt>
      <trkpt lat="44.79466" lon="4.67243">
        <ele>515.55798339844</ele>
        <time>2009-08-03T13:01:49Z</time>
      </trkpt>
      <trkpt lat="44.79492" lon="4.67214">
        <ele>512.43103027344</ele>
        <time>2009-08-03T13:01:53Z</time>
      </trkpt>
      <trkpt lat="44.79501" lon="4.6721">
        <ele>511.64199829102</ele>
        <time>2009-08-03T13:01:54Z</time>
      </trkpt>
      <trkpt lat="44.79529" lon="4.672">
        <ele>508.96099853516</ele>
        <time>2009-08-03T13:01:57Z</time>
      </trkpt>
      <trkpt lat="44.79546" lon="4.67189">
        <ele>507.23199462891</ele>
        <time>2009-08-03T13:01:59Z</time>
      </trkpt>
      <trkpt lat="44.79572" lon="4.67178">
        <ele>505.60998535156</ele>
        <time>2009-08-03T13:02:02Z</time>
      </trkpt>
      <trkpt lat="44.79605" lon="4.67141">
        <ele>502.25900268555</ele>
        <time>2009-08-03T13:02:07Z</time>
      </trkpt>
      <trkpt lat="44.79638" lon="4.67139">
        <ele>497.54901123047</ele>
        <time>2009-08-03T13:02:11Z</time>
      </trkpt>
      <trkpt lat="44.79672" lon="4.67116">
        <ele>495.23199462891</ele>
        <time>2009-08-03T13:02:18Z</time>
      </trkpt>
      <trkpt lat="44.79669" lon="4.67105">
        <ele>494.61999511719</ele>
        <time>2009-08-03T13:02:19Z</time>
      </trkpt>
      <trkpt lat="44.79662" lon="4.67084">
        <ele>493.25399780273</ele>
        <time>2009-08-03T13:02:21Z</time>
      </trkpt>
      <trkpt lat="44.79656" lon="4.67063">
        <ele>491.61999511719</ele>
        <time>2009-08-03T13:02:23Z</time>
      </trkpt>
      <trkpt lat="44.79629" lon="4.67022">
        <ele>488.05899047852</ele>
        <time>2009-08-03T13:02:28Z</time>
      </trkpt>
      <trkpt lat="44.79598" lon="4.67011">
        <ele>485.6960144043</ele>
        <time>2009-08-03T13:02:33Z</time>
      </trkpt>
      <trkpt lat="44.79589" lon="4.66994">
        <ele>482.49600219727</ele>
        <time>2009-08-03T13:02:37Z</time>
      </trkpt>
      <trkpt lat="44.79594" lon="4.6698">
        <ele>482.37799072266</ele>
        <time>2009-08-03T13:02:39Z</time>
      </trkpt>
      <trkpt lat="44.79614" lon="4.66958">
        <ele>479.43099975586</ele>
        <time>2009-08-03T13:02:43Z</time>
      </trkpt>
      <trkpt lat="44.7963" lon="4.66941">
        <ele>477.69799804688</ele>
        <time>2009-08-03T13:02:46Z</time>
      </trkpt>
      <trkpt lat="44.7964" lon="4.66916">
        <ele>475.77801513672</ele>
        <time>2009-08-03T13:02:49Z</time>
      </trkpt>
      <trkpt lat="44.79684" lon="4.66901">
        <ele>471.51098632812</ele>
        <time>2009-08-03T13:02:56Z</time>
      </trkpt>
      <trkpt lat="44.79694" lon="4.6687">
        <ele>467.87399291992</ele>
        <time>2009-08-03T13:03:00Z</time>
      </trkpt>
      <trkpt lat="44.79694" lon="4.6684">
        <ele>466.3210144043</ele>
        <time>2009-08-03T13:03:03Z</time>
      </trkpt>
      <trkpt lat="44.79724" lon="4.66819">
        <ele>462.59698486328</ele>
        <time>2009-08-03T13:03:09Z</time>
      </trkpt>
      <trkpt lat="44.79755" lon="4.66821">
        <ele>460.78201293945</ele>
        <time>2009-08-03T13:03:13Z</time>
      </trkpt>
      <trkpt lat="44.79779" lon="4.66827">
        <ele>459.41500854492</ele>
        <time>2009-08-03T13:03:16Z</time>
      </trkpt>
      <trkpt lat="44.79802" lon="4.66834">
        <ele>457.39700317383</ele>
        <time>2009-08-03T13:03:19Z</time>
      </trkpt>
      <trkpt lat="44.79852" lon="4.66852">
        <ele>454.53799438477</ele>
        <time>2009-08-03T13:03:27Z</time>
      </trkpt>
      <trkpt lat="44.79868" lon="4.66841">
        <ele>453.44000244141</ele>
        <time>2009-08-03T13:03:30Z</time>
      </trkpt>
      <trkpt lat="44.79927" lon="4.66823">
        <ele>447.90701293945</ele>
        <time>2009-08-03T13:03:38Z</time>
      </trkpt>
      <trkpt lat="44.79935" lon="4.66823">
        <ele>447.21701049805</ele>
        <time>2009-08-03T13:03:39Z</time>
      </trkpt>
      <trkpt lat="44.79981" lon="4.66844">
        <ele>445.18499755859</ele>
        <time>2009-08-03T13:03:48Z</time>
      </trkpt>
      <trkpt lat="44.79989" lon="4.66848">
        <ele>445.15200805664</ele>
        <time>2009-08-03T13:03:50Z</time>
      </trkpt>
      <trkpt lat="44.80001" lon="4.66857">
        <ele>444.53601074219</ele>
        <time>2009-08-03T13:03:53Z</time>
      </trkpt>
      <trkpt lat="44.80018" lon="4.66874">
        <ele>442.95098876953</ele>
        <time>2009-08-03T13:03:57Z</time>
      </trkpt>
      <trkpt lat="44.80022" lon="4.66879">
        <ele>442.94500732422</ele>
        <time>2009-08-03T13:03:58Z</time>
      </trkpt>
      <trkpt lat="44.80035" lon="4.66891">
        <ele>442.15899658203</ele>
        <time>2009-08-03T13:04:01Z</time>
      </trkpt>
      <trkpt lat="44.801" lon="4.6696">
        <ele>435.04299926758</ele>
        <time>2009-08-03T13:04:12Z</time>
      </trkpt>
      <trkpt lat="44.80122" lon="4.66985">
        <ele>432.73001098633</ele>
        <time>2009-08-03T13:04:16Z</time>
      </trkpt>
      <trkpt lat="44.80166" lon="4.66982">
        <ele>428.0830078125</ele>
        <time>2009-08-03T13:04:23Z</time>
      </trkpt>
      <trkpt lat="44.80186" lon="4.66977">
        <ele>426.66101074219</ele>
        <time>2009-08-03T13:04:26Z</time>
      </trkpt>
      <trkpt lat="44.80192" lon="4.66982">
        <ele>426.26901245117</ele>
        <time>2009-08-03T13:04:27Z</time>
      </trkpt>
      <trkpt lat="44.8021" lon="4.67003">
        <ele>424.79800415039</ele>
        <time>2009-08-03T13:04:30Z</time>
      </trkpt>
      <trkpt lat="44.80222" lon="4.67036">
        <ele>422.42199707031</ele>
        <time>2009-08-03T13:04:33Z</time>
      </trkpt>
      <trkpt lat="44.80231" lon="4.67059">
        <ele>421.20001220703</ele>
        <time>2009-08-03T13:04:35Z</time>
      </trkpt>
      <trkpt lat="44.80254" lon="4.67107">
        <ele>418.66101074219</ele>
        <time>2009-08-03T13:04:40Z</time>
      </trkpt>
      <trkpt lat="44.8026" lon="4.67114">
        <ele>418.26098632812</ele>
        <time>2009-08-03T13:04:41Z</time>
      </trkpt>
      <trkpt lat="44.80275" lon="4.67134">
        <ele>416.60998535156</ele>
        <time>2009-08-03T13:04:44Z</time>
      </trkpt>
      <trkpt lat="44.80297" lon="4.67197">
        <ele>412.66101074219</ele>
        <time>2009-08-03T13:04:51Z</time>
      </trkpt>
      <trkpt lat="44.80298" lon="4.67228">
        <ele>410.88000488281</ele>
        <time>2009-08-03T13:04:54Z</time>
      </trkpt>
      <trkpt lat="44.80298" lon="4.67239">
        <ele>410.20498657227</ele>
        <time>2009-08-03T13:04:55Z</time>
      </trkpt>
      <trkpt lat="44.80302" lon="4.67266">
        <ele>409.61801147461</ele>
        <time>2009-08-03T13:04:58Z</time>
      </trkpt>
      <trkpt lat="44.80306" lon="4.67278">
        <ele>409.08898925781</ele>
        <time>2009-08-03T13:05:00Z</time>
      </trkpt>
      <trkpt lat="44.80315" lon="4.673">
        <ele>407.51400756836</ele>
        <time>2009-08-03T13:05:04Z</time>
      </trkpt>
      <trkpt lat="44.80316" lon="4.67308">
        <ele>406.98699951172</ele>
        <time>2009-08-03T13:05:05Z</time>
      </trkpt>
      <trkpt lat="44.80317" lon="4.67315">
        <ele>406.13198852539</ele>
        <time>2009-08-03T13:05:06Z</time>
      </trkpt>
      <trkpt lat="44.80317" lon="4.67339">
        <ele>404.02801513672</ele>
        <time>2009-08-03T13:05:09Z</time>
      </trkpt>
      <trkpt lat="44.80319" lon="4.67355">
        <ele>403.21099853516</ele>
        <time>2009-08-03T13:05:11Z</time>
      </trkpt>
      <trkpt lat="44.80344" lon="4.67389">
        <ele>400.89599609375</ele>
        <time>2009-08-03T13:05:18Z</time>
      </trkpt>
      <trkpt lat="44.80363" lon="4.67399">
        <ele>399.59399414062</ele>
        <time>2009-08-03T13:05:22Z</time>
      </trkpt>
      <trkpt lat="44.804" lon="4.67425">
        <ele>396.11499023438</ele>
        <time>2009-08-03T13:05:30Z</time>
      </trkpt>
      <trkpt lat="44.80411" lon="4.67465">
        <ele>393.125</ele>
        <time>2009-08-03T13:05:35Z</time>
      </trkpt>
      <trkpt lat="44.80418" lon="4.675">
        <ele>390.66799926758</ele>
        <time>2009-08-03T13:05:39Z</time>
      </trkpt>
      <trkpt lat="44.80426" lon="4.67516">
        <ele>390.01998901367</ele>
        <time>2009-08-03T13:05:41Z</time>
      </trkpt>
      <trkpt lat="44.80456" lon="4.67512">
        <ele>386.94500732422</ele>
        <time>2009-08-03T13:05:46Z</time>
      </trkpt>
      <trkpt lat="44.80468" lon="4.67502">
        <ele>386.17300415039</ele>
        <time>2009-08-03T13:05:48Z</time>
      </trkpt>
      <trkpt lat="44.805" lon="4.67516">
        <ele>382.77600097656</ele>
        <time>2009-08-03T13:05:55Z</time>
      </trkpt>
      <trkpt lat="44.80513" lon="4.67554">
        <ele>380.05999755859</ele>
        <time>2009-08-03T13:05:59Z</time>
      </trkpt>
      <trkpt lat="44.80541" lon="4.6763">
        <ele>374.23599243164</ele>
        <time>2009-08-03T13:06:06Z</time>
      </trkpt>
      <trkpt lat="44.80553" lon="4.67647">
        <ele>373.0830078125</ele>
        <time>2009-08-03T13:06:08Z</time>
      </trkpt>
      <trkpt lat="44.80571" lon="4.67683">
        <ele>371.07998657227</ele>
        <time>2009-08-03T13:06:12Z</time>
      </trkpt>
      <trkpt lat="44.80593" lon="4.67691">
        <ele>369.22100830078</ele>
        <time>2009-08-03T13:06:19Z</time>
      </trkpt>
      <trkpt lat="44.80608" lon="4.67632">
        <ele>366.60598754883</ele>
        <time>2009-08-03T13:06:27Z</time>
      </trkpt>
      <trkpt lat="44.8063" lon="4.67626">
        <ele>364.00698852539</ele>
        <time>2009-08-03T13:06:33Z</time>
      </trkpt>
      <trkpt lat="44.80663" lon="4.6766">
        <ele>360.36499023438</ele>
        <time>2009-08-03T13:06:39Z</time>
      </trkpt>
      <trkpt lat="44.80684" lon="4.67706">
        <ele>356.97799682617</ele>
        <time>2009-08-03T13:06:44Z</time>
      </trkpt>
      <trkpt lat="44.80693" lon="4.67751">
        <ele>354.82699584961</ele>
        <time>2009-08-03T13:06:48Z</time>
      </trkpt>
      <trkpt lat="44.807" lon="4.67785">
        <ele>352.85900878906</ele>
        <time>2009-08-03T13:06:53Z</time>
      </trkpt>
      <trkpt lat="44.80715" lon="4.67796">
        <ele>350.58401489258</ele>
        <time>2009-08-03T13:06:57Z</time>
      </trkpt>
      <trkpt lat="44.80742" lon="4.67798">
        <ele>346.97500610352</ele>
        <time>2009-08-03T13:07:01Z</time>
      </trkpt>
      <trkpt lat="44.80767" lon="4.67805">
        <ele>344.65399169922</ele>
        <time>2009-08-03T13:07:04Z</time>
      </trkpt>
      <trkpt lat="44.80827" lon="4.67792">
        <ele>340.57000732422</ele>
        <time>2009-08-03T13:07:12Z</time>
      </trkpt>
      <trkpt lat="44.80859" lon="4.67792">
        <ele>338.63400268555</ele>
        <time>2009-08-03T13:07:23Z</time>
      </trkpt>
      <trkpt lat="44.80869" lon="4.67791">
        <ele>337.50601196289</ele>
        <time>2009-08-03T13:07:27Z</time>
      </trkpt>
      <trkpt lat="44.8088" lon="4.67791">
        <ele>335.68200683594</ele>
        <time>2009-08-03T13:07:29Z</time>
      </trkpt>
      <trkpt lat="44.80886" lon="4.67792">
        <ele>334.48001098633</ele>
        <time>2009-08-03T13:07:30Z</time>
      </trkpt>
      <trkpt lat="44.80893" lon="4.67793">
        <ele>334.02499389648</ele>
        <time>2009-08-03T13:07:31Z</time>
      </trkpt>
      <trkpt lat="44.80916" lon="4.67801">
        <ele>331.17999267578</ele>
        <time>2009-08-03T13:07:34Z</time>
      </trkpt>
      <trkpt lat="44.80941" lon="4.67803">
        <ele>328.95098876953</ele>
        <time>2009-08-03T13:07:37Z</time>
      </trkpt>
      <trkpt lat="44.80964" lon="4.67796">
        <ele>325.41101074219</ele>
        <time>2009-08-03T13:07:40Z</time>
      </trkpt>
      <trkpt lat="44.8098" lon="4.67785">
        <ele>324.79699707031</ele>
        <time>2009-08-03T13:07:42Z</time>
      </trkpt>
      <trkpt lat="44.80996" lon="4.67772">
        <ele>323.79598999023</ele>
        <time>2009-08-03T13:07:44Z</time>
      </trkpt>
      <trkpt lat="44.81023" lon="4.67766">
        <ele>322.35598754883</ele>
        <time>2009-08-03T13:07:50Z</time>
      </trkpt>
      <trkpt lat="44.81009" lon="4.6778">
        <ele>320.31799316406</ele>
        <time>2009-08-03T13:07:53Z</time>
      </trkpt>
      <trkpt lat="44.81003" lon="4.67783">
        <ele>319.89801025391</ele>
        <time>2009-08-03T13:07:54Z</time>
      </trkpt>
      <trkpt lat="44.80987" lon="4.67825">
        <ele>316.85998535156</ele>
        <time>2009-08-03T13:07:59Z</time>
      </trkpt>
      <trkpt lat="44.81007" lon="4.67873">
        <ele>314.67999267578</ele>
        <time>2009-08-03T13:08:04Z</time>
      </trkpt>
      <trkpt lat="44.81029" lon="4.67917">
        <ele>315.22799682617</ele>
        <time>2009-08-03T13:08:09Z</time>
      </trkpt>
      <trkpt lat="44.81033" lon="4.67924">
        <ele>315.19198608398</ele>
        <time>2009-08-03T13:08:11Z</time>
      </trkpt>
      <trkpt lat="44.81065" lon="4.67929">
        <ele>313.11801147461</ele>
        <time>2009-08-03T13:08:21Z</time>
      </trkpt>
      <trkpt lat="44.81113" lon="4.67936">
        <ele>310.01501464844</ele>
        <time>2009-08-03T13:08:30Z</time>
      </trkpt>
      <trkpt lat="44.81184" lon="4.67936">
        <ele>303.60000610352</ele>
        <time>2009-08-03T13:08:39Z</time>
      </trkpt>
      <trkpt lat="44.81217" lon="4.67918">
        <ele>301</ele>
        <time>2009-08-03T13:08:43Z</time>
      </trkpt>
      <trkpt lat="44.81229" lon="4.67902">
        <ele>300.3210144043</ele>
        <time>2009-08-03T13:08:45Z</time>
      </trkpt>
      <trkpt lat="44.81254" lon="4.67887">
        <ele>297.93499755859</ele>
        <time>2009-08-03T13:08:49Z</time>
      </trkpt>
      <trkpt lat="44.81275" lon="4.67919">
        <ele>295.60598754883</ele>
        <time>2009-08-03T13:08:54Z</time>
      </trkpt>
      <trkpt lat="44.81278" lon="4.6794">
        <ele>294.1789855957</ele>
        <time>2009-08-03T13:08:56Z</time>
      </trkpt>
      <trkpt lat="44.81281" lon="4.67963">
        <ele>292.95599365234</ele>
        <time>2009-08-03T13:08:58Z</time>
      </trkpt>
      <trkpt lat="44.81298" lon="4.68004">
        <ele>290.55099487305</ele>
        <time>2009-08-03T13:09:02Z</time>
      </trkpt>
      <trkpt lat="44.81299" lon="4.68069">
        <ele>287.23699951172</ele>
        <time>2009-08-03T13:09:09Z</time>
      </trkpt>
      <trkpt lat="44.81301" lon="4.68077">
        <ele>286.85101318359</ele>
        <time>2009-08-03T13:09:10Z</time>
      </trkpt>
      <trkpt lat="44.81311" lon="4.68093">
        <ele>285.28500366211</ele>
        <time>2009-08-03T13:09:12Z</time>
      </trkpt>
      <trkpt lat="44.81318" lon="4.68099">
        <ele>284.81399536133</ele>
        <time>2009-08-03T13:09:13Z</time>
      </trkpt>
      <trkpt lat="44.81349" lon="4.68126">
        <ele>281.70999145508</ele>
        <time>2009-08-03T13:09:17Z</time>
      </trkpt>
      <trkpt lat="44.81396" lon="4.68147">
        <ele>278.24398803711</ele>
        <time>2009-08-03T13:09:22Z</time>
      </trkpt>
      <trkpt lat="44.8142" lon="4.68164">
        <ele>275.91299438477</ele>
        <time>2009-08-03T13:09:26Z</time>
      </trkpt>
      <trkpt lat="44.81436" lon="4.6819">
        <ele>274.36700439453</ele>
        <time>2009-08-03T13:09:32Z</time>
      </trkpt>
      <trkpt lat="44.81437" lon="4.68211">
        <ele>272.48001098633</ele>
        <time>2009-08-03T13:09:36Z</time>
      </trkpt>
      <trkpt lat="44.81438" lon="4.68244">
        <ele>270.13900756836</ele>
        <time>2009-08-03T13:09:41Z</time>
      </trkpt>
      <trkpt lat="44.81442" lon="4.68258">
        <ele>269.76800537109</ele>
        <time>2009-08-03T13:09:43Z</time>
      </trkpt>
      <trkpt lat="44.81446" lon="4.68306">
        <ele>268.20498657227</ele>
        <time>2009-08-03T13:09:52Z</time>
      </trkpt>
      <trkpt lat="44.81459" lon="4.68324">
        <ele>265.99899291992</ele>
        <time>2009-08-03T13:10:00Z</time>
      </trkpt>
      <trkpt lat="44.81458" lon="4.68309">
        <ele>264.8210144043</ele>
        <time>2009-08-03T13:10:02Z</time>
      </trkpt>
      <trkpt lat="44.8145" lon="4.68237">
        <ele>261.25201416016</ele>
        <time>2009-08-03T13:10:10Z</time>
      </trkpt>
      <trkpt lat="44.81455" lon="4.68211">
        <ele>259.67401123047</ele>
        <time>2009-08-03T13:10:13Z</time>
      </trkpt>
      <trkpt lat="44.81464" lon="4.68182">
        <ele>257.60198974609</ele>
        <time>2009-08-03T13:10:16Z</time>
      </trkpt>
      <trkpt lat="44.81453" lon="4.68136">
        <ele>255.01400756836</ele>
        <time>2009-08-03T13:10:21Z</time>
      </trkpt>
      <trkpt lat="44.81372" lon="4.68053">
        <ele>248.48599243164</ele>
        <time>2009-08-03T13:10:33Z</time>
      </trkpt>
      <trkpt lat="44.81369" lon="4.68048">
        <ele>247.94599914551</ele>
        <time>2009-08-03T13:10:34Z</time>
      </trkpt>
      <trkpt lat="44.8137" lon="4.6802">
        <ele>246.17700195312</ele>
        <time>2009-08-03T13:10:38Z</time>
      </trkpt>
      <trkpt lat="44.81374" lon="4.68006">
        <ele>245.25999450684</ele>
        <time>2009-08-03T13:10:40Z</time>
      </trkpt>
      <trkpt lat="44.81359" lon="4.67933">
        <ele>241.54299926758</ele>
        <time>2009-08-03T13:10:48Z</time>
      </trkpt>
      <trkpt lat="44.81355" lon="4.67867">
        <ele>238.15699768066</ele>
        <time>2009-08-03T13:10:57Z</time>
      </trkpt>
      <trkpt lat="44.8135" lon="4.67845">
        <ele>237.13900756836</ele>
        <time>2009-08-03T13:11:00Z</time>
      </trkpt>
      <trkpt lat="44.81341" lon="4.67824">
        <ele>236.17900085449</ele>
        <time>2009-08-03T13:11:03Z</time>
      </trkpt>
      <trkpt lat="44.8133" lon="4.67808">
        <ele>235.41400146484</ele>
        <time>2009-08-03T13:11:06Z</time>
      </trkpt>
      <trkpt lat="44.81318" lon="4.67794">
        <ele>235.10699462891</ele>
        <time>2009-08-03T13:11:10Z</time>
      </trkpt>
      <trkpt lat="44.81327" lon="4.67778">
        <ele>233.17500305176</ele>
        <time>2009-08-03T13:11:17Z</time>
      </trkpt>
      <trkpt lat="44.81335" lon="4.67794">
        <ele>232.82800292969</ele>
        <time>2009-08-03T13:11:22Z</time>
      </trkpt>
      <trkpt lat="44.81351" lon="4.67829">
        <ele>230.84700012207</ele>
        <time>2009-08-03T13:11:35Z</time>
      </trkpt>
      <trkpt lat="44.81367" lon="4.67856">
        <ele>228.30499267578</ele>
        <time>2009-08-03T13:11:40Z</time>
      </trkpt>
      <trkpt lat="44.81372" lon="4.67868">
        <ele>227.88900756836</ele>
        <time>2009-08-03T13:11:42Z</time>
      </trkpt>
      <trkpt lat="44.81376" lon="4.67881">
        <ele>227.24299621582</ele>
        <time>2009-08-03T13:11:44Z</time>
      </trkpt>
      <trkpt lat="44.81378" lon="4.67907">
        <ele>226.11999511719</ele>
        <time>2009-08-03T13:11:48Z</time>
      </trkpt>
      <trkpt lat="44.81392" lon="4.67937">
        <ele>224.33299255371</ele>
        <time>2009-08-03T13:11:53Z</time>
      </trkpt>
      <trkpt lat="44.81398" lon="4.6795">
        <ele>223.71499633789</ele>
        <time>2009-08-03T13:11:55Z</time>
      </trkpt>
      <trkpt lat="44.81416" lon="4.68002">
        <ele>219.49800109863</ele>
        <time>2009-08-03T13:12:02Z</time>
      </trkpt>
      <trkpt lat="44.81432" lon="4.68027">
        <ele>218.34899902344</ele>
        <time>2009-08-03T13:12:07Z</time>
      </trkpt>
      <trkpt lat="44.8145" lon="4.68041">
        <ele>217.10400390625</ele>
        <time>2009-08-03T13:12:11Z</time>
      </trkpt>
      <trkpt lat="44.81526" lon="4.68107">
        <ele>208.75100708008</ele>
        <time>2009-08-03T13:12:22Z</time>
      </trkpt>
      <trkpt lat="44.81532" lon="4.68113">
        <ele>208.46000671387</ele>
        <time>2009-08-03T13:12:23Z</time>
      </trkpt>
      <trkpt lat="44.81542" lon="4.68149">
        <ele>206.44799804688</ele>
        <time>2009-08-03T13:12:28Z</time>
      </trkpt>
      <trkpt lat="44.81542" lon="4.68188">
        <ele>204.02400207519</ele>
        <time>2009-08-03T13:12:32Z</time>
      </trkpt>
      <trkpt lat="44.81545" lon="4.68245">
        <ele>201.98500061035</ele>
        <time>2009-08-03T13:12:38Z</time>
      </trkpt>
      <trkpt lat="44.81547" lon="4.68261">
        <ele>201.05799865723</ele>
        <time>2009-08-03T13:12:40Z</time>
      </trkpt>
      <trkpt lat="44.81549" lon="4.68277">
        <ele>200.04600524902</ele>
        <time>2009-08-03T13:12:42Z</time>
      </trkpt>
      <trkpt lat="44.81569" lon="4.68328">
        <ele>197.34700012207</ele>
        <time>2009-08-03T13:12:49Z</time>
      </trkpt>
      <trkpt lat="44.81576" lon="4.68335">
        <ele>196.83299255371</ele>
        <time>2009-08-03T13:12:51Z</time>
      </trkpt>
      <trkpt lat="44.81586" lon="4.68362">
        <ele>194.96000671387</ele>
        <time>2009-08-03T13:12:56Z</time>
      </trkpt>
      <trkpt lat="44.81587" lon="4.68376">
        <ele>193.91499328613</ele>
        <time>2009-08-03T13:12:58Z</time>
      </trkpt>
      <trkpt lat="44.81591" lon="4.68408">
        <ele>192.19299316406</ele>
        <time>2009-08-03T13:13:02Z</time>
      </trkpt>
      <trkpt lat="44.81601" lon="4.68495">
        <ele>186.37600708008</ele>
        <time>2009-08-03T13:13:10Z</time>
      </trkpt>
      <trkpt lat="44.81602" lon="4.68507">
        <ele>185.61199951172</ele>
        <time>2009-08-03T13:13:11Z</time>
      </trkpt>
      <trkpt lat="44.81595" lon="4.68575">
        <ele>181.16999816894</ele>
        <time>2009-08-03T13:13:16Z</time>
      </trkpt>
      <trkpt lat="44.81573" lon="4.68623">
        <ele>179.5950012207</ele>
        <time>2009-08-03T13:13:20Z</time>
      </trkpt>
      <trkpt lat="44.81523" lon="4.68729">
        <ele>171.43400573731</ele>
        <time>2009-08-03T13:13:29Z</time>
      </trkpt>
      <trkpt lat="44.81517" lon="4.68738">
        <ele>171.42700195312</ele>
        <time>2009-08-03T13:13:30Z</time>
      </trkpt>
      <trkpt lat="44.81516" lon="4.68763">
        <ele>171.69599914551</ele>
        <time>2009-08-03T13:13:35Z</time>
      </trkpt>
      <trkpt lat="44.81518" lon="4.68766">
        <ele>171.83299255371</ele>
        <time>2009-08-03T13:13:43Z</time>
      </trkpt>
      <trkpt lat="44.81518" lon="4.68799">
        <ele>171.76100158691</ele>
        <time>2009-08-03T13:13:51Z</time>
      </trkpt>
      <trkpt lat="44.81513" lon="4.6882">
        <ele>171.75100708008</ele>
        <time>2009-08-03T13:13:55Z</time>
      </trkpt>
      <trkpt lat="44.81508" lon="4.6883">
        <ele>172.48599243164</ele>
        <time>2009-08-03T13:13:57Z</time>
      </trkpt>
      <trkpt lat="44.81507" lon="4.68841">
        <ele>172.27699279785</ele>
        <time>2009-08-03T13:13:59Z</time>
      </trkpt>
      <trkpt lat="44.81496" lon="4.68875">
        <ele>172.27000427246</ele>
        <time>2009-08-03T13:14:05Z</time>
      </trkpt>
      <trkpt lat="44.81491" lon="4.68896">
        <ele>173.93299865723</ele>
        <time>2009-08-03T13:14:09Z</time>
      </trkpt>
      <trkpt lat="44.81489" lon="4.68907">
        <ele>174.27299499512</ele>
        <time>2009-08-03T13:14:11Z</time>
      </trkpt>
      <trkpt lat="44.8149" lon="4.6895">
        <ele>175.40299987793</ele>
        <time>2009-08-03T13:14:18Z</time>
      </trkpt>
      <trkpt lat="44.81489" lon="4.68964">
        <ele>175.88499450684</ele>
        <time>2009-08-03T13:14:20Z</time>
      </trkpt>
      <trkpt lat="44.8149" lon="4.68978">
        <ele>175.85000610352</ele>
        <time>2009-08-03T13:14:22Z</time>
      </trkpt>
      <trkpt lat="44.81489" lon="4.68993">
        <ele>176.20799255371</ele>
        <time>2009-08-03T13:14:24Z</time>
      </trkpt>
      <trkpt lat="44.81478" lon="4.69037">
        <ele>175.08799743652</ele>
        <time>2009-08-03T13:14:30Z</time>
      </trkpt>
      <trkpt lat="44.81437" lon="4.69155">
        <ele>174.35200500488</ele>
        <time>2009-08-03T13:14:44Z</time>
      </trkpt>
      <trkpt lat="44.81401" lon="4.69153">
        <ele>172.22700500488</ele>
        <time>2009-08-03T13:14:50Z</time>
      </trkpt>
      <trkpt lat="44.81383" lon="4.69141">
        <ele>171.63200378418</ele>
        <time>2009-08-03T13:14:53Z</time>
      </trkpt>
      <trkpt lat="44.81364" lon="4.69139">
        <ele>171.43800354004</ele>
        <time>2009-08-03T13:14:56Z</time>
      </trkpt>
      <trkpt lat="44.81355" lon="4.69173">
        <ele>170.75</ele>
        <time>2009-08-03T13:15:01Z</time>
      </trkpt>
      <trkpt lat="44.81356" lon="4.69183">
        <ele>170.66200256348</ele>
        <time>2009-08-03T13:15:02Z</time>
      </trkpt>
      <trkpt lat="44.81359" lon="4.69204">
        <ele>169.36099243164</ele>
        <time>2009-08-03T13:15:04Z</time>
      </trkpt>
      <trkpt lat="44.81364" lon="4.69236">
        <ele>167.32099914551</ele>
        <time>2009-08-03T13:15:07Z</time>
      </trkpt>
      <trkpt lat="44.81353" lon="4.69302">
        <ele>165.54400634766</ele>
        <time>2009-08-03T13:15:13Z</time>
      </trkpt>
      <trkpt lat="44.81366" lon="4.6936">
        <ele>162.3450012207</ele>
        <time>2009-08-03T13:15:18Z</time>
      </trkpt>
      <trkpt lat="44.81383" lon="4.69435">
        <ele>159.69700622559</ele>
        <time>2009-08-03T13:15:24Z</time>
      </trkpt>
      <trkpt lat="44.81384" lon="4.69463">
        <ele>158.45700073242</ele>
        <time>2009-08-03T13:15:26Z</time>
      </trkpt>
      <trkpt lat="44.81384" lon="4.69477">
        <ele>158.16999816894</ele>
        <time>2009-08-03T13:15:27Z</time>
      </trkpt>
      <trkpt lat="44.81371" lon="4.69526">
        <ele>156.48699951172</ele>
        <time>2009-08-03T13:15:31Z</time>
      </trkpt>
      <trkpt lat="44.81355" lon="4.6955">
        <ele>156.71699523926</ele>
        <time>2009-08-03T13:15:34Z</time>
      </trkpt>
      <trkpt lat="44.81318" lon="4.69588">
        <ele>154.30999755859</ele>
        <time>2009-08-03T13:15:40Z</time>
      </trkpt>
      <trkpt lat="44.81322" lon="4.69632">
        <ele>153.6190032959</ele>
        <time>2009-08-03T13:15:46Z</time>
      </trkpt>
      <trkpt lat="44.81337" lon="4.69632">
        <ele>152.39300537109</ele>
        <time>2009-08-03T13:15:48Z</time>
      </trkpt>
      <trkpt lat="44.8139" lon="4.69611">
        <ele>152.77699279785</ele>
        <time>2009-08-03T13:15:55Z</time>
      </trkpt>
      <trkpt lat="44.81405" lon="4.69606">
        <ele>152.13000488281</ele>
        <time>2009-08-03T13:15:57Z</time>
      </trkpt>
      <trkpt lat="44.81453" lon="4.69591">
        <ele>151.33000183106</ele>
        <time>2009-08-03T13:16:03Z</time>
      </trkpt>
      <trkpt lat="44.81476" lon="4.696">
        <ele>150.96800231934</ele>
        <time>2009-08-03T13:16:06Z</time>
      </trkpt>
      <trkpt lat="44.81498" lon="4.69604">
        <ele>149.52400207519</ele>
        <time>2009-08-03T13:16:09Z</time>
      </trkpt>
      <trkpt lat="44.81504" lon="4.69599">
        <ele>148.73699951172</ele>
        <time>2009-08-03T13:16:10Z</time>
      </trkpt>
      <trkpt lat="44.81524" lon="4.6958">
        <ele>147.25500488281</ele>
        <time>2009-08-03T13:16:13Z</time>
      </trkpt>
      <trkpt lat="44.81537" lon="4.69567">
        <ele>147.62800598144</ele>
        <time>2009-08-03T13:16:15Z</time>
      </trkpt>
      <trkpt lat="44.81585" lon="4.69576">
        <ele>145.62199401856</ele>
        <time>2009-08-03T13:16:22Z</time>
      </trkpt>
      <trkpt lat="44.81631" lon="4.69643">
        <ele>143.17700195312</ele>
        <time>2009-08-03T13:16:32Z</time>
      </trkpt>
      <trkpt lat="44.81636" lon="4.69654">
        <ele>143.05700683594</ele>
        <time>2009-08-03T13:16:35Z</time>
      </trkpt>
      <trkpt lat="44.81644" lon="4.69668">
        <ele>143.30299377441</ele>
        <time>2009-08-03T13:16:39Z</time>
      </trkpt>
      <trkpt lat="44.81658" lon="4.6968">
        <ele>144.24499511719</ele>
        <time>2009-08-03T13:16:45Z</time>
      </trkpt>
      <trkpt lat="44.8167" lon="4.69666">
        <ele>144.81700134277</ele>
        <time>2009-08-03T13:16:50Z</time>
      </trkpt>
      <trkpt lat="44.81681" lon="4.69627">
        <ele>147.24299621582</ele>
        <time>2009-08-03T13:17:01Z</time>
      </trkpt>
      <trkpt lat="44.81682" lon="4.6959">
        <ele>148.60299682617</ele>
        <time>2009-08-03T13:17:09Z</time>
      </trkpt>
      <trkpt lat="44.81686" lon="4.69562">
        <ele>149.68299865723</ele>
        <time>2009-08-03T13:17:15Z</time>
      </trkpt>
      <trkpt lat="44.81694" lon="4.69509">
        <ele>150.88600158691</ele>
        <time>2009-08-03T13:17:28Z</time>
      </trkpt>
      <trkpt lat="44.81715" lon="4.69475">
        <ele>150.17100524902</ele>
        <time>2009-08-03T13:17:38Z</time>
      </trkpt>
      <trkpt lat="44.81766" lon="4.69444">
        <ele>150.07299804688</ele>
        <time>2009-08-03T13:17:51Z</time>
      </trkpt>
      <trkpt lat="44.81857" lon="4.69415">
        <ele>149.69599914551</ele>
        <time>2009-08-03T13:18:08Z</time>
      </trkpt>
      <trkpt lat="44.81952" lon="4.69414">
        <ele>150.66400146484</ele>
        <time>2009-08-03T13:18:25Z</time>
      </trkpt>
      <trkpt lat="44.82038" lon="4.69478">
        <ele>151.70100402832</ele>
        <time>2009-08-03T13:18:41Z</time>
      </trkpt>
      <trkpt lat="44.82137" lon="4.6957">
        <ele>153.22399902344</ele>
        <time>2009-08-03T13:19:00Z</time>
      </trkpt>
      <trkpt lat="44.82171" lon="4.69577">
        <ele>152.67399597168</ele>
        <time>2009-08-03T13:19:06Z</time>
      </trkpt>
      <trkpt lat="44.82242" lon="4.69542">
        <ele>153.24699401856</ele>
        <time>2009-08-03T13:19:19Z</time>
      </trkpt>
      <trkpt lat="44.82306" lon="4.69481">
        <ele>154.69299316406</ele>
        <time>2009-08-03T13:19:32Z</time>
      </trkpt>
      <trkpt lat="44.8236" lon="4.69398">
        <ele>154.10699462891</ele>
        <time>2009-08-03T13:19:45Z</time>
      </trkpt>
      <trkpt lat="44.82377" lon="4.69364">
        <ele>154.54299926758</ele>
        <time>2009-08-03T13:19:50Z</time>
      </trkpt>
      <trkpt lat="44.82386" lon="4.69318">
        <ele>157.0950012207</ele>
        <time>2009-08-03T13:19:58Z</time>
      </trkpt>
      <trkpt lat="44.82389" lon="4.69272">
        <ele>158.36599731445</ele>
        <time>2009-08-03T13:20:08Z</time>
      </trkpt>
      <trkpt lat="44.82387" lon="4.69263">
        <ele>158.35899353027</ele>
        <time>2009-08-03T13:20:10Z</time>
      </trkpt>
      <trkpt lat="44.82362" lon="4.69245">
        <ele>161.69599914551</ele>
        <time>2009-08-03T13:20:19Z</time>
      </trkpt>
      <trkpt lat="44.82352" lon="4.69215">
        <ele>163.32000732422</ele>
        <time>2009-08-03T13:20:28Z</time>
      </trkpt>
      <trkpt lat="44.82376" lon="4.6919">
        <ele>165.9700012207</ele>
        <time>2009-08-03T13:20:38Z</time>
      </trkpt>
      <trkpt lat="44.82384" lon="4.69136">
        <ele>169.22200012207</ele>
        <time>2009-08-03T13:20:50Z</time>
      </trkpt>
      <trkpt lat="44.82387" lon="4.69084">
        <ele>172.4940032959</ele>
        <time>2009-08-03T13:21:03Z</time>
      </trkpt>
      <trkpt lat="44.8239" lon="4.69026">
        <ele>175.71200561523</ele>
        <time>2009-08-03T13:21:19Z</time>
      </trkpt>
      <trkpt lat="44.82401" lon="4.68974">
        <ele>178.54600524902</ele>
        <time>2009-08-03T13:21:34Z</time>
      </trkpt>
      <trkpt lat="44.82407" lon="4.68923">
        <ele>181.52299499512</ele>
        <time>2009-08-03T13:21:49Z</time>
      </trkpt>
      <trkpt lat="44.82424" lon="4.68874">
        <ele>184.65699768066</ele>
        <time>2009-08-03T13:22:04Z</time>
      </trkpt>
      <trkpt lat="44.82441" lon="4.6883">
        <ele>187.22999572754</ele>
        <time>2009-08-03T13:22:17Z</time>
      </trkpt>
      <trkpt lat="44.82425" lon="4.68799">
        <ele>189.20500183106</ele>
        <time>2009-08-03T13:22:28Z</time>
      </trkpt>
      <trkpt lat="44.82416" lon="4.68772">
        <ele>191.19099426269</ele>
        <time>2009-08-03T13:22:37Z</time>
      </trkpt>
      <trkpt lat="44.82424" lon="4.68755">
        <ele>192.92599487305</ele>
        <time>2009-08-03T13:22:42Z</time>
      </trkpt>
      <trkpt lat="44.82457" lon="4.68715">
        <ele>196.2799987793</ele>
        <time>2009-08-03T13:22:58Z</time>
      </trkpt>
      <trkpt lat="44.82475" lon="4.68684">
        <ele>198.69599914551</ele>
        <time>2009-08-03T13:23:10Z</time>
      </trkpt>
      <trkpt lat="44.82455" lon="4.68646">
        <ele>201.69099426269</ele>
        <time>2009-08-03T13:23:23Z</time>
      </trkpt>
      <trkpt lat="44.8244" lon="4.68635">
        <ele>201.95399475098</ele>
        <time>2009-08-03T13:23:28Z</time>
      </trkpt>
      <trkpt lat="44.82447" lon="4.68598">
        <ele>201.58200073242</ele>
        <time>2009-08-03T13:23:36Z</time>
      </trkpt>
      <trkpt lat="44.82437" lon="4.68572">
        <ele>201.79600524902</ele>
        <time>2009-08-03T13:23:41Z</time>
      </trkpt>
      <trkpt lat="44.82431" lon="4.68563">
        <ele>202.32899475098</ele>
        <time>2009-08-03T13:23:43Z</time>
      </trkpt>
      <trkpt lat="44.82439" lon="4.68523">
        <ele>202.21800231934</ele>
        <time>2009-08-03T13:23:50Z</time>
      </trkpt>
      <trkpt lat="44.82438" lon="4.68516">
        <ele>202.15299987793</ele>
        <time>2009-08-03T13:23:51Z</time>
      </trkpt>
      <trkpt lat="44.82412" lon="4.68471">
        <ele>200.47700500488</ele>
        <time>2009-08-03T13:24:00Z</time>
      </trkpt>
      <trkpt lat="44.82402" lon="4.6846">
        <ele>199.80499267578</ele>
        <time>2009-08-03T13:24:02Z</time>
      </trkpt>
      <trkpt lat="44.82337" lon="4.68428">
        <ele>195.2380065918</ele>
        <time>2009-08-03T13:24:11Z</time>
      </trkpt>
      <trkpt lat="44.82316" lon="4.68419">
        <ele>194.53799438477</ele>
        <time>2009-08-03T13:24:14Z</time>
      </trkpt>
      <trkpt lat="44.82311" lon="4.68391">
        <ele>193.38800048828</ele>
        <time>2009-08-03T13:24:20Z</time>
      </trkpt>
      <trkpt lat="44.82315" lon="4.6839">
        <ele>192.80299377441</ele>
        <time>2009-08-03T13:24:21Z</time>
      </trkpt>
      <trkpt lat="44.82333" lon="4.68386">
        <ele>191.58599853516</ele>
        <time>2009-08-03T13:24:24Z</time>
      </trkpt>
      <trkpt lat="44.82388" lon="4.68358">
        <ele>186.23199462891</ele>
        <time>2009-08-03T13:24:31Z</time>
      </trkpt>
      <trkpt lat="44.82412" lon="4.68355">
        <ele>184.46499633789</ele>
        <time>2009-08-03T13:24:34Z</time>
      </trkpt>
      <trkpt lat="44.82444" lon="4.6837">
        <ele>182.13200378418</ele>
        <time>2009-08-03T13:24:38Z</time>
      </trkpt>
      <trkpt lat="44.82472" lon="4.68372">
        <ele>181.23599243164</ele>
        <time>2009-08-03T13:24:42Z</time>
      </trkpt>
      <trkpt lat="44.82495" lon="4.68365">
        <ele>179.76300048828</ele>
        <time>2009-08-03T13:24:45Z</time>
      </trkpt>
      <trkpt lat="44.82513" lon="4.68329">
        <ele>176.88200378418</ele>
        <time>2009-08-03T13:24:50Z</time>
      </trkpt>
      <trkpt lat="44.82513" lon="4.68319">
        <ele>176.72399902344</ele>
        <time>2009-08-03T13:24:51Z</time>
      </trkpt>
      <trkpt lat="44.82514" lon="4.68308">
        <ele>176.47700500488</ele>
        <time>2009-08-03T13:24:52Z</time>
      </trkpt>
      <trkpt lat="44.82533" lon="4.68243">
        <ele>174.44000244141</ele>
        <time>2009-08-03T13:24:58Z</time>
      </trkpt>
      <trkpt lat="44.82518" lon="4.68199">
        <ele>172.10800170898</ele>
        <time>2009-08-03T13:25:04Z</time>
      </trkpt>
      <trkpt lat="44.82504" lon="4.68191">
        <ele>171.24600219727</ele>
        <time>2009-08-03T13:25:06Z</time>
      </trkpt>
      <trkpt lat="44.82481" lon="4.68184">
        <ele>171.2859954834</ele>
        <time>2009-08-03T13:25:10Z</time>
      </trkpt>
      <trkpt lat="44.82476" lon="4.68181">
        <ele>171.12100219727</ele>
        <time>2009-08-03T13:25:12Z</time>
      </trkpt>
      <trkpt lat="44.82487" lon="4.6816">
        <ele>169.28700256348</ele>
        <time>2009-08-03T13:25:21Z</time>
      </trkpt>
      <trkpt lat="44.82513" lon="4.68157">
        <ele>166.73300170898</ele>
        <time>2009-08-03T13:25:27Z</time>
      </trkpt>
      <trkpt lat="44.8253" lon="4.68115">
        <ele>164.37300109863</ele>
        <time>2009-08-03T13:25:33Z</time>
      </trkpt>
      <trkpt lat="44.82533" lon="4.68093">
        <ele>163.3690032959</ele>
        <time>2009-08-03T13:25:35Z</time>
      </trkpt>
      <trkpt lat="44.8255" lon="4.68023">
        <ele>160.30900573731</ele>
        <time>2009-08-03T13:25:41Z</time>
      </trkpt>
      <trkpt lat="44.82578" lon="4.68001">
        <ele>156.80200195312</ele>
        <time>2009-08-03T13:25:46Z</time>
      </trkpt>
      <trkpt lat="44.82591" lon="4.68003">
        <ele>156.13600158691</ele>
        <time>2009-08-03T13:25:48Z</time>
      </trkpt>
      <trkpt lat="44.82595" lon="4.68004">
        <ele>156.51300048828</ele>
        <time>2009-08-03T13:25:49Z</time>
      </trkpt>
      <trkpt lat="44.826" lon="4.68004">
        <ele>157.13000488281</ele>
        <time>2009-08-03T13:25:50Z</time>
      </trkpt>
      <trkpt lat="44.82608" lon="4.68004">
        <ele>156.91400146484</ele>
        <time>2009-08-03T13:25:52Z</time>
      </trkpt>
      <trkpt lat="44.82627" lon="4.67978">
        <ele>155.63499450684</ele>
        <time>2009-08-03T13:25:58Z</time>
      </trkpt>
      <trkpt lat="44.8263" lon="4.6787">
        <ele>154.6549987793</ele>
        <time>2009-08-03T13:26:12Z</time>
      </trkpt>
      <trkpt lat="44.82631" lon="4.67805">
        <ele>154.51499938965</ele>
        <time>2009-08-03T13:26:20Z</time>
      </trkpt>
      <trkpt lat="44.82634" lon="4.67774">
        <ele>154.15400695801</ele>
        <time>2009-08-03T13:26:24Z</time>
      </trkpt>
      <trkpt lat="44.82652" lon="4.67751">
        <ele>153.61700439453</ele>
        <time>2009-08-03T13:26:29Z</time>
      </trkpt>
      <trkpt lat="44.827" lon="4.67725">
        <ele>154.14799499512</ele>
        <time>2009-08-03T13:26:39Z</time>
      </trkpt>
      <trkpt lat="44.82772" lon="4.67688">
        <ele>154.5119934082</ele>
        <time>2009-08-03T13:26:55Z</time>
      </trkpt>
      <trkpt lat="44.82846" lon="4.67648">
        <ele>154.16600036621</ele>
        <time>2009-08-03T13:27:10Z</time>
      </trkpt>
      <trkpt lat="44.82873" lon="4.67634">
        <ele>154.97999572754</ele>
        <time>2009-08-03T13:27:16Z</time>
      </trkpt>
      <trkpt lat="44.82899" lon="4.6762">
        <ele>155.2140045166</ele>
        <time>2009-08-03T13:27:24Z</time>
      </trkpt>
      <trkpt lat="44.82904" lon="4.6762">
        <ele>155.44099426269</ele>
        <time>2009-08-03T13:27:29Z</time>
      </trkpt>
      <trkpt lat="44.82924" lon="4.67669">
        <ele>154.7619934082</ele>
        <time>2009-08-03T13:27:46Z</time>
      </trkpt>
      <trkpt lat="44.82945" lon="4.67726">
        <ele>154.77699279785</ele>
        <time>2009-08-03T13:27:54Z</time>
      </trkpt>
      <trkpt lat="44.82962" lon="4.67768">
        <ele>154.99099731445</ele>
        <time>2009-08-03T13:28:00Z</time>
      </trkpt>
      <trkpt lat="44.82972" lon="4.67789">
        <ele>154.79200744629</ele>
        <time>2009-08-03T13:28:04Z</time>
      </trkpt>
      <trkpt lat="44.82993" lon="4.67858">
        <ele>155.21499633789</ele>
        <time>2009-08-03T13:28:13Z</time>
      </trkpt>
      <trkpt lat="44.82991" lon="4.67976">
        <ele>155.40600585938</ele>
        <time>2009-08-03T13:28:26Z</time>
      </trkpt>
      <trkpt lat="44.82988" lon="4.68059">
        <ele>156.34700012207</ele>
        <time>2009-08-03T13:28:35Z</time>
      </trkpt>
      <trkpt lat="44.82986" lon="4.68086">
        <ele>156.64599609375</ele>
        <time>2009-08-03T13:28:38Z</time>
      </trkpt>
      <trkpt lat="44.8298" lon="4.68193">
        <ele>157.98100280762</ele>
        <time>2009-08-03T13:28:49Z</time>
      </trkpt>
      <trkpt lat="44.82976" lon="4.68362">
        <ele>160.625</ele>
        <time>2009-08-03T13:29:06Z</time>
      </trkpt>
      <trkpt lat="44.82945" lon="4.68472">
        <ele>162.93099975586</ele>
        <time>2009-08-03T13:29:19Z</time>
      </trkpt>
      <trkpt lat="44.8291" lon="4.68589">
        <ele>166.7799987793</ele>
        <time>2009-08-03T13:29:35Z</time>
      </trkpt>
      <trkpt lat="44.82905" lon="4.68619">
        <ele>167.68499755859</ele>
        <time>2009-08-03T13:29:39Z</time>
      </trkpt>
      <trkpt lat="44.8289" lon="4.6865">
        <ele>168.32000732422</ele>
        <time>2009-08-03T13:29:44Z</time>
      </trkpt>
      <trkpt lat="44.82868" lon="4.68682">
        <ele>169.47500610352</ele>
        <time>2009-08-03T13:29:50Z</time>
      </trkpt>
      <trkpt lat="44.82858" lon="4.68708">
        <ele>169.92300415039</ele>
        <time>2009-08-03T13:29:54Z</time>
      </trkpt>
      <trkpt lat="44.82854" lon="4.68738">
        <ele>170.51100158691</ele>
        <time>2009-08-03T13:29:58Z</time>
      </trkpt>
      <trkpt lat="44.82854" lon="4.68843">
        <ele>171.50399780273</ele>
        <time>2009-08-03T13:30:10Z</time>
      </trkpt>
      <trkpt lat="44.82816" lon="4.68953">
        <ele>172.86599731445</ele>
        <time>2009-08-03T13:30:24Z</time>
      </trkpt>
      <trkpt lat="44.82761" lon="4.69099">
        <ele>174.60899353027</ele>
        <time>2009-08-03T13:30:43Z</time>
      </trkpt>
      <trkpt lat="44.82742" lon="4.69234">
        <ele>175.11099243164</ele>
        <time>2009-08-03T13:30:58Z</time>
      </trkpt>
      <trkpt lat="44.8269" lon="4.69346">
        <ele>169.69799804688</ele>
        <time>2009-08-03T13:31:09Z</time>
      </trkpt>
      <trkpt lat="44.8261" lon="4.69497">
        <ele>164.85400390625</ele>
        <time>2009-08-03T13:31:21Z</time>
      </trkpt>
      <trkpt lat="44.82568" lon="4.69577">
        <ele>159.01899719238</ele>
        <time>2009-08-03T13:31:27Z</time>
      </trkpt>
      <trkpt lat="44.82546" lon="4.69618">
        <ele>156.26899719238</ele>
        <time>2009-08-03T13:31:30Z</time>
      </trkpt>
      <trkpt lat="44.82526" lon="4.69684">
        <ele>153.01100158691</ele>
        <time>2009-08-03T13:31:34Z</time>
      </trkpt>
      <trkpt lat="44.82508" lon="4.69793">
        <ele>147.44299316406</ele>
        <time>2009-08-03T13:31:40Z</time>
      </trkpt>
      <trkpt lat="44.82504" lon="4.6981">
        <ele>146.94000244141</ele>
        <time>2009-08-03T13:31:41Z</time>
      </trkpt>
      <trkpt lat="44.82458" lon="4.69876">
        <ele>149.92399597168</ele>
        <time>2009-08-03T13:31:47Z</time>
      </trkpt>
      <trkpt lat="44.82441" lon="4.69884">
        <ele>150.9700012207</ele>
        <time>2009-08-03T13:31:49Z</time>
      </trkpt>
      <trkpt lat="44.82412" lon="4.69898">
        <ele>152.55099487305</ele>
        <time>2009-08-03T13:31:53Z</time>
      </trkpt>
      <trkpt lat="44.82385" lon="4.69911">
        <ele>153.88600158691</ele>
        <time>2009-08-03T13:31:57Z</time>
      </trkpt>
      <trkpt lat="44.82338" lon="4.69934">
        <ele>153.59300231934</ele>
        <time>2009-08-03T13:32:04Z</time>
      </trkpt>
      <trkpt lat="44.82255" lon="4.69994">
        <ele>154.40699768066</ele>
        <time>2009-08-03T13:32:16Z</time>
      </trkpt>
      <trkpt lat="44.82243" lon="4.69999">
        <ele>155.22999572754</ele>
        <time>2009-08-03T13:32:18Z</time>
      </trkpt>
      <trkpt lat="44.82232" lon="4.70001">
        <ele>156.41700744629</ele>
        <time>2009-08-03T13:32:20Z</time>
      </trkpt>
      <trkpt lat="44.8222" lon="4.70001">
        <ele>157.07800292969</ele>
        <time>2009-08-03T13:32:22Z</time>
      </trkpt>
      <trkpt lat="44.82197" lon="4.69994">
        <ele>158.97099304199</ele>
        <time>2009-08-03T13:32:27Z</time>
      </trkpt>
      <trkpt lat="44.82184" lon="4.69988">
        <ele>159.85200500488</ele>
        <time>2009-08-03T13:32:30Z</time>
      </trkpt>
      <trkpt lat="44.82152" lon="4.6997">
        <ele>161.90299987793</ele>
        <time>2009-08-03T13:32:38Z</time>
      </trkpt>
      <trkpt lat="44.82112" lon="4.69948">
        <ele>165.03500366211</ele>
        <time>2009-08-03T13:32:49Z</time>
      </trkpt>
      <trkpt lat="44.82061" lon="4.69925">
        <ele>169.16200256348</ele>
        <time>2009-08-03T13:33:03Z</time>
      </trkpt>
      <trkpt lat="44.82013" lon="4.69939">
        <ele>172.20899963379</ele>
        <time>2009-08-03T13:33:16Z</time>
      </trkpt>
      <trkpt lat="44.81972" lon="4.70001">
        <ele>172.4640045166</ele>
        <time>2009-08-03T13:33:29Z</time>
      </trkpt>
      <trkpt lat="44.81918" lon="4.70095">
        <ele>173.14700317383</ele>
        <time>2009-08-03T13:33:44Z</time>
      </trkpt>
      <trkpt lat="44.81902" lon="4.70197">
        <ele>172.5890045166</ele>
        <time>2009-08-03T13:33:55Z</time>
      </trkpt>
      <trkpt lat="44.81913" lon="4.7027">
        <ele>170.95199584961</ele>
        <time>2009-08-03T13:34:02Z</time>
      </trkpt>
      <trkpt lat="44.8191" lon="4.70313">
        <ele>171.29100036621</ele>
        <time>2009-08-03T13:34:06Z</time>
      </trkpt>
      <trkpt lat="44.81901" lon="4.70381">
        <ele>170.04899597168</ele>
        <time>2009-08-03T13:34:12Z</time>
      </trkpt>
      <trkpt lat="44.81913" lon="4.7045">
        <ele>169.61000061035</ele>
        <time>2009-08-03T13:34:18Z</time>
      </trkpt>
      <trkpt lat="44.81904" lon="4.70524">
        <ele>169.49800109863</ele>
        <time>2009-08-03T13:34:24Z</time>
      </trkpt>
      <trkpt lat="44.81819" lon="4.70726">
        <ele>170.18099975586</ele>
        <time>2009-08-03T13:34:44Z</time>
      </trkpt>
      <trkpt lat="44.81766" lon="4.70856">
        <ele>171.44400024414</ele>
        <time>2009-08-03T13:34:59Z</time>
      </trkpt>
      <trkpt lat="44.81759" lon="4.70873">
        <ele>172.00399780273</ele>
        <time>2009-08-03T13:35:01Z</time>
      </trkpt>
      <trkpt lat="44.81688" lon="4.70969">
        <ele>173.11500549316</ele>
        <time>2009-08-03T13:35:15Z</time>
      </trkpt>
      <trkpt lat="44.8167" lon="4.70993">
        <ele>172.99299621582</ele>
        <time>2009-08-03T13:35:19Z</time>
      </trkpt>
      <trkpt lat="44.81657" lon="4.71023">
        <ele>171.95300292969</ele>
        <time>2009-08-03T13:35:23Z</time>
      </trkpt>
      <trkpt lat="44.81664" lon="4.711">
        <ele>171.41400146484</ele>
        <time>2009-08-03T13:35:31Z</time>
      </trkpt>
      <trkpt lat="44.81684" lon="4.71119">
        <ele>171.06399536133</ele>
        <time>2009-08-03T13:35:34Z</time>
      </trkpt>
      <trkpt lat="44.81748" lon="4.71173">
        <ele>168.45199584961</ele>
        <time>2009-08-03T13:35:43Z</time>
      </trkpt>
      <trkpt lat="44.81806" lon="4.71221">
        <ele>167.65199279785</ele>
        <time>2009-08-03T13:35:51Z</time>
      </trkpt>
      <trkpt lat="44.81826" lon="4.71244">
        <ele>167.3809967041</ele>
        <time>2009-08-03T13:35:54Z</time>
      </trkpt>
      <trkpt lat="44.81842" lon="4.71271">
        <ele>167.37399291992</ele>
        <time>2009-08-03T13:35:57Z</time>
      </trkpt>
      <trkpt lat="44.8188" lon="4.71293">
        <ele>165.44900512695</ele>
        <time>2009-08-03T13:36:02Z</time>
      </trkpt>
      <trkpt lat="44.81897" lon="4.71296">
        <ele>165.43899536133</ele>
        <time>2009-08-03T13:36:04Z</time>
      </trkpt>
      <trkpt lat="44.81929" lon="4.71345">
        <ele>162.70500183106</ele>
        <time>2009-08-03T13:36:10Z</time>
      </trkpt>
      <trkpt lat="44.81928" lon="4.71436">
        <ele>160.7619934082</ele>
        <time>2009-08-03T13:36:18Z</time>
      </trkpt>
      <trkpt lat="44.81945" lon="4.71461">
        <ele>160.57000732422</ele>
        <time>2009-08-03T13:36:21Z</time>
      </trkpt>
      <trkpt lat="44.81995" lon="4.71495">
        <ele>159.58999633789</ele>
        <time>2009-08-03T13:36:28Z</time>
      </trkpt>
      <trkpt lat="44.8202" lon="4.71561">
        <ele>157.80599975586</ele>
        <time>2009-08-03T13:36:35Z</time>
      </trkpt>
      <trkpt lat="44.82014" lon="4.71595">
        <ele>145.64900207519</ele>
        <time>2009-08-03T13:36:38Z</time>
      </trkpt>
      <trkpt lat="44.82012" lon="4.71606">
        <ele>166.75300598144</ele>
        <time>2009-08-03T13:36:39Z</time>
      </trkpt>
      <trkpt lat="44.82011" lon="4.71618">
        <ele>158.375</ele>
        <time>2009-08-03T13:36:40Z</time>
      </trkpt>
      <trkpt lat="44.82013" lon="4.71641">
        <ele>156.72599792481</ele>
        <time>2009-08-03T13:36:42Z</time>
      </trkpt>
      <trkpt lat="44.82027" lon="4.71668">
        <ele>154.39599609375</ele>
        <time>2009-08-03T13:36:45Z</time>
      </trkpt>
      <trkpt lat="44.82034" lon="4.71673">
        <ele>165.65600585938</ele>
        <time>2009-08-03T13:36:46Z</time>
      </trkpt>
      <trkpt lat="44.82053" lon="4.71694">
        <ele>156.00700378418</ele>
        <time>2009-08-03T13:36:49Z</time>
      </trkpt>
      <trkpt lat="44.82062" lon="4.71712">
        <ele>155.79200744629</ele>
        <time>2009-08-03T13:36:51Z</time>
      </trkpt>
      <trkpt lat="44.82086" lon="4.71771">
        <ele>154.54400634766</ele>
        <time>2009-08-03T13:36:57Z</time>
      </trkpt>
      <trkpt lat="44.8209" lon="4.7178">
        <ele>154.3630065918</ele>
        <time>2009-08-03T13:36:58Z</time>
      </trkpt>
      <trkpt lat="44.82137" lon="4.71869">
        <ele>152.19099426269</ele>
        <time>2009-08-03T13:37:07Z</time>
      </trkpt>
      <trkpt lat="44.82154" lon="4.71955">
        <ele>150.39500427246</ele>
        <time>2009-08-03T13:37:14Z</time>
      </trkpt>
      <trkpt lat="44.82146" lon="4.72069">
        <ele>148.8450012207</ele>
        <time>2009-08-03T13:37:23Z</time>
      </trkpt>
      <trkpt lat="44.82115" lon="4.72177">
        <ele>147.2440032959</ele>
        <time>2009-08-03T13:37:32Z</time>
      </trkpt>
      <trkpt lat="44.82094" lon="4.72207">
        <ele>146.29200744629</ele>
        <time>2009-08-03T13:37:35Z</time>
      </trkpt>
      <trkpt lat="44.82049" lon="4.72232">
        <ele>144.46200561523</ele>
        <time>2009-08-03T13:37:40Z</time>
      </trkpt>
      <trkpt lat="44.82029" lon="4.72234">
        <ele>143.46299743652</ele>
        <time>2009-08-03T13:37:42Z</time>
      </trkpt>
      <trkpt lat="44.81989" lon="4.7228">
        <ele>142.37100219727</ele>
        <time>2009-08-03T13:37:48Z</time>
      </trkpt>
      <trkpt lat="44.81989" lon="4.72317">
        <ele>142.49800109863</ele>
        <time>2009-08-03T13:37:51Z</time>
      </trkpt>
      <trkpt lat="44.81978" lon="4.72408">
        <ele>139.625</ele>
        <time>2009-08-03T13:37:58Z</time>
      </trkpt>
      <trkpt lat="44.81961" lon="4.72444">
        <ele>138.77099609375</ele>
        <time>2009-08-03T13:38:01Z</time>
      </trkpt>
      <trkpt lat="44.81948" lon="4.72485">
        <ele>137.32200622559</ele>
        <time>2009-08-03T13:38:04Z</time>
      </trkpt>
      <trkpt lat="44.81946" lon="4.7253">
        <ele>136.38600158691</ele>
        <time>2009-08-03T13:38:07Z</time>
      </trkpt>
      <trkpt lat="44.81948" lon="4.72562">
        <ele>135.62100219727</ele>
        <time>2009-08-03T13:38:09Z</time>
      </trkpt>
      <trkpt lat="44.81967" lon="4.72619">
        <ele>133.30599975586</ele>
        <time>2009-08-03T13:38:13Z</time>
      </trkpt>
      <trkpt lat="44.81996" lon="4.72682">
        <ele>131.89700317383</ele>
        <time>2009-08-03T13:38:18Z</time>
      </trkpt>
      <trkpt lat="44.8205" lon="4.72718">
        <ele>131.2559967041</ele>
        <time>2009-08-03T13:38:24Z</time>
      </trkpt>
      <trkpt lat="44.8206" lon="4.72715">
        <ele>130.49899291992</ele>
        <time>2009-08-03T13:38:25Z</time>
      </trkpt>
      <trkpt lat="44.82124" lon="4.72736">
        <ele>129.13200378418</ele>
        <time>2009-08-03T13:38:32Z</time>
      </trkpt>
      <trkpt lat="44.82134" lon="4.72758">
        <ele>128.83299255371</ele>
        <time>2009-08-03T13:38:34Z</time>
      </trkpt>
      <trkpt lat="44.82174" lon="4.72804">
        <ele>127.5059967041</ele>
        <time>2009-08-03T13:38:39Z</time>
      </trkpt>
      <trkpt lat="44.82203" lon="4.72821">
        <ele>126.21199798584</ele>
        <time>2009-08-03T13:38:42Z</time>
      </trkpt>
      <trkpt lat="44.82245" lon="4.72858">
        <ele>124.74600219727</ele>
        <time>2009-08-03T13:38:47Z</time>
      </trkpt>
      <trkpt lat="44.82297" lon="4.72946">
        <ele>125.17700195312</ele>
        <time>2009-08-03T13:38:56Z</time>
      </trkpt>
      <trkpt lat="44.8232" lon="4.73027">
        <ele>124.91200256348</ele>
        <time>2009-08-03T13:39:03Z</time>
      </trkpt>
      <trkpt lat="44.82327" lon="4.73077">
        <ele>124.83499908447</ele>
        <time>2009-08-03T13:39:07Z</time>
      </trkpt>
      <trkpt lat="44.8233" lon="4.73091">
        <ele>124.87400054932</ele>
        <time>2009-08-03T13:39:08Z</time>
      </trkpt>
      <trkpt lat="44.82358" lon="4.73243">
        <ele>125.0120010376</ele>
        <time>2009-08-03T13:39:20Z</time>
      </trkpt>
      <trkpt lat="44.82372" lon="4.73307">
        <ele>124.63200378418</ele>
        <time>2009-08-03T13:39:25Z</time>
      </trkpt>
      <trkpt lat="44.82388" lon="4.73424">
        <ele>124.16200256348</ele>
        <time>2009-08-03T13:39:35Z</time>
      </trkpt>
      <trkpt lat="44.824" lon="4.73485">
        <ele>122.4049987793</ele>
        <time>2009-08-03T13:39:40Z</time>
      </trkpt>
      <trkpt lat="44.82395" lon="4.73617">
        <ele>123.1129989624</ele>
        <time>2009-08-03T13:39:51Z</time>
      </trkpt>
      <trkpt lat="44.82363" lon="4.73705">
        <ele>122.99700164795</ele>
        <time>2009-08-03T13:39:59Z</time>
      </trkpt>
      <trkpt lat="44.82357" lon="4.73766">
        <ele>122.82900238037</ele>
        <time>2009-08-03T13:40:04Z</time>
      </trkpt>
      <trkpt lat="44.82363" lon="4.73912">
        <ele>121.56800079346</ele>
        <time>2009-08-03T13:40:16Z</time>
      </trkpt>
      <trkpt lat="44.82359" lon="4.74047">
        <ele>121.172996521</ele>
        <time>2009-08-03T13:40:27Z</time>
      </trkpt>
      <trkpt lat="44.82344" lon="4.74138">
        <ele>120.67900085449</ele>
        <time>2009-08-03T13:40:35Z</time>
      </trkpt>
      <trkpt lat="44.82339" lon="4.74191">
        <ele>120.52700042725</ele>
        <time>2009-08-03T13:40:40Z</time>
      </trkpt>
      <trkpt lat="44.82342" lon="4.74233">
        <ele>120.92500305176</ele>
        <time>2009-08-03T13:40:44Z</time>
      </trkpt>
      <trkpt lat="44.82345" lon="4.74256">
        <ele>120.82299804688</ele>
        <time>2009-08-03T13:40:46Z</time>
      </trkpt>
      <trkpt lat="44.82368" lon="4.74418">
        <ele>120.43000030518</ele>
        <time>2009-08-03T13:41:00Z</time>
      </trkpt>
      <trkpt lat="44.82385" lon="4.74569">
        <ele>120.46900177002</ele>
        <time>2009-08-03T13:41:14Z</time>
      </trkpt>
      <trkpt lat="44.82387" lon="4.74588">
        <ele>120.48899841309</ele>
        <time>2009-08-03T13:41:16Z</time>
      </trkpt>
      <trkpt lat="44.82389" lon="4.74607">
        <ele>120.84300231934</ele>
        <time>2009-08-03T13:41:18Z</time>
      </trkpt>
      <trkpt lat="44.82391" lon="4.74626">
        <ele>120.52300262451</ele>
        <time>2009-08-03T13:41:20Z</time>
      </trkpt>
      <trkpt lat="44.82401" lon="4.74706">
        <ele>120.30599975586</ele>
        <time>2009-08-03T13:41:29Z</time>
      </trkpt>
      <trkpt lat="44.82417" lon="4.7471">
        <ele>120.91300201416</ele>
        <time>2009-08-03T13:41:34Z</time>
      </trkpt>
      <trkpt lat="44.82434" lon="4.74697">
        <ele>121.65000152588</ele>
        <time>2009-08-03T13:41:41Z</time>
      </trkpt>
      <trkpt lat="44.82433" lon="4.74696">
        <ele>121.58399963379</ele>
        <time>2009-08-03T13:41:43Z</time>
      </trkpt>
      <trkpt lat="44.82436" lon="4.7469">
        <ele>121.5</ele>
        <time>2009-08-03T13:43:05Z</time>
      </trkpt>
      <trkpt lat="44.82424" lon="4.74704">
        <ele>120.97799682617</ele>
        <time>2009-08-03T13:43:14Z</time>
      </trkpt>
      <trkpt lat="44.82426" lon="4.74702">
        <ele>120.84600067139</ele>
        <time>2009-08-03T13:43:15Z</time>
      </trkpt>
      <trkpt lat="44.82466" lon="4.74676">
        <ele>123.91200256348</ele>
        <time>2009-08-03T13:43:28Z</time>
      </trkpt>
      <trkpt lat="44.82478" lon="4.74668">
        <ele>123.90699768066</ele>
        <time>2009-08-03T13:43:32Z</time>
      </trkpt>
      <trkpt lat="44.82495" lon="4.7466">
        <ele>127.90599822998</ele>
        <time>2009-08-03T13:43:38Z</time>
      </trkpt>
      <trkpt lat="44.82508" lon="4.74649">
        <ele>129.79800415039</ele>
        <time>2009-08-03T13:43:44Z</time>
      </trkpt>
      <trkpt lat="44.82523" lon="4.74633">
        <ele>131.42799377441</ele>
        <time>2009-08-03T13:43:51Z</time>
      </trkpt>
      <trkpt lat="44.82543" lon="4.74609">
        <ele>133.94999694824</ele>
        <time>2009-08-03T13:44:01Z</time>
      </trkpt>
      <trkpt lat="44.8256" lon="4.7459">
        <ele>135.97300720215</ele>
        <time>2009-08-03T13:44:09Z</time>
      </trkpt>
      <trkpt lat="44.82593" lon="4.74582">
        <ele>140.27400207519</ele>
        <time>2009-08-03T13:44:23Z</time>
      </trkpt>
      <trkpt lat="44.82621" lon="4.74575">
        <ele>143.50900268555</ele>
        <time>2009-08-03T13:44:36Z</time>
      </trkpt>
      <trkpt lat="44.82648" lon="4.7457">
        <ele>146.39500427246</ele>
        <time>2009-08-03T13:44:49Z</time>
      </trkpt>
      <trkpt lat="44.82687" lon="4.74559">
        <ele>149.1609954834</ele>
        <time>2009-08-03T13:45:03Z</time>
      </trkpt>
      <trkpt lat="44.82717" lon="4.74545">
        <ele>150.18299865723</ele>
        <time>2009-08-03T13:45:13Z</time>
      </trkpt>
      <trkpt lat="44.82733" lon="4.74534">
        <ele>151.99899291992</ele>
        <time>2009-08-03T13:45:18Z</time>
      </trkpt>
      <trkpt lat="44.82755" lon="4.74517">
        <ele>154.95300292969</ele>
        <time>2009-08-03T13:45:26Z</time>
      </trkpt>
      <trkpt lat="44.82785" lon="4.74486">
        <ele>157.64799499512</ele>
        <time>2009-08-03T13:45:40Z</time>
      </trkpt>
      <trkpt lat="44.82818" lon="4.74447">
        <ele>161.29299926758</ele>
        <time>2009-08-03T13:45:55Z</time>
      </trkpt>
      <trkpt lat="44.82844" lon="4.74414">
        <ele>165.64100646973</ele>
        <time>2009-08-03T13:46:09Z</time>
      </trkpt>
      <trkpt lat="44.82869" lon="4.74366">
        <ele>169.16299438477</ele>
        <time>2009-08-03T13:46:27Z</time>
      </trkpt>
      <trkpt lat="44.8288" lon="4.7434">
        <ele>171.39999389648</ele>
        <time>2009-08-03T13:46:36Z</time>
      </trkpt>
      <trkpt lat="44.82909" lon="4.74287">
        <ele>174.22300720215</ele>
        <time>2009-08-03T13:46:52Z</time>
      </trkpt>
      <trkpt lat="44.82938" lon="4.74233">
        <ele>179.06599426269</ele>
        <time>2009-08-03T13:47:08Z</time>
      </trkpt>
      <trkpt lat="44.82962" lon="4.74197">
        <ele>182.70700073242</ele>
        <time>2009-08-03T13:47:22Z</time>
      </trkpt>
      <trkpt lat="44.82972" lon="4.74151">
        <ele>184.99600219727</ele>
        <time>2009-08-03T13:47:34Z</time>
      </trkpt>
      <trkpt lat="44.82995" lon="4.74149">
        <ele>185.58599853516</ele>
        <time>2009-08-03T13:47:42Z</time>
      </trkpt>
      <trkpt lat="44.83032" lon="4.74141">
        <ele>187.61799621582</ele>
        <time>2009-08-03T13:47:53Z</time>
      </trkpt>
      <trkpt lat="44.83072" lon="4.74093">
        <ele>192.35299682617</ele>
        <time>2009-08-03T13:48:09Z</time>
      </trkpt>
      <trkpt lat="44.83099" lon="4.74064">
        <ele>195.65899658203</ele>
        <time>2009-08-03T13:48:20Z</time>
      </trkpt>
      <trkpt lat="44.83124" lon="4.74038">
        <ele>198.67199707031</ele>
        <time>2009-08-03T13:48:32Z</time>
      </trkpt>
      <trkpt lat="44.83156" lon="4.74028">
        <ele>201.61199951172</ele>
        <time>2009-08-03T13:48:45Z</time>
      </trkpt>
      <trkpt lat="44.83185" lon="4.74006">
        <ele>204.92700195312</ele>
        <time>2009-08-03T13:48:59Z</time>
      </trkpt>
      <trkpt lat="44.83203" lon="4.73971">
        <ele>208.30999755859</ele>
        <time>2009-08-03T13:49:13Z</time>
      </trkpt>
      <trkpt lat="44.83212" lon="4.73927">
        <ele>212.10099792481</ele>
        <time>2009-08-03T13:49:28Z</time>
      </trkpt>
      <trkpt lat="44.83223" lon="4.73884">
        <ele>215.19799804688</ele>
        <time>2009-08-03T13:49:43Z</time>
      </trkpt>
      <trkpt lat="44.83229" lon="4.7385">
        <ele>218.30799865723</ele>
        <time>2009-08-03T13:49:56Z</time>
      </trkpt>
      <trkpt lat="44.83234" lon="4.73805">
        <ele>221.08299255371</ele>
        <time>2009-08-03T13:50:10Z</time>
      </trkpt>
      <trkpt lat="44.83237" lon="4.73762">
        <ele>224.8690032959</ele>
        <time>2009-08-03T13:50:25Z</time>
      </trkpt>
      <trkpt lat="44.83229" lon="4.73728">
        <ele>228.02099609375</ele>
        <time>2009-08-03T13:50:39Z</time>
      </trkpt>
      <trkpt lat="44.83221" lon="4.73684">
        <ele>230.86500549316</ele>
        <time>2009-08-03T13:50:55Z</time>
      </trkpt>
      <trkpt lat="44.83213" lon="4.73634">
        <ele>233.24299621582</ele>
        <time>2009-08-03T13:51:08Z</time>
      </trkpt>
      <trkpt lat="44.83202" lon="4.73578">
        <ele>237.05299377441</ele>
        <time>2009-08-03T13:51:24Z</time>
      </trkpt>
      <trkpt lat="44.83215" lon="4.73543">
        <ele>240.51300048828</ele>
        <time>2009-08-03T13:51:36Z</time>
      </trkpt>
      <trkpt lat="44.83206" lon="4.73499">
        <ele>244.76899719238</ele>
        <time>2009-08-03T13:51:51Z</time>
      </trkpt>
      <trkpt lat="44.83212" lon="4.73459">
        <ele>247.82499694824</ele>
        <time>2009-08-03T13:52:04Z</time>
      </trkpt>
      <trkpt lat="44.83242" lon="4.73429">
        <ele>252.03799438477</ele>
        <time>2009-08-03T13:52:19Z</time>
      </trkpt>
      <trkpt lat="44.83255" lon="4.73389">
        <ele>255.44599914551</ele>
        <time>2009-08-03T13:52:32Z</time>
      </trkpt>
      <trkpt lat="44.83233" lon="4.73325">
        <ele>258.92001342773</ele>
        <time>2009-08-03T13:52:47Z</time>
      </trkpt>
      <trkpt lat="44.83236" lon="4.73279">
        <ele>262.23199462891</ele>
        <time>2009-08-03T13:52:59Z</time>
      </trkpt>
      <trkpt lat="44.83246" lon="4.73236">
        <ele>265.65301513672</ele>
        <time>2009-08-03T13:53:12Z</time>
      </trkpt>
      <trkpt lat="44.83255" lon="4.73185">
        <ele>269.90200805664</ele>
        <time>2009-08-03T13:53:26Z</time>
      </trkpt>
      <trkpt lat="44.83284" lon="4.73161">
        <ele>272.99600219727</ele>
        <time>2009-08-03T13:53:38Z</time>
      </trkpt>
      <trkpt lat="44.83327" lon="4.73159">
        <ele>277.04400634766</ele>
        <time>2009-08-03T13:53:53Z</time>
      </trkpt>
      <trkpt lat="44.83354" lon="4.73154">
        <ele>280.84600830078</ele>
        <time>2009-08-03T13:54:07Z</time>
      </trkpt>
      <trkpt lat="44.83364" lon="4.73121">
        <ele>284.4049987793</ele>
        <time>2009-08-03T13:54:22Z</time>
      </trkpt>
      <trkpt lat="44.8337" lon="4.73102">
        <ele>286.47500610352</ele>
        <time>2009-08-03T13:54:30Z</time>
      </trkpt>
      <trkpt lat="44.83382" lon="4.73096">
        <ele>288.4469909668</ele>
        <time>2009-08-03T13:54:38Z</time>
      </trkpt>
      <trkpt lat="44.83412" lon="4.73102">
        <ele>291.12100219727</ele>
        <time>2009-08-03T13:54:52Z</time>
      </trkpt>
      <trkpt lat="44.83441" lon="4.73092">
        <ele>295.12899780273</ele>
        <time>2009-08-03T13:55:08Z</time>
      </trkpt>
      <trkpt lat="44.83459" lon="4.73079">
        <ele>297.00601196289</ele>
        <time>2009-08-03T13:55:18Z</time>
      </trkpt>
      <trkpt lat="44.83496" lon="4.7306">
        <ele>302.00698852539</ele>
        <time>2009-08-03T13:55:36Z</time>
      </trkpt>
      <trkpt lat="44.83519" lon="4.73062">
        <ele>304.30499267578</ele>
        <time>2009-08-03T13:55:47Z</time>
      </trkpt>
      <trkpt lat="44.83544" lon="4.73072">
        <ele>307.13400268555</ele>
        <time>2009-08-03T13:56:00Z</time>
      </trkpt>
      <trkpt lat="44.83565" lon="4.73057">
        <ele>310.63500976562</ele>
        <time>2009-08-03T13:56:12Z</time>
      </trkpt>
      <trkpt lat="44.8359" lon="4.73018">
        <ele>313.02899169922</ele>
        <time>2009-08-03T13:56:25Z</time>
      </trkpt>
      <trkpt lat="44.83622" lon="4.73005">
        <ele>317.47198486328</ele>
        <time>2009-08-03T13:56:40Z</time>
      </trkpt>
      <trkpt lat="44.83659" lon="4.73002">
        <ele>321.17199707031</ele>
        <time>2009-08-03T13:56:56Z</time>
      </trkpt>
      <trkpt lat="44.83695" lon="4.72983">
        <ele>324.66799926758</ele>
        <time>2009-08-03T13:57:10Z</time>
      </trkpt>
      <trkpt lat="44.83718" lon="4.72948">
        <ele>328.2799987793</ele>
        <time>2009-08-03T13:57:25Z</time>
      </trkpt>
      <trkpt lat="44.83735" lon="4.72899">
        <ele>331.85998535156</ele>
        <time>2009-08-03T13:57:41Z</time>
      </trkpt>
      <trkpt lat="44.83736" lon="4.72893">
        <ele>332.19000244141</ele>
        <time>2009-08-03T13:57:43Z</time>
      </trkpt>
      <trkpt lat="44.83762" lon="4.72855">
        <ele>336.34899902344</ele>
        <time>2009-08-03T13:58:01Z</time>
      </trkpt>
      <trkpt lat="44.83787" lon="4.72834">
        <ele>340.72500610352</ele>
        <time>2009-08-03T13:58:17Z</time>
      </trkpt>
      <trkpt lat="44.83812" lon="4.72804">
        <ele>343.59399414062</ele>
        <time>2009-08-03T13:58:32Z</time>
      </trkpt>
      <trkpt lat="44.83851" lon="4.72782">
        <ele>346.7200012207</ele>
        <time>2009-08-03T13:58:48Z</time>
      </trkpt>
      <trkpt lat="44.83914" lon="4.72782">
        <ele>349.90798950195</ele>
        <time>2009-08-03T13:59:06Z</time>
      </trkpt>
      <trkpt lat="44.83944" lon="4.72787">
        <ele>351.31900024414</ele>
        <time>2009-08-03T13:59:14Z</time>
      </trkpt>
      <trkpt lat="44.8397" lon="4.72784">
        <ele>351.64801025391</ele>
        <time>2009-08-03T13:59:20Z</time>
      </trkpt>
      <trkpt lat="44.84027" lon="4.72745">
        <ele>351.98300170898</ele>
        <time>2009-08-03T13:59:33Z</time>
      </trkpt>
      <trkpt lat="44.84094" lon="4.72722">
        <ele>355.29299926758</ele>
        <time>2009-08-03T13:59:47Z</time>
      </trkpt>
      <trkpt lat="44.84164" lon="4.72719">
        <ele>359.3630065918</ele>
        <time>2009-08-03T14:00:05Z</time>
      </trkpt>
      <trkpt lat="44.84208" lon="4.72709">
        <ele>362.29699707031</ele>
        <time>2009-08-03T14:00:18Z</time>
      </trkpt>
      <trkpt lat="44.84242" lon="4.72675">
        <ele>367.26998901367</ele>
        <time>2009-08-03T14:00:34Z</time>
      </trkpt>
      <trkpt lat="44.84255" lon="4.72649">
        <ele>370.68399047852</ele>
        <time>2009-08-03T14:00:45Z</time>
      </trkpt>
      <trkpt lat="44.84279" lon="4.72622">
        <ele>374.83999633789</ele>
        <time>2009-08-03T14:01:01Z</time>
      </trkpt>
      <trkpt lat="44.84305" lon="4.72602">
        <ele>377.95498657227</ele>
        <time>2009-08-03T14:01:17Z</time>
      </trkpt>
      <trkpt lat="44.8433" lon="4.72585">
        <ele>381.80899047852</ele>
        <time>2009-08-03T14:01:33Z</time>
      </trkpt>
      <trkpt lat="44.84346" lon="4.72571">
        <ele>384.76800537109</ele>
        <time>2009-08-03T14:01:45Z</time>
      </trkpt>
      <trkpt lat="44.84374" lon="4.72548">
        <ele>388.19000244141</ele>
        <time>2009-08-03T14:02:03Z</time>
      </trkpt>
      <trkpt lat="44.844" lon="4.72531">
        <ele>392.03201293945</ele>
        <time>2009-08-03T14:02:18Z</time>
      </trkpt>
      <trkpt lat="44.84429" lon="4.72513">
        <ele>394.99899291992</ele>
        <time>2009-08-03T14:02:32Z</time>
      </trkpt>
      <trkpt lat="44.84452" lon="4.72485">
        <ele>398.06201171875</ele>
        <time>2009-08-03T14:02:47Z</time>
      </trkpt>
      <trkpt lat="44.84472" lon="4.72464">
        <ele>401.07400512695</ele>
        <time>2009-08-03T14:03:01Z</time>
      </trkpt>
      <trkpt lat="44.845" lon="4.72445">
        <ele>404.50900268555</ele>
        <time>2009-08-03T14:03:17Z</time>
      </trkpt>
      <trkpt lat="44.8453" lon="4.72427">
        <ele>407.16198730469</ele>
        <time>2009-08-03T14:03:32Z</time>
      </trkpt>
      <trkpt lat="44.84542" lon="4.72424">
        <ele>409.14498901367</ele>
        <time>2009-08-03T14:03:37Z</time>
      </trkpt>
      <trkpt lat="44.84579" lon="4.72421">
        <ele>411.72399902344</ele>
        <time>2009-08-03T14:03:52Z</time>
      </trkpt>
      <trkpt lat="44.84634" lon="4.72431">
        <ele>415.93499755859</ele>
        <time>2009-08-03T14:04:11Z</time>
      </trkpt>
      <trkpt lat="44.84668" lon="4.72422">
        <ele>417.74499511719</ele>
        <time>2009-08-03T14:04:21Z</time>
      </trkpt>
      <trkpt lat="44.8474" lon="4.72399">
        <ele>420.63198852539</ele>
        <time>2009-08-03T14:04:40Z</time>
      </trkpt>
      <trkpt lat="44.84756" lon="4.72394">
        <ele>422.7619934082</ele>
        <time>2009-08-03T14:04:45Z</time>
      </trkpt>
      <trkpt lat="44.84786" lon="4.72379">
        <ele>426.05099487305</ele>
        <time>2009-08-03T14:04:56Z</time>
      </trkpt>
      <trkpt lat="44.84819" lon="4.72355">
        <ele>431.28100585938</ele>
        <time>2009-08-03T14:05:13Z</time>
      </trkpt>
      <trkpt lat="44.84833" lon="4.72341">
        <ele>432.78298950195</ele>
        <time>2009-08-03T14:05:21Z</time>
      </trkpt>
      <trkpt lat="44.84871" lon="4.72322">
        <ele>437.12899780273</ele>
        <time>2009-08-03T14:05:39Z</time>
      </trkpt>
      <trkpt lat="44.84877" lon="4.72319">
        <ele>438.49398803711</ele>
        <time>2009-08-03T14:05:42Z</time>
      </trkpt>
      <trkpt lat="44.84906" lon="4.72313">
        <ele>442.25601196289</ele>
        <time>2009-08-03T14:05:57Z</time>
      </trkpt>
      <trkpt lat="44.84935" lon="4.72306">
        <ele>446.73999023438</ele>
        <time>2009-08-03T14:06:12Z</time>
      </trkpt>
      <trkpt lat="44.84964" lon="4.72281">
        <ele>449.49398803711</ele>
        <time>2009-08-03T14:06:27Z</time>
      </trkpt>
      <trkpt lat="44.84965" lon="4.72235">
        <ele>452.94198608398</ele>
        <time>2009-08-03T14:06:42Z</time>
      </trkpt>
      <trkpt lat="44.84951" lon="4.7218">
        <ele>457.50500488281</ele>
        <time>2009-08-03T14:07:00Z</time>
      </trkpt>
      <trkpt lat="44.84927" lon="4.72142">
        <ele>460.39999389648</ele>
        <time>2009-08-03T14:07:15Z</time>
      </trkpt>
      <trkpt lat="44.84901" lon="4.72104">
        <ele>464.31100463867</ele>
        <time>2009-08-03T14:07:31Z</time>
      </trkpt>
      <trkpt lat="44.84869" lon="4.72054">
        <ele>468.60400390625</ele>
        <time>2009-08-03T14:07:47Z</time>
      </trkpt>
      <trkpt lat="44.84847" lon="4.72006">
        <ele>471.65100097656</ele>
        <time>2009-08-03T14:08:02Z</time>
      </trkpt>
      <trkpt lat="44.84861" lon="4.71981">
        <ele>475.06600952148</ele>
        <time>2009-08-03T14:08:14Z</time>
      </trkpt>
      <trkpt lat="44.8488" lon="4.71982">
        <ele>477.14999389648</ele>
        <time>2009-08-03T14:08:22Z</time>
      </trkpt>
      <trkpt lat="44.84918" lon="4.71981">
        <ele>478.49899291992</ele>
        <time>2009-08-03T14:08:36Z</time>
      </trkpt>
      <trkpt lat="44.84934" lon="4.71973">
        <ele>481.07800292969</ele>
        <time>2009-08-03T14:08:42Z</time>
      </trkpt>
      <trkpt lat="44.84964" lon="4.71952">
        <ele>484.63000488281</ele>
        <time>2009-08-03T14:08:57Z</time>
      </trkpt>
      <trkpt lat="44.84996" lon="4.71933">
        <ele>487.50100708008</ele>
        <time>2009-08-03T14:09:12Z</time>
      </trkpt>
      <trkpt lat="44.8503" lon="4.71908">
        <ele>491.26400756836</ele>
        <time>2009-08-03T14:09:28Z</time>
      </trkpt>
      <trkpt lat="44.85056" lon="4.71878">
        <ele>494.80099487305</ele>
        <time>2009-08-03T14:09:43Z</time>
      </trkpt>
      <trkpt lat="44.85082" lon="4.71836">
        <ele>498.75900268555</ele>
        <time>2009-08-03T14:10:01Z</time>
      </trkpt>
      <trkpt lat="44.85122" lon="4.71778">
        <ele>502.76400756836</ele>
        <time>2009-08-03T14:10:21Z</time>
      </trkpt>
      <trkpt lat="44.85147" lon="4.71727">
        <ele>506.83499145508</ele>
        <time>2009-08-03T14:10:37Z</time>
      </trkpt>
      <trkpt lat="44.85163" lon="4.71689">
        <ele>509.86700439453</ele>
        <time>2009-08-03T14:10:48Z</time>
      </trkpt>
      <trkpt lat="44.85184" lon="4.71623">
        <ele>511.03500366211</ele>
        <time>2009-08-03T14:11:03Z</time>
      </trkpt>
      <trkpt lat="44.85205" lon="4.71559">
        <ele>514.98699951172</ele>
        <time>2009-08-03T14:11:19Z</time>
      </trkpt>
      <trkpt lat="44.8523" lon="4.71503">
        <ele>519.57501220703</ele>
        <time>2009-08-03T14:11:38Z</time>
      </trkpt>
      <trkpt lat="44.85258" lon="4.7145">
        <ele>522.87701416016</ele>
        <time>2009-08-03T14:11:55Z</time>
      </trkpt>
      <trkpt lat="44.85268" lon="4.71407">
        <ele>524.77801513672</ele>
        <time>2009-08-03T14:12:05Z</time>
      </trkpt>
      <trkpt lat="44.85263" lon="4.71356">
        <ele>527.98999023438</ele>
        <time>2009-08-03T14:12:18Z</time>
      </trkpt>
      <trkpt lat="44.85261" lon="4.71275">
        <ele>529.73901367188</ele>
        <time>2009-08-03T14:12:35Z</time>
      </trkpt>
      <trkpt lat="44.85258" lon="4.71207">
        <ele>532.69097900391</ele>
        <time>2009-08-03T14:12:49Z</time>
      </trkpt>
      <trkpt lat="44.85291" lon="4.71191">
        <ele>534.32598876953</ele>
        <time>2009-08-03T14:12:59Z</time>
      </trkpt>
      <trkpt lat="44.85295" lon="4.71191">
        <ele>534.49700927734</ele>
        <time>2009-08-03T14:13:00Z</time>
      </trkpt>
      <trkpt lat="44.8536" lon="4.7123">
        <ele>536.34802246094</ele>
        <time>2009-08-03T14:13:15Z</time>
      </trkpt>
      <trkpt lat="44.85398" lon="4.71274">
        <ele>539.44702148438</ele>
        <time>2009-08-03T14:13:27Z</time>
      </trkpt>
      <trkpt lat="44.85419" lon="4.71301">
        <ele>543.72399902344</ele>
        <time>2009-08-03T14:13:39Z</time>
      </trkpt>
      <trkpt lat="44.85445" lon="4.71326">
        <ele>547.39697265625</ele>
        <time>2009-08-03T14:13:52Z</time>
      </trkpt>
      <trkpt lat="44.8548" lon="4.7133">
        <ele>550.23699951172</ele>
        <time>2009-08-03T14:14:06Z</time>
      </trkpt>
      <trkpt lat="44.855" lon="4.71322">
        <ele>552.45599365234</ele>
        <time>2009-08-03T14:14:15Z</time>
      </trkpt>
      <trkpt lat="44.85529" lon="4.71304">
        <ele>555.39202880859</ele>
        <time>2009-08-03T14:14:28Z</time>
      </trkpt>
      <trkpt lat="44.85568" lon="4.71274">
        <ele>558.43103027344</ele>
        <time>2009-08-03T14:14:45Z</time>
      </trkpt>
      <trkpt lat="44.85617" lon="4.71246">
        <ele>562.9990234375</ele>
        <time>2009-08-03T14:15:04Z</time>
      </trkpt>
      <trkpt lat="44.85654" lon="4.71233">
        <ele>567.04901123047</ele>
        <time>2009-08-03T14:15:19Z</time>
      </trkpt>
      <trkpt lat="44.8568" lon="4.71225">
        <ele>570.46997070312</ele>
        <time>2009-08-03T14:15:32Z</time>
      </trkpt>
      <trkpt lat="44.85708" lon="4.71215">
        <ele>573.63299560547</ele>
        <time>2009-08-03T14:15:46Z</time>
      </trkpt>
      <trkpt lat="44.85734" lon="4.71208">
        <ele>576.11798095703</ele>
        <time>2009-08-03T14:15:57Z</time>
      </trkpt>
      <trkpt lat="44.85768" lon="4.71213">
        <ele>579.59600830078</ele>
        <time>2009-08-03T14:16:11Z</time>
      </trkpt>
      <trkpt lat="44.85805" lon="4.71223">
        <ele>582.68798828125</ele>
        <time>2009-08-03T14:16:25Z</time>
      </trkpt>
      <trkpt lat="44.8583" lon="4.71227">
        <ele>585.77001953125</ele>
        <time>2009-08-03T14:16:37Z</time>
      </trkpt>
      <trkpt lat="44.85838" lon="4.71224">
        <ele>586.90100097656</ele>
        <time>2009-08-03T14:16:41Z</time>
      </trkpt>
      <trkpt lat="44.85864" lon="4.71214">
        <ele>590.23901367188</ele>
        <time>2009-08-03T14:16:54Z</time>
      </trkpt>
      <trkpt lat="44.85889" lon="4.71201">
        <ele>593.05999755859</ele>
        <time>2009-08-03T14:17:07Z</time>
      </trkpt>
      <trkpt lat="44.85917" lon="4.7119">
        <ele>596.42297363281</ele>
        <time>2009-08-03T14:17:21Z</time>
      </trkpt>
      <trkpt lat="44.85944" lon="4.71186">
        <ele>598.15002441406</ele>
        <time>2009-08-03T14:17:33Z</time>
      </trkpt>
      <trkpt lat="44.85971" lon="4.71187">
        <ele>600.96002197266</ele>
        <time>2009-08-03T14:17:45Z</time>
      </trkpt>
      <trkpt lat="44.86002" lon="4.71181">
        <ele>603.42999267578</ele>
        <time>2009-08-03T14:17:57Z</time>
      </trkpt>
      <trkpt lat="44.86036" lon="4.71176">
        <ele>606.34301757812</ele>
        <time>2009-08-03T14:18:09Z</time>
      </trkpt>
      <trkpt lat="44.8609" lon="4.71182">
        <ele>610.49798583984</ele>
        <time>2009-08-03T14:18:26Z</time>
      </trkpt>
      <trkpt lat="44.86135" lon="4.71181">
        <ele>613.56896972656</ele>
        <time>2009-08-03T14:18:42Z</time>
      </trkpt>
      <trkpt lat="44.86179" lon="4.71167">
        <ele>616.48101806641</ele>
        <time>2009-08-03T14:18:56Z</time>
      </trkpt>
      <trkpt lat="44.86221" lon="4.71151">
        <ele>620.78002929688</ele>
        <time>2009-08-03T14:19:12Z</time>
      </trkpt>
      <trkpt lat="44.86286" lon="4.71115">
        <ele>624.83898925781</ele>
        <time>2009-08-03T14:19:35Z</time>
      </trkpt>
      <trkpt lat="44.86337" lon="4.71067">
        <ele>629.84997558594</ele>
        <time>2009-08-03T14:19:55Z</time>
      </trkpt>
      <trkpt lat="44.86362" lon="4.71042">
        <ele>633.74798583984</ele>
        <time>2009-08-03T14:20:09Z</time>
      </trkpt>
      <trkpt lat="44.86383" lon="4.71022">
        <ele>636.03399658203</ele>
        <time>2009-08-03T14:20:21Z</time>
      </trkpt>
      <trkpt lat="44.86411" lon="4.70998">
        <ele>639.54797363281</ele>
        <time>2009-08-03T14:20:37Z</time>
      </trkpt>
      <trkpt lat="44.86444" lon="4.70979">
        <ele>643.49298095703</ele>
        <time>2009-08-03T14:20:54Z</time>
      </trkpt>
      <trkpt lat="44.86483" lon="4.70969">
        <ele>646.52099609375</ele>
        <time>2009-08-03T14:21:10Z</time>
      </trkpt>
      <trkpt lat="44.86523" lon="4.70955">
        <ele>650.27600097656</ele>
        <time>2009-08-03T14:21:28Z</time>
      </trkpt>
      <trkpt lat="44.86554" lon="4.70932">
        <ele>653.90399169922</ele>
        <time>2009-08-03T14:21:45Z</time>
      </trkpt>
      <trkpt lat="44.86584" lon="4.70905">
        <ele>657.26702880859</ele>
        <time>2009-08-03T14:21:59Z</time>
      </trkpt>
      <trkpt lat="44.86615" lon="4.70869">
        <ele>661.21697998047</ele>
        <time>2009-08-03T14:22:17Z</time>
      </trkpt>
      <trkpt lat="44.86635" lon="4.70842">
        <ele>664.1669921875</ele>
        <time>2009-08-03T14:22:29Z</time>
      </trkpt>
      <trkpt lat="44.86656" lon="4.7081">
        <ele>667.50299072266</ele>
        <time>2009-08-03T14:22:44Z</time>
      </trkpt>
      <trkpt lat="44.8668" lon="4.70786">
        <ele>669.65802001953</ele>
        <time>2009-08-03T14:22:57Z</time>
      </trkpt>
      <trkpt lat="44.86719" lon="4.70756">
        <ele>673.96899414062</ele>
        <time>2009-08-03T14:23:16Z</time>
      </trkpt>
      <trkpt lat="44.86739" lon="4.70742">
        <ele>676.91198730469</ele>
        <time>2009-08-03T14:23:28Z</time>
      </trkpt>
      <trkpt lat="44.86745" lon="4.70738">
        <ele>678.25598144531</ele>
        <time>2009-08-03T14:23:32Z</time>
      </trkpt>
      <trkpt lat="44.8677" lon="4.70723">
        <ele>681.46398925781</ele>
        <time>2009-08-03T14:23:46Z</time>
      </trkpt>
      <trkpt lat="44.86794" lon="4.70712">
        <ele>685.01501464844</ele>
        <time>2009-08-03T14:24:00Z</time>
      </trkpt>
      <trkpt lat="44.86815" lon="4.70703">
        <ele>687.44598388672</ele>
        <time>2009-08-03T14:24:12Z</time>
      </trkpt>
      <trkpt lat="44.86843" lon="4.7068">
        <ele>691.03399658203</ele>
        <time>2009-08-03T14:24:28Z</time>
      </trkpt>
      <trkpt lat="44.86872" lon="4.70643">
        <ele>695.48699951172</ele>
        <time>2009-08-03T14:24:47Z</time>
      </trkpt>
      <trkpt lat="44.86889" lon="4.70622">
        <ele>698.02001953125</ele>
        <time>2009-08-03T14:25:00Z</time>
      </trkpt>
      <trkpt lat="44.86909" lon="4.70601">
        <ele>701.03198242188</ele>
        <time>2009-08-03T14:25:14Z</time>
      </trkpt>
      <trkpt lat="44.86937" lon="4.70572">
        <ele>704.34899902344</ele>
        <time>2009-08-03T14:25:29Z</time>
      </trkpt>
      <trkpt lat="44.86966" lon="4.7054">
        <ele>707.70599365234</ele>
        <time>2009-08-03T14:25:45Z</time>
      </trkpt>
      <trkpt lat="44.86993" lon="4.7051">
        <ele>711.95300292969</ele>
        <time>2009-08-03T14:26:01Z</time>
      </trkpt>
      <trkpt lat="44.87009" lon="4.70487">
        <ele>714.59002685547</ele>
        <time>2009-08-03T14:26:14Z</time>
      </trkpt>
      <trkpt lat="44.87022" lon="4.70459">
        <ele>717.20001220703</ele>
        <time>2009-08-03T14:26:27Z</time>
      </trkpt>
      <trkpt lat="44.87033" lon="4.7041">
        <ele>719.51501464844</ele>
        <time>2009-08-03T14:26:42Z</time>
      </trkpt>
      <trkpt lat="44.87033" lon="4.70358">
        <ele>721.28302001953</ele>
        <time>2009-08-03T14:26:56Z</time>
      </trkpt>
      <trkpt lat="44.87032" lon="4.70338">
        <ele>723.12902832031</ele>
        <time>2009-08-03T14:27:01Z</time>
      </trkpt>
      <trkpt lat="44.87013" lon="4.70268">
        <ele>727.11999511719</ele>
        <time>2009-08-03T14:27:21Z</time>
      </trkpt>
      <trkpt lat="44.87004" lon="4.70248">
        <ele>729.34197998047</ele>
        <time>2009-08-03T14:27:29Z</time>
      </trkpt>
      <trkpt lat="44.87014" lon="4.70251">
        <ele>730.50500488281</ele>
        <time>2009-08-03T14:27:35Z</time>
      </trkpt>
      <trkpt lat="44.87046" lon="4.70316">
        <ele>734.80102539062</ele>
        <time>2009-08-03T14:27:56Z</time>
      </trkpt>
      <trkpt lat="44.87046" lon="4.70316">
        <ele>734.6259765625</ele>
        <time>2009-08-03T14:27:58Z</time>
      </trkpt>
      <trkpt lat="44.87052" lon="4.70324">
        <ele>735.53802490234</ele>
        <time>2009-08-03T14:28:45Z</time>
      </trkpt>
      <trkpt lat="44.87056" lon="4.70336">
        <ele>736.33001708984</ele>
        <time>2009-08-03T14:28:51Z</time>
      </trkpt>
      <trkpt lat="44.87079" lon="4.70376">
        <ele>739.11901855469</ele>
        <time>2009-08-03T14:29:07Z</time>
      </trkpt>
      <trkpt lat="44.87091" lon="4.70386">
        <ele>741.27301025391</ele>
        <time>2009-08-03T14:29:12Z</time>
      </trkpt>
      <trkpt lat="44.87116" lon="4.70368">
        <ele>741.33197021484</ele>
        <time>2009-08-03T14:29:23Z</time>
      </trkpt>
      <trkpt lat="44.87125" lon="4.70347">
        <ele>741.29602050781</ele>
        <time>2009-08-03T14:29:31Z</time>
      </trkpt>
      <trkpt lat="44.87123" lon="4.70344">
        <ele>741.60198974609</ele>
        <time>2009-08-03T14:29:35Z</time>
      </trkpt>
      <trkpt lat="44.8712" lon="4.7035">
        <ele>741.70599365234</ele>
        <time>2009-08-03T14:29:39Z</time>
      </trkpt>
      <trkpt lat="44.87119" lon="4.7035">
        <ele>741.47601318359</ele>
        <time>2009-08-03T14:29:41Z</time>
      </trkpt>
      <trkpt lat="44.87121" lon="4.70355">
        <ele>741.06896972656</ele>
        <time>2009-08-03T14:30:13Z</time>
      </trkpt>
      <trkpt lat="44.87125" lon="4.70347">
        <ele>741.50402832031</ele>
        <time>2009-08-03T14:30:18Z</time>
      </trkpt>
      <trkpt lat="44.87127" lon="4.70343">
        <ele>741.67102050781</ele>
        <time>2009-08-03T14:30:20Z</time>
      </trkpt>
      <trkpt lat="44.87142" lon="4.70313">
        <ele>741.72198486328</ele>
        <time>2009-08-03T14:30:34Z</time>
      </trkpt>
      <trkpt lat="44.87155" lon="4.70262">
        <ele>739.58502197266</ele>
        <time>2009-08-03T14:30:47Z</time>
      </trkpt>
      <trkpt lat="44.87143" lon="4.70222">
        <ele>737.98797607422</ele>
        <time>2009-08-03T14:30:53Z</time>
      </trkpt>
      <trkpt lat="44.87105" lon="4.70108">
        <ele>735.92199707031</ele>
        <time>2009-08-03T14:31:07Z</time>
      </trkpt>
      <trkpt lat="44.87094" lon="4.70027">
        <ele>734.69299316406</ele>
        <time>2009-08-03T14:31:15Z</time>
      </trkpt>
      <trkpt lat="44.87118" lon="4.69953">
        <ele>734.32299804688</ele>
        <time>2009-08-03T14:31:23Z</time>
      </trkpt>
      <trkpt lat="44.8713" lon="4.69942">
        <ele>734.04998779297</ele>
        <time>2009-08-03T14:31:25Z</time>
      </trkpt>
      <trkpt lat="44.87163" lon="4.69922">
        <ele>733.42700195312</ele>
        <time>2009-08-03T14:31:30Z</time>
      </trkpt>
      <trkpt lat="44.87177" lon="4.69917">
        <ele>732.92498779297</ele>
        <time>2009-08-03T14:31:32Z</time>
      </trkpt>
      <trkpt lat="44.87206" lon="4.69914">
        <ele>731.5009765625</ele>
        <time>2009-08-03T14:31:36Z</time>
      </trkpt>
      <trkpt lat="44.8729" lon="4.69932">
        <ele>729.66302490234</ele>
        <time>2009-08-03T14:31:47Z</time>
      </trkpt>
      <trkpt lat="44.87316" lon="4.69894">
        <ele>728.54498291016</ele>
        <time>2009-08-03T14:31:53Z</time>
      </trkpt>
      <trkpt lat="44.87314" lon="4.69883">
        <ele>727.41101074219</ele>
        <time>2009-08-03T14:31:54Z</time>
      </trkpt>
      <trkpt lat="44.87286" lon="4.69773">
        <ele>721.67297363281</ele>
        <time>2009-08-03T14:32:03Z</time>
      </trkpt>
      <trkpt lat="44.87286" lon="4.69738">
        <ele>719.33599853516</ele>
        <time>2009-08-03T14:32:05Z</time>
      </trkpt>
      <trkpt lat="44.87299" lon="4.69696">
        <ele>715.96002197266</ele>
        <time>2009-08-03T14:32:08Z</time>
      </trkpt>
      <trkpt lat="44.87332" lon="4.69674">
        <ele>712.55902099609</ele>
        <time>2009-08-03T14:32:11Z</time>
      </trkpt>
      <trkpt lat="44.87369" lon="4.69628">
        <ele>706.27398681641</ele>
        <time>2009-08-03T14:32:14Z</time>
      </trkpt>
      <trkpt lat="44.87389" lon="4.69596">
        <ele>703.03497314453</ele>
        <time>2009-08-03T14:32:16Z</time>
      </trkpt>
      <trkpt lat="44.87498" lon="4.69515">
        <ele>689.77600097656</ele>
        <time>2009-08-03T14:32:24Z</time>
      </trkpt>
      <trkpt lat="44.8754" lon="4.69488">
        <ele>687.78497314453</ele>
        <time>2009-08-03T14:32:27Z</time>
      </trkpt>
      <trkpt lat="44.87619" lon="4.69421">
        <ele>677.01098632812</ele>
        <time>2009-08-03T14:32:33Z</time>
      </trkpt>
      <trkpt lat="44.87645" lon="4.69388">
        <ele>676.26702880859</ele>
        <time>2009-08-03T14:32:35Z</time>
      </trkpt>
      <trkpt lat="44.87678" lon="4.69286">
        <ele>669.73199462891</ele>
        <time>2009-08-03T14:32:40Z</time>
      </trkpt>
      <trkpt lat="44.87699" lon="4.69258">
        <ele>666.04797363281</ele>
        <time>2009-08-03T14:32:42Z</time>
      </trkpt>
      <trkpt lat="44.87733" lon="4.69218">
        <ele>662.64501953125</ele>
        <time>2009-08-03T14:32:45Z</time>
      </trkpt>
      <trkpt lat="44.87824" lon="4.69146">
        <ele>653.84802246094</ele>
        <time>2009-08-03T14:32:52Z</time>
      </trkpt>
      <trkpt lat="44.87868" lon="4.69041">
        <ele>648.10101318359</ele>
        <time>2009-08-03T14:32:58Z</time>
      </trkpt>
      <trkpt lat="44.87891" lon="4.68964">
        <ele>641.43701171875</ele>
        <time>2009-08-03T14:33:02Z</time>
      </trkpt>
      <trkpt lat="44.87918" lon="4.68911">
        <ele>634.95501708984</ele>
        <time>2009-08-03T14:33:05Z</time>
      </trkpt>
      <trkpt lat="44.87936" lon="4.68825">
        <ele>629.35601806641</ele>
        <time>2009-08-03T14:33:09Z</time>
      </trkpt>
      <trkpt lat="44.87935" lon="4.6869">
        <ele>621.26397705078</ele>
        <time>2009-08-03T14:33:15Z</time>
      </trkpt>
      <trkpt lat="44.87907" lon="4.68636">
        <ele>615.98901367188</ele>
        <time>2009-08-03T14:33:18Z</time>
      </trkpt>
      <trkpt lat="44.87883" lon="4.68524">
        <ele>609.08697509766</ele>
        <time>2009-08-03T14:33:24Z</time>
      </trkpt>
      <trkpt lat="44.87893" lon="4.68509">
        <ele>606.96600341797</ele>
        <time>2009-08-03T14:33:25Z</time>
      </trkpt>
      <trkpt lat="44.8792" lon="4.68414">
        <ele>599.51000976562</ele>
        <time>2009-08-03T14:33:30Z</time>
      </trkpt>
      <trkpt lat="44.87901" lon="4.68241">
        <ele>590.0009765625</ele>
        <time>2009-08-03T14:33:38Z</time>
      </trkpt>
      <trkpt lat="44.87885" lon="4.6818">
        <ele>585.79498291016</ele>
        <time>2009-08-03T14:33:41Z</time>
      </trkpt>
      <trkpt lat="44.87885" lon="4.68079">
        <ele>578.28198242188</ele>
        <time>2009-08-03T14:33:46Z</time>
      </trkpt>
      <trkpt lat="44.87932" lon="4.68024">
        <ele>572.51098632812</ele>
        <time>2009-08-03T14:33:52Z</time>
      </trkpt>
      <trkpt lat="44.87943" lon="4.68021">
        <ele>572.33801269531</ele>
        <time>2009-08-03T14:33:53Z</time>
      </trkpt>
      <trkpt lat="44.88026" lon="4.6801">
        <ele>567.36999511719</ele>
        <time>2009-08-03T14:34:00Z</time>
      </trkpt>
      <trkpt lat="44.88073" lon="4.68004">
        <ele>564.00500488281</ele>
        <time>2009-08-03T14:34:04Z</time>
      </trkpt>
      <trkpt lat="44.8811" lon="4.67986">
        <ele>560.5830078125</ele>
        <time>2009-08-03T14:34:10Z</time>
      </trkpt>
      <trkpt lat="44.8809" lon="4.67961">
        <ele>557.02697753906</ele>
        <time>2009-08-03T14:34:13Z</time>
      </trkpt>
      <trkpt lat="44.88039" lon="4.67939">
        <ele>552.23699951172</ele>
        <time>2009-08-03T14:34:18Z</time>
      </trkpt>
      <trkpt lat="44.87997" lon="4.67899">
        <ele>546.00701904297</ele>
        <time>2009-08-03T14:34:22Z</time>
      </trkpt>
      <trkpt lat="44.87964" lon="4.6783">
        <ele>538.91400146484</ele>
        <time>2009-08-03T14:34:26Z</time>
      </trkpt>
      <trkpt lat="44.87931" lon="4.67787">
        <ele>536.41497802734</ele>
        <time>2009-08-03T14:34:29Z</time>
      </trkpt>
      <trkpt lat="44.87918" lon="4.67777">
        <ele>536.42102050781</ele>
        <time>2009-08-03T14:34:30Z</time>
      </trkpt>
      <trkpt lat="44.87798" lon="4.67672">
        <ele>534.35302734375</ele>
        <time>2009-08-03T14:34:41Z</time>
      </trkpt>
      <trkpt lat="44.87747" lon="4.67626">
        <ele>530.41198730469</ele>
        <time>2009-08-03T14:34:46Z</time>
      </trkpt>
      <trkpt lat="44.87741" lon="4.67551">
        <ele>523.10900878906</ele>
        <time>2009-08-03T14:34:51Z</time>
      </trkpt>
      <trkpt lat="44.87789" lon="4.67489">
        <ele>514.64398193359</ele>
        <time>2009-08-03T14:34:56Z</time>
      </trkpt>
      <trkpt lat="44.87842" lon="4.67495">
        <ele>509.80801391602</ele>
        <time>2009-08-03T14:35:00Z</time>
      </trkpt>
      <trkpt lat="44.8788" lon="4.67508">
        <ele>505.25</ele>
        <time>2009-08-03T14:35:03Z</time>
      </trkpt>
      <trkpt lat="44.87907" lon="4.67508">
        <ele>501.44799804688</ele>
        <time>2009-08-03T14:35:05Z</time>
      </trkpt>
      <trkpt lat="44.88033" lon="4.67563">
        <ele>488.76901245117</ele>
        <time>2009-08-03T14:35:13Z</time>
      </trkpt>
      <trkpt lat="44.88076" lon="4.67623">
        <ele>484.67498779297</ele>
        <time>2009-08-03T14:35:17Z</time>
      </trkpt>
      <trkpt lat="44.88082" lon="4.67639">
        <ele>484.25500488281</ele>
        <time>2009-08-03T14:35:18Z</time>
      </trkpt>
      <trkpt lat="44.88114" lon="4.67667">
        <ele>479.11999511719</ele>
        <time>2009-08-03T14:35:22Z</time>
      </trkpt>
      <trkpt lat="44.88126" lon="4.6767">
        <ele>476.94299316406</ele>
        <time>2009-08-03T14:35:23Z</time>
      </trkpt>
      <trkpt lat="44.88153" lon="4.67678">
        <ele>473.82000732422</ele>
        <time>2009-08-03T14:35:25Z</time>
      </trkpt>
      <trkpt lat="44.88166" lon="4.6768">
        <ele>472.67098999023</ele>
        <time>2009-08-03T14:35:26Z</time>
      </trkpt>
      <trkpt lat="44.88217" lon="4.67704">
        <ele>468.15301513672</ele>
        <time>2009-08-03T14:35:30Z</time>
      </trkpt>
      <trkpt lat="44.88262" lon="4.67757">
        <ele>463.24600219727</ele>
        <time>2009-08-03T14:35:34Z</time>
      </trkpt>
      <trkpt lat="44.8828" lon="4.67782">
        <ele>463.00201416016</ele>
        <time>2009-08-03T14:35:36Z</time>
      </trkpt>
      <trkpt lat="44.88302" lon="4.67794">
        <ele>463.04098510742</ele>
        <time>2009-08-03T14:35:38Z</time>
      </trkpt>
      <trkpt lat="44.88306" lon="4.67787">
        <ele>462.1549987793</ele>
        <time>2009-08-03T14:35:40Z</time>
      </trkpt>
      <trkpt lat="44.88298" lon="4.6778">
        <ele>461.14801025391</ele>
        <time>2009-08-03T14:35:41Z</time>
      </trkpt>
      <trkpt lat="44.88293" lon="4.6777">
        <ele>459.45999145508</ele>
        <time>2009-08-03T14:35:42Z</time>
      </trkpt>
      <trkpt lat="44.88284" lon="4.67733">
        <ele>456.24499511719</ele>
        <time>2009-08-03T14:35:47Z</time>
      </trkpt>
      <trkpt lat="44.88285" lon="4.67724">
        <ele>455.46701049805</ele>
        <time>2009-08-03T14:35:49Z</time>
      </trkpt>
      <trkpt lat="44.88305" lon="4.67686">
        <ele>454.79800415039</ele>
        <time>2009-08-03T14:36:01Z</time>
      </trkpt>
      <trkpt lat="44.88314" lon="4.67668">
        <ele>454.83898925781</ele>
        <time>2009-08-03T14:36:08Z</time>
      </trkpt>
      <trkpt lat="44.88311" lon="4.6767">
        <ele>455.25900268555</ele>
        <time>2009-08-03T14:36:13Z</time>
      </trkpt>
      <trkpt lat="44.8829" lon="4.67709">
        <ele>454.87399291992</ele>
        <time>2009-08-03T14:36:24Z</time>
      </trkpt>
      <trkpt lat="44.88292" lon="4.67714">
        <ele>454.89498901367</ele>
        <time>2009-08-03T14:36:31Z</time>
      </trkpt>
      <trkpt lat="44.883" lon="4.677">
        <ele>454.54299926758</ele>
        <time>2009-08-03T14:36:35Z</time>
      </trkpt>
      <trkpt lat="44.88311" lon="4.67673">
        <ele>454.77801513672</ele>
        <time>2009-08-03T14:36:40Z</time>
      </trkpt>
      <trkpt lat="44.88329" lon="4.6765">
        <ele>455.46099853516</ele>
        <time>2009-08-03T14:36:45Z</time>
      </trkpt>
      <trkpt lat="44.88348" lon="4.67641">
        <ele>456.10699462891</ele>
        <time>2009-08-03T14:36:49Z</time>
      </trkpt>
      <trkpt lat="44.88401" lon="4.6762">
        <ele>457.61599731445</ele>
        <time>2009-08-03T14:37:00Z</time>
      </trkpt>
      <trkpt lat="44.88424" lon="4.67614">
        <ele>458.2619934082</ele>
        <time>2009-08-03T14:37:05Z</time>
      </trkpt>
      <trkpt lat="44.88456" lon="4.6761">
        <ele>458.97299194336</ele>
        <time>2009-08-03T14:37:12Z</time>
      </trkpt>
      <trkpt lat="44.88469" lon="4.67607">
        <ele>459.68899536133</ele>
        <time>2009-08-03T14:37:15Z</time>
      </trkpt>
      <trkpt lat="44.88523" lon="4.67579">
        <ele>461.44900512695</ele>
        <time>2009-08-03T14:37:27Z</time>
      </trkpt>
      <trkpt lat="44.88552" lon="4.67559">
        <ele>462.12600708008</ele>
        <time>2009-08-03T14:37:34Z</time>
      </trkpt>
      <trkpt lat="44.88601" lon="4.67552">
        <ele>464.54699707031</ele>
        <time>2009-08-03T14:37:47Z</time>
      </trkpt>
      <trkpt lat="44.88634" lon="4.67551">
        <ele>466.59899902344</ele>
        <time>2009-08-03T14:37:56Z</time>
      </trkpt>
      <trkpt lat="44.88641" lon="4.67549">
        <ele>467.12200927734</ele>
        <time>2009-08-03T14:37:58Z</time>
      </trkpt>
      <trkpt lat="44.88706" lon="4.67492">
        <ele>468.93798828125</ele>
        <time>2009-08-03T14:38:15Z</time>
      </trkpt>
      <trkpt lat="44.88725" lon="4.67462">
        <ele>469.54299926758</ele>
        <time>2009-08-03T14:38:21Z</time>
      </trkpt>
      <trkpt lat="44.88728" lon="4.67449">
        <ele>469.68499755859</ele>
        <time>2009-08-03T14:38:23Z</time>
      </trkpt>
      <trkpt lat="44.8874" lon="4.67341">
        <ele>470.7799987793</ele>
        <time>2009-08-03T14:38:39Z</time>
      </trkpt>
      <trkpt lat="44.88753" lon="4.67256">
        <ele>472.69299316406</ele>
        <time>2009-08-03T14:38:52Z</time>
      </trkpt>
      <trkpt lat="44.88757" lon="4.67238">
        <ele>473.14099121094</ele>
        <time>2009-08-03T14:38:55Z</time>
      </trkpt>
      <trkpt lat="44.88761" lon="4.67213">
        <ele>473.78698730469</ele>
        <time>2009-08-03T14:38:59Z</time>
      </trkpt>
      <trkpt lat="44.88776" lon="4.67145">
        <ele>474.97900390625</ele>
        <time>2009-08-03T14:39:10Z</time>
      </trkpt>
      <trkpt lat="44.88809" lon="4.67123">
        <ele>476.25399780273</ele>
        <time>2009-08-03T14:39:19Z</time>
      </trkpt>
      <trkpt lat="44.88818" lon="4.67129">
        <ele>477.03100585938</ele>
        <time>2009-08-03T14:39:21Z</time>
      </trkpt>
      <trkpt lat="44.88839" lon="4.67143">
        <ele>477.57800292969</ele>
        <time>2009-08-03T14:39:26Z</time>
      </trkpt>
      <trkpt lat="44.88859" lon="4.67145">
        <ele>478.23199462891</ele>
        <time>2009-08-03T14:39:30Z</time>
      </trkpt>
      <trkpt lat="44.88882" lon="4.67131">
        <ele>479.0950012207</ele>
        <time>2009-08-03T14:39:36Z</time>
      </trkpt>
      <trkpt lat="44.88909" lon="4.67101">
        <ele>480.05099487305</ele>
        <time>2009-08-03T14:39:43Z</time>
      </trkpt>
      <trkpt lat="44.88958" lon="4.67029">
        <ele>480.46798706055</ele>
        <time>2009-08-03T14:39:57Z</time>
      </trkpt>
      <trkpt lat="44.88978" lon="4.67019">
        <ele>480.72399902344</ele>
        <time>2009-08-03T14:40:01Z</time>
      </trkpt>
      <trkpt lat="44.8905" lon="4.6702">
        <ele>483.03601074219</ele>
        <time>2009-08-03T14:40:16Z</time>
      </trkpt>
      <trkpt lat="44.89071" lon="4.66992">
        <ele>483.59899902344</ele>
        <time>2009-08-03T14:40:23Z</time>
      </trkpt>
      <trkpt lat="44.89072" lon="4.66957">
        <ele>483.71398925781</ele>
        <time>2009-08-03T14:40:28Z</time>
      </trkpt>
      <trkpt lat="44.89072" lon="4.66932">
        <ele>484.24600219727</ele>
        <time>2009-08-03T14:40:32Z</time>
      </trkpt>
      <trkpt lat="44.89066" lon="4.66896">
        <ele>485.76800537109</ele>
        <time>2009-08-03T14:40:38Z</time>
      </trkpt>
      <trkpt lat="44.89064" lon="4.66891">
        <ele>486.10101318359</ele>
        <time>2009-08-03T14:40:39Z</time>
      </trkpt>
      <trkpt lat="44.8906" lon="4.66873">
        <ele>486.59799194336</ele>
        <time>2009-08-03T14:40:42Z</time>
      </trkpt>
      <trkpt lat="44.89059" lon="4.6684">
        <ele>487.55999755859</ele>
        <time>2009-08-03T14:40:48Z</time>
      </trkpt>
      <trkpt lat="44.89062" lon="4.66821">
        <ele>488.27899169922</ele>
        <time>2009-08-03T14:40:52Z</time>
      </trkpt>
      <trkpt lat="44.89106" lon="4.66745">
        <ele>491.50100708008</ele>
        <time>2009-08-03T14:41:08Z</time>
      </trkpt>
      <trkpt lat="44.8912" lon="4.66703">
        <ele>493.49499511719</ele>
        <time>2009-08-03T14:41:16Z</time>
      </trkpt>
      <trkpt lat="44.89119" lon="4.66628">
        <ele>495.56900024414</ele>
        <time>2009-08-03T14:41:31Z</time>
      </trkpt>
      <trkpt lat="44.89117" lon="4.66555">
        <ele>498.46301269531</ele>
        <time>2009-08-03T14:41:45Z</time>
      </trkpt>
      <trkpt lat="44.89119" lon="4.66532">
        <ele>499.33401489258</ele>
        <time>2009-08-03T14:41:49Z</time>
      </trkpt>
      <trkpt lat="44.89119" lon="4.6651">
        <ele>499.7380065918</ele>
        <time>2009-08-03T14:41:53Z</time>
      </trkpt>
      <trkpt lat="44.89106" lon="4.66436">
        <ele>502.51000976562</ele>
        <time>2009-08-03T14:42:07Z</time>
      </trkpt>
      <trkpt lat="44.8908" lon="4.66371">
        <ele>505.07598876953</ele>
        <time>2009-08-03T14:42:22Z</time>
      </trkpt>
      <trkpt lat="44.89079" lon="4.66302">
        <ele>507.64801025391</ele>
        <time>2009-08-03T14:42:36Z</time>
      </trkpt>
      <trkpt lat="44.89063" lon="4.66233">
        <ele>510.33200073242</ele>
        <time>2009-08-03T14:42:50Z</time>
      </trkpt>
      <trkpt lat="44.89037" lon="4.66163">
        <ele>513.10198974609</ele>
        <time>2009-08-03T14:43:04Z</time>
      </trkpt>
      <trkpt lat="44.89024" lon="4.66141">
        <ele>514.40899658203</ele>
        <time>2009-08-03T14:43:09Z</time>
      </trkpt>
      <trkpt lat="44.8903" lon="4.66096">
        <ele>516.04602050781</ele>
        <time>2009-08-03T14:43:18Z</time>
      </trkpt>
      <trkpt lat="44.89057" lon="4.66105">
        <ele>517.91302490234</ele>
        <time>2009-08-03T14:43:27Z</time>
      </trkpt>
      <trkpt lat="44.89095" lon="4.6615">
        <ele>519.66497802734</ele>
        <time>2009-08-03T14:43:42Z</time>
      </trkpt>
      <trkpt lat="44.89122" lon="4.66178">
        <ele>521.77801513672</ele>
        <time>2009-08-03T14:43:52Z</time>
      </trkpt>
      <trkpt lat="44.89135" lon="4.6619">
        <ele>522.58001708984</ele>
        <time>2009-08-03T14:43:57Z</time>
      </trkpt>
      <trkpt lat="44.89171" lon="4.66184">
        <ele>524.36499023438</ele>
        <time>2009-08-03T14:44:09Z</time>
      </trkpt>
      <trkpt lat="44.89186" lon="4.66158">
        <ele>525.71398925781</ele>
        <time>2009-08-03T14:44:17Z</time>
      </trkpt>
      <trkpt lat="44.89211" lon="4.66112">
        <ele>526.78900146484</ele>
        <time>2009-08-03T14:44:31Z</time>
      </trkpt>
      <trkpt lat="44.89239" lon="4.66047">
        <ele>529.97601318359</ele>
        <time>2009-08-03T14:44:47Z</time>
      </trkpt>
      <trkpt lat="44.89268" lon="4.65976">
        <ele>532.93597412109</ele>
        <time>2009-08-03T14:45:04Z</time>
      </trkpt>
      <trkpt lat="44.89312" lon="4.65888">
        <ele>537.10400390625</ele>
        <time>2009-08-03T14:45:25Z</time>
      </trkpt>
      <trkpt lat="44.89354" lon="4.6581">
        <ele>540.09997558594</ele>
        <time>2009-08-03T14:45:44Z</time>
      </trkpt>
      <trkpt lat="44.89405" lon="4.6575">
        <ele>543.71502685547</ele>
        <time>2009-08-03T14:46:02Z</time>
      </trkpt>
      <trkpt lat="44.89434" lon="4.65678">
        <ele>546.11297607422</ele>
        <time>2009-08-03T14:46:19Z</time>
      </trkpt>
      <trkpt lat="44.89449" lon="4.65594">
        <ele>549.08801269531</ele>
        <time>2009-08-03T14:46:38Z</time>
      </trkpt>
      <trkpt lat="44.89453" lon="4.65515">
        <ele>552.29998779297</ele>
        <time>2009-08-03T14:46:56Z</time>
      </trkpt>
      <trkpt lat="44.89466" lon="4.65429">
        <ele>555.05603027344</ele>
        <time>2009-08-03T14:47:15Z</time>
      </trkpt>
      <trkpt lat="44.8949" lon="4.65381">
        <ele>556.94799804688</ele>
        <time>2009-08-03T14:47:30Z</time>
      </trkpt>
      <trkpt lat="44.895" lon="4.65323">
        <ele>559.80603027344</ele>
        <time>2009-08-03T14:47:45Z</time>
      </trkpt>
      <trkpt lat="44.89499" lon="4.6524">
        <ele>562.45098876953</ele>
        <time>2009-08-03T14:48:03Z</time>
      </trkpt>
      <trkpt lat="44.89497" lon="4.65213">
        <ele>563.97998046875</ele>
        <time>2009-08-03T14:48:09Z</time>
      </trkpt>
      <trkpt lat="44.89491" lon="4.6511">
        <ele>567.26501464844</ele>
        <time>2009-08-03T14:48:31Z</time>
      </trkpt>
      <trkpt lat="44.8949" lon="4.65043">
        <ele>569.53302001953</ele>
        <time>2009-08-03T14:48:45Z</time>
      </trkpt>
      <trkpt lat="44.89489" lon="4.64965">
        <ele>571.97802734375</ele>
        <time>2009-08-03T14:49:00Z</time>
      </trkpt>
      <trkpt lat="44.8947" lon="4.64868">
        <ele>574.94201660156</ele>
        <time>2009-08-03T14:49:19Z</time>
      </trkpt>
      <trkpt lat="44.89457" lon="4.64772">
        <ele>578.43402099609</ele>
        <time>2009-08-03T14:49:39Z</time>
      </trkpt>
      <trkpt lat="44.89445" lon="4.64726">
        <ele>579.88897705078</ele>
        <time>2009-08-03T14:49:48Z</time>
      </trkpt>
      <trkpt lat="44.89455" lon="4.64618">
        <ele>582.22302246094</ele>
        <time>2009-08-03T14:50:08Z</time>
      </trkpt>
      <trkpt lat="44.89466" lon="4.64584">
        <ele>582.88800048828</ele>
        <time>2009-08-03T14:50:15Z</time>
      </trkpt>
      <trkpt lat="44.8948" lon="4.64572">
        <ele>583.33898925781</ele>
        <time>2009-08-03T14:50:19Z</time>
      </trkpt>
      <trkpt lat="44.89531" lon="4.64573">
        <ele>585.98602294922</ele>
        <time>2009-08-03T14:50:34Z</time>
      </trkpt>
      <trkpt lat="44.89584" lon="4.64584">
        <ele>588.15899658203</ele>
        <time>2009-08-03T14:50:50Z</time>
      </trkpt>
      <trkpt lat="44.89598" lon="4.64589">
        <ele>588.78997802734</ele>
        <time>2009-08-03T14:50:56Z</time>
      </trkpt>
      <trkpt lat="44.89603" lon="4.64603">
        <ele>588.46697998047</ele>
        <time>2009-08-03T14:51:06Z</time>
      </trkpt>
      <trkpt lat="44.89602" lon="4.64606">
        <ele>588.25299072266</ele>
        <time>2009-08-03T14:51:15Z</time>
      </trkpt>
      <trkpt lat="44.89597" lon="4.64608">
        <ele>588.52899169922</ele>
        <time>2009-08-03T14:51:21Z</time>
      </trkpt>
      <trkpt lat="44.89597" lon="4.64609">
        <ele>588.48699951172</ele>
        <time>2009-08-03T14:51:26Z</time>
      </trkpt>
      <trkpt lat="44.896" lon="4.64605">
        <ele>589.19799804688</ele>
        <time>2009-08-03T14:51:56Z</time>
      </trkpt>
      <trkpt lat="44.89604" lon="4.64602">
        <ele>588.80401611328</ele>
        <time>2009-08-03T14:52:03Z</time>
      </trkpt>
      <trkpt lat="44.8962" lon="4.64593">
        <ele>589.1669921875</ele>
        <time>2009-08-03T14:52:20Z</time>
      </trkpt>
      <trkpt lat="44.89636" lon="4.64549">
        <ele>590.44897460938</ele>
        <time>2009-08-03T14:52:33Z</time>
      </trkpt>
      <trkpt lat="44.89644" lon="4.64527">
        <ele>590.53802490234</ele>
        <time>2009-08-03T14:52:40Z</time>
      </trkpt>
      <trkpt lat="44.89648" lon="4.64515">
        <ele>590.52502441406</ele>
        <time>2009-08-03T14:52:45Z</time>
      </trkpt>
      <trkpt lat="44.89648" lon="4.64497">
        <ele>590.76898193359</ele>
        <time>2009-08-03T14:52:53Z</time>
      </trkpt>
      <trkpt lat="44.89648" lon="4.64495">
        <ele>590.88201904297</ele>
        <time>2009-08-03T14:52:55Z</time>
      </trkpt>
      <trkpt lat="44.89648" lon="4.64494">
        <ele>590.96301269531</ele>
        <time>2009-08-03T14:52:58Z</time>
      </trkpt>
      <trkpt lat="44.89636" lon="4.64471">
        <ele>591.56896972656</ele>
        <time>2009-08-03T14:53:20Z</time>
      </trkpt>
      <trkpt lat="44.89635" lon="4.64471">
        <ele>591.63800048828</ele>
        <time>2009-08-03T14:53:22Z</time>
      </trkpt>
      <trkpt lat="44.89634" lon="4.64472">
        <ele>591.56298828125</ele>
        <time>2009-08-03T14:53:26Z</time>
      </trkpt>
      <trkpt lat="44.89622" lon="4.64471">
        <ele>591.76898193359</ele>
        <time>2009-08-03T14:53:33Z</time>
      </trkpt>
      <trkpt lat="44.89575" lon="4.64463">
        <ele>593.16497802734</ele>
        <time>2009-08-03T14:53:47Z</time>
      </trkpt>
      <trkpt lat="44.89535" lon="4.64458">
        <ele>593.87902832031</ele>
        <time>2009-08-03T14:53:58Z</time>
      </trkpt>
      <trkpt lat="44.89502" lon="4.64453">
        <ele>593.93701171875</ele>
        <time>2009-08-03T14:54:08Z</time>
      </trkpt>
      <trkpt lat="44.89497" lon="4.64447">
        <ele>594.09197998047</ele>
        <time>2009-08-03T14:54:11Z</time>
      </trkpt>
      <trkpt lat="44.8948" lon="4.64445">
        <ele>594.13000488281</ele>
        <time>2009-08-03T14:54:21Z</time>
      </trkpt>
      <trkpt lat="44.89473" lon="4.6446">
        <ele>594.54901123047</ele>
        <time>2009-08-03T14:54:26Z</time>
      </trkpt>
      <trkpt lat="44.89468" lon="4.64465">
        <ele>594.57098388672</ele>
        <time>2009-08-03T14:54:32Z</time>
      </trkpt>
      <trkpt lat="44.89468" lon="4.64466">
        <ele>594.48699951172</ele>
        <time>2009-08-03T14:54:35Z</time>
      </trkpt>
      <trkpt lat="44.89471" lon="4.64502">
        <ele>591.40399169922</ele>
        <time>2009-08-03T14:54:47Z</time>
      </trkpt>
      <trkpt lat="44.89481" lon="4.64531">
        <ele>589.61999511719</ele>
        <time>2009-08-03T14:54:51Z</time>
      </trkpt>
      <trkpt lat="44.89489" lon="4.64542">
        <ele>588.7919921875</ele>
        <time>2009-08-03T14:54:53Z</time>
      </trkpt>
      <trkpt lat="44.89496" lon="4.64549">
        <ele>588.37298583984</ele>
        <time>2009-08-03T14:54:55Z</time>
      </trkpt>
      <trkpt lat="44.89508" lon="4.64566">
        <ele>586.35498046875</ele>
        <time>2009-08-03T14:54:59Z</time>
      </trkpt>
      <trkpt lat="44.89529" lon="4.64575">
        <ele>586.64300537109</ele>
        <time>2009-08-03T14:55:05Z</time>
      </trkpt>
      <trkpt lat="44.89554" lon="4.64581">
        <ele>587.36798095703</ele>
        <time>2009-08-03T14:55:11Z</time>
      </trkpt>
      <trkpt lat="44.89568" lon="4.64579">
        <ele>587.67401123047</ele>
        <time>2009-08-03T14:55:15Z</time>
      </trkpt>
      <trkpt lat="44.89574" lon="4.64581">
        <ele>588.63299560547</ele>
        <time>2009-08-03T14:55:20Z</time>
      </trkpt>
      <trkpt lat="44.89574" lon="4.64581">
        <ele>588.72802734375</ele>
        <time>2009-08-03T14:55:22Z</time>
      </trkpt>
      <trkpt lat="44.89574" lon="4.64589">
        <ele>589.47497558594</ele>
        <time>2009-08-03T14:56:56Z</time>
      </trkpt>
      <trkpt lat="44.89601" lon="4.64596">
        <ele>590.10101318359</ele>
        <time>2009-08-03T14:57:05Z</time>
      </trkpt>
      <trkpt lat="44.89618" lon="4.64586">
        <ele>590.96801757812</ele>
        <time>2009-08-03T14:57:10Z</time>
      </trkpt>
      <trkpt lat="44.89644" lon="4.64526">
        <ele>591.83197021484</ele>
        <time>2009-08-03T14:57:22Z</time>
      </trkpt>
      <trkpt lat="44.89647" lon="4.64527">
        <ele>591.96801757812</ele>
        <time>2009-08-03T14:57:24Z</time>
      </trkpt>
      <trkpt lat="44.89653" lon="4.64547">
        <ele>591.89801025391</ele>
        <time>2009-08-03T14:57:29Z</time>
      </trkpt>
      <trkpt lat="44.89671" lon="4.6459">
        <ele>591.54302978516</ele>
        <time>2009-08-03T14:57:37Z</time>
      </trkpt>
      <trkpt lat="44.89687" lon="4.64629">
        <ele>591.45397949219</ele>
        <time>2009-08-03T14:57:43Z</time>
      </trkpt>
      <trkpt lat="44.89716" lon="4.64674">
        <ele>590.48199462891</ele>
        <time>2009-08-03T14:57:51Z</time>
      </trkpt>
      <trkpt lat="44.8972" lon="4.64679">
        <ele>590.43597412109</ele>
        <time>2009-08-03T14:57:52Z</time>
      </trkpt>
      <trkpt lat="44.89751" lon="4.64726">
        <ele>590.01300048828</ele>
        <time>2009-08-03T14:58:00Z</time>
      </trkpt>
      <trkpt lat="44.89824" lon="4.64772">
        <ele>588.72302246094</ele>
        <time>2009-08-03T14:58:12Z</time>
      </trkpt>
      <trkpt lat="44.89893" lon="4.64801">
        <ele>589.02600097656</ele>
        <time>2009-08-03T14:58:23Z</time>
      </trkpt>
      <trkpt lat="44.89944" lon="4.64821">
        <ele>588.31896972656</ele>
        <time>2009-08-03T14:58:31Z</time>
      </trkpt>
      <trkpt lat="44.90044" lon="4.64862">
        <ele>588.19097900391</ele>
        <time>2009-08-03T14:58:46Z</time>
      </trkpt>
      <trkpt lat="44.90149" lon="4.64905">
        <ele>587.73797607422</ele>
        <time>2009-08-03T14:59:01Z</time>
      </trkpt>
      <trkpt lat="44.90268" lon="4.64953">
        <ele>585.91198730469</ele>
        <time>2009-08-03T14:59:18Z</time>
      </trkpt>
      <trkpt lat="44.90429" lon="4.6502">
        <ele>586.53900146484</ele>
        <time>2009-08-03T14:59:39Z</time>
      </trkpt>
      <trkpt lat="44.90562" lon="4.65076">
        <ele>586.70300292969</ele>
        <time>2009-08-03T14:59:57Z</time>
      </trkpt>
      <trkpt lat="44.90696" lon="4.65129">
        <ele>588.61999511719</ele>
        <time>2009-08-03T15:00:17Z</time>
      </trkpt>
      <trkpt lat="44.90793" lon="4.65167">
        <ele>588.31097412109</ele>
        <time>2009-08-03T15:00:33Z</time>
      </trkpt>
      <trkpt lat="44.90833" lon="4.6518">
        <ele>589.59002685547</ele>
        <time>2009-08-03T15:00:40Z</time>
      </trkpt>
      <trkpt lat="44.90863" lon="4.65162">
        <ele>589.98101806641</ele>
        <time>2009-08-03T15:00:46Z</time>
      </trkpt>
      <trkpt lat="44.90871" lon="4.6515">
        <ele>590.84899902344</ele>
        <time>2009-08-03T15:00:48Z</time>
      </trkpt>
      <trkpt lat="44.90879" lon="4.6514">
        <ele>591.19500732422</ele>
        <time>2009-08-03T15:00:50Z</time>
      </trkpt>
      <trkpt lat="44.90892" lon="4.65128">
        <ele>591.38500976562</ele>
        <time>2009-08-03T15:00:53Z</time>
      </trkpt>
      <trkpt lat="44.90919" lon="4.65119">
        <ele>591.54498291016</ele>
        <time>2009-08-03T15:00:58Z</time>
      </trkpt>
      <trkpt lat="44.90982" lon="4.65131">
        <ele>592.1259765625</ele>
        <time>2009-08-03T15:01:09Z</time>
      </trkpt>
      <trkpt lat="44.91072" lon="4.65096">
        <ele>592.75500488281</ele>
        <time>2009-08-03T15:01:24Z</time>
      </trkpt>
      <trkpt lat="44.91154" lon="4.65068">
        <ele>595.99798583984</ele>
        <time>2009-08-03T15:01:41Z</time>
      </trkpt>
      <trkpt lat="44.91179" lon="4.65059">
        <ele>597.22100830078</ele>
        <time>2009-08-03T15:01:47Z</time>
      </trkpt>
      <trkpt lat="44.91196" lon="4.65052">
        <ele>597.22900390625</ele>
        <time>2009-08-03T15:01:51Z</time>
      </trkpt>
      <trkpt lat="44.91208" lon="4.65048">
        <ele>597.52502441406</ele>
        <time>2009-08-03T15:01:54Z</time>
      </trkpt>
      <trkpt lat="44.9129" lon="4.65042">
        <ele>600.23400878906</ele>
        <time>2009-08-03T15:02:14Z</time>
      </trkpt>
      <trkpt lat="44.91371" lon="4.65048">
        <ele>602.05603027344</ele>
        <time>2009-08-03T15:02:31Z</time>
      </trkpt>
      <trkpt lat="44.91407" lon="4.65052">
        <ele>602.63702392578</ele>
        <time>2009-08-03T15:02:38Z</time>
      </trkpt>
      <trkpt lat="44.9145" lon="4.65055">
        <ele>602.95599365234</ele>
        <time>2009-08-03T15:02:46Z</time>
      </trkpt>
      <trkpt lat="44.91533" lon="4.65067">
        <ele>602.68499755859</ele>
        <time>2009-08-03T15:03:02Z</time>
      </trkpt>
      <trkpt lat="44.91608" lon="4.65024">
        <ele>606.30499267578</ele>
        <time>2009-08-03T15:03:19Z</time>
      </trkpt>
      <trkpt lat="44.91673" lon="4.6499">
        <ele>609.07299804688</ele>
        <time>2009-08-03T15:03:36Z</time>
      </trkpt>
      <trkpt lat="44.91721" lon="4.64964">
        <ele>610.49700927734</ele>
        <time>2009-08-03T15:03:48Z</time>
      </trkpt>
      <trkpt lat="44.91726" lon="4.64961">
        <ele>610.73297119141</ele>
        <time>2009-08-03T15:03:49Z</time>
      </trkpt>
      <trkpt lat="44.91738" lon="4.64951">
        <ele>612.18902587891</ele>
        <time>2009-08-03T15:03:52Z</time>
      </trkpt>
      <trkpt lat="44.91759" lon="4.64922">
        <ele>612.40698242188</ele>
        <time>2009-08-03T15:03:58Z</time>
      </trkpt>
      <trkpt lat="44.91798" lon="4.64828">
        <ele>610.47100830078</ele>
        <time>2009-08-03T15:04:11Z</time>
      </trkpt>
      <trkpt lat="44.91814" lon="4.64761">
        <ele>610.86297607422</ele>
        <time>2009-08-03T15:04:19Z</time>
      </trkpt>
      <trkpt lat="44.91835" lon="4.64683">
        <ele>610.83099365234</ele>
        <time>2009-08-03T15:04:29Z</time>
      </trkpt>
      <trkpt lat="44.91851" lon="4.64618">
        <ele>610.92297363281</ele>
        <time>2009-08-03T15:04:37Z</time>
      </trkpt>
      <trkpt lat="44.91878" lon="4.64569">
        <ele>611.85498046875</ele>
        <time>2009-08-03T15:04:45Z</time>
      </trkpt>
      <trkpt lat="44.9189" lon="4.64522">
        <ele>612.07299804688</ele>
        <time>2009-08-03T15:04:51Z</time>
      </trkpt>
      <trkpt lat="44.91894" lon="4.64474">
        <ele>613.35601806641</ele>
        <time>2009-08-03T15:04:58Z</time>
      </trkpt>
      <trkpt lat="44.91896" lon="4.64456">
        <ele>614.73602294922</ele>
        <time>2009-08-03T15:05:02Z</time>
      </trkpt>
      <trkpt lat="44.91914" lon="4.64416">
        <ele>614.38702392578</ele>
        <time>2009-08-03T15:05:10Z</time>
      </trkpt>
      <trkpt lat="44.91924" lon="4.64387">
        <ele>613.90100097656</ele>
        <time>2009-08-03T15:05:15Z</time>
      </trkpt>
      <trkpt lat="44.91932" lon="4.64369">
        <ele>613.22198486328</ele>
        <time>2009-08-03T15:05:18Z</time>
      </trkpt>
      <trkpt lat="44.91973" lon="4.64317">
        <ele>616.37200927734</ele>
        <time>2009-08-03T15:05:30Z</time>
      </trkpt>
      <trkpt lat="44.91977" lon="4.64312">
        <ele>616.34899902344</ele>
        <time>2009-08-03T15:05:31Z</time>
      </trkpt>
      <trkpt lat="44.92019" lon="4.64247">
        <ele>618.22399902344</ele>
        <time>2009-08-03T15:05:46Z</time>
      </trkpt>
      <trkpt lat="44.9203" lon="4.64233">
        <ele>618.87298583984</ele>
        <time>2009-08-03T15:05:50Z</time>
      </trkpt>
      <trkpt lat="44.92053" lon="4.64214">
        <ele>621.90100097656</ele>
        <time>2009-08-03T15:05:58Z</time>
      </trkpt>
      <trkpt lat="44.9208" lon="4.6421">
        <ele>623.86798095703</ele>
        <time>2009-08-03T15:06:06Z</time>
      </trkpt>
      <trkpt lat="44.9211" lon="4.64213">
        <ele>626.26501464844</ele>
        <time>2009-08-03T15:06:16Z</time>
      </trkpt>
      <trkpt lat="44.92128" lon="4.64244">
        <ele>629.15399169922</ele>
        <time>2009-08-03T15:06:27Z</time>
      </trkpt>
      <trkpt lat="44.92125" lon="4.64291">
        <ele>631.35699462891</ele>
        <time>2009-08-03T15:06:39Z</time>
      </trkpt>
      <trkpt lat="44.9213" lon="4.64344">
        <ele>633.63702392578</ele>
        <time>2009-08-03T15:06:52Z</time>
      </trkpt>
      <trkpt lat="44.9216" lon="4.64353">
        <ele>636.22399902344</ele>
        <time>2009-08-03T15:07:04Z</time>
      </trkpt>
      <trkpt lat="44.92191" lon="4.6433">
        <ele>639.29602050781</ele>
        <time>2009-08-03T15:07:18Z</time>
      </trkpt>
      <trkpt lat="44.92208" lon="4.64298">
        <ele>641.23999023438</ele>
        <time>2009-08-03T15:07:29Z</time>
      </trkpt>
      <trkpt lat="44.92225" lon="4.64255">
        <ele>643.72998046875</ele>
        <time>2009-08-03T15:07:42Z</time>
      </trkpt>
      <trkpt lat="44.92238" lon="4.64207">
        <ele>646.48498535156</ele>
        <time>2009-08-03T15:07:55Z</time>
      </trkpt>
      <trkpt lat="44.92257" lon="4.64164">
        <ele>649.29498291016</ele>
        <time>2009-08-03T15:08:08Z</time>
      </trkpt>
      <trkpt lat="44.92273" lon="4.64129">
        <ele>651.57000732422</ele>
        <time>2009-08-03T15:08:20Z</time>
      </trkpt>
      <trkpt lat="44.92294" lon="4.64106">
        <ele>653.70300292969</ele>
        <time>2009-08-03T15:08:32Z</time>
      </trkpt>
      <trkpt lat="44.923" lon="4.641">
        <ele>654.70202636719</ele>
        <time>2009-08-03T15:08:36Z</time>
      </trkpt>
      <trkpt lat="44.92327" lon="4.64074">
        <ele>657.2490234375</ele>
        <time>2009-08-03T15:08:51Z</time>
      </trkpt>
      <trkpt lat="44.92367" lon="4.64055">
        <ele>659.96801757812</ele>
        <time>2009-08-03T15:09:09Z</time>
      </trkpt>
      <trkpt lat="44.92398" lon="4.64053">
        <ele>661.77301025391</ele>
        <time>2009-08-03T15:09:22Z</time>
      </trkpt>
      <trkpt lat="44.92422" lon="4.64067">
        <ele>663.99102783203</ele>
        <time>2009-08-03T15:09:35Z</time>
      </trkpt>
      <trkpt lat="44.9245" lon="4.64092">
        <ele>666.73400878906</ele>
        <time>2009-08-03T15:09:48Z</time>
      </trkpt>
      <trkpt lat="44.92475" lon="4.64123">
        <ele>669.42797851562</ele>
        <time>2009-08-03T15:10:02Z</time>
      </trkpt>
      <trkpt lat="44.92485" lon="4.64157">
        <ele>671.38000488281</ele>
        <time>2009-08-03T15:10:14Z</time>
      </trkpt>
      <trkpt lat="44.92505" lon="4.642">
        <ele>673.99597167969</ele>
        <time>2009-08-03T15:10:28Z</time>
      </trkpt>
      <trkpt lat="44.92519" lon="4.6421">
        <ele>675.29302978516</ele>
        <time>2009-08-03T15:10:35Z</time>
      </trkpt>
      <trkpt lat="44.92546" lon="4.64199">
        <ele>677.03198242188</ele>
        <time>2009-08-03T15:10:47Z</time>
      </trkpt>
      <trkpt lat="44.92576" lon="4.64182">
        <ele>679.30603027344</ele>
        <time>2009-08-03T15:11:00Z</time>
      </trkpt>
      <trkpt lat="44.92592" lon="4.64179">
        <ele>681.18701171875</ele>
        <time>2009-08-03T15:11:10Z</time>
      </trkpt>
      <trkpt lat="44.92617" lon="4.64191">
        <ele>683.23101806641</ele>
        <time>2009-08-03T15:11:24Z</time>
      </trkpt>
      <trkpt lat="44.92652" lon="4.64195">
        <ele>685.99499511719</ele>
        <time>2009-08-03T15:11:39Z</time>
      </trkpt>
      <trkpt lat="44.92691" lon="4.6419">
        <ele>688.42199707031</ele>
        <time>2009-08-03T15:11:56Z</time>
      </trkpt>
      <trkpt lat="44.92726" lon="4.64186">
        <ele>691.36602783203</ele>
        <time>2009-08-03T15:12:12Z</time>
      </trkpt>
      <trkpt lat="44.92767" lon="4.64193">
        <ele>695.20098876953</ele>
        <time>2009-08-03T15:12:30Z</time>
      </trkpt>
      <trkpt lat="44.92802" lon="4.64238">
        <ele>698.22900390625</ele>
        <time>2009-08-03T15:12:46Z</time>
      </trkpt>
      <trkpt lat="44.92851" lon="4.64284">
        <ele>701.03601074219</ele>
        <time>2009-08-03T15:13:04Z</time>
      </trkpt>
      <trkpt lat="44.92859" lon="4.64295">
        <ele>704.09002685547</ele>
        <time>2009-08-03T15:13:08Z</time>
      </trkpt>
      <trkpt lat="44.92884" lon="4.64298">
        <ele>706.12097167969</ele>
        <time>2009-08-03T15:13:19Z</time>
      </trkpt>
      <trkpt lat="44.92897" lon="4.64245">
        <ele>708.71600341797</ele>
        <time>2009-08-03T15:13:33Z</time>
      </trkpt>
      <trkpt lat="44.92917" lon="4.64184">
        <ele>712.21301269531</ele>
        <time>2009-08-03T15:13:49Z</time>
      </trkpt>
      <trkpt lat="44.92942" lon="4.64102">
        <ele>716.14501953125</ele>
        <time>2009-08-03T15:14:12Z</time>
      </trkpt>
      <trkpt lat="44.92945" lon="4.64092">
        <ele>717.52600097656</ele>
        <time>2009-08-03T15:14:15Z</time>
      </trkpt>
      <trkpt lat="44.92949" lon="4.64045">
        <ele>720.36798095703</ele>
        <time>2009-08-03T15:14:27Z</time>
      </trkpt>
      <trkpt lat="44.92952" lon="4.63996">
        <ele>722.76599121094</ele>
        <time>2009-08-03T15:14:40Z</time>
      </trkpt>
      <trkpt lat="44.92965" lon="4.63943">
        <ele>725.43798828125</ele>
        <time>2009-08-03T15:14:55Z</time>
      </trkpt>
      <trkpt lat="44.92988" lon="4.63906">
        <ele>728.52502441406</ele>
        <time>2009-08-03T15:15:09Z</time>
      </trkpt>
      <trkpt lat="44.93014" lon="4.63873">
        <ele>731.87200927734</ele>
        <time>2009-08-03T15:15:24Z</time>
      </trkpt>
      <trkpt lat="44.93041" lon="4.63853">
        <ele>733.74102783203</ele>
        <time>2009-08-03T15:15:38Z</time>
      </trkpt>
      <trkpt lat="44.93069" lon="4.63827">
        <ele>736.74597167969</ele>
        <time>2009-08-03T15:15:52Z</time>
      </trkpt>
      <trkpt lat="44.93098" lon="4.63815">
        <ele>738.63201904297</ele>
        <time>2009-08-03T15:16:04Z</time>
      </trkpt>
      <trkpt lat="44.93129" lon="4.63816">
        <ele>741.35699462891</ele>
        <time>2009-08-03T15:16:17Z</time>
      </trkpt>
      <trkpt lat="44.93153" lon="4.63829">
        <ele>743.15997314453</ele>
        <time>2009-08-03T15:16:28Z</time>
      </trkpt>
      <trkpt lat="44.93183" lon="4.63851">
        <ele>746.01702880859</ele>
        <time>2009-08-03T15:16:42Z</time>
      </trkpt>
      <trkpt lat="44.93203" lon="4.63869">
        <ele>747.70501708984</ele>
        <time>2009-08-03T15:16:51Z</time>
      </trkpt>
      <trkpt lat="44.93225" lon="4.63892">
        <ele>750.08001708984</ele>
        <time>2009-08-03T15:17:03Z</time>
      </trkpt>
      <trkpt lat="44.93254" lon="4.63918">
        <ele>753.49798583984</ele>
        <time>2009-08-03T15:17:17Z</time>
      </trkpt>
      <trkpt lat="44.93256" lon="4.63919">
        <ele>753.61602783203</ele>
        <time>2009-08-03T15:17:18Z</time>
      </trkpt>
      <trkpt lat="44.93296" lon="4.63943">
        <ele>755.97900390625</ele>
        <time>2009-08-03T15:17:33Z</time>
      </trkpt>
      <trkpt lat="44.93327" lon="4.63968">
        <ele>758.77899169922</ele>
        <time>2009-08-03T15:17:46Z</time>
      </trkpt>
      <trkpt lat="44.93349" lon="4.63997">
        <ele>761.52697753906</ele>
        <time>2009-08-03T15:17:58Z</time>
      </trkpt>
      <trkpt lat="44.93356" lon="4.64005">
        <ele>762.27099609375</ele>
        <time>2009-08-03T15:18:01Z</time>
      </trkpt>
      <trkpt lat="44.93377" lon="4.64005">
        <ele>763.63598632812</ele>
        <time>2009-08-03T15:18:10Z</time>
      </trkpt>
      <trkpt lat="44.93388" lon="4.63973">
        <ele>765.79998779297</ele>
        <time>2009-08-03T15:18:21Z</time>
      </trkpt>
      <trkpt lat="44.93404" lon="4.63941">
        <ele>767.21997070312</ele>
        <time>2009-08-03T15:18:32Z</time>
      </trkpt>
      <trkpt lat="44.93425" lon="4.63929">
        <ele>769.33599853516</ele>
        <time>2009-08-03T15:18:42Z</time>
      </trkpt>
      <trkpt lat="44.93456" lon="4.63904">
        <ele>772.21899414062</ele>
        <time>2009-08-03T15:18:55Z</time>
      </trkpt>
      <trkpt lat="44.93478" lon="4.63875">
        <ele>774.34802246094</ele>
        <time>2009-08-03T15:19:06Z</time>
      </trkpt>
      <trkpt lat="44.93499" lon="4.63863">
        <ele>776.54498291016</ele>
        <time>2009-08-03T15:19:16Z</time>
      </trkpt>
      <trkpt lat="44.93524" lon="4.63856">
        <ele>778.87902832031</ele>
        <time>2009-08-03T15:19:29Z</time>
      </trkpt>
      <trkpt lat="44.93542" lon="4.63847">
        <ele>780.64501953125</ele>
        <time>2009-08-03T15:19:38Z</time>
      </trkpt>
      <trkpt lat="44.93578" lon="4.63824">
        <ele>783.83801269531</ele>
        <time>2009-08-03T15:19:52Z</time>
      </trkpt>
      <trkpt lat="44.93616" lon="4.63807">
        <ele>786.61700439453</ele>
        <time>2009-08-03T15:20:07Z</time>
      </trkpt>
      <trkpt lat="44.93654" lon="4.63807">
        <ele>789.25897216797</ele>
        <time>2009-08-03T15:20:22Z</time>
      </trkpt>
      <trkpt lat="44.93682" lon="4.6382">
        <ele>791.76202392578</ele>
        <time>2009-08-03T15:20:34Z</time>
      </trkpt>
      <trkpt lat="44.93722" lon="4.63816">
        <ele>794.80902099609</ele>
        <time>2009-08-03T15:20:49Z</time>
      </trkpt>
      <trkpt lat="44.93764" lon="4.63814">
        <ele>798.09002685547</ele>
        <time>2009-08-03T15:21:06Z</time>
      </trkpt>
      <trkpt lat="44.93799" lon="4.63801">
        <ele>800.48498535156</ele>
        <time>2009-08-03T15:21:20Z</time>
      </trkpt>
      <trkpt lat="44.93834" lon="4.63769">
        <ele>804.04699707031</ele>
        <time>2009-08-03T15:21:36Z</time>
      </trkpt>
      <trkpt lat="44.9386" lon="4.63741">
        <ele>806.56097412109</ele>
        <time>2009-08-03T15:21:49Z</time>
      </trkpt>
      <trkpt lat="44.93886" lon="4.63722">
        <ele>808.4990234375</ele>
        <time>2009-08-03T15:22:01Z</time>
      </trkpt>
      <trkpt lat="44.93922" lon="4.63722">
        <ele>811.37701416016</ele>
        <time>2009-08-03T15:22:17Z</time>
      </trkpt>
      <trkpt lat="44.93952" lon="4.63728">
        <ele>813.70001220703</ele>
        <time>2009-08-03T15:22:30Z</time>
      </trkpt>
      <trkpt lat="44.93969" lon="4.63722">
        <ele>814.77197265625</ele>
        <time>2009-08-03T15:22:40Z</time>
      </trkpt>
      <trkpt lat="44.93974" lon="4.63726">
        <ele>814.09899902344</ele>
        <time>2009-08-03T15:23:26Z</time>
      </trkpt>
      <trkpt lat="44.9398" lon="4.63729">
        <ele>814.56799316406</ele>
        <time>2009-08-03T15:23:30Z</time>
      </trkpt>
      <trkpt lat="44.94018" lon="4.6372">
        <ele>813.88702392578</ele>
        <time>2009-08-03T15:23:42Z</time>
      </trkpt>
      <trkpt lat="44.94091" lon="4.63696">
        <ele>810.40197753906</ele>
        <time>2009-08-03T15:23:57Z</time>
      </trkpt>
      <trkpt lat="44.94191" lon="4.63667">
        <ele>807.13000488281</ele>
        <time>2009-08-03T15:24:14Z</time>
      </trkpt>
      <trkpt lat="44.94226" lon="4.63671">
        <ele>804.95697021484</ele>
        <time>2009-08-03T15:24:19Z</time>
      </trkpt>
      <trkpt lat="44.94259" lon="4.63671">
        <ele>802.66400146484</ele>
        <time>2009-08-03T15:24:23Z</time>
      </trkpt>
      <trkpt lat="44.94276" lon="4.63669">
        <ele>801.17797851562</ele>
        <time>2009-08-03T15:24:25Z</time>
      </trkpt>
      <trkpt lat="44.94285" lon="4.63668">
        <ele>801.26501464844</ele>
        <time>2009-08-03T15:24:26Z</time>
      </trkpt>
      <trkpt lat="44.94378" lon="4.63627">
        <ele>801.22497558594</ele>
        <time>2009-08-03T15:24:38Z</time>
      </trkpt>
      <trkpt lat="44.94418" lon="4.63648">
        <ele>799.11199951172</ele>
        <time>2009-08-03T15:24:45Z</time>
      </trkpt>
      <trkpt lat="44.94426" lon="4.63666">
        <ele>797.01501464844</ele>
        <time>2009-08-03T15:24:47Z</time>
      </trkpt>
      <trkpt lat="44.94455" lon="4.63701">
        <ele>791.91400146484</ele>
        <time>2009-08-03T15:24:51Z</time>
      </trkpt>
      <trkpt lat="44.94516" lon="4.63794">
        <ele>784.06799316406</ele>
        <time>2009-08-03T15:24:59Z</time>
      </trkpt>
      <trkpt lat="44.94542" lon="4.63851">
        <ele>778.05401611328</ele>
        <time>2009-08-03T15:25:04Z</time>
      </trkpt>
      <trkpt lat="44.94601" lon="4.63937">
        <ele>765.99700927734</ele>
        <time>2009-08-03T15:25:11Z</time>
      </trkpt>
      <trkpt lat="44.9462" lon="4.63983">
        <ele>763.39099121094</ele>
        <time>2009-08-03T15:25:14Z</time>
      </trkpt>
      <trkpt lat="44.94661" lon="4.64034">
        <ele>759.22601318359</ele>
        <time>2009-08-03T15:25:19Z</time>
      </trkpt>
      <trkpt lat="44.94695" lon="4.64102">
        <ele>748.80200195312</ele>
        <time>2009-08-03T15:25:25Z</time>
      </trkpt>
      <trkpt lat="44.94703" lon="4.64133">
        <ele>747.94702148438</ele>
        <time>2009-08-03T15:25:27Z</time>
      </trkpt>
      <trkpt lat="44.94738" lon="4.64241">
        <ele>741.12097167969</ele>
        <time>2009-08-03T15:25:34Z</time>
      </trkpt>
      <trkpt lat="44.94723" lon="4.64299">
        <ele>736.90100097656</ele>
        <time>2009-08-03T15:25:40Z</time>
      </trkpt>
      <trkpt lat="44.94703" lon="4.64316">
        <ele>733.98699951172</ele>
        <time>2009-08-03T15:25:43Z</time>
      </trkpt>
      <trkpt lat="44.94657" lon="4.64336">
        <ele>731.10998535156</ele>
        <time>2009-08-03T15:25:48Z</time>
      </trkpt>
      <trkpt lat="44.9464" lon="4.64345">
        <ele>732.02301025391</ele>
        <time>2009-08-03T15:25:51Z</time>
      </trkpt>
      <trkpt lat="44.94637" lon="4.64347">
        <ele>731.94702148438</ele>
        <time>2009-08-03T15:25:52Z</time>
      </trkpt>
      <trkpt lat="44.94626" lon="4.64355">
        <ele>732.666015625</ele>
        <time>2009-08-03T15:25:57Z</time>
      </trkpt>
      <trkpt lat="44.9463" lon="4.64356">
        <ele>732.50799560547</ele>
        <time>2009-08-03T15:26:02Z</time>
      </trkpt>
      <trkpt lat="44.94643" lon="4.64342">
        <ele>732.18597412109</ele>
        <time>2009-08-03T15:26:07Z</time>
      </trkpt>
      <trkpt lat="44.94694" lon="4.64318">
        <ele>734.0830078125</ele>
        <time>2009-08-03T15:26:18Z</time>
      </trkpt>
      <trkpt lat="44.94717" lon="4.64309">
        <ele>736.89599609375</ele>
        <time>2009-08-03T15:26:25Z</time>
      </trkpt>
      <trkpt lat="44.94732" lon="4.6433">
        <ele>738.05700683594</ele>
        <time>2009-08-03T15:26:31Z</time>
      </trkpt>
      <trkpt lat="44.94749" lon="4.64374">
        <ele>739.80603027344</ele>
        <time>2009-08-03T15:26:41Z</time>
      </trkpt>
      <trkpt lat="44.94757" lon="4.64382">
        <ele>741.12701416016</ele>
        <time>2009-08-03T15:26:44Z</time>
      </trkpt>
      <trkpt lat="44.94786" lon="4.6441">
        <ele>743.38299560547</ele>
        <time>2009-08-03T15:26:55Z</time>
      </trkpt>
      <trkpt lat="44.94832" lon="4.64465">
        <ele>741.68902587891</ele>
        <time>2009-08-03T15:27:07Z</time>
      </trkpt>
      <trkpt lat="44.94867" lon="4.64526">
        <ele>738.54302978516</ele>
        <time>2009-08-03T15:27:15Z</time>
      </trkpt>
      <trkpt lat="44.94891" lon="4.64591">
        <ele>733.56701660156</ele>
        <time>2009-08-03T15:27:20Z</time>
      </trkpt>
      <trkpt lat="44.94898" lon="4.64651">
        <ele>731.04400634766</ele>
        <time>2009-08-03T15:27:24Z</time>
      </trkpt>
      <trkpt lat="44.94905" lon="4.64722">
        <ele>726.35198974609</ele>
        <time>2009-08-03T15:27:30Z</time>
      </trkpt>
      <trkpt lat="44.94906" lon="4.64729">
        <ele>726.22302246094</ele>
        <time>2009-08-03T15:27:31Z</time>
      </trkpt>
      <trkpt lat="44.94927" lon="4.64781">
        <ele>720.13397216797</ele>
        <time>2009-08-03T15:27:37Z</time>
      </trkpt>
      <trkpt lat="44.9495" lon="4.64821">
        <ele>714.91400146484</ele>
        <time>2009-08-03T15:27:41Z</time>
      </trkpt>
      <trkpt lat="44.94979" lon="4.64856">
        <ele>711.36901855469</ele>
        <time>2009-08-03T15:27:45Z</time>
      </trkpt>
      <trkpt lat="44.94995" lon="4.64907">
        <ele>707.57598876953</ele>
        <time>2009-08-03T15:27:50Z</time>
      </trkpt>
      <trkpt lat="44.94974" lon="4.6495">
        <ele>706.12701416016</ele>
        <time>2009-08-03T15:27:56Z</time>
      </trkpt>
      <trkpt lat="44.94951" lon="4.64996">
        <ele>700.42498779297</ele>
        <time>2009-08-03T15:28:02Z</time>
      </trkpt>
      <trkpt lat="44.94983" lon="4.65028">
        <ele>695.92602539062</ele>
        <time>2009-08-03T15:28:06Z</time>
      </trkpt>
      <trkpt lat="44.95003" lon="4.6504">
        <ele>694.73498535156</ele>
        <time>2009-08-03T15:28:08Z</time>
      </trkpt>
      <trkpt lat="44.95049" lon="4.65072">
        <ele>692.80798339844</ele>
        <time>2009-08-03T15:28:13Z</time>
      </trkpt>
      <trkpt lat="44.95055" lon="4.65076">
        <ele>692.25299072266</ele>
        <time>2009-08-03T15:28:14Z</time>
      </trkpt>
      <trkpt lat="44.95049" lon="4.65093">
        <ele>688.52099609375</ele>
        <time>2009-08-03T15:28:18Z</time>
      </trkpt>
      <trkpt lat="44.95041" lon="4.65096">
        <ele>687.59997558594</ele>
        <time>2009-08-03T15:28:19Z</time>
      </trkpt>
      <trkpt lat="44.94983" lon="4.65121">
        <ele>679.59100341797</ele>
        <time>2009-08-03T15:28:25Z</time>
      </trkpt>
      <trkpt lat="44.94967" lon="4.65135">
        <ele>677.74200439453</ele>
        <time>2009-08-03T15:28:27Z</time>
      </trkpt>
      <trkpt lat="44.94962" lon="4.65176">
        <ele>679.45599365234</ele>
        <time>2009-08-03T15:28:30Z</time>
      </trkpt>
      <trkpt lat="44.94989" lon="4.65213">
        <ele>681.95098876953</ele>
        <time>2009-08-03T15:28:37Z</time>
      </trkpt>
      <trkpt lat="44.94995" lon="4.65212">
        <ele>682.44500732422</ele>
        <time>2009-08-03T15:28:38Z</time>
      </trkpt>
      <trkpt lat="44.9501" lon="4.6521">
        <ele>683.91101074219</ele>
        <time>2009-08-03T15:28:41Z</time>
      </trkpt>
      <trkpt lat="44.95028" lon="4.65215">
        <ele>684.73797607422</ele>
        <time>2009-08-03T15:28:45Z</time>
      </trkpt>
      <trkpt lat="44.95036" lon="4.65219">
        <ele>684.75701904297</ele>
        <time>2009-08-03T15:28:47Z</time>
      </trkpt>
      <trkpt lat="44.9505" lon="4.65224">
        <ele>685.41998291016</ele>
        <time>2009-08-03T15:28:50Z</time>
      </trkpt>
      <trkpt lat="44.95056" lon="4.65225">
        <ele>685.45397949219</ele>
        <time>2009-08-03T15:28:51Z</time>
      </trkpt>
      <trkpt lat="44.95067" lon="4.65225">
        <ele>685.56896972656</ele>
        <time>2009-08-03T15:28:53Z</time>
      </trkpt>
      <trkpt lat="44.95093" lon="4.65229">
        <ele>684.98797607422</ele>
        <time>2009-08-03T15:28:58Z</time>
      </trkpt>
      <trkpt lat="44.9513" lon="4.6525">
        <ele>684.93499755859</ele>
        <time>2009-08-03T15:29:09Z</time>
      </trkpt>
      <trkpt lat="44.95132" lon="4.65252">
        <ele>684.74401855469</ele>
        <time>2009-08-03T15:29:10Z</time>
      </trkpt>
      <trkpt lat="44.95148" lon="4.6528">
        <ele>685.09399414062</ele>
        <time>2009-08-03T15:29:24Z</time>
      </trkpt>
      <trkpt lat="44.95154" lon="4.6529">
        <ele>685.53100585938</ele>
        <time>2009-08-03T15:29:28Z</time>
      </trkpt>
      <trkpt lat="44.95179" lon="4.65324">
        <ele>686.27001953125</ele>
        <time>2009-08-03T15:29:41Z</time>
      </trkpt>
      <trkpt lat="44.95213" lon="4.65359">
        <ele>686.61602783203</ele>
        <time>2009-08-03T15:29:55Z</time>
      </trkpt>
      <trkpt lat="44.95231" lon="4.65398">
        <ele>686.16900634766</ele>
        <time>2009-08-03T15:30:06Z</time>
      </trkpt>
      <trkpt lat="44.95239" lon="4.65418">
        <ele>685.96697998047</ele>
        <time>2009-08-03T15:30:10Z</time>
      </trkpt>
      <trkpt lat="44.95259" lon="4.65503">
        <ele>685.98901367188</ele>
        <time>2009-08-03T15:30:27Z</time>
      </trkpt>
      <trkpt lat="44.95267" lon="4.65556">
        <ele>686.30401611328</ele>
        <time>2009-08-03T15:30:42Z</time>
      </trkpt>
      <trkpt lat="44.95285" lon="4.6557">
        <ele>686.07000732422</ele>
        <time>2009-08-03T15:30:52Z</time>
      </trkpt>
      <trkpt lat="44.95323" lon="4.65549">
        <ele>687.5830078125</ele>
        <time>2009-08-03T15:31:04Z</time>
      </trkpt>
      <trkpt lat="44.95335" lon="4.65545">
        <ele>688.70501708984</ele>
        <time>2009-08-03T15:31:09Z</time>
      </trkpt>
      <trkpt lat="44.95364" lon="4.65535">
        <ele>686.18597412109</ele>
        <time>2009-08-03T15:31:20Z</time>
      </trkpt>
      <trkpt lat="44.9537" lon="4.65532">
        <ele>686.17297363281</ele>
        <time>2009-08-03T15:31:24Z</time>
      </trkpt>
      <trkpt lat="44.95371" lon="4.65532">
        <ele>686.00299072266</ele>
        <time>2009-08-03T15:31:26Z</time>
      </trkpt>
      <trkpt lat="44.95372" lon="4.65526">
        <ele>686.41101074219</ele>
        <time>2009-08-03T15:32:27Z</time>
      </trkpt>
      <trkpt lat="44.95372" lon="4.65526">
        <ele>686.51098632812</ele>
        <time>2009-08-03T15:32:28Z</time>
      </trkpt>
      <trkpt lat="44.95372" lon="4.65525">
        <ele>686.72399902344</ele>
        <time>2009-08-03T15:32:30Z</time>
      </trkpt>
      <trkpt lat="44.95345" lon="4.65538">
        <ele>687.625</ele>
        <time>2009-08-03T15:32:46Z</time>
      </trkpt>
      <trkpt lat="44.95327" lon="4.65545">
        <ele>687.68597412109</ele>
        <time>2009-08-03T15:33:01Z</time>
      </trkpt>
      <trkpt lat="44.95322" lon="4.65549">
        <ele>687.09698486328</ele>
        <time>2009-08-03T15:33:05Z</time>
      </trkpt>
      <trkpt lat="44.95328" lon="4.65544">
        <ele>687.31201171875</ele>
        <time>2009-08-03T15:33:14Z</time>
      </trkpt>
      <trkpt lat="44.95352" lon="4.65541">
        <ele>687.04400634766</ele>
        <time>2009-08-03T15:33:27Z</time>
      </trkpt>
      <trkpt lat="44.95372" lon="4.65534">
        <ele>684.958984375</ele>
        <time>2009-08-03T15:33:40Z</time>
      </trkpt>
      <trkpt lat="44.95377" lon="4.65534">
        <ele>684.27600097656</ele>
        <time>2009-08-03T15:33:42Z</time>
      </trkpt>
      <trkpt lat="44.9543" lon="4.65545">
        <ele>679.29400634766</ele>
        <time>2009-08-03T15:33:52Z</time>
      </trkpt>
      <trkpt lat="44.95476" lon="4.65538">
        <ele>676.5009765625</ele>
        <time>2009-08-03T15:34:00Z</time>
      </trkpt>
      <trkpt lat="44.95507" lon="4.65536">
        <ele>673.57397460938</ele>
        <time>2009-08-03T15:34:05Z</time>
      </trkpt>
      <trkpt lat="44.95527" lon="4.65531">
        <ele>671.40502929688</ele>
        <time>2009-08-03T15:34:08Z</time>
      </trkpt>
      <trkpt lat="44.95557" lon="4.65533">
        <ele>666.27099609375</ele>
        <time>2009-08-03T15:34:12Z</time>
      </trkpt>
      <trkpt lat="44.95571" lon="4.6554">
        <ele>664.03497314453</ele>
        <time>2009-08-03T15:34:14Z</time>
      </trkpt>
      <trkpt lat="44.95622" lon="4.65591">
        <ele>657.63201904297</ele>
        <time>2009-08-03T15:34:22Z</time>
      </trkpt>
      <trkpt lat="44.95632" lon="4.65639">
        <ele>657.85998535156</ele>
        <time>2009-08-03T15:34:28Z</time>
      </trkpt>
      <trkpt lat="44.95614" lon="4.65682">
        <ele>657.78900146484</ele>
        <time>2009-08-03T15:34:34Z</time>
      </trkpt>
      <trkpt lat="44.95606" lon="4.65705">
        <ele>656.31500244141</ele>
        <time>2009-08-03T15:34:37Z</time>
      </trkpt>
      <trkpt lat="44.95612" lon="4.6577">
        <ele>655.125</ele>
        <time>2009-08-03T15:34:44Z</time>
      </trkpt>
      <trkpt lat="44.95622" lon="4.65798">
        <ele>653.35498046875</ele>
        <time>2009-08-03T15:34:47Z</time>
      </trkpt>
      <trkpt lat="44.95629" lon="4.65819">
        <ele>652.94201660156</ele>
        <time>2009-08-03T15:34:49Z</time>
      </trkpt>
      <trkpt lat="44.95639" lon="4.65879">
        <ele>650.2509765625</ele>
        <time>2009-08-03T15:34:54Z</time>
      </trkpt>
      <trkpt lat="44.95636" lon="4.65905">
        <ele>649.01098632812</ele>
        <time>2009-08-03T15:34:56Z</time>
      </trkpt>
      <trkpt lat="44.95624" lon="4.65952">
        <ele>648.03302001953</ele>
        <time>2009-08-03T15:35:00Z</time>
      </trkpt>
      <trkpt lat="44.9561" lon="4.66054">
        <ele>650.74798583984</ele>
        <time>2009-08-03T15:35:11Z</time>
      </trkpt>
      <trkpt lat="44.9561" lon="4.66068">
        <ele>651.65997314453</ele>
        <time>2009-08-03T15:35:13Z</time>
      </trkpt>
      <trkpt lat="44.95605" lon="4.6615">
        <ele>653.4169921875</ele>
        <time>2009-08-03T15:35:26Z</time>
      </trkpt>
      <trkpt lat="44.95604" lon="4.66175">
        <ele>654.05902099609</ele>
        <time>2009-08-03T15:35:30Z</time>
      </trkpt>
      <trkpt lat="44.9561" lon="4.66231">
        <ele>655.7919921875</ele>
        <time>2009-08-03T15:35:39Z</time>
      </trkpt>
      <trkpt lat="44.95612" lon="4.66255">
        <ele>656.18499755859</ele>
        <time>2009-08-03T15:35:43Z</time>
      </trkpt>
      <trkpt lat="44.95613" lon="4.66271">
        <ele>656.85797119141</ele>
        <time>2009-08-03T15:35:46Z</time>
      </trkpt>
      <trkpt lat="44.9561" lon="4.66337">
        <ele>656.76800537109</ele>
        <time>2009-08-03T15:35:57Z</time>
      </trkpt>
      <trkpt lat="44.95602" lon="4.6643">
        <ele>656.9990234375</ele>
        <time>2009-08-03T15:36:09Z</time>
      </trkpt>
      <trkpt lat="44.95595" lon="4.66507">
        <ele>658.24298095703</ele>
        <time>2009-08-03T15:36:18Z</time>
      </trkpt>
      <trkpt lat="44.9559" lon="4.66586">
        <ele>660.42401123047</ele>
        <time>2009-08-03T15:36:28Z</time>
      </trkpt>
      <trkpt lat="44.9559" lon="4.66702">
        <ele>663.97198486328</ele>
        <time>2009-08-03T15:36:45Z</time>
      </trkpt>
      <trkpt lat="44.95579" lon="4.66801">
        <ele>665.41802978516</ele>
        <time>2009-08-03T15:37:00Z</time>
      </trkpt>
      <trkpt lat="44.9553" lon="4.66916">
        <ele>666.94000244141</ele>
        <time>2009-08-03T15:37:16Z</time>
      </trkpt>
      <trkpt lat="44.95524" lon="4.66929">
        <ele>667.5009765625</ele>
        <time>2009-08-03T15:37:18Z</time>
      </trkpt>
      <trkpt lat="44.95527" lon="4.66983">
        <ele>669.07800292969</ele>
        <time>2009-08-03T15:37:26Z</time>
      </trkpt>
      <trkpt lat="44.95534" lon="4.66998">
        <ele>670.25201416016</ele>
        <time>2009-08-03T15:37:29Z</time>
      </trkpt>
      <trkpt lat="44.9558" lon="4.67053">
        <ele>672.14300537109</ele>
        <time>2009-08-03T15:37:43Z</time>
      </trkpt>
      <trkpt lat="44.95593" lon="4.67085">
        <ele>674.01702880859</ele>
        <time>2009-08-03T15:37:49Z</time>
      </trkpt>
      <trkpt lat="44.95596" lon="4.67108">
        <ele>674.35302734375</ele>
        <time>2009-08-03T15:37:53Z</time>
      </trkpt>
      <trkpt lat="44.95596" lon="4.67119">
        <ele>675.21197509766</ele>
        <time>2009-08-03T15:37:55Z</time>
      </trkpt>
      <trkpt lat="44.95592" lon="4.6714">
        <ele>676.10699462891</ele>
        <time>2009-08-03T15:37:59Z</time>
      </trkpt>
      <trkpt lat="44.95555" lon="4.67185">
        <ele>679.96600341797</ele>
        <time>2009-08-03T15:38:14Z</time>
      </trkpt>
      <trkpt lat="44.95519" lon="4.67254">
        <ele>684.09497070312</ele>
        <time>2009-08-03T15:38:31Z</time>
      </trkpt>
      <trkpt lat="44.95536" lon="4.6731">
        <ele>686.21197509766</ele>
        <time>2009-08-03T15:38:44Z</time>
      </trkpt>
      <trkpt lat="44.95574" lon="4.67351">
        <ele>689.01501464844</ele>
        <time>2009-08-03T15:38:59Z</time>
      </trkpt>
      <trkpt lat="44.95572" lon="4.67399">
        <ele>691.47802734375</ele>
        <time>2009-08-03T15:39:11Z</time>
      </trkpt>
      <trkpt lat="44.95547" lon="4.67458">
        <ele>694.39599609375</ele>
        <time>2009-08-03T15:39:26Z</time>
      </trkpt>
      <trkpt lat="44.95545" lon="4.67469">
        <ele>695.41497802734</ele>
        <time>2009-08-03T15:39:28Z</time>
      </trkpt>
      <trkpt lat="44.95543" lon="4.67486">
        <ele>695.77600097656</ele>
        <time>2009-08-03T15:39:31Z</time>
      </trkpt>
      <trkpt lat="44.95523" lon="4.6756">
        <ele>698.79400634766</ele>
        <time>2009-08-03T15:39:46Z</time>
      </trkpt>
      <trkpt lat="44.95497" lon="4.6763">
        <ele>702.75402832031</ele>
        <time>2009-08-03T15:40:01Z</time>
      </trkpt>
      <trkpt lat="44.95516" lon="4.67702">
        <ele>705.3759765625</ele>
        <time>2009-08-03T15:40:16Z</time>
      </trkpt>
      <trkpt lat="44.9553" lon="4.67792">
        <ele>709.60900878906</ele>
        <time>2009-08-03T15:40:35Z</time>
      </trkpt>
      <trkpt lat="44.95553" lon="4.67857">
        <ele>712.86798095703</ele>
        <time>2009-08-03T15:40:50Z</time>
      </trkpt>
      <trkpt lat="44.95588" lon="4.67931">
        <ele>716.36199951172</ele>
        <time>2009-08-03T15:41:07Z</time>
      </trkpt>
      <trkpt lat="44.9559" lon="4.68015">
        <ele>719.82598876953</ele>
        <time>2009-08-03T15:41:24Z</time>
      </trkpt>
      <trkpt lat="44.95597" lon="4.68092">
        <ele>723.82299804688</ele>
        <time>2009-08-03T15:41:40Z</time>
      </trkpt>
      <trkpt lat="44.95617" lon="4.68164">
        <ele>726.9990234375</ele>
        <time>2009-08-03T15:41:56Z</time>
      </trkpt>
      <trkpt lat="44.95591" lon="4.68225">
        <ele>729.55700683594</ele>
        <time>2009-08-03T15:42:11Z</time>
      </trkpt>
      <trkpt lat="44.95588" lon="4.68291">
        <ele>732.30499267578</ele>
        <time>2009-08-03T15:42:24Z</time>
      </trkpt>
      <trkpt lat="44.95581" lon="4.6837">
        <ele>735.51599121094</ele>
        <time>2009-08-03T15:42:40Z</time>
      </trkpt>
      <trkpt lat="44.9556" lon="4.68436">
        <ele>738.916015625</ele>
        <time>2009-08-03T15:42:55Z</time>
      </trkpt>
      <trkpt lat="44.95539" lon="4.68505">
        <ele>742.25897216797</ele>
        <time>2009-08-03T15:43:12Z</time>
      </trkpt>
      <trkpt lat="44.95525" lon="4.68549">
        <ele>746.041015625</ele>
        <time>2009-08-03T15:43:23Z</time>
      </trkpt>
      <trkpt lat="44.95513" lon="4.686">
        <ele>746.02398681641</ele>
        <time>2009-08-03T15:43:35Z</time>
      </trkpt>
      <trkpt lat="44.95503" lon="4.68677">
        <ele>747.00500488281</ele>
        <time>2009-08-03T15:43:48Z</time>
      </trkpt>
      <trkpt lat="44.95503" lon="4.68738">
        <ele>744.82299804688</ele>
        <time>2009-08-03T15:43:56Z</time>
      </trkpt>
      <trkpt lat="44.95512" lon="4.68802">
        <ele>742.6259765625</ele>
        <time>2009-08-03T15:44:03Z</time>
      </trkpt>
      <trkpt lat="44.95523" lon="4.68859">
        <ele>743.19201660156</ele>
        <time>2009-08-03T15:44:09Z</time>
      </trkpt>
      <trkpt lat="44.95552" lon="4.68986">
        <ele>744.55603027344</ele>
        <time>2009-08-03T15:44:24Z</time>
      </trkpt>
      <trkpt lat="44.95553" lon="4.69021">
        <ele>745.03698730469</ele>
        <time>2009-08-03T15:44:28Z</time>
      </trkpt>
      <trkpt lat="44.95539" lon="4.69075">
        <ele>747.40301513672</ele>
        <time>2009-08-03T15:44:35Z</time>
      </trkpt>
      <trkpt lat="44.95518" lon="4.69119">
        <ele>749.34802246094</ele>
        <time>2009-08-03T15:44:43Z</time>
      </trkpt>
      <trkpt lat="44.95513" lon="4.6913">
        <ele>749.92797851562</ele>
        <time>2009-08-03T15:44:45Z</time>
      </trkpt>
      <trkpt lat="44.95506" lon="4.69146">
        <ele>750.81799316406</ele>
        <time>2009-08-03T15:44:48Z</time>
      </trkpt>
      <trkpt lat="44.95497" lon="4.69179">
        <ele>752.30999755859</ele>
        <time>2009-08-03T15:44:54Z</time>
      </trkpt>
      <trkpt lat="44.95491" lon="4.69206">
        <ele>753.59997558594</ele>
        <time>2009-08-03T15:44:59Z</time>
      </trkpt>
      <trkpt lat="44.95475" lon="4.69274">
        <ele>756.05401611328</ele>
        <time>2009-08-03T15:45:11Z</time>
      </trkpt>
      <trkpt lat="44.95477" lon="4.6936">
        <ele>757.17102050781</ele>
        <time>2009-08-03T15:45:25Z</time>
      </trkpt>
      <trkpt lat="44.9547" lon="4.6943">
        <ele>754.71099853516</ele>
        <time>2009-08-03T15:45:34Z</time>
      </trkpt>
      <trkpt lat="44.95468" lon="4.69448">
        <ele>753.86102294922</ele>
        <time>2009-08-03T15:45:36Z</time>
      </trkpt>
      <trkpt lat="44.95458" lon="4.69487">
        <ele>753.20397949219</ele>
        <time>2009-08-03T15:45:40Z</time>
      </trkpt>
      <trkpt lat="44.95443" lon="4.69516">
        <ele>751.62799072266</ele>
        <time>2009-08-03T15:45:43Z</time>
      </trkpt>
      <trkpt lat="44.95419" lon="4.69536">
        <ele>749.98400878906</ele>
        <time>2009-08-03T15:45:46Z</time>
      </trkpt>
      <trkpt lat="44.95399" lon="4.69544">
        <ele>749.34899902344</ele>
        <time>2009-08-03T15:45:48Z</time>
      </trkpt>
      <trkpt lat="44.95379" lon="4.69549">
        <ele>748.25201416016</ele>
        <time>2009-08-03T15:45:50Z</time>
      </trkpt>
      <trkpt lat="44.95358" lon="4.69552">
        <ele>746.84600830078</ele>
        <time>2009-08-03T15:45:52Z</time>
      </trkpt>
      <trkpt lat="44.95306" lon="4.69537">
        <ele>744.458984375</ele>
        <time>2009-08-03T15:45:57Z</time>
      </trkpt>
      <trkpt lat="44.9528" lon="4.69509">
        <ele>743.16802978516</ele>
        <time>2009-08-03T15:46:00Z</time>
      </trkpt>
      <trkpt lat="44.95273" lon="4.69498">
        <ele>742.37902832031</ele>
        <time>2009-08-03T15:46:01Z</time>
      </trkpt>
      <trkpt lat="44.95259" lon="4.69474">
        <ele>741</ele>
        <time>2009-08-03T15:46:03Z</time>
      </trkpt>
      <trkpt lat="44.95219" lon="4.69446">
        <ele>739.40399169922</ele>
        <time>2009-08-03T15:46:07Z</time>
      </trkpt>
      <trkpt lat="44.95154" lon="4.69474">
        <ele>736.18402099609</ele>
        <time>2009-08-03T15:46:13Z</time>
      </trkpt>
      <trkpt lat="44.95095" lon="4.69468">
        <ele>732.99597167969</ele>
        <time>2009-08-03T15:46:18Z</time>
      </trkpt>
      <trkpt lat="44.9504" lon="4.69522">
        <ele>728.96197509766</ele>
        <time>2009-08-03T15:46:24Z</time>
      </trkpt>
      <trkpt lat="44.95036" lon="4.69572">
        <ele>726.73602294922</ele>
        <time>2009-08-03T15:46:27Z</time>
      </trkpt>
      <trkpt lat="44.95038" lon="4.69607">
        <ele>725.3330078125</ele>
        <time>2009-08-03T15:46:29Z</time>
      </trkpt>
      <trkpt lat="44.95046" lon="4.69711">
        <ele>719.85900878906</ele>
        <time>2009-08-03T15:46:35Z</time>
      </trkpt>
      <trkpt lat="44.95049" lon="4.69747">
        <ele>719.47900390625</ele>
        <time>2009-08-03T15:46:37Z</time>
      </trkpt>
      <trkpt lat="44.95021" lon="4.69814">
        <ele>716.90399169922</ele>
        <time>2009-08-03T15:46:42Z</time>
      </trkpt>
      <trkpt lat="44.94968" lon="4.69801">
        <ele>713.75201416016</ele>
        <time>2009-08-03T15:46:46Z</time>
      </trkpt>
      <trkpt lat="44.94917" lon="4.6979">
        <ele>710.69396972656</ele>
        <time>2009-08-03T15:46:50Z</time>
      </trkpt>
      <trkpt lat="44.94843" lon="4.69777">
        <ele>705.166015625</ele>
        <time>2009-08-03T15:46:56Z</time>
      </trkpt>
      <trkpt lat="44.94828" lon="4.6981">
        <ele>705.14001464844</ele>
        <time>2009-08-03T15:46:58Z</time>
      </trkpt>
      <trkpt lat="44.94801" lon="4.69858">
        <ele>701.58697509766</ele>
        <time>2009-08-03T15:47:02Z</time>
      </trkpt>
      <trkpt lat="44.94789" lon="4.69865">
        <ele>700.89202880859</ele>
        <time>2009-08-03T15:47:03Z</time>
      </trkpt>
      <trkpt lat="44.9471" lon="4.69912">
        <ele>697.30700683594</ele>
        <time>2009-08-03T15:47:10Z</time>
      </trkpt>
      <trkpt lat="44.94658" lon="4.69929">
        <ele>694.58502197266</ele>
        <time>2009-08-03T15:47:14Z</time>
      </trkpt>
      <trkpt lat="44.94632" lon="4.69932">
        <ele>694.01599121094</ele>
        <time>2009-08-03T15:47:16Z</time>
      </trkpt>
      <trkpt lat="44.94577" lon="4.69915">
        <ele>690.99200439453</ele>
        <time>2009-08-03T15:47:20Z</time>
      </trkpt>
      <trkpt lat="44.94508" lon="4.6992">
        <ele>686.53302001953</ele>
        <time>2009-08-03T15:47:25Z</time>
      </trkpt>
      <trkpt lat="44.94466" lon="4.69912">
        <ele>684.79699707031</ele>
        <time>2009-08-03T15:47:28Z</time>
      </trkpt>
      <trkpt lat="44.94387" lon="4.69934">
        <ele>678.22302246094</ele>
        <time>2009-08-03T15:47:34Z</time>
      </trkpt>
      <trkpt lat="44.94381" lon="4.69949">
        <ele>678.02502441406</ele>
        <time>2009-08-03T15:47:35Z</time>
      </trkpt>
      <trkpt lat="44.94353" lon="4.70014">
        <ele>675.2919921875</ele>
        <time>2009-08-03T15:47:39Z</time>
      </trkpt>
      <trkpt lat="44.94349" lon="4.70142">
        <ele>670.12701416016</ele>
        <time>2009-08-03T15:47:46Z</time>
      </trkpt>
      <trkpt lat="44.94398" lon="4.7021">
        <ele>666.47302246094</ele>
        <time>2009-08-03T15:47:51Z</time>
      </trkpt>
      <trkpt lat="44.94426" lon="4.70245">
        <ele>665.67602539062</ele>
        <time>2009-08-03T15:47:54Z</time>
      </trkpt>
      <trkpt lat="44.94509" lon="4.70332">
        <ele>663.52301025391</ele>
        <time>2009-08-03T15:48:03Z</time>
      </trkpt>
      <trkpt lat="44.94535" lon="4.70381">
        <ele>661.89697265625</ele>
        <time>2009-08-03T15:48:07Z</time>
      </trkpt>
      <trkpt lat="44.94544" lon="4.70406">
        <ele>660.95397949219</ele>
        <time>2009-08-03T15:48:09Z</time>
      </trkpt>
      <trkpt lat="44.94584" lon="4.7044">
        <ele>660.25402832031</ele>
        <time>2009-08-03T15:48:14Z</time>
      </trkpt>
      <trkpt lat="44.94686" lon="4.70502">
        <ele>657.13897705078</ele>
        <time>2009-08-03T15:48:27Z</time>
      </trkpt>
      <trkpt lat="44.94736" lon="4.70554">
        <ele>655.12200927734</ele>
        <time>2009-08-03T15:48:35Z</time>
      </trkpt>
      <trkpt lat="44.94817" lon="4.70613">
        <ele>650.90600585938</ele>
        <time>2009-08-03T15:48:47Z</time>
      </trkpt>
      <trkpt lat="44.94937" lon="4.70724">
        <ele>648.54498291016</ele>
        <time>2009-08-03T15:49:06Z</time>
      </trkpt>
      <trkpt lat="44.9497" lon="4.70753">
        <ele>648.16198730469</ele>
        <time>2009-08-03T15:49:11Z</time>
      </trkpt>
      <trkpt lat="44.94988" lon="4.70777">
        <ele>646.37200927734</ele>
        <time>2009-08-03T15:49:14Z</time>
      </trkpt>
      <trkpt lat="44.94989" lon="4.70844">
        <ele>645.28302001953</ele>
        <time>2009-08-03T15:49:20Z</time>
      </trkpt>
      <trkpt lat="44.94988" lon="4.70889">
        <ele>644.89398193359</ele>
        <time>2009-08-03T15:49:24Z</time>
      </trkpt>
      <trkpt lat="44.95024" lon="4.71001">
        <ele>641.76202392578</ele>
        <time>2009-08-03T15:49:35Z</time>
      </trkpt>
      <trkpt lat="44.95049" lon="4.71101">
        <ele>639.76800537109</ele>
        <time>2009-08-03T15:49:44Z</time>
      </trkpt>
      <trkpt lat="44.95051" lon="4.71125">
        <ele>639.02899169922</ele>
        <time>2009-08-03T15:49:46Z</time>
      </trkpt>
      <trkpt lat="44.95077" lon="4.71185">
        <ele>637.92901611328</ele>
        <time>2009-08-03T15:49:52Z</time>
      </trkpt>
      <trkpt lat="44.95105" lon="4.71209">
        <ele>636.41802978516</ele>
        <time>2009-08-03T15:49:56Z</time>
      </trkpt>
      <trkpt lat="44.95111" lon="4.71216">
        <ele>636.99401855469</ele>
        <time>2009-08-03T15:49:57Z</time>
      </trkpt>
      <trkpt lat="44.95127" lon="4.71242">
        <ele>635.71099853516</ele>
        <time>2009-08-03T15:50:00Z</time>
      </trkpt>
      <trkpt lat="44.95183" lon="4.71375">
        <ele>632.54302978516</ele>
        <time>2009-08-03T15:50:14Z</time>
      </trkpt>
      <trkpt lat="44.95208" lon="4.71416">
        <ele>630.69500732422</ele>
        <time>2009-08-03T15:50:19Z</time>
      </trkpt>
      <trkpt lat="44.95214" lon="4.71456">
        <ele>630.88098144531</ele>
        <time>2009-08-03T15:50:23Z</time>
      </trkpt>
      <trkpt lat="44.95216" lon="4.71478">
        <ele>630.51098632812</ele>
        <time>2009-08-03T15:50:25Z</time>
      </trkpt>
      <trkpt lat="44.95219" lon="4.71499">
        <ele>631.45202636719</ele>
        <time>2009-08-03T15:50:27Z</time>
      </trkpt>
      <trkpt lat="44.95216" lon="4.71571">
        <ele>632.67901611328</ele>
        <time>2009-08-03T15:50:35Z</time>
      </trkpt>
      <trkpt lat="44.95215" lon="4.71606">
        <ele>633.59802246094</ele>
        <time>2009-08-03T15:50:40Z</time>
      </trkpt>
      <trkpt lat="44.95222" lon="4.7164">
        <ele>634.2080078125</ele>
        <time>2009-08-03T15:50:46Z</time>
      </trkpt>
      <trkpt lat="44.95232" lon="4.71665">
        <ele>635.916015625</ele>
        <time>2009-08-03T15:50:52Z</time>
      </trkpt>
      <trkpt lat="44.95248" lon="4.71692">
        <ele>635.5419921875</ele>
        <time>2009-08-03T15:50:58Z</time>
      </trkpt>
      <trkpt lat="44.95285" lon="4.71758">
        <ele>628.25701904297</ele>
        <time>2009-08-03T15:51:06Z</time>
      </trkpt>
      <trkpt lat="44.9529" lon="4.71768">
        <ele>627.16900634766</ele>
        <time>2009-08-03T15:51:07Z</time>
      </trkpt>
      <trkpt lat="44.95315" lon="4.71799">
        <ele>623.97198486328</ele>
        <time>2009-08-03T15:51:11Z</time>
      </trkpt>
      <trkpt lat="44.95416" lon="4.71882">
        <ele>615.74499511719</ele>
        <time>2009-08-03T15:51:25Z</time>
      </trkpt>
      <trkpt lat="44.95424" lon="4.7189">
        <ele>615.48699951172</ele>
        <time>2009-08-03T15:51:26Z</time>
      </trkpt>
      <trkpt lat="44.95481" lon="4.71969">
        <ele>607.71398925781</ele>
        <time>2009-08-03T15:51:34Z</time>
      </trkpt>
      <trkpt lat="44.95515" lon="4.72024">
        <ele>606.36499023438</ele>
        <time>2009-08-03T15:51:41Z</time>
      </trkpt>
      <trkpt lat="44.95525" lon="4.72045">
        <ele>606.42602539062</ele>
        <time>2009-08-03T15:51:49Z</time>
      </trkpt>
      <trkpt lat="44.95544" lon="4.72072">
        <ele>605.19299316406</ele>
        <time>2009-08-03T15:52:00Z</time>
      </trkpt>
      <trkpt lat="44.9558" lon="4.72131">
        <ele>604.97698974609</ele>
        <time>2009-08-03T15:52:10Z</time>
      </trkpt>
      <trkpt lat="44.95586" lon="4.72145">
        <ele>605.18103027344</ele>
        <time>2009-08-03T15:52:12Z</time>
      </trkpt>
      <trkpt lat="44.95596" lon="4.72225">
        <ele>606.55200195312</ele>
        <time>2009-08-03T15:52:23Z</time>
      </trkpt>
      <trkpt lat="44.95593" lon="4.7225">
        <ele>607.22601318359</ele>
        <time>2009-08-03T15:52:27Z</time>
      </trkpt>
      <trkpt lat="44.95579" lon="4.72303">
        <ele>608.39300537109</ele>
        <time>2009-08-03T15:52:37Z</time>
      </trkpt>
      <trkpt lat="44.95574" lon="4.72344">
        <ele>608.78198242188</ele>
        <time>2009-08-03T15:52:45Z</time>
      </trkpt>
      <trkpt lat="44.95594" lon="4.72381">
        <ele>610.32598876953</ele>
        <time>2009-08-03T15:52:53Z</time>
      </trkpt>
      <trkpt lat="44.95601" lon="4.72388">
        <ele>610.50402832031</ele>
        <time>2009-08-03T15:52:55Z</time>
      </trkpt>
      <trkpt lat="44.95627" lon="4.72402">
        <ele>611.21301269531</ele>
        <time>2009-08-03T15:53:01Z</time>
      </trkpt>
      <trkpt lat="44.95728" lon="4.72423">
        <ele>611.60998535156</ele>
        <time>2009-08-03T15:53:20Z</time>
      </trkpt>
      <trkpt lat="44.95769" lon="4.72429">
        <ele>612.38702392578</ele>
        <time>2009-08-03T15:53:27Z</time>
      </trkpt>
      <trkpt lat="44.95859" lon="4.7248">
        <ele>611.45599365234</ele>
        <time>2009-08-03T15:53:43Z</time>
      </trkpt>
      <trkpt lat="44.95869" lon="4.7249">
        <ele>611.77301025391</ele>
        <time>2009-08-03T15:53:45Z</time>
      </trkpt>
      <trkpt lat="44.9592" lon="4.72547">
        <ele>612.97100830078</ele>
        <time>2009-08-03T15:53:56Z</time>
      </trkpt>
      <trkpt lat="44.95934" lon="4.72599">
        <ele>614.44799804688</ele>
        <time>2009-08-03T15:54:03Z</time>
      </trkpt>
      <trkpt lat="44.95933" lon="4.72613">
        <ele>615.32897949219</ele>
        <time>2009-08-03T15:54:05Z</time>
      </trkpt>
      <trkpt lat="44.95961" lon="4.72715">
        <ele>619.20098876953</ele>
        <time>2009-08-03T15:54:20Z</time>
      </trkpt>
      <trkpt lat="44.95988" lon="4.72804">
        <ele>616.84698486328</ele>
        <time>2009-08-03T15:54:32Z</time>
      </trkpt>
      <trkpt lat="44.95985" lon="4.72928">
        <ele>615.1669921875</ele>
        <time>2009-08-03T15:54:45Z</time>
      </trkpt>
      <trkpt lat="44.95981" lon="4.73">
        <ele>613.01000976562</ele>
        <time>2009-08-03T15:54:52Z</time>
      </trkpt>
      <trkpt lat="44.95971" lon="4.73057">
        <ele>610.94598388672</ele>
        <time>2009-08-03T15:54:57Z</time>
      </trkpt>
      <trkpt lat="44.95958" lon="4.73091">
        <ele>609.44396972656</ele>
        <time>2009-08-03T15:55:00Z</time>
      </trkpt>
      <trkpt lat="44.95938" lon="4.73145">
        <ele>608.34899902344</ele>
        <time>2009-08-03T15:55:05Z</time>
      </trkpt>
      <trkpt lat="44.9592" lon="4.73203">
        <ele>608.31500244141</ele>
        <time>2009-08-03T15:55:11Z</time>
      </trkpt>
      <trkpt lat="44.95917" lon="4.73238">
        <ele>609.33099365234</ele>
        <time>2009-08-03T15:55:15Z</time>
      </trkpt>
      <trkpt lat="44.95921" lon="4.73259">
        <ele>609.46997070312</ele>
        <time>2009-08-03T15:55:18Z</time>
      </trkpt>
      <trkpt lat="44.95939" lon="4.73287">
        <ele>611.92401123047</ele>
        <time>2009-08-03T15:55:24Z</time>
      </trkpt>
      <trkpt lat="44.95972" lon="4.73305">
        <ele>612.47900390625</ele>
        <time>2009-08-03T15:55:31Z</time>
      </trkpt>
      <trkpt lat="44.96018" lon="4.73336">
        <ele>613.46002197266</ele>
        <time>2009-08-03T15:55:41Z</time>
      </trkpt>
      <trkpt lat="44.96032" lon="4.73341">
        <ele>613.541015625</ele>
        <time>2009-08-03T15:55:44Z</time>
      </trkpt>
      <trkpt lat="44.96078" lon="4.73331">
        <ele>613.45397949219</ele>
        <time>2009-08-03T15:55:53Z</time>
      </trkpt>
      <trkpt lat="44.96112" lon="4.73324">
        <ele>610.59497070312</ele>
        <time>2009-08-03T15:55:58Z</time>
      </trkpt>
      <trkpt lat="44.96128" lon="4.73322">
        <ele>608.64001464844</ele>
        <time>2009-08-03T15:56:00Z</time>
      </trkpt>
      <trkpt lat="44.96155" lon="4.73329">
        <ele>606.79901123047</ele>
        <time>2009-08-03T15:56:03Z</time>
      </trkpt>
      <trkpt lat="44.96191" lon="4.73384">
        <ele>601.83502197266</ele>
        <time>2009-08-03T15:56:09Z</time>
      </trkpt>
      <trkpt lat="44.96185" lon="4.73423">
        <ele>599.48498535156</ele>
        <time>2009-08-03T15:56:12Z</time>
      </trkpt>
      <trkpt lat="44.96178" lon="4.73446">
        <ele>598.25500488281</ele>
        <time>2009-08-03T15:56:14Z</time>
      </trkpt>
      <trkpt lat="44.96174" lon="4.73458">
        <ele>597.43597412109</ele>
        <time>2009-08-03T15:56:15Z</time>
      </trkpt>
      <trkpt lat="44.96173" lon="4.7351">
        <ele>593.61401367188</ele>
        <time>2009-08-03T15:56:19Z</time>
      </trkpt>
      <trkpt lat="44.96179" lon="4.73537">
        <ele>592.28100585938</ele>
        <time>2009-08-03T15:56:21Z</time>
      </trkpt>
      <trkpt lat="44.96225" lon="4.7366">
        <ele>583.49200439453</ele>
        <time>2009-08-03T15:56:31Z</time>
      </trkpt>
      <trkpt lat="44.96229" lon="4.73674">
        <ele>582.59100341797</ele>
        <time>2009-08-03T15:56:32Z</time>
      </trkpt>
      <trkpt lat="44.96214" lon="4.73734">
        <ele>579.87799072266</ele>
        <time>2009-08-03T15:56:37Z</time>
      </trkpt>
      <trkpt lat="44.96196" lon="4.7377">
        <ele>577.82800292969</ele>
        <time>2009-08-03T15:56:40Z</time>
      </trkpt>
      <trkpt lat="44.9621" lon="4.73817">
        <ele>576.20501708984</ele>
        <time>2009-08-03T15:56:44Z</time>
      </trkpt>
      <trkpt lat="44.96219" lon="4.7382">
        <ele>575.76000976562</ele>
        <time>2009-08-03T15:56:45Z</time>
      </trkpt>
      <trkpt lat="44.96251" lon="4.73825">
        <ele>572.66400146484</ele>
        <time>2009-08-03T15:56:48Z</time>
      </trkpt>
      <trkpt lat="44.96294" lon="4.73815">
        <ele>569.37701416016</ele>
        <time>2009-08-03T15:56:52Z</time>
      </trkpt>
      <trkpt lat="44.96342" lon="4.73818">
        <ele>565.12298583984</ele>
        <time>2009-08-03T15:56:56Z</time>
      </trkpt>
      <trkpt lat="44.96366" lon="4.73823">
        <ele>563.92297363281</ele>
        <time>2009-08-03T15:56:58Z</time>
      </trkpt>
      <trkpt lat="44.96423" lon="4.7379">
        <ele>559.46002197266</ele>
        <time>2009-08-03T15:57:03Z</time>
      </trkpt>
      <trkpt lat="44.9645" lon="4.73738">
        <ele>556.62200927734</ele>
        <time>2009-08-03T15:57:07Z</time>
      </trkpt>
      <trkpt lat="44.96444" lon="4.73691">
        <ele>552.68597412109</ele>
        <time>2009-08-03T15:57:10Z</time>
      </trkpt>
      <trkpt lat="44.96433" lon="4.73653">
        <ele>551.01599121094</ele>
        <time>2009-08-03T15:57:12Z</time>
      </trkpt>
      <trkpt lat="44.96453" lon="4.73609">
        <ele>548.2080078125</ele>
        <time>2009-08-03T15:57:16Z</time>
      </trkpt>
      <trkpt lat="44.96506" lon="4.73618">
        <ele>544.78497314453</ele>
        <time>2009-08-03T15:57:21Z</time>
      </trkpt>
      <trkpt lat="44.9655" lon="4.73663">
        <ele>542.42297363281</ele>
        <time>2009-08-03T15:57:26Z</time>
      </trkpt>
      <trkpt lat="44.96609" lon="4.73761">
        <ele>540.34100341797</ele>
        <time>2009-08-03T15:57:35Z</time>
      </trkpt>
      <trkpt lat="44.96617" lon="4.73769">
        <ele>540.58801269531</ele>
        <time>2009-08-03T15:57:36Z</time>
      </trkpt>
      <trkpt lat="44.96642" lon="4.73792">
        <ele>538.27099609375</ele>
        <time>2009-08-03T15:57:39Z</time>
      </trkpt>
      <trkpt lat="44.96683" lon="4.73808">
        <ele>534.57598876953</ele>
        <time>2009-08-03T15:57:43Z</time>
      </trkpt>
      <trkpt lat="44.96729" lon="4.7381">
        <ele>534.18701171875</ele>
        <time>2009-08-03T15:57:49Z</time>
      </trkpt>
      <trkpt lat="44.96731" lon="4.73812">
        <ele>533.86901855469</ele>
        <time>2009-08-03T15:57:50Z</time>
      </trkpt>
      <trkpt lat="44.96732" lon="4.73814">
        <ele>533.72198486328</ele>
        <time>2009-08-03T15:57:51Z</time>
      </trkpt>
      <trkpt lat="44.96724" lon="4.73819">
        <ele>533.45501708984</ele>
        <time>2009-08-03T15:57:56Z</time>
      </trkpt>
      <trkpt lat="44.96685" lon="4.73823">
        <ele>533.85797119141</ele>
        <time>2009-08-03T15:58:05Z</time>
      </trkpt>
      <trkpt lat="44.96654" lon="4.73833">
        <ele>533.82202148438</ele>
        <time>2009-08-03T15:58:12Z</time>
      </trkpt>
      <trkpt lat="44.96643" lon="4.73837">
        <ele>533.41802978516</ele>
        <time>2009-08-03T15:58:14Z</time>
      </trkpt>
      <trkpt lat="44.96571" lon="4.73871">
        <ele>530.25201416016</ele>
        <time>2009-08-03T15:58:27Z</time>
      </trkpt>
      <trkpt lat="44.96566" lon="4.73874">
        <ele>530.03198242188</ele>
        <time>2009-08-03T15:58:28Z</time>
      </trkpt>
      <trkpt lat="44.9655" lon="4.73884">
        <ele>529.68701171875</ele>
        <time>2009-08-03T15:58:31Z</time>
      </trkpt>
      <trkpt lat="44.96533" lon="4.73912">
        <ele>528.73999023438</ele>
        <time>2009-08-03T15:58:36Z</time>
      </trkpt>
      <trkpt lat="44.96532" lon="4.73919">
        <ele>529.38098144531</ele>
        <time>2009-08-03T15:58:37Z</time>
      </trkpt>
      <trkpt lat="44.96532" lon="4.73946">
        <ele>528.81298828125</ele>
        <time>2009-08-03T15:58:41Z</time>
      </trkpt>
      <trkpt lat="44.96518" lon="4.7401">
        <ele>527.83599853516</ele>
        <time>2009-08-03T15:58:51Z</time>
      </trkpt>
      <trkpt lat="44.96503" lon="4.74037">
        <ele>527.02301025391</ele>
        <time>2009-08-03T15:58:56Z</time>
      </trkpt>
      <trkpt lat="44.96472" lon="4.74065">
        <ele>524.60699462891</ele>
        <time>2009-08-03T15:59:02Z</time>
      </trkpt>
      <trkpt lat="44.96466" lon="4.7407">
        <ele>524.28900146484</ele>
        <time>2009-08-03T15:59:03Z</time>
      </trkpt>
      <trkpt lat="44.96452" lon="4.74093">
        <ele>522.85498046875</ele>
        <time>2009-08-03T15:59:06Z</time>
      </trkpt>
      <trkpt lat="44.964" lon="4.74146">
        <ele>519.39099121094</ele>
        <time>2009-08-03T15:59:14Z</time>
      </trkpt>
      <trkpt lat="44.9639" lon="4.74204">
        <ele>517.15502929688</ele>
        <time>2009-08-03T15:59:19Z</time>
      </trkpt>
      <trkpt lat="44.96389" lon="4.74265">
        <ele>515.36199951172</ele>
        <time>2009-08-03T15:59:24Z</time>
      </trkpt>
      <trkpt lat="44.96369" lon="4.74292">
        <ele>513.68298339844</ele>
        <time>2009-08-03T15:59:27Z</time>
      </trkpt>
      <trkpt lat="44.96353" lon="4.74305">
        <ele>512.38098144531</ele>
        <time>2009-08-03T15:59:29Z</time>
      </trkpt>
      <trkpt lat="44.96294" lon="4.74323">
        <ele>508.4700012207</ele>
        <time>2009-08-03T15:59:35Z</time>
      </trkpt>
      <trkpt lat="44.96274" lon="4.74332">
        <ele>508.03900146484</ele>
        <time>2009-08-03T15:59:37Z</time>
      </trkpt>
      <trkpt lat="44.96256" lon="4.74395">
        <ele>505.54998779297</ele>
        <time>2009-08-03T15:59:42Z</time>
      </trkpt>
      <trkpt lat="44.96259" lon="4.7442">
        <ele>504.59100341797</ele>
        <time>2009-08-03T15:59:44Z</time>
      </trkpt>
      <trkpt lat="44.96244" lon="4.74443">
        <ele>504.43301391602</ele>
        <time>2009-08-03T15:59:47Z</time>
      </trkpt>
      <trkpt lat="44.96232" lon="4.74477">
        <ele>502.88800048828</ele>
        <time>2009-08-03T15:59:50Z</time>
      </trkpt>
      <trkpt lat="44.96255" lon="4.74535">
        <ele>499.69299316406</ele>
        <time>2009-08-03T15:59:55Z</time>
      </trkpt>
      <trkpt lat="44.96262" lon="4.74617">
        <ele>495.18899536133</ele>
        <time>2009-08-03T16:00:01Z</time>
      </trkpt>
      <trkpt lat="44.9628" lon="4.74653">
        <ele>494.06799316406</ele>
        <time>2009-08-03T16:00:04Z</time>
      </trkpt>
      <trkpt lat="44.96306" lon="4.74698">
        <ele>492.10800170898</ele>
        <time>2009-08-03T16:00:08Z</time>
      </trkpt>
      <trkpt lat="44.96336" lon="4.74739">
        <ele>490.27301025391</ele>
        <time>2009-08-03T16:00:12Z</time>
      </trkpt>
      <trkpt lat="44.96328" lon="4.74791">
        <ele>488.77499389648</ele>
        <time>2009-08-03T16:00:17Z</time>
      </trkpt>
      <trkpt lat="44.96312" lon="4.74804">
        <ele>487.91799926758</ele>
        <time>2009-08-03T16:00:19Z</time>
      </trkpt>
      <trkpt lat="44.96279" lon="4.74836">
        <ele>486.98199462891</ele>
        <time>2009-08-03T16:00:24Z</time>
      </trkpt>
      <trkpt lat="44.96279" lon="4.74852">
        <ele>486.98199462891</ele>
        <time>2009-08-03T16:00:31Z</time>
      </trkpt>
      <trkpt lat="44.96281" lon="4.7485">
        <ele>486.87200927734</ele>
        <time>2009-08-03T16:00:32Z</time>
      </trkpt>
      <trkpt lat="44.96304" lon="4.74826">
        <ele>484.55499267578</ele>
        <time>2009-08-03T16:00:39Z</time>
      </trkpt>
      <trkpt lat="44.96379" lon="4.74794">
        <ele>480.39401245117</ele>
        <time>2009-08-03T16:00:52Z</time>
      </trkpt>
      <trkpt lat="44.96386" lon="4.74792">
        <ele>480.15600585938</ele>
        <time>2009-08-03T16:00:53Z</time>
      </trkpt>
      <trkpt lat="44.96416" lon="4.7476">
        <ele>478.29400634766</ele>
        <time>2009-08-03T16:00:58Z</time>
      </trkpt>
      <trkpt lat="44.96416" lon="4.74737">
        <ele>477.96301269531</ele>
        <time>2009-08-03T16:01:00Z</time>
      </trkpt>
      <trkpt lat="44.96436" lon="4.74648">
        <ele>473.60998535156</ele>
        <time>2009-08-03T16:01:08Z</time>
      </trkpt>
      <trkpt lat="44.96439" lon="4.74612">
        <ele>472.54098510742</ele>
        <time>2009-08-03T16:01:11Z</time>
      </trkpt>
      <trkpt lat="44.96441" lon="4.74589">
        <ele>471.70098876953</ele>
        <time>2009-08-03T16:01:13Z</time>
      </trkpt>
      <trkpt lat="44.96476" lon="4.74566">
        <ele>470.01599121094</ele>
        <time>2009-08-03T16:01:19Z</time>
      </trkpt>
      <trkpt lat="44.96487" lon="4.74579">
        <ele>468.54501342773</ele>
        <time>2009-08-03T16:01:21Z</time>
      </trkpt>
      <trkpt lat="44.96508" lon="4.74609">
        <ele>467.55999755859</ele>
        <time>2009-08-03T16:01:25Z</time>
      </trkpt>
      <trkpt lat="44.96536" lon="4.74628">
        <ele>464.57000732422</ele>
        <time>2009-08-03T16:01:29Z</time>
      </trkpt>
      <trkpt lat="44.96552" lon="4.74631">
        <ele>463.98400878906</ele>
        <time>2009-08-03T16:01:31Z</time>
      </trkpt>
      <trkpt lat="44.9659" lon="4.74679">
        <ele>462.70001220703</ele>
        <time>2009-08-03T16:01:38Z</time>
      </trkpt>
      <trkpt lat="44.96622" lon="4.74714">
        <ele>460.27700805664</ele>
        <time>2009-08-03T16:01:43Z</time>
      </trkpt>
      <trkpt lat="44.96638" lon="4.74723">
        <ele>459.78100585938</ele>
        <time>2009-08-03T16:01:45Z</time>
      </trkpt>
      <trkpt lat="44.96664" lon="4.74749">
        <ele>458.1969909668</ele>
        <time>2009-08-03T16:01:49Z</time>
      </trkpt>
      <trkpt lat="44.96693" lon="4.74765">
        <ele>457.14898681641</ele>
        <time>2009-08-03T16:01:53Z</time>
      </trkpt>
      <trkpt lat="44.96781" lon="4.74771">
        <ele>453.82699584961</ele>
        <time>2009-08-03T16:02:04Z</time>
      </trkpt>
      <trkpt lat="44.96882" lon="4.74773">
        <ele>449.83401489258</ele>
        <time>2009-08-03T16:02:16Z</time>
      </trkpt>
      <trkpt lat="44.96926" lon="4.74796">
        <ele>447.93701171875</ele>
        <time>2009-08-03T16:02:22Z</time>
      </trkpt>
      <trkpt lat="44.96975" lon="4.74808">
        <ele>446.40600585938</ele>
        <time>2009-08-03T16:02:28Z</time>
      </trkpt>
      <trkpt lat="44.97021" lon="4.74766">
        <ele>444.37899780273</ele>
        <time>2009-08-03T16:02:35Z</time>
      </trkpt>
      <trkpt lat="44.97022" lon="4.74729">
        <ele>443.66198730469</ele>
        <time>2009-08-03T16:02:38Z</time>
      </trkpt>
      <trkpt lat="44.97021" lon="4.74707">
        <ele>443.55801391602</ele>
        <time>2009-08-03T16:02:40Z</time>
      </trkpt>
      <trkpt lat="44.97049" lon="4.74675">
        <ele>442.59698486328</ele>
        <time>2009-08-03T16:02:46Z</time>
      </trkpt>
      <trkpt lat="44.97068" lon="4.74712">
        <ele>442.29699707031</ele>
        <time>2009-08-03T16:02:51Z</time>
      </trkpt>
      <trkpt lat="44.97083" lon="4.74767">
        <ele>441.10000610352</ele>
        <time>2009-08-03T16:02:57Z</time>
      </trkpt>
      <trkpt lat="44.97089" lon="4.74818">
        <ele>440.38800048828</ele>
        <time>2009-08-03T16:03:02Z</time>
      </trkpt>
      <trkpt lat="44.97094" lon="4.7485">
        <ele>439.72198486328</ele>
        <time>2009-08-03T16:03:05Z</time>
      </trkpt>
      <trkpt lat="44.97135" lon="4.74887">
        <ele>436.60998535156</ele>
        <time>2009-08-03T16:03:12Z</time>
      </trkpt>
      <trkpt lat="44.97143" lon="4.74886">
        <ele>436.60501098633</ele>
        <time>2009-08-03T16:03:13Z</time>
      </trkpt>
      <trkpt lat="44.97232" lon="4.74879">
        <ele>432.29501342773</ele>
        <time>2009-08-03T16:03:23Z</time>
      </trkpt>
      <trkpt lat="44.97252" lon="4.74879">
        <ele>430.87600708008</ele>
        <time>2009-08-03T16:03:25Z</time>
      </trkpt>
      <trkpt lat="44.97309" lon="4.74868">
        <ele>431.22900390625</ele>
        <time>2009-08-03T16:03:31Z</time>
      </trkpt>
      <trkpt lat="44.97357" lon="4.74874">
        <ele>428.63299560547</ele>
        <time>2009-08-03T16:03:36Z</time>
      </trkpt>
      <trkpt lat="44.97366" lon="4.74879">
        <ele>427.68200683594</ele>
        <time>2009-08-03T16:03:37Z</time>
      </trkpt>
      <trkpt lat="44.97437" lon="4.74928">
        <ele>424.10501098633</ele>
        <time>2009-08-03T16:03:45Z</time>
      </trkpt>
      <trkpt lat="44.97446" lon="4.74933">
        <ele>423.82501220703</ele>
        <time>2009-08-03T16:03:46Z</time>
      </trkpt>
      <trkpt lat="44.97484" lon="4.74935">
        <ele>422.46099853516</ele>
        <time>2009-08-03T16:03:50Z</time>
      </trkpt>
      <trkpt lat="44.97557" lon="4.74915">
        <ele>419.61401367188</ele>
        <time>2009-08-03T16:03:58Z</time>
      </trkpt>
      <trkpt lat="44.97597" lon="4.74892">
        <ele>418.47299194336</ele>
        <time>2009-08-03T16:04:03Z</time>
      </trkpt>
      <trkpt lat="44.97636" lon="4.74846">
        <ele>416.01400756836</ele>
        <time>2009-08-03T16:04:09Z</time>
      </trkpt>
      <trkpt lat="44.9765" lon="4.74816">
        <ele>414.30999755859</ele>
        <time>2009-08-03T16:04:12Z</time>
      </trkpt>
      <trkpt lat="44.97677" lon="4.74791">
        <ele>413.5299987793</ele>
        <time>2009-08-03T16:04:16Z</time>
      </trkpt>
      <trkpt lat="44.9775" lon="4.74782">
        <ele>411.31600952148</ele>
        <time>2009-08-03T16:04:25Z</time>
      </trkpt>
      <trkpt lat="44.97775" lon="4.74775">
        <ele>409.98498535156</ele>
        <time>2009-08-03T16:04:28Z</time>
      </trkpt>
      <trkpt lat="44.97792" lon="4.74775">
        <ele>409.04901123047</ele>
        <time>2009-08-03T16:04:30Z</time>
      </trkpt>
      <trkpt lat="44.97815" lon="4.74778">
        <ele>408.61099243164</ele>
        <time>2009-08-03T16:04:33Z</time>
      </trkpt>
      <trkpt lat="44.97831" lon="4.74778">
        <ele>408.97299194336</ele>
        <time>2009-08-03T16:04:35Z</time>
      </trkpt>
      <trkpt lat="44.97882" lon="4.74759">
        <ele>407.13900756836</ele>
        <time>2009-08-03T16:04:41Z</time>
      </trkpt>
      <trkpt lat="44.97909" lon="4.74747">
        <ele>406.57400512695</ele>
        <time>2009-08-03T16:04:44Z</time>
      </trkpt>
      <trkpt lat="44.97927" lon="4.74738">
        <ele>406.23098754883</ele>
        <time>2009-08-03T16:04:46Z</time>
      </trkpt>
      <trkpt lat="44.97943" lon="4.74724">
        <ele>405.16799926758</ele>
        <time>2009-08-03T16:04:48Z</time>
      </trkpt>
      <trkpt lat="44.97955" lon="4.74705">
        <ele>404.46600341797</ele>
        <time>2009-08-03T16:04:50Z</time>
      </trkpt>
      <trkpt lat="44.97977" lon="4.74679">
        <ele>402.84899902344</ele>
        <time>2009-08-03T16:04:53Z</time>
      </trkpt>
      <trkpt lat="44.97995" lon="4.74668">
        <ele>401.37799072266</ele>
        <time>2009-08-03T16:04:55Z</time>
      </trkpt>
      <trkpt lat="44.98028" lon="4.74635">
        <ele>399.06201171875</ele>
        <time>2009-08-03T16:04:59Z</time>
      </trkpt>
      <trkpt lat="44.98059" lon="4.74601">
        <ele>398.09698486328</ele>
        <time>2009-08-03T16:05:03Z</time>
      </trkpt>
      <trkpt lat="44.98124" lon="4.74563">
        <ele>396.69400024414</ele>
        <time>2009-08-03T16:05:10Z</time>
      </trkpt>
      <trkpt lat="44.98156" lon="4.74533">
        <ele>395.02899169922</ele>
        <time>2009-08-03T16:05:14Z</time>
      </trkpt>
      <trkpt lat="44.982" lon="4.74509">
        <ele>393.91400146484</ele>
        <time>2009-08-03T16:05:20Z</time>
      </trkpt>
      <trkpt lat="44.98207" lon="4.74514">
        <ele>393.5</ele>
        <time>2009-08-03T16:05:21Z</time>
      </trkpt>
      <trkpt lat="44.9825" lon="4.74528">
        <ele>392.70401000977</ele>
        <time>2009-08-03T16:05:26Z</time>
      </trkpt>
      <trkpt lat="44.98314" lon="4.74559">
        <ele>391.16000366211</ele>
        <time>2009-08-03T16:05:34Z</time>
      </trkpt>
      <trkpt lat="44.98351" lon="4.74558">
        <ele>391.34201049805</ele>
        <time>2009-08-03T16:05:39Z</time>
      </trkpt>
      <trkpt lat="44.9837" lon="4.74542">
        <ele>391.01998901367</ele>
        <time>2009-08-03T16:05:42Z</time>
      </trkpt>
      <trkpt lat="44.98402" lon="4.74554">
        <ele>390.79098510742</ele>
        <time>2009-08-03T16:05:47Z</time>
      </trkpt>
      <trkpt lat="44.98408" lon="4.74583">
        <ele>390.11099243164</ele>
        <time>2009-08-03T16:05:50Z</time>
      </trkpt>
      <trkpt lat="44.98426" lon="4.74626">
        <ele>388.55099487305</ele>
        <time>2009-08-03T16:05:55Z</time>
      </trkpt>
      <trkpt lat="44.98479" lon="4.74684">
        <ele>387.52700805664</ele>
        <time>2009-08-03T16:06:03Z</time>
      </trkpt>
      <trkpt lat="44.98536" lon="4.74749">
        <ele>385.26699829102</ele>
        <time>2009-08-03T16:06:12Z</time>
      </trkpt>
      <trkpt lat="44.9855" lon="4.74798">
        <ele>384.68399047852</ele>
        <time>2009-08-03T16:06:17Z</time>
      </trkpt>
      <trkpt lat="44.98549" lon="4.7482">
        <ele>384.29098510742</ele>
        <time>2009-08-03T16:06:19Z</time>
      </trkpt>
      <trkpt lat="44.98525" lon="4.7486">
        <ele>383.54400634766</ele>
        <time>2009-08-03T16:06:24Z</time>
      </trkpt>
      <trkpt lat="44.98513" lon="4.74868">
        <ele>384.16400146484</ele>
        <time>2009-08-03T16:06:26Z</time>
      </trkpt>
      <trkpt lat="44.98506" lon="4.7491">
        <ele>384.51800537109</ele>
        <time>2009-08-03T16:06:32Z</time>
      </trkpt>
      <trkpt lat="44.98536" lon="4.74995">
        <ele>383.93399047852</ele>
        <time>2009-08-03T16:06:42Z</time>
      </trkpt>
      <trkpt lat="44.98544" lon="4.75033">
        <ele>384.66799926758</ele>
        <time>2009-08-03T16:06:46Z</time>
      </trkpt>
      <trkpt lat="44.98548" lon="4.75063">
        <ele>384.64199829102</ele>
        <time>2009-08-03T16:06:49Z</time>
      </trkpt>
      <trkpt lat="44.98552" lon="4.75092">
        <ele>384.7380065918</ele>
        <time>2009-08-03T16:06:52Z</time>
      </trkpt>
      <trkpt lat="44.98552" lon="4.75122">
        <ele>384.83700561523</ele>
        <time>2009-08-03T16:06:55Z</time>
      </trkpt>
      <trkpt lat="44.98555" lon="4.75189">
        <ele>385.72299194336</ele>
        <time>2009-08-03T16:07:02Z</time>
      </trkpt>
      <trkpt lat="44.98553" lon="4.75262">
        <ele>386.72601318359</ele>
        <time>2009-08-03T16:07:11Z</time>
      </trkpt>
      <trkpt lat="44.98544" lon="4.75275">
        <ele>386.65301513672</ele>
        <time>2009-08-03T16:07:13Z</time>
      </trkpt>
      <trkpt lat="44.98489" lon="4.75339">
        <ele>387.4460144043</ele>
        <time>2009-08-03T16:07:24Z</time>
      </trkpt>
      <trkpt lat="44.98442" lon="4.75338">
        <ele>388.32598876953</ele>
        <time>2009-08-03T16:07:32Z</time>
      </trkpt>
      <trkpt lat="44.98438" lon="4.75333">
        <ele>388.42098999023</ele>
        <time>2009-08-03T16:07:33Z</time>
      </trkpt>
      <trkpt lat="44.98423" lon="4.75315">
        <ele>388.55801391602</ele>
        <time>2009-08-03T16:07:36Z</time>
      </trkpt>
      <trkpt lat="44.98393" lon="4.75266">
        <ele>388.95098876953</ele>
        <time>2009-08-03T16:07:43Z</time>
      </trkpt>
      <trkpt lat="44.9836" lon="4.75264">
        <ele>389.43099975586</ele>
        <time>2009-08-03T16:07:49Z</time>
      </trkpt>
      <trkpt lat="44.98363" lon="4.75313">
        <ele>389.82598876953</ele>
        <time>2009-08-03T16:07:55Z</time>
      </trkpt>
      <trkpt lat="44.98375" lon="4.75334">
        <ele>389.62799072266</ele>
        <time>2009-08-03T16:07:58Z</time>
      </trkpt>
      <trkpt lat="44.98387" lon="4.75386">
        <ele>389.90899658203</ele>
        <time>2009-08-03T16:08:04Z</time>
      </trkpt>
      <trkpt lat="44.98386" lon="4.75444">
        <ele>389.73001098633</ele>
        <time>2009-08-03T16:08:10Z</time>
      </trkpt>
      <trkpt lat="44.98372" lon="4.75492">
        <ele>390.10598754883</ele>
        <time>2009-08-03T16:08:15Z</time>
      </trkpt>
      <trkpt lat="44.98364" lon="4.75508">
        <ele>390.40899658203</ele>
        <time>2009-08-03T16:08:17Z</time>
      </trkpt>
      <trkpt lat="44.9836" lon="4.75568">
        <ele>390.80801391602</ele>
        <time>2009-08-03T16:08:23Z</time>
      </trkpt>
      <trkpt lat="44.98358" lon="4.75586">
        <ele>391.06900024414</ele>
        <time>2009-08-03T16:08:25Z</time>
      </trkpt>
      <trkpt lat="44.98341" lon="4.75623">
        <ele>391.25399780273</ele>
        <time>2009-08-03T16:08:29Z</time>
      </trkpt>
      <trkpt lat="44.98336" lon="4.75679">
        <ele>392.26599121094</ele>
        <time>2009-08-03T16:08:36Z</time>
      </trkpt>
      <trkpt lat="44.98358" lon="4.75706">
        <ele>392.40600585938</ele>
        <time>2009-08-03T16:08:40Z</time>
      </trkpt>
      <trkpt lat="44.98373" lon="4.75737">
        <ele>392.84799194336</ele>
        <time>2009-08-03T16:08:44Z</time>
      </trkpt>
      <trkpt lat="44.98402" lon="4.75771">
        <ele>392.98098754883</ele>
        <time>2009-08-03T16:08:50Z</time>
      </trkpt>
      <trkpt lat="44.98481" lon="4.75832">
        <ele>393.67300415039</ele>
        <time>2009-08-03T16:09:04Z</time>
      </trkpt>
      <trkpt lat="44.98486" lon="4.75837">
        <ele>393.67199707031</ele>
        <time>2009-08-03T16:09:05Z</time>
      </trkpt>
      <trkpt lat="44.98566" lon="4.7589">
        <ele>395.10900878906</ele>
        <time>2009-08-03T16:09:18Z</time>
      </trkpt>
      <trkpt lat="44.98582" lon="4.75946">
        <ele>395.39999389648</ele>
        <time>2009-08-03T16:09:25Z</time>
      </trkpt>
      <trkpt lat="44.98581" lon="4.75955">
        <ele>395.81500244141</ele>
        <time>2009-08-03T16:09:26Z</time>
      </trkpt>
      <trkpt lat="44.98578" lon="4.75973">
        <ele>395.58801269531</ele>
        <time>2009-08-03T16:09:28Z</time>
      </trkpt>
      <trkpt lat="44.986" lon="4.76012">
        <ele>395.79299926758</ele>
        <time>2009-08-03T16:09:34Z</time>
      </trkpt>
      <trkpt lat="44.98623" lon="4.75995">
        <ele>396.08401489258</ele>
        <time>2009-08-03T16:09:38Z</time>
      </trkpt>
      <trkpt lat="44.98643" lon="4.75972">
        <ele>396.74600219727</ele>
        <time>2009-08-03T16:09:42Z</time>
      </trkpt>
      <trkpt lat="44.98659" lon="4.75961">
        <ele>396.72198486328</ele>
        <time>2009-08-03T16:09:45Z</time>
      </trkpt>
      <trkpt lat="44.98697" lon="4.75909">
        <ele>398.01501464844</ele>
        <time>2009-08-03T16:09:54Z</time>
      </trkpt>
      <trkpt lat="44.98726" lon="4.75894">
        <ele>397.70300292969</ele>
        <time>2009-08-03T16:09:59Z</time>
      </trkpt>
      <trkpt lat="44.98799" lon="4.759">
        <ele>398.40899658203</ele>
        <time>2009-08-03T16:10:10Z</time>
      </trkpt>
      <trkpt lat="44.98837" lon="4.75945">
        <ele>398.99398803711</ele>
        <time>2009-08-03T16:10:18Z</time>
      </trkpt>
      <trkpt lat="44.98843" lon="4.75961">
        <ele>399.15301513672</ele>
        <time>2009-08-03T16:10:20Z</time>
      </trkpt>
      <trkpt lat="44.98883" lon="4.75973">
        <ele>400.70098876953</ele>
        <time>2009-08-03T16:10:27Z</time>
      </trkpt>
      <trkpt lat="44.98888" lon="4.75968">
        <ele>400.80801391602</ele>
        <time>2009-08-03T16:10:28Z</time>
      </trkpt>
      <trkpt lat="44.98943" lon="4.75957">
        <ele>400.71499633789</ele>
        <time>2009-08-03T16:10:37Z</time>
      </trkpt>
      <trkpt lat="44.98959" lon="4.75972">
        <ele>400.3869934082</ele>
        <time>2009-08-03T16:10:40Z</time>
      </trkpt>
      <trkpt lat="44.98985" lon="4.76">
        <ele>400.93099975586</ele>
        <time>2009-08-03T16:10:45Z</time>
      </trkpt>
      <trkpt lat="44.99039" lon="4.76002">
        <ele>402.02499389648</ele>
        <time>2009-08-03T16:10:54Z</time>
      </trkpt>
      <trkpt lat="44.99054" lon="4.75991">
        <ele>402.24499511719</ele>
        <time>2009-08-03T16:10:57Z</time>
      </trkpt>
      <trkpt lat="44.99082" lon="4.75981">
        <ele>402.4580078125</ele>
        <time>2009-08-03T16:11:02Z</time>
      </trkpt>
      <trkpt lat="44.99165" lon="4.75981">
        <ele>403.00500488281</ele>
        <time>2009-08-03T16:11:17Z</time>
      </trkpt>
      <trkpt lat="44.99235" lon="4.75974">
        <ele>404.73599243164</ele>
        <time>2009-08-03T16:11:30Z</time>
      </trkpt>
      <trkpt lat="44.99328" lon="4.75993">
        <ele>405.0539855957</ele>
        <time>2009-08-03T16:11:47Z</time>
      </trkpt>
      <trkpt lat="44.99351" lon="4.75995">
        <ele>405.60299682617</ele>
        <time>2009-08-03T16:11:51Z</time>
      </trkpt>
      <trkpt lat="44.99399" lon="4.75974">
        <ele>406.68399047852</ele>
        <time>2009-08-03T16:12:00Z</time>
      </trkpt>
      <trkpt lat="44.99493" lon="4.75969">
        <ele>407.94799804688</ele>
        <time>2009-08-03T16:12:17Z</time>
      </trkpt>
      <trkpt lat="44.99588" lon="4.75967">
        <ele>409.11801147461</ele>
        <time>2009-08-03T16:12:33Z</time>
      </trkpt>
      <trkpt lat="44.99666" lon="4.75982">
        <ele>411.4289855957</ele>
        <time>2009-08-03T16:12:46Z</time>
      </trkpt>
      <trkpt lat="44.99681" lon="4.75989">
        <ele>411.26000976562</ele>
        <time>2009-08-03T16:12:49Z</time>
      </trkpt>
      <trkpt lat="44.99691" lon="4.75995">
        <ele>411.16400146484</ele>
        <time>2009-08-03T16:12:51Z</time>
      </trkpt>
      <trkpt lat="44.99713" lon="4.76035">
        <ele>410.76699829102</ele>
        <time>2009-08-03T16:12:58Z</time>
      </trkpt>
      <trkpt lat="44.99715" lon="4.7605">
        <ele>410.30801391602</ele>
        <time>2009-08-03T16:13:00Z</time>
      </trkpt>
      <trkpt lat="44.99711" lon="4.76082">
        <ele>409.20498657227</ele>
        <time>2009-08-03T16:13:04Z</time>
      </trkpt>
      <trkpt lat="44.99717" lon="4.76141">
        <ele>406.79901123047</ele>
        <time>2009-08-03T16:13:12Z</time>
      </trkpt>
      <trkpt lat="44.99724" lon="4.76143">
        <ele>406.73901367188</ele>
        <time>2009-08-03T16:13:13Z</time>
      </trkpt>
      <trkpt lat="44.99738" lon="4.76146">
        <ele>405.79901123047</ele>
        <time>2009-08-03T16:13:15Z</time>
      </trkpt>
      <trkpt lat="44.99762" lon="4.76168">
        <ele>404.53500366211</ele>
        <time>2009-08-03T16:13:19Z</time>
      </trkpt>
      <trkpt lat="44.99814" lon="4.762">
        <ele>402.17599487305</ele>
        <time>2009-08-03T16:13:27Z</time>
      </trkpt>
      <trkpt lat="44.99836" lon="4.76188">
        <ele>401.48999023438</ele>
        <time>2009-08-03T16:13:30Z</time>
      </trkpt>
      <trkpt lat="44.99849" lon="4.76177">
        <ele>400.74200439453</ele>
        <time>2009-08-03T16:13:32Z</time>
      </trkpt>
      <trkpt lat="44.99889" lon="4.76165">
        <ele>399.25500488281</ele>
        <time>2009-08-03T16:13:37Z</time>
      </trkpt>
      <trkpt lat="44.99906" lon="4.76168">
        <ele>398.49099731445</ele>
        <time>2009-08-03T16:13:39Z</time>
      </trkpt>
      <trkpt lat="44.99921" lon="4.76212">
        <ele>396.61898803711</ele>
        <time>2009-08-03T16:13:43Z</time>
      </trkpt>
      <trkpt lat="44.99939" lon="4.7626">
        <ele>394.69500732422</ele>
        <time>2009-08-03T16:13:48Z</time>
      </trkpt>
      <trkpt lat="44.99974" lon="4.76286">
        <ele>392.72198486328</ele>
        <time>2009-08-03T16:13:52Z</time>
      </trkpt>
      <trkpt lat="45.00003" lon="4.76356">
        <ele>390.5419921875</ele>
        <time>2009-08-03T16:13:58Z</time>
      </trkpt>
      <trkpt lat="45.00005" lon="4.76368">
        <ele>389.45901489258</ele>
        <time>2009-08-03T16:13:59Z</time>
      </trkpt>
      <trkpt lat="45.00009" lon="4.76416">
        <ele>389.38500976562</ele>
        <time>2009-08-03T16:14:03Z</time>
      </trkpt>
      <trkpt lat="45.00009" lon="4.76452">
        <ele>387.74899291992</ele>
        <time>2009-08-03T16:14:06Z</time>
      </trkpt>
      <trkpt lat="44.99996" lon="4.76525">
        <ele>385.97900390625</ele>
        <time>2009-08-03T16:14:12Z</time>
      </trkpt>
      <trkpt lat="44.99981" lon="4.76585">
        <ele>383.73098754883</ele>
        <time>2009-08-03T16:14:17Z</time>
      </trkpt>
      <trkpt lat="44.99973" lon="4.76645">
        <ele>383.48400878906</ele>
        <time>2009-08-03T16:14:22Z</time>
      </trkpt>
      <trkpt lat="44.99961" lon="4.76674">
        <ele>382.03900146484</ele>
        <time>2009-08-03T16:14:25Z</time>
      </trkpt>
      <trkpt lat="44.99945" lon="4.76694">
        <ele>382.05899047852</ele>
        <time>2009-08-03T16:14:28Z</time>
      </trkpt>
      <trkpt lat="44.99955" lon="4.7673">
        <ele>380.53799438477</ele>
        <time>2009-08-03T16:14:32Z</time>
      </trkpt>
      <trkpt lat="44.99981" lon="4.76785">
        <ele>378.56500244141</ele>
        <time>2009-08-03T16:14:38Z</time>
      </trkpt>
      <trkpt lat="45.00008" lon="4.76859">
        <ele>377.35299682617</ele>
        <time>2009-08-03T16:14:45Z</time>
      </trkpt>
      <trkpt lat="45.00021" lon="4.76873">
        <ele>377.50201416016</ele>
        <time>2009-08-03T16:14:47Z</time>
      </trkpt>
      <trkpt lat="45.00056" lon="4.76855">
        <ele>379.41198730469</ele>
        <time>2009-08-03T16:14:53Z</time>
      </trkpt>
      <trkpt lat="45.00062" lon="4.76841">
        <ele>380.53201293945</ele>
        <time>2009-08-03T16:14:55Z</time>
      </trkpt>
      <trkpt lat="45.00066" lon="4.76828">
        <ele>381.08099365234</ele>
        <time>2009-08-03T16:14:57Z</time>
      </trkpt>
      <trkpt lat="45.00081" lon="4.76804">
        <ele>382.18701171875</ele>
        <time>2009-08-03T16:15:02Z</time>
      </trkpt>
      <trkpt lat="45.00093" lon="4.76782">
        <ele>383.05499267578</ele>
        <time>2009-08-03T16:15:07Z</time>
      </trkpt>
      <trkpt lat="45.00103" lon="4.76709">
        <ele>385.34399414062</ele>
        <time>2009-08-03T16:15:22Z</time>
      </trkpt>
      <trkpt lat="45.00097" lon="4.76635">
        <ele>387.44500732422</ele>
        <time>2009-08-03T16:15:36Z</time>
      </trkpt>
      <trkpt lat="45.00121" lon="4.76602">
        <ele>389.48999023438</ele>
        <time>2009-08-03T16:15:47Z</time>
      </trkpt>
      <trkpt lat="45.00154" lon="4.76627">
        <ele>391.49099731445</ele>
        <time>2009-08-03T16:15:59Z</time>
      </trkpt>
      <trkpt lat="45.00183" lon="4.7665">
        <ele>394.08099365234</ele>
        <time>2009-08-03T16:16:11Z</time>
      </trkpt>
      <trkpt lat="45.00195" lon="4.76614">
        <ele>395.33599853516</ele>
        <time>2009-08-03T16:16:21Z</time>
      </trkpt>
      <trkpt lat="45.00176" lon="4.76539">
        <ele>397.14700317383</ele>
        <time>2009-08-03T16:16:39Z</time>
      </trkpt>
      <trkpt lat="45.00195" lon="4.76516">
        <ele>400.37899780273</ele>
        <time>2009-08-03T16:16:48Z</time>
      </trkpt>
      <trkpt lat="45.00207" lon="4.76482">
        <ele>402.16299438477</ele>
        <time>2009-08-03T16:16:58Z</time>
      </trkpt>
      <trkpt lat="45.00184" lon="4.76433">
        <ele>404.42498779297</ele>
        <time>2009-08-03T16:17:11Z</time>
      </trkpt>
      <trkpt lat="45.00183" lon="4.76375">
        <ele>406.79800415039</ele>
        <time>2009-08-03T16:17:24Z</time>
      </trkpt>
      <trkpt lat="45.00204" lon="4.76312">
        <ele>409.41000366211</ele>
        <time>2009-08-03T16:17:38Z</time>
      </trkpt>
      <trkpt lat="45.00251" lon="4.76289">
        <ele>411.77899169922</ele>
        <time>2009-08-03T16:17:52Z</time>
      </trkpt>
      <trkpt lat="45.00306" lon="4.76272">
        <ele>414.76699829102</ele>
        <time>2009-08-03T16:18:08Z</time>
      </trkpt>
      <trkpt lat="45.00364" lon="4.76269">
        <ele>417.16900634766</ele>
        <time>2009-08-03T16:18:25Z</time>
      </trkpt>
      <trkpt lat="45.00412" lon="4.76284">
        <ele>419.5</ele>
        <time>2009-08-03T16:18:40Z</time>
      </trkpt>
      <trkpt lat="45.00449" lon="4.76341">
        <ele>421.81201171875</ele>
        <time>2009-08-03T16:18:55Z</time>
      </trkpt>
      <trkpt lat="45.00481" lon="4.76437">
        <ele>424.90701293945</ele>
        <time>2009-08-03T16:19:13Z</time>
      </trkpt>
      <trkpt lat="45.00528" lon="4.76501">
        <ele>427.38598632812</ele>
        <time>2009-08-03T16:19:30Z</time>
      </trkpt>
      <trkpt lat="45.00576" lon="4.76561">
        <ele>429.49200439453</ele>
        <time>2009-08-03T16:19:47Z</time>
      </trkpt>
      <trkpt lat="45.00619" lon="4.76613">
        <ele>431.60000610352</ele>
        <time>2009-08-03T16:20:02Z</time>
      </trkpt>
      <trkpt lat="45.00675" lon="4.76702">
        <ele>433.81298828125</ele>
        <time>2009-08-03T16:20:22Z</time>
      </trkpt>
      <trkpt lat="45.00681" lon="4.76718">
        <ele>435.36199951172</ele>
        <time>2009-08-03T16:20:25Z</time>
      </trkpt>
      <trkpt lat="45.00737" lon="4.76825">
        <ele>438.99301147461</ele>
        <time>2009-08-03T16:20:47Z</time>
      </trkpt>
      <trkpt lat="45.00753" lon="4.76849">
        <ele>439.55999755859</ele>
        <time>2009-08-03T16:20:52Z</time>
      </trkpt>
      <trkpt lat="45.00763" lon="4.76872">
        <ele>440.54501342773</ele>
        <time>2009-08-03T16:20:56Z</time>
      </trkpt>
      <trkpt lat="45.00769" lon="4.76904">
        <ele>441.49798583984</ele>
        <time>2009-08-03T16:21:01Z</time>
      </trkpt>
      <trkpt lat="45.00771" lon="4.76928">
        <ele>441.97799682617</ele>
        <time>2009-08-03T16:21:05Z</time>
      </trkpt>
      <trkpt lat="45.00756" lon="4.76998">
        <ele>443.86999511719</ele>
        <time>2009-08-03T16:21:18Z</time>
      </trkpt>
      <trkpt lat="45.00733" lon="4.77084">
        <ele>446.21701049805</ele>
        <time>2009-08-03T16:21:36Z</time>
      </trkpt>
      <trkpt lat="45.0071" lon="4.77172">
        <ele>449.01300048828</ele>
        <time>2009-08-03T16:21:54Z</time>
      </trkpt>
      <trkpt lat="45.00703" lon="4.77253">
        <ele>452.03900146484</ele>
        <time>2009-08-03T16:22:10Z</time>
      </trkpt>
      <trkpt lat="45.00726" lon="4.77368">
        <ele>453.66900634766</ele>
        <time>2009-08-03T16:22:27Z</time>
      </trkpt>
      <trkpt lat="45.00776" lon="4.77482">
        <ele>455.02099609375</ele>
        <time>2009-08-03T16:22:45Z</time>
      </trkpt>
      <trkpt lat="45.00825" lon="4.77548">
        <ele>457.79901123047</ele>
        <time>2009-08-03T16:23:01Z</time>
      </trkpt>
      <trkpt lat="45.00872" lon="4.77606">
        <ele>460.52398681641</ele>
        <time>2009-08-03T16:23:16Z</time>
      </trkpt>
      <trkpt lat="45.00926" lon="4.77679">
        <ele>463.30599975586</ele>
        <time>2009-08-03T16:23:35Z</time>
      </trkpt>
      <trkpt lat="45.00937" lon="4.77756">
        <ele>466.20599365234</ele>
        <time>2009-08-03T16:23:50Z</time>
      </trkpt>
      <trkpt lat="45.00939" lon="4.77845">
        <ele>468.42098999023</ele>
        <time>2009-08-03T16:24:05Z</time>
      </trkpt>
      <trkpt lat="45.00943" lon="4.77943">
        <ele>471.13500976562</ele>
        <time>2009-08-03T16:24:23Z</time>
      </trkpt>
      <trkpt lat="45.00945" lon="4.78017">
        <ele>473.48901367188</ele>
        <time>2009-08-03T16:24:38Z</time>
      </trkpt>
      <trkpt lat="45.00945" lon="4.78096">
        <ele>475.35299682617</ele>
        <time>2009-08-03T16:24:53Z</time>
      </trkpt>
      <trkpt lat="45.00946" lon="4.78119">
        <ele>475.5539855957</ele>
        <time>2009-08-03T16:24:57Z</time>
      </trkpt>
      <trkpt lat="45.00971" lon="4.78147">
        <ele>475.82501220703</ele>
        <time>2009-08-03T16:25:05Z</time>
      </trkpt>
      <trkpt lat="45.00998" lon="4.78146">
        <ele>476.00399780273</ele>
        <time>2009-08-03T16:25:11Z</time>
      </trkpt>
      <trkpt lat="45.01013" lon="4.78151">
        <ele>476.4700012207</ele>
        <time>2009-08-03T16:25:15Z</time>
      </trkpt>
      <trkpt lat="45.01045" lon="4.78174">
        <ele>476.82800292969</ele>
        <time>2009-08-03T16:25:26Z</time>
      </trkpt>
      <trkpt lat="45.01049" lon="4.78168">
        <ele>476.95300292969</ele>
        <time>2009-08-03T16:25:31Z</time>
      </trkpt>
      <trkpt lat="45.01048" lon="4.78167">
        <ele>476.96099853516</ele>
        <time>2009-08-03T16:25:32Z</time>
      </trkpt>
      <trkpt lat="45.01048" lon="4.78167">
        <ele>477.02700805664</ele>
        <time>2009-08-03T16:25:34Z</time>
      </trkpt>
      <trkpt lat="45.01051" lon="4.78179">
        <ele>476.43200683594</ele>
        <time>2009-08-03T16:26:58Z</time>
      </trkpt>
      <trkpt lat="45.01063" lon="4.78192">
        <ele>476.37200927734</ele>
        <time>2009-08-03T16:27:04Z</time>
      </trkpt>
      <trkpt lat="45.01111" lon="4.7824">
        <ele>474.6549987793</ele>
        <time>2009-08-03T16:27:21Z</time>
      </trkpt>
      <trkpt lat="45.01119" lon="4.78247">
        <ele>474.24099731445</ele>
        <time>2009-08-03T16:27:23Z</time>
      </trkpt>
      <trkpt lat="45.01127" lon="4.78255">
        <ele>474.19900512695</ele>
        <time>2009-08-03T16:27:25Z</time>
      </trkpt>
      <trkpt lat="45.01201" lon="4.78323">
        <ele>471.84298706055</ele>
        <time>2009-08-03T16:27:44Z</time>
      </trkpt>
      <trkpt lat="45.01259" lon="4.78378">
        <ele>469.21499633789</ele>
        <time>2009-08-03T16:27:57Z</time>
      </trkpt>
      <trkpt lat="45.01276" lon="4.78393">
        <ele>468.61599731445</ele>
        <time>2009-08-03T16:28:00Z</time>
      </trkpt>
      <trkpt lat="45.01346" lon="4.78399">
        <ele>468.04598999023</ele>
        <time>2009-08-03T16:28:11Z</time>
      </trkpt>
      <trkpt lat="45.01466" lon="4.78316">
        <ele>465.06201171875</ele>
        <time>2009-08-03T16:28:28Z</time>
      </trkpt>
      <trkpt lat="45.01595" lon="4.78233">
        <ele>461.97399902344</ele>
        <time>2009-08-03T16:28:45Z</time>
      </trkpt>
      <trkpt lat="45.01649" lon="4.78196">
        <ele>460.59600830078</ele>
        <time>2009-08-03T16:28:52Z</time>
      </trkpt>
      <trkpt lat="45.01673" lon="4.78136">
        <ele>460.25601196289</ele>
        <time>2009-08-03T16:28:58Z</time>
      </trkpt>
      <trkpt lat="45.01678" lon="4.78019">
        <ele>457.53698730469</ele>
        <time>2009-08-03T16:29:08Z</time>
      </trkpt>
      <trkpt lat="45.01681" lon="4.77996">
        <ele>457.54000854492</ele>
        <time>2009-08-03T16:29:10Z</time>
      </trkpt>
      <trkpt lat="45.01711" lon="4.77938">
        <ele>455.8330078125</ele>
        <time>2009-08-03T16:29:17Z</time>
      </trkpt>
      <trkpt lat="45.01713" lon="4.77929">
        <ele>455.51098632812</ele>
        <time>2009-08-03T16:29:18Z</time>
      </trkpt>
      <trkpt lat="45.01725" lon="4.77878">
        <ele>453.48098754883</ele>
        <time>2009-08-03T16:29:23Z</time>
      </trkpt>
      <trkpt lat="45.01756" lon="4.77852">
        <ele>451.72198486328</ele>
        <time>2009-08-03T16:29:28Z</time>
      </trkpt>
      <trkpt lat="45.01856" lon="4.77853">
        <ele>451.70599365234</ele>
        <time>2009-08-03T16:29:41Z</time>
      </trkpt>
      <trkpt lat="45.01901" lon="4.77868">
        <ele>450.77499389648</ele>
        <time>2009-08-03T16:29:47Z</time>
      </trkpt>
      <trkpt lat="45.01934" lon="4.77883">
        <ele>448.52600097656</ele>
        <time>2009-08-03T16:29:51Z</time>
      </trkpt>
      <trkpt lat="45.0196" lon="4.77891">
        <ele>446.12600708008</ele>
        <time>2009-08-03T16:29:54Z</time>
      </trkpt>
      <trkpt lat="45.01988" lon="4.77897">
        <ele>444.87600708008</ele>
        <time>2009-08-03T16:29:57Z</time>
      </trkpt>
      <trkpt lat="45.02046" lon="4.77909">
        <ele>441.38101196289</ele>
        <time>2009-08-03T16:30:03Z</time>
      </trkpt>
      <trkpt lat="45.0208" lon="4.77875">
        <ele>438.55999755859</ele>
        <time>2009-08-03T16:30:08Z</time>
      </trkpt>
      <trkpt lat="45.02085" lon="4.77846">
        <ele>436.88800048828</ele>
        <time>2009-08-03T16:30:10Z</time>
      </trkpt>
      <trkpt lat="45.02105" lon="4.77735">
        <ele>430.57998657227</ele>
        <time>2009-08-03T16:30:18Z</time>
      </trkpt>
      <trkpt lat="45.02121" lon="4.77721">
        <ele>430.66900634766</ele>
        <time>2009-08-03T16:30:20Z</time>
      </trkpt>
      <trkpt lat="45.02133" lon="4.77717">
        <ele>430.78201293945</ele>
        <time>2009-08-03T16:30:21Z</time>
      </trkpt>
      <trkpt lat="45.02152" lon="4.77709">
        <ele>431.21899414062</ele>
        <time>2009-08-03T16:30:23Z</time>
      </trkpt>
      <trkpt lat="45.02179" lon="4.77704">
        <ele>432.95700073242</ele>
        <time>2009-08-03T16:30:26Z</time>
      </trkpt>
      <trkpt lat="45.02211" lon="4.77711">
        <ele>435.52200317383</ele>
        <time>2009-08-03T16:30:31Z</time>
      </trkpt>
      <trkpt lat="45.02216" lon="4.77713">
        <ele>436.09600830078</ele>
        <time>2009-08-03T16:30:32Z</time>
      </trkpt>
      <trkpt lat="45.02246" lon="4.77738">
        <ele>438.41900634766</ele>
        <time>2009-08-03T16:30:40Z</time>
      </trkpt>
      <trkpt lat="45.02265" lon="4.77758">
        <ele>440.19900512695</ele>
        <time>2009-08-03T16:30:46Z</time>
      </trkpt>
      <trkpt lat="45.02283" lon="4.77781">
        <ele>441.06298828125</ele>
        <time>2009-08-03T16:30:52Z</time>
      </trkpt>
      <trkpt lat="45.02303" lon="4.77803">
        <ele>442.73999023438</ele>
        <time>2009-08-03T16:30:58Z</time>
      </trkpt>
      <trkpt lat="45.02322" lon="4.77822">
        <ele>444.00601196289</ele>
        <time>2009-08-03T16:31:04Z</time>
      </trkpt>
      <trkpt lat="45.0234" lon="4.77835">
        <ele>444.87100219727</ele>
        <time>2009-08-03T16:31:09Z</time>
      </trkpt>
      <trkpt lat="45.0239" lon="4.77869">
        <ele>446.5530090332</ele>
        <time>2009-08-03T16:31:22Z</time>
      </trkpt>
      <trkpt lat="45.02461" lon="4.77914">
        <ele>449.46398925781</ele>
        <time>2009-08-03T16:31:40Z</time>
      </trkpt>
      <trkpt lat="45.02537" lon="4.77936">
        <ele>452.66799926758</ele>
        <time>2009-08-03T16:31:57Z</time>
      </trkpt>
      <trkpt lat="45.02555" lon="4.77938">
        <ele>453.4469909668</ele>
        <time>2009-08-03T16:32:01Z</time>
      </trkpt>
      <trkpt lat="45.0259" lon="4.77937">
        <ele>454.66299438477</ele>
        <time>2009-08-03T16:32:09Z</time>
      </trkpt>
      <trkpt lat="45.02638" lon="4.7793">
        <ele>454.19900512695</ele>
        <time>2009-08-03T16:32:19Z</time>
      </trkpt>
      <trkpt lat="45.02684" lon="4.77941">
        <ele>453.96398925781</ele>
        <time>2009-08-03T16:32:27Z</time>
      </trkpt>
      <trkpt lat="45.02723" lon="4.77973">
        <ele>453.38299560547</ele>
        <time>2009-08-03T16:32:34Z</time>
      </trkpt>
      <trkpt lat="45.02751" lon="4.78015">
        <ele>453.01000976562</ele>
        <time>2009-08-03T16:32:40Z</time>
      </trkpt>
      <trkpt lat="45.0279" lon="4.7803">
        <ele>452.53900146484</ele>
        <time>2009-08-03T16:32:46Z</time>
      </trkpt>
      <trkpt lat="45.02825" lon="4.78033">
        <ele>452.71798706055</ele>
        <time>2009-08-03T16:32:51Z</time>
      </trkpt>
      <trkpt lat="45.02871" lon="4.78063">
        <ele>452.43499755859</ele>
        <time>2009-08-03T16:32:58Z</time>
      </trkpt>
      <trkpt lat="45.02899" lon="4.78097">
        <ele>452.45599365234</ele>
        <time>2009-08-03T16:33:03Z</time>
      </trkpt>
      <trkpt lat="45.0292" lon="4.78135">
        <ele>452.07699584961</ele>
        <time>2009-08-03T16:33:08Z</time>
      </trkpt>
      <trkpt lat="45.02917" lon="4.78196">
        <ele>451.81100463867</ele>
        <time>2009-08-03T16:33:15Z</time>
      </trkpt>
      <trkpt lat="45.02895" lon="4.78278">
        <ele>453.29699707031</ele>
        <time>2009-08-03T16:33:24Z</time>
      </trkpt>
      <trkpt lat="45.02877" lon="4.78307">
        <ele>455.41299438477</ele>
        <time>2009-08-03T16:33:29Z</time>
      </trkpt>
      <trkpt lat="45.02858" lon="4.78356">
        <ele>456.91500854492</ele>
        <time>2009-08-03T16:33:39Z</time>
      </trkpt>
      <trkpt lat="45.02868" lon="4.78377">
        <ele>457.67700195312</ele>
        <time>2009-08-03T16:33:43Z</time>
      </trkpt>
      <trkpt lat="45.02899" lon="4.78402">
        <ele>459.65200805664</ele>
        <time>2009-08-03T16:33:51Z</time>
      </trkpt>
      <trkpt lat="45.02906" lon="4.78407">
        <ele>459.78201293945</ele>
        <time>2009-08-03T16:33:53Z</time>
      </trkpt>
      <trkpt lat="45.02921" lon="4.78415">
        <ele>460.74499511719</ele>
        <time>2009-08-03T16:33:57Z</time>
      </trkpt>
      <trkpt lat="45.02932" lon="4.78423">
        <ele>461.30899047852</ele>
        <time>2009-08-03T16:34:00Z</time>
      </trkpt>
      <trkpt lat="45.02991" lon="4.78458">
        <ele>464.26998901367</ele>
        <time>2009-08-03T16:34:17Z</time>
      </trkpt>
      <trkpt lat="45.0304" lon="4.78496">
        <ele>466.99600219727</ele>
        <time>2009-08-03T16:34:31Z</time>
      </trkpt>
      <trkpt lat="45.0307" lon="4.78525">
        <ele>467.52398681641</ele>
        <time>2009-08-03T16:34:40Z</time>
      </trkpt>
      <trkpt lat="45.03078" lon="4.78548">
        <ele>467.92300415039</ele>
        <time>2009-08-03T16:34:44Z</time>
      </trkpt>
      <trkpt lat="45.03086" lon="4.78676">
        <ele>465.76098632812</ele>
        <time>2009-08-03T16:34:59Z</time>
      </trkpt>
      <trkpt lat="45.03086" lon="4.78721">
        <ele>465.6369934082</ele>
        <time>2009-08-03T16:35:03Z</time>
      </trkpt>
      <trkpt lat="45.0308" lon="4.78771">
        <ele>466.84100341797</ele>
        <time>2009-08-03T16:35:08Z</time>
      </trkpt>
      <trkpt lat="45.03085" lon="4.7887">
        <ele>469.08599853516</ele>
        <time>2009-08-03T16:35:19Z</time>
      </trkpt>
      <trkpt lat="45.03108" lon="4.78905">
        <ele>471.33700561523</ele>
        <time>2009-08-03T16:35:25Z</time>
      </trkpt>
      <trkpt lat="45.03156" lon="4.78923">
        <ele>472.90701293945</ele>
        <time>2009-08-03T16:35:32Z</time>
      </trkpt>
      <trkpt lat="45.03196" lon="4.78938">
        <ele>474.29598999023</ele>
        <time>2009-08-03T16:35:39Z</time>
      </trkpt>
      <trkpt lat="45.03273" lon="4.78952">
        <ele>470.98699951172</ele>
        <time>2009-08-03T16:35:52Z</time>
      </trkpt>
      <trkpt lat="45.03321" lon="4.78953">
        <ele>468.59298706055</ele>
        <time>2009-08-03T16:35:59Z</time>
      </trkpt>
      <trkpt lat="45.03378" lon="4.78953">
        <ele>465.02398681641</ele>
        <time>2009-08-03T16:36:06Z</time>
      </trkpt>
      <trkpt lat="45.03427" lon="4.78957">
        <ele>460.98400878906</ele>
        <time>2009-08-03T16:36:11Z</time>
      </trkpt>
      <trkpt lat="45.03503" lon="4.78966">
        <ele>456.68600463867</ele>
        <time>2009-08-03T16:36:18Z</time>
      </trkpt>
      <trkpt lat="45.03513" lon="4.78965">
        <ele>456.57699584961</ele>
        <time>2009-08-03T16:36:19Z</time>
      </trkpt>
      <trkpt lat="45.03581" lon="4.78928">
        <ele>454.77499389648</ele>
        <time>2009-08-03T16:36:26Z</time>
      </trkpt>
      <trkpt lat="45.03624" lon="4.78902">
        <ele>455.14498901367</ele>
        <time>2009-08-03T16:36:31Z</time>
      </trkpt>
      <trkpt lat="45.03716" lon="4.78846">
        <ele>457.6789855957</ele>
        <time>2009-08-03T16:36:44Z</time>
      </trkpt>
      <trkpt lat="45.03738" lon="4.78832">
        <ele>458.88900756836</ele>
        <time>2009-08-03T16:36:48Z</time>
      </trkpt>
      <trkpt lat="45.03765" lon="4.78812">
        <ele>460.22399902344</ele>
        <time>2009-08-03T16:36:53Z</time>
      </trkpt>
      <trkpt lat="45.03792" lon="4.78779">
        <ele>459.29901123047</ele>
        <time>2009-08-03T16:36:58Z</time>
      </trkpt>
      <trkpt lat="45.03809" lon="4.78761">
        <ele>459.09600830078</ele>
        <time>2009-08-03T16:37:01Z</time>
      </trkpt>
      <trkpt lat="45.03837" lon="4.78753">
        <ele>459.16598510742</ele>
        <time>2009-08-03T16:37:05Z</time>
      </trkpt>
      <trkpt lat="45.03882" lon="4.78764">
        <ele>457.49899291992</ele>
        <time>2009-08-03T16:37:11Z</time>
      </trkpt>
      <trkpt lat="45.03916" lon="4.78788">
        <ele>457.68099975586</ele>
        <time>2009-08-03T16:37:16Z</time>
      </trkpt>
      <trkpt lat="45.03994" lon="4.78893">
        <ele>453.5119934082</ele>
        <time>2009-08-03T16:37:29Z</time>
      </trkpt>
      <trkpt lat="45.04011" lon="4.7892">
        <ele>452.35000610352</ele>
        <time>2009-08-03T16:37:32Z</time>
      </trkpt>
      <trkpt lat="45.04024" lon="4.78938">
        <ele>451.29998779297</ele>
        <time>2009-08-03T16:37:34Z</time>
      </trkpt>
      <trkpt lat="45.04072" lon="4.78987">
        <ele>445.80999755859</ele>
        <time>2009-08-03T16:37:40Z</time>
      </trkpt>
      <trkpt lat="45.04111" lon="4.79021">
        <ele>442.06100463867</ele>
        <time>2009-08-03T16:37:44Z</time>
      </trkpt>
      <trkpt lat="45.04142" lon="4.7907">
        <ele>439.24600219727</ele>
        <time>2009-08-03T16:37:48Z</time>
      </trkpt>
      <trkpt lat="45.04202" lon="4.79119">
        <ele>436.91299438477</ele>
        <time>2009-08-03T16:37:54Z</time>
      </trkpt>
      <trkpt lat="45.04213" lon="4.79122">
        <ele>435.87399291992</ele>
        <time>2009-08-03T16:37:55Z</time>
      </trkpt>
      <trkpt lat="45.04269" lon="4.79175">
        <ele>427.8039855957</ele>
        <time>2009-08-03T16:38:01Z</time>
      </trkpt>
      <trkpt lat="45.0431" lon="4.7924">
        <ele>424.87600708008</ele>
        <time>2009-08-03T16:38:06Z</time>
      </trkpt>
      <trkpt lat="45.04333" lon="4.79247">
        <ele>424.97100830078</ele>
        <time>2009-08-03T16:38:08Z</time>
      </trkpt>
      <trkpt lat="45.04463" lon="4.79258">
        <ele>422.60998535156</ele>
        <time>2009-08-03T16:38:21Z</time>
      </trkpt>
      <trkpt lat="45.04587" lon="4.79247">
        <ele>422.38598632812</ele>
        <time>2009-08-03T16:38:35Z</time>
      </trkpt>
      <trkpt lat="45.04626" lon="4.79249">
        <ele>422.60998535156</ele>
        <time>2009-08-03T16:38:40Z</time>
      </trkpt>
      <trkpt lat="45.04684" lon="4.79278">
        <ele>422.31698608398</ele>
        <time>2009-08-03T16:38:50Z</time>
      </trkpt>
      <trkpt lat="45.04718" lon="4.79298">
        <ele>419.96499633789</ele>
        <time>2009-08-03T16:38:55Z</time>
      </trkpt>
      <trkpt lat="45.0474" lon="4.79311">
        <ele>418.48901367188</ele>
        <time>2009-08-03T16:38:58Z</time>
      </trkpt>
      <trkpt lat="45.04799" lon="4.79299">
        <ele>415.39401245117</ele>
        <time>2009-08-03T16:39:05Z</time>
      </trkpt>
      <trkpt lat="45.04815" lon="4.793">
        <ele>414.55499267578</ele>
        <time>2009-08-03T16:39:07Z</time>
      </trkpt>
      <trkpt lat="45.04837" lon="4.79312">
        <ele>413.29800415039</ele>
        <time>2009-08-03T16:39:10Z</time>
      </trkpt>
      <trkpt lat="45.04879" lon="4.79375">
        <ele>409.9169921875</ele>
        <time>2009-08-03T16:39:17Z</time>
      </trkpt>
      <trkpt lat="45.04887" lon="4.79381">
        <ele>409.35800170898</ele>
        <time>2009-08-03T16:39:18Z</time>
      </trkpt>
      <trkpt lat="45.04921" lon="4.79411">
        <ele>406.74499511719</ele>
        <time>2009-08-03T16:39:22Z</time>
      </trkpt>
      <trkpt lat="45.04942" lon="4.79437">
        <ele>405.24600219727</ele>
        <time>2009-08-03T16:39:25Z</time>
      </trkpt>
      <trkpt lat="45.04937" lon="4.79495">
        <ele>402.83898925781</ele>
        <time>2009-08-03T16:39:31Z</time>
      </trkpt>
      <trkpt lat="45.04946" lon="4.79539">
        <ele>401.53399658203</ele>
        <time>2009-08-03T16:39:35Z</time>
      </trkpt>
      <trkpt lat="45.04981" lon="4.79613">
        <ele>399.15899658203</ele>
        <time>2009-08-03T16:39:43Z</time>
      </trkpt>
      <trkpt lat="45.04998" lon="4.79621">
        <ele>398.4580078125</ele>
        <time>2009-08-03T16:39:45Z</time>
      </trkpt>
      <trkpt lat="45.05036" lon="4.79628">
        <ele>396.93399047852</ele>
        <time>2009-08-03T16:39:49Z</time>
      </trkpt>
      <trkpt lat="45.05053" lon="4.79637">
        <ele>396.06100463867</ele>
        <time>2009-08-03T16:39:51Z</time>
      </trkpt>
      <trkpt lat="45.05047" lon="4.79673">
        <ele>395.125</ele>
        <time>2009-08-03T16:39:55Z</time>
      </trkpt>
      <trkpt lat="45.05042" lon="4.79681">
        <ele>394.79800415039</ele>
        <time>2009-08-03T16:39:56Z</time>
      </trkpt>
      <trkpt lat="45.05031" lon="4.79748">
        <ele>392.02398681641</ele>
        <time>2009-08-03T16:40:03Z</time>
      </trkpt>
      <trkpt lat="45.05037" lon="4.79756">
        <ele>391.78399658203</ele>
        <time>2009-08-03T16:40:04Z</time>
      </trkpt>
      <trkpt lat="45.05044" lon="4.79814">
        <ele>390.01000976562</ele>
        <time>2009-08-03T16:40:11Z</time>
      </trkpt>
      <trkpt lat="45.05037" lon="4.7982">
        <ele>390.12600708008</ele>
        <time>2009-08-03T16:40:12Z</time>
      </trkpt>
      <trkpt lat="45.04993" lon="4.79855">
        <ele>387.07400512695</ele>
        <time>2009-08-03T16:40:18Z</time>
      </trkpt>
      <trkpt lat="45.04969" lon="4.79871">
        <ele>385.76098632812</ele>
        <time>2009-08-03T16:40:21Z</time>
      </trkpt>
      <trkpt lat="45.04964" lon="4.79912">
        <ele>384.95300292969</ele>
        <time>2009-08-03T16:40:26Z</time>
      </trkpt>
      <trkpt lat="45.04977" lon="4.79921">
        <ele>384.55099487305</ele>
        <time>2009-08-03T16:40:28Z</time>
      </trkpt>
      <trkpt lat="45.05025" lon="4.79952">
        <ele>382.01400756836</ele>
        <time>2009-08-03T16:40:34Z</time>
      </trkpt>
      <trkpt lat="45.05045" lon="4.7996">
        <ele>380.97299194336</ele>
        <time>2009-08-03T16:40:36Z</time>
      </trkpt>
      <trkpt lat="45.05064" lon="4.79962">
        <ele>379.08898925781</ele>
        <time>2009-08-03T16:40:38Z</time>
      </trkpt>
      <trkpt lat="45.05083" lon="4.79961">
        <ele>378.50900268555</ele>
        <time>2009-08-03T16:40:40Z</time>
      </trkpt>
      <trkpt lat="45.05103" lon="4.79967">
        <ele>377.23599243164</ele>
        <time>2009-08-03T16:40:42Z</time>
      </trkpt>
      <trkpt lat="45.05118" lon="4.80026">
        <ele>375.10800170898</ele>
        <time>2009-08-03T16:40:47Z</time>
      </trkpt>
      <trkpt lat="45.0513" lon="4.80051">
        <ele>373.54800415039</ele>
        <time>2009-08-03T16:40:50Z</time>
      </trkpt>
      <trkpt lat="45.05138" lon="4.80051">
        <ele>372.88299560547</ele>
        <time>2009-08-03T16:40:51Z</time>
      </trkpt>
      <trkpt lat="45.05179" lon="4.80059">
        <ele>370.57501220703</ele>
        <time>2009-08-03T16:40:55Z</time>
      </trkpt>
      <trkpt lat="45.05191" lon="4.80063">
        <ele>369.82000732422</ele>
        <time>2009-08-03T16:40:56Z</time>
      </trkpt>
      <trkpt lat="45.05222" lon="4.80069">
        <ele>368.03399658203</ele>
        <time>2009-08-03T16:40:59Z</time>
      </trkpt>
      <trkpt lat="45.05249" lon="4.80091">
        <ele>366.6669921875</ele>
        <time>2009-08-03T16:41:02Z</time>
      </trkpt>
      <trkpt lat="45.05255" lon="4.80102">
        <ele>366.2919921875</ele>
        <time>2009-08-03T16:41:03Z</time>
      </trkpt>
      <trkpt lat="45.05251" lon="4.80166">
        <ele>363.63198852539</ele>
        <time>2009-08-03T16:41:08Z</time>
      </trkpt>
      <trkpt lat="45.05237" lon="4.80186">
        <ele>362.51901245117</ele>
        <time>2009-08-03T16:41:10Z</time>
      </trkpt>
      <trkpt lat="45.05255" lon="4.80239">
        <ele>360.2080078125</ele>
        <time>2009-08-03T16:41:15Z</time>
      </trkpt>
      <trkpt lat="45.05265" lon="4.80242">
        <ele>360.00500488281</ele>
        <time>2009-08-03T16:41:16Z</time>
      </trkpt>
      <trkpt lat="45.05305" lon="4.80252">
        <ele>357.77499389648</ele>
        <time>2009-08-03T16:41:20Z</time>
      </trkpt>
      <trkpt lat="45.05321" lon="4.80281">
        <ele>355.87701416016</ele>
        <time>2009-08-03T16:41:23Z</time>
      </trkpt>
      <trkpt lat="45.05297" lon="4.80339">
        <ele>353.02099609375</ele>
        <time>2009-08-03T16:41:28Z</time>
      </trkpt>
      <trkpt lat="45.05261" lon="4.80362">
        <ele>351.53298950195</ele>
        <time>2009-08-03T16:41:32Z</time>
      </trkpt>
      <trkpt lat="45.05222" lon="4.80378">
        <ele>349.62200927734</ele>
        <time>2009-08-03T16:41:36Z</time>
      </trkpt>
      <trkpt lat="45.05202" lon="4.80386">
        <ele>348.21899414062</ele>
        <time>2009-08-03T16:41:38Z</time>
      </trkpt>
      <trkpt lat="45.05173" lon="4.80404">
        <ele>345.97198486328</ele>
        <time>2009-08-03T16:41:41Z</time>
      </trkpt>
      <trkpt lat="45.05158" lon="4.80418">
        <ele>345.67001342773</ele>
        <time>2009-08-03T16:41:43Z</time>
      </trkpt>
      <trkpt lat="45.05147" lon="4.80432">
        <ele>345.875</ele>
        <time>2009-08-03T16:41:46Z</time>
      </trkpt>
      <trkpt lat="45.05145" lon="4.80434">
        <ele>345.64801025391</ele>
        <time>2009-08-03T16:41:48Z</time>
      </trkpt>
      <trkpt lat="45.05145" lon="4.80434">
        <ele>345.58599853516</ele>
        <time>2009-08-03T16:41:50Z</time>
      </trkpt>
      <trkpt lat="45.05143" lon="4.80439">
        <ele>345.02099609375</ele>
        <time>2009-08-03T16:41:54Z</time>
      </trkpt>
      <trkpt lat="45.05141" lon="4.80451">
        <ele>344.1960144043</ele>
        <time>2009-08-03T16:41:57Z</time>
      </trkpt>
      <trkpt lat="45.05138" lon="4.80475">
        <ele>343.50900268555</ele>
        <time>2009-08-03T16:42:01Z</time>
      </trkpt>
      <trkpt lat="45.05135" lon="4.80488">
        <ele>343.28201293945</ele>
        <time>2009-08-03T16:42:03Z</time>
      </trkpt>
      <trkpt lat="45.05135" lon="4.80511">
        <ele>343.64401245117</ele>
        <time>2009-08-03T16:42:07Z</time>
      </trkpt>
      <trkpt lat="45.05133" lon="4.80516">
        <ele>344.23999023438</ele>
        <time>2009-08-03T16:42:10Z</time>
      </trkpt>
      <trkpt lat="45.05143" lon="4.80547">
        <ele>343.97698974609</ele>
        <time>2009-08-03T16:42:45Z</time>
      </trkpt>
      <trkpt lat="45.05156" lon="4.80584">
        <ele>344.76599121094</ele>
        <time>2009-08-03T16:42:51Z</time>
      </trkpt>
      <trkpt lat="45.05177" lon="4.80616">
        <ele>344.33401489258</ele>
        <time>2009-08-03T16:42:56Z</time>
      </trkpt>
      <trkpt lat="45.05222" lon="4.80656">
        <ele>346.19500732422</ele>
        <time>2009-08-03T16:43:05Z</time>
      </trkpt>
      <trkpt lat="45.05243" lon="4.80685">
        <ele>344.52200317383</ele>
        <time>2009-08-03T16:43:10Z</time>
      </trkpt>
      <trkpt lat="45.05259" lon="4.80716">
        <ele>343.35400390625</ele>
        <time>2009-08-03T16:43:14Z</time>
      </trkpt>
      <trkpt lat="45.05267" lon="4.80743">
        <ele>341.86700439453</ele>
        <time>2009-08-03T16:43:17Z</time>
      </trkpt>
      <trkpt lat="45.05299" lon="4.80879">
        <ele>341.48999023438</ele>
        <time>2009-08-03T16:43:30Z</time>
      </trkpt>
      <trkpt lat="45.05311" lon="4.80911">
        <ele>343.38900756836</ele>
        <time>2009-08-03T16:43:34Z</time>
      </trkpt>
      <trkpt lat="45.05323" lon="4.80943">
        <ele>345.10800170898</ele>
        <time>2009-08-03T16:43:39Z</time>
      </trkpt>
      <trkpt lat="45.05331" lon="4.80999">
        <ele>348.01901245117</ele>
        <time>2009-08-03T16:43:52Z</time>
      </trkpt>
      <trkpt lat="45.05314" lon="4.81049">
        <ele>350.35400390625</ele>
        <time>2009-08-03T16:44:04Z</time>
      </trkpt>
      <trkpt lat="45.05316" lon="4.81108">
        <ele>353.45700073242</ele>
        <time>2009-08-03T16:44:18Z</time>
      </trkpt>
      <trkpt lat="45.05322" lon="4.8114">
        <ele>354.64099121094</ele>
        <time>2009-08-03T16:44:27Z</time>
      </trkpt>
      <trkpt lat="45.0533" lon="4.81136">
        <ele>355.71499633789</ele>
        <time>2009-08-03T16:44:31Z</time>
      </trkpt>
      <trkpt lat="45.0535" lon="4.81085">
        <ele>358.25900268555</ele>
        <time>2009-08-03T16:44:46Z</time>
      </trkpt>
      <trkpt lat="45.05385" lon="4.81063">
        <ele>360.28698730469</ele>
        <time>2009-08-03T16:44:59Z</time>
      </trkpt>
      <trkpt lat="45.05428" lon="4.81055">
        <ele>362.85299682617</ele>
        <time>2009-08-03T16:45:13Z</time>
      </trkpt>
      <trkpt lat="45.05469" lon="4.81052">
        <ele>365.63198852539</ele>
        <time>2009-08-03T16:45:27Z</time>
      </trkpt>
      <trkpt lat="45.05511" lon="4.81062">
        <ele>367.72299194336</ele>
        <time>2009-08-03T16:45:40Z</time>
      </trkpt>
      <trkpt lat="45.05558" lon="4.81084">
        <ele>370.12600708008</ele>
        <time>2009-08-03T16:45:54Z</time>
      </trkpt>
      <trkpt lat="45.05616" lon="4.81122">
        <ele>368.71099853516</ele>
        <time>2009-08-03T16:46:08Z</time>
      </trkpt>
      <trkpt lat="45.05621" lon="4.81126">
        <ele>368.55099487305</ele>
        <time>2009-08-03T16:46:09Z</time>
      </trkpt>
      <trkpt lat="45.05632" lon="4.81133">
        <ele>368.06600952148</ele>
        <time>2009-08-03T16:46:11Z</time>
      </trkpt>
      <trkpt lat="45.05649" lon="4.81149">
        <ele>366.66101074219</ele>
        <time>2009-08-03T16:46:14Z</time>
      </trkpt>
      <trkpt lat="45.05666" lon="4.81171">
        <ele>365.0299987793</ele>
        <time>2009-08-03T16:46:17Z</time>
      </trkpt>
      <trkpt lat="45.05706" lon="4.81237">
        <ele>361.54699707031</ele>
        <time>2009-08-03T16:46:24Z</time>
      </trkpt>
      <trkpt lat="45.05717" lon="4.81256">
        <ele>361.89099121094</ele>
        <time>2009-08-03T16:46:26Z</time>
      </trkpt>
      <trkpt lat="45.05731" lon="4.81296">
        <ele>361.6969909668</ele>
        <time>2009-08-03T16:46:30Z</time>
      </trkpt>
      <trkpt lat="45.05754" lon="4.81344">
        <ele>358.04598999023</ele>
        <time>2009-08-03T16:46:35Z</time>
      </trkpt>
      <trkpt lat="45.05775" lon="4.8139">
        <ele>355.58200073242</ele>
        <time>2009-08-03T16:46:39Z</time>
      </trkpt>
      <trkpt lat="45.0578" lon="4.81401">
        <ele>355.59100341797</ele>
        <time>2009-08-03T16:46:40Z</time>
      </trkpt>
      <trkpt lat="45.05824" lon="4.81433">
        <ele>357.44299316406</ele>
        <time>2009-08-03T16:46:46Z</time>
      </trkpt>
      <trkpt lat="45.05839" lon="4.81435">
        <ele>358.00100708008</ele>
        <time>2009-08-03T16:46:48Z</time>
      </trkpt>
      <trkpt lat="45.05857" lon="4.81442">
        <ele>359.40899658203</ele>
        <time>2009-08-03T16:46:51Z</time>
      </trkpt>
      <trkpt lat="45.05865" lon="4.81452">
        <ele>360.02301025391</ele>
        <time>2009-08-03T16:46:53Z</time>
      </trkpt>
      <trkpt lat="45.0589" lon="4.81491">
        <ele>361.72500610352</ele>
        <time>2009-08-03T16:47:00Z</time>
      </trkpt>
      <trkpt lat="45.0591" lon="4.81527">
        <ele>363.02200317383</ele>
        <time>2009-08-03T16:47:07Z</time>
      </trkpt>
      <trkpt lat="45.05935" lon="4.81574">
        <ele>361.69198608398</ele>
        <time>2009-08-03T16:47:14Z</time>
      </trkpt>
      <trkpt lat="45.05955" lon="4.81602">
        <ele>361.17199707031</ele>
        <time>2009-08-03T16:47:18Z</time>
      </trkpt>
      <trkpt lat="45.05978" lon="4.81667">
        <ele>361.81600952148</ele>
        <time>2009-08-03T16:47:25Z</time>
      </trkpt>
      <trkpt lat="45.06009" lon="4.81748">
        <ele>362.28799438477</ele>
        <time>2009-08-03T16:47:34Z</time>
      </trkpt>
      <trkpt lat="45.0601" lon="4.81809">
        <ele>361.95700073242</ele>
        <time>2009-08-03T16:47:40Z</time>
      </trkpt>
      <trkpt lat="45.05999" lon="4.81877">
        <ele>361.36999511719</ele>
        <time>2009-08-03T16:47:47Z</time>
      </trkpt>
      <trkpt lat="45.05998" lon="4.81898">
        <ele>360.26501464844</ele>
        <time>2009-08-03T16:47:49Z</time>
      </trkpt>
      <trkpt lat="45.05997" lon="4.82041">
        <ele>354.58999633789</ele>
        <time>2009-08-03T16:48:01Z</time>
      </trkpt>
      <trkpt lat="45.05967" lon="4.82096">
        <ele>352.79800415039</ele>
        <time>2009-08-03T16:48:07Z</time>
      </trkpt>
      <trkpt lat="45.05935" lon="4.8212">
        <ele>350.71200561523</ele>
        <time>2009-08-03T16:48:11Z</time>
      </trkpt>
      <trkpt lat="45.0589" lon="4.82151">
        <ele>347.5299987793</ele>
        <time>2009-08-03T16:48:16Z</time>
      </trkpt>
      <trkpt lat="45.0586" lon="4.82172">
        <ele>344.76501464844</ele>
        <time>2009-08-03T16:48:19Z</time>
      </trkpt>
      <trkpt lat="45.05812" lon="4.82187">
        <ele>339.20901489258</ele>
        <time>2009-08-03T16:48:23Z</time>
      </trkpt>
      <trkpt lat="45.05738" lon="4.82237">
        <ele>332.94799804688</ele>
        <time>2009-08-03T16:48:30Z</time>
      </trkpt>
      <trkpt lat="45.05751" lon="4.8228">
        <ele>330.51699829102</ele>
        <time>2009-08-03T16:48:33Z</time>
      </trkpt>
      <trkpt lat="45.05764" lon="4.82307">
        <ele>329.30899047852</ele>
        <time>2009-08-03T16:48:35Z</time>
      </trkpt>
      <trkpt lat="45.05752" lon="4.8236">
        <ele>324.16799926758</ele>
        <time>2009-08-03T16:48:40Z</time>
      </trkpt>
      <trkpt lat="45.05698" lon="4.82389">
        <ele>317.94900512695</ele>
        <time>2009-08-03T16:48:45Z</time>
      </trkpt>
      <trkpt lat="45.05651" lon="4.82396">
        <ele>312.76699829102</ele>
        <time>2009-08-03T16:48:49Z</time>
      </trkpt>
      <trkpt lat="45.05623" lon="4.82443">
        <ele>309.39099121094</ele>
        <time>2009-08-03T16:48:53Z</time>
      </trkpt>
      <trkpt lat="45.05577" lon="4.82487">
        <ele>303.63400268555</ele>
        <time>2009-08-03T16:48:58Z</time>
      </trkpt>
      <trkpt lat="45.05542" lon="4.82479">
        <ele>299.81100463867</ele>
        <time>2009-08-03T16:49:01Z</time>
      </trkpt>
      <trkpt lat="45.05507" lon="4.82486">
        <ele>297.73498535156</ele>
        <time>2009-08-03T16:49:04Z</time>
      </trkpt>
      <trkpt lat="45.05496" lon="4.82539">
        <ele>294.29098510742</ele>
        <time>2009-08-03T16:49:09Z</time>
      </trkpt>
      <trkpt lat="45.05529" lon="4.82577">
        <ele>290.72799682617</ele>
        <time>2009-08-03T16:49:13Z</time>
      </trkpt>
      <trkpt lat="45.05558" lon="4.82602">
        <ele>287.77499389648</ele>
        <time>2009-08-03T16:49:16Z</time>
      </trkpt>
      <trkpt lat="45.056" lon="4.82607">
        <ele>285.15100097656</ele>
        <time>2009-08-03T16:49:20Z</time>
      </trkpt>
      <trkpt lat="45.05621" lon="4.82596">
        <ele>282.34100341797</ele>
        <time>2009-08-03T16:49:22Z</time>
      </trkpt>
      <trkpt lat="45.05658" lon="4.82602">
        <ele>279.70401000977</ele>
        <time>2009-08-03T16:49:25Z</time>
      </trkpt>
      <trkpt lat="45.05693" lon="4.82656">
        <ele>274.8869934082</ele>
        <time>2009-08-03T16:49:30Z</time>
      </trkpt>
      <trkpt lat="45.05707" lon="4.82698">
        <ele>271.66799926758</ele>
        <time>2009-08-03T16:49:33Z</time>
      </trkpt>
      <trkpt lat="45.05762" lon="4.82729">
        <ele>266.85000610352</ele>
        <time>2009-08-03T16:49:39Z</time>
      </trkpt>
      <trkpt lat="45.05784" lon="4.82725">
        <ele>264.8030090332</ele>
        <time>2009-08-03T16:49:41Z</time>
      </trkpt>
      <trkpt lat="45.05835" lon="4.82705">
        <ele>261.48498535156</ele>
        <time>2009-08-03T16:49:46Z</time>
      </trkpt>
      <trkpt lat="45.05873" lon="4.82733">
        <ele>257.4169921875</ele>
        <time>2009-08-03T16:49:51Z</time>
      </trkpt>
      <trkpt lat="45.05923" lon="4.82744">
        <ele>252.57699584961</ele>
        <time>2009-08-03T16:49:56Z</time>
      </trkpt>
      <trkpt lat="45.05972" lon="4.8275">
        <ele>249.08500671387</ele>
        <time>2009-08-03T16:50:00Z</time>
      </trkpt>
      <trkpt lat="45.05984" lon="4.82742">
        <ele>247.81199645996</ele>
        <time>2009-08-03T16:50:01Z</time>
      </trkpt>
      <trkpt lat="45.06013" lon="4.82759">
        <ele>244.30999755859</ele>
        <time>2009-08-03T16:50:07Z</time>
      </trkpt>
      <trkpt lat="45.06009" lon="4.82772">
        <ele>243.56399536133</ele>
        <time>2009-08-03T16:50:08Z</time>
      </trkpt>
      <trkpt lat="45.06003" lon="4.82784">
        <ele>242.51300048828</ele>
        <time>2009-08-03T16:50:09Z</time>
      </trkpt>
      <trkpt lat="45.05962" lon="4.82864">
        <ele>234.77400207519</ele>
        <time>2009-08-03T16:50:15Z</time>
      </trkpt>
      <trkpt lat="45.05874" lon="4.8295">
        <ele>225.78799438477</ele>
        <time>2009-08-03T16:50:23Z</time>
      </trkpt>
      <trkpt lat="45.05838" lon="4.82969">
        <ele>224.08099365234</ele>
        <time>2009-08-03T16:50:26Z</time>
      </trkpt>
      <trkpt lat="45.05827" lon="4.83012">
        <ele>222.3690032959</ele>
        <time>2009-08-03T16:50:31Z</time>
      </trkpt>
      <trkpt lat="45.05851" lon="4.83054">
        <ele>219.05700683594</ele>
        <time>2009-08-03T16:50:35Z</time>
      </trkpt>
      <trkpt lat="45.05899" lon="4.83082">
        <ele>214.02900695801</ele>
        <time>2009-08-03T16:50:40Z</time>
      </trkpt>
      <trkpt lat="45.05959" lon="4.83092">
        <ele>205.36500549316</ele>
        <time>2009-08-03T16:50:45Z</time>
      </trkpt>
      <trkpt lat="45.0604" lon="4.83105">
        <ele>200.9880065918</ele>
        <time>2009-08-03T16:50:52Z</time>
      </trkpt>
      <trkpt lat="45.06065" lon="4.83144">
        <ele>196.23599243164</ele>
        <time>2009-08-03T16:50:56Z</time>
      </trkpt>
      <trkpt lat="45.0611" lon="4.83166">
        <ele>191.92500305176</ele>
        <time>2009-08-03T16:51:00Z</time>
      </trkpt>
      <trkpt lat="45.06143" lon="4.83183">
        <ele>189.23100280762</ele>
        <time>2009-08-03T16:51:03Z</time>
      </trkpt>
      <trkpt lat="45.06189" lon="4.83184">
        <ele>186.35499572754</ele>
        <time>2009-08-03T16:51:07Z</time>
      </trkpt>
      <trkpt lat="45.06248" lon="4.83204">
        <ele>178.59300231934</ele>
        <time>2009-08-03T16:51:12Z</time>
      </trkpt>
      <trkpt lat="45.06274" lon="4.832">
        <ele>175.42999267578</ele>
        <time>2009-08-03T16:51:14Z</time>
      </trkpt>
      <trkpt lat="45.06392" lon="4.83179">
        <ele>166.67900085449</ele>
        <time>2009-08-03T16:51:23Z</time>
      </trkpt>
      <trkpt lat="45.06462" lon="4.83168">
        <ele>161.10499572754</ele>
        <time>2009-08-03T16:51:28Z</time>
      </trkpt>
      <trkpt lat="45.06491" lon="4.83158">
        <ele>159.73399353027</ele>
        <time>2009-08-03T16:51:30Z</time>
      </trkpt>
      <trkpt lat="45.0658" lon="4.83135">
        <ele>150.65699768066</ele>
        <time>2009-08-03T16:51:36Z</time>
      </trkpt>
      <trkpt lat="45.06608" lon="4.8313">
        <ele>150.2619934082</ele>
        <time>2009-08-03T16:51:39Z</time>
      </trkpt>
      <trkpt lat="45.06617" lon="4.83134">
        <ele>150.10600280762</ele>
        <time>2009-08-03T16:51:41Z</time>
      </trkpt>
      <trkpt lat="45.06606" lon="4.83158">
        <ele>149.7380065918</ele>
        <time>2009-08-03T16:51:44Z</time>
      </trkpt>
      <trkpt lat="45.06592" lon="4.83171">
        <ele>146.15100097656</ele>
        <time>2009-08-03T16:51:46Z</time>
      </trkpt>
      <trkpt lat="45.06577" lon="4.83183">
        <ele>145.20799255371</ele>
        <time>2009-08-03T16:51:48Z</time>
      </trkpt>
      <trkpt lat="45.06561" lon="4.83197">
        <ele>143.24299621582</ele>
        <time>2009-08-03T16:51:50Z</time>
      </trkpt>
      <trkpt lat="45.06538" lon="4.83218">
        <ele>143.55799865723</ele>
        <time>2009-08-03T16:51:53Z</time>
      </trkpt>
      <trkpt lat="45.06521" lon="4.83277">
        <ele>141.35299682617</ele>
        <time>2009-08-03T16:51:58Z</time>
      </trkpt>
      <trkpt lat="45.06519" lon="4.83378">
        <ele>135.33599853516</ele>
        <time>2009-08-03T16:52:05Z</time>
      </trkpt>
      <trkpt lat="45.06519" lon="4.834">
        <ele>135.91000366211</ele>
        <time>2009-08-03T16:52:07Z</time>
      </trkpt>
      <trkpt lat="45.06529" lon="4.83435">
        <ele>133.42799377441</ele>
        <time>2009-08-03T16:52:11Z</time>
      </trkpt>
      <trkpt lat="45.06541" lon="4.83457">
        <ele>132.56300354004</ele>
        <time>2009-08-03T16:52:14Z</time>
      </trkpt>
      <trkpt lat="45.06531" lon="4.83488">
        <ele>131.66499328613</ele>
        <time>2009-08-03T16:52:19Z</time>
      </trkpt>
      <trkpt lat="45.06469" lon="4.83544">
        <ele>130.99099731445</ele>
        <time>2009-08-03T16:52:31Z</time>
      </trkpt>
      <trkpt lat="45.0645" lon="4.83572">
        <ele>130.28799438477</ele>
        <time>2009-08-03T16:52:36Z</time>
      </trkpt>
      <trkpt lat="45.06454" lon="4.83619">
        <ele>130.07899475098</ele>
        <time>2009-08-03T16:52:44Z</time>
      </trkpt>
      <trkpt lat="45.06455" lon="4.83634">
        <ele>130.70599365234</ele>
        <time>2009-08-03T16:52:47Z</time>
      </trkpt>
      <trkpt lat="45.06455" lon="4.83652">
        <ele>130.96800231934</ele>
        <time>2009-08-03T16:52:53Z</time>
      </trkpt>
      <trkpt lat="45.06456" lon="4.83653">
        <ele>131.01400756836</ele>
        <time>2009-08-03T16:52:55Z</time>
      </trkpt>
      <trkpt lat="45.06469" lon="4.83691">
        <ele>131.10099792481</ele>
        <time>2009-08-03T16:54:27Z</time>
      </trkpt>
      <trkpt lat="45.06468" lon="4.83696">
        <ele>130.90899658203</ele>
        <time>2009-08-03T16:54:28Z</time>
      </trkpt>
      <trkpt lat="45.06466" lon="4.83713">
        <ele>131.02099609375</ele>
        <time>2009-08-03T16:54:31Z</time>
      </trkpt>
      <trkpt lat="45.06464" lon="4.83726">
        <ele>130.32299804688</ele>
        <time>2009-08-03T16:54:33Z</time>
      </trkpt>
      <trkpt lat="45.06441" lon="4.83851">
        <ele>129.60200500488</ele>
        <time>2009-08-03T16:54:49Z</time>
      </trkpt>
      <trkpt lat="45.06437" lon="4.83966">
        <ele>129.85400390625</ele>
        <time>2009-08-03T16:55:02Z</time>
      </trkpt>
      <trkpt lat="45.06434" lon="4.84008">
        <ele>128.86000061035</ele>
        <time>2009-08-03T16:55:07Z</time>
      </trkpt>
      <trkpt lat="45.06433" lon="4.84078">
        <ele>129.53799438477</ele>
        <time>2009-08-03T16:55:19Z</time>
      </trkpt>
      <trkpt lat="45.06433" lon="4.84081">
        <ele>129.73899841309</ele>
        <time>2009-08-03T16:55:21Z</time>
      </trkpt>
      <trkpt lat="45.06433" lon="4.84081">
        <ele>129.7140045166</ele>
        <time>2009-08-03T16:55:23Z</time>
      </trkpt>
      <trkpt lat="45.06437" lon="4.84085">
        <ele>129.39799499512</ele>
        <time>2009-08-03T16:55:42Z</time>
      </trkpt>
      <trkpt lat="45.06439" lon="4.84087">
        <ele>129.33299255371</ele>
        <time>2009-08-03T16:55:43Z</time>
      </trkpt>
      <trkpt lat="45.06467" lon="4.84069">
        <ele>130.15699768066</ele>
        <time>2009-08-03T16:55:50Z</time>
      </trkpt>
      <trkpt lat="45.0648" lon="4.84058">
        <ele>130.06799316406</ele>
        <time>2009-08-03T16:55:53Z</time>
      </trkpt>
      <trkpt lat="45.06493" lon="4.84047">
        <ele>130.00900268555</ele>
        <time>2009-08-03T16:55:56Z</time>
      </trkpt>
      <trkpt lat="45.06497" lon="4.84043">
        <ele>130.02000427246</ele>
        <time>2009-08-03T16:55:57Z</time>
      </trkpt>
      <trkpt lat="45.06524" lon="4.84024">
        <ele>130.82099914551</ele>
        <time>2009-08-03T16:56:03Z</time>
      </trkpt>
      <trkpt lat="45.06543" lon="4.84018">
        <ele>129.8690032959</ele>
        <time>2009-08-03T16:56:07Z</time>
      </trkpt>
      <trkpt lat="45.06556" lon="4.84015">
        <ele>130.80599975586</ele>
        <time>2009-08-03T16:56:10Z</time>
      </trkpt>
      <trkpt lat="45.06572" lon="4.84017">
        <ele>130.75199890137</ele>
        <time>2009-08-03T16:56:14Z</time>
      </trkpt>
      <trkpt lat="45.06605" lon="4.84038">
        <ele>132.09199523926</ele>
        <time>2009-08-03T16:56:22Z</time>
      </trkpt>
      <trkpt lat="45.06653" lon="4.84068">
        <ele>133.74899291992</ele>
        <time>2009-08-03T16:56:34Z</time>
      </trkpt>
      <trkpt lat="45.06738" lon="4.8412">
        <ele>134.89100646973</ele>
        <time>2009-08-03T16:56:51Z</time>
      </trkpt>
      <trkpt lat="45.06757" lon="4.84132">
        <ele>133.63200378418</ele>
        <time>2009-08-03T16:56:54Z</time>
      </trkpt>
      <trkpt lat="45.0684" lon="4.84183">
        <ele>129.46200561523</ele>
        <time>2009-08-03T16:57:06Z</time>
      </trkpt>
      <trkpt lat="45.06867" lon="4.842">
        <ele>128.62300109863</ele>
        <time>2009-08-03T16:57:10Z</time>
      </trkpt>
      <trkpt lat="45.06886" lon="4.84215">
        <ele>128.66700744629</ele>
        <time>2009-08-03T16:57:13Z</time>
      </trkpt>
      <trkpt lat="45.06894" lon="4.84251">
        <ele>128.56799316406</ele>
        <time>2009-08-03T16:57:17Z</time>
      </trkpt>
      <trkpt lat="45.06892" lon="4.84261">
        <ele>128.43800354004</ele>
        <time>2009-08-03T16:57:18Z</time>
      </trkpt>
      <trkpt lat="45.0687" lon="4.84345">
        <ele>128.32200622559</ele>
        <time>2009-08-03T16:57:28Z</time>
      </trkpt>
      <trkpt lat="45.06886" lon="4.84353">
        <ele>127.75299835205</ele>
        <time>2009-08-03T16:57:33Z</time>
      </trkpt>
      <trkpt lat="45.0692" lon="4.84348">
        <ele>128.7859954834</ele>
        <time>2009-08-03T16:57:39Z</time>
      </trkpt>
      <trkpt lat="45.06926" lon="4.84348">
        <ele>128.75100708008</ele>
        <time>2009-08-03T16:57:40Z</time>
      </trkpt>
      <trkpt lat="45.07015" lon="4.84341">
        <ele>129.24299621582</ele>
        <time>2009-08-03T16:57:55Z</time>
      </trkpt>
      <trkpt lat="45.0702" lon="4.84341">
        <ele>128.73300170898</ele>
        <time>2009-08-03T16:57:56Z</time>
      </trkpt>
      <trkpt lat="45.07036" lon="4.84371">
        <ele>128.88999938965</ele>
        <time>2009-08-03T16:58:02Z</time>
      </trkpt>
      <trkpt lat="45.07024" lon="4.84515">
        <ele>128.25799560547</ele>
        <time>2009-08-03T16:58:18Z</time>
      </trkpt>
      <trkpt lat="45.07018" lon="4.84587">
        <ele>129.53100585938</ele>
        <time>2009-08-03T16:58:26Z</time>
      </trkpt>
      <trkpt lat="45.0704" lon="4.84711">
        <ele>131.18299865723</ele>
        <time>2009-08-03T16:58:40Z</time>
      </trkpt>
      <trkpt lat="45.0704" lon="4.84719">
        <ele>131.12600708008</ele>
        <time>2009-08-03T16:58:41Z</time>
      </trkpt>
      <trkpt lat="45.0705" lon="4.84813">
        <ele>129.43600463867</ele>
        <time>2009-08-03T16:58:51Z</time>
      </trkpt>
      <trkpt lat="45.07064" lon="4.84878">
        <ele>125.22100067139</ele>
        <time>2009-08-03T16:58:57Z</time>
      </trkpt>
      <trkpt lat="45.07084" lon="4.84958">
        <ele>125.65799713135</ele>
        <time>2009-08-03T16:59:04Z</time>
      </trkpt>
      <trkpt lat="45.07085" lon="4.85">
        <ele>128.34599304199</ele>
        <time>2009-08-03T16:59:08Z</time>
      </trkpt>
      <trkpt lat="45.07076" lon="4.85082">
        <ele>129.6549987793</ele>
        <time>2009-08-03T16:59:17Z</time>
      </trkpt>
      <trkpt lat="45.07086" lon="4.85213">
        <ele>130.07400512695</ele>
        <time>2009-08-03T16:59:31Z</time>
      </trkpt>
      <trkpt lat="45.0709" lon="4.85362">
        <ele>131.51800537109</ele>
        <time>2009-08-03T16:59:47Z</time>
      </trkpt>
      <trkpt lat="45.07095" lon="4.85505">
        <ele>133.40100097656</ele>
        <time>2009-08-03T17:00:02Z</time>
      </trkpt>
      <trkpt lat="45.07087" lon="4.85664">
        <ele>133.75999450684</ele>
        <time>2009-08-03T17:00:18Z</time>
      </trkpt>
      <trkpt lat="45.07079" lon="4.85793">
        <ele>136.29299926758</ele>
        <time>2009-08-03T17:00:34Z</time>
      </trkpt>
      <trkpt lat="45.07076" lon="4.85819">
        <ele>138.18600463867</ele>
        <time>2009-08-03T17:00:38Z</time>
      </trkpt>
      <trkpt lat="45.07075" lon="4.85854">
        <ele>138.10200500488</ele>
        <time>2009-08-03T17:00:43Z</time>
      </trkpt>
      <trkpt lat="45.07065" lon="4.85979">
        <ele>136.86700439453</ele>
        <time>2009-08-03T17:00:57Z</time>
      </trkpt>
      <trkpt lat="45.07075" lon="4.86186">
        <ele>137.19700622559</ele>
        <time>2009-08-03T17:01:18Z</time>
      </trkpt>
      <trkpt lat="45.07069" lon="4.86258">
        <ele>137.51800537109</ele>
        <time>2009-08-03T17:01:25Z</time>
      </trkpt>
      <trkpt lat="45.07064" lon="4.86277">
        <ele>137.80499267578</ele>
        <time>2009-08-03T17:01:27Z</time>
      </trkpt>
      <trkpt lat="45.07027" lon="4.86365">
        <ele>138.35299682617</ele>
        <time>2009-08-03T17:01:37Z</time>
      </trkpt>
      <trkpt lat="45.06992" lon="4.86429">
        <ele>138.70399475098</ele>
        <time>2009-08-03T17:01:45Z</time>
      </trkpt>
      <trkpt lat="45.07011" lon="4.86477">
        <ele>138.94700622559</ele>
        <time>2009-08-03T17:01:51Z</time>
      </trkpt>
      <trkpt lat="45.0706" lon="4.86485">
        <ele>138.20199584961</ele>
        <time>2009-08-03T17:01:58Z</time>
      </trkpt>
      <trkpt lat="45.07092" lon="4.86549">
        <ele>140.34800720215</ele>
        <time>2009-08-03T17:02:06Z</time>
      </trkpt>
      <trkpt lat="45.07076" lon="4.86625">
        <ele>143.16799926758</ele>
        <time>2009-08-03T17:02:14Z</time>
      </trkpt>
      <trkpt lat="45.07036" lon="4.86708">
        <ele>146.50799560547</ele>
        <time>2009-08-03T17:02:24Z</time>
      </trkpt>
      <trkpt lat="45.07023" lon="4.86823">
        <ele>148.45700073242</ele>
        <time>2009-08-03T17:02:36Z</time>
      </trkpt>
      <trkpt lat="45.06999" lon="4.86954">
        <ele>150.36799621582</ele>
        <time>2009-08-03T17:02:52Z</time>
      </trkpt>
      <trkpt lat="45.0699" lon="4.86993">
        <ele>150.20399475098</ele>
        <time>2009-08-03T17:02:57Z</time>
      </trkpt>
      <trkpt lat="45.06943" lon="4.87097">
        <ele>149.73699951172</ele>
        <time>2009-08-03T17:03:13Z</time>
      </trkpt>
      <trkpt lat="45.06908" lon="4.87163">
        <ele>150.57800292969</ele>
        <time>2009-08-03T17:03:23Z</time>
      </trkpt>
      <trkpt lat="45.06884" lon="4.87222">
        <ele>150.82000732422</ele>
        <time>2009-08-03T17:03:31Z</time>
      </trkpt>
      <trkpt lat="45.06855" lon="4.87346">
        <ele>150.80900573731</ele>
        <time>2009-08-03T17:03:46Z</time>
      </trkpt>
      <trkpt lat="45.06849" lon="4.87406">
        <ele>151.07600402832</ele>
        <time>2009-08-03T17:03:54Z</time>
      </trkpt>
      <trkpt lat="45.06849" lon="4.87466">
        <ele>151.08599853516</ele>
        <time>2009-08-03T17:04:01Z</time>
      </trkpt>
      <trkpt lat="45.06865" lon="4.87502">
        <ele>150.79899597168</ele>
        <time>2009-08-03T17:04:08Z</time>
      </trkpt>
      <trkpt lat="45.06907" lon="4.87509">
        <ele>151.44700622559</ele>
        <time>2009-08-03T17:04:15Z</time>
      </trkpt>
      <trkpt lat="45.06911" lon="4.87515">
        <ele>152.03399658203</ele>
        <time>2009-08-03T17:04:16Z</time>
      </trkpt>
      <trkpt lat="45.06961" lon="4.87616">
        <ele>154.48500061035</ele>
        <time>2009-08-03T17:04:31Z</time>
      </trkpt>
      <trkpt lat="45.07006" lon="4.87779">
        <ele>156.38299560547</ele>
        <time>2009-08-03T17:04:52Z</time>
      </trkpt>
      <trkpt lat="45.07041" lon="4.87904">
        <ele>155.11000061035</ele>
        <time>2009-08-03T17:05:08Z</time>
      </trkpt>
      <trkpt lat="45.0709" lon="4.88048">
        <ele>156.89500427246</ele>
        <time>2009-08-03T17:05:25Z</time>
      </trkpt>
      <trkpt lat="45.07166" lon="4.88189">
        <ele>158.21299743652</ele>
        <time>2009-08-03T17:05:43Z</time>
      </trkpt>
      <trkpt lat="45.07252" lon="4.88331">
        <ele>161.27900695801</ele>
        <time>2009-08-03T17:06:04Z</time>
      </trkpt>
      <trkpt lat="45.07307" lon="4.88463">
        <ele>162.04299926758</ele>
        <time>2009-08-03T17:06:22Z</time>
      </trkpt>
      <trkpt lat="45.07327" lon="4.88523">
        <ele>163.21899414062</ele>
        <time>2009-08-03T17:06:30Z</time>
      </trkpt>
      <trkpt lat="45.07363" lon="4.88669">
        <ele>164.61599731445</ele>
        <time>2009-08-03T17:06:48Z</time>
      </trkpt>
      <trkpt lat="45.07382" lon="4.88817">
        <ele>167.20599365234</ele>
        <time>2009-08-03T17:07:05Z</time>
      </trkpt>
      <trkpt lat="45.07412" lon="4.88901">
        <ele>168.84899902344</ele>
        <time>2009-08-03T17:07:16Z</time>
      </trkpt>
      <trkpt lat="45.07441" lon="4.88931">
        <ele>168.81100463867</ele>
        <time>2009-08-03T17:07:22Z</time>
      </trkpt>
      <trkpt lat="45.07511" lon="4.88962">
        <ele>170.35400390625</ele>
        <time>2009-08-03T17:07:35Z</time>
      </trkpt>
      <trkpt lat="45.07528" lon="4.88966">
        <ele>170.8450012207</ele>
        <time>2009-08-03T17:07:38Z</time>
      </trkpt>
      <trkpt lat="45.07557" lon="4.88986">
        <ele>171.84800720215</ele>
        <time>2009-08-03T17:07:44Z</time>
      </trkpt>
      <trkpt lat="45.07573" lon="4.89006">
        <ele>172.51600646973</ele>
        <time>2009-08-03T17:07:48Z</time>
      </trkpt>
      <trkpt lat="45.07616" lon="4.89075">
        <ele>175.68800354004</ele>
        <time>2009-08-03T17:08:02Z</time>
      </trkpt>
      <trkpt lat="45.0764" lon="4.89099">
        <ele>177.02400207519</ele>
        <time>2009-08-03T17:08:09Z</time>
      </trkpt>
      <trkpt lat="45.07652" lon="4.89111">
        <ele>177.46699523926</ele>
        <time>2009-08-03T17:08:12Z</time>
      </trkpt>
      <trkpt lat="45.07686" lon="4.89135">
        <ele>179.80799865723</ele>
        <time>2009-08-03T17:08:20Z</time>
      </trkpt>
      <trkpt lat="45.07696" lon="4.89145">
        <ele>180.34800720215</ele>
        <time>2009-08-03T17:08:23Z</time>
      </trkpt>
      <trkpt lat="45.07713" lon="4.89156">
        <ele>181.83799743652</ele>
        <time>2009-08-03T17:08:28Z</time>
      </trkpt>
      <trkpt lat="45.07721" lon="4.89156">
        <ele>181.62699890137</ele>
        <time>2009-08-03T17:08:30Z</time>
      </trkpt>
      <trkpt lat="45.07745" lon="4.89164">
        <ele>182.34800720215</ele>
        <time>2009-08-03T17:08:35Z</time>
      </trkpt>
      <trkpt lat="45.07768" lon="4.89177">
        <ele>182.4640045166</ele>
        <time>2009-08-03T17:08:40Z</time>
      </trkpt>
      <trkpt lat="45.07803" lon="4.89214">
        <ele>182.57600402832</ele>
        <time>2009-08-03T17:08:48Z</time>
      </trkpt>
      <trkpt lat="45.07848" lon="4.89312">
        <ele>182.64599609375</ele>
        <time>2009-08-03T17:09:02Z</time>
      </trkpt>
      <trkpt lat="45.07882" lon="4.89421">
        <ele>182.2200012207</ele>
        <time>2009-08-03T17:09:15Z</time>
      </trkpt>
      <trkpt lat="45.07889" lon="4.89553">
        <ele>180.75900268555</ele>
        <time>2009-08-03T17:09:28Z</time>
      </trkpt>
      <trkpt lat="45.07877" lon="4.89711">
        <ele>182.55499267578</ele>
        <time>2009-08-03T17:09:43Z</time>
      </trkpt>
      <trkpt lat="45.07878" lon="4.89739">
        <ele>182.40299987793</ele>
        <time>2009-08-03T17:09:46Z</time>
      </trkpt>
      <trkpt lat="45.0791" lon="4.89815">
        <ele>184.37800598144</ele>
        <time>2009-08-03T17:09:58Z</time>
      </trkpt>
      <trkpt lat="45.07946" lon="4.89903">
        <ele>184.89199829102</ele>
        <time>2009-08-03T17:10:12Z</time>
      </trkpt>
      <trkpt lat="45.07964" lon="4.89946">
        <ele>186.13900756836</ele>
        <time>2009-08-03T17:10:19Z</time>
      </trkpt>
      <trkpt lat="45.07986" lon="4.89958">
        <ele>186.83299255371</ele>
        <time>2009-08-03T17:10:25Z</time>
      </trkpt>
      <trkpt lat="45.08011" lon="4.89943">
        <ele>188.04299926758</ele>
        <time>2009-08-03T17:10:32Z</time>
      </trkpt>
      <trkpt lat="45.08024" lon="4.89958">
        <ele>188.76499938965</ele>
        <time>2009-08-03T17:10:36Z</time>
      </trkpt>
      <trkpt lat="45.08065" lon="4.9002">
        <ele>190.22599792481</ele>
        <time>2009-08-03T17:10:49Z</time>
      </trkpt>
      <trkpt lat="45.08105" lon="4.90052">
        <ele>191.79600524902</ele>
        <time>2009-08-03T17:10:59Z</time>
      </trkpt>
      <trkpt lat="45.08171" lon="4.90123">
        <ele>195.36999511719</ele>
        <time>2009-08-03T17:11:19Z</time>
      </trkpt>
      <trkpt lat="45.08224" lon="4.9018">
        <ele>197.61000061035</ele>
        <time>2009-08-03T17:11:35Z</time>
      </trkpt>
      <trkpt lat="45.08297" lon="4.90238">
        <ele>200.73199462891</ele>
        <time>2009-08-03T17:11:55Z</time>
      </trkpt>
      <trkpt lat="45.08348" lon="4.90284">
        <ele>204.03799438477</ele>
        <time>2009-08-03T17:12:12Z</time>
      </trkpt>
      <trkpt lat="45.08408" lon="4.90342">
        <ele>206.47500610352</ele>
        <time>2009-08-03T17:12:29Z</time>
      </trkpt>
      <trkpt lat="45.08452" lon="4.90391">
        <ele>209.33000183106</ele>
        <time>2009-08-03T17:12:45Z</time>
      </trkpt>
      <trkpt lat="45.08484" lon="4.90416">
        <ele>212.32000732422</ele>
        <time>2009-08-03T17:12:58Z</time>
      </trkpt>
      <trkpt lat="45.08517" lon="4.90436">
        <ele>215.42700195312</ele>
        <time>2009-08-03T17:13:13Z</time>
      </trkpt>
      <trkpt lat="45.08562" lon="4.90443">
        <ele>217.61099243164</ele>
        <time>2009-08-03T17:13:28Z</time>
      </trkpt>
      <trkpt lat="45.08632" lon="4.90461">
        <ele>217.45899963379</ele>
        <time>2009-08-03T17:13:44Z</time>
      </trkpt>
      <trkpt lat="45.08693" lon="4.90479">
        <ele>218.62600708008</ele>
        <time>2009-08-03T17:13:57Z</time>
      </trkpt>
      <trkpt lat="45.08705" lon="4.90483">
        <ele>218.23899841309</ele>
        <time>2009-08-03T17:14:00Z</time>
      </trkpt>
      <trkpt lat="45.08756" lon="4.905">
        <ele>219.50300598144</ele>
        <time>2009-08-03T17:14:11Z</time>
      </trkpt>
      <trkpt lat="45.08831" lon="4.90544">
        <ele>221.65699768066</ele>
        <time>2009-08-03T17:14:28Z</time>
      </trkpt>
      <trkpt lat="45.08835" lon="4.90547">
        <ele>222.00799560547</ele>
        <time>2009-08-03T17:14:29Z</time>
      </trkpt>
      <trkpt lat="45.08925" lon="4.90585">
        <ele>222.63400268555</ele>
        <time>2009-08-03T17:14:48Z</time>
      </trkpt>
      <trkpt lat="45.09005" lon="4.90609">
        <ele>224.11700439453</ele>
        <time>2009-08-03T17:15:05Z</time>
      </trkpt>
      <trkpt lat="45.0907" lon="4.90613">
        <ele>226.17900085449</ele>
        <time>2009-08-03T17:15:19Z</time>
      </trkpt>
      <trkpt lat="45.09123" lon="4.90614">
        <ele>228.14300537109</ele>
        <time>2009-08-03T17:15:33Z</time>
      </trkpt>
      <trkpt lat="45.09175" lon="4.9062">
        <ele>230.07699584961</ele>
        <time>2009-08-03T17:15:47Z</time>
      </trkpt>
      <trkpt lat="45.09232" lon="4.90646">
        <ele>233.32000732422</ele>
        <time>2009-08-03T17:16:04Z</time>
      </trkpt>
      <trkpt lat="45.09295" lon="4.90648">
        <ele>236.72799682617</ele>
        <time>2009-08-03T17:16:22Z</time>
      </trkpt>
      <trkpt lat="45.09343" lon="4.90642">
        <ele>239.12199401856</ele>
        <time>2009-08-03T17:16:36Z</time>
      </trkpt>
      <trkpt lat="45.09394" lon="4.90629">
        <ele>241.75799560547</ele>
        <time>2009-08-03T17:16:51Z</time>
      </trkpt>
      <trkpt lat="45.09449" lon="4.9061">
        <ele>245.28100585938</ele>
        <time>2009-08-03T17:17:08Z</time>
      </trkpt>
      <trkpt lat="45.09509" lon="4.90587">
        <ele>248.12100219727</ele>
        <time>2009-08-03T17:17:26Z</time>
      </trkpt>
      <trkpt lat="45.09554" lon="4.90586">
        <ele>249.75700378418</ele>
        <time>2009-08-03T17:17:38Z</time>
      </trkpt>
      <trkpt lat="45.09618" lon="4.90609">
        <ele>250.79100036621</ele>
        <time>2009-08-03T17:17:54Z</time>
      </trkpt>
      <trkpt lat="45.09646" lon="4.90631">
        <ele>248.86999511719</ele>
        <time>2009-08-03T17:18:01Z</time>
      </trkpt>
      <trkpt lat="45.09665" lon="4.90652">
        <ele>246.4880065918</ele>
        <time>2009-08-03T17:18:05Z</time>
      </trkpt>
      <trkpt lat="45.09683" lon="4.9068">
        <ele>244.37899780273</ele>
        <time>2009-08-03T17:18:09Z</time>
      </trkpt>
      <trkpt lat="45.09697" lon="4.90704">
        <ele>241.60899353027</ele>
        <time>2009-08-03T17:18:12Z</time>
      </trkpt>
      <trkpt lat="45.09725" lon="4.90759">
        <ele>237.1309967041</ele>
        <time>2009-08-03T17:18:18Z</time>
      </trkpt>
      <trkpt lat="45.09744" lon="4.908">
        <ele>233.52000427246</ele>
        <time>2009-08-03T17:18:22Z</time>
      </trkpt>
      <trkpt lat="45.09761" lon="4.9083">
        <ele>231.95500183106</ele>
        <time>2009-08-03T17:18:25Z</time>
      </trkpt>
      <trkpt lat="45.09776" lon="4.90847">
        <ele>231.13299560547</ele>
        <time>2009-08-03T17:18:27Z</time>
      </trkpt>
      <trkpt lat="45.09784" lon="4.90856">
        <ele>228.91299438477</ele>
        <time>2009-08-03T17:18:28Z</time>
      </trkpt>
      <trkpt lat="45.09823" lon="4.90929">
        <ele>221.06900024414</ele>
        <time>2009-08-03T17:18:34Z</time>
      </trkpt>
      <trkpt lat="45.09836" lon="4.90972">
        <ele>218.41499328613</ele>
        <time>2009-08-03T17:18:37Z</time>
      </trkpt>
      <trkpt lat="45.09863" lon="4.91018">
        <ele>214.34100341797</ele>
        <time>2009-08-03T17:18:41Z</time>
      </trkpt>
      <trkpt lat="45.09929" lon="4.91093">
        <ele>209.8390045166</ele>
        <time>2009-08-03T17:18:49Z</time>
      </trkpt>
      <trkpt lat="45.10016" lon="4.91159">
        <ele>206.17799377441</ele>
        <time>2009-08-03T17:19:00Z</time>
      </trkpt>
      <trkpt lat="45.10063" lon="4.91187">
        <ele>203.32099914551</ele>
        <time>2009-08-03T17:19:06Z</time>
      </trkpt>
      <trkpt lat="45.10198" lon="4.91233">
        <ele>201.83099365234</ele>
        <time>2009-08-03T17:19:23Z</time>
      </trkpt>
      <trkpt lat="45.10255" lon="4.91247">
        <ele>200.87800598144</ele>
        <time>2009-08-03T17:19:31Z</time>
      </trkpt>
      <trkpt lat="45.10268" lon="4.91248">
        <ele>200.39399719238</ele>
        <time>2009-08-03T17:19:33Z</time>
      </trkpt>
      <trkpt lat="45.10286" lon="4.9127">
        <ele>200.56900024414</ele>
        <time>2009-08-03T17:19:38Z</time>
      </trkpt>
      <trkpt lat="45.10271" lon="4.91434">
        <ele>198.48699951172</ele>
        <time>2009-08-03T17:19:57Z</time>
      </trkpt>
      <trkpt lat="45.10247" lon="4.91575">
        <ele>196.05299377441</ele>
        <time>2009-08-03T17:20:13Z</time>
      </trkpt>
      <trkpt lat="45.10222" lon="4.91722">
        <ele>194.40600585938</ele>
        <time>2009-08-03T17:20:29Z</time>
      </trkpt>
      <trkpt lat="45.10215" lon="4.9176">
        <ele>194.77799987793</ele>
        <time>2009-08-03T17:20:34Z</time>
      </trkpt>
      <trkpt lat="45.10226" lon="4.91774">
        <ele>194.08200073242</ele>
        <time>2009-08-03T17:20:39Z</time>
      </trkpt>
      <trkpt lat="45.10277" lon="4.91766">
        <ele>193.42399597168</ele>
        <time>2009-08-03T17:20:49Z</time>
      </trkpt>
      <trkpt lat="45.10315" lon="4.91798">
        <ele>193.58299255371</ele>
        <time>2009-08-03T17:20:58Z</time>
      </trkpt>
      <trkpt lat="45.10317" lon="4.91806">
        <ele>193.42599487305</ele>
        <time>2009-08-03T17:20:59Z</time>
      </trkpt>
      <trkpt lat="45.10348" lon="4.91984">
        <ele>192.17500305176</ele>
        <time>2009-08-03T17:21:18Z</time>
      </trkpt>
      <trkpt lat="45.10387" lon="4.92206">
        <ele>190.35899353027</ele>
        <time>2009-08-03T17:21:39Z</time>
      </trkpt>
      <trkpt lat="45.10425" lon="4.92422">
        <ele>191.33200073242</ele>
        <time>2009-08-03T17:22:01Z</time>
      </trkpt>
      <trkpt lat="45.10445" lon="4.9253">
        <ele>194.19599914551</ele>
        <time>2009-08-03T17:22:15Z</time>
      </trkpt>
      <trkpt lat="45.10464" lon="4.9264">
        <ele>195.15400695801</ele>
        <time>2009-08-03T17:22:30Z</time>
      </trkpt>
      <trkpt lat="45.10486" lon="4.92753">
        <ele>194.45199584961</ele>
        <time>2009-08-03T17:22:45Z</time>
      </trkpt>
      <trkpt lat="45.10509" lon="4.92867">
        <ele>195.28799438477</ele>
        <time>2009-08-03T17:23:00Z</time>
      </trkpt>
      <trkpt lat="45.10537" lon="4.93008">
        <ele>194.93800354004</ele>
        <time>2009-08-03T17:23:18Z</time>
      </trkpt>
      <trkpt lat="45.10564" lon="4.93145">
        <ele>195.82000732422</ele>
        <time>2009-08-03T17:23:37Z</time>
      </trkpt>
      <trkpt lat="45.10581" lon="4.93243">
        <ele>197.26300048828</ele>
        <time>2009-08-03T17:23:52Z</time>
      </trkpt>
      <trkpt lat="45.10603" lon="4.93352">
        <ele>199.03399658203</ele>
        <time>2009-08-03T17:24:09Z</time>
      </trkpt>
      <trkpt lat="45.1063" lon="4.93492">
        <ele>201.70899963379</ele>
        <time>2009-08-03T17:24:29Z</time>
      </trkpt>
      <trkpt lat="45.10644" lon="4.93564">
        <ele>205.65400695801</ele>
        <time>2009-08-03T17:24:41Z</time>
      </trkpt>
      <trkpt lat="45.10651" lon="4.93602">
        <ele>208.24299621582</ele>
        <time>2009-08-03T17:24:47Z</time>
      </trkpt>
      <trkpt lat="45.10656" lon="4.93629">
        <ele>208.92399597168</ele>
        <time>2009-08-03T17:24:51Z</time>
      </trkpt>
      <trkpt lat="45.10666" lon="4.93709">
        <ele>212.24499511719</ele>
        <time>2009-08-03T17:25:05Z</time>
      </trkpt>
      <trkpt lat="45.10678" lon="4.93822">
        <ele>215.78900146484</ele>
        <time>2009-08-03T17:25:24Z</time>
      </trkpt>
      <trkpt lat="45.10682" lon="4.9386">
        <ele>215.36999511719</ele>
        <time>2009-08-03T17:25:30Z</time>
      </trkpt>
      <trkpt lat="45.10685" lon="4.93887">
        <ele>216.06599426269</ele>
        <time>2009-08-03T17:25:34Z</time>
      </trkpt>
      <trkpt lat="45.10705" lon="4.94">
        <ele>214.72700500488</ele>
        <time>2009-08-03T17:25:48Z</time>
      </trkpt>
      <trkpt lat="45.10727" lon="4.94068">
        <ele>213.65899658203</ele>
        <time>2009-08-03T17:25:56Z</time>
      </trkpt>
      <trkpt lat="45.10773" lon="4.9415">
        <ele>211.12800598144</ele>
        <time>2009-08-03T17:26:06Z</time>
      </trkpt>
      <trkpt lat="45.10858" lon="4.9425">
        <ele>210.87899780273</ele>
        <time>2009-08-03T17:26:21Z</time>
      </trkpt>
      <trkpt lat="45.10898" lon="4.94296">
        <ele>211.03100585938</ele>
        <time>2009-08-03T17:26:29Z</time>
      </trkpt>
      <trkpt lat="45.10912" lon="4.94324">
        <ele>211.6609954834</ele>
        <time>2009-08-03T17:26:33Z</time>
      </trkpt>
      <trkpt lat="45.10917" lon="4.9434">
        <ele>212.08000183106</ele>
        <time>2009-08-03T17:26:35Z</time>
      </trkpt>
      <trkpt lat="45.10926" lon="4.9447">
        <ele>211.77600097656</ele>
        <time>2009-08-03T17:26:49Z</time>
      </trkpt>
      <trkpt lat="45.10919" lon="4.94638">
        <ele>212.61399841309</ele>
        <time>2009-08-03T17:27:07Z</time>
      </trkpt>
      <trkpt lat="45.10874" lon="4.9479">
        <ele>213.34100341797</ele>
        <time>2009-08-03T17:27:25Z</time>
      </trkpt>
      <trkpt lat="45.1086" lon="4.94834">
        <ele>212.34100341797</ele>
        <time>2009-08-03T17:27:31Z</time>
      </trkpt>
      <trkpt lat="45.10853" lon="4.94939">
        <ele>208.21000671387</ele>
        <time>2009-08-03T17:27:42Z</time>
      </trkpt>
      <trkpt lat="45.10849" lon="4.95109">
        <ele>198.56700134277</ele>
        <time>2009-08-03T17:27:54Z</time>
      </trkpt>
      <trkpt lat="45.10854" lon="4.95141">
        <ele>197.68800354004</ele>
        <time>2009-08-03T17:27:56Z</time>
      </trkpt>
      <trkpt lat="45.10866" lon="4.95186">
        <ele>195.32099914551</ele>
        <time>2009-08-03T17:27:59Z</time>
      </trkpt>
      <trkpt lat="45.1087" lon="4.95198">
        <ele>195.11399841309</ele>
        <time>2009-08-03T17:28:00Z</time>
      </trkpt>
      <trkpt lat="45.10874" lon="4.95234">
        <ele>195.06799316406</ele>
        <time>2009-08-03T17:28:04Z</time>
      </trkpt>
      <trkpt lat="45.1087" lon="4.95252">
        <ele>194.87899780273</ele>
        <time>2009-08-03T17:28:08Z</time>
      </trkpt>
      <trkpt lat="45.1087" lon="4.95254">
        <ele>194.72300720215</ele>
        <time>2009-08-03T17:28:09Z</time>
      </trkpt>
      <trkpt lat="45.10874" lon="4.95265">
        <ele>194.07600402832</ele>
        <time>2009-08-03T17:28:12Z</time>
      </trkpt>
      <trkpt lat="45.10897" lon="4.95296">
        <ele>194.22399902344</ele>
        <time>2009-08-03T17:28:19Z</time>
      </trkpt>
      <trkpt lat="45.10931" lon="4.95374">
        <ele>194.34700012207</ele>
        <time>2009-08-03T17:28:30Z</time>
      </trkpt>
      <trkpt lat="45.10963" lon="4.95503">
        <ele>194.81399536133</ele>
        <time>2009-08-03T17:28:44Z</time>
      </trkpt>
      <trkpt lat="45.11021" lon="4.9561">
        <ele>196.82400512695</ele>
        <time>2009-08-03T17:28:58Z</time>
      </trkpt>
      <trkpt lat="45.11099" lon="4.95694">
        <ele>196.30900573731</ele>
        <time>2009-08-03T17:29:12Z</time>
      </trkpt>
      <trkpt lat="45.11154" lon="4.95787">
        <ele>194.68800354004</ele>
        <time>2009-08-03T17:29:24Z</time>
      </trkpt>
      <trkpt lat="45.11232" lon="4.95902">
        <ele>195.88600158691</ele>
        <time>2009-08-03T17:29:40Z</time>
      </trkpt>
      <trkpt lat="45.11302" lon="4.9602">
        <ele>197.55999755859</ele>
        <time>2009-08-03T17:29:56Z</time>
      </trkpt>
      <trkpt lat="45.11373" lon="4.96143">
        <ele>198.2799987793</ele>
        <time>2009-08-03T17:30:13Z</time>
      </trkpt>
      <trkpt lat="45.11419" lon="4.96238">
        <ele>198.78100585938</ele>
        <time>2009-08-03T17:30:27Z</time>
      </trkpt>
      <trkpt lat="45.11478" lon="4.9634">
        <ele>198.15100097656</ele>
        <time>2009-08-03T17:30:42Z</time>
      </trkpt>
      <trkpt lat="45.11487" lon="4.96355">
        <ele>198.43099975586</ele>
        <time>2009-08-03T17:30:44Z</time>
      </trkpt>
      <trkpt lat="45.1153" lon="4.9642">
        <ele>196.43499755859</ele>
        <time>2009-08-03T17:30:53Z</time>
      </trkpt>
      <trkpt lat="45.11572" lon="4.96484">
        <ele>197.42799377441</ele>
        <time>2009-08-03T17:31:04Z</time>
      </trkpt>
      <trkpt lat="45.11574" lon="4.96488">
        <ele>197.83599853516</ele>
        <time>2009-08-03T17:31:05Z</time>
      </trkpt>
      <trkpt lat="45.11583" lon="4.96466">
        <ele>198.02600097656</ele>
        <time>2009-08-03T17:31:12Z</time>
      </trkpt>
      <trkpt lat="45.11579" lon="4.96449">
        <ele>198.92599487305</ele>
        <time>2009-08-03T17:31:20Z</time>
      </trkpt>
      <trkpt lat="45.11561" lon="4.96427">
        <ele>199.1190032959</ele>
        <time>2009-08-03T17:31:54Z</time>
      </trkpt>
      <trkpt lat="45.11563" lon="4.96425">
        <ele>199.03500366211</ele>
        <time>2009-08-03T17:31:55Z</time>
      </trkpt>
      <trkpt lat="45.11567" lon="4.96426">
        <ele>199.74899291992</ele>
        <time>2009-08-03T17:32:00Z</time>
      </trkpt>
      <trkpt lat="45.11569" lon="4.96418">
        <ele>197.99499511719</ele>
        <time>2009-08-03T17:37:21Z</time>
      </trkpt>
      <trkpt lat="45.11566" lon="4.96412">
        <ele>197.9880065918</ele>
        <time>2009-08-03T17:38:10Z</time>
      </trkpt>
      <trkpt lat="45.11567" lon="4.96413">
        <ele>197.96699523926</ele>
        <time>2009-08-03T17:38:12Z</time>
      </trkpt>
      <trkpt lat="45.11577" lon="4.96422">
        <ele>198.42599487305</ele>
        <time>2009-08-03T17:38:47Z</time>
      </trkpt>
    </trkseg>
  </trk>
</gpx>